<?xml version="1.0" encoding="UTF-8" standalone="no" ?>
<gpx xmlns="http://www.topografix.com/GPX/1/1" xmlns:xsi="http://www.w3.org/2001/XMLSchema-instance" xsi:schemaLocation="http://www.topografix.com/GPX/1/1 http://www.topografix.com/GPX/1/1/gpx.xsd" version="1.1" creator="VisuGPX - https://www.visugpx.com">
  <metadata>
    <name>SOMMET DE HONTEYDE (Prat de la lit  Non atteint mauvais météo ) DEPART CIRES RAQUETTES 27 FEVRIER 2022</name>
    <desc><![CDATA[Trace AlpineQuest 27/02/2022 09:42:24]]></desc>
  </metadata>
  <trk>
    <name><![CDATA[SOMMET DE HONTEYDE (Prat de la lit  Non atteint mauvais météo ) DEPART CIRES RAQUETTES 27 FEVRIER 2022_1]]></name>
    <trkseg>
      <trkpt lat="42.85214" lon="0.51884">
        <ele>1281.805</ele>
        <time>2022-02-27T08:42:24Z</time>
      </trkpt>
      <trkpt lat="42.85216" lon="0.51886">
        <ele>1286.822</ele>
        <time>2022-02-27T08:42:26Z</time>
      </trkpt>
      <trkpt lat="42.85217" lon="0.51887">
        <ele>1285.859</ele>
        <time>2022-02-27T08:42:28Z</time>
      </trkpt>
      <trkpt lat="42.85216" lon="0.51886">
        <ele>1280.639</ele>
        <time>2022-02-27T08:42:30Z</time>
      </trkpt>
      <trkpt lat="42.85215" lon="0.51886">
        <ele>1279.053</ele>
        <time>2022-02-27T08:42:32Z</time>
      </trkpt>
      <trkpt lat="42.85214" lon="0.51885">
        <ele>1277.673</ele>
        <time>2022-02-27T08:42:34Z</time>
      </trkpt>
      <trkpt lat="42.85215" lon="0.51885">
        <ele>1276.316</ele>
        <time>2022-02-27T08:42:36Z</time>
      </trkpt>
      <trkpt lat="42.85217" lon="0.51886">
        <ele>1275.097</ele>
        <time>2022-02-27T08:42:38Z</time>
      </trkpt>
      <trkpt lat="42.85217" lon="0.51886">
        <ele>1274.708</ele>
        <time>2022-02-27T08:42:40Z</time>
      </trkpt>
      <trkpt lat="42.85217" lon="0.51887">
        <ele>1272.13</ele>
        <time>2022-02-27T08:42:42Z</time>
      </trkpt>
      <trkpt lat="42.85218" lon="0.51889">
        <ele>1271.714</ele>
        <time>2022-02-27T08:42:44Z</time>
      </trkpt>
      <trkpt lat="42.85219" lon="0.5189">
        <ele>1269.248</ele>
        <time>2022-02-27T08:42:46Z</time>
      </trkpt>
      <trkpt lat="42.8522" lon="0.51891">
        <ele>1267.088</ele>
        <time>2022-02-27T08:42:48Z</time>
      </trkpt>
      <trkpt lat="42.85221" lon="0.51892">
        <ele>1266.445</ele>
        <time>2022-02-27T08:42:50Z</time>
      </trkpt>
      <trkpt lat="42.85223" lon="0.51893">
        <ele>1265.506</ele>
        <time>2022-02-27T08:42:52Z</time>
      </trkpt>
      <trkpt lat="42.85225" lon="0.51893">
        <ele>1265.441</ele>
        <time>2022-02-27T08:42:54Z</time>
      </trkpt>
      <trkpt lat="42.85227" lon="0.51892">
        <ele>1264.94</ele>
        <time>2022-02-27T08:42:56Z</time>
      </trkpt>
      <trkpt lat="42.85228" lon="0.51893">
        <ele>1264.798</ele>
        <time>2022-02-27T08:42:58Z</time>
      </trkpt>
      <trkpt lat="42.8523" lon="0.51893">
        <ele>1264.229</ele>
        <time>2022-02-27T08:43:00Z</time>
      </trkpt>
      <trkpt lat="42.85232" lon="0.51893">
        <ele>1263.885</ele>
        <time>2022-02-27T08:43:02Z</time>
      </trkpt>
      <trkpt lat="42.85234" lon="0.51892">
        <ele>1263.341</ele>
        <time>2022-02-27T08:43:04Z</time>
      </trkpt>
      <trkpt lat="42.85236" lon="0.51891">
        <ele>1263.239</ele>
        <time>2022-02-27T08:43:06Z</time>
      </trkpt>
      <trkpt lat="42.85238" lon="0.51891">
        <ele>1262.823</ele>
        <time>2022-02-27T08:43:08Z</time>
      </trkpt>
      <trkpt lat="42.8524" lon="0.51891">
        <ele>1262.138</ele>
        <time>2022-02-27T08:43:10Z</time>
      </trkpt>
      <trkpt lat="42.85242" lon="0.5189">
        <ele>1261.737</ele>
        <time>2022-02-27T08:43:12Z</time>
      </trkpt>
      <trkpt lat="42.85244" lon="0.51889">
        <ele>1261.944</ele>
        <time>2022-02-27T08:43:14Z</time>
      </trkpt>
      <trkpt lat="42.85246" lon="0.51888">
        <ele>1261.627</ele>
        <time>2022-02-27T08:43:16Z</time>
      </trkpt>
      <trkpt lat="42.85248" lon="0.51885">
        <ele>1261.564</ele>
        <time>2022-02-27T08:43:18Z</time>
      </trkpt>
      <trkpt lat="42.85249" lon="0.51883">
        <ele>1261.022</ele>
        <time>2022-02-27T08:43:20Z</time>
      </trkpt>
      <trkpt lat="42.85251" lon="0.5188">
        <ele>1260.512</ele>
        <time>2022-02-27T08:43:22Z</time>
      </trkpt>
      <trkpt lat="42.85252" lon="0.51877">
        <ele>1259.804</ele>
        <time>2022-02-27T08:43:24Z</time>
      </trkpt>
      <trkpt lat="42.85253" lon="0.51874">
        <ele>1259.09</ele>
        <time>2022-02-27T08:43:26Z</time>
      </trkpt>
      <trkpt lat="42.85253" lon="0.51871">
        <ele>1259.357</ele>
        <time>2022-02-27T08:43:28Z</time>
      </trkpt>
      <trkpt lat="42.85254" lon="0.51868">
        <ele>1258.701</ele>
        <time>2022-02-27T08:43:30Z</time>
      </trkpt>
      <trkpt lat="42.85253" lon="0.51864">
        <ele>1258.458</ele>
        <time>2022-02-27T08:43:32Z</time>
      </trkpt>
      <trkpt lat="42.85253" lon="0.51861">
        <ele>1257.965</ele>
        <time>2022-02-27T08:43:34Z</time>
      </trkpt>
      <trkpt lat="42.85251" lon="0.51858">
        <ele>1257.563</ele>
        <time>2022-02-27T08:43:36Z</time>
      </trkpt>
      <trkpt lat="42.8525" lon="0.51856">
        <ele>1257.704</ele>
        <time>2022-02-27T08:43:38Z</time>
      </trkpt>
      <trkpt lat="42.85248" lon="0.51854">
        <ele>1257.942</ele>
        <time>2022-02-27T08:43:40Z</time>
      </trkpt>
      <trkpt lat="42.85246" lon="0.51852">
        <ele>1257.704</ele>
        <time>2022-02-27T08:43:42Z</time>
      </trkpt>
      <trkpt lat="42.85245" lon="0.5185">
        <ele>1256.911</ele>
        <time>2022-02-27T08:43:44Z</time>
      </trkpt>
      <trkpt lat="42.85243" lon="0.51848">
        <ele>1256.71</ele>
        <time>2022-02-27T08:43:46Z</time>
      </trkpt>
      <trkpt lat="42.85241" lon="0.51846">
        <ele>1256.283</ele>
        <time>2022-02-27T08:43:48Z</time>
      </trkpt>
      <trkpt lat="42.8524" lon="0.51844">
        <ele>1256.599</ele>
        <time>2022-02-27T08:43:50Z</time>
      </trkpt>
      <trkpt lat="42.85238" lon="0.51843">
        <ele>1255.784</ele>
        <time>2022-02-27T08:43:52Z</time>
      </trkpt>
      <trkpt lat="42.85236" lon="0.51841">
        <ele>1255.711</ele>
        <time>2022-02-27T08:43:54Z</time>
      </trkpt>
      <trkpt lat="42.85234" lon="0.51839">
        <ele>1256.151</ele>
        <time>2022-02-27T08:43:56Z</time>
      </trkpt>
      <trkpt lat="42.85232" lon="0.51837">
        <ele>1256.762</ele>
        <time>2022-02-27T08:43:58Z</time>
      </trkpt>
      <trkpt lat="42.8523" lon="0.51835">
        <ele>1257.266</ele>
        <time>2022-02-27T08:44:00Z</time>
      </trkpt>
      <trkpt lat="42.85228" lon="0.51832">
        <ele>1256.996</ele>
        <time>2022-02-27T08:44:02Z</time>
      </trkpt>
      <trkpt lat="42.85226" lon="0.51829">
        <ele>1256.293</ele>
        <time>2022-02-27T08:44:04Z</time>
      </trkpt>
      <trkpt lat="42.85225" lon="0.51827">
        <ele>1255.994</ele>
        <time>2022-02-27T08:44:06Z</time>
      </trkpt>
      <trkpt lat="42.85223" lon="0.51826">
        <ele>1255.298</ele>
        <time>2022-02-27T08:44:08Z</time>
      </trkpt>
      <trkpt lat="42.85221" lon="0.51824">
        <ele>1254.767</ele>
        <time>2022-02-27T08:44:10Z</time>
      </trkpt>
      <trkpt lat="42.8522" lon="0.51822">
        <ele>1254.459</ele>
        <time>2022-02-27T08:44:12Z</time>
      </trkpt>
      <trkpt lat="42.85218" lon="0.51821">
        <ele>1253.993</ele>
        <time>2022-02-27T08:44:14Z</time>
      </trkpt>
      <trkpt lat="42.85216" lon="0.51819">
        <ele>1253.807</ele>
        <time>2022-02-27T08:44:16Z</time>
      </trkpt>
      <trkpt lat="42.85214" lon="0.51817">
        <ele>1253.712</ele>
        <time>2022-02-27T08:44:18Z</time>
      </trkpt>
      <trkpt lat="42.85212" lon="0.51815">
        <ele>1253.379</ele>
        <time>2022-02-27T08:44:20Z</time>
      </trkpt>
      <trkpt lat="42.8521" lon="0.51814">
        <ele>1252.768</ele>
        <time>2022-02-27T08:44:22Z</time>
      </trkpt>
      <trkpt lat="42.85208" lon="0.51812">
        <ele>1252</ele>
        <time>2022-02-27T08:44:24Z</time>
      </trkpt>
      <trkpt lat="42.85206" lon="0.51811">
        <ele>1251.393</ele>
        <time>2022-02-27T08:44:26Z</time>
      </trkpt>
      <trkpt lat="42.85204" lon="0.51809">
        <ele>1249.951</ele>
        <time>2022-02-27T08:44:28Z</time>
      </trkpt>
      <trkpt lat="42.85202" lon="0.51807">
        <ele>1249.542</ele>
        <time>2022-02-27T08:44:30Z</time>
      </trkpt>
      <trkpt lat="42.85199" lon="0.51805">
        <ele>1248.985</ele>
        <time>2022-02-27T08:44:32Z</time>
      </trkpt>
      <trkpt lat="42.85196" lon="0.51805">
        <ele>1248.83</ele>
        <time>2022-02-27T08:44:34Z</time>
      </trkpt>
      <trkpt lat="42.85194" lon="0.51803">
        <ele>1250.585</ele>
        <time>2022-02-27T08:44:36Z</time>
      </trkpt>
      <trkpt lat="42.85193" lon="0.518">
        <ele>1250.89</ele>
        <time>2022-02-27T08:44:38Z</time>
      </trkpt>
      <trkpt lat="42.85191" lon="0.51798">
        <ele>1249.656</ele>
        <time>2022-02-27T08:44:40Z</time>
      </trkpt>
      <trkpt lat="42.8519" lon="0.51796">
        <ele>1250.037</ele>
        <time>2022-02-27T08:44:42Z</time>
      </trkpt>
      <trkpt lat="42.85189" lon="0.51794">
        <ele>1250.817</ele>
        <time>2022-02-27T08:44:44Z</time>
      </trkpt>
      <trkpt lat="42.85187" lon="0.51792">
        <ele>1251.13</ele>
        <time>2022-02-27T08:44:46Z</time>
      </trkpt>
      <trkpt lat="42.85185" lon="0.5179">
        <ele>1250.378</ele>
        <time>2022-02-27T08:44:48Z</time>
      </trkpt>
      <trkpt lat="42.85183" lon="0.51789">
        <ele>1250.559</ele>
        <time>2022-02-27T08:44:50Z</time>
      </trkpt>
      <trkpt lat="42.85181" lon="0.51787">
        <ele>1249.913</ele>
        <time>2022-02-27T08:44:52Z</time>
      </trkpt>
      <trkpt lat="42.85181" lon="0.51785">
        <ele>1251.495</ele>
        <time>2022-02-27T08:44:54Z</time>
      </trkpt>
      <trkpt lat="42.85182" lon="0.51782">
        <ele>1251.246</ele>
        <time>2022-02-27T08:44:56Z</time>
      </trkpt>
      <trkpt lat="42.85181" lon="0.5178">
        <ele>1251.241</ele>
        <time>2022-02-27T08:44:58Z</time>
      </trkpt>
      <trkpt lat="42.8518" lon="0.51777">
        <ele>1250.437</ele>
        <time>2022-02-27T08:45:00Z</time>
      </trkpt>
      <trkpt lat="42.85179" lon="0.51775">
        <ele>1250.397</ele>
        <time>2022-02-27T08:45:02Z</time>
      </trkpt>
      <trkpt lat="42.85179" lon="0.51773">
        <ele>1251.031</ele>
        <time>2022-02-27T08:45:04Z</time>
      </trkpt>
      <trkpt lat="42.85178" lon="0.51771">
        <ele>1250.374</ele>
        <time>2022-02-27T08:45:06Z</time>
      </trkpt>
      <trkpt lat="42.85177" lon="0.51769">
        <ele>1249.791</ele>
        <time>2022-02-27T08:45:08Z</time>
      </trkpt>
      <trkpt lat="42.85176" lon="0.51767">
        <ele>1249.636</ele>
        <time>2022-02-27T08:45:10Z</time>
      </trkpt>
      <trkpt lat="42.85175" lon="0.51765">
        <ele>1248.605</ele>
        <time>2022-02-27T08:45:12Z</time>
      </trkpt>
      <trkpt lat="42.85174" lon="0.51763">
        <ele>1246.826</ele>
        <time>2022-02-27T08:45:14Z</time>
      </trkpt>
      <trkpt lat="42.85173" lon="0.51761">
        <ele>1246.309</ele>
        <time>2022-02-27T08:45:16Z</time>
      </trkpt>
      <trkpt lat="42.85173" lon="0.51758">
        <ele>1245.982</ele>
        <time>2022-02-27T08:45:18Z</time>
      </trkpt>
      <trkpt lat="42.85171" lon="0.51755">
        <ele>1245.589</ele>
        <time>2022-02-27T08:45:20Z</time>
      </trkpt>
      <trkpt lat="42.8517" lon="0.51751">
        <ele>1245.191</ele>
        <time>2022-02-27T08:45:22Z</time>
      </trkpt>
      <trkpt lat="42.85169" lon="0.51748">
        <ele>1245.97</ele>
        <time>2022-02-27T08:45:24Z</time>
      </trkpt>
      <trkpt lat="42.85168" lon="0.51745">
        <ele>1245.828</ele>
        <time>2022-02-27T08:45:26Z</time>
      </trkpt>
      <trkpt lat="42.85166" lon="0.51742">
        <ele>1245.502</ele>
        <time>2022-02-27T08:45:28Z</time>
      </trkpt>
      <trkpt lat="42.85165" lon="0.5174">
        <ele>1243.653</ele>
        <time>2022-02-27T08:45:30Z</time>
      </trkpt>
      <trkpt lat="42.85163" lon="0.51737">
        <ele>1243.368</ele>
        <time>2022-02-27T08:45:32Z</time>
      </trkpt>
      <trkpt lat="42.85162" lon="0.51734">
        <ele>1243.982</ele>
        <time>2022-02-27T08:45:34Z</time>
      </trkpt>
      <trkpt lat="42.8516" lon="0.51731">
        <ele>1243.347</ele>
        <time>2022-02-27T08:45:36Z</time>
      </trkpt>
      <trkpt lat="42.85159" lon="0.51728">
        <ele>1243.413</ele>
        <time>2022-02-27T08:45:38Z</time>
      </trkpt>
      <trkpt lat="42.85157" lon="0.51725">
        <ele>1243.638</ele>
        <time>2022-02-27T08:45:40Z</time>
      </trkpt>
      <trkpt lat="42.85155" lon="0.51723">
        <ele>1243.249</ele>
        <time>2022-02-27T08:45:42Z</time>
      </trkpt>
      <trkpt lat="42.85154" lon="0.51721">
        <ele>1243.139</ele>
        <time>2022-02-27T08:45:44Z</time>
      </trkpt>
      <trkpt lat="42.85152" lon="0.5172">
        <ele>1243.387</ele>
        <time>2022-02-27T08:45:46Z</time>
      </trkpt>
      <trkpt lat="42.8515" lon="0.51718">
        <ele>1243.078</ele>
        <time>2022-02-27T08:45:48Z</time>
      </trkpt>
      <trkpt lat="42.85148" lon="0.51716">
        <ele>1243.634</ele>
        <time>2022-02-27T08:45:50Z</time>
      </trkpt>
      <trkpt lat="42.85146" lon="0.51714">
        <ele>1243.673</ele>
        <time>2022-02-27T08:45:52Z</time>
      </trkpt>
      <trkpt lat="42.85144" lon="0.51713">
        <ele>1243.061</ele>
        <time>2022-02-27T08:45:54Z</time>
      </trkpt>
      <trkpt lat="42.85142" lon="0.51712">
        <ele>1242.845</ele>
        <time>2022-02-27T08:45:56Z</time>
      </trkpt>
      <trkpt lat="42.85143" lon="0.51713">
        <ele>1241.326</ele>
        <time>2022-02-27T08:45:58Z</time>
      </trkpt>
      <trkpt lat="42.85144" lon="0.51714">
        <ele>1241.308</ele>
        <time>2022-02-27T08:46:00Z</time>
      </trkpt>
      <trkpt lat="42.85144" lon="0.51714">
        <ele>1241.324</ele>
        <time>2022-02-27T08:46:02Z</time>
      </trkpt>
      <trkpt lat="42.85144" lon="0.51714">
        <ele>1241.359</ele>
        <time>2022-02-27T08:46:04Z</time>
      </trkpt>
      <trkpt lat="42.85144" lon="0.51714">
        <ele>1241.375</ele>
        <time>2022-02-27T08:46:06Z</time>
      </trkpt>
      <trkpt lat="42.85144" lon="0.51714">
        <ele>1241.382</ele>
        <time>2022-02-27T08:46:08Z</time>
      </trkpt>
      <trkpt lat="42.85144" lon="0.51714">
        <ele>1241.383</ele>
        <time>2022-02-27T08:46:10Z</time>
      </trkpt>
      <trkpt lat="42.85144" lon="0.51714">
        <ele>1241.388</ele>
        <time>2022-02-27T08:46:12Z</time>
      </trkpt>
      <trkpt lat="42.85144" lon="0.51714">
        <ele>1241.398</ele>
        <time>2022-02-27T08:46:14Z</time>
      </trkpt>
      <trkpt lat="42.85143" lon="0.51714">
        <ele>1240.866</ele>
        <time>2022-02-27T08:46:16Z</time>
      </trkpt>
      <trkpt lat="42.85141" lon="0.51714">
        <ele>1240.654</ele>
        <time>2022-02-27T08:46:18Z</time>
      </trkpt>
      <trkpt lat="42.8514" lon="0.51714">
        <ele>1241.769</ele>
        <time>2022-02-27T08:46:20Z</time>
      </trkpt>
      <trkpt lat="42.85135" lon="0.51713">
        <ele>1241.326</ele>
        <time>2022-02-27T08:46:22Z</time>
      </trkpt>
      <trkpt lat="42.85133" lon="0.51714">
        <ele>1240.273</ele>
        <time>2022-02-27T08:46:24Z</time>
      </trkpt>
      <trkpt lat="42.85131" lon="0.51715">
        <ele>1240.414</ele>
        <time>2022-02-27T08:46:26Z</time>
      </trkpt>
      <trkpt lat="42.8513" lon="0.51717">
        <ele>1240.062</ele>
        <time>2022-02-27T08:46:28Z</time>
      </trkpt>
      <trkpt lat="42.85127" lon="0.51718">
        <ele>1240.722</ele>
        <time>2022-02-27T08:46:30Z</time>
      </trkpt>
      <trkpt lat="42.85125" lon="0.51719">
        <ele>1240.347</ele>
        <time>2022-02-27T08:46:32Z</time>
      </trkpt>
      <trkpt lat="42.85124" lon="0.51721">
        <ele>1240.563</ele>
        <time>2022-02-27T08:46:34Z</time>
      </trkpt>
      <trkpt lat="42.85122" lon="0.51722">
        <ele>1240.658</ele>
        <time>2022-02-27T08:46:36Z</time>
      </trkpt>
      <trkpt lat="42.85122" lon="0.51723">
        <ele>1240.645</ele>
        <time>2022-02-27T08:46:38Z</time>
      </trkpt>
      <trkpt lat="42.8512" lon="0.51724">
        <ele>1240.268</ele>
        <time>2022-02-27T08:46:40Z</time>
      </trkpt>
      <trkpt lat="42.85119" lon="0.51725">
        <ele>1240.057</ele>
        <time>2022-02-27T08:46:42Z</time>
      </trkpt>
      <trkpt lat="42.85117" lon="0.51726">
        <ele>1239.622</ele>
        <time>2022-02-27T08:46:44Z</time>
      </trkpt>
      <trkpt lat="42.85116" lon="0.51728">
        <ele>1238.726</ele>
        <time>2022-02-27T08:46:46Z</time>
      </trkpt>
      <trkpt lat="42.85114" lon="0.5173">
        <ele>1238.164</ele>
        <time>2022-02-27T08:46:48Z</time>
      </trkpt>
      <trkpt lat="42.85112" lon="0.51731">
        <ele>1237.116</ele>
        <time>2022-02-27T08:46:50Z</time>
      </trkpt>
      <trkpt lat="42.85111" lon="0.51733">
        <ele>1236.958</ele>
        <time>2022-02-27T08:46:52Z</time>
      </trkpt>
      <trkpt lat="42.85109" lon="0.51735">
        <ele>1236.588</ele>
        <time>2022-02-27T08:46:54Z</time>
      </trkpt>
      <trkpt lat="42.85108" lon="0.51736">
        <ele>1236.153</ele>
        <time>2022-02-27T08:46:56Z</time>
      </trkpt>
      <trkpt lat="42.85106" lon="0.51737">
        <ele>1235.918</ele>
        <time>2022-02-27T08:46:58Z</time>
      </trkpt>
      <trkpt lat="42.85104" lon="0.51739">
        <ele>1235.486</ele>
        <time>2022-02-27T08:47:00Z</time>
      </trkpt>
      <trkpt lat="42.85103" lon="0.5174">
        <ele>1236.171</ele>
        <time>2022-02-27T08:47:02Z</time>
      </trkpt>
      <trkpt lat="42.85101" lon="0.51741">
        <ele>1236.662</ele>
        <time>2022-02-27T08:47:04Z</time>
      </trkpt>
      <trkpt lat="42.85099" lon="0.51743">
        <ele>1237.127</ele>
        <time>2022-02-27T08:47:06Z</time>
      </trkpt>
      <trkpt lat="42.85097" lon="0.51744">
        <ele>1237.09</ele>
        <time>2022-02-27T08:47:08Z</time>
      </trkpt>
      <trkpt lat="42.85096" lon="0.51746">
        <ele>1237.864</ele>
        <time>2022-02-27T08:47:10Z</time>
      </trkpt>
      <trkpt lat="42.85094" lon="0.51748">
        <ele>1238.565</ele>
        <time>2022-02-27T08:47:12Z</time>
      </trkpt>
      <trkpt lat="42.85093" lon="0.51751">
        <ele>1239.479</ele>
        <time>2022-02-27T08:47:14Z</time>
      </trkpt>
      <trkpt lat="42.85092" lon="0.51752">
        <ele>1240.465</ele>
        <time>2022-02-27T08:47:16Z</time>
      </trkpt>
      <trkpt lat="42.8509" lon="0.51754">
        <ele>1241.778</ele>
        <time>2022-02-27T08:47:18Z</time>
      </trkpt>
      <trkpt lat="42.85089" lon="0.51755">
        <ele>1242.085</ele>
        <time>2022-02-27T08:47:20Z</time>
      </trkpt>
      <trkpt lat="42.85087" lon="0.51757">
        <ele>1242.134</ele>
        <time>2022-02-27T08:47:22Z</time>
      </trkpt>
      <trkpt lat="42.85085" lon="0.51757">
        <ele>1242.128</ele>
        <time>2022-02-27T08:47:24Z</time>
      </trkpt>
      <trkpt lat="42.85084" lon="0.51757">
        <ele>1241.499</ele>
        <time>2022-02-27T08:47:26Z</time>
      </trkpt>
      <trkpt lat="42.85082" lon="0.51757">
        <ele>1241.984</ele>
        <time>2022-02-27T08:47:28Z</time>
      </trkpt>
      <trkpt lat="42.8508" lon="0.51756">
        <ele>1242.274</ele>
        <time>2022-02-27T08:47:30Z</time>
      </trkpt>
      <trkpt lat="42.85079" lon="0.51755">
        <ele>1241.945</ele>
        <time>2022-02-27T08:47:32Z</time>
      </trkpt>
      <trkpt lat="42.85077" lon="0.51755">
        <ele>1243.76</ele>
        <time>2022-02-27T08:47:34Z</time>
      </trkpt>
      <trkpt lat="42.85075" lon="0.51755">
        <ele>1244.542</ele>
        <time>2022-02-27T08:47:36Z</time>
      </trkpt>
      <trkpt lat="42.85073" lon="0.51755">
        <ele>1244.859</ele>
        <time>2022-02-27T08:47:38Z</time>
      </trkpt>
      <trkpt lat="42.85071" lon="0.51756">
        <ele>1246.005</ele>
        <time>2022-02-27T08:47:40Z</time>
      </trkpt>
      <trkpt lat="42.85069" lon="0.51756">
        <ele>1246.488</ele>
        <time>2022-02-27T08:47:42Z</time>
      </trkpt>
      <trkpt lat="42.85068" lon="0.51757">
        <ele>1248.671</ele>
        <time>2022-02-27T08:47:44Z</time>
      </trkpt>
      <trkpt lat="42.85066" lon="0.51757">
        <ele>1248.661</ele>
        <time>2022-02-27T08:47:46Z</time>
      </trkpt>
      <trkpt lat="42.85064" lon="0.51758">
        <ele>1249.821</ele>
        <time>2022-02-27T08:47:48Z</time>
      </trkpt>
      <trkpt lat="42.85063" lon="0.51759">
        <ele>1249.795</ele>
        <time>2022-02-27T08:47:50Z</time>
      </trkpt>
      <trkpt lat="42.85061" lon="0.5176">
        <ele>1249.521</ele>
        <time>2022-02-27T08:47:52Z</time>
      </trkpt>
      <trkpt lat="42.85059" lon="0.51761">
        <ele>1249.679</ele>
        <time>2022-02-27T08:47:54Z</time>
      </trkpt>
      <trkpt lat="42.85058" lon="0.51761">
        <ele>1249.551</ele>
        <time>2022-02-27T08:47:56Z</time>
      </trkpt>
      <trkpt lat="42.85056" lon="0.51763">
        <ele>1250.27</ele>
        <time>2022-02-27T08:47:58Z</time>
      </trkpt>
      <trkpt lat="42.85055" lon="0.51764">
        <ele>1250.303</ele>
        <time>2022-02-27T08:48:00Z</time>
      </trkpt>
      <trkpt lat="42.85053" lon="0.51766">
        <ele>1251.034</ele>
        <time>2022-02-27T08:48:02Z</time>
      </trkpt>
      <trkpt lat="42.85051" lon="0.51767">
        <ele>1251.815</ele>
        <time>2022-02-27T08:48:04Z</time>
      </trkpt>
      <trkpt lat="42.8505" lon="0.51769">
        <ele>1251.703</ele>
        <time>2022-02-27T08:48:06Z</time>
      </trkpt>
      <trkpt lat="42.85048" lon="0.5177">
        <ele>1251.845</ele>
        <time>2022-02-27T08:48:08Z</time>
      </trkpt>
      <trkpt lat="42.85046" lon="0.51772">
        <ele>1252.291</ele>
        <time>2022-02-27T08:48:11Z</time>
      </trkpt>
      <trkpt lat="42.85044" lon="0.51773">
        <ele>1251.932</ele>
        <time>2022-02-27T08:48:13Z</time>
      </trkpt>
      <trkpt lat="42.85043" lon="0.51775">
        <ele>1251.43</ele>
        <time>2022-02-27T08:48:15Z</time>
      </trkpt>
      <trkpt lat="42.85041" lon="0.51776">
        <ele>1251.256</ele>
        <time>2022-02-27T08:48:17Z</time>
      </trkpt>
      <trkpt lat="42.85039" lon="0.51778">
        <ele>1251.086</ele>
        <time>2022-02-27T08:48:19Z</time>
      </trkpt>
      <trkpt lat="42.85038" lon="0.51779">
        <ele>1250.489</ele>
        <time>2022-02-27T08:48:21Z</time>
      </trkpt>
      <trkpt lat="42.85036" lon="0.5178">
        <ele>1249.877</ele>
        <time>2022-02-27T08:48:23Z</time>
      </trkpt>
      <trkpt lat="42.85035" lon="0.51782">
        <ele>1250.117</ele>
        <time>2022-02-27T08:48:25Z</time>
      </trkpt>
      <trkpt lat="42.85033" lon="0.51784">
        <ele>1249.906</ele>
        <time>2022-02-27T08:48:27Z</time>
      </trkpt>
      <trkpt lat="42.85031" lon="0.51786">
        <ele>1251.202</ele>
        <time>2022-02-27T08:48:29Z</time>
      </trkpt>
      <trkpt lat="42.8503" lon="0.51789">
        <ele>1251.413</ele>
        <time>2022-02-27T08:48:31Z</time>
      </trkpt>
      <trkpt lat="42.8503" lon="0.51791">
        <ele>1251.415</ele>
        <time>2022-02-27T08:48:33Z</time>
      </trkpt>
      <trkpt lat="42.85028" lon="0.51793">
        <ele>1251.976</ele>
        <time>2022-02-27T08:48:35Z</time>
      </trkpt>
      <trkpt lat="42.85027" lon="0.51794">
        <ele>1252.019</ele>
        <time>2022-02-27T08:48:37Z</time>
      </trkpt>
      <trkpt lat="42.85026" lon="0.51796">
        <ele>1252.875</ele>
        <time>2022-02-27T08:48:39Z</time>
      </trkpt>
      <trkpt lat="42.85024" lon="0.51797">
        <ele>1253.587</ele>
        <time>2022-02-27T08:48:41Z</time>
      </trkpt>
      <trkpt lat="42.85023" lon="0.51798">
        <ele>1253.734</ele>
        <time>2022-02-27T08:48:43Z</time>
      </trkpt>
      <trkpt lat="42.85021" lon="0.51801">
        <ele>1254.491</ele>
        <time>2022-02-27T08:48:45Z</time>
      </trkpt>
      <trkpt lat="42.8502" lon="0.51804">
        <ele>1254.157</ele>
        <time>2022-02-27T08:48:47Z</time>
      </trkpt>
      <trkpt lat="42.85018" lon="0.51806">
        <ele>1255.116</ele>
        <time>2022-02-27T08:48:49Z</time>
      </trkpt>
      <trkpt lat="42.85016" lon="0.51808">
        <ele>1255.65</ele>
        <time>2022-02-27T08:48:51Z</time>
      </trkpt>
      <trkpt lat="42.85015" lon="0.5181">
        <ele>1256.717</ele>
        <time>2022-02-27T08:48:53Z</time>
      </trkpt>
      <trkpt lat="42.85014" lon="0.51812">
        <ele>1257.019</ele>
        <time>2022-02-27T08:48:55Z</time>
      </trkpt>
      <trkpt lat="42.85012" lon="0.51815">
        <ele>1258.163</ele>
        <time>2022-02-27T08:48:57Z</time>
      </trkpt>
      <trkpt lat="42.85011" lon="0.51817">
        <ele>1258.788</ele>
        <time>2022-02-27T08:48:59Z</time>
      </trkpt>
      <trkpt lat="42.8501" lon="0.51819">
        <ele>1259.783</ele>
        <time>2022-02-27T08:49:01Z</time>
      </trkpt>
      <trkpt lat="42.85008" lon="0.51821">
        <ele>1260.609</ele>
        <time>2022-02-27T08:49:03Z</time>
      </trkpt>
      <trkpt lat="42.85007" lon="0.51823">
        <ele>1260.878</ele>
        <time>2022-02-27T08:49:05Z</time>
      </trkpt>
      <trkpt lat="42.85006" lon="0.51825">
        <ele>1261.542</ele>
        <time>2022-02-27T08:49:07Z</time>
      </trkpt>
      <trkpt lat="42.85005" lon="0.51827">
        <ele>1261.578</ele>
        <time>2022-02-27T08:49:09Z</time>
      </trkpt>
      <trkpt lat="42.85004" lon="0.51829">
        <ele>1261.515</ele>
        <time>2022-02-27T08:49:11Z</time>
      </trkpt>
      <trkpt lat="42.85002" lon="0.51831">
        <ele>1261.217</ele>
        <time>2022-02-27T08:49:13Z</time>
      </trkpt>
      <trkpt lat="42.85001" lon="0.51833">
        <ele>1261.719</ele>
        <time>2022-02-27T08:49:15Z</time>
      </trkpt>
      <trkpt lat="42.84999" lon="0.51835">
        <ele>1262.06</ele>
        <time>2022-02-27T08:49:17Z</time>
      </trkpt>
      <trkpt lat="42.84998" lon="0.51836">
        <ele>1262.49</ele>
        <time>2022-02-27T08:49:19Z</time>
      </trkpt>
      <trkpt lat="42.84996" lon="0.51837">
        <ele>1262.003</ele>
        <time>2022-02-27T08:49:21Z</time>
      </trkpt>
      <trkpt lat="42.84994" lon="0.51838">
        <ele>1262.3</ele>
        <time>2022-02-27T08:49:23Z</time>
      </trkpt>
      <trkpt lat="42.84993" lon="0.51839">
        <ele>1263.264</ele>
        <time>2022-02-27T08:49:25Z</time>
      </trkpt>
      <trkpt lat="42.84991" lon="0.5184">
        <ele>1263.595</ele>
        <time>2022-02-27T08:49:27Z</time>
      </trkpt>
      <trkpt lat="42.84989" lon="0.51841">
        <ele>1264.519</ele>
        <time>2022-02-27T08:49:29Z</time>
      </trkpt>
      <trkpt lat="42.84988" lon="0.51842">
        <ele>1265.459</ele>
        <time>2022-02-27T08:49:31Z</time>
      </trkpt>
      <trkpt lat="42.84986" lon="0.51842">
        <ele>1265.695</ele>
        <time>2022-02-27T08:49:33Z</time>
      </trkpt>
      <trkpt lat="42.84984" lon="0.51842">
        <ele>1266.889</ele>
        <time>2022-02-27T08:49:36Z</time>
      </trkpt>
      <trkpt lat="42.84982" lon="0.51842">
        <ele>1266.565</ele>
        <time>2022-02-27T08:49:38Z</time>
      </trkpt>
      <trkpt lat="42.8498" lon="0.51842">
        <ele>1267.463</ele>
        <time>2022-02-27T08:49:40Z</time>
      </trkpt>
      <trkpt lat="42.84978" lon="0.51843">
        <ele>1267.463</ele>
        <time>2022-02-27T08:49:42Z</time>
      </trkpt>
      <trkpt lat="42.84976" lon="0.51843">
        <ele>1267.571</ele>
        <time>2022-02-27T08:49:44Z</time>
      </trkpt>
      <trkpt lat="42.84975" lon="0.51843">
        <ele>1267.589</ele>
        <time>2022-02-27T08:49:46Z</time>
      </trkpt>
      <trkpt lat="42.84973" lon="0.51843">
        <ele>1267.294</ele>
        <time>2022-02-27T08:49:48Z</time>
      </trkpt>
      <trkpt lat="42.84971" lon="0.51843">
        <ele>1268.125</ele>
        <time>2022-02-27T08:49:50Z</time>
      </trkpt>
      <trkpt lat="42.8497" lon="0.51842">
        <ele>1268.214</ele>
        <time>2022-02-27T08:49:52Z</time>
      </trkpt>
      <trkpt lat="42.84968" lon="0.51842">
        <ele>1268.95</ele>
        <time>2022-02-27T08:49:54Z</time>
      </trkpt>
      <trkpt lat="42.84967" lon="0.51843">
        <ele>1268.607</ele>
        <time>2022-02-27T08:49:56Z</time>
      </trkpt>
      <trkpt lat="42.84964" lon="0.51844">
        <ele>1269.723</ele>
        <time>2022-02-27T08:49:58Z</time>
      </trkpt>
      <trkpt lat="42.84963" lon="0.51844">
        <ele>1269.629</ele>
        <time>2022-02-27T08:50:00Z</time>
      </trkpt>
      <trkpt lat="42.84961" lon="0.51844">
        <ele>1270.439</ele>
        <time>2022-02-27T08:50:02Z</time>
      </trkpt>
      <trkpt lat="42.8496" lon="0.51845">
        <ele>1271.373</ele>
        <time>2022-02-27T08:50:04Z</time>
      </trkpt>
      <trkpt lat="42.84958" lon="0.51846">
        <ele>1270.738</ele>
        <time>2022-02-27T08:50:06Z</time>
      </trkpt>
      <trkpt lat="42.84956" lon="0.51846">
        <ele>1271.902</ele>
        <time>2022-02-27T08:50:08Z</time>
      </trkpt>
      <trkpt lat="42.84955" lon="0.51847">
        <ele>1272.256</ele>
        <time>2022-02-27T08:50:10Z</time>
      </trkpt>
      <trkpt lat="42.84953" lon="0.51848">
        <ele>1272.449</ele>
        <time>2022-02-27T08:50:12Z</time>
      </trkpt>
      <trkpt lat="42.84952" lon="0.51849">
        <ele>1272.42</ele>
        <time>2022-02-27T08:50:14Z</time>
      </trkpt>
      <trkpt lat="42.84951" lon="0.5185">
        <ele>1273.097</ele>
        <time>2022-02-27T08:50:16Z</time>
      </trkpt>
      <trkpt lat="42.84949" lon="0.5185">
        <ele>1273.894</ele>
        <time>2022-02-27T08:50:18Z</time>
      </trkpt>
      <trkpt lat="42.84948" lon="0.51851">
        <ele>1274.389</ele>
        <time>2022-02-27T08:50:20Z</time>
      </trkpt>
      <trkpt lat="42.84947" lon="0.51853">
        <ele>1275.162</ele>
        <time>2022-02-27T08:50:22Z</time>
      </trkpt>
      <trkpt lat="42.84946" lon="0.51854">
        <ele>1275.631</ele>
        <time>2022-02-27T08:50:24Z</time>
      </trkpt>
      <trkpt lat="42.84945" lon="0.51854">
        <ele>1276.272</ele>
        <time>2022-02-27T08:50:26Z</time>
      </trkpt>
      <trkpt lat="42.84944" lon="0.51853">
        <ele>1276.243</ele>
        <time>2022-02-27T08:50:28Z</time>
      </trkpt>
      <trkpt lat="42.84944" lon="0.51851">
        <ele>1276.187</ele>
        <time>2022-02-27T08:50:30Z</time>
      </trkpt>
      <trkpt lat="42.84944" lon="0.51851">
        <ele>1276.181</ele>
        <time>2022-02-27T08:50:32Z</time>
      </trkpt>
      <trkpt lat="42.84943" lon="0.51852">
        <ele>1276.09</ele>
        <time>2022-02-27T08:50:34Z</time>
      </trkpt>
      <trkpt lat="42.84941" lon="0.51851">
        <ele>1274.972</ele>
        <time>2022-02-27T08:50:36Z</time>
      </trkpt>
      <trkpt lat="42.84939" lon="0.51851">
        <ele>1274.4</ele>
        <time>2022-02-27T08:50:38Z</time>
      </trkpt>
      <trkpt lat="42.84938" lon="0.51852">
        <ele>1275.098</ele>
        <time>2022-02-27T08:50:40Z</time>
      </trkpt>
      <trkpt lat="42.84937" lon="0.51853">
        <ele>1274.62</ele>
        <time>2022-02-27T08:50:42Z</time>
      </trkpt>
      <trkpt lat="42.84935" lon="0.51854">
        <ele>1274.651</ele>
        <time>2022-02-27T08:50:44Z</time>
      </trkpt>
      <trkpt lat="42.84934" lon="0.51855">
        <ele>1275.44</ele>
        <time>2022-02-27T08:50:46Z</time>
      </trkpt>
      <trkpt lat="42.84933" lon="0.51856">
        <ele>1275.687</ele>
        <time>2022-02-27T08:50:48Z</time>
      </trkpt>
      <trkpt lat="42.84932" lon="0.51857">
        <ele>1276.603</ele>
        <time>2022-02-27T08:50:50Z</time>
      </trkpt>
      <trkpt lat="42.8493" lon="0.51857">
        <ele>1276.73</ele>
        <time>2022-02-27T08:50:52Z</time>
      </trkpt>
      <trkpt lat="42.84929" lon="0.51859">
        <ele>1276.928</ele>
        <time>2022-02-27T08:50:54Z</time>
      </trkpt>
      <trkpt lat="42.84928" lon="0.51859">
        <ele>1276.85</ele>
        <time>2022-02-27T08:50:56Z</time>
      </trkpt>
      <trkpt lat="42.84927" lon="0.5186">
        <ele>1277.2</ele>
        <time>2022-02-27T08:50:58Z</time>
      </trkpt>
      <trkpt lat="42.84926" lon="0.51862">
        <ele>1277.56</ele>
        <time>2022-02-27T08:51:00Z</time>
      </trkpt>
      <trkpt lat="42.84924" lon="0.51862">
        <ele>1277.757</ele>
        <time>2022-02-27T08:51:02Z</time>
      </trkpt>
      <trkpt lat="42.84923" lon="0.51863">
        <ele>1277.889</ele>
        <time>2022-02-27T08:51:04Z</time>
      </trkpt>
      <trkpt lat="42.84921" lon="0.51864">
        <ele>1277.583</ele>
        <time>2022-02-27T08:51:06Z</time>
      </trkpt>
      <trkpt lat="42.8492" lon="0.51866">
        <ele>1278.159</ele>
        <time>2022-02-27T08:51:08Z</time>
      </trkpt>
      <trkpt lat="42.84919" lon="0.51868">
        <ele>1278.812</ele>
        <time>2022-02-27T08:51:10Z</time>
      </trkpt>
      <trkpt lat="42.84917" lon="0.5187">
        <ele>1279.392</ele>
        <time>2022-02-27T08:51:12Z</time>
      </trkpt>
      <trkpt lat="42.84916" lon="0.5187">
        <ele>1279.147</ele>
        <time>2022-02-27T08:51:14Z</time>
      </trkpt>
      <trkpt lat="42.84915" lon="0.51872">
        <ele>1281.239</ele>
        <time>2022-02-27T08:51:16Z</time>
      </trkpt>
      <trkpt lat="42.84914" lon="0.51874">
        <ele>1282.666</ele>
        <time>2022-02-27T08:51:18Z</time>
      </trkpt>
      <trkpt lat="42.84913" lon="0.51875">
        <ele>1283.507</ele>
        <time>2022-02-27T08:51:20Z</time>
      </trkpt>
      <trkpt lat="42.84911" lon="0.51877">
        <ele>1283.972</ele>
        <time>2022-02-27T08:51:22Z</time>
      </trkpt>
      <trkpt lat="42.8491" lon="0.51877">
        <ele>1283.749</ele>
        <time>2022-02-27T08:51:24Z</time>
      </trkpt>
      <trkpt lat="42.84909" lon="0.51877">
        <ele>1284.56</ele>
        <time>2022-02-27T08:51:26Z</time>
      </trkpt>
      <trkpt lat="42.84907" lon="0.51878">
        <ele>1285.554</ele>
        <time>2022-02-27T08:51:28Z</time>
      </trkpt>
      <trkpt lat="42.84906" lon="0.51877">
        <ele>1286.349</ele>
        <time>2022-02-27T08:51:30Z</time>
      </trkpt>
      <trkpt lat="42.84904" lon="0.51877">
        <ele>1287.017</ele>
        <time>2022-02-27T08:51:32Z</time>
      </trkpt>
      <trkpt lat="42.84903" lon="0.51878">
        <ele>1287.348</ele>
        <time>2022-02-27T08:51:34Z</time>
      </trkpt>
      <trkpt lat="42.84902" lon="0.51879">
        <ele>1288.197</ele>
        <time>2022-02-27T08:51:36Z</time>
      </trkpt>
      <trkpt lat="42.849" lon="0.51879">
        <ele>1288.6</ele>
        <time>2022-02-27T08:51:38Z</time>
      </trkpt>
      <trkpt lat="42.84899" lon="0.51878">
        <ele>1288.505</ele>
        <time>2022-02-27T08:51:40Z</time>
      </trkpt>
      <trkpt lat="42.84898" lon="0.51876">
        <ele>1288.074</ele>
        <time>2022-02-27T08:51:42Z</time>
      </trkpt>
      <trkpt lat="42.84897" lon="0.51875">
        <ele>1287.572</ele>
        <time>2022-02-27T08:51:44Z</time>
      </trkpt>
      <trkpt lat="42.84896" lon="0.51873">
        <ele>1286.824</ele>
        <time>2022-02-27T08:51:46Z</time>
      </trkpt>
      <trkpt lat="42.84896" lon="0.51871">
        <ele>1287.219</ele>
        <time>2022-02-27T08:51:48Z</time>
      </trkpt>
      <trkpt lat="42.84896" lon="0.51868">
        <ele>1287.194</ele>
        <time>2022-02-27T08:51:50Z</time>
      </trkpt>
      <trkpt lat="42.84895" lon="0.51867">
        <ele>1286.538</ele>
        <time>2022-02-27T08:51:52Z</time>
      </trkpt>
      <trkpt lat="42.84896" lon="0.51865">
        <ele>1287.799</ele>
        <time>2022-02-27T08:51:54Z</time>
      </trkpt>
      <trkpt lat="42.84897" lon="0.51863">
        <ele>1287.891</ele>
        <time>2022-02-27T08:51:56Z</time>
      </trkpt>
      <trkpt lat="42.84897" lon="0.51862">
        <ele>1288.068</ele>
        <time>2022-02-27T08:51:58Z</time>
      </trkpt>
      <trkpt lat="42.84898" lon="0.51861">
        <ele>1288.698</ele>
        <time>2022-02-27T08:52:00Z</time>
      </trkpt>
      <trkpt lat="42.84899" lon="0.51859">
        <ele>1288.783</ele>
        <time>2022-02-27T08:52:02Z</time>
      </trkpt>
      <trkpt lat="42.84899" lon="0.51857">
        <ele>1288.483</ele>
        <time>2022-02-27T08:52:04Z</time>
      </trkpt>
      <trkpt lat="42.849" lon="0.51855">
        <ele>1288.461</ele>
        <time>2022-02-27T08:52:06Z</time>
      </trkpt>
      <trkpt lat="42.84899" lon="0.51853">
        <ele>1287.352</ele>
        <time>2022-02-27T08:52:08Z</time>
      </trkpt>
      <trkpt lat="42.849" lon="0.51851">
        <ele>1288.245</ele>
        <time>2022-02-27T08:52:10Z</time>
      </trkpt>
      <trkpt lat="42.84901" lon="0.5185">
        <ele>1288.485</ele>
        <time>2022-02-27T08:52:12Z</time>
      </trkpt>
      <trkpt lat="42.84902" lon="0.51848">
        <ele>1289.16</ele>
        <time>2022-02-27T08:52:14Z</time>
      </trkpt>
      <trkpt lat="42.84902" lon="0.51846">
        <ele>1288.463</ele>
        <time>2022-02-27T08:52:16Z</time>
      </trkpt>
      <trkpt lat="42.84903" lon="0.51845">
        <ele>1288.421</ele>
        <time>2022-02-27T08:52:18Z</time>
      </trkpt>
      <trkpt lat="42.84904" lon="0.51843">
        <ele>1289.161</ele>
        <time>2022-02-27T08:52:20Z</time>
      </trkpt>
      <trkpt lat="42.84905" lon="0.51841">
        <ele>1289.746</ele>
        <time>2022-02-27T08:52:22Z</time>
      </trkpt>
      <trkpt lat="42.84906" lon="0.5184">
        <ele>1291.126</ele>
        <time>2022-02-27T08:52:24Z</time>
      </trkpt>
      <trkpt lat="42.84906" lon="0.51838">
        <ele>1291.209</ele>
        <time>2022-02-27T08:52:26Z</time>
      </trkpt>
      <trkpt lat="42.84907" lon="0.51837">
        <ele>1290.312</ele>
        <time>2022-02-27T08:52:28Z</time>
      </trkpt>
      <trkpt lat="42.84908" lon="0.51835">
        <ele>1291.406</ele>
        <time>2022-02-27T08:52:30Z</time>
      </trkpt>
      <trkpt lat="42.84909" lon="0.51833">
        <ele>1291.431</ele>
        <time>2022-02-27T08:52:32Z</time>
      </trkpt>
      <trkpt lat="42.84909" lon="0.51831">
        <ele>1291.452</ele>
        <time>2022-02-27T08:52:33Z</time>
      </trkpt>
      <trkpt lat="42.8491" lon="0.51829">
        <ele>1292.139</ele>
        <time>2022-02-27T08:52:36Z</time>
      </trkpt>
      <trkpt lat="42.84911" lon="0.51827">
        <ele>1290.79</ele>
        <time>2022-02-27T08:52:38Z</time>
      </trkpt>
      <trkpt lat="42.84912" lon="0.51823">
        <ele>1292.174</ele>
        <time>2022-02-27T08:52:41Z</time>
      </trkpt>
      <trkpt lat="42.84913" lon="0.51821">
        <ele>1292.076</ele>
        <time>2022-02-27T08:52:43Z</time>
      </trkpt>
      <trkpt lat="42.84913" lon="0.51819">
        <ele>1291.942</ele>
        <time>2022-02-27T08:52:45Z</time>
      </trkpt>
      <trkpt lat="42.84914" lon="0.51816">
        <ele>1291.529</ele>
        <time>2022-02-27T08:52:47Z</time>
      </trkpt>
      <trkpt lat="42.84914" lon="0.51815">
        <ele>1291.38</ele>
        <time>2022-02-27T08:52:49Z</time>
      </trkpt>
      <trkpt lat="42.84915" lon="0.51813">
        <ele>1291.68</ele>
        <time>2022-02-27T08:52:51Z</time>
      </trkpt>
      <trkpt lat="42.84916" lon="0.51811">
        <ele>1291.376</ele>
        <time>2022-02-27T08:52:53Z</time>
      </trkpt>
      <trkpt lat="42.84917" lon="0.5181">
        <ele>1291.496</ele>
        <time>2022-02-27T08:52:55Z</time>
      </trkpt>
      <trkpt lat="42.84918" lon="0.51809">
        <ele>1291.642</ele>
        <time>2022-02-27T08:52:57Z</time>
      </trkpt>
      <trkpt lat="42.84918" lon="0.51807">
        <ele>1291.11</ele>
        <time>2022-02-27T08:52:59Z</time>
      </trkpt>
      <trkpt lat="42.84918" lon="0.51805">
        <ele>1291.352</ele>
        <time>2022-02-27T08:53:01Z</time>
      </trkpt>
      <trkpt lat="42.84919" lon="0.51804">
        <ele>1291.821</ele>
        <time>2022-02-27T08:53:03Z</time>
      </trkpt>
      <trkpt lat="42.84919" lon="0.51802">
        <ele>1292.812</ele>
        <time>2022-02-27T08:53:05Z</time>
      </trkpt>
      <trkpt lat="42.84919" lon="0.518">
        <ele>1292.647</ele>
        <time>2022-02-27T08:53:07Z</time>
      </trkpt>
      <trkpt lat="42.8492" lon="0.51799">
        <ele>1293.648</ele>
        <time>2022-02-27T08:53:09Z</time>
      </trkpt>
      <trkpt lat="42.84921" lon="0.51797">
        <ele>1294.118</ele>
        <time>2022-02-27T08:53:11Z</time>
      </trkpt>
      <trkpt lat="42.84923" lon="0.51796">
        <ele>1294.7</ele>
        <time>2022-02-27T08:53:13Z</time>
      </trkpt>
      <trkpt lat="42.84924" lon="0.51794">
        <ele>1295.583</ele>
        <time>2022-02-27T08:53:15Z</time>
      </trkpt>
      <trkpt lat="42.84924" lon="0.51792">
        <ele>1295.429</ele>
        <time>2022-02-27T08:53:17Z</time>
      </trkpt>
      <trkpt lat="42.84924" lon="0.51789">
        <ele>1294.975</ele>
        <time>2022-02-27T08:53:19Z</time>
      </trkpt>
      <trkpt lat="42.84924" lon="0.51787">
        <ele>1295.878</ele>
        <time>2022-02-27T08:53:21Z</time>
      </trkpt>
      <trkpt lat="42.84924" lon="0.51785">
        <ele>1295.591</ele>
        <time>2022-02-27T08:53:23Z</time>
      </trkpt>
      <trkpt lat="42.84925" lon="0.51783">
        <ele>1295.226</ele>
        <time>2022-02-27T08:53:25Z</time>
      </trkpt>
      <trkpt lat="42.84925" lon="0.51781">
        <ele>1295.625</ele>
        <time>2022-02-27T08:53:27Z</time>
      </trkpt>
      <trkpt lat="42.84924" lon="0.51779">
        <ele>1296.007</ele>
        <time>2022-02-27T08:53:29Z</time>
      </trkpt>
      <trkpt lat="42.84924" lon="0.51777">
        <ele>1295.675</ele>
        <time>2022-02-27T08:53:31Z</time>
      </trkpt>
      <trkpt lat="42.84925" lon="0.51775">
        <ele>1295.647</ele>
        <time>2022-02-27T08:53:33Z</time>
      </trkpt>
      <trkpt lat="42.84925" lon="0.51773">
        <ele>1295.335</ele>
        <time>2022-02-27T08:53:35Z</time>
      </trkpt>
      <trkpt lat="42.84925" lon="0.51772">
        <ele>1295.325</ele>
        <time>2022-02-27T08:53:37Z</time>
      </trkpt>
      <trkpt lat="42.84926" lon="0.5177">
        <ele>1296.059</ele>
        <time>2022-02-27T08:53:39Z</time>
      </trkpt>
      <trkpt lat="42.84927" lon="0.51768">
        <ele>1296.603</ele>
        <time>2022-02-27T08:53:41Z</time>
      </trkpt>
      <trkpt lat="42.84928" lon="0.51767">
        <ele>1297.052</ele>
        <time>2022-02-27T08:53:43Z</time>
      </trkpt>
      <trkpt lat="42.84928" lon="0.51765">
        <ele>1297.913</ele>
        <time>2022-02-27T08:53:45Z</time>
      </trkpt>
      <trkpt lat="42.8493" lon="0.51763">
        <ele>1300.205</ele>
        <time>2022-02-27T08:53:47Z</time>
      </trkpt>
      <trkpt lat="42.84931" lon="0.51761">
        <ele>1302.295</ele>
        <time>2022-02-27T08:53:49Z</time>
      </trkpt>
      <trkpt lat="42.84932" lon="0.51759">
        <ele>1302.676</ele>
        <time>2022-02-27T08:53:51Z</time>
      </trkpt>
      <trkpt lat="42.84932" lon="0.51757">
        <ele>1302.819</ele>
        <time>2022-02-27T08:53:53Z</time>
      </trkpt>
      <trkpt lat="42.84934" lon="0.51755">
        <ele>1303.477</ele>
        <time>2022-02-27T08:53:55Z</time>
      </trkpt>
      <trkpt lat="42.84934" lon="0.51754">
        <ele>1304.087</ele>
        <time>2022-02-27T08:53:57Z</time>
      </trkpt>
      <trkpt lat="42.84934" lon="0.51751">
        <ele>1305.112</ele>
        <time>2022-02-27T08:53:59Z</time>
      </trkpt>
      <trkpt lat="42.84935" lon="0.5175">
        <ele>1305.265</ele>
        <time>2022-02-27T08:54:00Z</time>
      </trkpt>
      <trkpt lat="42.84935" lon="0.51746">
        <ele>1303.239</ele>
        <time>2022-02-27T08:54:03Z</time>
      </trkpt>
      <trkpt lat="42.84935" lon="0.51744">
        <ele>1302.701</ele>
        <time>2022-02-27T08:54:05Z</time>
      </trkpt>
      <trkpt lat="42.84935" lon="0.51742">
        <ele>1302.026</ele>
        <time>2022-02-27T08:54:07Z</time>
      </trkpt>
      <trkpt lat="42.84935" lon="0.5174">
        <ele>1301.882</ele>
        <time>2022-02-27T08:54:09Z</time>
      </trkpt>
      <trkpt lat="42.84936" lon="0.51738">
        <ele>1304.076</ele>
        <time>2022-02-27T08:54:11Z</time>
      </trkpt>
      <trkpt lat="42.84936" lon="0.51736">
        <ele>1304.114</ele>
        <time>2022-02-27T08:54:13Z</time>
      </trkpt>
      <trkpt lat="42.84936" lon="0.51734">
        <ele>1304.601</ele>
        <time>2022-02-27T08:54:15Z</time>
      </trkpt>
      <trkpt lat="42.84936" lon="0.51732">
        <ele>1304.513</ele>
        <time>2022-02-27T08:54:17Z</time>
      </trkpt>
      <trkpt lat="42.84936" lon="0.51729">
        <ele>1304.541</ele>
        <time>2022-02-27T08:54:19Z</time>
      </trkpt>
      <trkpt lat="42.84937" lon="0.51727">
        <ele>1304.29</ele>
        <time>2022-02-27T08:54:21Z</time>
      </trkpt>
      <trkpt lat="42.84937" lon="0.51725">
        <ele>1305.503</ele>
        <time>2022-02-27T08:54:23Z</time>
      </trkpt>
      <trkpt lat="42.84937" lon="0.51722">
        <ele>1305.915</ele>
        <time>2022-02-27T08:54:25Z</time>
      </trkpt>
      <trkpt lat="42.84938" lon="0.5172">
        <ele>1306.998</ele>
        <time>2022-02-27T08:54:27Z</time>
      </trkpt>
      <trkpt lat="42.84938" lon="0.51718">
        <ele>1307.475</ele>
        <time>2022-02-27T08:54:29Z</time>
      </trkpt>
      <trkpt lat="42.84938" lon="0.51716">
        <ele>1307.729</ele>
        <time>2022-02-27T08:54:31Z</time>
      </trkpt>
      <trkpt lat="42.84939" lon="0.51714">
        <ele>1308.901</ele>
        <time>2022-02-27T08:54:33Z</time>
      </trkpt>
      <trkpt lat="42.84939" lon="0.51712">
        <ele>1308.564</ele>
        <time>2022-02-27T08:54:35Z</time>
      </trkpt>
      <trkpt lat="42.8494" lon="0.5171">
        <ele>1309.36</ele>
        <time>2022-02-27T08:54:37Z</time>
      </trkpt>
      <trkpt lat="42.84939" lon="0.51709">
        <ele>1309.736</ele>
        <time>2022-02-27T08:54:39Z</time>
      </trkpt>
      <trkpt lat="42.84939" lon="0.51706">
        <ele>1310.465</ele>
        <time>2022-02-27T08:54:41Z</time>
      </trkpt>
      <trkpt lat="42.84941" lon="0.51704">
        <ele>1310.457</ele>
        <time>2022-02-27T08:54:43Z</time>
      </trkpt>
      <trkpt lat="42.84942" lon="0.51702">
        <ele>1309.895</ele>
        <time>2022-02-27T08:54:45Z</time>
      </trkpt>
      <trkpt lat="42.84943" lon="0.517">
        <ele>1310.977</ele>
        <time>2022-02-27T08:54:48Z</time>
      </trkpt>
      <trkpt lat="42.84945" lon="0.51699">
        <ele>1312.735</ele>
        <time>2022-02-27T08:54:50Z</time>
      </trkpt>
      <trkpt lat="42.84946" lon="0.51698">
        <ele>1313.902</ele>
        <time>2022-02-27T08:54:52Z</time>
      </trkpt>
      <trkpt lat="42.84947" lon="0.51696">
        <ele>1313.97</ele>
        <time>2022-02-27T08:54:54Z</time>
      </trkpt>
      <trkpt lat="42.84948" lon="0.51693">
        <ele>1313.964</ele>
        <time>2022-02-27T08:54:56Z</time>
      </trkpt>
      <trkpt lat="42.84947" lon="0.51691">
        <ele>1313.879</ele>
        <time>2022-02-27T08:54:58Z</time>
      </trkpt>
      <trkpt lat="42.84948" lon="0.51689">
        <ele>1314.051</ele>
        <time>2022-02-27T08:55:00Z</time>
      </trkpt>
      <trkpt lat="42.84948" lon="0.51687">
        <ele>1314.435</ele>
        <time>2022-02-27T08:55:02Z</time>
      </trkpt>
      <trkpt lat="42.84949" lon="0.51685">
        <ele>1317.412</ele>
        <time>2022-02-27T08:55:04Z</time>
      </trkpt>
      <trkpt lat="42.8495" lon="0.51683">
        <ele>1317.645</ele>
        <time>2022-02-27T08:55:06Z</time>
      </trkpt>
      <trkpt lat="42.8495" lon="0.5168">
        <ele>1317.158</ele>
        <time>2022-02-27T08:55:09Z</time>
      </trkpt>
      <trkpt lat="42.84949" lon="0.51677">
        <ele>1316.492</ele>
        <time>2022-02-27T08:55:11Z</time>
      </trkpt>
      <trkpt lat="42.84948" lon="0.51676">
        <ele>1315.897</ele>
        <time>2022-02-27T08:55:13Z</time>
      </trkpt>
      <trkpt lat="42.84949" lon="0.51673">
        <ele>1316.189</ele>
        <time>2022-02-27T08:55:15Z</time>
      </trkpt>
      <trkpt lat="42.84949" lon="0.51671">
        <ele>1316.281</ele>
        <time>2022-02-27T08:55:17Z</time>
      </trkpt>
      <trkpt lat="42.84949" lon="0.51669">
        <ele>1316.2</ele>
        <time>2022-02-27T08:55:19Z</time>
      </trkpt>
      <trkpt lat="42.84948" lon="0.51667">
        <ele>1315.251</ele>
        <time>2022-02-27T08:55:21Z</time>
      </trkpt>
      <trkpt lat="42.84948" lon="0.51666">
        <ele>1316.397</ele>
        <time>2022-02-27T08:55:23Z</time>
      </trkpt>
      <trkpt lat="42.84948" lon="0.51665">
        <ele>1316.87</ele>
        <time>2022-02-27T08:55:25Z</time>
      </trkpt>
      <trkpt lat="42.84948" lon="0.51662">
        <ele>1319.491</ele>
        <time>2022-02-27T08:55:28Z</time>
      </trkpt>
      <trkpt lat="42.84948" lon="0.51661">
        <ele>1319.718</ele>
        <time>2022-02-27T08:55:30Z</time>
      </trkpt>
      <trkpt lat="42.84947" lon="0.51659">
        <ele>1319.913</ele>
        <time>2022-02-27T08:55:32Z</time>
      </trkpt>
      <trkpt lat="42.84947" lon="0.51658">
        <ele>1319.272</ele>
        <time>2022-02-27T08:55:34Z</time>
      </trkpt>
      <trkpt lat="42.84947" lon="0.51656">
        <ele>1318.137</ele>
        <time>2022-02-27T08:55:36Z</time>
      </trkpt>
      <trkpt lat="42.84947" lon="0.51654">
        <ele>1317.494</ele>
        <time>2022-02-27T08:55:38Z</time>
      </trkpt>
      <trkpt lat="42.84948" lon="0.51652">
        <ele>1318.052</ele>
        <time>2022-02-27T08:55:40Z</time>
      </trkpt>
      <trkpt lat="42.84949" lon="0.5165">
        <ele>1318.781</ele>
        <time>2022-02-27T08:55:42Z</time>
      </trkpt>
      <trkpt lat="42.8495" lon="0.51648">
        <ele>1318.956</ele>
        <time>2022-02-27T08:55:44Z</time>
      </trkpt>
      <trkpt lat="42.84951" lon="0.51646">
        <ele>1319.315</ele>
        <time>2022-02-27T08:55:46Z</time>
      </trkpt>
      <trkpt lat="42.84952" lon="0.51643">
        <ele>1320.087</ele>
        <time>2022-02-27T08:55:48Z</time>
      </trkpt>
      <trkpt lat="42.84952" lon="0.51641">
        <ele>1320.273</ele>
        <time>2022-02-27T08:55:50Z</time>
      </trkpt>
      <trkpt lat="42.84952" lon="0.51639">
        <ele>1321.064</ele>
        <time>2022-02-27T08:55:52Z</time>
      </trkpt>
      <trkpt lat="42.84952" lon="0.51637">
        <ele>1321.636</ele>
        <time>2022-02-27T08:55:54Z</time>
      </trkpt>
      <trkpt lat="42.84952" lon="0.51636">
        <ele>1322.163</ele>
        <time>2022-02-27T08:55:56Z</time>
      </trkpt>
      <trkpt lat="42.84952" lon="0.51634">
        <ele>1321.804</ele>
        <time>2022-02-27T08:55:58Z</time>
      </trkpt>
      <trkpt lat="42.84952" lon="0.51632">
        <ele>1321.197</ele>
        <time>2022-02-27T08:56:00Z</time>
      </trkpt>
      <trkpt lat="42.84952" lon="0.5163">
        <ele>1321.63</ele>
        <time>2022-02-27T08:56:02Z</time>
      </trkpt>
      <trkpt lat="42.84952" lon="0.51628">
        <ele>1320.948</ele>
        <time>2022-02-27T08:56:04Z</time>
      </trkpt>
      <trkpt lat="42.84952" lon="0.51626">
        <ele>1319.778</ele>
        <time>2022-02-27T08:56:06Z</time>
      </trkpt>
      <trkpt lat="42.84953" lon="0.51624">
        <ele>1318.949</ele>
        <time>2022-02-27T08:56:08Z</time>
      </trkpt>
      <trkpt lat="42.84953" lon="0.51622">
        <ele>1319.844</ele>
        <time>2022-02-27T08:56:10Z</time>
      </trkpt>
      <trkpt lat="42.84953" lon="0.51621">
        <ele>1319.5</ele>
        <time>2022-02-27T08:56:12Z</time>
      </trkpt>
      <trkpt lat="42.84953" lon="0.51619">
        <ele>1319.475</ele>
        <time>2022-02-27T08:56:14Z</time>
      </trkpt>
      <trkpt lat="42.84953" lon="0.51618">
        <ele>1319.61</ele>
        <time>2022-02-27T08:56:16Z</time>
      </trkpt>
      <trkpt lat="42.84954" lon="0.51616">
        <ele>1320.085</ele>
        <time>2022-02-27T08:56:18Z</time>
      </trkpt>
      <trkpt lat="42.84954" lon="0.51615">
        <ele>1320.06</ele>
        <time>2022-02-27T08:56:20Z</time>
      </trkpt>
      <trkpt lat="42.84954" lon="0.51613">
        <ele>1320.141</ele>
        <time>2022-02-27T08:56:22Z</time>
      </trkpt>
      <trkpt lat="42.84954" lon="0.51611">
        <ele>1319.753</ele>
        <time>2022-02-27T08:56:24Z</time>
      </trkpt>
      <trkpt lat="42.84955" lon="0.51609">
        <ele>1321.224</ele>
        <time>2022-02-27T08:56:26Z</time>
      </trkpt>
      <trkpt lat="42.84955" lon="0.51607">
        <ele>1322.362</ele>
        <time>2022-02-27T08:56:28Z</time>
      </trkpt>
      <trkpt lat="42.84955" lon="0.51605">
        <ele>1322.006</ele>
        <time>2022-02-27T08:56:30Z</time>
      </trkpt>
      <trkpt lat="42.84955" lon="0.51603">
        <ele>1321.859</ele>
        <time>2022-02-27T08:56:32Z</time>
      </trkpt>
      <trkpt lat="42.84955" lon="0.51602">
        <ele>1321.372</ele>
        <time>2022-02-27T08:56:34Z</time>
      </trkpt>
      <trkpt lat="42.84954" lon="0.516">
        <ele>1320.647</ele>
        <time>2022-02-27T08:56:36Z</time>
      </trkpt>
      <trkpt lat="42.84954" lon="0.51598">
        <ele>1319.616</ele>
        <time>2022-02-27T08:56:38Z</time>
      </trkpt>
      <trkpt lat="42.84955" lon="0.51596">
        <ele>1320.655</ele>
        <time>2022-02-27T08:56:40Z</time>
      </trkpt>
      <trkpt lat="42.84955" lon="0.51594">
        <ele>1322.343</ele>
        <time>2022-02-27T08:56:42Z</time>
      </trkpt>
      <trkpt lat="42.84956" lon="0.51592">
        <ele>1324.268</ele>
        <time>2022-02-27T08:56:44Z</time>
      </trkpt>
      <trkpt lat="42.84957" lon="0.51589">
        <ele>1325.464</ele>
        <time>2022-02-27T08:56:46Z</time>
      </trkpt>
      <trkpt lat="42.84957" lon="0.51586">
        <ele>1326.305</ele>
        <time>2022-02-27T08:56:48Z</time>
      </trkpt>
      <trkpt lat="42.84957" lon="0.51584">
        <ele>1326.005</ele>
        <time>2022-02-27T08:56:50Z</time>
      </trkpt>
      <trkpt lat="42.84958" lon="0.51581">
        <ele>1327.158</ele>
        <time>2022-02-27T08:56:52Z</time>
      </trkpt>
      <trkpt lat="42.84958" lon="0.51579">
        <ele>1326.587</ele>
        <time>2022-02-27T08:56:54Z</time>
      </trkpt>
      <trkpt lat="42.84958" lon="0.51577">
        <ele>1327.535</ele>
        <time>2022-02-27T08:56:56Z</time>
      </trkpt>
      <trkpt lat="42.84958" lon="0.51575">
        <ele>1328.167</ele>
        <time>2022-02-27T08:56:58Z</time>
      </trkpt>
      <trkpt lat="42.84959" lon="0.51573">
        <ele>1329.977</ele>
        <time>2022-02-27T08:57:00Z</time>
      </trkpt>
      <trkpt lat="42.84958" lon="0.5157">
        <ele>1331.395</ele>
        <time>2022-02-27T08:57:02Z</time>
      </trkpt>
      <trkpt lat="42.84959" lon="0.51568">
        <ele>1332.095</ele>
        <time>2022-02-27T08:57:04Z</time>
      </trkpt>
      <trkpt lat="42.84959" lon="0.51566">
        <ele>1334.023</ele>
        <time>2022-02-27T08:57:06Z</time>
      </trkpt>
      <trkpt lat="42.8496" lon="0.51564">
        <ele>1335.272</ele>
        <time>2022-02-27T08:57:08Z</time>
      </trkpt>
      <trkpt lat="42.8496" lon="0.51562">
        <ele>1336.021</ele>
        <time>2022-02-27T08:57:10Z</time>
      </trkpt>
      <trkpt lat="42.8496" lon="0.51561">
        <ele>1334.776</ele>
        <time>2022-02-27T08:57:11Z</time>
      </trkpt>
      <trkpt lat="42.8496" lon="0.51558">
        <ele>1336.059</ele>
        <time>2022-02-27T08:57:14Z</time>
      </trkpt>
      <trkpt lat="42.8496" lon="0.51556">
        <ele>1337.044</ele>
        <time>2022-02-27T08:57:16Z</time>
      </trkpt>
      <trkpt lat="42.8496" lon="0.51553">
        <ele>1336.976</ele>
        <time>2022-02-27T08:57:19Z</time>
      </trkpt>
      <trkpt lat="42.8496" lon="0.51551">
        <ele>1337.899</ele>
        <time>2022-02-27T08:57:21Z</time>
      </trkpt>
      <trkpt lat="42.84961" lon="0.51549">
        <ele>1337.649</ele>
        <time>2022-02-27T08:57:23Z</time>
      </trkpt>
      <trkpt lat="42.84961" lon="0.51547">
        <ele>1338.037</ele>
        <time>2022-02-27T08:57:25Z</time>
      </trkpt>
      <trkpt lat="42.84962" lon="0.51545">
        <ele>1337.6</ele>
        <time>2022-02-27T08:57:27Z</time>
      </trkpt>
      <trkpt lat="42.84963" lon="0.51543">
        <ele>1338.154</ele>
        <time>2022-02-27T08:57:29Z</time>
      </trkpt>
      <trkpt lat="42.84963" lon="0.51541">
        <ele>1337.624</ele>
        <time>2022-02-27T08:57:31Z</time>
      </trkpt>
      <trkpt lat="42.84963" lon="0.51539">
        <ele>1337.934</ele>
        <time>2022-02-27T08:57:33Z</time>
      </trkpt>
      <trkpt lat="42.84964" lon="0.51537">
        <ele>1338.355</ele>
        <time>2022-02-27T08:57:35Z</time>
      </trkpt>
      <trkpt lat="42.84963" lon="0.51534">
        <ele>1337.826</ele>
        <time>2022-02-27T08:57:37Z</time>
      </trkpt>
      <trkpt lat="42.84963" lon="0.51532">
        <ele>1337.993</ele>
        <time>2022-02-27T08:57:39Z</time>
      </trkpt>
      <trkpt lat="42.84964" lon="0.51531">
        <ele>1338.864</ele>
        <time>2022-02-27T08:57:41Z</time>
      </trkpt>
      <trkpt lat="42.84964" lon="0.51528">
        <ele>1340.246</ele>
        <time>2022-02-27T08:57:43Z</time>
      </trkpt>
      <trkpt lat="42.84964" lon="0.51526">
        <ele>1341.113</ele>
        <time>2022-02-27T08:57:45Z</time>
      </trkpt>
      <trkpt lat="42.84964" lon="0.51524">
        <ele>1340.849</ele>
        <time>2022-02-27T08:57:47Z</time>
      </trkpt>
      <trkpt lat="42.84964" lon="0.51522">
        <ele>1340.846</ele>
        <time>2022-02-27T08:57:49Z</time>
      </trkpt>
      <trkpt lat="42.84965" lon="0.5152">
        <ele>1341.157</ele>
        <time>2022-02-27T08:57:51Z</time>
      </trkpt>
      <trkpt lat="42.84964" lon="0.51518">
        <ele>1340.351</ele>
        <time>2022-02-27T08:57:53Z</time>
      </trkpt>
      <trkpt lat="42.84964" lon="0.51516">
        <ele>1340.953</ele>
        <time>2022-02-27T08:57:55Z</time>
      </trkpt>
      <trkpt lat="42.84965" lon="0.51514">
        <ele>1341.651</ele>
        <time>2022-02-27T08:57:57Z</time>
      </trkpt>
      <trkpt lat="42.84965" lon="0.51512">
        <ele>1341.026</ele>
        <time>2022-02-27T08:57:59Z</time>
      </trkpt>
      <trkpt lat="42.84964" lon="0.5151">
        <ele>1339.373</ele>
        <time>2022-02-27T08:58:01Z</time>
      </trkpt>
      <trkpt lat="42.84964" lon="0.51507">
        <ele>1339.657</ele>
        <time>2022-02-27T08:58:03Z</time>
      </trkpt>
      <trkpt lat="42.84965" lon="0.51504">
        <ele>1341.359</ele>
        <time>2022-02-27T08:58:05Z</time>
      </trkpt>
      <trkpt lat="42.84965" lon="0.51502">
        <ele>1341.685</ele>
        <time>2022-02-27T08:58:07Z</time>
      </trkpt>
      <trkpt lat="42.84965" lon="0.515">
        <ele>1342.877</ele>
        <time>2022-02-27T08:58:09Z</time>
      </trkpt>
      <trkpt lat="42.84964" lon="0.51498">
        <ele>1341.892</ele>
        <time>2022-02-27T08:58:11Z</time>
      </trkpt>
      <trkpt lat="42.84964" lon="0.51496">
        <ele>1342.922</ele>
        <time>2022-02-27T08:58:13Z</time>
      </trkpt>
      <trkpt lat="42.84964" lon="0.51494">
        <ele>1342.653</ele>
        <time>2022-02-27T08:58:15Z</time>
      </trkpt>
      <trkpt lat="42.84964" lon="0.51492">
        <ele>1342.014</ele>
        <time>2022-02-27T08:58:17Z</time>
      </trkpt>
      <trkpt lat="42.84964" lon="0.5149">
        <ele>1342.133</ele>
        <time>2022-02-27T08:58:19Z</time>
      </trkpt>
      <trkpt lat="42.84963" lon="0.51488">
        <ele>1341.839</ele>
        <time>2022-02-27T08:58:21Z</time>
      </trkpt>
      <trkpt lat="42.84963" lon="0.51487">
        <ele>1341.493</ele>
        <time>2022-02-27T08:58:23Z</time>
      </trkpt>
      <trkpt lat="42.84963" lon="0.51484">
        <ele>1342.278</ele>
        <time>2022-02-27T08:58:25Z</time>
      </trkpt>
      <trkpt lat="42.84962" lon="0.51482">
        <ele>1343.107</ele>
        <time>2022-02-27T08:58:27Z</time>
      </trkpt>
      <trkpt lat="42.84962" lon="0.5148">
        <ele>1342.878</ele>
        <time>2022-02-27T08:58:29Z</time>
      </trkpt>
      <trkpt lat="42.84962" lon="0.51478">
        <ele>1343.659</ele>
        <time>2022-02-27T08:58:31Z</time>
      </trkpt>
      <trkpt lat="42.84962" lon="0.51476">
        <ele>1343.376</ele>
        <time>2022-02-27T08:58:33Z</time>
      </trkpt>
      <trkpt lat="42.84961" lon="0.51474">
        <ele>1343.299</ele>
        <time>2022-02-27T08:58:35Z</time>
      </trkpt>
      <trkpt lat="42.84961" lon="0.51472">
        <ele>1342.289</ele>
        <time>2022-02-27T08:58:37Z</time>
      </trkpt>
      <trkpt lat="42.8496" lon="0.5147">
        <ele>1342.373</ele>
        <time>2022-02-27T08:58:39Z</time>
      </trkpt>
      <trkpt lat="42.84958" lon="0.51471">
        <ele>1339.763</ele>
        <time>2022-02-27T08:58:41Z</time>
      </trkpt>
      <trkpt lat="42.84958" lon="0.51471">
        <ele>1339.467</ele>
        <time>2022-02-27T08:58:43Z</time>
      </trkpt>
      <trkpt lat="42.84958" lon="0.51471">
        <ele>1339.473</ele>
        <time>2022-02-27T08:58:45Z</time>
      </trkpt>
      <trkpt lat="42.84958" lon="0.51471">
        <ele>1339.474</ele>
        <time>2022-02-27T08:58:47Z</time>
      </trkpt>
      <trkpt lat="42.84958" lon="0.5147">
        <ele>1339.66</ele>
        <time>2022-02-27T08:58:49Z</time>
      </trkpt>
      <trkpt lat="42.84956" lon="0.51469">
        <ele>1338.038</ele>
        <time>2022-02-27T08:58:51Z</time>
      </trkpt>
      <trkpt lat="42.84956" lon="0.51467">
        <ele>1338.977</ele>
        <time>2022-02-27T08:58:53Z</time>
      </trkpt>
      <trkpt lat="42.84956" lon="0.51464">
        <ele>1339.996</ele>
        <time>2022-02-27T08:58:55Z</time>
      </trkpt>
      <trkpt lat="42.84957" lon="0.51462">
        <ele>1341.36</ele>
        <time>2022-02-27T08:58:57Z</time>
      </trkpt>
      <trkpt lat="42.84957" lon="0.5146">
        <ele>1341.693</ele>
        <time>2022-02-27T08:58:59Z</time>
      </trkpt>
      <trkpt lat="42.84956" lon="0.51458">
        <ele>1340.599</ele>
        <time>2022-02-27T08:59:01Z</time>
      </trkpt>
      <trkpt lat="42.84956" lon="0.51457">
        <ele>1340.499</ele>
        <time>2022-02-27T08:59:02Z</time>
      </trkpt>
      <trkpt lat="42.84957" lon="0.51456">
        <ele>1341.486</ele>
        <time>2022-02-27T08:59:05Z</time>
      </trkpt>
      <trkpt lat="42.84958" lon="0.51456">
        <ele>1342.029</ele>
        <time>2022-02-27T08:59:07Z</time>
      </trkpt>
      <trkpt lat="42.84959" lon="0.51457">
        <ele>1342.024</ele>
        <time>2022-02-27T08:59:09Z</time>
      </trkpt>
      <trkpt lat="42.84959" lon="0.51457">
        <ele>1342.017</ele>
        <time>2022-02-27T08:59:11Z</time>
      </trkpt>
      <trkpt lat="42.84959" lon="0.51457">
        <ele>1342.019</ele>
        <time>2022-02-27T08:59:13Z</time>
      </trkpt>
      <trkpt lat="42.84959" lon="0.51457">
        <ele>1342.018</ele>
        <time>2022-02-27T08:59:15Z</time>
      </trkpt>
      <trkpt lat="42.84959" lon="0.51457">
        <ele>1342.025</ele>
        <time>2022-02-27T08:59:17Z</time>
      </trkpt>
      <trkpt lat="42.84959" lon="0.51457">
        <ele>1342.038</ele>
        <time>2022-02-27T08:59:19Z</time>
      </trkpt>
      <trkpt lat="42.84959" lon="0.51457">
        <ele>1342.209</ele>
        <time>2022-02-27T08:59:21Z</time>
      </trkpt>
      <trkpt lat="42.84959" lon="0.51457">
        <ele>1342.467</ele>
        <time>2022-02-27T08:59:23Z</time>
      </trkpt>
      <trkpt lat="42.84959" lon="0.51457">
        <ele>1342.417</ele>
        <time>2022-02-27T08:59:25Z</time>
      </trkpt>
      <trkpt lat="42.84959" lon="0.51457">
        <ele>1342.418</ele>
        <time>2022-02-27T08:59:27Z</time>
      </trkpt>
      <trkpt lat="42.84959" lon="0.51457">
        <ele>1342.442</ele>
        <time>2022-02-27T08:59:29Z</time>
      </trkpt>
      <trkpt lat="42.84959" lon="0.51457">
        <ele>1342.486</ele>
        <time>2022-02-27T08:59:31Z</time>
      </trkpt>
      <trkpt lat="42.84959" lon="0.51457">
        <ele>1342.507</ele>
        <time>2022-02-27T08:59:33Z</time>
      </trkpt>
      <trkpt lat="42.84959" lon="0.51457">
        <ele>1342.527</ele>
        <time>2022-02-27T08:59:35Z</time>
      </trkpt>
      <trkpt lat="42.84959" lon="0.51457">
        <ele>1342.536</ele>
        <time>2022-02-27T08:59:37Z</time>
      </trkpt>
      <trkpt lat="42.84959" lon="0.51457">
        <ele>1342.535</ele>
        <time>2022-02-27T08:59:39Z</time>
      </trkpt>
      <trkpt lat="42.84959" lon="0.51457">
        <ele>1342.54</ele>
        <time>2022-02-27T08:59:41Z</time>
      </trkpt>
      <trkpt lat="42.84959" lon="0.51457">
        <ele>1342.577</ele>
        <time>2022-02-27T08:59:43Z</time>
      </trkpt>
      <trkpt lat="42.84959" lon="0.51457">
        <ele>1342.585</ele>
        <time>2022-02-27T08:59:45Z</time>
      </trkpt>
      <trkpt lat="42.84959" lon="0.51457">
        <ele>1342.581</ele>
        <time>2022-02-27T08:59:47Z</time>
      </trkpt>
      <trkpt lat="42.84959" lon="0.51457">
        <ele>1342.59</ele>
        <time>2022-02-27T08:59:49Z</time>
      </trkpt>
      <trkpt lat="42.84959" lon="0.51457">
        <ele>1342.593</ele>
        <time>2022-02-27T08:59:51Z</time>
      </trkpt>
      <trkpt lat="42.84959" lon="0.51457">
        <ele>1342.576</ele>
        <time>2022-02-27T08:59:53Z</time>
      </trkpt>
      <trkpt lat="42.84959" lon="0.51457">
        <ele>1342.58</ele>
        <time>2022-02-27T08:59:55Z</time>
      </trkpt>
      <trkpt lat="42.84959" lon="0.51457">
        <ele>1342.583</ele>
        <time>2022-02-27T08:59:57Z</time>
      </trkpt>
      <trkpt lat="42.84959" lon="0.51457">
        <ele>1342.567</ele>
        <time>2022-02-27T08:59:59Z</time>
      </trkpt>
      <trkpt lat="42.84959" lon="0.51457">
        <ele>1342.566</ele>
        <time>2022-02-27T09:00:01Z</time>
      </trkpt>
      <trkpt lat="42.84959" lon="0.51457">
        <ele>1342.57</ele>
        <time>2022-02-27T09:00:03Z</time>
      </trkpt>
      <trkpt lat="42.84959" lon="0.51457">
        <ele>1342.576</ele>
        <time>2022-02-27T09:00:05Z</time>
      </trkpt>
      <trkpt lat="42.84959" lon="0.51457">
        <ele>1342.592</ele>
        <time>2022-02-27T09:00:07Z</time>
      </trkpt>
      <trkpt lat="42.84959" lon="0.51457">
        <ele>1342.614</ele>
        <time>2022-02-27T09:00:09Z</time>
      </trkpt>
      <trkpt lat="42.84959" lon="0.51457">
        <ele>1342.634</ele>
        <time>2022-02-27T09:00:11Z</time>
      </trkpt>
      <trkpt lat="42.84959" lon="0.51457">
        <ele>1342.654</ele>
        <time>2022-02-27T09:00:13Z</time>
      </trkpt>
      <trkpt lat="42.84959" lon="0.51457">
        <ele>1342.665</ele>
        <time>2022-02-27T09:00:15Z</time>
      </trkpt>
      <trkpt lat="42.84959" lon="0.51457">
        <ele>1342.669</ele>
        <time>2022-02-27T09:00:17Z</time>
      </trkpt>
      <trkpt lat="42.84959" lon="0.51457">
        <ele>1342.673</ele>
        <time>2022-02-27T09:00:19Z</time>
      </trkpt>
      <trkpt lat="42.84959" lon="0.51457">
        <ele>1342.688</ele>
        <time>2022-02-27T09:00:21Z</time>
      </trkpt>
      <trkpt lat="42.84959" lon="0.51457">
        <ele>1342.69</ele>
        <time>2022-02-27T09:00:23Z</time>
      </trkpt>
      <trkpt lat="42.84959" lon="0.51457">
        <ele>1342.697</ele>
        <time>2022-02-27T09:00:25Z</time>
      </trkpt>
      <trkpt lat="42.84959" lon="0.51457">
        <ele>1342.707</ele>
        <time>2022-02-27T09:00:27Z</time>
      </trkpt>
      <trkpt lat="42.84959" lon="0.51457">
        <ele>1342.707</ele>
        <time>2022-02-27T09:00:29Z</time>
      </trkpt>
      <trkpt lat="42.84959" lon="0.51457">
        <ele>1342.717</ele>
        <time>2022-02-27T09:00:31Z</time>
      </trkpt>
      <trkpt lat="42.84959" lon="0.51457">
        <ele>1342.718</ele>
        <time>2022-02-27T09:00:33Z</time>
      </trkpt>
      <trkpt lat="42.84959" lon="0.51457">
        <ele>1342.715</ele>
        <time>2022-02-27T09:00:35Z</time>
      </trkpt>
      <trkpt lat="42.84959" lon="0.51457">
        <ele>1342.724</ele>
        <time>2022-02-27T09:00:37Z</time>
      </trkpt>
      <trkpt lat="42.84959" lon="0.51457">
        <ele>1342.734</ele>
        <time>2022-02-27T09:00:39Z</time>
      </trkpt>
      <trkpt lat="42.84959" lon="0.51457">
        <ele>1342.731</ele>
        <time>2022-02-27T09:00:41Z</time>
      </trkpt>
      <trkpt lat="42.84959" lon="0.51457">
        <ele>1342.728</ele>
        <time>2022-02-27T09:00:43Z</time>
      </trkpt>
      <trkpt lat="42.84959" lon="0.51457">
        <ele>1342.752</ele>
        <time>2022-02-27T09:00:45Z</time>
      </trkpt>
      <trkpt lat="42.84959" lon="0.51457">
        <ele>1342.797</ele>
        <time>2022-02-27T09:00:47Z</time>
      </trkpt>
      <trkpt lat="42.84959" lon="0.51457">
        <ele>1342.843</ele>
        <time>2022-02-27T09:00:49Z</time>
      </trkpt>
      <trkpt lat="42.84959" lon="0.51457">
        <ele>1342.877</ele>
        <time>2022-02-27T09:00:51Z</time>
      </trkpt>
      <trkpt lat="42.8496" lon="0.51457">
        <ele>1342.892</ele>
        <time>2022-02-27T09:00:53Z</time>
      </trkpt>
      <trkpt lat="42.8496" lon="0.51457">
        <ele>1342.899</ele>
        <time>2022-02-27T09:00:55Z</time>
      </trkpt>
      <trkpt lat="42.8496" lon="0.51457">
        <ele>1342.923</ele>
        <time>2022-02-27T09:00:57Z</time>
      </trkpt>
      <trkpt lat="42.8496" lon="0.51457">
        <ele>1342.949</ele>
        <time>2022-02-27T09:00:59Z</time>
      </trkpt>
      <trkpt lat="42.8496" lon="0.51457">
        <ele>1342.96</ele>
        <time>2022-02-27T09:01:01Z</time>
      </trkpt>
      <trkpt lat="42.8496" lon="0.51457">
        <ele>1342.963</ele>
        <time>2022-02-27T09:01:03Z</time>
      </trkpt>
      <trkpt lat="42.8496" lon="0.51457">
        <ele>1342.967</ele>
        <time>2022-02-27T09:01:05Z</time>
      </trkpt>
      <trkpt lat="42.8496" lon="0.51457">
        <ele>1343</ele>
        <time>2022-02-27T09:01:07Z</time>
      </trkpt>
      <trkpt lat="42.8496" lon="0.51457">
        <ele>1343.026</ele>
        <time>2022-02-27T09:01:09Z</time>
      </trkpt>
      <trkpt lat="42.8496" lon="0.51457">
        <ele>1343.062</ele>
        <time>2022-02-27T09:01:11Z</time>
      </trkpt>
      <trkpt lat="42.8496" lon="0.51457">
        <ele>1343.09</ele>
        <time>2022-02-27T09:01:13Z</time>
      </trkpt>
      <trkpt lat="42.8496" lon="0.51457">
        <ele>1343.113</ele>
        <time>2022-02-27T09:01:15Z</time>
      </trkpt>
      <trkpt lat="42.8496" lon="0.51457">
        <ele>1343.144</ele>
        <time>2022-02-27T09:01:17Z</time>
      </trkpt>
      <trkpt lat="42.8496" lon="0.51457">
        <ele>1343.181</ele>
        <time>2022-02-27T09:01:19Z</time>
      </trkpt>
      <trkpt lat="42.8496" lon="0.51457">
        <ele>1343.196</ele>
        <time>2022-02-27T09:01:21Z</time>
      </trkpt>
      <trkpt lat="42.8496" lon="0.51457">
        <ele>1343.202</ele>
        <time>2022-02-27T09:01:23Z</time>
      </trkpt>
      <trkpt lat="42.8496" lon="0.51457">
        <ele>1343.215</ele>
        <time>2022-02-27T09:01:25Z</time>
      </trkpt>
      <trkpt lat="42.8496" lon="0.51457">
        <ele>1343.225</ele>
        <time>2022-02-27T09:01:27Z</time>
      </trkpt>
      <trkpt lat="42.8496" lon="0.51457">
        <ele>1343.24</ele>
        <time>2022-02-27T09:01:29Z</time>
      </trkpt>
      <trkpt lat="42.8496" lon="0.51457">
        <ele>1343.262</ele>
        <time>2022-02-27T09:01:31Z</time>
      </trkpt>
      <trkpt lat="42.8496" lon="0.51457">
        <ele>1343.27</ele>
        <time>2022-02-27T09:01:33Z</time>
      </trkpt>
      <trkpt lat="42.8496" lon="0.51457">
        <ele>1343.3</ele>
        <time>2022-02-27T09:01:35Z</time>
      </trkpt>
      <trkpt lat="42.8496" lon="0.51457">
        <ele>1343.339</ele>
        <time>2022-02-27T09:01:37Z</time>
      </trkpt>
      <trkpt lat="42.8496" lon="0.51457">
        <ele>1343.357</ele>
        <time>2022-02-27T09:01:39Z</time>
      </trkpt>
      <trkpt lat="42.8496" lon="0.51457">
        <ele>1343.369</ele>
        <time>2022-02-27T09:01:41Z</time>
      </trkpt>
      <trkpt lat="42.8496" lon="0.51457">
        <ele>1343.374</ele>
        <time>2022-02-27T09:01:42Z</time>
      </trkpt>
      <trkpt lat="42.8496" lon="0.51457">
        <ele>1343.387</ele>
        <time>2022-02-27T09:01:45Z</time>
      </trkpt>
      <trkpt lat="42.8496" lon="0.51457">
        <ele>1343.419</ele>
        <time>2022-02-27T09:01:47Z</time>
      </trkpt>
      <trkpt lat="42.8496" lon="0.51458">
        <ele>1343.429</ele>
        <time>2022-02-27T09:01:49Z</time>
      </trkpt>
      <trkpt lat="42.8496" lon="0.51458">
        <ele>1343.45</ele>
        <time>2022-02-27T09:01:51Z</time>
      </trkpt>
      <trkpt lat="42.8496" lon="0.51457">
        <ele>1343.459</ele>
        <time>2022-02-27T09:01:53Z</time>
      </trkpt>
      <trkpt lat="42.8496" lon="0.51457">
        <ele>1343.457</ele>
        <time>2022-02-27T09:01:55Z</time>
      </trkpt>
      <trkpt lat="42.8496" lon="0.51457">
        <ele>1343.464</ele>
        <time>2022-02-27T09:01:57Z</time>
      </trkpt>
      <trkpt lat="42.84961" lon="0.51457">
        <ele>1345.233</ele>
        <time>2022-02-27T09:01:59Z</time>
      </trkpt>
      <trkpt lat="42.84961" lon="0.51457">
        <ele>1345.412</ele>
        <time>2022-02-27T09:02:01Z</time>
      </trkpt>
      <trkpt lat="42.84961" lon="0.51457">
        <ele>1345.394</ele>
        <time>2022-02-27T09:02:03Z</time>
      </trkpt>
      <trkpt lat="42.84961" lon="0.51457">
        <ele>1345.382</ele>
        <time>2022-02-27T09:02:05Z</time>
      </trkpt>
      <trkpt lat="42.84961" lon="0.51457">
        <ele>1345.362</ele>
        <time>2022-02-27T09:02:07Z</time>
      </trkpt>
      <trkpt lat="42.84961" lon="0.51457">
        <ele>1345.344</ele>
        <time>2022-02-27T09:02:09Z</time>
      </trkpt>
      <trkpt lat="42.84961" lon="0.51457">
        <ele>1345.341</ele>
        <time>2022-02-27T09:02:11Z</time>
      </trkpt>
      <trkpt lat="42.84961" lon="0.51457">
        <ele>1345.343</ele>
        <time>2022-02-27T09:02:13Z</time>
      </trkpt>
      <trkpt lat="42.84961" lon="0.51457">
        <ele>1345.348</ele>
        <time>2022-02-27T09:02:15Z</time>
      </trkpt>
      <trkpt lat="42.84961" lon="0.51457">
        <ele>1345.363</ele>
        <time>2022-02-27T09:02:17Z</time>
      </trkpt>
      <trkpt lat="42.84961" lon="0.51457">
        <ele>1345.371</ele>
        <time>2022-02-27T09:02:19Z</time>
      </trkpt>
      <trkpt lat="42.84961" lon="0.51457">
        <ele>1345.394</ele>
        <time>2022-02-27T09:02:21Z</time>
      </trkpt>
      <trkpt lat="42.84961" lon="0.51457">
        <ele>1345.396</ele>
        <time>2022-02-27T09:02:23Z</time>
      </trkpt>
      <trkpt lat="42.84961" lon="0.51457">
        <ele>1344.677</ele>
        <time>2022-02-27T09:02:25Z</time>
      </trkpt>
      <trkpt lat="42.84961" lon="0.51457">
        <ele>1345.313</ele>
        <time>2022-02-27T09:02:27Z</time>
      </trkpt>
      <trkpt lat="42.84961" lon="0.51457">
        <ele>1345.323</ele>
        <time>2022-02-27T09:02:29Z</time>
      </trkpt>
      <trkpt lat="42.84961" lon="0.51457">
        <ele>1345.327</ele>
        <time>2022-02-27T09:02:31Z</time>
      </trkpt>
      <trkpt lat="42.84961" lon="0.51457">
        <ele>1345.669</ele>
        <time>2022-02-27T09:02:33Z</time>
      </trkpt>
      <trkpt lat="42.84961" lon="0.51458">
        <ele>1345.387</ele>
        <time>2022-02-27T09:02:36Z</time>
      </trkpt>
      <trkpt lat="42.84961" lon="0.51458">
        <ele>1345.402</ele>
        <time>2022-02-27T09:02:38Z</time>
      </trkpt>
      <trkpt lat="42.84961" lon="0.51458">
        <ele>1345.412</ele>
        <time>2022-02-27T09:02:40Z</time>
      </trkpt>
      <trkpt lat="42.84961" lon="0.51458">
        <ele>1346.397</ele>
        <time>2022-02-27T09:02:42Z</time>
      </trkpt>
      <trkpt lat="42.84961" lon="0.51458">
        <ele>1346.388</ele>
        <time>2022-02-27T09:02:44Z</time>
      </trkpt>
      <trkpt lat="42.84961" lon="0.51458">
        <ele>1346.383</ele>
        <time>2022-02-27T09:02:46Z</time>
      </trkpt>
      <trkpt lat="42.84961" lon="0.51458">
        <ele>1346.382</ele>
        <time>2022-02-27T09:02:48Z</time>
      </trkpt>
      <trkpt lat="42.84961" lon="0.51458">
        <ele>1346.386</ele>
        <time>2022-02-27T09:02:50Z</time>
      </trkpt>
      <trkpt lat="42.84961" lon="0.51458">
        <ele>1346.38</ele>
        <time>2022-02-27T09:02:52Z</time>
      </trkpt>
      <trkpt lat="42.84961" lon="0.51458">
        <ele>1346.361</ele>
        <time>2022-02-27T09:02:54Z</time>
      </trkpt>
      <trkpt lat="42.84961" lon="0.51458">
        <ele>1346.425</ele>
        <time>2022-02-27T09:02:56Z</time>
      </trkpt>
      <trkpt lat="42.84961" lon="0.51458">
        <ele>1346.349</ele>
        <time>2022-02-27T09:02:58Z</time>
      </trkpt>
      <trkpt lat="42.84961" lon="0.51458">
        <ele>1346.818</ele>
        <time>2022-02-27T09:03:00Z</time>
      </trkpt>
      <trkpt lat="42.84961" lon="0.51456">
        <ele>1346.466</ele>
        <time>2022-02-27T09:03:02Z</time>
      </trkpt>
      <trkpt lat="42.84961" lon="0.51454">
        <ele>1346.736</ele>
        <time>2022-02-27T09:03:04Z</time>
      </trkpt>
      <trkpt lat="42.84961" lon="0.51451">
        <ele>1346.761</ele>
        <time>2022-02-27T09:03:06Z</time>
      </trkpt>
      <trkpt lat="42.8496" lon="0.51449">
        <ele>1347.143</ele>
        <time>2022-02-27T09:03:08Z</time>
      </trkpt>
      <trkpt lat="42.8496" lon="0.51448">
        <ele>1346.791</ele>
        <time>2022-02-27T09:03:10Z</time>
      </trkpt>
      <trkpt lat="42.8496" lon="0.51446">
        <ele>1347.405</ele>
        <time>2022-02-27T09:03:12Z</time>
      </trkpt>
      <trkpt lat="42.8496" lon="0.51444">
        <ele>1348.141</ele>
        <time>2022-02-27T09:03:14Z</time>
      </trkpt>
      <trkpt lat="42.84961" lon="0.51443">
        <ele>1349.074</ele>
        <time>2022-02-27T09:03:16Z</time>
      </trkpt>
      <trkpt lat="42.84961" lon="0.5144">
        <ele>1350.248</ele>
        <time>2022-02-27T09:03:18Z</time>
      </trkpt>
      <trkpt lat="42.84961" lon="0.51437">
        <ele>1351.196</ele>
        <time>2022-02-27T09:03:20Z</time>
      </trkpt>
      <trkpt lat="42.84961" lon="0.51435">
        <ele>1352.766</ele>
        <time>2022-02-27T09:03:22Z</time>
      </trkpt>
      <trkpt lat="42.84962" lon="0.51432">
        <ele>1354.143</ele>
        <time>2022-02-27T09:03:24Z</time>
      </trkpt>
      <trkpt lat="42.84963" lon="0.51429">
        <ele>1354.622</ele>
        <time>2022-02-27T09:03:26Z</time>
      </trkpt>
      <trkpt lat="42.84963" lon="0.51427">
        <ele>1355.586</ele>
        <time>2022-02-27T09:03:29Z</time>
      </trkpt>
      <trkpt lat="42.84963" lon="0.51425">
        <ele>1357.653</ele>
        <time>2022-02-27T09:03:31Z</time>
      </trkpt>
      <trkpt lat="42.84964" lon="0.51423">
        <ele>1358.869</ele>
        <time>2022-02-27T09:03:33Z</time>
      </trkpt>
      <trkpt lat="42.84964" lon="0.51421">
        <ele>1359.548</ele>
        <time>2022-02-27T09:03:35Z</time>
      </trkpt>
      <trkpt lat="42.84963" lon="0.51418">
        <ele>1358.922</ele>
        <time>2022-02-27T09:03:38Z</time>
      </trkpt>
      <trkpt lat="42.84963" lon="0.51416">
        <ele>1361.101</ele>
        <time>2022-02-27T09:03:40Z</time>
      </trkpt>
      <trkpt lat="42.84964" lon="0.51414">
        <ele>1362.111</ele>
        <time>2022-02-27T09:03:42Z</time>
      </trkpt>
      <trkpt lat="42.84965" lon="0.51412">
        <ele>1362.865</ele>
        <time>2022-02-27T09:03:44Z</time>
      </trkpt>
      <trkpt lat="42.84964" lon="0.51409">
        <ele>1365.097</ele>
        <time>2022-02-27T09:03:47Z</time>
      </trkpt>
      <trkpt lat="42.84964" lon="0.51408">
        <ele>1364.893</ele>
        <time>2022-02-27T09:03:49Z</time>
      </trkpt>
      <trkpt lat="42.84963" lon="0.51406">
        <ele>1365.05</ele>
        <time>2022-02-27T09:03:51Z</time>
      </trkpt>
      <trkpt lat="42.84962" lon="0.51404">
        <ele>1366.12</ele>
        <time>2022-02-27T09:03:53Z</time>
      </trkpt>
      <trkpt lat="42.84961" lon="0.51402">
        <ele>1365.096</ele>
        <time>2022-02-27T09:03:55Z</time>
      </trkpt>
      <trkpt lat="42.84961" lon="0.514">
        <ele>1364.411</ele>
        <time>2022-02-27T09:03:57Z</time>
      </trkpt>
      <trkpt lat="42.8496" lon="0.51398">
        <ele>1364.855</ele>
        <time>2022-02-27T09:03:59Z</time>
      </trkpt>
      <trkpt lat="42.84959" lon="0.51395">
        <ele>1365.085</ele>
        <time>2022-02-27T09:04:01Z</time>
      </trkpt>
      <trkpt lat="42.84959" lon="0.51395">
        <ele>1365.557</ele>
        <time>2022-02-27T09:04:03Z</time>
      </trkpt>
      <trkpt lat="42.84958" lon="0.51393">
        <ele>1366.283</ele>
        <time>2022-02-27T09:04:05Z</time>
      </trkpt>
      <trkpt lat="42.84958" lon="0.51391">
        <ele>1367.614</ele>
        <time>2022-02-27T09:04:07Z</time>
      </trkpt>
      <trkpt lat="42.84957" lon="0.5139">
        <ele>1367.433</ele>
        <time>2022-02-27T09:04:09Z</time>
      </trkpt>
      <trkpt lat="42.84957" lon="0.51388">
        <ele>1366.894</ele>
        <time>2022-02-27T09:04:11Z</time>
      </trkpt>
      <trkpt lat="42.84956" lon="0.51386">
        <ele>1367.231</ele>
        <time>2022-02-27T09:04:13Z</time>
      </trkpt>
      <trkpt lat="42.84954" lon="0.51384">
        <ele>1367.526</ele>
        <time>2022-02-27T09:04:15Z</time>
      </trkpt>
      <trkpt lat="42.84954" lon="0.51382">
        <ele>1368.721</ele>
        <time>2022-02-27T09:04:17Z</time>
      </trkpt>
      <trkpt lat="42.84953" lon="0.51381">
        <ele>1368.276</ele>
        <time>2022-02-27T09:04:19Z</time>
      </trkpt>
      <trkpt lat="42.84954" lon="0.51378">
        <ele>1369.809</ele>
        <time>2022-02-27T09:04:21Z</time>
      </trkpt>
      <trkpt lat="42.84954" lon="0.51377">
        <ele>1371.904</ele>
        <time>2022-02-27T09:04:23Z</time>
      </trkpt>
      <trkpt lat="42.84955" lon="0.51376">
        <ele>1372.816</ele>
        <time>2022-02-27T09:04:25Z</time>
      </trkpt>
      <trkpt lat="42.84955" lon="0.51374">
        <ele>1374.33</ele>
        <time>2022-02-27T09:04:27Z</time>
      </trkpt>
      <trkpt lat="42.84955" lon="0.51373">
        <ele>1374.802</ele>
        <time>2022-02-27T09:04:29Z</time>
      </trkpt>
      <trkpt lat="42.84954" lon="0.51372">
        <ele>1374.365</ele>
        <time>2022-02-27T09:04:31Z</time>
      </trkpt>
      <trkpt lat="42.84953" lon="0.51371">
        <ele>1375.748</ele>
        <time>2022-02-27T09:04:33Z</time>
      </trkpt>
      <trkpt lat="42.84953" lon="0.51369">
        <ele>1375.596</ele>
        <time>2022-02-27T09:04:35Z</time>
      </trkpt>
      <trkpt lat="42.84952" lon="0.51368">
        <ele>1375.463</ele>
        <time>2022-02-27T09:04:37Z</time>
      </trkpt>
      <trkpt lat="42.84951" lon="0.51366">
        <ele>1375.65</ele>
        <time>2022-02-27T09:04:39Z</time>
      </trkpt>
      <trkpt lat="42.8495" lon="0.51364">
        <ele>1374.619</ele>
        <time>2022-02-27T09:04:41Z</time>
      </trkpt>
      <trkpt lat="42.84949" lon="0.51362">
        <ele>1375.371</ele>
        <time>2022-02-27T09:04:43Z</time>
      </trkpt>
      <trkpt lat="42.84948" lon="0.51361">
        <ele>1375.871</ele>
        <time>2022-02-27T09:04:45Z</time>
      </trkpt>
      <trkpt lat="42.84947" lon="0.51359">
        <ele>1376.434</ele>
        <time>2022-02-27T09:04:47Z</time>
      </trkpt>
      <trkpt lat="42.84946" lon="0.51358">
        <ele>1377.398</ele>
        <time>2022-02-27T09:04:49Z</time>
      </trkpt>
      <trkpt lat="42.84946" lon="0.51356">
        <ele>1378.697</ele>
        <time>2022-02-27T09:04:51Z</time>
      </trkpt>
      <trkpt lat="42.84945" lon="0.51354">
        <ele>1378.866</ele>
        <time>2022-02-27T09:04:53Z</time>
      </trkpt>
      <trkpt lat="42.84944" lon="0.51352">
        <ele>1378.751</ele>
        <time>2022-02-27T09:04:55Z</time>
      </trkpt>
      <trkpt lat="42.84943" lon="0.5135">
        <ele>1378.857</ele>
        <time>2022-02-27T09:04:57Z</time>
      </trkpt>
      <trkpt lat="42.84942" lon="0.51349">
        <ele>1379.007</ele>
        <time>2022-02-27T09:04:59Z</time>
      </trkpt>
      <trkpt lat="42.84939" lon="0.51348">
        <ele>1378.323</ele>
        <time>2022-02-27T09:05:02Z</time>
      </trkpt>
      <trkpt lat="42.84938" lon="0.51346">
        <ele>1378.713</ele>
        <time>2022-02-27T09:05:04Z</time>
      </trkpt>
      <trkpt lat="42.84937" lon="0.51345">
        <ele>1378.536</ele>
        <time>2022-02-27T09:05:06Z</time>
      </trkpt>
      <trkpt lat="42.84936" lon="0.51343">
        <ele>1379.382</ele>
        <time>2022-02-27T09:05:08Z</time>
      </trkpt>
      <trkpt lat="42.84935" lon="0.51341">
        <ele>1380.883</ele>
        <time>2022-02-27T09:05:10Z</time>
      </trkpt>
      <trkpt lat="42.84934" lon="0.51339">
        <ele>1381.949</ele>
        <time>2022-02-27T09:05:12Z</time>
      </trkpt>
      <trkpt lat="42.84933" lon="0.51337">
        <ele>1382.384</ele>
        <time>2022-02-27T09:05:15Z</time>
      </trkpt>
      <trkpt lat="42.84931" lon="0.51335">
        <ele>1382.86</ele>
        <time>2022-02-27T09:05:17Z</time>
      </trkpt>
      <trkpt lat="42.8493" lon="0.51334">
        <ele>1382.827</ele>
        <time>2022-02-27T09:05:19Z</time>
      </trkpt>
      <trkpt lat="42.84929" lon="0.51331">
        <ele>1383.335</ele>
        <time>2022-02-27T09:05:21Z</time>
      </trkpt>
      <trkpt lat="42.84928" lon="0.51329">
        <ele>1384.671</ele>
        <time>2022-02-27T09:05:23Z</time>
      </trkpt>
      <trkpt lat="42.84927" lon="0.51328">
        <ele>1384.024</ele>
        <time>2022-02-27T09:05:25Z</time>
      </trkpt>
      <trkpt lat="42.84926" lon="0.51326">
        <ele>1384.799</ele>
        <time>2022-02-27T09:05:27Z</time>
      </trkpt>
      <trkpt lat="42.84925" lon="0.51325">
        <ele>1382.993</ele>
        <time>2022-02-27T09:05:29Z</time>
      </trkpt>
      <trkpt lat="42.84925" lon="0.51324">
        <ele>1384.688</ele>
        <time>2022-02-27T09:05:31Z</time>
      </trkpt>
      <trkpt lat="42.84924" lon="0.51322">
        <ele>1386.502</ele>
        <time>2022-02-27T09:05:33Z</time>
      </trkpt>
      <trkpt lat="42.84924" lon="0.51321">
        <ele>1388.117</ele>
        <time>2022-02-27T09:05:35Z</time>
      </trkpt>
      <trkpt lat="42.84922" lon="0.51319">
        <ele>1388.017</ele>
        <time>2022-02-27T09:05:37Z</time>
      </trkpt>
      <trkpt lat="42.84921" lon="0.51317">
        <ele>1389.397</ele>
        <time>2022-02-27T09:05:39Z</time>
      </trkpt>
      <trkpt lat="42.8492" lon="0.51316">
        <ele>1389.945</ele>
        <time>2022-02-27T09:05:41Z</time>
      </trkpt>
      <trkpt lat="42.84919" lon="0.51315">
        <ele>1389.085</ele>
        <time>2022-02-27T09:05:43Z</time>
      </trkpt>
      <trkpt lat="42.84918" lon="0.51315">
        <ele>1389.743</ele>
        <time>2022-02-27T09:05:45Z</time>
      </trkpt>
      <trkpt lat="42.84917" lon="0.51313">
        <ele>1389.589</ele>
        <time>2022-02-27T09:05:47Z</time>
      </trkpt>
      <trkpt lat="42.84916" lon="0.51312">
        <ele>1389.656</ele>
        <time>2022-02-27T09:05:49Z</time>
      </trkpt>
      <trkpt lat="42.84915" lon="0.5131">
        <ele>1390.68</ele>
        <time>2022-02-27T09:05:51Z</time>
      </trkpt>
      <trkpt lat="42.84913" lon="0.51309">
        <ele>1391.182</ele>
        <time>2022-02-27T09:05:53Z</time>
      </trkpt>
      <trkpt lat="42.84912" lon="0.51307">
        <ele>1392.665</ele>
        <time>2022-02-27T09:05:55Z</time>
      </trkpt>
      <trkpt lat="42.84911" lon="0.51306">
        <ele>1393.404</ele>
        <time>2022-02-27T09:05:57Z</time>
      </trkpt>
      <trkpt lat="42.8491" lon="0.51305">
        <ele>1393.831</ele>
        <time>2022-02-27T09:05:59Z</time>
      </trkpt>
      <trkpt lat="42.8491" lon="0.51303">
        <ele>1395.061</ele>
        <time>2022-02-27T09:06:01Z</time>
      </trkpt>
      <trkpt lat="42.84908" lon="0.51301">
        <ele>1394.051</ele>
        <time>2022-02-27T09:06:03Z</time>
      </trkpt>
      <trkpt lat="42.84907" lon="0.513">
        <ele>1394.74</ele>
        <time>2022-02-27T09:06:05Z</time>
      </trkpt>
      <trkpt lat="42.84906" lon="0.51297">
        <ele>1396.044</ele>
        <time>2022-02-27T09:06:07Z</time>
      </trkpt>
      <trkpt lat="42.84906" lon="0.51296">
        <ele>1396.506</ele>
        <time>2022-02-27T09:06:09Z</time>
      </trkpt>
      <trkpt lat="42.84905" lon="0.51295">
        <ele>1396.242</ele>
        <time>2022-02-27T09:06:11Z</time>
      </trkpt>
      <trkpt lat="42.84904" lon="0.51294">
        <ele>1396.264</ele>
        <time>2022-02-27T09:06:13Z</time>
      </trkpt>
      <trkpt lat="42.84904" lon="0.51293">
        <ele>1396.243</ele>
        <time>2022-02-27T09:06:15Z</time>
      </trkpt>
      <trkpt lat="42.84902" lon="0.51292">
        <ele>1397.652</ele>
        <time>2022-02-27T09:06:17Z</time>
      </trkpt>
      <trkpt lat="42.84901" lon="0.51291">
        <ele>1397.839</ele>
        <time>2022-02-27T09:06:19Z</time>
      </trkpt>
      <trkpt lat="42.849" lon="0.51289">
        <ele>1398.665</ele>
        <time>2022-02-27T09:06:21Z</time>
      </trkpt>
      <trkpt lat="42.84899" lon="0.51288">
        <ele>1399.911</ele>
        <time>2022-02-27T09:06:23Z</time>
      </trkpt>
      <trkpt lat="42.84898" lon="0.51286">
        <ele>1400.462</ele>
        <time>2022-02-27T09:06:25Z</time>
      </trkpt>
      <trkpt lat="42.84897" lon="0.51285">
        <ele>1401.377</ele>
        <time>2022-02-27T09:06:27Z</time>
      </trkpt>
      <trkpt lat="42.84896" lon="0.51283">
        <ele>1402.303</ele>
        <time>2022-02-27T09:06:29Z</time>
      </trkpt>
      <trkpt lat="42.84895" lon="0.51283">
        <ele>1403.691</ele>
        <time>2022-02-27T09:06:31Z</time>
      </trkpt>
      <trkpt lat="42.84894" lon="0.51281">
        <ele>1404.13</ele>
        <time>2022-02-27T09:06:33Z</time>
      </trkpt>
      <trkpt lat="42.84893" lon="0.51281">
        <ele>1404.209</ele>
        <time>2022-02-27T09:06:35Z</time>
      </trkpt>
      <trkpt lat="42.84892" lon="0.51279">
        <ele>1402.913</ele>
        <time>2022-02-27T09:06:37Z</time>
      </trkpt>
      <trkpt lat="42.84891" lon="0.51278">
        <ele>1402.564</ele>
        <time>2022-02-27T09:06:39Z</time>
      </trkpt>
      <trkpt lat="42.84891" lon="0.51276">
        <ele>1403.504</ele>
        <time>2022-02-27T09:06:41Z</time>
      </trkpt>
      <trkpt lat="42.8489" lon="0.51275">
        <ele>1403.781</ele>
        <time>2022-02-27T09:06:43Z</time>
      </trkpt>
      <trkpt lat="42.84889" lon="0.51274">
        <ele>1402.698</ele>
        <time>2022-02-27T09:06:45Z</time>
      </trkpt>
      <trkpt lat="42.84889" lon="0.51273">
        <ele>1402.642</ele>
        <time>2022-02-27T09:06:47Z</time>
      </trkpt>
      <trkpt lat="42.84887" lon="0.51271">
        <ele>1402.719</ele>
        <time>2022-02-27T09:06:49Z</time>
      </trkpt>
      <trkpt lat="42.84887" lon="0.5127">
        <ele>1402.876</ele>
        <time>2022-02-27T09:06:51Z</time>
      </trkpt>
      <trkpt lat="42.84887" lon="0.51269">
        <ele>1404.082</ele>
        <time>2022-02-27T09:06:53Z</time>
      </trkpt>
      <trkpt lat="42.84887" lon="0.51267">
        <ele>1405.468</ele>
        <time>2022-02-27T09:06:55Z</time>
      </trkpt>
      <trkpt lat="42.84885" lon="0.51265">
        <ele>1404.343</ele>
        <time>2022-02-27T09:06:57Z</time>
      </trkpt>
      <trkpt lat="42.84885" lon="0.51263">
        <ele>1405.977</ele>
        <time>2022-02-27T09:06:59Z</time>
      </trkpt>
      <trkpt lat="42.84884" lon="0.51261">
        <ele>1406.09</ele>
        <time>2022-02-27T09:07:01Z</time>
      </trkpt>
      <trkpt lat="42.84884" lon="0.5126">
        <ele>1406.32</ele>
        <time>2022-02-27T09:07:03Z</time>
      </trkpt>
      <trkpt lat="42.84883" lon="0.51257">
        <ele>1406.581</ele>
        <time>2022-02-27T09:07:05Z</time>
      </trkpt>
      <trkpt lat="42.84883" lon="0.51255">
        <ele>1408.183</ele>
        <time>2022-02-27T09:07:07Z</time>
      </trkpt>
      <trkpt lat="42.84881" lon="0.51254">
        <ele>1408.857</ele>
        <time>2022-02-27T09:07:09Z</time>
      </trkpt>
      <trkpt lat="42.84881" lon="0.51252">
        <ele>1410.095</ele>
        <time>2022-02-27T09:07:11Z</time>
      </trkpt>
      <trkpt lat="42.8488" lon="0.5125">
        <ele>1409.475</ele>
        <time>2022-02-27T09:07:13Z</time>
      </trkpt>
      <trkpt lat="42.84879" lon="0.51249">
        <ele>1410.846</ele>
        <time>2022-02-27T09:07:15Z</time>
      </trkpt>
      <trkpt lat="42.84878" lon="0.51247">
        <ele>1411.615</ele>
        <time>2022-02-27T09:07:17Z</time>
      </trkpt>
      <trkpt lat="42.84877" lon="0.51246">
        <ele>1411.726</ele>
        <time>2022-02-27T09:07:19Z</time>
      </trkpt>
      <trkpt lat="42.84875" lon="0.51245">
        <ele>1412.395</ele>
        <time>2022-02-27T09:07:21Z</time>
      </trkpt>
      <trkpt lat="42.84874" lon="0.51243">
        <ele>1412.375</ele>
        <time>2022-02-27T09:07:23Z</time>
      </trkpt>
      <trkpt lat="42.84873" lon="0.51242">
        <ele>1412.783</ele>
        <time>2022-02-27T09:07:25Z</time>
      </trkpt>
      <trkpt lat="42.84872" lon="0.5124">
        <ele>1412.881</ele>
        <time>2022-02-27T09:07:27Z</time>
      </trkpt>
      <trkpt lat="42.84871" lon="0.51238">
        <ele>1412.551</ele>
        <time>2022-02-27T09:07:29Z</time>
      </trkpt>
      <trkpt lat="42.8487" lon="0.51236">
        <ele>1411.967</ele>
        <time>2022-02-27T09:07:31Z</time>
      </trkpt>
      <trkpt lat="42.84868" lon="0.51235">
        <ele>1412.172</ele>
        <time>2022-02-27T09:07:33Z</time>
      </trkpt>
      <trkpt lat="42.84867" lon="0.51233">
        <ele>1412.056</ele>
        <time>2022-02-27T09:07:35Z</time>
      </trkpt>
      <trkpt lat="42.84866" lon="0.51232">
        <ele>1412.882</ele>
        <time>2022-02-27T09:07:37Z</time>
      </trkpt>
      <trkpt lat="42.84865" lon="0.5123">
        <ele>1413.152</ele>
        <time>2022-02-27T09:07:39Z</time>
      </trkpt>
      <trkpt lat="42.84864" lon="0.51229">
        <ele>1412.432</ele>
        <time>2022-02-27T09:07:41Z</time>
      </trkpt>
      <trkpt lat="42.84863" lon="0.51228">
        <ele>1414.373</ele>
        <time>2022-02-27T09:07:43Z</time>
      </trkpt>
      <trkpt lat="42.84862" lon="0.51227">
        <ele>1414.441</ele>
        <time>2022-02-27T09:07:45Z</time>
      </trkpt>
      <trkpt lat="42.84861" lon="0.51224">
        <ele>1415.975</ele>
        <time>2022-02-27T09:07:47Z</time>
      </trkpt>
      <trkpt lat="42.8486" lon="0.51223">
        <ele>1418.468</ele>
        <time>2022-02-27T09:07:49Z</time>
      </trkpt>
      <trkpt lat="42.84859" lon="0.51221">
        <ele>1417.954</ele>
        <time>2022-02-27T09:07:51Z</time>
      </trkpt>
      <trkpt lat="42.84858" lon="0.5122">
        <ele>1417.695</ele>
        <time>2022-02-27T09:07:53Z</time>
      </trkpt>
      <trkpt lat="42.84857" lon="0.51218">
        <ele>1416.017</ele>
        <time>2022-02-27T09:07:55Z</time>
      </trkpt>
      <trkpt lat="42.84856" lon="0.51216">
        <ele>1418.122</ele>
        <time>2022-02-27T09:07:57Z</time>
      </trkpt>
      <trkpt lat="42.84856" lon="0.51214">
        <ele>1418.823</ele>
        <time>2022-02-27T09:07:59Z</time>
      </trkpt>
      <trkpt lat="42.84854" lon="0.51213">
        <ele>1418.397</ele>
        <time>2022-02-27T09:08:01Z</time>
      </trkpt>
      <trkpt lat="42.84853" lon="0.51211">
        <ele>1419.836</ele>
        <time>2022-02-27T09:08:03Z</time>
      </trkpt>
      <trkpt lat="42.84852" lon="0.51209">
        <ele>1421.87</ele>
        <time>2022-02-27T09:08:05Z</time>
      </trkpt>
      <trkpt lat="42.84851" lon="0.51208">
        <ele>1422.189</ele>
        <time>2022-02-27T09:08:07Z</time>
      </trkpt>
      <trkpt lat="42.8485" lon="0.51206">
        <ele>1422.142</ele>
        <time>2022-02-27T09:08:09Z</time>
      </trkpt>
      <trkpt lat="42.84848" lon="0.51205">
        <ele>1421.033</ele>
        <time>2022-02-27T09:08:11Z</time>
      </trkpt>
      <trkpt lat="42.84847" lon="0.51204">
        <ele>1421.409</ele>
        <time>2022-02-27T09:08:13Z</time>
      </trkpt>
      <trkpt lat="42.84846" lon="0.51203">
        <ele>1424.016</ele>
        <time>2022-02-27T09:08:15Z</time>
      </trkpt>
      <trkpt lat="42.84846" lon="0.51201">
        <ele>1423.201</ele>
        <time>2022-02-27T09:08:17Z</time>
      </trkpt>
      <trkpt lat="42.84845" lon="0.51199">
        <ele>1425.645</ele>
        <time>2022-02-27T09:08:19Z</time>
      </trkpt>
      <trkpt lat="42.84844" lon="0.51198">
        <ele>1425.557</ele>
        <time>2022-02-27T09:08:21Z</time>
      </trkpt>
      <trkpt lat="42.84843" lon="0.51196">
        <ele>1424.373</ele>
        <time>2022-02-27T09:08:23Z</time>
      </trkpt>
      <trkpt lat="42.84841" lon="0.51195">
        <ele>1425.943</ele>
        <time>2022-02-27T09:08:25Z</time>
      </trkpt>
      <trkpt lat="42.8484" lon="0.51193">
        <ele>1426.64</ele>
        <time>2022-02-27T09:08:27Z</time>
      </trkpt>
      <trkpt lat="42.8484" lon="0.51192">
        <ele>1428.974</ele>
        <time>2022-02-27T09:08:29Z</time>
      </trkpt>
      <trkpt lat="42.84839" lon="0.51191">
        <ele>1429.854</ele>
        <time>2022-02-27T09:08:31Z</time>
      </trkpt>
      <trkpt lat="42.84837" lon="0.5119">
        <ele>1428.549</ele>
        <time>2022-02-27T09:08:33Z</time>
      </trkpt>
      <trkpt lat="42.84836" lon="0.51189">
        <ele>1428.881</ele>
        <time>2022-02-27T09:08:35Z</time>
      </trkpt>
      <trkpt lat="42.84835" lon="0.51188">
        <ele>1428.016</ele>
        <time>2022-02-27T09:08:37Z</time>
      </trkpt>
      <trkpt lat="42.84834" lon="0.51189">
        <ele>1426.964</ele>
        <time>2022-02-27T09:08:39Z</time>
      </trkpt>
      <trkpt lat="42.84832" lon="0.5119">
        <ele>1426.055</ele>
        <time>2022-02-27T09:08:41Z</time>
      </trkpt>
      <trkpt lat="42.84831" lon="0.51187">
        <ele>1425.287</ele>
        <time>2022-02-27T09:08:43Z</time>
      </trkpt>
      <trkpt lat="42.8483" lon="0.51185">
        <ele>1425.772</ele>
        <time>2022-02-27T09:08:45Z</time>
      </trkpt>
      <trkpt lat="42.84828" lon="0.51185">
        <ele>1427.214</ele>
        <time>2022-02-27T09:08:47Z</time>
      </trkpt>
      <trkpt lat="42.84827" lon="0.51184">
        <ele>1428.185</ele>
        <time>2022-02-27T09:08:49Z</time>
      </trkpt>
      <trkpt lat="42.84827" lon="0.51182">
        <ele>1428.514</ele>
        <time>2022-02-27T09:08:51Z</time>
      </trkpt>
      <trkpt lat="42.84826" lon="0.51181">
        <ele>1428.538</ele>
        <time>2022-02-27T09:08:53Z</time>
      </trkpt>
      <trkpt lat="42.84825" lon="0.5118">
        <ele>1430.278</ele>
        <time>2022-02-27T09:08:55Z</time>
      </trkpt>
      <trkpt lat="42.84824" lon="0.51179">
        <ele>1430.632</ele>
        <time>2022-02-27T09:08:57Z</time>
      </trkpt>
      <trkpt lat="42.84822" lon="0.51178">
        <ele>1430.569</ele>
        <time>2022-02-27T09:08:59Z</time>
      </trkpt>
      <trkpt lat="42.84821" lon="0.51177">
        <ele>1430.871</ele>
        <time>2022-02-27T09:09:01Z</time>
      </trkpt>
      <trkpt lat="42.8482" lon="0.51176">
        <ele>1431.208</ele>
        <time>2022-02-27T09:09:03Z</time>
      </trkpt>
      <trkpt lat="42.84818" lon="0.51175">
        <ele>1431.383</ele>
        <time>2022-02-27T09:09:05Z</time>
      </trkpt>
      <trkpt lat="42.84817" lon="0.51174">
        <ele>1431.571</ele>
        <time>2022-02-27T09:09:07Z</time>
      </trkpt>
      <trkpt lat="42.84816" lon="0.51172">
        <ele>1432.405</ele>
        <time>2022-02-27T09:09:09Z</time>
      </trkpt>
      <trkpt lat="42.84815" lon="0.5117">
        <ele>1432.582</ele>
        <time>2022-02-27T09:09:11Z</time>
      </trkpt>
      <trkpt lat="42.84813" lon="0.51169">
        <ele>1434.813</ele>
        <time>2022-02-27T09:09:14Z</time>
      </trkpt>
      <trkpt lat="42.84813" lon="0.51168">
        <ele>1434.142</ele>
        <time>2022-02-27T09:09:16Z</time>
      </trkpt>
      <trkpt lat="42.84812" lon="0.51167">
        <ele>1434.567</ele>
        <time>2022-02-27T09:09:18Z</time>
      </trkpt>
      <trkpt lat="42.84811" lon="0.51165">
        <ele>1435.384</ele>
        <time>2022-02-27T09:09:20Z</time>
      </trkpt>
      <trkpt lat="42.84811" lon="0.51165">
        <ele>1435.068</ele>
        <time>2022-02-27T09:09:22Z</time>
      </trkpt>
      <trkpt lat="42.8481" lon="0.51164">
        <ele>1434.679</ele>
        <time>2022-02-27T09:09:23Z</time>
      </trkpt>
      <trkpt lat="42.84807" lon="0.51163">
        <ele>1433.335</ele>
        <time>2022-02-27T09:09:26Z</time>
      </trkpt>
      <trkpt lat="42.84806" lon="0.51161">
        <ele>1434.361</ele>
        <time>2022-02-27T09:09:28Z</time>
      </trkpt>
      <trkpt lat="42.84805" lon="0.5116">
        <ele>1435.256</ele>
        <time>2022-02-27T09:09:30Z</time>
      </trkpt>
      <trkpt lat="42.84804" lon="0.51159">
        <ele>1435.93</ele>
        <time>2022-02-27T09:09:32Z</time>
      </trkpt>
      <trkpt lat="42.84802" lon="0.5116">
        <ele>1435.12</ele>
        <time>2022-02-27T09:09:34Z</time>
      </trkpt>
      <trkpt lat="42.84801" lon="0.51159">
        <ele>1435.719</ele>
        <time>2022-02-27T09:09:36Z</time>
      </trkpt>
      <trkpt lat="42.84799" lon="0.51158">
        <ele>1436.31</ele>
        <time>2022-02-27T09:09:38Z</time>
      </trkpt>
      <trkpt lat="42.84798" lon="0.51158">
        <ele>1436.209</ele>
        <time>2022-02-27T09:09:40Z</time>
      </trkpt>
      <trkpt lat="42.84797" lon="0.51157">
        <ele>1436.875</ele>
        <time>2022-02-27T09:09:41Z</time>
      </trkpt>
      <trkpt lat="42.84796" lon="0.51154">
        <ele>1438.08</ele>
        <time>2022-02-27T09:09:44Z</time>
      </trkpt>
      <trkpt lat="42.84795" lon="0.51152">
        <ele>1438.992</ele>
        <time>2022-02-27T09:09:46Z</time>
      </trkpt>
      <trkpt lat="42.84793" lon="0.5115">
        <ele>1439.108</ele>
        <time>2022-02-27T09:09:48Z</time>
      </trkpt>
      <trkpt lat="42.84793" lon="0.51149">
        <ele>1440.569</ele>
        <time>2022-02-27T09:09:50Z</time>
      </trkpt>
      <trkpt lat="42.84792" lon="0.51147">
        <ele>1441.057</ele>
        <time>2022-02-27T09:09:52Z</time>
      </trkpt>
      <trkpt lat="42.84792" lon="0.51145">
        <ele>1442.075</ele>
        <time>2022-02-27T09:09:54Z</time>
      </trkpt>
      <trkpt lat="42.84791" lon="0.51144">
        <ele>1441.278</ele>
        <time>2022-02-27T09:09:56Z</time>
      </trkpt>
      <trkpt lat="42.8479" lon="0.51143">
        <ele>1442.65</ele>
        <time>2022-02-27T09:09:58Z</time>
      </trkpt>
      <trkpt lat="42.8479" lon="0.51141">
        <ele>1443.794</ele>
        <time>2022-02-27T09:10:00Z</time>
      </trkpt>
      <trkpt lat="42.84789" lon="0.51139">
        <ele>1443.87</ele>
        <time>2022-02-27T09:10:02Z</time>
      </trkpt>
      <trkpt lat="42.84789" lon="0.51137">
        <ele>1444.617</ele>
        <time>2022-02-27T09:10:04Z</time>
      </trkpt>
      <trkpt lat="42.84788" lon="0.51136">
        <ele>1444.296</ele>
        <time>2022-02-27T09:10:06Z</time>
      </trkpt>
      <trkpt lat="42.84787" lon="0.51133">
        <ele>1444.815</ele>
        <time>2022-02-27T09:10:08Z</time>
      </trkpt>
      <trkpt lat="42.84786" lon="0.51132">
        <ele>1444.569</ele>
        <time>2022-02-27T09:10:10Z</time>
      </trkpt>
      <trkpt lat="42.84785" lon="0.51129">
        <ele>1443.257</ele>
        <time>2022-02-27T09:10:12Z</time>
      </trkpt>
      <trkpt lat="42.84784" lon="0.51128">
        <ele>1444.045</ele>
        <time>2022-02-27T09:10:14Z</time>
      </trkpt>
      <trkpt lat="42.84784" lon="0.51126">
        <ele>1443.737</ele>
        <time>2022-02-27T09:10:16Z</time>
      </trkpt>
      <trkpt lat="42.84783" lon="0.51124">
        <ele>1443.107</ele>
        <time>2022-02-27T09:10:18Z</time>
      </trkpt>
      <trkpt lat="42.84783" lon="0.51122">
        <ele>1444.603</ele>
        <time>2022-02-27T09:10:20Z</time>
      </trkpt>
      <trkpt lat="42.84783" lon="0.51121">
        <ele>1445.565</ele>
        <time>2022-02-27T09:10:22Z</time>
      </trkpt>
      <trkpt lat="42.84783" lon="0.51119">
        <ele>1445.976</ele>
        <time>2022-02-27T09:10:24Z</time>
      </trkpt>
      <trkpt lat="42.84783" lon="0.51117">
        <ele>1445.844</ele>
        <time>2022-02-27T09:10:26Z</time>
      </trkpt>
      <trkpt lat="42.84783" lon="0.51115">
        <ele>1447.645</ele>
        <time>2022-02-27T09:10:28Z</time>
      </trkpt>
      <trkpt lat="42.84783" lon="0.51113">
        <ele>1448.155</ele>
        <time>2022-02-27T09:10:30Z</time>
      </trkpt>
      <trkpt lat="42.84783" lon="0.51112">
        <ele>1448.684</ele>
        <time>2022-02-27T09:10:32Z</time>
      </trkpt>
      <trkpt lat="42.84783" lon="0.5111">
        <ele>1447.346</ele>
        <time>2022-02-27T09:10:34Z</time>
      </trkpt>
      <trkpt lat="42.84781" lon="0.5111">
        <ele>1446.498</ele>
        <time>2022-02-27T09:10:36Z</time>
      </trkpt>
      <trkpt lat="42.8478" lon="0.51108">
        <ele>1446.292</ele>
        <time>2022-02-27T09:10:38Z</time>
      </trkpt>
      <trkpt lat="42.84779" lon="0.51107">
        <ele>1446.746</ele>
        <time>2022-02-27T09:10:41Z</time>
      </trkpt>
      <trkpt lat="42.84777" lon="0.51106">
        <ele>1446.093</ele>
        <time>2022-02-27T09:10:43Z</time>
      </trkpt>
      <trkpt lat="42.84777" lon="0.51105">
        <ele>1445.018</ele>
        <time>2022-02-27T09:10:44Z</time>
      </trkpt>
      <trkpt lat="42.84776" lon="0.51102">
        <ele>1447.411</ele>
        <time>2022-02-27T09:10:47Z</time>
      </trkpt>
      <trkpt lat="42.84775" lon="0.51101">
        <ele>1448.654</ele>
        <time>2022-02-27T09:10:49Z</time>
      </trkpt>
      <trkpt lat="42.84774" lon="0.511">
        <ele>1448.624</ele>
        <time>2022-02-27T09:10:51Z</time>
      </trkpt>
      <trkpt lat="42.84773" lon="0.51099">
        <ele>1448.17</ele>
        <time>2022-02-27T09:10:53Z</time>
      </trkpt>
      <trkpt lat="42.84771" lon="0.51097">
        <ele>1448.317</ele>
        <time>2022-02-27T09:10:55Z</time>
      </trkpt>
      <trkpt lat="42.8477" lon="0.51095">
        <ele>1448.829</ele>
        <time>2022-02-27T09:10:57Z</time>
      </trkpt>
      <trkpt lat="42.84769" lon="0.51093">
        <ele>1449.122</ele>
        <time>2022-02-27T09:10:59Z</time>
      </trkpt>
      <trkpt lat="42.84768" lon="0.51092">
        <ele>1450.407</ele>
        <time>2022-02-27T09:11:01Z</time>
      </trkpt>
      <trkpt lat="42.84767" lon="0.5109">
        <ele>1449.274</ele>
        <time>2022-02-27T09:11:03Z</time>
      </trkpt>
      <trkpt lat="42.84765" lon="0.51088">
        <ele>1448.774</ele>
        <time>2022-02-27T09:11:05Z</time>
      </trkpt>
      <trkpt lat="42.84763" lon="0.51087">
        <ele>1446.919</ele>
        <time>2022-02-27T09:11:07Z</time>
      </trkpt>
      <trkpt lat="42.84761" lon="0.51086">
        <ele>1444.931</ele>
        <time>2022-02-27T09:11:09Z</time>
      </trkpt>
      <trkpt lat="42.8476" lon="0.51085">
        <ele>1444.397</ele>
        <time>2022-02-27T09:11:11Z</time>
      </trkpt>
      <trkpt lat="42.84759" lon="0.51083">
        <ele>1445.578</ele>
        <time>2022-02-27T09:11:13Z</time>
      </trkpt>
      <trkpt lat="42.84757" lon="0.51081">
        <ele>1445.772</ele>
        <time>2022-02-27T09:11:15Z</time>
      </trkpt>
      <trkpt lat="42.84756" lon="0.5108">
        <ele>1444.607</ele>
        <time>2022-02-27T09:11:17Z</time>
      </trkpt>
      <trkpt lat="42.84755" lon="0.51079">
        <ele>1445.998</ele>
        <time>2022-02-27T09:11:19Z</time>
      </trkpt>
      <trkpt lat="42.84753" lon="0.51077">
        <ele>1443.964</ele>
        <time>2022-02-27T09:11:21Z</time>
      </trkpt>
      <trkpt lat="42.84754" lon="0.51077">
        <ele>1445.176</ele>
        <time>2022-02-27T09:11:23Z</time>
      </trkpt>
      <trkpt lat="42.84754" lon="0.51077">
        <ele>1445.195</ele>
        <time>2022-02-27T09:11:25Z</time>
      </trkpt>
      <trkpt lat="42.84754" lon="0.51077">
        <ele>1445.224</ele>
        <time>2022-02-27T09:11:27Z</time>
      </trkpt>
      <trkpt lat="42.84754" lon="0.51077">
        <ele>1445.247</ele>
        <time>2022-02-27T09:11:29Z</time>
      </trkpt>
      <trkpt lat="42.84752" lon="0.51074">
        <ele>1445.096</ele>
        <time>2022-02-27T09:11:31Z</time>
      </trkpt>
      <trkpt lat="42.84751" lon="0.51073">
        <ele>1445.462</ele>
        <time>2022-02-27T09:11:33Z</time>
      </trkpt>
      <trkpt lat="42.8475" lon="0.51072">
        <ele>1445.595</ele>
        <time>2022-02-27T09:11:35Z</time>
      </trkpt>
      <trkpt lat="42.84749" lon="0.51072">
        <ele>1444.375</ele>
        <time>2022-02-27T09:11:36Z</time>
      </trkpt>
      <trkpt lat="42.84748" lon="0.51072">
        <ele>1445.185</ele>
        <time>2022-02-27T09:11:39Z</time>
      </trkpt>
      <trkpt lat="42.84747" lon="0.51071">
        <ele>1445.105</ele>
        <time>2022-02-27T09:11:41Z</time>
      </trkpt>
      <trkpt lat="42.84747" lon="0.5107">
        <ele>1444.349</ele>
        <time>2022-02-27T09:11:43Z</time>
      </trkpt>
      <trkpt lat="42.84746" lon="0.5107">
        <ele>1444.61</ele>
        <time>2022-02-27T09:11:45Z</time>
      </trkpt>
      <trkpt lat="42.84747" lon="0.5107">
        <ele>1445.744</ele>
        <time>2022-02-27T09:11:47Z</time>
      </trkpt>
      <trkpt lat="42.84747" lon="0.5107">
        <ele>1445.753</ele>
        <time>2022-02-27T09:11:49Z</time>
      </trkpt>
      <trkpt lat="42.84747" lon="0.5107">
        <ele>1445.746</ele>
        <time>2022-02-27T09:11:51Z</time>
      </trkpt>
      <trkpt lat="42.84747" lon="0.5107">
        <ele>1445.749</ele>
        <time>2022-02-27T09:11:53Z</time>
      </trkpt>
      <trkpt lat="42.84748" lon="0.5107">
        <ele>1445.284</ele>
        <time>2022-02-27T09:11:55Z</time>
      </trkpt>
      <trkpt lat="42.84748" lon="0.5107">
        <ele>1445.419</ele>
        <time>2022-02-27T09:11:57Z</time>
      </trkpt>
      <trkpt lat="42.84748" lon="0.5107">
        <ele>1444.872</ele>
        <time>2022-02-27T09:11:59Z</time>
      </trkpt>
      <trkpt lat="42.84747" lon="0.51069">
        <ele>1444.417</ele>
        <time>2022-02-27T09:12:01Z</time>
      </trkpt>
      <trkpt lat="42.84747" lon="0.51069">
        <ele>1444.33</ele>
        <time>2022-02-27T09:12:03Z</time>
      </trkpt>
      <trkpt lat="42.84747" lon="0.51069">
        <ele>1444.332</ele>
        <time>2022-02-27T09:12:05Z</time>
      </trkpt>
      <trkpt lat="42.84747" lon="0.51069">
        <ele>1444.306</ele>
        <time>2022-02-27T09:12:07Z</time>
      </trkpt>
      <trkpt lat="42.84747" lon="0.51069">
        <ele>1444.275</ele>
        <time>2022-02-27T09:12:09Z</time>
      </trkpt>
      <trkpt lat="42.84747" lon="0.51069">
        <ele>1444.259</ele>
        <time>2022-02-27T09:12:11Z</time>
      </trkpt>
      <trkpt lat="42.84747" lon="0.51069">
        <ele>1444.253</ele>
        <time>2022-02-27T09:12:13Z</time>
      </trkpt>
      <trkpt lat="42.84747" lon="0.51069">
        <ele>1444.246</ele>
        <time>2022-02-27T09:12:15Z</time>
      </trkpt>
      <trkpt lat="42.84747" lon="0.51069">
        <ele>1444.237</ele>
        <time>2022-02-27T09:12:17Z</time>
      </trkpt>
      <trkpt lat="42.84747" lon="0.51069">
        <ele>1444.227</ele>
        <time>2022-02-27T09:12:19Z</time>
      </trkpt>
      <trkpt lat="42.84747" lon="0.51069">
        <ele>1444.22</ele>
        <time>2022-02-27T09:12:21Z</time>
      </trkpt>
      <trkpt lat="42.84747" lon="0.5107">
        <ele>1443.442</ele>
        <time>2022-02-27T09:12:23Z</time>
      </trkpt>
      <trkpt lat="42.84747" lon="0.5107">
        <ele>1443.429</ele>
        <time>2022-02-27T09:12:25Z</time>
      </trkpt>
      <trkpt lat="42.84747" lon="0.51069">
        <ele>1443.352</ele>
        <time>2022-02-27T09:12:27Z</time>
      </trkpt>
      <trkpt lat="42.84746" lon="0.5107">
        <ele>1442.967</ele>
        <time>2022-02-27T09:12:29Z</time>
      </trkpt>
      <trkpt lat="42.84746" lon="0.5107">
        <ele>1442.976</ele>
        <time>2022-02-27T09:12:31Z</time>
      </trkpt>
      <trkpt lat="42.84746" lon="0.5107">
        <ele>1442.968</ele>
        <time>2022-02-27T09:12:33Z</time>
      </trkpt>
      <trkpt lat="42.84746" lon="0.5107">
        <ele>1442.965</ele>
        <time>2022-02-27T09:12:35Z</time>
      </trkpt>
      <trkpt lat="42.84746" lon="0.5107">
        <ele>1442.969</ele>
        <time>2022-02-27T09:12:37Z</time>
      </trkpt>
      <trkpt lat="42.84746" lon="0.5107">
        <ele>1442.987</ele>
        <time>2022-02-27T09:12:39Z</time>
      </trkpt>
      <trkpt lat="42.84746" lon="0.5107">
        <ele>1442.648</ele>
        <time>2022-02-27T09:12:41Z</time>
      </trkpt>
      <trkpt lat="42.84746" lon="0.5107">
        <ele>1442.433</ele>
        <time>2022-02-27T09:12:43Z</time>
      </trkpt>
      <trkpt lat="42.84745" lon="0.51069">
        <ele>1442.041</ele>
        <time>2022-02-27T09:12:45Z</time>
      </trkpt>
      <trkpt lat="42.84745" lon="0.51069">
        <ele>1442.085</ele>
        <time>2022-02-27T09:12:47Z</time>
      </trkpt>
      <trkpt lat="42.84746" lon="0.51069">
        <ele>1441.645</ele>
        <time>2022-02-27T09:12:49Z</time>
      </trkpt>
      <trkpt lat="42.84746" lon="0.51069">
        <ele>1441.63</ele>
        <time>2022-02-27T09:12:51Z</time>
      </trkpt>
      <trkpt lat="42.84746" lon="0.51069">
        <ele>1441.632</ele>
        <time>2022-02-27T09:12:53Z</time>
      </trkpt>
      <trkpt lat="42.84746" lon="0.51069">
        <ele>1441.63</ele>
        <time>2022-02-27T09:12:55Z</time>
      </trkpt>
      <trkpt lat="42.84746" lon="0.51069">
        <ele>1441.639</ele>
        <time>2022-02-27T09:12:57Z</time>
      </trkpt>
      <trkpt lat="42.84746" lon="0.51069">
        <ele>1441.634</ele>
        <time>2022-02-27T09:12:59Z</time>
      </trkpt>
      <trkpt lat="42.84746" lon="0.51068">
        <ele>1441.182</ele>
        <time>2022-02-27T09:13:01Z</time>
      </trkpt>
      <trkpt lat="42.84745" lon="0.51064">
        <ele>1441.679</ele>
        <time>2022-02-27T09:13:03Z</time>
      </trkpt>
      <trkpt lat="42.84744" lon="0.51063">
        <ele>1442.012</ele>
        <time>2022-02-27T09:13:05Z</time>
      </trkpt>
      <trkpt lat="42.84743" lon="0.51062">
        <ele>1442.521</ele>
        <time>2022-02-27T09:13:07Z</time>
      </trkpt>
      <trkpt lat="42.84742" lon="0.51062">
        <ele>1442.57</ele>
        <time>2022-02-27T09:13:09Z</time>
      </trkpt>
      <trkpt lat="42.84742" lon="0.51061">
        <ele>1442.995</ele>
        <time>2022-02-27T09:13:11Z</time>
      </trkpt>
      <trkpt lat="42.84741" lon="0.51059">
        <ele>1445.872</ele>
        <time>2022-02-27T09:13:13Z</time>
      </trkpt>
      <trkpt lat="42.84741" lon="0.51058">
        <ele>1445.985</ele>
        <time>2022-02-27T09:13:15Z</time>
      </trkpt>
      <trkpt lat="42.84741" lon="0.51057">
        <ele>1445.06</ele>
        <time>2022-02-27T09:13:17Z</time>
      </trkpt>
      <trkpt lat="42.8474" lon="0.51055">
        <ele>1444.768</ele>
        <time>2022-02-27T09:13:19Z</time>
      </trkpt>
      <trkpt lat="42.84739" lon="0.51054">
        <ele>1444.843</ele>
        <time>2022-02-27T09:13:21Z</time>
      </trkpt>
      <trkpt lat="42.84739" lon="0.51053">
        <ele>1445.919</ele>
        <time>2022-02-27T09:13:23Z</time>
      </trkpt>
      <trkpt lat="42.84739" lon="0.51051">
        <ele>1445.396</ele>
        <time>2022-02-27T09:13:25Z</time>
      </trkpt>
      <trkpt lat="42.84738" lon="0.51049">
        <ele>1445.584</ele>
        <time>2022-02-27T09:13:27Z</time>
      </trkpt>
      <trkpt lat="42.84738" lon="0.51048">
        <ele>1446.644</ele>
        <time>2022-02-27T09:13:29Z</time>
      </trkpt>
      <trkpt lat="42.84738" lon="0.51047">
        <ele>1447.229</ele>
        <time>2022-02-27T09:13:31Z</time>
      </trkpt>
      <trkpt lat="42.84738" lon="0.51046">
        <ele>1447.799</ele>
        <time>2022-02-27T09:13:33Z</time>
      </trkpt>
      <trkpt lat="42.84737" lon="0.51045">
        <ele>1449.161</ele>
        <time>2022-02-27T09:13:35Z</time>
      </trkpt>
      <trkpt lat="42.84737" lon="0.51044">
        <ele>1449.676</ele>
        <time>2022-02-27T09:13:37Z</time>
      </trkpt>
      <trkpt lat="42.84737" lon="0.51042">
        <ele>1450.544</ele>
        <time>2022-02-27T09:13:39Z</time>
      </trkpt>
      <trkpt lat="42.84737" lon="0.51041">
        <ele>1451.652</ele>
        <time>2022-02-27T09:13:41Z</time>
      </trkpt>
      <trkpt lat="42.84736" lon="0.5104">
        <ele>1452.256</ele>
        <time>2022-02-27T09:13:43Z</time>
      </trkpt>
      <trkpt lat="42.84735" lon="0.51039">
        <ele>1453.247</ele>
        <time>2022-02-27T09:13:45Z</time>
      </trkpt>
      <trkpt lat="42.84735" lon="0.51037">
        <ele>1453.289</ele>
        <time>2022-02-27T09:13:47Z</time>
      </trkpt>
      <trkpt lat="42.84734" lon="0.51037">
        <ele>1453.063</ele>
        <time>2022-02-27T09:13:49Z</time>
      </trkpt>
      <trkpt lat="42.84734" lon="0.51036">
        <ele>1453.243</ele>
        <time>2022-02-27T09:13:51Z</time>
      </trkpt>
      <trkpt lat="42.84734" lon="0.51034">
        <ele>1454.409</ele>
        <time>2022-02-27T09:13:53Z</time>
      </trkpt>
      <trkpt lat="42.84735" lon="0.51032">
        <ele>1454.688</ele>
        <time>2022-02-27T09:13:55Z</time>
      </trkpt>
      <trkpt lat="42.84735" lon="0.51031">
        <ele>1456.141</ele>
        <time>2022-02-27T09:13:57Z</time>
      </trkpt>
      <trkpt lat="42.84735" lon="0.5103">
        <ele>1457.143</ele>
        <time>2022-02-27T09:13:59Z</time>
      </trkpt>
      <trkpt lat="42.84735" lon="0.51028">
        <ele>1459.033</ele>
        <time>2022-02-27T09:14:01Z</time>
      </trkpt>
      <trkpt lat="42.84735" lon="0.51027">
        <ele>1458.792</ele>
        <time>2022-02-27T09:14:03Z</time>
      </trkpt>
      <trkpt lat="42.84735" lon="0.51026">
        <ele>1459.182</ele>
        <time>2022-02-27T09:14:05Z</time>
      </trkpt>
      <trkpt lat="42.84735" lon="0.51025">
        <ele>1459.855</ele>
        <time>2022-02-27T09:14:07Z</time>
      </trkpt>
      <trkpt lat="42.84734" lon="0.51024">
        <ele>1459.246</ele>
        <time>2022-02-27T09:14:09Z</time>
      </trkpt>
      <trkpt lat="42.84734" lon="0.51022">
        <ele>1460.521</ele>
        <time>2022-02-27T09:14:11Z</time>
      </trkpt>
      <trkpt lat="42.84734" lon="0.51021">
        <ele>1461.823</ele>
        <time>2022-02-27T09:14:13Z</time>
      </trkpt>
      <trkpt lat="42.84734" lon="0.51019">
        <ele>1462.13</ele>
        <time>2022-02-27T09:14:15Z</time>
      </trkpt>
      <trkpt lat="42.84733" lon="0.51018">
        <ele>1463.729</ele>
        <time>2022-02-27T09:14:17Z</time>
      </trkpt>
      <trkpt lat="42.84732" lon="0.51016">
        <ele>1463.907</ele>
        <time>2022-02-27T09:14:19Z</time>
      </trkpt>
      <trkpt lat="42.84731" lon="0.51014">
        <ele>1460.912</ele>
        <time>2022-02-27T09:14:21Z</time>
      </trkpt>
      <trkpt lat="42.84732" lon="0.51013">
        <ele>1460.077</ele>
        <time>2022-02-27T09:14:23Z</time>
      </trkpt>
      <trkpt lat="42.84732" lon="0.51012">
        <ele>1458.361</ele>
        <time>2022-02-27T09:14:25Z</time>
      </trkpt>
      <trkpt lat="42.84732" lon="0.5101">
        <ele>1457.537</ele>
        <time>2022-02-27T09:14:27Z</time>
      </trkpt>
      <trkpt lat="42.84733" lon="0.5101">
        <ele>1458.491</ele>
        <time>2022-02-27T09:14:29Z</time>
      </trkpt>
      <trkpt lat="42.84732" lon="0.5101">
        <ele>1456.513</ele>
        <time>2022-02-27T09:14:31Z</time>
      </trkpt>
      <trkpt lat="42.84731" lon="0.5101">
        <ele>1456.503</ele>
        <time>2022-02-27T09:14:33Z</time>
      </trkpt>
      <trkpt lat="42.84731" lon="0.5101">
        <ele>1456.497</ele>
        <time>2022-02-27T09:14:35Z</time>
      </trkpt>
      <trkpt lat="42.84731" lon="0.5101">
        <ele>1456.471</ele>
        <time>2022-02-27T09:14:37Z</time>
      </trkpt>
      <trkpt lat="42.84731" lon="0.5101">
        <ele>1456.448</ele>
        <time>2022-02-27T09:14:39Z</time>
      </trkpt>
      <trkpt lat="42.84731" lon="0.5101">
        <ele>1456.439</ele>
        <time>2022-02-27T09:14:41Z</time>
      </trkpt>
      <trkpt lat="42.84731" lon="0.5101">
        <ele>1456.438</ele>
        <time>2022-02-27T09:14:43Z</time>
      </trkpt>
      <trkpt lat="42.84732" lon="0.5101">
        <ele>1457.147</ele>
        <time>2022-02-27T09:14:45Z</time>
      </trkpt>
      <trkpt lat="42.84732" lon="0.5101">
        <ele>1457.285</ele>
        <time>2022-02-27T09:14:47Z</time>
      </trkpt>
      <trkpt lat="42.84732" lon="0.5101">
        <ele>1457.277</ele>
        <time>2022-02-27T09:14:49Z</time>
      </trkpt>
      <trkpt lat="42.84732" lon="0.5101">
        <ele>1457.273</ele>
        <time>2022-02-27T09:14:51Z</time>
      </trkpt>
      <trkpt lat="42.84732" lon="0.5101">
        <ele>1457.275</ele>
        <time>2022-02-27T09:14:53Z</time>
      </trkpt>
      <trkpt lat="42.84732" lon="0.5101">
        <ele>1457.271</ele>
        <time>2022-02-27T09:14:55Z</time>
      </trkpt>
      <trkpt lat="42.84732" lon="0.5101">
        <ele>1457.279</ele>
        <time>2022-02-27T09:14:56Z</time>
      </trkpt>
      <trkpt lat="42.84732" lon="0.5101">
        <ele>1457.205</ele>
        <time>2022-02-27T09:14:59Z</time>
      </trkpt>
      <trkpt lat="42.84732" lon="0.51008">
        <ele>1456.734</ele>
        <time>2022-02-27T09:15:01Z</time>
      </trkpt>
      <trkpt lat="42.84731" lon="0.51007">
        <ele>1457.334</ele>
        <time>2022-02-27T09:15:03Z</time>
      </trkpt>
      <trkpt lat="42.8473" lon="0.51006">
        <ele>1456.388</ele>
        <time>2022-02-27T09:15:04Z</time>
      </trkpt>
      <trkpt lat="42.84729" lon="0.51003">
        <ele>1457.153</ele>
        <time>2022-02-27T09:15:07Z</time>
      </trkpt>
      <trkpt lat="42.84729" lon="0.51001">
        <ele>1456.586</ele>
        <time>2022-02-27T09:15:09Z</time>
      </trkpt>
      <trkpt lat="42.84729" lon="0.51">
        <ele>1457.28</ele>
        <time>2022-02-27T09:15:11Z</time>
      </trkpt>
      <trkpt lat="42.84728" lon="0.50998">
        <ele>1457.966</ele>
        <time>2022-02-27T09:15:13Z</time>
      </trkpt>
      <trkpt lat="42.84729" lon="0.50995">
        <ele>1458.475</ele>
        <time>2022-02-27T09:15:15Z</time>
      </trkpt>
      <trkpt lat="42.8473" lon="0.50994">
        <ele>1459.844</ele>
        <time>2022-02-27T09:15:17Z</time>
      </trkpt>
      <trkpt lat="42.8473" lon="0.50993">
        <ele>1460.269</ele>
        <time>2022-02-27T09:15:19Z</time>
      </trkpt>
      <trkpt lat="42.84731" lon="0.50991">
        <ele>1461.139</ele>
        <time>2022-02-27T09:15:21Z</time>
      </trkpt>
      <trkpt lat="42.84731" lon="0.50988">
        <ele>1461.721</ele>
        <time>2022-02-27T09:15:23Z</time>
      </trkpt>
      <trkpt lat="42.84732" lon="0.50986">
        <ele>1461.407</ele>
        <time>2022-02-27T09:15:25Z</time>
      </trkpt>
      <trkpt lat="42.84732" lon="0.50984">
        <ele>1459.691</ele>
        <time>2022-02-27T09:15:27Z</time>
      </trkpt>
      <trkpt lat="42.84731" lon="0.50983">
        <ele>1459.645</ele>
        <time>2022-02-27T09:15:28Z</time>
      </trkpt>
      <trkpt lat="42.8473" lon="0.50979">
        <ele>1459.987</ele>
        <time>2022-02-27T09:15:31Z</time>
      </trkpt>
      <trkpt lat="42.8473" lon="0.50977">
        <ele>1460.019</ele>
        <time>2022-02-27T09:15:33Z</time>
      </trkpt>
      <trkpt lat="42.84729" lon="0.50975">
        <ele>1458.008</ele>
        <time>2022-02-27T09:15:35Z</time>
      </trkpt>
      <trkpt lat="42.84729" lon="0.50972">
        <ele>1460.019</ele>
        <time>2022-02-27T09:15:37Z</time>
      </trkpt>
      <trkpt lat="42.84729" lon="0.50971">
        <ele>1461.579</ele>
        <time>2022-02-27T09:15:39Z</time>
      </trkpt>
      <trkpt lat="42.84729" lon="0.50969">
        <ele>1462.143</ele>
        <time>2022-02-27T09:15:41Z</time>
      </trkpt>
      <trkpt lat="42.84731" lon="0.50969">
        <ele>1461.489</ele>
        <time>2022-02-27T09:15:44Z</time>
      </trkpt>
      <trkpt lat="42.84731" lon="0.5097">
        <ele>1461.485</ele>
        <time>2022-02-27T09:15:46Z</time>
      </trkpt>
      <trkpt lat="42.84731" lon="0.50969">
        <ele>1461.475</ele>
        <time>2022-02-27T09:15:48Z</time>
      </trkpt>
      <trkpt lat="42.84731" lon="0.50969">
        <ele>1461.466</ele>
        <time>2022-02-27T09:15:50Z</time>
      </trkpt>
      <trkpt lat="42.84731" lon="0.50969">
        <ele>1461.457</ele>
        <time>2022-02-27T09:15:52Z</time>
      </trkpt>
      <trkpt lat="42.84731" lon="0.50969">
        <ele>1461.438</ele>
        <time>2022-02-27T09:15:54Z</time>
      </trkpt>
      <trkpt lat="42.84731" lon="0.50969">
        <ele>1461.515</ele>
        <time>2022-02-27T09:15:56Z</time>
      </trkpt>
      <trkpt lat="42.84731" lon="0.50968">
        <ele>1463.259</ele>
        <time>2022-02-27T09:15:58Z</time>
      </trkpt>
      <trkpt lat="42.84731" lon="0.50966">
        <ele>1461.807</ele>
        <time>2022-02-27T09:16:00Z</time>
      </trkpt>
      <trkpt lat="42.84731" lon="0.50964">
        <ele>1460.583</ele>
        <time>2022-02-27T09:16:02Z</time>
      </trkpt>
      <trkpt lat="42.8473" lon="0.50962">
        <ele>1461.897</ele>
        <time>2022-02-27T09:16:04Z</time>
      </trkpt>
      <trkpt lat="42.84732" lon="0.50961">
        <ele>1462.198</ele>
        <time>2022-02-27T09:16:06Z</time>
      </trkpt>
      <trkpt lat="42.84733" lon="0.50959">
        <ele>1463.182</ele>
        <time>2022-02-27T09:16:08Z</time>
      </trkpt>
      <trkpt lat="42.84734" lon="0.50958">
        <ele>1464.262</ele>
        <time>2022-02-27T09:16:10Z</time>
      </trkpt>
      <trkpt lat="42.84735" lon="0.50957">
        <ele>1466.066</ele>
        <time>2022-02-27T09:16:12Z</time>
      </trkpt>
      <trkpt lat="42.84735" lon="0.50956">
        <ele>1465.961</ele>
        <time>2022-02-27T09:16:13Z</time>
      </trkpt>
      <trkpt lat="42.84737" lon="0.50954">
        <ele>1467.724</ele>
        <time>2022-02-27T09:16:16Z</time>
      </trkpt>
      <trkpt lat="42.84737" lon="0.50952">
        <ele>1468.041</ele>
        <time>2022-02-27T09:16:18Z</time>
      </trkpt>
      <trkpt lat="42.84737" lon="0.50949">
        <ele>1468.433</ele>
        <time>2022-02-27T09:16:20Z</time>
      </trkpt>
      <trkpt lat="42.84735" lon="0.50948">
        <ele>1468.219</ele>
        <time>2022-02-27T09:16:22Z</time>
      </trkpt>
      <trkpt lat="42.84734" lon="0.50946">
        <ele>1467.933</ele>
        <time>2022-02-27T09:16:24Z</time>
      </trkpt>
      <trkpt lat="42.84734" lon="0.50944">
        <ele>1468.261</ele>
        <time>2022-02-27T09:16:26Z</time>
      </trkpt>
      <trkpt lat="42.84733" lon="0.50943">
        <ele>1468.502</ele>
        <time>2022-02-27T09:16:29Z</time>
      </trkpt>
      <trkpt lat="42.84734" lon="0.5094">
        <ele>1470.235</ele>
        <time>2022-02-27T09:16:31Z</time>
      </trkpt>
      <trkpt lat="42.84734" lon="0.50938">
        <ele>1471.755</ele>
        <time>2022-02-27T09:16:33Z</time>
      </trkpt>
      <trkpt lat="42.84733" lon="0.50937">
        <ele>1470.428</ele>
        <time>2022-02-27T09:16:35Z</time>
      </trkpt>
      <trkpt lat="42.84733" lon="0.50936">
        <ele>1469.452</ele>
        <time>2022-02-27T09:16:37Z</time>
      </trkpt>
      <trkpt lat="42.84733" lon="0.50936">
        <ele>1468.237</ele>
        <time>2022-02-27T09:16:39Z</time>
      </trkpt>
      <trkpt lat="42.84732" lon="0.50934">
        <ele>1467.6</ele>
        <time>2022-02-27T09:16:41Z</time>
      </trkpt>
      <trkpt lat="42.84732" lon="0.50931">
        <ele>1467.903</ele>
        <time>2022-02-27T09:16:44Z</time>
      </trkpt>
      <trkpt lat="42.84732" lon="0.50928">
        <ele>1468.594</ele>
        <time>2022-02-27T09:16:46Z</time>
      </trkpt>
      <trkpt lat="42.84732" lon="0.50927">
        <ele>1466.956</ele>
        <time>2022-02-27T09:16:48Z</time>
      </trkpt>
      <trkpt lat="42.84731" lon="0.50925">
        <ele>1467.596</ele>
        <time>2022-02-27T09:16:50Z</time>
      </trkpt>
      <trkpt lat="42.84731" lon="0.50923">
        <ele>1468.35</ele>
        <time>2022-02-27T09:16:52Z</time>
      </trkpt>
      <trkpt lat="42.84732" lon="0.50921">
        <ele>1470.21</ele>
        <time>2022-02-27T09:16:54Z</time>
      </trkpt>
      <trkpt lat="42.84733" lon="0.50919">
        <ele>1471.999</ele>
        <time>2022-02-27T09:16:56Z</time>
      </trkpt>
      <trkpt lat="42.84733" lon="0.50918">
        <ele>1472.208</ele>
        <time>2022-02-27T09:16:58Z</time>
      </trkpt>
      <trkpt lat="42.84734" lon="0.50917">
        <ele>1474.523</ele>
        <time>2022-02-27T09:17:00Z</time>
      </trkpt>
      <trkpt lat="42.84734" lon="0.50915">
        <ele>1474.035</ele>
        <time>2022-02-27T09:17:03Z</time>
      </trkpt>
      <trkpt lat="42.84733" lon="0.50913">
        <ele>1473.787</ele>
        <time>2022-02-27T09:17:05Z</time>
      </trkpt>
      <trkpt lat="42.84733" lon="0.50912">
        <ele>1472.973</ele>
        <time>2022-02-27T09:17:07Z</time>
      </trkpt>
      <trkpt lat="42.84733" lon="0.50911">
        <ele>1473.872</ele>
        <time>2022-02-27T09:17:09Z</time>
      </trkpt>
      <trkpt lat="42.84733" lon="0.50909">
        <ele>1473.465</ele>
        <time>2022-02-27T09:17:11Z</time>
      </trkpt>
      <trkpt lat="42.84732" lon="0.50908">
        <ele>1474.158</ele>
        <time>2022-02-27T09:17:13Z</time>
      </trkpt>
      <trkpt lat="42.84732" lon="0.50907">
        <ele>1474.158</ele>
        <time>2022-02-27T09:17:15Z</time>
      </trkpt>
      <trkpt lat="42.84732" lon="0.50906">
        <ele>1473.729</ele>
        <time>2022-02-27T09:17:17Z</time>
      </trkpt>
      <trkpt lat="42.84731" lon="0.50905">
        <ele>1473.637</ele>
        <time>2022-02-27T09:17:19Z</time>
      </trkpt>
      <trkpt lat="42.8473" lon="0.50904">
        <ele>1473.299</ele>
        <time>2022-02-27T09:17:20Z</time>
      </trkpt>
      <trkpt lat="42.8473" lon="0.50903">
        <ele>1475.104</ele>
        <time>2022-02-27T09:17:23Z</time>
      </trkpt>
      <trkpt lat="42.8473" lon="0.50902">
        <ele>1476.213</ele>
        <time>2022-02-27T09:17:25Z</time>
      </trkpt>
      <trkpt lat="42.8473" lon="0.509">
        <ele>1477.742</ele>
        <time>2022-02-27T09:17:27Z</time>
      </trkpt>
      <trkpt lat="42.84731" lon="0.509">
        <ele>1479.531</ele>
        <time>2022-02-27T09:17:29Z</time>
      </trkpt>
      <trkpt lat="42.8473" lon="0.50899">
        <ele>1479.208</ele>
        <time>2022-02-27T09:17:31Z</time>
      </trkpt>
      <trkpt lat="42.8473" lon="0.50898">
        <ele>1480.276</ele>
        <time>2022-02-27T09:17:33Z</time>
      </trkpt>
      <trkpt lat="42.84729" lon="0.50897">
        <ele>1479.641</ele>
        <time>2022-02-27T09:17:35Z</time>
      </trkpt>
      <trkpt lat="42.84729" lon="0.50896">
        <ele>1479.398</ele>
        <time>2022-02-27T09:17:37Z</time>
      </trkpt>
      <trkpt lat="42.84728" lon="0.50894">
        <ele>1479.918</ele>
        <time>2022-02-27T09:17:39Z</time>
      </trkpt>
      <trkpt lat="42.84727" lon="0.50893">
        <ele>1478.632</ele>
        <time>2022-02-27T09:17:41Z</time>
      </trkpt>
      <trkpt lat="42.84727" lon="0.50892">
        <ele>1479.365</ele>
        <time>2022-02-27T09:17:43Z</time>
      </trkpt>
      <trkpt lat="42.84726" lon="0.50891">
        <ele>1479.504</ele>
        <time>2022-02-27T09:17:44Z</time>
      </trkpt>
      <trkpt lat="42.84727" lon="0.50888">
        <ele>1481.062</ele>
        <time>2022-02-27T09:17:47Z</time>
      </trkpt>
      <trkpt lat="42.84728" lon="0.50886">
        <ele>1481.285</ele>
        <time>2022-02-27T09:17:49Z</time>
      </trkpt>
      <trkpt lat="42.84729" lon="0.50884">
        <ele>1482.318</ele>
        <time>2022-02-27T09:17:51Z</time>
      </trkpt>
      <trkpt lat="42.84729" lon="0.50883">
        <ele>1481.81</ele>
        <time>2022-02-27T09:17:53Z</time>
      </trkpt>
      <trkpt lat="42.84728" lon="0.50882">
        <ele>1481.338</ele>
        <time>2022-02-27T09:17:55Z</time>
      </trkpt>
      <trkpt lat="42.84728" lon="0.50881">
        <ele>1480.725</ele>
        <time>2022-02-27T09:17:57Z</time>
      </trkpt>
      <trkpt lat="42.84727" lon="0.5088">
        <ele>1480.595</ele>
        <time>2022-02-27T09:17:59Z</time>
      </trkpt>
      <trkpt lat="42.84727" lon="0.50878">
        <ele>1479.565</ele>
        <time>2022-02-27T09:18:01Z</time>
      </trkpt>
      <trkpt lat="42.84726" lon="0.50876">
        <ele>1479.559</ele>
        <time>2022-02-27T09:18:03Z</time>
      </trkpt>
      <trkpt lat="42.84727" lon="0.50874">
        <ele>1479.998</ele>
        <time>2022-02-27T09:18:05Z</time>
      </trkpt>
      <trkpt lat="42.84726" lon="0.50872">
        <ele>1479.503</ele>
        <time>2022-02-27T09:18:07Z</time>
      </trkpt>
      <trkpt lat="42.84726" lon="0.50871">
        <ele>1481.265</ele>
        <time>2022-02-27T09:18:09Z</time>
      </trkpt>
      <trkpt lat="42.84725" lon="0.50869">
        <ele>1480.13</ele>
        <time>2022-02-27T09:18:11Z</time>
      </trkpt>
      <trkpt lat="42.84725" lon="0.50867">
        <ele>1479.661</ele>
        <time>2022-02-27T09:18:13Z</time>
      </trkpt>
      <trkpt lat="42.84724" lon="0.50865">
        <ele>1479.321</ele>
        <time>2022-02-27T09:18:15Z</time>
      </trkpt>
      <trkpt lat="42.84724" lon="0.50863">
        <ele>1479.442</ele>
        <time>2022-02-27T09:18:17Z</time>
      </trkpt>
      <trkpt lat="42.84724" lon="0.50861">
        <ele>1480.456</ele>
        <time>2022-02-27T09:18:19Z</time>
      </trkpt>
      <trkpt lat="42.84724" lon="0.50859">
        <ele>1481.821</ele>
        <time>2022-02-27T09:18:21Z</time>
      </trkpt>
      <trkpt lat="42.84725" lon="0.50858">
        <ele>1480.758</ele>
        <time>2022-02-27T09:18:23Z</time>
      </trkpt>
      <trkpt lat="42.84725" lon="0.50858">
        <ele>1480.645</ele>
        <time>2022-02-27T09:18:25Z</time>
      </trkpt>
      <trkpt lat="42.84724" lon="0.50856">
        <ele>1479.666</ele>
        <time>2022-02-27T09:18:27Z</time>
      </trkpt>
      <trkpt lat="42.84723" lon="0.50854">
        <ele>1479.929</ele>
        <time>2022-02-27T09:18:29Z</time>
      </trkpt>
      <trkpt lat="42.84723" lon="0.50852">
        <ele>1481.055</ele>
        <time>2022-02-27T09:18:31Z</time>
      </trkpt>
      <trkpt lat="42.84723" lon="0.5085">
        <ele>1481.396</ele>
        <time>2022-02-27T09:18:33Z</time>
      </trkpt>
      <trkpt lat="42.84723" lon="0.50849">
        <ele>1481.682</ele>
        <time>2022-02-27T09:18:35Z</time>
      </trkpt>
      <trkpt lat="42.84723" lon="0.50848">
        <ele>1482.759</ele>
        <time>2022-02-27T09:18:37Z</time>
      </trkpt>
      <trkpt lat="42.84724" lon="0.50846">
        <ele>1483.121</ele>
        <time>2022-02-27T09:18:39Z</time>
      </trkpt>
      <trkpt lat="42.84724" lon="0.50845">
        <ele>1483.625</ele>
        <time>2022-02-27T09:18:41Z</time>
      </trkpt>
      <trkpt lat="42.84725" lon="0.50845">
        <ele>1485.365</ele>
        <time>2022-02-27T09:18:43Z</time>
      </trkpt>
      <trkpt lat="42.84725" lon="0.50843">
        <ele>1485.677</ele>
        <time>2022-02-27T09:18:45Z</time>
      </trkpt>
      <trkpt lat="42.84725" lon="0.50841">
        <ele>1486.622</ele>
        <time>2022-02-27T09:18:47Z</time>
      </trkpt>
      <trkpt lat="42.84726" lon="0.5084">
        <ele>1486.98</ele>
        <time>2022-02-27T09:18:49Z</time>
      </trkpt>
      <trkpt lat="42.84726" lon="0.50838">
        <ele>1486.323</ele>
        <time>2022-02-27T09:18:51Z</time>
      </trkpt>
      <trkpt lat="42.84726" lon="0.50836">
        <ele>1488.736</ele>
        <time>2022-02-27T09:18:53Z</time>
      </trkpt>
      <trkpt lat="42.84727" lon="0.50835">
        <ele>1490.497</ele>
        <time>2022-02-27T09:18:55Z</time>
      </trkpt>
      <trkpt lat="42.84727" lon="0.50834">
        <ele>1489.828</ele>
        <time>2022-02-27T09:18:57Z</time>
      </trkpt>
      <trkpt lat="42.84726" lon="0.50832">
        <ele>1489.972</ele>
        <time>2022-02-27T09:18:59Z</time>
      </trkpt>
      <trkpt lat="42.84726" lon="0.50831">
        <ele>1489.49</ele>
        <time>2022-02-27T09:19:01Z</time>
      </trkpt>
      <trkpt lat="42.84725" lon="0.50829">
        <ele>1487.405</ele>
        <time>2022-02-27T09:19:03Z</time>
      </trkpt>
      <trkpt lat="42.84724" lon="0.50828">
        <ele>1487.226</ele>
        <time>2022-02-27T09:19:05Z</time>
      </trkpt>
      <trkpt lat="42.84723" lon="0.50827">
        <ele>1488.233</ele>
        <time>2022-02-27T09:19:07Z</time>
      </trkpt>
      <trkpt lat="42.84723" lon="0.50825">
        <ele>1489.029</ele>
        <time>2022-02-27T09:19:09Z</time>
      </trkpt>
      <trkpt lat="42.84723" lon="0.50824">
        <ele>1488.587</ele>
        <time>2022-02-27T09:19:11Z</time>
      </trkpt>
      <trkpt lat="42.84723" lon="0.50823">
        <ele>1487.432</ele>
        <time>2022-02-27T09:19:13Z</time>
      </trkpt>
      <trkpt lat="42.84723" lon="0.50822">
        <ele>1486.948</ele>
        <time>2022-02-27T09:19:14Z</time>
      </trkpt>
      <trkpt lat="42.84722" lon="0.5082">
        <ele>1487.764</ele>
        <time>2022-02-27T09:19:16Z</time>
      </trkpt>
      <trkpt lat="42.84721" lon="0.50817">
        <ele>1485.874</ele>
        <time>2022-02-27T09:19:19Z</time>
      </trkpt>
      <trkpt lat="42.84722" lon="0.50816">
        <ele>1487.27</ele>
        <time>2022-02-27T09:19:21Z</time>
      </trkpt>
      <trkpt lat="42.84723" lon="0.50815">
        <ele>1487.971</ele>
        <time>2022-02-27T09:19:23Z</time>
      </trkpt>
      <trkpt lat="42.84724" lon="0.50814">
        <ele>1488.259</ele>
        <time>2022-02-27T09:19:25Z</time>
      </trkpt>
      <trkpt lat="42.84725" lon="0.50814">
        <ele>1489.454</ele>
        <time>2022-02-27T09:19:27Z</time>
      </trkpt>
      <trkpt lat="42.84726" lon="0.50814">
        <ele>1490.626</ele>
        <time>2022-02-27T09:19:29Z</time>
      </trkpt>
      <trkpt lat="42.84727" lon="0.50814">
        <ele>1490.803</ele>
        <time>2022-02-27T09:19:31Z</time>
      </trkpt>
      <trkpt lat="42.84727" lon="0.50814">
        <ele>1490.81</ele>
        <time>2022-02-27T09:19:33Z</time>
      </trkpt>
      <trkpt lat="42.84727" lon="0.50814">
        <ele>1490.806</ele>
        <time>2022-02-27T09:19:35Z</time>
      </trkpt>
      <trkpt lat="42.84726" lon="0.50812">
        <ele>1490.885</ele>
        <time>2022-02-27T09:19:37Z</time>
      </trkpt>
      <trkpt lat="42.84726" lon="0.50811">
        <ele>1490.469</ele>
        <time>2022-02-27T09:19:39Z</time>
      </trkpt>
      <trkpt lat="42.84726" lon="0.5081">
        <ele>1490.856</ele>
        <time>2022-02-27T09:19:41Z</time>
      </trkpt>
      <trkpt lat="42.84726" lon="0.50808">
        <ele>1489.651</ele>
        <time>2022-02-27T09:19:43Z</time>
      </trkpt>
      <trkpt lat="42.84726" lon="0.50807">
        <ele>1490.489</ele>
        <time>2022-02-27T09:19:45Z</time>
      </trkpt>
      <trkpt lat="42.84726" lon="0.50805">
        <ele>1490.892</ele>
        <time>2022-02-27T09:19:47Z</time>
      </trkpt>
      <trkpt lat="42.84726" lon="0.50804">
        <ele>1491.792</ele>
        <time>2022-02-27T09:19:49Z</time>
      </trkpt>
      <trkpt lat="42.84727" lon="0.50803">
        <ele>1491.888</ele>
        <time>2022-02-27T09:19:51Z</time>
      </trkpt>
      <trkpt lat="42.84728" lon="0.50801">
        <ele>1492.116</ele>
        <time>2022-02-27T09:19:53Z</time>
      </trkpt>
      <trkpt lat="42.84728" lon="0.50799">
        <ele>1493.079</ele>
        <time>2022-02-27T09:19:55Z</time>
      </trkpt>
      <trkpt lat="42.84727" lon="0.50798">
        <ele>1493.486</ele>
        <time>2022-02-27T09:19:57Z</time>
      </trkpt>
      <trkpt lat="42.84727" lon="0.50797">
        <ele>1494.447</ele>
        <time>2022-02-27T09:20:00Z</time>
      </trkpt>
      <trkpt lat="42.84727" lon="0.50795">
        <ele>1495.165</ele>
        <time>2022-02-27T09:20:02Z</time>
      </trkpt>
      <trkpt lat="42.84727" lon="0.50793">
        <ele>1496.566</ele>
        <time>2022-02-27T09:20:04Z</time>
      </trkpt>
      <trkpt lat="42.84727" lon="0.50791">
        <ele>1497.235</ele>
        <time>2022-02-27T09:20:06Z</time>
      </trkpt>
      <trkpt lat="42.84727" lon="0.50789">
        <ele>1498.024</ele>
        <time>2022-02-27T09:20:08Z</time>
      </trkpt>
      <trkpt lat="42.84728" lon="0.50788">
        <ele>1499.018</ele>
        <time>2022-02-27T09:20:10Z</time>
      </trkpt>
      <trkpt lat="42.84727" lon="0.50786">
        <ele>1498.955</ele>
        <time>2022-02-27T09:20:12Z</time>
      </trkpt>
      <trkpt lat="42.84727" lon="0.50784">
        <ele>1497.528</ele>
        <time>2022-02-27T09:20:14Z</time>
      </trkpt>
      <trkpt lat="42.84728" lon="0.50785">
        <ele>1499.735</ele>
        <time>2022-02-27T09:20:16Z</time>
      </trkpt>
      <trkpt lat="42.84727" lon="0.50783">
        <ele>1499.816</ele>
        <time>2022-02-27T09:20:18Z</time>
      </trkpt>
      <trkpt lat="42.84726" lon="0.50782">
        <ele>1499.381</ele>
        <time>2022-02-27T09:20:20Z</time>
      </trkpt>
      <trkpt lat="42.84726" lon="0.50779">
        <ele>1500.019</ele>
        <time>2022-02-27T09:20:22Z</time>
      </trkpt>
      <trkpt lat="42.84726" lon="0.50777">
        <ele>1500.639</ele>
        <time>2022-02-27T09:20:24Z</time>
      </trkpt>
      <trkpt lat="42.84726" lon="0.50776">
        <ele>1499.65</ele>
        <time>2022-02-27T09:20:26Z</time>
      </trkpt>
      <trkpt lat="42.84726" lon="0.50775">
        <ele>1499.328</ele>
        <time>2022-02-27T09:20:28Z</time>
      </trkpt>
      <trkpt lat="42.84726" lon="0.50774">
        <ele>1499.488</ele>
        <time>2022-02-27T09:20:30Z</time>
      </trkpt>
      <trkpt lat="42.84726" lon="0.50773">
        <ele>1500.793</ele>
        <time>2022-02-27T09:20:32Z</time>
      </trkpt>
      <trkpt lat="42.84728" lon="0.50773">
        <ele>1502.044</ele>
        <time>2022-02-27T09:20:34Z</time>
      </trkpt>
      <trkpt lat="42.84728" lon="0.50773">
        <ele>1502.318</ele>
        <time>2022-02-27T09:20:36Z</time>
      </trkpt>
      <trkpt lat="42.84727" lon="0.50772">
        <ele>1503.221</ele>
        <time>2022-02-27T09:20:38Z</time>
      </trkpt>
      <trkpt lat="42.84727" lon="0.50772">
        <ele>1503.058</ele>
        <time>2022-02-27T09:20:40Z</time>
      </trkpt>
      <trkpt lat="42.84726" lon="0.50771">
        <ele>1503.03</ele>
        <time>2022-02-27T09:20:42Z</time>
      </trkpt>
      <trkpt lat="42.84726" lon="0.5077">
        <ele>1503.195</ele>
        <time>2022-02-27T09:20:44Z</time>
      </trkpt>
      <trkpt lat="42.84726" lon="0.50769">
        <ele>1503.622</ele>
        <time>2022-02-27T09:20:46Z</time>
      </trkpt>
      <trkpt lat="42.84726" lon="0.50768">
        <ele>1505.135</ele>
        <time>2022-02-27T09:20:48Z</time>
      </trkpt>
      <trkpt lat="42.84726" lon="0.50766">
        <ele>1505.598</ele>
        <time>2022-02-27T09:20:50Z</time>
      </trkpt>
      <trkpt lat="42.84726" lon="0.50766">
        <ele>1506.036</ele>
        <time>2022-02-27T09:20:51Z</time>
      </trkpt>
      <trkpt lat="42.84725" lon="0.50765">
        <ele>1506.502</ele>
        <time>2022-02-27T09:20:54Z</time>
      </trkpt>
      <trkpt lat="42.84725" lon="0.50764">
        <ele>1505.879</ele>
        <time>2022-02-27T09:20:56Z</time>
      </trkpt>
      <trkpt lat="42.84724" lon="0.50763">
        <ele>1505.966</ele>
        <time>2022-02-27T09:20:58Z</time>
      </trkpt>
      <trkpt lat="42.84723" lon="0.50762">
        <ele>1506.596</ele>
        <time>2022-02-27T09:21:00Z</time>
      </trkpt>
      <trkpt lat="42.84723" lon="0.50761">
        <ele>1506.25</ele>
        <time>2022-02-27T09:21:02Z</time>
      </trkpt>
      <trkpt lat="42.84724" lon="0.50761">
        <ele>1508.286</ele>
        <time>2022-02-27T09:21:04Z</time>
      </trkpt>
      <trkpt lat="42.84724" lon="0.50762">
        <ele>1510.095</ele>
        <time>2022-02-27T09:21:06Z</time>
      </trkpt>
      <trkpt lat="42.84723" lon="0.50761">
        <ele>1510.105</ele>
        <time>2022-02-27T09:21:08Z</time>
      </trkpt>
      <trkpt lat="42.84723" lon="0.5076">
        <ele>1510.222</ele>
        <time>2022-02-27T09:21:10Z</time>
      </trkpt>
      <trkpt lat="42.84723" lon="0.50758">
        <ele>1509.577</ele>
        <time>2022-02-27T09:21:12Z</time>
      </trkpt>
      <trkpt lat="42.84723" lon="0.50757">
        <ele>1508.939</ele>
        <time>2022-02-27T09:21:14Z</time>
      </trkpt>
      <trkpt lat="42.84723" lon="0.50755">
        <ele>1508.35</ele>
        <time>2022-02-27T09:21:16Z</time>
      </trkpt>
      <trkpt lat="42.84724" lon="0.50754">
        <ele>1508.432</ele>
        <time>2022-02-27T09:21:18Z</time>
      </trkpt>
      <trkpt lat="42.84724" lon="0.50754">
        <ele>1508.189</ele>
        <time>2022-02-27T09:21:20Z</time>
      </trkpt>
      <trkpt lat="42.84724" lon="0.50754">
        <ele>1508.173</ele>
        <time>2022-02-27T09:21:22Z</time>
      </trkpt>
      <trkpt lat="42.84724" lon="0.50754">
        <ele>1508.155</ele>
        <time>2022-02-27T09:21:24Z</time>
      </trkpt>
      <trkpt lat="42.84724" lon="0.50754">
        <ele>1508.123</ele>
        <time>2022-02-27T09:21:26Z</time>
      </trkpt>
      <trkpt lat="42.84725" lon="0.50754">
        <ele>1508.109</ele>
        <time>2022-02-27T09:21:28Z</time>
      </trkpt>
      <trkpt lat="42.84725" lon="0.50754">
        <ele>1508.102</ele>
        <time>2022-02-27T09:21:30Z</time>
      </trkpt>
      <trkpt lat="42.84725" lon="0.50754">
        <ele>1507.676</ele>
        <time>2022-02-27T09:21:33Z</time>
      </trkpt>
      <trkpt lat="42.84725" lon="0.50754">
        <ele>1507.675</ele>
        <time>2022-02-27T09:21:35Z</time>
      </trkpt>
      <trkpt lat="42.84725" lon="0.50754">
        <ele>1507.663</ele>
        <time>2022-02-27T09:21:37Z</time>
      </trkpt>
      <trkpt lat="42.84725" lon="0.50754">
        <ele>1507.671</ele>
        <time>2022-02-27T09:21:39Z</time>
      </trkpt>
      <trkpt lat="42.84725" lon="0.50754">
        <ele>1507.659</ele>
        <time>2022-02-27T09:21:41Z</time>
      </trkpt>
      <trkpt lat="42.84725" lon="0.50754">
        <ele>1507.641</ele>
        <time>2022-02-27T09:21:43Z</time>
      </trkpt>
      <trkpt lat="42.84725" lon="0.50754">
        <ele>1507.627</ele>
        <time>2022-02-27T09:21:45Z</time>
      </trkpt>
      <trkpt lat="42.84725" lon="0.50754">
        <ele>1507.62</ele>
        <time>2022-02-27T09:21:47Z</time>
      </trkpt>
      <trkpt lat="42.84725" lon="0.50754">
        <ele>1507.61</ele>
        <time>2022-02-27T09:21:49Z</time>
      </trkpt>
      <trkpt lat="42.84725" lon="0.50754">
        <ele>1507.622</ele>
        <time>2022-02-27T09:21:51Z</time>
      </trkpt>
      <trkpt lat="42.84725" lon="0.50754">
        <ele>1507.627</ele>
        <time>2022-02-27T09:21:53Z</time>
      </trkpt>
      <trkpt lat="42.84725" lon="0.50754">
        <ele>1507.617</ele>
        <time>2022-02-27T09:21:55Z</time>
      </trkpt>
      <trkpt lat="42.84725" lon="0.50754">
        <ele>1507.614</ele>
        <time>2022-02-27T09:21:57Z</time>
      </trkpt>
      <trkpt lat="42.84725" lon="0.50754">
        <ele>1507.622</ele>
        <time>2022-02-27T09:21:59Z</time>
      </trkpt>
      <trkpt lat="42.84725" lon="0.50754">
        <ele>1507.638</ele>
        <time>2022-02-27T09:22:01Z</time>
      </trkpt>
      <trkpt lat="42.84725" lon="0.50754">
        <ele>1507.634</ele>
        <time>2022-02-27T09:22:03Z</time>
      </trkpt>
      <trkpt lat="42.84725" lon="0.50753">
        <ele>1506.84</ele>
        <time>2022-02-27T09:22:05Z</time>
      </trkpt>
      <trkpt lat="42.84725" lon="0.50752">
        <ele>1506.325</ele>
        <time>2022-02-27T09:22:08Z</time>
      </trkpt>
      <trkpt lat="42.84725" lon="0.5075">
        <ele>1505.71</ele>
        <time>2022-02-27T09:22:10Z</time>
      </trkpt>
      <trkpt lat="42.84726" lon="0.5075">
        <ele>1505.324</ele>
        <time>2022-02-27T09:22:12Z</time>
      </trkpt>
      <trkpt lat="42.84725" lon="0.50749">
        <ele>1506.17</ele>
        <time>2022-02-27T09:22:14Z</time>
      </trkpt>
      <trkpt lat="42.84724" lon="0.50748">
        <ele>1505.767</ele>
        <time>2022-02-27T09:22:16Z</time>
      </trkpt>
      <trkpt lat="42.84724" lon="0.50746">
        <ele>1504.858</ele>
        <time>2022-02-27T09:22:18Z</time>
      </trkpt>
      <trkpt lat="42.84724" lon="0.50744">
        <ele>1507.229</ele>
        <time>2022-02-27T09:22:20Z</time>
      </trkpt>
      <trkpt lat="42.84724" lon="0.50743">
        <ele>1509.356</ele>
        <time>2022-02-27T09:22:22Z</time>
      </trkpt>
      <trkpt lat="42.84724" lon="0.50742">
        <ele>1508.728</ele>
        <time>2022-02-27T09:22:24Z</time>
      </trkpt>
      <trkpt lat="42.84723" lon="0.50741">
        <ele>1508.72</ele>
        <time>2022-02-27T09:22:26Z</time>
      </trkpt>
      <trkpt lat="42.84723" lon="0.5074">
        <ele>1509.091</ele>
        <time>2022-02-27T09:22:28Z</time>
      </trkpt>
      <trkpt lat="42.84723" lon="0.50738">
        <ele>1510.282</ele>
        <time>2022-02-27T09:22:30Z</time>
      </trkpt>
      <trkpt lat="42.84723" lon="0.50736">
        <ele>1508.834</ele>
        <time>2022-02-27T09:22:32Z</time>
      </trkpt>
      <trkpt lat="42.84723" lon="0.50735">
        <ele>1508.818</ele>
        <time>2022-02-27T09:22:34Z</time>
      </trkpt>
      <trkpt lat="42.84722" lon="0.50733">
        <ele>1508.656</ele>
        <time>2022-02-27T09:22:36Z</time>
      </trkpt>
      <trkpt lat="42.84721" lon="0.50732">
        <ele>1508.624</ele>
        <time>2022-02-27T09:22:38Z</time>
      </trkpt>
      <trkpt lat="42.84721" lon="0.50731">
        <ele>1508.27</ele>
        <time>2022-02-27T09:22:39Z</time>
      </trkpt>
      <trkpt lat="42.84719" lon="0.5073">
        <ele>1507.675</ele>
        <time>2022-02-27T09:22:42Z</time>
      </trkpt>
      <trkpt lat="42.84718" lon="0.50729">
        <ele>1508.818</ele>
        <time>2022-02-27T09:22:44Z</time>
      </trkpt>
      <trkpt lat="42.84721" lon="0.5073">
        <ele>1514.043</ele>
        <time>2022-02-27T09:22:47Z</time>
      </trkpt>
      <trkpt lat="42.84721" lon="0.5073">
        <ele>1514.064</ele>
        <time>2022-02-27T09:22:49Z</time>
      </trkpt>
      <trkpt lat="42.84721" lon="0.5073">
        <ele>1514.075</ele>
        <time>2022-02-27T09:22:51Z</time>
      </trkpt>
      <trkpt lat="42.84721" lon="0.5073">
        <ele>1514.092</ele>
        <time>2022-02-27T09:22:53Z</time>
      </trkpt>
      <trkpt lat="42.84721" lon="0.5073">
        <ele>1514.103</ele>
        <time>2022-02-27T09:22:55Z</time>
      </trkpt>
      <trkpt lat="42.84721" lon="0.5073">
        <ele>1514.112</ele>
        <time>2022-02-27T09:22:57Z</time>
      </trkpt>
      <trkpt lat="42.84721" lon="0.5073">
        <ele>1514.118</ele>
        <time>2022-02-27T09:22:59Z</time>
      </trkpt>
      <trkpt lat="42.84721" lon="0.5073">
        <ele>1514.471</ele>
        <time>2022-02-27T09:23:02Z</time>
      </trkpt>
      <trkpt lat="42.84721" lon="0.50729">
        <ele>1515.48</ele>
        <time>2022-02-27T09:23:04Z</time>
      </trkpt>
      <trkpt lat="42.84719" lon="0.50729">
        <ele>1515.736</ele>
        <time>2022-02-27T09:23:06Z</time>
      </trkpt>
      <trkpt lat="42.84719" lon="0.5073">
        <ele>1517.117</ele>
        <time>2022-02-27T09:23:08Z</time>
      </trkpt>
      <trkpt lat="42.84719" lon="0.5073">
        <ele>1517.916</ele>
        <time>2022-02-27T09:23:10Z</time>
      </trkpt>
      <trkpt lat="42.84718" lon="0.5073">
        <ele>1517.585</ele>
        <time>2022-02-27T09:23:12Z</time>
      </trkpt>
      <trkpt lat="42.84718" lon="0.50731">
        <ele>1518.202</ele>
        <time>2022-02-27T09:23:14Z</time>
      </trkpt>
      <trkpt lat="42.84718" lon="0.50731">
        <ele>1518.193</ele>
        <time>2022-02-27T09:23:16Z</time>
      </trkpt>
      <trkpt lat="42.84718" lon="0.50731">
        <ele>1518.217</ele>
        <time>2022-02-27T09:23:18Z</time>
      </trkpt>
      <trkpt lat="42.84718" lon="0.50731">
        <ele>1518.232</ele>
        <time>2022-02-27T09:23:20Z</time>
      </trkpt>
      <trkpt lat="42.84718" lon="0.50731">
        <ele>1518.369</ele>
        <time>2022-02-27T09:23:22Z</time>
      </trkpt>
      <trkpt lat="42.84719" lon="0.50731">
        <ele>1518.4</ele>
        <time>2022-02-27T09:23:24Z</time>
      </trkpt>
      <trkpt lat="42.84719" lon="0.50731">
        <ele>1518.415</ele>
        <time>2022-02-27T09:23:26Z</time>
      </trkpt>
      <trkpt lat="42.84719" lon="0.50731">
        <ele>1518.427</ele>
        <time>2022-02-27T09:23:28Z</time>
      </trkpt>
      <trkpt lat="42.84719" lon="0.50731">
        <ele>1518.427</ele>
        <time>2022-02-27T09:23:30Z</time>
      </trkpt>
      <trkpt lat="42.84718" lon="0.50731">
        <ele>1518.057</ele>
        <time>2022-02-27T09:23:32Z</time>
      </trkpt>
      <trkpt lat="42.84718" lon="0.50731">
        <ele>1518.052</ele>
        <time>2022-02-27T09:23:34Z</time>
      </trkpt>
      <trkpt lat="42.84718" lon="0.50731">
        <ele>1517.634</ele>
        <time>2022-02-27T09:23:36Z</time>
      </trkpt>
      <trkpt lat="42.84718" lon="0.5073">
        <ele>1517.142</ele>
        <time>2022-02-27T09:23:38Z</time>
      </trkpt>
      <trkpt lat="42.84718" lon="0.5073">
        <ele>1515.874</ele>
        <time>2022-02-27T09:23:40Z</time>
      </trkpt>
      <trkpt lat="42.84718" lon="0.5073">
        <ele>1515.873</ele>
        <time>2022-02-27T09:23:42Z</time>
      </trkpt>
      <trkpt lat="42.84718" lon="0.5073">
        <ele>1515.874</ele>
        <time>2022-02-27T09:23:44Z</time>
      </trkpt>
      <trkpt lat="42.84718" lon="0.5073">
        <ele>1515.875</ele>
        <time>2022-02-27T09:23:46Z</time>
      </trkpt>
      <trkpt lat="42.84718" lon="0.5073">
        <ele>1515.878</ele>
        <time>2022-02-27T09:23:48Z</time>
      </trkpt>
      <trkpt lat="42.84718" lon="0.5073">
        <ele>1515.884</ele>
        <time>2022-02-27T09:23:50Z</time>
      </trkpt>
      <trkpt lat="42.84718" lon="0.5073">
        <ele>1515.886</ele>
        <time>2022-02-27T09:23:52Z</time>
      </trkpt>
      <trkpt lat="42.84718" lon="0.5073">
        <ele>1515.917</ele>
        <time>2022-02-27T09:23:54Z</time>
      </trkpt>
      <trkpt lat="42.84718" lon="0.5073">
        <ele>1515.92</ele>
        <time>2022-02-27T09:23:56Z</time>
      </trkpt>
      <trkpt lat="42.84718" lon="0.5073">
        <ele>1515.92</ele>
        <time>2022-02-27T09:23:58Z</time>
      </trkpt>
      <trkpt lat="42.84718" lon="0.5073">
        <ele>1515.926</ele>
        <time>2022-02-27T09:24:00Z</time>
      </trkpt>
      <trkpt lat="42.84718" lon="0.5073">
        <ele>1515.946</ele>
        <time>2022-02-27T09:24:02Z</time>
      </trkpt>
      <trkpt lat="42.84718" lon="0.5073">
        <ele>1516.354</ele>
        <time>2022-02-27T09:24:04Z</time>
      </trkpt>
      <trkpt lat="42.84719" lon="0.50729">
        <ele>1515.963</ele>
        <time>2022-02-27T09:24:06Z</time>
      </trkpt>
      <trkpt lat="42.84718" lon="0.50727">
        <ele>1516.03</ele>
        <time>2022-02-27T09:24:08Z</time>
      </trkpt>
      <trkpt lat="42.84717" lon="0.50725">
        <ele>1515.753</ele>
        <time>2022-02-27T09:24:10Z</time>
      </trkpt>
      <trkpt lat="42.84716" lon="0.50723">
        <ele>1515.775</ele>
        <time>2022-02-27T09:24:12Z</time>
      </trkpt>
      <trkpt lat="42.84716" lon="0.50721">
        <ele>1514.734</ele>
        <time>2022-02-27T09:24:14Z</time>
      </trkpt>
      <trkpt lat="42.84715" lon="0.50719">
        <ele>1515.335</ele>
        <time>2022-02-27T09:24:16Z</time>
      </trkpt>
      <trkpt lat="42.84715" lon="0.50718">
        <ele>1514.984</ele>
        <time>2022-02-27T09:24:18Z</time>
      </trkpt>
      <trkpt lat="42.84714" lon="0.50717">
        <ele>1514.416</ele>
        <time>2022-02-27T09:24:20Z</time>
      </trkpt>
      <trkpt lat="42.84713" lon="0.50716">
        <ele>1516.203</ele>
        <time>2022-02-27T09:24:22Z</time>
      </trkpt>
      <trkpt lat="42.84713" lon="0.50714">
        <ele>1516.782</ele>
        <time>2022-02-27T09:24:24Z</time>
      </trkpt>
      <trkpt lat="42.84713" lon="0.50713">
        <ele>1516.43</ele>
        <time>2022-02-27T09:24:26Z</time>
      </trkpt>
      <trkpt lat="42.84713" lon="0.50712">
        <ele>1517.851</ele>
        <time>2022-02-27T09:24:28Z</time>
      </trkpt>
      <trkpt lat="42.84712" lon="0.50711">
        <ele>1517.648</ele>
        <time>2022-02-27T09:24:30Z</time>
      </trkpt>
      <trkpt lat="42.84711" lon="0.50709">
        <ele>1516.682</ele>
        <time>2022-02-27T09:24:32Z</time>
      </trkpt>
      <trkpt lat="42.84711" lon="0.50708">
        <ele>1517.997</ele>
        <time>2022-02-27T09:24:34Z</time>
      </trkpt>
      <trkpt lat="42.8471" lon="0.50707">
        <ele>1517.627</ele>
        <time>2022-02-27T09:24:36Z</time>
      </trkpt>
      <trkpt lat="42.8471" lon="0.50705">
        <ele>1517.281</ele>
        <time>2022-02-27T09:24:38Z</time>
      </trkpt>
      <trkpt lat="42.8471" lon="0.50704">
        <ele>1517.848</ele>
        <time>2022-02-27T09:24:40Z</time>
      </trkpt>
      <trkpt lat="42.84711" lon="0.50703">
        <ele>1517.135</ele>
        <time>2022-02-27T09:24:42Z</time>
      </trkpt>
      <trkpt lat="42.84711" lon="0.50702">
        <ele>1517.283</ele>
        <time>2022-02-27T09:24:44Z</time>
      </trkpt>
      <trkpt lat="42.84711" lon="0.50701">
        <ele>1516.873</ele>
        <time>2022-02-27T09:24:46Z</time>
      </trkpt>
      <trkpt lat="42.8471" lon="0.507">
        <ele>1517.418</ele>
        <time>2022-02-27T09:24:48Z</time>
      </trkpt>
      <trkpt lat="42.8471" lon="0.50699">
        <ele>1518.041</ele>
        <time>2022-02-27T09:24:50Z</time>
      </trkpt>
      <trkpt lat="42.8471" lon="0.50697">
        <ele>1517.939</ele>
        <time>2022-02-27T09:24:52Z</time>
      </trkpt>
      <trkpt lat="42.84709" lon="0.50696">
        <ele>1518.563</ele>
        <time>2022-02-27T09:24:54Z</time>
      </trkpt>
      <trkpt lat="42.84708" lon="0.50695">
        <ele>1517.608</ele>
        <time>2022-02-27T09:24:56Z</time>
      </trkpt>
      <trkpt lat="42.84707" lon="0.50695">
        <ele>1517.473</ele>
        <time>2022-02-27T09:24:58Z</time>
      </trkpt>
      <trkpt lat="42.84707" lon="0.50693">
        <ele>1518.779</ele>
        <time>2022-02-27T09:25:00Z</time>
      </trkpt>
      <trkpt lat="42.84706" lon="0.50692">
        <ele>1518.607</ele>
        <time>2022-02-27T09:25:02Z</time>
      </trkpt>
      <trkpt lat="42.84706" lon="0.5069">
        <ele>1518.089</ele>
        <time>2022-02-27T09:25:04Z</time>
      </trkpt>
      <trkpt lat="42.84706" lon="0.5069">
        <ele>1517.645</ele>
        <time>2022-02-27T09:25:06Z</time>
      </trkpt>
      <trkpt lat="42.84705" lon="0.50689">
        <ele>1519.597</ele>
        <time>2022-02-27T09:25:08Z</time>
      </trkpt>
      <trkpt lat="42.84705" lon="0.50687">
        <ele>1518.647</ele>
        <time>2022-02-27T09:25:10Z</time>
      </trkpt>
      <trkpt lat="42.84705" lon="0.50685">
        <ele>1520.176</ele>
        <time>2022-02-27T09:25:12Z</time>
      </trkpt>
      <trkpt lat="42.84705" lon="0.50683">
        <ele>1522.301</ele>
        <time>2022-02-27T09:25:14Z</time>
      </trkpt>
      <trkpt lat="42.84704" lon="0.50682">
        <ele>1521.994</ele>
        <time>2022-02-27T09:25:16Z</time>
      </trkpt>
      <trkpt lat="42.84704" lon="0.50682">
        <ele>1520.058</ele>
        <time>2022-02-27T09:25:18Z</time>
      </trkpt>
      <trkpt lat="42.84702" lon="0.50681">
        <ele>1521.925</ele>
        <time>2022-02-27T09:25:20Z</time>
      </trkpt>
      <trkpt lat="42.84701" lon="0.5068">
        <ele>1522.325</ele>
        <time>2022-02-27T09:25:22Z</time>
      </trkpt>
      <trkpt lat="42.84701" lon="0.50678">
        <ele>1520.835</ele>
        <time>2022-02-27T09:25:24Z</time>
      </trkpt>
      <trkpt lat="42.84702" lon="0.50677">
        <ele>1520.113</ele>
        <time>2022-02-27T09:25:26Z</time>
      </trkpt>
      <trkpt lat="42.84702" lon="0.50676">
        <ele>1520.637</ele>
        <time>2022-02-27T09:25:28Z</time>
      </trkpt>
      <trkpt lat="42.84702" lon="0.50675">
        <ele>1523.155</ele>
        <time>2022-02-27T09:25:30Z</time>
      </trkpt>
      <trkpt lat="42.84703" lon="0.50673">
        <ele>1525.437</ele>
        <time>2022-02-27T09:25:32Z</time>
      </trkpt>
      <trkpt lat="42.84704" lon="0.50673">
        <ele>1526.221</ele>
        <time>2022-02-27T09:25:34Z</time>
      </trkpt>
      <trkpt lat="42.84703" lon="0.50674">
        <ele>1524.685</ele>
        <time>2022-02-27T09:25:36Z</time>
      </trkpt>
      <trkpt lat="42.84705" lon="0.50674">
        <ele>1525.753</ele>
        <time>2022-02-27T09:25:38Z</time>
      </trkpt>
      <trkpt lat="42.84706" lon="0.50674">
        <ele>1527.189</ele>
        <time>2022-02-27T09:25:40Z</time>
      </trkpt>
      <trkpt lat="42.84705" lon="0.50673">
        <ele>1526.408</ele>
        <time>2022-02-27T09:25:42Z</time>
      </trkpt>
      <trkpt lat="42.84703" lon="0.50672">
        <ele>1525.297</ele>
        <time>2022-02-27T09:25:44Z</time>
      </trkpt>
      <trkpt lat="42.847" lon="0.50672">
        <ele>1523.684</ele>
        <time>2022-02-27T09:25:46Z</time>
      </trkpt>
      <trkpt lat="42.84701" lon="0.50672">
        <ele>1524.1</ele>
        <time>2022-02-27T09:25:48Z</time>
      </trkpt>
      <trkpt lat="42.84701" lon="0.50671">
        <ele>1524.107</ele>
        <time>2022-02-27T09:25:50Z</time>
      </trkpt>
      <trkpt lat="42.847" lon="0.50671">
        <ele>1522.243</ele>
        <time>2022-02-27T09:25:52Z</time>
      </trkpt>
      <trkpt lat="42.84699" lon="0.50671">
        <ele>1522.587</ele>
        <time>2022-02-27T09:25:54Z</time>
      </trkpt>
      <trkpt lat="42.84699" lon="0.5067">
        <ele>1522.178</ele>
        <time>2022-02-27T09:25:56Z</time>
      </trkpt>
      <trkpt lat="42.84699" lon="0.5067">
        <ele>1522.21</ele>
        <time>2022-02-27T09:25:58Z</time>
      </trkpt>
      <trkpt lat="42.84699" lon="0.50669">
        <ele>1522.277</ele>
        <time>2022-02-27T09:26:00Z</time>
      </trkpt>
      <trkpt lat="42.84701" lon="0.50668">
        <ele>1522.926</ele>
        <time>2022-02-27T09:26:02Z</time>
      </trkpt>
      <trkpt lat="42.84701" lon="0.50667">
        <ele>1523.681</ele>
        <time>2022-02-27T09:26:04Z</time>
      </trkpt>
      <trkpt lat="42.847" lon="0.50665">
        <ele>1524.742</ele>
        <time>2022-02-27T09:26:06Z</time>
      </trkpt>
      <trkpt lat="42.84701" lon="0.50665">
        <ele>1525.655</ele>
        <time>2022-02-27T09:26:08Z</time>
      </trkpt>
      <trkpt lat="42.84701" lon="0.50663">
        <ele>1525.648</ele>
        <time>2022-02-27T09:26:10Z</time>
      </trkpt>
      <trkpt lat="42.84699" lon="0.50661">
        <ele>1525.432</ele>
        <time>2022-02-27T09:26:12Z</time>
      </trkpt>
      <trkpt lat="42.84698" lon="0.50661">
        <ele>1525.365</ele>
        <time>2022-02-27T09:26:14Z</time>
      </trkpt>
      <trkpt lat="42.84697" lon="0.5066">
        <ele>1524.418</ele>
        <time>2022-02-27T09:26:16Z</time>
      </trkpt>
      <trkpt lat="42.84697" lon="0.5066">
        <ele>1527.384</ele>
        <time>2022-02-27T09:26:18Z</time>
      </trkpt>
      <trkpt lat="42.84696" lon="0.5066">
        <ele>1529.16</ele>
        <time>2022-02-27T09:26:20Z</time>
      </trkpt>
      <trkpt lat="42.84697" lon="0.50658">
        <ele>1530.248</ele>
        <time>2022-02-27T09:26:22Z</time>
      </trkpt>
      <trkpt lat="42.84696" lon="0.50657">
        <ele>1530.36</ele>
        <time>2022-02-27T09:26:24Z</time>
      </trkpt>
      <trkpt lat="42.84696" lon="0.50656">
        <ele>1530.114</ele>
        <time>2022-02-27T09:26:26Z</time>
      </trkpt>
      <trkpt lat="42.84695" lon="0.50655">
        <ele>1529.223</ele>
        <time>2022-02-27T09:26:28Z</time>
      </trkpt>
      <trkpt lat="42.84694" lon="0.50655">
        <ele>1529.037</ele>
        <time>2022-02-27T09:26:30Z</time>
      </trkpt>
      <trkpt lat="42.84694" lon="0.50654">
        <ele>1528.946</ele>
        <time>2022-02-27T09:26:32Z</time>
      </trkpt>
      <trkpt lat="42.84693" lon="0.50653">
        <ele>1529.075</ele>
        <time>2022-02-27T09:26:34Z</time>
      </trkpt>
      <trkpt lat="42.84693" lon="0.50653">
        <ele>1528.458</ele>
        <time>2022-02-27T09:26:36Z</time>
      </trkpt>
      <trkpt lat="42.84693" lon="0.50651">
        <ele>1528.515</ele>
        <time>2022-02-27T09:26:38Z</time>
      </trkpt>
      <trkpt lat="42.84694" lon="0.50649">
        <ele>1529.991</ele>
        <time>2022-02-27T09:26:41Z</time>
      </trkpt>
      <trkpt lat="42.84694" lon="0.50647">
        <ele>1531.919</ele>
        <time>2022-02-27T09:26:43Z</time>
      </trkpt>
      <trkpt lat="42.84695" lon="0.50646">
        <ele>1531.703</ele>
        <time>2022-02-27T09:26:45Z</time>
      </trkpt>
      <trkpt lat="42.84695" lon="0.50645">
        <ele>1531.528</ele>
        <time>2022-02-27T09:26:47Z</time>
      </trkpt>
      <trkpt lat="42.84695" lon="0.50644">
        <ele>1531.602</ele>
        <time>2022-02-27T09:26:49Z</time>
      </trkpt>
      <trkpt lat="42.84695" lon="0.50643">
        <ele>1531.7</ele>
        <time>2022-02-27T09:26:51Z</time>
      </trkpt>
      <trkpt lat="42.84695" lon="0.50641">
        <ele>1531.798</ele>
        <time>2022-02-27T09:26:53Z</time>
      </trkpt>
      <trkpt lat="42.84696" lon="0.5064">
        <ele>1531.801</ele>
        <time>2022-02-27T09:26:55Z</time>
      </trkpt>
      <trkpt lat="42.84697" lon="0.50639">
        <ele>1531.642</ele>
        <time>2022-02-27T09:26:57Z</time>
      </trkpt>
      <trkpt lat="42.84697" lon="0.50638">
        <ele>1531.793</ele>
        <time>2022-02-27T09:26:58Z</time>
      </trkpt>
      <trkpt lat="42.84697" lon="0.50635">
        <ele>1532.068</ele>
        <time>2022-02-27T09:27:01Z</time>
      </trkpt>
      <trkpt lat="42.84697" lon="0.50634">
        <ele>1532.483</ele>
        <time>2022-02-27T09:27:03Z</time>
      </trkpt>
      <trkpt lat="42.84697" lon="0.50632">
        <ele>1533.026</ele>
        <time>2022-02-27T09:27:05Z</time>
      </trkpt>
      <trkpt lat="42.84697" lon="0.50631">
        <ele>1532.898</ele>
        <time>2022-02-27T09:27:07Z</time>
      </trkpt>
      <trkpt lat="42.84697" lon="0.5063">
        <ele>1533.391</ele>
        <time>2022-02-27T09:27:09Z</time>
      </trkpt>
      <trkpt lat="42.84698" lon="0.50628">
        <ele>1532.655</ele>
        <time>2022-02-27T09:27:11Z</time>
      </trkpt>
      <trkpt lat="42.84698" lon="0.50627">
        <ele>1532.662</ele>
        <time>2022-02-27T09:27:13Z</time>
      </trkpt>
      <trkpt lat="42.84698" lon="0.50625">
        <ele>1532.088</ele>
        <time>2022-02-27T09:27:15Z</time>
      </trkpt>
      <trkpt lat="42.84698" lon="0.50623">
        <ele>1532.681</ele>
        <time>2022-02-27T09:27:17Z</time>
      </trkpt>
      <trkpt lat="42.84698" lon="0.50622">
        <ele>1532.874</ele>
        <time>2022-02-27T09:27:19Z</time>
      </trkpt>
      <trkpt lat="42.84698" lon="0.50621">
        <ele>1531.425</ele>
        <time>2022-02-27T09:27:21Z</time>
      </trkpt>
      <trkpt lat="42.84698" lon="0.50619">
        <ele>1531.495</ele>
        <time>2022-02-27T09:27:23Z</time>
      </trkpt>
      <trkpt lat="42.84698" lon="0.50618">
        <ele>1532.078</ele>
        <time>2022-02-27T09:27:25Z</time>
      </trkpt>
      <trkpt lat="42.84698" lon="0.50616">
        <ele>1532.251</ele>
        <time>2022-02-27T09:27:27Z</time>
      </trkpt>
      <trkpt lat="42.84699" lon="0.50615">
        <ele>1532.539</ele>
        <time>2022-02-27T09:27:29Z</time>
      </trkpt>
      <trkpt lat="42.84699" lon="0.50613">
        <ele>1533.345</ele>
        <time>2022-02-27T09:27:31Z</time>
      </trkpt>
      <trkpt lat="42.847" lon="0.50612">
        <ele>1534.007</ele>
        <time>2022-02-27T09:27:33Z</time>
      </trkpt>
      <trkpt lat="42.847" lon="0.5061">
        <ele>1534.517</ele>
        <time>2022-02-27T09:27:35Z</time>
      </trkpt>
      <trkpt lat="42.84701" lon="0.50608">
        <ele>1534.624</ele>
        <time>2022-02-27T09:27:37Z</time>
      </trkpt>
      <trkpt lat="42.84701" lon="0.50607">
        <ele>1534.737</ele>
        <time>2022-02-27T09:27:39Z</time>
      </trkpt>
      <trkpt lat="42.84701" lon="0.50605">
        <ele>1534.986</ele>
        <time>2022-02-27T09:27:41Z</time>
      </trkpt>
      <trkpt lat="42.84701" lon="0.50603">
        <ele>1534.72</ele>
        <time>2022-02-27T09:27:43Z</time>
      </trkpt>
      <trkpt lat="42.84702" lon="0.50601">
        <ele>1536.238</ele>
        <time>2022-02-27T09:27:45Z</time>
      </trkpt>
      <trkpt lat="42.84702" lon="0.506">
        <ele>1536.166</ele>
        <time>2022-02-27T09:27:47Z</time>
      </trkpt>
      <trkpt lat="42.84703" lon="0.50598">
        <ele>1536.449</ele>
        <time>2022-02-27T09:27:49Z</time>
      </trkpt>
      <trkpt lat="42.84702" lon="0.50596">
        <ele>1536.671</ele>
        <time>2022-02-27T09:27:51Z</time>
      </trkpt>
      <trkpt lat="42.84702" lon="0.50593">
        <ele>1536.587</ele>
        <time>2022-02-27T09:27:53Z</time>
      </trkpt>
      <trkpt lat="42.84702" lon="0.50591">
        <ele>1536.212</ele>
        <time>2022-02-27T09:27:55Z</time>
      </trkpt>
      <trkpt lat="42.84702" lon="0.5059">
        <ele>1535.698</ele>
        <time>2022-02-27T09:27:57Z</time>
      </trkpt>
      <trkpt lat="42.84701" lon="0.50588">
        <ele>1535.856</ele>
        <time>2022-02-27T09:27:59Z</time>
      </trkpt>
      <trkpt lat="42.847" lon="0.50587">
        <ele>1535.256</ele>
        <time>2022-02-27T09:28:01Z</time>
      </trkpt>
      <trkpt lat="42.84699" lon="0.50585">
        <ele>1535.478</ele>
        <time>2022-02-27T09:28:03Z</time>
      </trkpt>
      <trkpt lat="42.84699" lon="0.50582">
        <ele>1537.489</ele>
        <time>2022-02-27T09:28:05Z</time>
      </trkpt>
      <trkpt lat="42.84698" lon="0.5058">
        <ele>1537.837</ele>
        <time>2022-02-27T09:28:07Z</time>
      </trkpt>
      <trkpt lat="42.84698" lon="0.50578">
        <ele>1538.231</ele>
        <time>2022-02-27T09:28:09Z</time>
      </trkpt>
      <trkpt lat="42.84697" lon="0.50576">
        <ele>1537.941</ele>
        <time>2022-02-27T09:28:11Z</time>
      </trkpt>
      <trkpt lat="42.84697" lon="0.50574">
        <ele>1537.785</ele>
        <time>2022-02-27T09:28:13Z</time>
      </trkpt>
      <trkpt lat="42.84696" lon="0.50572">
        <ele>1538.995</ele>
        <time>2022-02-27T09:28:15Z</time>
      </trkpt>
      <trkpt lat="42.84696" lon="0.5057">
        <ele>1539.666</ele>
        <time>2022-02-27T09:28:17Z</time>
      </trkpt>
      <trkpt lat="42.84696" lon="0.50568">
        <ele>1540.384</ele>
        <time>2022-02-27T09:28:19Z</time>
      </trkpt>
      <trkpt lat="42.84696" lon="0.50566">
        <ele>1542.701</ele>
        <time>2022-02-27T09:28:21Z</time>
      </trkpt>
      <trkpt lat="42.84695" lon="0.50564">
        <ele>1543.048</ele>
        <time>2022-02-27T09:28:23Z</time>
      </trkpt>
      <trkpt lat="42.84694" lon="0.50562">
        <ele>1542.151</ele>
        <time>2022-02-27T09:28:25Z</time>
      </trkpt>
      <trkpt lat="42.84694" lon="0.5056">
        <ele>1543.127</ele>
        <time>2022-02-27T09:28:27Z</time>
      </trkpt>
      <trkpt lat="42.84693" lon="0.50558">
        <ele>1543.923</ele>
        <time>2022-02-27T09:28:29Z</time>
      </trkpt>
      <trkpt lat="42.84692" lon="0.50556">
        <ele>1543.777</ele>
        <time>2022-02-27T09:28:31Z</time>
      </trkpt>
      <trkpt lat="42.84691" lon="0.50554">
        <ele>1543.226</ele>
        <time>2022-02-27T09:28:33Z</time>
      </trkpt>
      <trkpt lat="42.8469" lon="0.50553">
        <ele>1542.152</ele>
        <time>2022-02-27T09:28:35Z</time>
      </trkpt>
      <trkpt lat="42.84689" lon="0.50552">
        <ele>1542.429</ele>
        <time>2022-02-27T09:28:37Z</time>
      </trkpt>
      <trkpt lat="42.84688" lon="0.5055">
        <ele>1542.217</ele>
        <time>2022-02-27T09:28:39Z</time>
      </trkpt>
      <trkpt lat="42.84688" lon="0.50549">
        <ele>1543.271</ele>
        <time>2022-02-27T09:28:41Z</time>
      </trkpt>
      <trkpt lat="42.84688" lon="0.50549">
        <ele>1543.202</ele>
        <time>2022-02-27T09:28:43Z</time>
      </trkpt>
      <trkpt lat="42.84687" lon="0.50547">
        <ele>1542.945</ele>
        <time>2022-02-27T09:28:45Z</time>
      </trkpt>
      <trkpt lat="42.84686" lon="0.50545">
        <ele>1544.251</ele>
        <time>2022-02-27T09:28:47Z</time>
      </trkpt>
      <trkpt lat="42.84686" lon="0.50544">
        <ele>1545.257</ele>
        <time>2022-02-27T09:28:49Z</time>
      </trkpt>
      <trkpt lat="42.84685" lon="0.50543">
        <ele>1546.022</ele>
        <time>2022-02-27T09:28:51Z</time>
      </trkpt>
      <trkpt lat="42.84684" lon="0.50542">
        <ele>1545.228</ele>
        <time>2022-02-27T09:28:53Z</time>
      </trkpt>
      <trkpt lat="42.84682" lon="0.50541">
        <ele>1545.163</ele>
        <time>2022-02-27T09:28:55Z</time>
      </trkpt>
      <trkpt lat="42.84682" lon="0.5054">
        <ele>1545.656</ele>
        <time>2022-02-27T09:28:57Z</time>
      </trkpt>
      <trkpt lat="42.84681" lon="0.50538">
        <ele>1546.149</ele>
        <time>2022-02-27T09:28:59Z</time>
      </trkpt>
      <trkpt lat="42.8468" lon="0.50537">
        <ele>1546.67</ele>
        <time>2022-02-27T09:29:01Z</time>
      </trkpt>
      <trkpt lat="42.84679" lon="0.50536">
        <ele>1546.693</ele>
        <time>2022-02-27T09:29:03Z</time>
      </trkpt>
      <trkpt lat="42.84678" lon="0.50535">
        <ele>1546.457</ele>
        <time>2022-02-27T09:29:05Z</time>
      </trkpt>
      <trkpt lat="42.84678" lon="0.50534">
        <ele>1547.259</ele>
        <time>2022-02-27T09:29:07Z</time>
      </trkpt>
      <trkpt lat="42.84678" lon="0.50533">
        <ele>1547.997</ele>
        <time>2022-02-27T09:29:09Z</time>
      </trkpt>
      <trkpt lat="42.84677" lon="0.50533">
        <ele>1548.427</ele>
        <time>2022-02-27T09:29:11Z</time>
      </trkpt>
      <trkpt lat="42.84676" lon="0.50532">
        <ele>1549.717</ele>
        <time>2022-02-27T09:29:13Z</time>
      </trkpt>
      <trkpt lat="42.84675" lon="0.50532">
        <ele>1549.341</ele>
        <time>2022-02-27T09:29:15Z</time>
      </trkpt>
      <trkpt lat="42.84674" lon="0.50533">
        <ele>1549.512</ele>
        <time>2022-02-27T09:29:17Z</time>
      </trkpt>
      <trkpt lat="42.84674" lon="0.50532">
        <ele>1551.701</ele>
        <time>2022-02-27T09:29:19Z</time>
      </trkpt>
      <trkpt lat="42.84673" lon="0.50531">
        <ele>1552.432</ele>
        <time>2022-02-27T09:29:21Z</time>
      </trkpt>
      <trkpt lat="42.84672" lon="0.50531">
        <ele>1552.745</ele>
        <time>2022-02-27T09:29:23Z</time>
      </trkpt>
      <trkpt lat="42.84672" lon="0.5053">
        <ele>1552.93</ele>
        <time>2022-02-27T09:29:25Z</time>
      </trkpt>
      <trkpt lat="42.84671" lon="0.50529">
        <ele>1552.571</ele>
        <time>2022-02-27T09:29:27Z</time>
      </trkpt>
      <trkpt lat="42.84671" lon="0.50529">
        <ele>1552.707</ele>
        <time>2022-02-27T09:29:29Z</time>
      </trkpt>
      <trkpt lat="42.84671" lon="0.50529">
        <ele>1552.716</ele>
        <time>2022-02-27T09:29:31Z</time>
      </trkpt>
      <trkpt lat="42.84671" lon="0.50529">
        <ele>1552.717</ele>
        <time>2022-02-27T09:29:33Z</time>
      </trkpt>
      <trkpt lat="42.84671" lon="0.50529">
        <ele>1552.72</ele>
        <time>2022-02-27T09:29:35Z</time>
      </trkpt>
      <trkpt lat="42.84671" lon="0.50529">
        <ele>1552.723</ele>
        <time>2022-02-27T09:29:37Z</time>
      </trkpt>
      <trkpt lat="42.84671" lon="0.50529">
        <ele>1552.744</ele>
        <time>2022-02-27T09:29:39Z</time>
      </trkpt>
      <trkpt lat="42.84671" lon="0.50529">
        <ele>1552.753</ele>
        <time>2022-02-27T09:29:41Z</time>
      </trkpt>
      <trkpt lat="42.84671" lon="0.50529">
        <ele>1553.026</ele>
        <time>2022-02-27T09:29:43Z</time>
      </trkpt>
      <trkpt lat="42.84671" lon="0.50529">
        <ele>1552.962</ele>
        <time>2022-02-27T09:29:45Z</time>
      </trkpt>
      <trkpt lat="42.84669" lon="0.50528">
        <ele>1552.513</ele>
        <time>2022-02-27T09:29:47Z</time>
      </trkpt>
      <trkpt lat="42.84669" lon="0.50526">
        <ele>1553.833</ele>
        <time>2022-02-27T09:29:49Z</time>
      </trkpt>
      <trkpt lat="42.84668" lon="0.50525">
        <ele>1553.32</ele>
        <time>2022-02-27T09:29:51Z</time>
      </trkpt>
      <trkpt lat="42.84667" lon="0.50524">
        <ele>1553.426</ele>
        <time>2022-02-27T09:29:53Z</time>
      </trkpt>
      <trkpt lat="42.84666" lon="0.50523">
        <ele>1552.804</ele>
        <time>2022-02-27T09:29:55Z</time>
      </trkpt>
      <trkpt lat="42.84665" lon="0.50521">
        <ele>1554.211</ele>
        <time>2022-02-27T09:29:57Z</time>
      </trkpt>
      <trkpt lat="42.84664" lon="0.50519">
        <ele>1555.743</ele>
        <time>2022-02-27T09:29:59Z</time>
      </trkpt>
      <trkpt lat="42.84663" lon="0.50518">
        <ele>1555.291</ele>
        <time>2022-02-27T09:30:01Z</time>
      </trkpt>
      <trkpt lat="42.84662" lon="0.50517">
        <ele>1556.061</ele>
        <time>2022-02-27T09:30:03Z</time>
      </trkpt>
      <trkpt lat="42.84661" lon="0.50515">
        <ele>1556.112</ele>
        <time>2022-02-27T09:30:05Z</time>
      </trkpt>
      <trkpt lat="42.8466" lon="0.50515">
        <ele>1557.409</ele>
        <time>2022-02-27T09:30:07Z</time>
      </trkpt>
      <trkpt lat="42.8466" lon="0.50514">
        <ele>1557.921</ele>
        <time>2022-02-27T09:30:09Z</time>
      </trkpt>
      <trkpt lat="42.84658" lon="0.50513">
        <ele>1559.399</ele>
        <time>2022-02-27T09:30:11Z</time>
      </trkpt>
      <trkpt lat="42.84657" lon="0.50511">
        <ele>1559.314</ele>
        <time>2022-02-27T09:30:13Z</time>
      </trkpt>
      <trkpt lat="42.84656" lon="0.5051">
        <ele>1559.681</ele>
        <time>2022-02-27T09:30:15Z</time>
      </trkpt>
      <trkpt lat="42.84655" lon="0.5051">
        <ele>1559.764</ele>
        <time>2022-02-27T09:30:17Z</time>
      </trkpt>
      <trkpt lat="42.84655" lon="0.50509">
        <ele>1560.149</ele>
        <time>2022-02-27T09:30:19Z</time>
      </trkpt>
      <trkpt lat="42.84654" lon="0.50508">
        <ele>1559.779</ele>
        <time>2022-02-27T09:30:21Z</time>
      </trkpt>
      <trkpt lat="42.84654" lon="0.50506">
        <ele>1560.992</ele>
        <time>2022-02-27T09:30:23Z</time>
      </trkpt>
      <trkpt lat="42.84653" lon="0.50505">
        <ele>1561.072</ele>
        <time>2022-02-27T09:30:25Z</time>
      </trkpt>
      <trkpt lat="42.84654" lon="0.50503">
        <ele>1562.468</ele>
        <time>2022-02-27T09:30:27Z</time>
      </trkpt>
      <trkpt lat="42.84653" lon="0.505">
        <ele>1563.046</ele>
        <time>2022-02-27T09:30:29Z</time>
      </trkpt>
      <trkpt lat="42.84653" lon="0.50498">
        <ele>1562.579</ele>
        <time>2022-02-27T09:30:31Z</time>
      </trkpt>
      <trkpt lat="42.84653" lon="0.50496">
        <ele>1563.471</ele>
        <time>2022-02-27T09:30:33Z</time>
      </trkpt>
      <trkpt lat="42.84652" lon="0.50494">
        <ele>1563.145</ele>
        <time>2022-02-27T09:30:35Z</time>
      </trkpt>
      <trkpt lat="42.84652" lon="0.50492">
        <ele>1564.295</ele>
        <time>2022-02-27T09:30:37Z</time>
      </trkpt>
      <trkpt lat="42.84651" lon="0.50491">
        <ele>1566.152</ele>
        <time>2022-02-27T09:30:39Z</time>
      </trkpt>
      <trkpt lat="42.8465" lon="0.5049">
        <ele>1565.59</ele>
        <time>2022-02-27T09:30:41Z</time>
      </trkpt>
      <trkpt lat="42.8465" lon="0.50489">
        <ele>1565.434</ele>
        <time>2022-02-27T09:30:43Z</time>
      </trkpt>
      <trkpt lat="42.8465" lon="0.50489">
        <ele>1565.413</ele>
        <time>2022-02-27T09:30:45Z</time>
      </trkpt>
      <trkpt lat="42.8465" lon="0.50489">
        <ele>1565.404</ele>
        <time>2022-02-27T09:30:47Z</time>
      </trkpt>
      <trkpt lat="42.84649" lon="0.50488">
        <ele>1565.459</ele>
        <time>2022-02-27T09:30:49Z</time>
      </trkpt>
      <trkpt lat="42.84649" lon="0.50488">
        <ele>1564.077</ele>
        <time>2022-02-27T09:30:51Z</time>
      </trkpt>
      <trkpt lat="42.84648" lon="0.50487">
        <ele>1564.041</ele>
        <time>2022-02-27T09:30:53Z</time>
      </trkpt>
      <trkpt lat="42.84648" lon="0.50486">
        <ele>1563.644</ele>
        <time>2022-02-27T09:30:55Z</time>
      </trkpt>
      <trkpt lat="42.84647" lon="0.50485">
        <ele>1563.431</ele>
        <time>2022-02-27T09:30:57Z</time>
      </trkpt>
      <trkpt lat="42.84646" lon="0.50484">
        <ele>1564.094</ele>
        <time>2022-02-27T09:30:59Z</time>
      </trkpt>
      <trkpt lat="42.84646" lon="0.50483">
        <ele>1563.441</ele>
        <time>2022-02-27T09:31:01Z</time>
      </trkpt>
      <trkpt lat="42.84646" lon="0.50483">
        <ele>1563.439</ele>
        <time>2022-02-27T09:31:03Z</time>
      </trkpt>
      <trkpt lat="42.84646" lon="0.50483">
        <ele>1563.449</ele>
        <time>2022-02-27T09:31:05Z</time>
      </trkpt>
      <trkpt lat="42.84646" lon="0.50483">
        <ele>1563.462</ele>
        <time>2022-02-27T09:31:07Z</time>
      </trkpt>
      <trkpt lat="42.84646" lon="0.50483">
        <ele>1563.467</ele>
        <time>2022-02-27T09:31:09Z</time>
      </trkpt>
      <trkpt lat="42.84646" lon="0.50483">
        <ele>1563.471</ele>
        <time>2022-02-27T09:31:11Z</time>
      </trkpt>
      <trkpt lat="42.84646" lon="0.50483">
        <ele>1563.478</ele>
        <time>2022-02-27T09:31:13Z</time>
      </trkpt>
      <trkpt lat="42.84646" lon="0.50483">
        <ele>1563.488</ele>
        <time>2022-02-27T09:31:15Z</time>
      </trkpt>
      <trkpt lat="42.84646" lon="0.50482">
        <ele>1563.514</ele>
        <time>2022-02-27T09:31:17Z</time>
      </trkpt>
      <trkpt lat="42.84646" lon="0.50481">
        <ele>1563.323</ele>
        <time>2022-02-27T09:31:19Z</time>
      </trkpt>
      <trkpt lat="42.84645" lon="0.50482">
        <ele>1563.665</ele>
        <time>2022-02-27T09:31:21Z</time>
      </trkpt>
      <trkpt lat="42.84645" lon="0.50482">
        <ele>1563.657</ele>
        <time>2022-02-27T09:31:23Z</time>
      </trkpt>
      <trkpt lat="42.84645" lon="0.50482">
        <ele>1563.652</ele>
        <time>2022-02-27T09:31:25Z</time>
      </trkpt>
      <trkpt lat="42.84645" lon="0.50482">
        <ele>1563.652</ele>
        <time>2022-02-27T09:31:27Z</time>
      </trkpt>
      <trkpt lat="42.84645" lon="0.50482">
        <ele>1563.65</ele>
        <time>2022-02-27T09:31:29Z</time>
      </trkpt>
      <trkpt lat="42.84645" lon="0.50482">
        <ele>1563.646</ele>
        <time>2022-02-27T09:31:31Z</time>
      </trkpt>
      <trkpt lat="42.84645" lon="0.50482">
        <ele>1563.64</ele>
        <time>2022-02-27T09:31:33Z</time>
      </trkpt>
      <trkpt lat="42.84645" lon="0.50482">
        <ele>1563.63</ele>
        <time>2022-02-27T09:31:35Z</time>
      </trkpt>
      <trkpt lat="42.84645" lon="0.50482">
        <ele>1563.618</ele>
        <time>2022-02-27T09:31:37Z</time>
      </trkpt>
      <trkpt lat="42.84645" lon="0.50482">
        <ele>1563.605</ele>
        <time>2022-02-27T09:31:39Z</time>
      </trkpt>
      <trkpt lat="42.84645" lon="0.50482">
        <ele>1563.603</ele>
        <time>2022-02-27T09:31:41Z</time>
      </trkpt>
      <trkpt lat="42.84645" lon="0.50482">
        <ele>1563.602</ele>
        <time>2022-02-27T09:31:43Z</time>
      </trkpt>
      <trkpt lat="42.84645" lon="0.50482">
        <ele>1563.625</ele>
        <time>2022-02-27T09:31:45Z</time>
      </trkpt>
      <trkpt lat="42.84645" lon="0.50482">
        <ele>1563.621</ele>
        <time>2022-02-27T09:31:47Z</time>
      </trkpt>
      <trkpt lat="42.84645" lon="0.50482">
        <ele>1563.633</ele>
        <time>2022-02-27T09:31:49Z</time>
      </trkpt>
      <trkpt lat="42.84645" lon="0.50482">
        <ele>1563.635</ele>
        <time>2022-02-27T09:31:51Z</time>
      </trkpt>
      <trkpt lat="42.84645" lon="0.50482">
        <ele>1563.645</ele>
        <time>2022-02-27T09:31:53Z</time>
      </trkpt>
      <trkpt lat="42.84645" lon="0.50482">
        <ele>1563.632</ele>
        <time>2022-02-27T09:31:55Z</time>
      </trkpt>
      <trkpt lat="42.84645" lon="0.50482">
        <ele>1563.625</ele>
        <time>2022-02-27T09:31:57Z</time>
      </trkpt>
      <trkpt lat="42.84645" lon="0.50482">
        <ele>1563.639</ele>
        <time>2022-02-27T09:31:59Z</time>
      </trkpt>
      <trkpt lat="42.84645" lon="0.50481">
        <ele>1563.65</ele>
        <time>2022-02-27T09:32:01Z</time>
      </trkpt>
      <trkpt lat="42.84645" lon="0.50481">
        <ele>1563.653</ele>
        <time>2022-02-27T09:32:03Z</time>
      </trkpt>
      <trkpt lat="42.84645" lon="0.50481">
        <ele>1563.649</ele>
        <time>2022-02-27T09:32:05Z</time>
      </trkpt>
      <trkpt lat="42.84645" lon="0.50481">
        <ele>1563.651</ele>
        <time>2022-02-27T09:32:07Z</time>
      </trkpt>
      <trkpt lat="42.84645" lon="0.50481">
        <ele>1563.653</ele>
        <time>2022-02-27T09:32:09Z</time>
      </trkpt>
      <trkpt lat="42.84645" lon="0.50482">
        <ele>1563.64</ele>
        <time>2022-02-27T09:32:11Z</time>
      </trkpt>
      <trkpt lat="42.84645" lon="0.50481">
        <ele>1563.627</ele>
        <time>2022-02-27T09:32:13Z</time>
      </trkpt>
      <trkpt lat="42.84645" lon="0.50482">
        <ele>1563.629</ele>
        <time>2022-02-27T09:32:15Z</time>
      </trkpt>
      <trkpt lat="42.84645" lon="0.50482">
        <ele>1563.621</ele>
        <time>2022-02-27T09:32:17Z</time>
      </trkpt>
      <trkpt lat="42.84645" lon="0.50482">
        <ele>1563.618</ele>
        <time>2022-02-27T09:32:19Z</time>
      </trkpt>
      <trkpt lat="42.84645" lon="0.50482">
        <ele>1563.613</ele>
        <time>2022-02-27T09:32:21Z</time>
      </trkpt>
      <trkpt lat="42.84645" lon="0.50482">
        <ele>1563.603</ele>
        <time>2022-02-27T09:32:23Z</time>
      </trkpt>
      <trkpt lat="42.84645" lon="0.50482">
        <ele>1563.594</ele>
        <time>2022-02-27T09:32:25Z</time>
      </trkpt>
      <trkpt lat="42.84645" lon="0.50482">
        <ele>1563.589</ele>
        <time>2022-02-27T09:32:27Z</time>
      </trkpt>
      <trkpt lat="42.84645" lon="0.50482">
        <ele>1563.58</ele>
        <time>2022-02-27T09:32:29Z</time>
      </trkpt>
      <trkpt lat="42.84645" lon="0.50482">
        <ele>1563.568</ele>
        <time>2022-02-27T09:32:31Z</time>
      </trkpt>
      <trkpt lat="42.84645" lon="0.50482">
        <ele>1563.55</ele>
        <time>2022-02-27T09:32:33Z</time>
      </trkpt>
      <trkpt lat="42.84645" lon="0.50482">
        <ele>1563.547</ele>
        <time>2022-02-27T09:32:35Z</time>
      </trkpt>
      <trkpt lat="42.84645" lon="0.50482">
        <ele>1563.543</ele>
        <time>2022-02-27T09:32:37Z</time>
      </trkpt>
      <trkpt lat="42.84645" lon="0.50482">
        <ele>1563.545</ele>
        <time>2022-02-27T09:32:39Z</time>
      </trkpt>
      <trkpt lat="42.84645" lon="0.50482">
        <ele>1563.563</ele>
        <time>2022-02-27T09:32:41Z</time>
      </trkpt>
      <trkpt lat="42.84645" lon="0.50482">
        <ele>1563.58</ele>
        <time>2022-02-27T09:32:43Z</time>
      </trkpt>
      <trkpt lat="42.84645" lon="0.50481">
        <ele>1563.038</ele>
        <time>2022-02-27T09:32:45Z</time>
      </trkpt>
      <trkpt lat="42.84644" lon="0.50481">
        <ele>1561.686</ele>
        <time>2022-02-27T09:32:47Z</time>
      </trkpt>
      <trkpt lat="42.84643" lon="0.50481">
        <ele>1561.968</ele>
        <time>2022-02-27T09:32:49Z</time>
      </trkpt>
      <trkpt lat="42.84641" lon="0.50481">
        <ele>1560.331</ele>
        <time>2022-02-27T09:32:51Z</time>
      </trkpt>
      <trkpt lat="42.8464" lon="0.50479">
        <ele>1561.176</ele>
        <time>2022-02-27T09:32:53Z</time>
      </trkpt>
      <trkpt lat="42.84639" lon="0.50477">
        <ele>1560.289</ele>
        <time>2022-02-27T09:32:55Z</time>
      </trkpt>
      <trkpt lat="42.84639" lon="0.50476">
        <ele>1561.052</ele>
        <time>2022-02-27T09:32:57Z</time>
      </trkpt>
      <trkpt lat="42.84639" lon="0.50476">
        <ele>1561.336</ele>
        <time>2022-02-27T09:32:59Z</time>
      </trkpt>
      <trkpt lat="42.8464" lon="0.50479">
        <ele>1557.923</ele>
        <time>2022-02-27T09:33:01Z</time>
      </trkpt>
      <trkpt lat="42.8464" lon="0.5048">
        <ele>1557.889</ele>
        <time>2022-02-27T09:33:03Z</time>
      </trkpt>
      <trkpt lat="42.8464" lon="0.5048">
        <ele>1557.825</ele>
        <time>2022-02-27T09:33:05Z</time>
      </trkpt>
      <trkpt lat="42.8464" lon="0.5048">
        <ele>1557.801</ele>
        <time>2022-02-27T09:33:07Z</time>
      </trkpt>
      <trkpt lat="42.8464" lon="0.5048">
        <ele>1557.807</ele>
        <time>2022-02-27T09:33:09Z</time>
      </trkpt>
      <trkpt lat="42.8464" lon="0.5048">
        <ele>1557.795</ele>
        <time>2022-02-27T09:33:11Z</time>
      </trkpt>
      <trkpt lat="42.8464" lon="0.5048">
        <ele>1557.784</ele>
        <time>2022-02-27T09:33:13Z</time>
      </trkpt>
      <trkpt lat="42.8464" lon="0.5048">
        <ele>1557.78</ele>
        <time>2022-02-27T09:33:15Z</time>
      </trkpt>
      <trkpt lat="42.8464" lon="0.5048">
        <ele>1557.774</ele>
        <time>2022-02-27T09:33:17Z</time>
      </trkpt>
      <trkpt lat="42.8464" lon="0.5048">
        <ele>1557.895</ele>
        <time>2022-02-27T09:33:19Z</time>
      </trkpt>
      <trkpt lat="42.8464" lon="0.5048">
        <ele>1557.907</ele>
        <time>2022-02-27T09:33:21Z</time>
      </trkpt>
      <trkpt lat="42.8464" lon="0.5048">
        <ele>1557.908</ele>
        <time>2022-02-27T09:33:23Z</time>
      </trkpt>
      <trkpt lat="42.8464" lon="0.5048">
        <ele>1557.899</ele>
        <time>2022-02-27T09:33:25Z</time>
      </trkpt>
      <trkpt lat="42.8464" lon="0.5048">
        <ele>1557.894</ele>
        <time>2022-02-27T09:33:27Z</time>
      </trkpt>
      <trkpt lat="42.8464" lon="0.5048">
        <ele>1557.893</ele>
        <time>2022-02-27T09:33:29Z</time>
      </trkpt>
      <trkpt lat="42.8464" lon="0.5048">
        <ele>1557.878</ele>
        <time>2022-02-27T09:33:31Z</time>
      </trkpt>
      <trkpt lat="42.8464" lon="0.5048">
        <ele>1557.874</ele>
        <time>2022-02-27T09:33:33Z</time>
      </trkpt>
      <trkpt lat="42.84641" lon="0.50481">
        <ele>1556.948</ele>
        <time>2022-02-27T09:33:35Z</time>
      </trkpt>
      <trkpt lat="42.84641" lon="0.50481">
        <ele>1557.141</ele>
        <time>2022-02-27T09:33:37Z</time>
      </trkpt>
      <trkpt lat="42.84641" lon="0.50481">
        <ele>1556.099</ele>
        <time>2022-02-27T09:33:39Z</time>
      </trkpt>
      <trkpt lat="42.84641" lon="0.50481">
        <ele>1556.069</ele>
        <time>2022-02-27T09:33:41Z</time>
      </trkpt>
      <trkpt lat="42.84641" lon="0.50481">
        <ele>1556.06</ele>
        <time>2022-02-27T09:33:43Z</time>
      </trkpt>
      <trkpt lat="42.84641" lon="0.50481">
        <ele>1556.054</ele>
        <time>2022-02-27T09:33:45Z</time>
      </trkpt>
      <trkpt lat="42.84641" lon="0.50481">
        <ele>1556.029</ele>
        <time>2022-02-27T09:33:47Z</time>
      </trkpt>
      <trkpt lat="42.84641" lon="0.50481">
        <ele>1556.017</ele>
        <time>2022-02-27T09:33:49Z</time>
      </trkpt>
      <trkpt lat="42.84641" lon="0.50482">
        <ele>1556.247</ele>
        <time>2022-02-27T09:33:51Z</time>
      </trkpt>
      <trkpt lat="42.84641" lon="0.50481">
        <ele>1555.841</ele>
        <time>2022-02-27T09:33:53Z</time>
      </trkpt>
      <trkpt lat="42.84641" lon="0.50481">
        <ele>1555.522</ele>
        <time>2022-02-27T09:33:55Z</time>
      </trkpt>
      <trkpt lat="42.84641" lon="0.50481">
        <ele>1555.241</ele>
        <time>2022-02-27T09:33:57Z</time>
      </trkpt>
      <trkpt lat="42.84641" lon="0.50481">
        <ele>1555.259</ele>
        <time>2022-02-27T09:33:59Z</time>
      </trkpt>
      <trkpt lat="42.84641" lon="0.50481">
        <ele>1555.252</ele>
        <time>2022-02-27T09:34:01Z</time>
      </trkpt>
      <trkpt lat="42.84641" lon="0.50481">
        <ele>1555.238</ele>
        <time>2022-02-27T09:34:03Z</time>
      </trkpt>
      <trkpt lat="42.84641" lon="0.50482">
        <ele>1555.001</ele>
        <time>2022-02-27T09:34:05Z</time>
      </trkpt>
      <trkpt lat="42.84641" lon="0.50483">
        <ele>1555.24</ele>
        <time>2022-02-27T09:34:07Z</time>
      </trkpt>
      <trkpt lat="42.84641" lon="0.50484">
        <ele>1555.196</ele>
        <time>2022-02-27T09:34:09Z</time>
      </trkpt>
      <trkpt lat="42.84641" lon="0.50484">
        <ele>1555.187</ele>
        <time>2022-02-27T09:34:11Z</time>
      </trkpt>
      <trkpt lat="42.84641" lon="0.50484">
        <ele>1555.167</ele>
        <time>2022-02-27T09:34:13Z</time>
      </trkpt>
      <trkpt lat="42.84641" lon="0.50484">
        <ele>1555.156</ele>
        <time>2022-02-27T09:34:15Z</time>
      </trkpt>
      <trkpt lat="42.84641" lon="0.50484">
        <ele>1555.141</ele>
        <time>2022-02-27T09:34:17Z</time>
      </trkpt>
      <trkpt lat="42.84641" lon="0.50484">
        <ele>1555.133</ele>
        <time>2022-02-27T09:34:19Z</time>
      </trkpt>
      <trkpt lat="42.84641" lon="0.50484">
        <ele>1555.136</ele>
        <time>2022-02-27T09:34:21Z</time>
      </trkpt>
      <trkpt lat="42.84641" lon="0.50484">
        <ele>1555.134</ele>
        <time>2022-02-27T09:34:23Z</time>
      </trkpt>
      <trkpt lat="42.84641" lon="0.50484">
        <ele>1554.514</ele>
        <time>2022-02-27T09:34:25Z</time>
      </trkpt>
      <trkpt lat="42.8464" lon="0.50484">
        <ele>1554.116</ele>
        <time>2022-02-27T09:34:27Z</time>
      </trkpt>
      <trkpt lat="42.84639" lon="0.50483">
        <ele>1554.402</ele>
        <time>2022-02-27T09:34:29Z</time>
      </trkpt>
      <trkpt lat="42.84639" lon="0.50483">
        <ele>1554.406</ele>
        <time>2022-02-27T09:34:31Z</time>
      </trkpt>
      <trkpt lat="42.84639" lon="0.50483">
        <ele>1554.41</ele>
        <time>2022-02-27T09:34:33Z</time>
      </trkpt>
      <trkpt lat="42.84639" lon="0.50483">
        <ele>1554.934</ele>
        <time>2022-02-27T09:34:35Z</time>
      </trkpt>
      <trkpt lat="42.8464" lon="0.50483">
        <ele>1554.94</ele>
        <time>2022-02-27T09:34:37Z</time>
      </trkpt>
      <trkpt lat="42.8464" lon="0.50483">
        <ele>1554.933</ele>
        <time>2022-02-27T09:34:39Z</time>
      </trkpt>
      <trkpt lat="42.8464" lon="0.50483">
        <ele>1554.919</ele>
        <time>2022-02-27T09:34:41Z</time>
      </trkpt>
      <trkpt lat="42.8464" lon="0.50483">
        <ele>1554.913</ele>
        <time>2022-02-27T09:34:43Z</time>
      </trkpt>
      <trkpt lat="42.8464" lon="0.50483">
        <ele>1554.916</ele>
        <time>2022-02-27T09:34:45Z</time>
      </trkpt>
      <trkpt lat="42.84639" lon="0.50483">
        <ele>1554.852</ele>
        <time>2022-02-27T09:34:47Z</time>
      </trkpt>
      <trkpt lat="42.8464" lon="0.50483">
        <ele>1554.959</ele>
        <time>2022-02-27T09:34:49Z</time>
      </trkpt>
      <trkpt lat="42.8464" lon="0.50483">
        <ele>1554.963</ele>
        <time>2022-02-27T09:34:51Z</time>
      </trkpt>
      <trkpt lat="42.8464" lon="0.50483">
        <ele>1554.954</ele>
        <time>2022-02-27T09:34:53Z</time>
      </trkpt>
      <trkpt lat="42.8464" lon="0.50483">
        <ele>1554.965</ele>
        <time>2022-02-27T09:34:55Z</time>
      </trkpt>
      <trkpt lat="42.8464" lon="0.50483">
        <ele>1554.971</ele>
        <time>2022-02-27T09:34:57Z</time>
      </trkpt>
      <trkpt lat="42.8464" lon="0.50483">
        <ele>1554.973</ele>
        <time>2022-02-27T09:34:59Z</time>
      </trkpt>
      <trkpt lat="42.8464" lon="0.50483">
        <ele>1554.967</ele>
        <time>2022-02-27T09:35:01Z</time>
      </trkpt>
      <trkpt lat="42.8464" lon="0.50483">
        <ele>1555.523</ele>
        <time>2022-02-27T09:35:03Z</time>
      </trkpt>
      <trkpt lat="42.8464" lon="0.50483">
        <ele>1555.968</ele>
        <time>2022-02-27T09:35:05Z</time>
      </trkpt>
      <trkpt lat="42.8464" lon="0.50483">
        <ele>1555.967</ele>
        <time>2022-02-27T09:35:07Z</time>
      </trkpt>
      <trkpt lat="42.8464" lon="0.50483">
        <ele>1555.972</ele>
        <time>2022-02-27T09:35:09Z</time>
      </trkpt>
      <trkpt lat="42.8464" lon="0.50483">
        <ele>1556.218</ele>
        <time>2022-02-27T09:35:11Z</time>
      </trkpt>
      <trkpt lat="42.8464" lon="0.50483">
        <ele>1555.945</ele>
        <time>2022-02-27T09:35:13Z</time>
      </trkpt>
      <trkpt lat="42.8464" lon="0.50483">
        <ele>1555.91</ele>
        <time>2022-02-27T09:35:15Z</time>
      </trkpt>
      <trkpt lat="42.8464" lon="0.50483">
        <ele>1555.896</ele>
        <time>2022-02-27T09:35:17Z</time>
      </trkpt>
      <trkpt lat="42.8464" lon="0.50483">
        <ele>1555.891</ele>
        <time>2022-02-27T09:35:19Z</time>
      </trkpt>
      <trkpt lat="42.8464" lon="0.50483">
        <ele>1555.881</ele>
        <time>2022-02-27T09:35:21Z</time>
      </trkpt>
      <trkpt lat="42.8464" lon="0.50483">
        <ele>1555.876</ele>
        <time>2022-02-27T09:35:23Z</time>
      </trkpt>
      <trkpt lat="42.8464" lon="0.50483">
        <ele>1555.876</ele>
        <time>2022-02-27T09:35:25Z</time>
      </trkpt>
      <trkpt lat="42.8464" lon="0.50483">
        <ele>1555.877</ele>
        <time>2022-02-27T09:35:27Z</time>
      </trkpt>
      <trkpt lat="42.8464" lon="0.50483">
        <ele>1555.876</ele>
        <time>2022-02-27T09:35:29Z</time>
      </trkpt>
      <trkpt lat="42.8464" lon="0.50483">
        <ele>1555.885</ele>
        <time>2022-02-27T09:35:31Z</time>
      </trkpt>
      <trkpt lat="42.8464" lon="0.50483">
        <ele>1555.887</ele>
        <time>2022-02-27T09:35:33Z</time>
      </trkpt>
      <trkpt lat="42.8464" lon="0.50483">
        <ele>1555.889</ele>
        <time>2022-02-27T09:35:35Z</time>
      </trkpt>
      <trkpt lat="42.8464" lon="0.50483">
        <ele>1555.886</ele>
        <time>2022-02-27T09:35:37Z</time>
      </trkpt>
      <trkpt lat="42.8464" lon="0.50483">
        <ele>1555.881</ele>
        <time>2022-02-27T09:35:39Z</time>
      </trkpt>
      <trkpt lat="42.8464" lon="0.50483">
        <ele>1555.877</ele>
        <time>2022-02-27T09:35:41Z</time>
      </trkpt>
      <trkpt lat="42.8464" lon="0.50483">
        <ele>1555.871</ele>
        <time>2022-02-27T09:35:43Z</time>
      </trkpt>
      <trkpt lat="42.8464" lon="0.50483">
        <ele>1555.719</ele>
        <time>2022-02-27T09:35:45Z</time>
      </trkpt>
      <trkpt lat="42.8464" lon="0.50482">
        <ele>1555.736</ele>
        <time>2022-02-27T09:35:47Z</time>
      </trkpt>
      <trkpt lat="42.8464" lon="0.50482">
        <ele>1555.725</ele>
        <time>2022-02-27T09:35:49Z</time>
      </trkpt>
      <trkpt lat="42.8464" lon="0.50482">
        <ele>1555.72</ele>
        <time>2022-02-27T09:35:51Z</time>
      </trkpt>
      <trkpt lat="42.8464" lon="0.50482">
        <ele>1555.373</ele>
        <time>2022-02-27T09:35:53Z</time>
      </trkpt>
      <trkpt lat="42.8464" lon="0.50482">
        <ele>1555.715</ele>
        <time>2022-02-27T09:35:55Z</time>
      </trkpt>
      <trkpt lat="42.8464" lon="0.50482">
        <ele>1555.715</ele>
        <time>2022-02-27T09:35:57Z</time>
      </trkpt>
      <trkpt lat="42.8464" lon="0.50482">
        <ele>1555.719</ele>
        <time>2022-02-27T09:35:59Z</time>
      </trkpt>
      <trkpt lat="42.8464" lon="0.50482">
        <ele>1555.717</ele>
        <time>2022-02-27T09:36:01Z</time>
      </trkpt>
      <trkpt lat="42.8464" lon="0.50482">
        <ele>1555.635</ele>
        <time>2022-02-27T09:36:03Z</time>
      </trkpt>
      <trkpt lat="42.8464" lon="0.50482">
        <ele>1555.564</ele>
        <time>2022-02-27T09:36:05Z</time>
      </trkpt>
      <trkpt lat="42.8464" lon="0.50482">
        <ele>1555.559</ele>
        <time>2022-02-27T09:36:07Z</time>
      </trkpt>
      <trkpt lat="42.84641" lon="0.50483">
        <ele>1555.179</ele>
        <time>2022-02-27T09:36:09Z</time>
      </trkpt>
      <trkpt lat="42.84641" lon="0.50483">
        <ele>1555.168</ele>
        <time>2022-02-27T09:36:11Z</time>
      </trkpt>
      <trkpt lat="42.84641" lon="0.50483">
        <ele>1555.176</ele>
        <time>2022-02-27T09:36:13Z</time>
      </trkpt>
      <trkpt lat="42.84641" lon="0.50483">
        <ele>1555.187</ele>
        <time>2022-02-27T09:36:15Z</time>
      </trkpt>
      <trkpt lat="42.84641" lon="0.50483">
        <ele>1555.186</ele>
        <time>2022-02-27T09:36:17Z</time>
      </trkpt>
      <trkpt lat="42.84641" lon="0.50483">
        <ele>1555.189</ele>
        <time>2022-02-27T09:36:19Z</time>
      </trkpt>
      <trkpt lat="42.8464" lon="0.50483">
        <ele>1555.186</ele>
        <time>2022-02-27T09:36:21Z</time>
      </trkpt>
      <trkpt lat="42.8464" lon="0.50483">
        <ele>1555.183</ele>
        <time>2022-02-27T09:36:23Z</time>
      </trkpt>
      <trkpt lat="42.8464" lon="0.50483">
        <ele>1555.188</ele>
        <time>2022-02-27T09:36:25Z</time>
      </trkpt>
      <trkpt lat="42.8464" lon="0.50483">
        <ele>1555.186</ele>
        <time>2022-02-27T09:36:27Z</time>
      </trkpt>
      <trkpt lat="42.8464" lon="0.50483">
        <ele>1555.181</ele>
        <time>2022-02-27T09:36:29Z</time>
      </trkpt>
      <trkpt lat="42.8464" lon="0.50483">
        <ele>1555.178</ele>
        <time>2022-02-27T09:36:31Z</time>
      </trkpt>
      <trkpt lat="42.8464" lon="0.50483">
        <ele>1555.174</ele>
        <time>2022-02-27T09:36:33Z</time>
      </trkpt>
      <trkpt lat="42.8464" lon="0.50483">
        <ele>1555.179</ele>
        <time>2022-02-27T09:36:35Z</time>
      </trkpt>
      <trkpt lat="42.8464" lon="0.50483">
        <ele>1555.173</ele>
        <time>2022-02-27T09:36:37Z</time>
      </trkpt>
      <trkpt lat="42.8464" lon="0.50483">
        <ele>1555.174</ele>
        <time>2022-02-27T09:36:39Z</time>
      </trkpt>
      <trkpt lat="42.8464" lon="0.50483">
        <ele>1555.176</ele>
        <time>2022-02-27T09:36:41Z</time>
      </trkpt>
      <trkpt lat="42.84641" lon="0.50483">
        <ele>1555.152</ele>
        <time>2022-02-27T09:36:43Z</time>
      </trkpt>
      <trkpt lat="42.8464" lon="0.50482">
        <ele>1555.413</ele>
        <time>2022-02-27T09:36:45Z</time>
      </trkpt>
      <trkpt lat="42.8464" lon="0.50482">
        <ele>1555.651</ele>
        <time>2022-02-27T09:36:47Z</time>
      </trkpt>
      <trkpt lat="42.8464" lon="0.50482">
        <ele>1555.315</ele>
        <time>2022-02-27T09:36:49Z</time>
      </trkpt>
      <trkpt lat="42.8464" lon="0.50482">
        <ele>1555.315</ele>
        <time>2022-02-27T09:36:51Z</time>
      </trkpt>
      <trkpt lat="42.8464" lon="0.50482">
        <ele>1555.313</ele>
        <time>2022-02-27T09:36:53Z</time>
      </trkpt>
      <trkpt lat="42.8464" lon="0.50482">
        <ele>1555.31</ele>
        <time>2022-02-27T09:36:55Z</time>
      </trkpt>
      <trkpt lat="42.8464" lon="0.50481">
        <ele>1555.181</ele>
        <time>2022-02-27T09:36:57Z</time>
      </trkpt>
      <trkpt lat="42.8464" lon="0.5048">
        <ele>1555.189</ele>
        <time>2022-02-27T09:36:59Z</time>
      </trkpt>
      <trkpt lat="42.84639" lon="0.5048">
        <ele>1554.903</ele>
        <time>2022-02-27T09:37:01Z</time>
      </trkpt>
      <trkpt lat="42.84639" lon="0.50479">
        <ele>1554.8</ele>
        <time>2022-02-27T09:37:03Z</time>
      </trkpt>
      <trkpt lat="42.84639" lon="0.50479">
        <ele>1554.794</ele>
        <time>2022-02-27T09:37:05Z</time>
      </trkpt>
      <trkpt lat="42.84639" lon="0.50479">
        <ele>1554.772</ele>
        <time>2022-02-27T09:37:07Z</time>
      </trkpt>
      <trkpt lat="42.84639" lon="0.50479">
        <ele>1554.76</ele>
        <time>2022-02-27T09:37:09Z</time>
      </trkpt>
      <trkpt lat="42.84639" lon="0.50479">
        <ele>1555.139</ele>
        <time>2022-02-27T09:37:11Z</time>
      </trkpt>
      <trkpt lat="42.84639" lon="0.50479">
        <ele>1555.164</ele>
        <time>2022-02-27T09:37:13Z</time>
      </trkpt>
      <trkpt lat="42.84639" lon="0.50479">
        <ele>1555.179</ele>
        <time>2022-02-27T09:37:15Z</time>
      </trkpt>
      <trkpt lat="42.84639" lon="0.50479">
        <ele>1555.398</ele>
        <time>2022-02-27T09:37:17Z</time>
      </trkpt>
      <trkpt lat="42.8464" lon="0.5048">
        <ele>1555.488</ele>
        <time>2022-02-27T09:37:19Z</time>
      </trkpt>
      <trkpt lat="42.84641" lon="0.50481">
        <ele>1555.455</ele>
        <time>2022-02-27T09:37:21Z</time>
      </trkpt>
      <trkpt lat="42.84641" lon="0.50482">
        <ele>1554.753</ele>
        <time>2022-02-27T09:37:23Z</time>
      </trkpt>
      <trkpt lat="42.84641" lon="0.50482">
        <ele>1554.734</ele>
        <time>2022-02-27T09:37:25Z</time>
      </trkpt>
      <trkpt lat="42.84641" lon="0.50482">
        <ele>1554.871</ele>
        <time>2022-02-27T09:37:27Z</time>
      </trkpt>
      <trkpt lat="42.84641" lon="0.50482">
        <ele>1554.864</ele>
        <time>2022-02-27T09:37:29Z</time>
      </trkpt>
      <trkpt lat="42.84641" lon="0.50482">
        <ele>1554.871</ele>
        <time>2022-02-27T09:37:31Z</time>
      </trkpt>
      <trkpt lat="42.84641" lon="0.50482">
        <ele>1554.855</ele>
        <time>2022-02-27T09:37:33Z</time>
      </trkpt>
      <trkpt lat="42.84641" lon="0.50482">
        <ele>1554.841</ele>
        <time>2022-02-27T09:37:35Z</time>
      </trkpt>
      <trkpt lat="42.84641" lon="0.50482">
        <ele>1554.827</ele>
        <time>2022-02-27T09:37:37Z</time>
      </trkpt>
      <trkpt lat="42.84641" lon="0.50482">
        <ele>1554.82</ele>
        <time>2022-02-27T09:37:39Z</time>
      </trkpt>
      <trkpt lat="42.84641" lon="0.50482">
        <ele>1554.52</ele>
        <time>2022-02-27T09:37:41Z</time>
      </trkpt>
      <trkpt lat="42.84641" lon="0.50482">
        <ele>1554.508</ele>
        <time>2022-02-27T09:37:43Z</time>
      </trkpt>
      <trkpt lat="42.84641" lon="0.50482">
        <ele>1554.51</ele>
        <time>2022-02-27T09:37:45Z</time>
      </trkpt>
      <trkpt lat="42.84641" lon="0.50482">
        <ele>1555.106</ele>
        <time>2022-02-27T09:37:47Z</time>
      </trkpt>
      <trkpt lat="42.84641" lon="0.50482">
        <ele>1554.877</ele>
        <time>2022-02-27T09:37:49Z</time>
      </trkpt>
      <trkpt lat="42.84641" lon="0.50482">
        <ele>1554.875</ele>
        <time>2022-02-27T09:37:51Z</time>
      </trkpt>
      <trkpt lat="42.84641" lon="0.50482">
        <ele>1554.892</ele>
        <time>2022-02-27T09:37:53Z</time>
      </trkpt>
      <trkpt lat="42.84641" lon="0.50482">
        <ele>1554.901</ele>
        <time>2022-02-27T09:37:55Z</time>
      </trkpt>
      <trkpt lat="42.84641" lon="0.50482">
        <ele>1554.927</ele>
        <time>2022-02-27T09:37:57Z</time>
      </trkpt>
      <trkpt lat="42.84641" lon="0.50482">
        <ele>1555.164</ele>
        <time>2022-02-27T09:37:59Z</time>
      </trkpt>
      <trkpt lat="42.84641" lon="0.50482">
        <ele>1555.163</ele>
        <time>2022-02-27T09:38:01Z</time>
      </trkpt>
      <trkpt lat="42.84641" lon="0.50481">
        <ele>1557.271</ele>
        <time>2022-02-27T09:38:03Z</time>
      </trkpt>
      <trkpt lat="42.84641" lon="0.50481">
        <ele>1557.217</ele>
        <time>2022-02-27T09:38:05Z</time>
      </trkpt>
      <trkpt lat="42.84641" lon="0.50481">
        <ele>1557.176</ele>
        <time>2022-02-27T09:38:07Z</time>
      </trkpt>
      <trkpt lat="42.84641" lon="0.50481">
        <ele>1557.153</ele>
        <time>2022-02-27T09:38:09Z</time>
      </trkpt>
      <trkpt lat="42.84641" lon="0.50481">
        <ele>1557.159</ele>
        <time>2022-02-27T09:38:11Z</time>
      </trkpt>
      <trkpt lat="42.84641" lon="0.5048">
        <ele>1557.324</ele>
        <time>2022-02-27T09:38:13Z</time>
      </trkpt>
      <trkpt lat="42.84642" lon="0.50481">
        <ele>1557.922</ele>
        <time>2022-02-27T09:38:15Z</time>
      </trkpt>
      <trkpt lat="42.84642" lon="0.50481">
        <ele>1557.913</ele>
        <time>2022-02-27T09:38:17Z</time>
      </trkpt>
      <trkpt lat="42.84642" lon="0.50481">
        <ele>1557.914</ele>
        <time>2022-02-27T09:38:19Z</time>
      </trkpt>
      <trkpt lat="42.84642" lon="0.50481">
        <ele>1557.929</ele>
        <time>2022-02-27T09:38:21Z</time>
      </trkpt>
      <trkpt lat="42.84642" lon="0.50481">
        <ele>1557.934</ele>
        <time>2022-02-27T09:38:23Z</time>
      </trkpt>
      <trkpt lat="42.84642" lon="0.50481">
        <ele>1557.563</ele>
        <time>2022-02-27T09:38:25Z</time>
      </trkpt>
      <trkpt lat="42.84641" lon="0.50481">
        <ele>1557.556</ele>
        <time>2022-02-27T09:38:27Z</time>
      </trkpt>
      <trkpt lat="42.84642" lon="0.50481">
        <ele>1557.555</ele>
        <time>2022-02-27T09:38:29Z</time>
      </trkpt>
      <trkpt lat="42.84642" lon="0.50481">
        <ele>1557.551</ele>
        <time>2022-02-27T09:38:31Z</time>
      </trkpt>
      <trkpt lat="42.84642" lon="0.50481">
        <ele>1557.542</ele>
        <time>2022-02-27T09:38:33Z</time>
      </trkpt>
      <trkpt lat="42.84642" lon="0.50481">
        <ele>1557.537</ele>
        <time>2022-02-27T09:38:35Z</time>
      </trkpt>
      <trkpt lat="42.84642" lon="0.50481">
        <ele>1557.164</ele>
        <time>2022-02-27T09:38:37Z</time>
      </trkpt>
      <trkpt lat="42.84642" lon="0.5048">
        <ele>1557.018</ele>
        <time>2022-02-27T09:38:39Z</time>
      </trkpt>
      <trkpt lat="42.84642" lon="0.5048">
        <ele>1557.018</ele>
        <time>2022-02-27T09:38:41Z</time>
      </trkpt>
      <trkpt lat="42.84642" lon="0.5048">
        <ele>1557.028</ele>
        <time>2022-02-27T09:38:43Z</time>
      </trkpt>
      <trkpt lat="42.84642" lon="0.50481">
        <ele>1556.877</ele>
        <time>2022-02-27T09:38:45Z</time>
      </trkpt>
      <trkpt lat="42.84642" lon="0.5048">
        <ele>1555.68</ele>
        <time>2022-02-27T09:38:47Z</time>
      </trkpt>
      <trkpt lat="42.84642" lon="0.5048">
        <ele>1555.738</ele>
        <time>2022-02-27T09:38:49Z</time>
      </trkpt>
      <trkpt lat="42.84642" lon="0.5048">
        <ele>1555.724</ele>
        <time>2022-02-27T09:38:51Z</time>
      </trkpt>
      <trkpt lat="42.84642" lon="0.5048">
        <ele>1555.71</ele>
        <time>2022-02-27T09:38:53Z</time>
      </trkpt>
      <trkpt lat="42.84642" lon="0.5048">
        <ele>1555.714</ele>
        <time>2022-02-27T09:38:55Z</time>
      </trkpt>
      <trkpt lat="42.84642" lon="0.5048">
        <ele>1555.72</ele>
        <time>2022-02-27T09:38:57Z</time>
      </trkpt>
      <trkpt lat="42.84642" lon="0.5048">
        <ele>1555.38</ele>
        <time>2022-02-27T09:38:59Z</time>
      </trkpt>
      <trkpt lat="42.84642" lon="0.5048">
        <ele>1555.383</ele>
        <time>2022-02-27T09:39:01Z</time>
      </trkpt>
      <trkpt lat="42.84642" lon="0.5048">
        <ele>1555.248</ele>
        <time>2022-02-27T09:39:03Z</time>
      </trkpt>
      <trkpt lat="42.84642" lon="0.5048">
        <ele>1555.232</ele>
        <time>2022-02-27T09:39:05Z</time>
      </trkpt>
      <trkpt lat="42.84642" lon="0.5048">
        <ele>1555.065</ele>
        <time>2022-02-27T09:39:07Z</time>
      </trkpt>
      <trkpt lat="42.84642" lon="0.5048">
        <ele>1555.074</ele>
        <time>2022-02-27T09:39:09Z</time>
      </trkpt>
      <trkpt lat="42.84642" lon="0.5048">
        <ele>1555.078</ele>
        <time>2022-02-27T09:39:11Z</time>
      </trkpt>
      <trkpt lat="42.84642" lon="0.5048">
        <ele>1555.083</ele>
        <time>2022-02-27T09:39:13Z</time>
      </trkpt>
      <trkpt lat="42.84642" lon="0.5048">
        <ele>1555.086</ele>
        <time>2022-02-27T09:39:15Z</time>
      </trkpt>
      <trkpt lat="42.84642" lon="0.5048">
        <ele>1555.098</ele>
        <time>2022-02-27T09:39:17Z</time>
      </trkpt>
      <trkpt lat="42.84642" lon="0.5048">
        <ele>1555.097</ele>
        <time>2022-02-27T09:39:19Z</time>
      </trkpt>
      <trkpt lat="42.84641" lon="0.50479">
        <ele>1555.109</ele>
        <time>2022-02-27T09:39:21Z</time>
      </trkpt>
      <trkpt lat="42.8464" lon="0.50478">
        <ele>1554.917</ele>
        <time>2022-02-27T09:39:23Z</time>
      </trkpt>
      <trkpt lat="42.84638" lon="0.50477">
        <ele>1554.271</ele>
        <time>2022-02-27T09:39:25Z</time>
      </trkpt>
      <trkpt lat="42.84637" lon="0.50476">
        <ele>1554.987</ele>
        <time>2022-02-27T09:39:27Z</time>
      </trkpt>
      <trkpt lat="42.84636" lon="0.50475">
        <ele>1554.918</ele>
        <time>2022-02-27T09:39:29Z</time>
      </trkpt>
      <trkpt lat="42.84636" lon="0.50475">
        <ele>1554.454</ele>
        <time>2022-02-27T09:39:31Z</time>
      </trkpt>
      <trkpt lat="42.84635" lon="0.50476">
        <ele>1553.825</ele>
        <time>2022-02-27T09:39:33Z</time>
      </trkpt>
      <trkpt lat="42.84635" lon="0.50476">
        <ele>1553.714</ele>
        <time>2022-02-27T09:39:35Z</time>
      </trkpt>
      <trkpt lat="42.84634" lon="0.50475">
        <ele>1553.675</ele>
        <time>2022-02-27T09:39:37Z</time>
      </trkpt>
      <trkpt lat="42.84633" lon="0.50474">
        <ele>1551.793</ele>
        <time>2022-02-27T09:39:39Z</time>
      </trkpt>
      <trkpt lat="42.84632" lon="0.50473">
        <ele>1551.651</ele>
        <time>2022-02-27T09:39:41Z</time>
      </trkpt>
      <trkpt lat="42.84631" lon="0.50472">
        <ele>1551.201</ele>
        <time>2022-02-27T09:39:43Z</time>
      </trkpt>
      <trkpt lat="42.84631" lon="0.50472">
        <ele>1551.215</ele>
        <time>2022-02-27T09:39:45Z</time>
      </trkpt>
      <trkpt lat="42.8463" lon="0.50471">
        <ele>1551.145</ele>
        <time>2022-02-27T09:39:47Z</time>
      </trkpt>
      <trkpt lat="42.8463" lon="0.50471">
        <ele>1551.134</ele>
        <time>2022-02-27T09:39:49Z</time>
      </trkpt>
      <trkpt lat="42.8463" lon="0.50471">
        <ele>1551.125</ele>
        <time>2022-02-27T09:39:51Z</time>
      </trkpt>
      <trkpt lat="42.8463" lon="0.50471">
        <ele>1551.127</ele>
        <time>2022-02-27T09:39:53Z</time>
      </trkpt>
      <trkpt lat="42.8463" lon="0.50471">
        <ele>1551.614</ele>
        <time>2022-02-27T09:39:55Z</time>
      </trkpt>
      <trkpt lat="42.8463" lon="0.50471">
        <ele>1551.617</ele>
        <time>2022-02-27T09:39:57Z</time>
      </trkpt>
      <trkpt lat="42.8463" lon="0.50471">
        <ele>1551.612</ele>
        <time>2022-02-27T09:39:59Z</time>
      </trkpt>
      <trkpt lat="42.84629" lon="0.50471">
        <ele>1552.066</ele>
        <time>2022-02-27T09:40:01Z</time>
      </trkpt>
      <trkpt lat="42.84628" lon="0.50469">
        <ele>1552.339</ele>
        <time>2022-02-27T09:40:03Z</time>
      </trkpt>
      <trkpt lat="42.84627" lon="0.50467">
        <ele>1553.645</ele>
        <time>2022-02-27T09:40:05Z</time>
      </trkpt>
      <trkpt lat="42.84627" lon="0.50466">
        <ele>1553.633</ele>
        <time>2022-02-27T09:40:07Z</time>
      </trkpt>
      <trkpt lat="42.84627" lon="0.50464">
        <ele>1553.808</ele>
        <time>2022-02-27T09:40:09Z</time>
      </trkpt>
      <trkpt lat="42.84626" lon="0.50463">
        <ele>1554.559</ele>
        <time>2022-02-27T09:40:11Z</time>
      </trkpt>
      <trkpt lat="42.84626" lon="0.50462">
        <ele>1553.88</ele>
        <time>2022-02-27T09:40:13Z</time>
      </trkpt>
      <trkpt lat="42.84625" lon="0.5046">
        <ele>1553.687</ele>
        <time>2022-02-27T09:40:15Z</time>
      </trkpt>
      <trkpt lat="42.84624" lon="0.50459">
        <ele>1553.654</ele>
        <time>2022-02-27T09:40:17Z</time>
      </trkpt>
      <trkpt lat="42.84624" lon="0.50457">
        <ele>1553.441</ele>
        <time>2022-02-27T09:40:19Z</time>
      </trkpt>
      <trkpt lat="42.84623" lon="0.50457">
        <ele>1552.164</ele>
        <time>2022-02-27T09:40:21Z</time>
      </trkpt>
      <trkpt lat="42.84622" lon="0.50456">
        <ele>1552.34</ele>
        <time>2022-02-27T09:40:23Z</time>
      </trkpt>
      <trkpt lat="42.84621" lon="0.50455">
        <ele>1552.522</ele>
        <time>2022-02-27T09:40:25Z</time>
      </trkpt>
      <trkpt lat="42.8462" lon="0.50454">
        <ele>1552.953</ele>
        <time>2022-02-27T09:40:27Z</time>
      </trkpt>
      <trkpt lat="42.84619" lon="0.50452">
        <ele>1552.684</ele>
        <time>2022-02-27T09:40:29Z</time>
      </trkpt>
      <trkpt lat="42.84618" lon="0.50451">
        <ele>1553.409</ele>
        <time>2022-02-27T09:40:31Z</time>
      </trkpt>
      <trkpt lat="42.84617" lon="0.5045">
        <ele>1553.79</ele>
        <time>2022-02-27T09:40:33Z</time>
      </trkpt>
      <trkpt lat="42.84616" lon="0.50449">
        <ele>1553.384</ele>
        <time>2022-02-27T09:40:35Z</time>
      </trkpt>
      <trkpt lat="42.84615" lon="0.50449">
        <ele>1553.651</ele>
        <time>2022-02-27T09:40:37Z</time>
      </trkpt>
      <trkpt lat="42.84614" lon="0.50449">
        <ele>1553.548</ele>
        <time>2022-02-27T09:40:39Z</time>
      </trkpt>
      <trkpt lat="42.84614" lon="0.50447">
        <ele>1554.807</ele>
        <time>2022-02-27T09:40:41Z</time>
      </trkpt>
      <trkpt lat="42.84613" lon="0.50446">
        <ele>1555.692</ele>
        <time>2022-02-27T09:40:43Z</time>
      </trkpt>
      <trkpt lat="42.84612" lon="0.50445">
        <ele>1556.185</ele>
        <time>2022-02-27T09:40:45Z</time>
      </trkpt>
      <trkpt lat="42.84611" lon="0.50443">
        <ele>1557.233</ele>
        <time>2022-02-27T09:40:47Z</time>
      </trkpt>
      <trkpt lat="42.8461" lon="0.50441">
        <ele>1557.889</ele>
        <time>2022-02-27T09:40:49Z</time>
      </trkpt>
      <trkpt lat="42.8461" lon="0.5044">
        <ele>1557.707</ele>
        <time>2022-02-27T09:40:51Z</time>
      </trkpt>
      <trkpt lat="42.84609" lon="0.50438">
        <ele>1558.292</ele>
        <time>2022-02-27T09:40:53Z</time>
      </trkpt>
      <trkpt lat="42.84608" lon="0.50437">
        <ele>1558.044</ele>
        <time>2022-02-27T09:40:55Z</time>
      </trkpt>
      <trkpt lat="42.84607" lon="0.50436">
        <ele>1557.827</ele>
        <time>2022-02-27T09:40:57Z</time>
      </trkpt>
      <trkpt lat="42.84606" lon="0.50435">
        <ele>1558.473</ele>
        <time>2022-02-27T09:40:59Z</time>
      </trkpt>
      <trkpt lat="42.84605" lon="0.50434">
        <ele>1558.674</ele>
        <time>2022-02-27T09:41:01Z</time>
      </trkpt>
      <trkpt lat="42.84604" lon="0.50433">
        <ele>1558.041</ele>
        <time>2022-02-27T09:41:03Z</time>
      </trkpt>
      <trkpt lat="42.84603" lon="0.50431">
        <ele>1557.204</ele>
        <time>2022-02-27T09:41:05Z</time>
      </trkpt>
      <trkpt lat="42.84602" lon="0.5043">
        <ele>1556.727</ele>
        <time>2022-02-27T09:41:07Z</time>
      </trkpt>
      <trkpt lat="42.84601" lon="0.50429">
        <ele>1558.385</ele>
        <time>2022-02-27T09:41:09Z</time>
      </trkpt>
      <trkpt lat="42.846" lon="0.50427">
        <ele>1559.059</ele>
        <time>2022-02-27T09:41:11Z</time>
      </trkpt>
      <trkpt lat="42.84599" lon="0.50426">
        <ele>1559.307</ele>
        <time>2022-02-27T09:41:13Z</time>
      </trkpt>
      <trkpt lat="42.84599" lon="0.50425">
        <ele>1559.991</ele>
        <time>2022-02-27T09:41:15Z</time>
      </trkpt>
      <trkpt lat="42.84598" lon="0.50425">
        <ele>1560.2</ele>
        <time>2022-02-27T09:41:17Z</time>
      </trkpt>
      <trkpt lat="42.84598" lon="0.50426">
        <ele>1560.107</ele>
        <time>2022-02-27T09:41:19Z</time>
      </trkpt>
      <trkpt lat="42.84598" lon="0.50426">
        <ele>1560.11</ele>
        <time>2022-02-27T09:41:21Z</time>
      </trkpt>
      <trkpt lat="42.84599" lon="0.50426">
        <ele>1560.221</ele>
        <time>2022-02-27T09:41:23Z</time>
      </trkpt>
      <trkpt lat="42.84599" lon="0.50426">
        <ele>1560.222</ele>
        <time>2022-02-27T09:41:25Z</time>
      </trkpt>
      <trkpt lat="42.84599" lon="0.50426">
        <ele>1560.307</ele>
        <time>2022-02-27T09:41:27Z</time>
      </trkpt>
      <trkpt lat="42.84599" lon="0.50427">
        <ele>1560.259</ele>
        <time>2022-02-27T09:41:29Z</time>
      </trkpt>
      <trkpt lat="42.84599" lon="0.50427">
        <ele>1560.251</ele>
        <time>2022-02-27T09:41:31Z</time>
      </trkpt>
      <trkpt lat="42.84599" lon="0.50427">
        <ele>1560.247</ele>
        <time>2022-02-27T09:41:33Z</time>
      </trkpt>
      <trkpt lat="42.84599" lon="0.50427">
        <ele>1560.219</ele>
        <time>2022-02-27T09:41:35Z</time>
      </trkpt>
      <trkpt lat="42.84599" lon="0.50427">
        <ele>1560.201</ele>
        <time>2022-02-27T09:41:37Z</time>
      </trkpt>
      <trkpt lat="42.84599" lon="0.50427">
        <ele>1560.739</ele>
        <time>2022-02-27T09:41:39Z</time>
      </trkpt>
      <trkpt lat="42.84599" lon="0.50426">
        <ele>1560.779</ele>
        <time>2022-02-27T09:41:41Z</time>
      </trkpt>
      <trkpt lat="42.84598" lon="0.50426">
        <ele>1562.722</ele>
        <time>2022-02-27T09:41:43Z</time>
      </trkpt>
      <trkpt lat="42.84597" lon="0.50424">
        <ele>1563.099</ele>
        <time>2022-02-27T09:41:45Z</time>
      </trkpt>
      <trkpt lat="42.84596" lon="0.50424">
        <ele>1564.714</ele>
        <time>2022-02-27T09:41:47Z</time>
      </trkpt>
      <trkpt lat="42.84595" lon="0.50422">
        <ele>1565.22</ele>
        <time>2022-02-27T09:41:49Z</time>
      </trkpt>
      <trkpt lat="42.84594" lon="0.50421">
        <ele>1565.066</ele>
        <time>2022-02-27T09:41:51Z</time>
      </trkpt>
      <trkpt lat="42.84593" lon="0.5042">
        <ele>1565.818</ele>
        <time>2022-02-27T09:41:53Z</time>
      </trkpt>
      <trkpt lat="42.84592" lon="0.50419">
        <ele>1565.743</ele>
        <time>2022-02-27T09:41:55Z</time>
      </trkpt>
      <trkpt lat="42.84591" lon="0.50418">
        <ele>1565.572</ele>
        <time>2022-02-27T09:41:57Z</time>
      </trkpt>
      <trkpt lat="42.8459" lon="0.50417">
        <ele>1565.783</ele>
        <time>2022-02-27T09:41:59Z</time>
      </trkpt>
      <trkpt lat="42.8459" lon="0.50415">
        <ele>1566.46</ele>
        <time>2022-02-27T09:42:01Z</time>
      </trkpt>
      <trkpt lat="42.84589" lon="0.50414">
        <ele>1566.934</ele>
        <time>2022-02-27T09:42:03Z</time>
      </trkpt>
      <trkpt lat="42.84589" lon="0.50413">
        <ele>1568.133</ele>
        <time>2022-02-27T09:42:05Z</time>
      </trkpt>
      <trkpt lat="42.84588" lon="0.50412">
        <ele>1568.815</ele>
        <time>2022-02-27T09:42:07Z</time>
      </trkpt>
      <trkpt lat="42.84588" lon="0.50411">
        <ele>1569.442</ele>
        <time>2022-02-27T09:42:09Z</time>
      </trkpt>
      <trkpt lat="42.84587" lon="0.5041">
        <ele>1570.194</ele>
        <time>2022-02-27T09:42:11Z</time>
      </trkpt>
      <trkpt lat="42.84586" lon="0.50408">
        <ele>1570.48</ele>
        <time>2022-02-27T09:42:13Z</time>
      </trkpt>
      <trkpt lat="42.84586" lon="0.50407">
        <ele>1571.091</ele>
        <time>2022-02-27T09:42:15Z</time>
      </trkpt>
      <trkpt lat="42.84585" lon="0.50406">
        <ele>1571.316</ele>
        <time>2022-02-27T09:42:17Z</time>
      </trkpt>
      <trkpt lat="42.84584" lon="0.50405">
        <ele>1571.719</ele>
        <time>2022-02-27T09:42:19Z</time>
      </trkpt>
      <trkpt lat="42.84583" lon="0.50404">
        <ele>1571.527</ele>
        <time>2022-02-27T09:42:21Z</time>
      </trkpt>
      <trkpt lat="42.84583" lon="0.50404">
        <ele>1572.487</ele>
        <time>2022-02-27T09:42:23Z</time>
      </trkpt>
      <trkpt lat="42.84583" lon="0.50403">
        <ele>1573.513</ele>
        <time>2022-02-27T09:42:25Z</time>
      </trkpt>
      <trkpt lat="42.84582" lon="0.50401">
        <ele>1574.065</ele>
        <time>2022-02-27T09:42:27Z</time>
      </trkpt>
      <trkpt lat="42.84582" lon="0.50401">
        <ele>1576.35</ele>
        <time>2022-02-27T09:42:29Z</time>
      </trkpt>
      <trkpt lat="42.84581" lon="0.504">
        <ele>1576.907</ele>
        <time>2022-02-27T09:42:31Z</time>
      </trkpt>
      <trkpt lat="42.84581" lon="0.50399">
        <ele>1576.666</ele>
        <time>2022-02-27T09:42:33Z</time>
      </trkpt>
      <trkpt lat="42.8458" lon="0.50398">
        <ele>1577.31</ele>
        <time>2022-02-27T09:42:35Z</time>
      </trkpt>
      <trkpt lat="42.84578" lon="0.50397">
        <ele>1577.357</ele>
        <time>2022-02-27T09:42:37Z</time>
      </trkpt>
      <trkpt lat="42.84577" lon="0.50396">
        <ele>1578.322</ele>
        <time>2022-02-27T09:42:39Z</time>
      </trkpt>
      <trkpt lat="42.84577" lon="0.50394">
        <ele>1578.963</ele>
        <time>2022-02-27T09:42:41Z</time>
      </trkpt>
      <trkpt lat="42.84577" lon="0.50393">
        <ele>1578.015</ele>
        <time>2022-02-27T09:42:43Z</time>
      </trkpt>
      <trkpt lat="42.84576" lon="0.50392">
        <ele>1579.058</ele>
        <time>2022-02-27T09:42:45Z</time>
      </trkpt>
      <trkpt lat="42.84578" lon="0.50394">
        <ele>1579.12</ele>
        <time>2022-02-27T09:42:47Z</time>
      </trkpt>
      <trkpt lat="42.84577" lon="0.50393">
        <ele>1578.656</ele>
        <time>2022-02-27T09:42:49Z</time>
      </trkpt>
      <trkpt lat="42.84575" lon="0.50391">
        <ele>1577.58</ele>
        <time>2022-02-27T09:42:51Z</time>
      </trkpt>
      <trkpt lat="42.84574" lon="0.50389">
        <ele>1577.598</ele>
        <time>2022-02-27T09:42:53Z</time>
      </trkpt>
      <trkpt lat="42.84572" lon="0.50387">
        <ele>1576.022</ele>
        <time>2022-02-27T09:42:55Z</time>
      </trkpt>
      <trkpt lat="42.84571" lon="0.50387">
        <ele>1576.335</ele>
        <time>2022-02-27T09:42:57Z</time>
      </trkpt>
      <trkpt lat="42.8457" lon="0.50386">
        <ele>1576.41</ele>
        <time>2022-02-27T09:42:59Z</time>
      </trkpt>
      <trkpt lat="42.8457" lon="0.50384">
        <ele>1577.077</ele>
        <time>2022-02-27T09:43:01Z</time>
      </trkpt>
      <trkpt lat="42.8457" lon="0.50384">
        <ele>1577.349</ele>
        <time>2022-02-27T09:43:03Z</time>
      </trkpt>
      <trkpt lat="42.84569" lon="0.50383">
        <ele>1576.658</ele>
        <time>2022-02-27T09:43:05Z</time>
      </trkpt>
      <trkpt lat="42.84568" lon="0.50382">
        <ele>1576.998</ele>
        <time>2022-02-27T09:43:07Z</time>
      </trkpt>
      <trkpt lat="42.84567" lon="0.50382">
        <ele>1577.314</ele>
        <time>2022-02-27T09:43:09Z</time>
      </trkpt>
      <trkpt lat="42.84566" lon="0.50381">
        <ele>1577.333</ele>
        <time>2022-02-27T09:43:11Z</time>
      </trkpt>
      <trkpt lat="42.84566" lon="0.50381">
        <ele>1577.836</ele>
        <time>2022-02-27T09:43:13Z</time>
      </trkpt>
      <trkpt lat="42.84566" lon="0.50381">
        <ele>1577.835</ele>
        <time>2022-02-27T09:43:15Z</time>
      </trkpt>
      <trkpt lat="42.84566" lon="0.50381">
        <ele>1577.832</ele>
        <time>2022-02-27T09:43:17Z</time>
      </trkpt>
      <trkpt lat="42.84566" lon="0.50381">
        <ele>1577.829</ele>
        <time>2022-02-27T09:43:19Z</time>
      </trkpt>
      <trkpt lat="42.84566" lon="0.50381">
        <ele>1577.815</ele>
        <time>2022-02-27T09:43:21Z</time>
      </trkpt>
      <trkpt lat="42.84566" lon="0.50381">
        <ele>1577.809</ele>
        <time>2022-02-27T09:43:23Z</time>
      </trkpt>
      <trkpt lat="42.84566" lon="0.50381">
        <ele>1577.795</ele>
        <time>2022-02-27T09:43:25Z</time>
      </trkpt>
      <trkpt lat="42.84566" lon="0.50381">
        <ele>1577.792</ele>
        <time>2022-02-27T09:43:27Z</time>
      </trkpt>
      <trkpt lat="42.84566" lon="0.50381">
        <ele>1577.814</ele>
        <time>2022-02-27T09:43:29Z</time>
      </trkpt>
      <trkpt lat="42.84566" lon="0.50381">
        <ele>1577.808</ele>
        <time>2022-02-27T09:43:31Z</time>
      </trkpt>
      <trkpt lat="42.84566" lon="0.50381">
        <ele>1577.819</ele>
        <time>2022-02-27T09:43:33Z</time>
      </trkpt>
      <trkpt lat="42.84566" lon="0.50381">
        <ele>1578.012</ele>
        <time>2022-02-27T09:43:35Z</time>
      </trkpt>
      <trkpt lat="42.84565" lon="0.5038">
        <ele>1579.077</ele>
        <time>2022-02-27T09:43:37Z</time>
      </trkpt>
      <trkpt lat="42.84564" lon="0.5038">
        <ele>1578.532</ele>
        <time>2022-02-27T09:43:39Z</time>
      </trkpt>
      <trkpt lat="42.84563" lon="0.5038">
        <ele>1578.349</ele>
        <time>2022-02-27T09:43:41Z</time>
      </trkpt>
      <trkpt lat="42.84563" lon="0.50379">
        <ele>1577.711</ele>
        <time>2022-02-27T09:43:43Z</time>
      </trkpt>
      <trkpt lat="42.84563" lon="0.50379">
        <ele>1579.005</ele>
        <time>2022-02-27T09:43:45Z</time>
      </trkpt>
      <trkpt lat="42.84562" lon="0.50377">
        <ele>1578.672</ele>
        <time>2022-02-27T09:43:47Z</time>
      </trkpt>
      <trkpt lat="42.84563" lon="0.50377">
        <ele>1579.996</ele>
        <time>2022-02-27T09:43:49Z</time>
      </trkpt>
      <trkpt lat="42.84562" lon="0.50375">
        <ele>1579.295</ele>
        <time>2022-02-27T09:43:51Z</time>
      </trkpt>
      <trkpt lat="42.84562" lon="0.50376">
        <ele>1580.088</ele>
        <time>2022-02-27T09:43:53Z</time>
      </trkpt>
      <trkpt lat="42.84562" lon="0.50376">
        <ele>1580.094</ele>
        <time>2022-02-27T09:43:55Z</time>
      </trkpt>
      <trkpt lat="42.84563" lon="0.50376">
        <ele>1580.589</ele>
        <time>2022-02-27T09:43:57Z</time>
      </trkpt>
      <trkpt lat="42.84563" lon="0.50377">
        <ele>1580.59</ele>
        <time>2022-02-27T09:43:59Z</time>
      </trkpt>
      <trkpt lat="42.84563" lon="0.50377">
        <ele>1580.607</ele>
        <time>2022-02-27T09:44:01Z</time>
      </trkpt>
      <trkpt lat="42.84563" lon="0.50377">
        <ele>1580.619</ele>
        <time>2022-02-27T09:44:03Z</time>
      </trkpt>
      <trkpt lat="42.84563" lon="0.50377">
        <ele>1580.632</ele>
        <time>2022-02-27T09:44:05Z</time>
      </trkpt>
      <trkpt lat="42.84563" lon="0.50377">
        <ele>1580.641</ele>
        <time>2022-02-27T09:44:07Z</time>
      </trkpt>
      <trkpt lat="42.84563" lon="0.50377">
        <ele>1580.642</ele>
        <time>2022-02-27T09:44:09Z</time>
      </trkpt>
      <trkpt lat="42.84563" lon="0.50377">
        <ele>1580.65</ele>
        <time>2022-02-27T09:44:11Z</time>
      </trkpt>
      <trkpt lat="42.84563" lon="0.50377">
        <ele>1580.66</ele>
        <time>2022-02-27T09:44:13Z</time>
      </trkpt>
      <trkpt lat="42.84563" lon="0.50377">
        <ele>1581.059</ele>
        <time>2022-02-27T09:44:15Z</time>
      </trkpt>
      <trkpt lat="42.84563" lon="0.50377">
        <ele>1580.995</ele>
        <time>2022-02-27T09:44:17Z</time>
      </trkpt>
      <trkpt lat="42.84563" lon="0.50377">
        <ele>1580.985</ele>
        <time>2022-02-27T09:44:19Z</time>
      </trkpt>
      <trkpt lat="42.84563" lon="0.50377">
        <ele>1580.973</ele>
        <time>2022-02-27T09:44:21Z</time>
      </trkpt>
      <trkpt lat="42.84563" lon="0.50377">
        <ele>1580.972</ele>
        <time>2022-02-27T09:44:23Z</time>
      </trkpt>
      <trkpt lat="42.84563" lon="0.50377">
        <ele>1580.973</ele>
        <time>2022-02-27T09:44:25Z</time>
      </trkpt>
      <trkpt lat="42.84563" lon="0.50377">
        <ele>1580.969</ele>
        <time>2022-02-27T09:44:27Z</time>
      </trkpt>
      <trkpt lat="42.84563" lon="0.50377">
        <ele>1580.966</ele>
        <time>2022-02-27T09:44:29Z</time>
      </trkpt>
      <trkpt lat="42.84563" lon="0.50377">
        <ele>1580.964</ele>
        <time>2022-02-27T09:44:31Z</time>
      </trkpt>
      <trkpt lat="42.84563" lon="0.50377">
        <ele>1580.964</ele>
        <time>2022-02-27T09:44:33Z</time>
      </trkpt>
      <trkpt lat="42.84563" lon="0.50377">
        <ele>1580.962</ele>
        <time>2022-02-27T09:44:35Z</time>
      </trkpt>
      <trkpt lat="42.84563" lon="0.50377">
        <ele>1580.966</ele>
        <time>2022-02-27T09:44:37Z</time>
      </trkpt>
      <trkpt lat="42.84563" lon="0.50377">
        <ele>1580.959</ele>
        <time>2022-02-27T09:44:39Z</time>
      </trkpt>
      <trkpt lat="42.84563" lon="0.50377">
        <ele>1580.962</ele>
        <time>2022-02-27T09:44:41Z</time>
      </trkpt>
      <trkpt lat="42.84563" lon="0.50377">
        <ele>1580.962</ele>
        <time>2022-02-27T09:44:43Z</time>
      </trkpt>
      <trkpt lat="42.84563" lon="0.50377">
        <ele>1580.966</ele>
        <time>2022-02-27T09:44:45Z</time>
      </trkpt>
      <trkpt lat="42.84563" lon="0.50377">
        <ele>1580.975</ele>
        <time>2022-02-27T09:44:47Z</time>
      </trkpt>
      <trkpt lat="42.84563" lon="0.50377">
        <ele>1580.972</ele>
        <time>2022-02-27T09:44:49Z</time>
      </trkpt>
      <trkpt lat="42.84563" lon="0.50377">
        <ele>1580.979</ele>
        <time>2022-02-27T09:44:51Z</time>
      </trkpt>
      <trkpt lat="42.84563" lon="0.50377">
        <ele>1580.99</ele>
        <time>2022-02-27T09:44:53Z</time>
      </trkpt>
      <trkpt lat="42.84563" lon="0.50377">
        <ele>1580.992</ele>
        <time>2022-02-27T09:44:55Z</time>
      </trkpt>
      <trkpt lat="42.84563" lon="0.50377">
        <ele>1581.285</ele>
        <time>2022-02-27T09:44:57Z</time>
      </trkpt>
      <trkpt lat="42.84563" lon="0.50378">
        <ele>1581.525</ele>
        <time>2022-02-27T09:44:59Z</time>
      </trkpt>
      <trkpt lat="42.84563" lon="0.50378">
        <ele>1581.74</ele>
        <time>2022-02-27T09:45:01Z</time>
      </trkpt>
      <trkpt lat="42.84563" lon="0.50378">
        <ele>1581.77</ele>
        <time>2022-02-27T09:45:03Z</time>
      </trkpt>
      <trkpt lat="42.84563" lon="0.50378">
        <ele>1581.776</ele>
        <time>2022-02-27T09:45:05Z</time>
      </trkpt>
      <trkpt lat="42.84563" lon="0.50378">
        <ele>1581.777</ele>
        <time>2022-02-27T09:45:07Z</time>
      </trkpt>
      <trkpt lat="42.84563" lon="0.50378">
        <ele>1581.793</ele>
        <time>2022-02-27T09:45:09Z</time>
      </trkpt>
      <trkpt lat="42.84563" lon="0.50378">
        <ele>1581.795</ele>
        <time>2022-02-27T09:45:11Z</time>
      </trkpt>
      <trkpt lat="42.84563" lon="0.50378">
        <ele>1582.353</ele>
        <time>2022-02-27T09:45:13Z</time>
      </trkpt>
      <trkpt lat="42.84564" lon="0.50378">
        <ele>1582.338</ele>
        <time>2022-02-27T09:45:15Z</time>
      </trkpt>
      <trkpt lat="42.84564" lon="0.50378">
        <ele>1582.36</ele>
        <time>2022-02-27T09:45:17Z</time>
      </trkpt>
      <trkpt lat="42.84564" lon="0.50378">
        <ele>1582.345</ele>
        <time>2022-02-27T09:45:19Z</time>
      </trkpt>
      <trkpt lat="42.84563" lon="0.50378">
        <ele>1582.589</ele>
        <time>2022-02-27T09:45:21Z</time>
      </trkpt>
      <trkpt lat="42.84563" lon="0.50377">
        <ele>1582.678</ele>
        <time>2022-02-27T09:45:23Z</time>
      </trkpt>
      <trkpt lat="42.84562" lon="0.50376">
        <ele>1581.643</ele>
        <time>2022-02-27T09:45:25Z</time>
      </trkpt>
      <trkpt lat="42.84561" lon="0.50375">
        <ele>1581.931</ele>
        <time>2022-02-27T09:45:27Z</time>
      </trkpt>
      <trkpt lat="42.8456" lon="0.50374">
        <ele>1581.517</ele>
        <time>2022-02-27T09:45:29Z</time>
      </trkpt>
      <trkpt lat="42.84559" lon="0.50374">
        <ele>1582.019</ele>
        <time>2022-02-27T09:45:31Z</time>
      </trkpt>
      <trkpt lat="42.84558" lon="0.50373">
        <ele>1581.971</ele>
        <time>2022-02-27T09:45:33Z</time>
      </trkpt>
      <trkpt lat="42.84557" lon="0.50373">
        <ele>1581.993</ele>
        <time>2022-02-27T09:45:35Z</time>
      </trkpt>
      <trkpt lat="42.84555" lon="0.50372">
        <ele>1581.49</ele>
        <time>2022-02-27T09:45:37Z</time>
      </trkpt>
      <trkpt lat="42.84555" lon="0.50371">
        <ele>1581.623</ele>
        <time>2022-02-27T09:45:39Z</time>
      </trkpt>
      <trkpt lat="42.84553" lon="0.50371">
        <ele>1581.912</ele>
        <time>2022-02-27T09:45:41Z</time>
      </trkpt>
      <trkpt lat="42.84553" lon="0.5037">
        <ele>1582.327</ele>
        <time>2022-02-27T09:45:43Z</time>
      </trkpt>
      <trkpt lat="42.84553" lon="0.50369">
        <ele>1582.629</ele>
        <time>2022-02-27T09:45:45Z</time>
      </trkpt>
      <trkpt lat="42.84552" lon="0.50368">
        <ele>1584.199</ele>
        <time>2022-02-27T09:45:47Z</time>
      </trkpt>
      <trkpt lat="42.84552" lon="0.50367">
        <ele>1583.943</ele>
        <time>2022-02-27T09:45:49Z</time>
      </trkpt>
      <trkpt lat="42.84551" lon="0.50366">
        <ele>1584.091</ele>
        <time>2022-02-27T09:45:51Z</time>
      </trkpt>
      <trkpt lat="42.8455" lon="0.50365">
        <ele>1583.465</ele>
        <time>2022-02-27T09:45:53Z</time>
      </trkpt>
      <trkpt lat="42.8455" lon="0.50364">
        <ele>1585.683</ele>
        <time>2022-02-27T09:45:55Z</time>
      </trkpt>
      <trkpt lat="42.8455" lon="0.50363">
        <ele>1585.888</ele>
        <time>2022-02-27T09:45:57Z</time>
      </trkpt>
      <trkpt lat="42.8455" lon="0.50362">
        <ele>1587.204</ele>
        <time>2022-02-27T09:45:59Z</time>
      </trkpt>
      <trkpt lat="42.8455" lon="0.50361">
        <ele>1587.723</ele>
        <time>2022-02-27T09:46:01Z</time>
      </trkpt>
      <trkpt lat="42.84549" lon="0.5036">
        <ele>1587.061</ele>
        <time>2022-02-27T09:46:03Z</time>
      </trkpt>
      <trkpt lat="42.84549" lon="0.50359">
        <ele>1587.377</ele>
        <time>2022-02-27T09:46:05Z</time>
      </trkpt>
      <trkpt lat="42.84548" lon="0.50358">
        <ele>1587.311</ele>
        <time>2022-02-27T09:46:07Z</time>
      </trkpt>
      <trkpt lat="42.84548" lon="0.50358">
        <ele>1586.769</ele>
        <time>2022-02-27T09:46:09Z</time>
      </trkpt>
      <trkpt lat="42.84548" lon="0.50357">
        <ele>1586.944</ele>
        <time>2022-02-27T09:46:11Z</time>
      </trkpt>
      <trkpt lat="42.84548" lon="0.50356">
        <ele>1587.388</ele>
        <time>2022-02-27T09:46:13Z</time>
      </trkpt>
      <trkpt lat="42.84548" lon="0.50354">
        <ele>1587.17</ele>
        <time>2022-02-27T09:46:15Z</time>
      </trkpt>
      <trkpt lat="42.84548" lon="0.50353">
        <ele>1587.673</ele>
        <time>2022-02-27T09:46:17Z</time>
      </trkpt>
      <trkpt lat="42.84547" lon="0.50353">
        <ele>1587.3</ele>
        <time>2022-02-27T09:46:19Z</time>
      </trkpt>
      <trkpt lat="42.84546" lon="0.50352">
        <ele>1588.869</ele>
        <time>2022-02-27T09:46:21Z</time>
      </trkpt>
      <trkpt lat="42.84546" lon="0.5035">
        <ele>1591.43</ele>
        <time>2022-02-27T09:46:23Z</time>
      </trkpt>
      <trkpt lat="42.84546" lon="0.50347">
        <ele>1594.001</ele>
        <time>2022-02-27T09:46:25Z</time>
      </trkpt>
      <trkpt lat="42.84547" lon="0.50346">
        <ele>1595.315</ele>
        <time>2022-02-27T09:46:27Z</time>
      </trkpt>
      <trkpt lat="42.84547" lon="0.50344">
        <ele>1596.185</ele>
        <time>2022-02-27T09:46:29Z</time>
      </trkpt>
      <trkpt lat="42.84546" lon="0.50343">
        <ele>1595.981</ele>
        <time>2022-02-27T09:46:31Z</time>
      </trkpt>
      <trkpt lat="42.84547" lon="0.50343">
        <ele>1596.208</ele>
        <time>2022-02-27T09:46:33Z</time>
      </trkpt>
      <trkpt lat="42.84547" lon="0.50343">
        <ele>1596.218</ele>
        <time>2022-02-27T09:46:35Z</time>
      </trkpt>
      <trkpt lat="42.84547" lon="0.50343">
        <ele>1596.225</ele>
        <time>2022-02-27T09:46:37Z</time>
      </trkpt>
      <trkpt lat="42.84547" lon="0.50343">
        <ele>1596.6</ele>
        <time>2022-02-27T09:46:39Z</time>
      </trkpt>
      <trkpt lat="42.84547" lon="0.50343">
        <ele>1597.91</ele>
        <time>2022-02-27T09:46:41Z</time>
      </trkpt>
      <trkpt lat="42.84547" lon="0.50343">
        <ele>1598.038</ele>
        <time>2022-02-27T09:46:43Z</time>
      </trkpt>
      <trkpt lat="42.84547" lon="0.50343">
        <ele>1598.037</ele>
        <time>2022-02-27T09:46:45Z</time>
      </trkpt>
      <trkpt lat="42.84547" lon="0.50343">
        <ele>1598.021</ele>
        <time>2022-02-27T09:46:47Z</time>
      </trkpt>
      <trkpt lat="42.84547" lon="0.50343">
        <ele>1598.021</ele>
        <time>2022-02-27T09:46:49Z</time>
      </trkpt>
      <trkpt lat="42.84547" lon="0.50343">
        <ele>1598.021</ele>
        <time>2022-02-27T09:46:51Z</time>
      </trkpt>
      <trkpt lat="42.84547" lon="0.50343">
        <ele>1598.009</ele>
        <time>2022-02-27T09:46:53Z</time>
      </trkpt>
      <trkpt lat="42.84547" lon="0.50343">
        <ele>1597.9</ele>
        <time>2022-02-27T09:46:55Z</time>
      </trkpt>
      <trkpt lat="42.84547" lon="0.50342">
        <ele>1597.78</ele>
        <time>2022-02-27T09:46:57Z</time>
      </trkpt>
      <trkpt lat="42.84547" lon="0.50342">
        <ele>1598.021</ele>
        <time>2022-02-27T09:46:59Z</time>
      </trkpt>
      <trkpt lat="42.84547" lon="0.50341">
        <ele>1598.26</ele>
        <time>2022-02-27T09:47:01Z</time>
      </trkpt>
      <trkpt lat="42.84547" lon="0.50341">
        <ele>1598.212</ele>
        <time>2022-02-27T09:47:03Z</time>
      </trkpt>
      <trkpt lat="42.84547" lon="0.50341">
        <ele>1598.202</ele>
        <time>2022-02-27T09:47:05Z</time>
      </trkpt>
      <trkpt lat="42.84547" lon="0.50341">
        <ele>1598.205</ele>
        <time>2022-02-27T09:47:07Z</time>
      </trkpt>
      <trkpt lat="42.84546" lon="0.5034">
        <ele>1597.838</ele>
        <time>2022-02-27T09:47:09Z</time>
      </trkpt>
      <trkpt lat="42.84546" lon="0.50339">
        <ele>1597.359</ele>
        <time>2022-02-27T09:47:11Z</time>
      </trkpt>
      <trkpt lat="42.84545" lon="0.50337">
        <ele>1595.781</ele>
        <time>2022-02-27T09:47:13Z</time>
      </trkpt>
      <trkpt lat="42.84545" lon="0.50336">
        <ele>1595.512</ele>
        <time>2022-02-27T09:47:15Z</time>
      </trkpt>
      <trkpt lat="42.84544" lon="0.50334">
        <ele>1595.329</ele>
        <time>2022-02-27T09:47:17Z</time>
      </trkpt>
      <trkpt lat="42.84544" lon="0.50333">
        <ele>1595.659</ele>
        <time>2022-02-27T09:47:19Z</time>
      </trkpt>
      <trkpt lat="42.84543" lon="0.50331">
        <ele>1595.93</ele>
        <time>2022-02-27T09:47:21Z</time>
      </trkpt>
      <trkpt lat="42.84542" lon="0.5033">
        <ele>1596.66</ele>
        <time>2022-02-27T09:47:23Z</time>
      </trkpt>
      <trkpt lat="42.84541" lon="0.50329">
        <ele>1596.858</ele>
        <time>2022-02-27T09:47:25Z</time>
      </trkpt>
      <trkpt lat="42.8454" lon="0.50328">
        <ele>1598.272</ele>
        <time>2022-02-27T09:47:27Z</time>
      </trkpt>
      <trkpt lat="42.84539" lon="0.50328">
        <ele>1598.883</ele>
        <time>2022-02-27T09:47:29Z</time>
      </trkpt>
      <trkpt lat="42.84539" lon="0.50327">
        <ele>1598.928</ele>
        <time>2022-02-27T09:47:31Z</time>
      </trkpt>
      <trkpt lat="42.84538" lon="0.50326">
        <ele>1599.847</ele>
        <time>2022-02-27T09:47:33Z</time>
      </trkpt>
      <trkpt lat="42.84537" lon="0.50325">
        <ele>1599.701</ele>
        <time>2022-02-27T09:47:35Z</time>
      </trkpt>
      <trkpt lat="42.84536" lon="0.50324">
        <ele>1600.002</ele>
        <time>2022-02-27T09:47:37Z</time>
      </trkpt>
      <trkpt lat="42.84536" lon="0.50323">
        <ele>1600.919</ele>
        <time>2022-02-27T09:47:39Z</time>
      </trkpt>
      <trkpt lat="42.84536" lon="0.50323">
        <ele>1601.755</ele>
        <time>2022-02-27T09:47:41Z</time>
      </trkpt>
      <trkpt lat="42.84535" lon="0.50323">
        <ele>1602.535</ele>
        <time>2022-02-27T09:47:43Z</time>
      </trkpt>
      <trkpt lat="42.84535" lon="0.50323">
        <ele>1603.477</ele>
        <time>2022-02-27T09:47:45Z</time>
      </trkpt>
      <trkpt lat="42.84534" lon="0.50323">
        <ele>1602.363</ele>
        <time>2022-02-27T09:47:47Z</time>
      </trkpt>
      <trkpt lat="42.84534" lon="0.50322">
        <ele>1602.905</ele>
        <time>2022-02-27T09:47:49Z</time>
      </trkpt>
      <trkpt lat="42.84533" lon="0.50321">
        <ele>1602.937</ele>
        <time>2022-02-27T09:47:51Z</time>
      </trkpt>
      <trkpt lat="42.84532" lon="0.5032">
        <ele>1602.515</ele>
        <time>2022-02-27T09:47:53Z</time>
      </trkpt>
      <trkpt lat="42.84532" lon="0.50319">
        <ele>1603.495</ele>
        <time>2022-02-27T09:47:55Z</time>
      </trkpt>
      <trkpt lat="42.84531" lon="0.50318">
        <ele>1603.509</ele>
        <time>2022-02-27T09:47:57Z</time>
      </trkpt>
      <trkpt lat="42.8453" lon="0.50318">
        <ele>1604.141</ele>
        <time>2022-02-27T09:47:59Z</time>
      </trkpt>
      <trkpt lat="42.84529" lon="0.50319">
        <ele>1602.947</ele>
        <time>2022-02-27T09:48:01Z</time>
      </trkpt>
      <trkpt lat="42.8453" lon="0.50319">
        <ele>1603.575</ele>
        <time>2022-02-27T09:48:03Z</time>
      </trkpt>
      <trkpt lat="42.8453" lon="0.50319">
        <ele>1603.584</ele>
        <time>2022-02-27T09:48:05Z</time>
      </trkpt>
      <trkpt lat="42.8453" lon="0.50319">
        <ele>1603.592</ele>
        <time>2022-02-27T09:48:07Z</time>
      </trkpt>
      <trkpt lat="42.8453" lon="0.50319">
        <ele>1603.596</ele>
        <time>2022-02-27T09:48:09Z</time>
      </trkpt>
      <trkpt lat="42.8453" lon="0.50319">
        <ele>1603.601</ele>
        <time>2022-02-27T09:48:11Z</time>
      </trkpt>
      <trkpt lat="42.8453" lon="0.50319">
        <ele>1603.606</ele>
        <time>2022-02-27T09:48:13Z</time>
      </trkpt>
      <trkpt lat="42.8453" lon="0.50319">
        <ele>1603.607</ele>
        <time>2022-02-27T09:48:15Z</time>
      </trkpt>
      <trkpt lat="42.84529" lon="0.50319">
        <ele>1603.504</ele>
        <time>2022-02-27T09:48:17Z</time>
      </trkpt>
      <trkpt lat="42.84529" lon="0.5032">
        <ele>1603.951</ele>
        <time>2022-02-27T09:48:19Z</time>
      </trkpt>
      <trkpt lat="42.84527" lon="0.50319">
        <ele>1603.662</ele>
        <time>2022-02-27T09:48:21Z</time>
      </trkpt>
      <trkpt lat="42.84527" lon="0.50318">
        <ele>1604.117</ele>
        <time>2022-02-27T09:48:23Z</time>
      </trkpt>
      <trkpt lat="42.84527" lon="0.50317">
        <ele>1605.327</ele>
        <time>2022-02-27T09:48:25Z</time>
      </trkpt>
      <trkpt lat="42.84526" lon="0.50317">
        <ele>1607.028</ele>
        <time>2022-02-27T09:48:27Z</time>
      </trkpt>
      <trkpt lat="42.84527" lon="0.50317">
        <ele>1606.95</ele>
        <time>2022-02-27T09:48:29Z</time>
      </trkpt>
      <trkpt lat="42.84527" lon="0.50317">
        <ele>1607.251</ele>
        <time>2022-02-27T09:48:31Z</time>
      </trkpt>
      <trkpt lat="42.84527" lon="0.50317">
        <ele>1607.849</ele>
        <time>2022-02-27T09:48:33Z</time>
      </trkpt>
      <trkpt lat="42.84527" lon="0.50317">
        <ele>1607.847</ele>
        <time>2022-02-27T09:48:35Z</time>
      </trkpt>
      <trkpt lat="42.84527" lon="0.50317">
        <ele>1607.851</ele>
        <time>2022-02-27T09:48:37Z</time>
      </trkpt>
      <trkpt lat="42.84527" lon="0.50317">
        <ele>1607.852</ele>
        <time>2022-02-27T09:48:39Z</time>
      </trkpt>
      <trkpt lat="42.84527" lon="0.50317">
        <ele>1607.855</ele>
        <time>2022-02-27T09:48:41Z</time>
      </trkpt>
      <trkpt lat="42.84527" lon="0.50317">
        <ele>1607.855</ele>
        <time>2022-02-27T09:48:43Z</time>
      </trkpt>
      <trkpt lat="42.84527" lon="0.50317">
        <ele>1607.856</ele>
        <time>2022-02-27T09:48:45Z</time>
      </trkpt>
      <trkpt lat="42.84526" lon="0.50318">
        <ele>1608.252</ele>
        <time>2022-02-27T09:48:47Z</time>
      </trkpt>
      <trkpt lat="42.84526" lon="0.50318">
        <ele>1608.578</ele>
        <time>2022-02-27T09:48:49Z</time>
      </trkpt>
      <trkpt lat="42.84525" lon="0.50318">
        <ele>1608.573</ele>
        <time>2022-02-27T09:48:51Z</time>
      </trkpt>
      <trkpt lat="42.84525" lon="0.50318">
        <ele>1608.561</ele>
        <time>2022-02-27T09:48:53Z</time>
      </trkpt>
      <trkpt lat="42.84526" lon="0.50319">
        <ele>1608.806</ele>
        <time>2022-02-27T09:48:55Z</time>
      </trkpt>
      <trkpt lat="42.84526" lon="0.50318">
        <ele>1609.066</ele>
        <time>2022-02-27T09:48:57Z</time>
      </trkpt>
      <trkpt lat="42.84526" lon="0.50318">
        <ele>1609.073</ele>
        <time>2022-02-27T09:48:59Z</time>
      </trkpt>
      <trkpt lat="42.84525" lon="0.50318">
        <ele>1609.175</ele>
        <time>2022-02-27T09:49:01Z</time>
      </trkpt>
      <trkpt lat="42.84525" lon="0.50317">
        <ele>1609.102</ele>
        <time>2022-02-27T09:49:03Z</time>
      </trkpt>
      <trkpt lat="42.84524" lon="0.50318">
        <ele>1609.05</ele>
        <time>2022-02-27T09:49:05Z</time>
      </trkpt>
      <trkpt lat="42.84524" lon="0.50318">
        <ele>1609.047</ele>
        <time>2022-02-27T09:49:07Z</time>
      </trkpt>
      <trkpt lat="42.84524" lon="0.50318">
        <ele>1609.045</ele>
        <time>2022-02-27T09:49:09Z</time>
      </trkpt>
      <trkpt lat="42.84524" lon="0.50318">
        <ele>1609.043</ele>
        <time>2022-02-27T09:49:11Z</time>
      </trkpt>
      <trkpt lat="42.84524" lon="0.50318">
        <ele>1609.252</ele>
        <time>2022-02-27T09:49:13Z</time>
      </trkpt>
      <trkpt lat="42.84524" lon="0.50317">
        <ele>1609.632</ele>
        <time>2022-02-27T09:49:15Z</time>
      </trkpt>
      <trkpt lat="42.84524" lon="0.50316">
        <ele>1609.96</ele>
        <time>2022-02-27T09:49:17Z</time>
      </trkpt>
      <trkpt lat="42.84522" lon="0.50317">
        <ele>1608.934</ele>
        <time>2022-02-27T09:49:19Z</time>
      </trkpt>
      <trkpt lat="42.84521" lon="0.50316">
        <ele>1611.197</ele>
        <time>2022-02-27T09:49:21Z</time>
      </trkpt>
      <trkpt lat="42.84521" lon="0.50317">
        <ele>1610.366</ele>
        <time>2022-02-27T09:49:23Z</time>
      </trkpt>
      <trkpt lat="42.84521" lon="0.50317">
        <ele>1609.96</ele>
        <time>2022-02-27T09:49:25Z</time>
      </trkpt>
      <trkpt lat="42.84521" lon="0.50318">
        <ele>1609.287</ele>
        <time>2022-02-27T09:49:27Z</time>
      </trkpt>
      <trkpt lat="42.84521" lon="0.50318">
        <ele>1608.577</ele>
        <time>2022-02-27T09:49:29Z</time>
      </trkpt>
      <trkpt lat="42.84521" lon="0.50317">
        <ele>1610.311</ele>
        <time>2022-02-27T09:49:31Z</time>
      </trkpt>
      <trkpt lat="42.84522" lon="0.50317">
        <ele>1610.327</ele>
        <time>2022-02-27T09:49:33Z</time>
      </trkpt>
      <trkpt lat="42.84522" lon="0.50316">
        <ele>1611.044</ele>
        <time>2022-02-27T09:49:35Z</time>
      </trkpt>
      <trkpt lat="42.84522" lon="0.50314">
        <ele>1611.885</ele>
        <time>2022-02-27T09:49:37Z</time>
      </trkpt>
      <trkpt lat="42.84522" lon="0.50314">
        <ele>1611.948</ele>
        <time>2022-02-27T09:49:39Z</time>
      </trkpt>
      <trkpt lat="42.84522" lon="0.50314">
        <ele>1611.851</ele>
        <time>2022-02-27T09:49:41Z</time>
      </trkpt>
      <trkpt lat="42.84522" lon="0.50314">
        <ele>1611.8</ele>
        <time>2022-02-27T09:49:43Z</time>
      </trkpt>
      <trkpt lat="42.84522" lon="0.50314">
        <ele>1611.795</ele>
        <time>2022-02-27T09:49:45Z</time>
      </trkpt>
      <trkpt lat="42.84522" lon="0.50314">
        <ele>1613.324</ele>
        <time>2022-02-27T09:49:47Z</time>
      </trkpt>
      <trkpt lat="42.84522" lon="0.50314">
        <ele>1614.533</ele>
        <time>2022-02-27T09:49:49Z</time>
      </trkpt>
      <trkpt lat="42.84522" lon="0.50314">
        <ele>1613.645</ele>
        <time>2022-02-27T09:49:51Z</time>
      </trkpt>
      <trkpt lat="42.84522" lon="0.50314">
        <ele>1613.643</ele>
        <time>2022-02-27T09:49:53Z</time>
      </trkpt>
      <trkpt lat="42.84522" lon="0.50314">
        <ele>1613.645</ele>
        <time>2022-02-27T09:49:55Z</time>
      </trkpt>
      <trkpt lat="42.84522" lon="0.50314">
        <ele>1613.643</ele>
        <time>2022-02-27T09:49:57Z</time>
      </trkpt>
      <trkpt lat="42.84522" lon="0.50314">
        <ele>1613.641</ele>
        <time>2022-02-27T09:49:59Z</time>
      </trkpt>
      <trkpt lat="42.84522" lon="0.50314">
        <ele>1613.638</ele>
        <time>2022-02-27T09:50:01Z</time>
      </trkpt>
      <trkpt lat="42.84522" lon="0.50314">
        <ele>1613.636</ele>
        <time>2022-02-27T09:50:03Z</time>
      </trkpt>
      <trkpt lat="42.84522" lon="0.50314">
        <ele>1613.645</ele>
        <time>2022-02-27T09:50:05Z</time>
      </trkpt>
      <trkpt lat="42.84522" lon="0.50314">
        <ele>1613.648</ele>
        <time>2022-02-27T09:50:07Z</time>
      </trkpt>
      <trkpt lat="42.84522" lon="0.50314">
        <ele>1613.653</ele>
        <time>2022-02-27T09:50:09Z</time>
      </trkpt>
      <trkpt lat="42.84522" lon="0.50314">
        <ele>1613.659</ele>
        <time>2022-02-27T09:50:11Z</time>
      </trkpt>
      <trkpt lat="42.84522" lon="0.50314">
        <ele>1613.659</ele>
        <time>2022-02-27T09:50:13Z</time>
      </trkpt>
      <trkpt lat="42.84522" lon="0.50314">
        <ele>1613.771</ele>
        <time>2022-02-27T09:50:15Z</time>
      </trkpt>
      <trkpt lat="42.84522" lon="0.50314">
        <ele>1613.77</ele>
        <time>2022-02-27T09:50:17Z</time>
      </trkpt>
      <trkpt lat="42.84522" lon="0.50314">
        <ele>1613.482</ele>
        <time>2022-02-27T09:50:19Z</time>
      </trkpt>
      <trkpt lat="42.84522" lon="0.50314">
        <ele>1613.48</ele>
        <time>2022-02-27T09:50:21Z</time>
      </trkpt>
      <trkpt lat="42.84522" lon="0.50314">
        <ele>1613.476</ele>
        <time>2022-02-27T09:50:23Z</time>
      </trkpt>
      <trkpt lat="42.84522" lon="0.50314">
        <ele>1613.475</ele>
        <time>2022-02-27T09:50:25Z</time>
      </trkpt>
      <trkpt lat="42.84522" lon="0.50314">
        <ele>1613.475</ele>
        <time>2022-02-27T09:50:27Z</time>
      </trkpt>
      <trkpt lat="42.84522" lon="0.50314">
        <ele>1613.472</ele>
        <time>2022-02-27T09:50:29Z</time>
      </trkpt>
      <trkpt lat="42.84522" lon="0.50314">
        <ele>1613.469</ele>
        <time>2022-02-27T09:50:31Z</time>
      </trkpt>
      <trkpt lat="42.84522" lon="0.50314">
        <ele>1613.023</ele>
        <time>2022-02-27T09:50:33Z</time>
      </trkpt>
      <trkpt lat="42.84522" lon="0.50314">
        <ele>1612.979</ele>
        <time>2022-02-27T09:50:35Z</time>
      </trkpt>
      <trkpt lat="42.84522" lon="0.50314">
        <ele>1612.972</ele>
        <time>2022-02-27T09:50:37Z</time>
      </trkpt>
      <trkpt lat="42.84522" lon="0.50314">
        <ele>1612.932</ele>
        <time>2022-02-27T09:50:39Z</time>
      </trkpt>
      <trkpt lat="42.84522" lon="0.50313">
        <ele>1613.824</ele>
        <time>2022-02-27T09:50:41Z</time>
      </trkpt>
      <trkpt lat="42.84523" lon="0.50312">
        <ele>1614.503</ele>
        <time>2022-02-27T09:50:43Z</time>
      </trkpt>
      <trkpt lat="42.84523" lon="0.50312">
        <ele>1614.283</ele>
        <time>2022-02-27T09:50:45Z</time>
      </trkpt>
      <trkpt lat="42.84524" lon="0.50313">
        <ele>1614.725</ele>
        <time>2022-02-27T09:50:47Z</time>
      </trkpt>
      <trkpt lat="42.84524" lon="0.50313">
        <ele>1614.812</ele>
        <time>2022-02-27T09:50:49Z</time>
      </trkpt>
      <trkpt lat="42.84524" lon="0.50312">
        <ele>1615.978</ele>
        <time>2022-02-27T09:50:51Z</time>
      </trkpt>
      <trkpt lat="42.84524" lon="0.50312">
        <ele>1615.653</ele>
        <time>2022-02-27T09:50:53Z</time>
      </trkpt>
      <trkpt lat="42.84523" lon="0.50313">
        <ele>1613.238</ele>
        <time>2022-02-27T09:50:55Z</time>
      </trkpt>
      <trkpt lat="42.84524" lon="0.50316">
        <ele>1613.326</ele>
        <time>2022-02-27T09:50:57Z</time>
      </trkpt>
      <trkpt lat="42.84523" lon="0.50318">
        <ele>1612.525</ele>
        <time>2022-02-27T09:50:59Z</time>
      </trkpt>
      <trkpt lat="42.84523" lon="0.50318">
        <ele>1612.857</ele>
        <time>2022-02-27T09:51:01Z</time>
      </trkpt>
      <trkpt lat="42.84523" lon="0.50318">
        <ele>1613.161</ele>
        <time>2022-02-27T09:51:03Z</time>
      </trkpt>
      <trkpt lat="42.84523" lon="0.5032">
        <ele>1613.382</ele>
        <time>2022-02-27T09:51:05Z</time>
      </trkpt>
      <trkpt lat="42.84524" lon="0.50321">
        <ele>1613.262</ele>
        <time>2022-02-27T09:51:07Z</time>
      </trkpt>
      <trkpt lat="42.84524" lon="0.50321">
        <ele>1613.345</ele>
        <time>2022-02-27T09:51:09Z</time>
      </trkpt>
      <trkpt lat="42.84524" lon="0.50321">
        <ele>1613.007</ele>
        <time>2022-02-27T09:51:11Z</time>
      </trkpt>
      <trkpt lat="42.84524" lon="0.50321">
        <ele>1613.006</ele>
        <time>2022-02-27T09:51:13Z</time>
      </trkpt>
      <trkpt lat="42.84524" lon="0.50321">
        <ele>1613.001</ele>
        <time>2022-02-27T09:51:15Z</time>
      </trkpt>
      <trkpt lat="42.84524" lon="0.50321">
        <ele>1612.984</ele>
        <time>2022-02-27T09:51:17Z</time>
      </trkpt>
      <trkpt lat="42.84524" lon="0.50321">
        <ele>1612.979</ele>
        <time>2022-02-27T09:51:19Z</time>
      </trkpt>
      <trkpt lat="42.84524" lon="0.50321">
        <ele>1612.971</ele>
        <time>2022-02-27T09:51:21Z</time>
      </trkpt>
      <trkpt lat="42.84524" lon="0.50321">
        <ele>1612.966</ele>
        <time>2022-02-27T09:51:23Z</time>
      </trkpt>
      <trkpt lat="42.84524" lon="0.50321">
        <ele>1612.964</ele>
        <time>2022-02-27T09:51:25Z</time>
      </trkpt>
      <trkpt lat="42.84524" lon="0.50321">
        <ele>1612.882</ele>
        <time>2022-02-27T09:51:27Z</time>
      </trkpt>
      <trkpt lat="42.84524" lon="0.5032">
        <ele>1613.268</ele>
        <time>2022-02-27T09:51:29Z</time>
      </trkpt>
      <trkpt lat="42.84521" lon="0.5032">
        <ele>1612.534</ele>
        <time>2022-02-27T09:51:31Z</time>
      </trkpt>
      <trkpt lat="42.8452" lon="0.50318">
        <ele>1611.986</ele>
        <time>2022-02-27T09:51:33Z</time>
      </trkpt>
      <trkpt lat="42.8452" lon="0.50316">
        <ele>1613.013</ele>
        <time>2022-02-27T09:51:35Z</time>
      </trkpt>
      <trkpt lat="42.84518" lon="0.50315">
        <ele>1612.364</ele>
        <time>2022-02-27T09:51:37Z</time>
      </trkpt>
      <trkpt lat="42.84517" lon="0.50314">
        <ele>1612.287</ele>
        <time>2022-02-27T09:51:39Z</time>
      </trkpt>
      <trkpt lat="42.84515" lon="0.50315">
        <ele>1611.182</ele>
        <time>2022-02-27T09:51:41Z</time>
      </trkpt>
      <trkpt lat="42.84512" lon="0.50315">
        <ele>1610.276</ele>
        <time>2022-02-27T09:51:43Z</time>
      </trkpt>
      <trkpt lat="42.84511" lon="0.50316">
        <ele>1609.033</ele>
        <time>2022-02-27T09:51:45Z</time>
      </trkpt>
      <trkpt lat="42.8451" lon="0.50318">
        <ele>1609.608</ele>
        <time>2022-02-27T09:51:47Z</time>
      </trkpt>
      <trkpt lat="42.84509" lon="0.50317">
        <ele>1611.384</ele>
        <time>2022-02-27T09:51:49Z</time>
      </trkpt>
      <trkpt lat="42.84508" lon="0.50319">
        <ele>1611.16</ele>
        <time>2022-02-27T09:51:51Z</time>
      </trkpt>
      <trkpt lat="42.84507" lon="0.50321">
        <ele>1611.195</ele>
        <time>2022-02-27T09:51:53Z</time>
      </trkpt>
      <trkpt lat="42.84507" lon="0.50323">
        <ele>1612.195</ele>
        <time>2022-02-27T09:51:55Z</time>
      </trkpt>
      <trkpt lat="42.84508" lon="0.50323">
        <ele>1612.574</ele>
        <time>2022-02-27T09:51:57Z</time>
      </trkpt>
      <trkpt lat="42.84507" lon="0.50324">
        <ele>1612.178</ele>
        <time>2022-02-27T09:51:59Z</time>
      </trkpt>
      <trkpt lat="42.84506" lon="0.50324">
        <ele>1613.093</ele>
        <time>2022-02-27T09:52:01Z</time>
      </trkpt>
      <trkpt lat="42.84504" lon="0.50323">
        <ele>1612.234</ele>
        <time>2022-02-27T09:52:03Z</time>
      </trkpt>
      <trkpt lat="42.84503" lon="0.50322">
        <ele>1611.239</ele>
        <time>2022-02-27T09:52:05Z</time>
      </trkpt>
      <trkpt lat="42.84502" lon="0.50322">
        <ele>1611.438</ele>
        <time>2022-02-27T09:52:07Z</time>
      </trkpt>
      <trkpt lat="42.84501" lon="0.50321">
        <ele>1611.615</ele>
        <time>2022-02-27T09:52:09Z</time>
      </trkpt>
      <trkpt lat="42.845" lon="0.50321">
        <ele>1611.867</ele>
        <time>2022-02-27T09:52:11Z</time>
      </trkpt>
      <trkpt lat="42.84499" lon="0.50323">
        <ele>1611.067</ele>
        <time>2022-02-27T09:52:13Z</time>
      </trkpt>
      <trkpt lat="42.845" lon="0.50326">
        <ele>1612.259</ele>
        <time>2022-02-27T09:52:15Z</time>
      </trkpt>
      <trkpt lat="42.845" lon="0.50326">
        <ele>1612.133</ele>
        <time>2022-02-27T09:52:17Z</time>
      </trkpt>
      <trkpt lat="42.845" lon="0.50326">
        <ele>1612.117</ele>
        <time>2022-02-27T09:52:19Z</time>
      </trkpt>
      <trkpt lat="42.845" lon="0.50326">
        <ele>1612.099</ele>
        <time>2022-02-27T09:52:21Z</time>
      </trkpt>
      <trkpt lat="42.845" lon="0.50326">
        <ele>1612.11</ele>
        <time>2022-02-27T09:52:23Z</time>
      </trkpt>
      <trkpt lat="42.845" lon="0.50326">
        <ele>1612.112</ele>
        <time>2022-02-27T09:52:25Z</time>
      </trkpt>
      <trkpt lat="42.845" lon="0.50326">
        <ele>1612.117</ele>
        <time>2022-02-27T09:52:27Z</time>
      </trkpt>
      <trkpt lat="42.845" lon="0.50326">
        <ele>1612.109</ele>
        <time>2022-02-27T09:52:29Z</time>
      </trkpt>
      <trkpt lat="42.845" lon="0.50326">
        <ele>1612.105</ele>
        <time>2022-02-27T09:52:31Z</time>
      </trkpt>
      <trkpt lat="42.845" lon="0.50327">
        <ele>1611.414</ele>
        <time>2022-02-27T09:52:33Z</time>
      </trkpt>
      <trkpt lat="42.84502" lon="0.50328">
        <ele>1611.739</ele>
        <time>2022-02-27T09:52:35Z</time>
      </trkpt>
      <trkpt lat="42.84503" lon="0.5033">
        <ele>1612.92</ele>
        <time>2022-02-27T09:52:37Z</time>
      </trkpt>
      <trkpt lat="42.84502" lon="0.5033">
        <ele>1612.93</ele>
        <time>2022-02-27T09:52:39Z</time>
      </trkpt>
      <trkpt lat="42.84502" lon="0.5033">
        <ele>1612.573</ele>
        <time>2022-02-27T09:52:41Z</time>
      </trkpt>
      <trkpt lat="42.84503" lon="0.5033">
        <ele>1609.798</ele>
        <time>2022-02-27T09:52:43Z</time>
      </trkpt>
      <trkpt lat="42.84505" lon="0.50332">
        <ele>1611.096</ele>
        <time>2022-02-27T09:52:45Z</time>
      </trkpt>
      <trkpt lat="42.84506" lon="0.50336">
        <ele>1610.246</ele>
        <time>2022-02-27T09:52:47Z</time>
      </trkpt>
      <trkpt lat="42.84506" lon="0.50338">
        <ele>1610.118</ele>
        <time>2022-02-27T09:52:49Z</time>
      </trkpt>
      <trkpt lat="42.84506" lon="0.50339">
        <ele>1610.74</ele>
        <time>2022-02-27T09:52:51Z</time>
      </trkpt>
      <trkpt lat="42.84505" lon="0.50338">
        <ele>1611.093</ele>
        <time>2022-02-27T09:52:53Z</time>
      </trkpt>
      <trkpt lat="42.84505" lon="0.5034">
        <ele>1612.295</ele>
        <time>2022-02-27T09:52:55Z</time>
      </trkpt>
      <trkpt lat="42.84506" lon="0.5034">
        <ele>1612.217</ele>
        <time>2022-02-27T09:52:57Z</time>
      </trkpt>
      <trkpt lat="42.84506" lon="0.50341">
        <ele>1613.571</ele>
        <time>2022-02-27T09:52:59Z</time>
      </trkpt>
      <trkpt lat="42.84506" lon="0.50342">
        <ele>1614.354</ele>
        <time>2022-02-27T09:53:01Z</time>
      </trkpt>
      <trkpt lat="42.84506" lon="0.50344">
        <ele>1614.687</ele>
        <time>2022-02-27T09:53:03Z</time>
      </trkpt>
      <trkpt lat="42.84506" lon="0.50344">
        <ele>1614.787</ele>
        <time>2022-02-27T09:53:05Z</time>
      </trkpt>
      <trkpt lat="42.84505" lon="0.50345">
        <ele>1613.747</ele>
        <time>2022-02-27T09:53:07Z</time>
      </trkpt>
      <trkpt lat="42.84505" lon="0.50345">
        <ele>1613.664</ele>
        <time>2022-02-27T09:53:09Z</time>
      </trkpt>
      <trkpt lat="42.84505" lon="0.50345">
        <ele>1613.5</ele>
        <time>2022-02-27T09:53:11Z</time>
      </trkpt>
      <trkpt lat="42.84504" lon="0.50344">
        <ele>1612.916</ele>
        <time>2022-02-27T09:53:13Z</time>
      </trkpt>
      <trkpt lat="42.84502" lon="0.50344">
        <ele>1613.573</ele>
        <time>2022-02-27T09:53:15Z</time>
      </trkpt>
      <trkpt lat="42.84502" lon="0.50344">
        <ele>1614.346</ele>
        <time>2022-02-27T09:53:17Z</time>
      </trkpt>
      <trkpt lat="42.84502" lon="0.50343">
        <ele>1614.55</ele>
        <time>2022-02-27T09:53:19Z</time>
      </trkpt>
      <trkpt lat="42.84502" lon="0.50343">
        <ele>1614.554</ele>
        <time>2022-02-27T09:53:21Z</time>
      </trkpt>
      <trkpt lat="42.84502" lon="0.50344">
        <ele>1614.988</ele>
        <time>2022-02-27T09:53:23Z</time>
      </trkpt>
      <trkpt lat="42.84501" lon="0.50342">
        <ele>1616.704</ele>
        <time>2022-02-27T09:53:25Z</time>
      </trkpt>
      <trkpt lat="42.845" lon="0.50341">
        <ele>1617.232</ele>
        <time>2022-02-27T09:53:27Z</time>
      </trkpt>
      <trkpt lat="42.845" lon="0.5034">
        <ele>1616.861</ele>
        <time>2022-02-27T09:53:29Z</time>
      </trkpt>
      <trkpt lat="42.84502" lon="0.50343">
        <ele>1615.617</ele>
        <time>2022-02-27T09:53:31Z</time>
      </trkpt>
      <trkpt lat="42.84502" lon="0.50345">
        <ele>1616.999</ele>
        <time>2022-02-27T09:53:33Z</time>
      </trkpt>
      <trkpt lat="42.84502" lon="0.50345">
        <ele>1617</ele>
        <time>2022-02-27T09:53:35Z</time>
      </trkpt>
      <trkpt lat="42.84502" lon="0.50345">
        <ele>1616.986</ele>
        <time>2022-02-27T09:53:37Z</time>
      </trkpt>
      <trkpt lat="42.84502" lon="0.50345">
        <ele>1616.994</ele>
        <time>2022-02-27T09:53:39Z</time>
      </trkpt>
      <trkpt lat="42.84502" lon="0.50345">
        <ele>1616.999</ele>
        <time>2022-02-27T09:53:41Z</time>
      </trkpt>
      <trkpt lat="42.84502" lon="0.50345">
        <ele>1617.534</ele>
        <time>2022-02-27T09:53:43Z</time>
      </trkpt>
      <trkpt lat="42.84502" lon="0.50347">
        <ele>1617.65</ele>
        <time>2022-02-27T09:53:45Z</time>
      </trkpt>
      <trkpt lat="42.84503" lon="0.50349">
        <ele>1617.743</ele>
        <time>2022-02-27T09:53:47Z</time>
      </trkpt>
      <trkpt lat="42.84503" lon="0.50351">
        <ele>1618.446</ele>
        <time>2022-02-27T09:53:49Z</time>
      </trkpt>
      <trkpt lat="42.84503" lon="0.50351">
        <ele>1617.942</ele>
        <time>2022-02-27T09:53:51Z</time>
      </trkpt>
      <trkpt lat="42.84502" lon="0.50354">
        <ele>1617.779</ele>
        <time>2022-02-27T09:53:53Z</time>
      </trkpt>
      <trkpt lat="42.84503" lon="0.50354">
        <ele>1617.824</ele>
        <time>2022-02-27T09:53:55Z</time>
      </trkpt>
      <trkpt lat="42.84503" lon="0.50355">
        <ele>1617.6</ele>
        <time>2022-02-27T09:53:57Z</time>
      </trkpt>
      <trkpt lat="42.84503" lon="0.50355">
        <ele>1618.558</ele>
        <time>2022-02-27T09:53:59Z</time>
      </trkpt>
      <trkpt lat="42.84503" lon="0.50356">
        <ele>1618.532</ele>
        <time>2022-02-27T09:54:01Z</time>
      </trkpt>
      <trkpt lat="42.84503" lon="0.50358">
        <ele>1618.065</ele>
        <time>2022-02-27T09:54:03Z</time>
      </trkpt>
      <trkpt lat="42.84503" lon="0.50357">
        <ele>1618.552</ele>
        <time>2022-02-27T09:54:05Z</time>
      </trkpt>
      <trkpt lat="42.84503" lon="0.50358">
        <ele>1619.573</ele>
        <time>2022-02-27T09:54:07Z</time>
      </trkpt>
      <trkpt lat="42.84503" lon="0.50358">
        <ele>1619.197</ele>
        <time>2022-02-27T09:54:09Z</time>
      </trkpt>
      <trkpt lat="42.84501" lon="0.50359">
        <ele>1618.812</ele>
        <time>2022-02-27T09:54:11Z</time>
      </trkpt>
      <trkpt lat="42.845" lon="0.5036">
        <ele>1619.719</ele>
        <time>2022-02-27T09:54:13Z</time>
      </trkpt>
      <trkpt lat="42.84499" lon="0.5036">
        <ele>1620.207</ele>
        <time>2022-02-27T09:54:15Z</time>
      </trkpt>
      <trkpt lat="42.84498" lon="0.5036">
        <ele>1621.811</ele>
        <time>2022-02-27T09:54:17Z</time>
      </trkpt>
      <trkpt lat="42.84498" lon="0.50359">
        <ele>1621.825</ele>
        <time>2022-02-27T09:54:19Z</time>
      </trkpt>
      <trkpt lat="42.84498" lon="0.50359">
        <ele>1622.124</ele>
        <time>2022-02-27T09:54:21Z</time>
      </trkpt>
      <trkpt lat="42.84499" lon="0.5036">
        <ele>1619.93</ele>
        <time>2022-02-27T09:54:23Z</time>
      </trkpt>
      <trkpt lat="42.84499" lon="0.50361">
        <ele>1619.744</ele>
        <time>2022-02-27T09:54:25Z</time>
      </trkpt>
      <trkpt lat="42.84498" lon="0.50361">
        <ele>1618.042</ele>
        <time>2022-02-27T09:54:27Z</time>
      </trkpt>
      <trkpt lat="42.84498" lon="0.50361">
        <ele>1617.089</ele>
        <time>2022-02-27T09:54:29Z</time>
      </trkpt>
      <trkpt lat="42.84497" lon="0.5036">
        <ele>1618.182</ele>
        <time>2022-02-27T09:54:31Z</time>
      </trkpt>
      <trkpt lat="42.84496" lon="0.50359">
        <ele>1618.18</ele>
        <time>2022-02-27T09:54:33Z</time>
      </trkpt>
      <trkpt lat="42.84495" lon="0.50357">
        <ele>1618.396</ele>
        <time>2022-02-27T09:54:35Z</time>
      </trkpt>
      <trkpt lat="42.84494" lon="0.50357">
        <ele>1617.199</ele>
        <time>2022-02-27T09:54:37Z</time>
      </trkpt>
      <trkpt lat="42.84493" lon="0.50356">
        <ele>1618.344</ele>
        <time>2022-02-27T09:54:39Z</time>
      </trkpt>
      <trkpt lat="42.84493" lon="0.50356">
        <ele>1618.247</ele>
        <time>2022-02-27T09:54:41Z</time>
      </trkpt>
      <trkpt lat="42.84493" lon="0.50356">
        <ele>1618.251</ele>
        <time>2022-02-27T09:54:43Z</time>
      </trkpt>
      <trkpt lat="42.84493" lon="0.50356">
        <ele>1618.314</ele>
        <time>2022-02-27T09:54:45Z</time>
      </trkpt>
      <trkpt lat="42.84493" lon="0.50357">
        <ele>1618.952</ele>
        <time>2022-02-27T09:54:47Z</time>
      </trkpt>
      <trkpt lat="42.84492" lon="0.50359">
        <ele>1618.638</ele>
        <time>2022-02-27T09:54:49Z</time>
      </trkpt>
      <trkpt lat="42.84491" lon="0.5036">
        <ele>1616.478</ele>
        <time>2022-02-27T09:54:51Z</time>
      </trkpt>
      <trkpt lat="42.8449" lon="0.50361">
        <ele>1616.324</ele>
        <time>2022-02-27T09:54:53Z</time>
      </trkpt>
      <trkpt lat="42.84489" lon="0.50362">
        <ele>1615.704</ele>
        <time>2022-02-27T09:54:55Z</time>
      </trkpt>
      <trkpt lat="42.8449" lon="0.50364">
        <ele>1615.625</ele>
        <time>2022-02-27T09:54:57Z</time>
      </trkpt>
      <trkpt lat="42.8449" lon="0.50363">
        <ele>1615.999</ele>
        <time>2022-02-27T09:54:59Z</time>
      </trkpt>
      <trkpt lat="42.84489" lon="0.50363">
        <ele>1615.772</ele>
        <time>2022-02-27T09:55:01Z</time>
      </trkpt>
      <trkpt lat="42.84488" lon="0.50363">
        <ele>1616.517</ele>
        <time>2022-02-27T09:55:03Z</time>
      </trkpt>
      <trkpt lat="42.84488" lon="0.50363">
        <ele>1617.507</ele>
        <time>2022-02-27T09:55:05Z</time>
      </trkpt>
      <trkpt lat="42.84487" lon="0.50363">
        <ele>1618.378</ele>
        <time>2022-02-27T09:55:07Z</time>
      </trkpt>
      <trkpt lat="42.84486" lon="0.50363">
        <ele>1620.034</ele>
        <time>2022-02-27T09:55:09Z</time>
      </trkpt>
      <trkpt lat="42.84485" lon="0.50362">
        <ele>1620.511</ele>
        <time>2022-02-27T09:55:11Z</time>
      </trkpt>
      <trkpt lat="42.84484" lon="0.50361">
        <ele>1621.434</ele>
        <time>2022-02-27T09:55:13Z</time>
      </trkpt>
      <trkpt lat="42.84484" lon="0.5036">
        <ele>1623.21</ele>
        <time>2022-02-27T09:55:15Z</time>
      </trkpt>
      <trkpt lat="42.84483" lon="0.50358">
        <ele>1624.296</ele>
        <time>2022-02-27T09:55:17Z</time>
      </trkpt>
      <trkpt lat="42.84482" lon="0.50359">
        <ele>1624.693</ele>
        <time>2022-02-27T09:55:19Z</time>
      </trkpt>
      <trkpt lat="42.84482" lon="0.50359">
        <ele>1624.697</ele>
        <time>2022-02-27T09:55:21Z</time>
      </trkpt>
      <trkpt lat="42.84482" lon="0.50358">
        <ele>1624.485</ele>
        <time>2022-02-27T09:55:23Z</time>
      </trkpt>
      <trkpt lat="42.84482" lon="0.50359">
        <ele>1623.995</ele>
        <time>2022-02-27T09:55:25Z</time>
      </trkpt>
      <trkpt lat="42.84481" lon="0.5036">
        <ele>1624.058</ele>
        <time>2022-02-27T09:55:27Z</time>
      </trkpt>
      <trkpt lat="42.84481" lon="0.5036">
        <ele>1623.598</ele>
        <time>2022-02-27T09:55:29Z</time>
      </trkpt>
      <trkpt lat="42.8448" lon="0.5036">
        <ele>1625.042</ele>
        <time>2022-02-27T09:55:31Z</time>
      </trkpt>
      <trkpt lat="42.84479" lon="0.50359">
        <ele>1625.219</ele>
        <time>2022-02-27T09:55:33Z</time>
      </trkpt>
      <trkpt lat="42.84478" lon="0.50358">
        <ele>1626.446</ele>
        <time>2022-02-27T09:55:35Z</time>
      </trkpt>
      <trkpt lat="42.84477" lon="0.50358">
        <ele>1627.353</ele>
        <time>2022-02-27T09:55:37Z</time>
      </trkpt>
      <trkpt lat="42.84477" lon="0.50358">
        <ele>1627.602</ele>
        <time>2022-02-27T09:55:39Z</time>
      </trkpt>
      <trkpt lat="42.84477" lon="0.50358">
        <ele>1627.608</ele>
        <time>2022-02-27T09:55:41Z</time>
      </trkpt>
      <trkpt lat="42.84477" lon="0.50358">
        <ele>1627.609</ele>
        <time>2022-02-27T09:55:43Z</time>
      </trkpt>
      <trkpt lat="42.84477" lon="0.50358">
        <ele>1627.63</ele>
        <time>2022-02-27T09:55:45Z</time>
      </trkpt>
      <trkpt lat="42.84477" lon="0.50358">
        <ele>1627.637</ele>
        <time>2022-02-27T09:55:47Z</time>
      </trkpt>
      <trkpt lat="42.84477" lon="0.50358">
        <ele>1627.644</ele>
        <time>2022-02-27T09:55:49Z</time>
      </trkpt>
      <trkpt lat="42.84477" lon="0.50358">
        <ele>1627.667</ele>
        <time>2022-02-27T09:55:51Z</time>
      </trkpt>
      <trkpt lat="42.84477" lon="0.50358">
        <ele>1627.667</ele>
        <time>2022-02-27T09:55:53Z</time>
      </trkpt>
      <trkpt lat="42.84477" lon="0.50358">
        <ele>1627.668</ele>
        <time>2022-02-27T09:55:55Z</time>
      </trkpt>
      <trkpt lat="42.84477" lon="0.50358">
        <ele>1627.671</ele>
        <time>2022-02-27T09:55:57Z</time>
      </trkpt>
      <trkpt lat="42.84477" lon="0.50357">
        <ele>1627.969</ele>
        <time>2022-02-27T09:55:59Z</time>
      </trkpt>
      <trkpt lat="42.84476" lon="0.50357">
        <ele>1627.737</ele>
        <time>2022-02-27T09:56:01Z</time>
      </trkpt>
      <trkpt lat="42.84476" lon="0.50357">
        <ele>1627.553</ele>
        <time>2022-02-27T09:56:03Z</time>
      </trkpt>
      <trkpt lat="42.84476" lon="0.50357">
        <ele>1627.553</ele>
        <time>2022-02-27T09:56:05Z</time>
      </trkpt>
      <trkpt lat="42.84476" lon="0.50357">
        <ele>1627.386</ele>
        <time>2022-02-27T09:56:07Z</time>
      </trkpt>
      <trkpt lat="42.84476" lon="0.50357">
        <ele>1627.482</ele>
        <time>2022-02-27T09:56:09Z</time>
      </trkpt>
      <trkpt lat="42.84476" lon="0.50357">
        <ele>1627.496</ele>
        <time>2022-02-27T09:56:11Z</time>
      </trkpt>
      <trkpt lat="42.84476" lon="0.50357">
        <ele>1627.513</ele>
        <time>2022-02-27T09:56:13Z</time>
      </trkpt>
      <trkpt lat="42.84476" lon="0.50357">
        <ele>1627.547</ele>
        <time>2022-02-27T09:56:15Z</time>
      </trkpt>
      <trkpt lat="42.84476" lon="0.50357">
        <ele>1627.569</ele>
        <time>2022-02-27T09:56:17Z</time>
      </trkpt>
      <trkpt lat="42.84476" lon="0.50357">
        <ele>1627.581</ele>
        <time>2022-02-27T09:56:19Z</time>
      </trkpt>
      <trkpt lat="42.84476" lon="0.50357">
        <ele>1627.598</ele>
        <time>2022-02-27T09:56:21Z</time>
      </trkpt>
      <trkpt lat="42.84476" lon="0.50357">
        <ele>1627.998</ele>
        <time>2022-02-27T09:56:23Z</time>
      </trkpt>
      <trkpt lat="42.84476" lon="0.50357">
        <ele>1627.983</ele>
        <time>2022-02-27T09:56:25Z</time>
      </trkpt>
      <trkpt lat="42.84476" lon="0.50357">
        <ele>1627.979</ele>
        <time>2022-02-27T09:56:27Z</time>
      </trkpt>
      <trkpt lat="42.84476" lon="0.50357">
        <ele>1627.7</ele>
        <time>2022-02-27T09:56:29Z</time>
      </trkpt>
      <trkpt lat="42.84476" lon="0.50357">
        <ele>1627.726</ele>
        <time>2022-02-27T09:56:31Z</time>
      </trkpt>
      <trkpt lat="42.84476" lon="0.50357">
        <ele>1627.738</ele>
        <time>2022-02-27T09:56:33Z</time>
      </trkpt>
      <trkpt lat="42.84476" lon="0.50357">
        <ele>1627.648</ele>
        <time>2022-02-27T09:56:35Z</time>
      </trkpt>
      <trkpt lat="42.84476" lon="0.50357">
        <ele>1627.648</ele>
        <time>2022-02-27T09:56:37Z</time>
      </trkpt>
      <trkpt lat="42.84476" lon="0.50358">
        <ele>1627.555</ele>
        <time>2022-02-27T09:56:39Z</time>
      </trkpt>
      <trkpt lat="42.84476" lon="0.50358">
        <ele>1627.555</ele>
        <time>2022-02-27T09:56:41Z</time>
      </trkpt>
      <trkpt lat="42.84476" lon="0.50358">
        <ele>1627.56</ele>
        <time>2022-02-27T09:56:43Z</time>
      </trkpt>
      <trkpt lat="42.84476" lon="0.50358">
        <ele>1627.575</ele>
        <time>2022-02-27T09:56:45Z</time>
      </trkpt>
      <trkpt lat="42.84476" lon="0.50358">
        <ele>1627.56</ele>
        <time>2022-02-27T09:56:47Z</time>
      </trkpt>
      <trkpt lat="42.84476" lon="0.50358">
        <ele>1627.559</ele>
        <time>2022-02-27T09:56:49Z</time>
      </trkpt>
      <trkpt lat="42.84476" lon="0.50358">
        <ele>1627.558</ele>
        <time>2022-02-27T09:56:51Z</time>
      </trkpt>
      <trkpt lat="42.84476" lon="0.50358">
        <ele>1627.573</ele>
        <time>2022-02-27T09:56:53Z</time>
      </trkpt>
      <trkpt lat="42.84475" lon="0.50358">
        <ele>1627.996</ele>
        <time>2022-02-27T09:56:55Z</time>
      </trkpt>
      <trkpt lat="42.84475" lon="0.50358">
        <ele>1628.002</ele>
        <time>2022-02-27T09:56:57Z</time>
      </trkpt>
      <trkpt lat="42.84474" lon="0.50359">
        <ele>1629.512</ele>
        <time>2022-02-27T09:56:59Z</time>
      </trkpt>
      <trkpt lat="42.84474" lon="0.50359">
        <ele>1629.19</ele>
        <time>2022-02-27T09:57:01Z</time>
      </trkpt>
      <trkpt lat="42.84474" lon="0.50359">
        <ele>1629.197</ele>
        <time>2022-02-27T09:57:03Z</time>
      </trkpt>
      <trkpt lat="42.84474" lon="0.50359">
        <ele>1629.221</ele>
        <time>2022-02-27T09:57:05Z</time>
      </trkpt>
      <trkpt lat="42.84474" lon="0.50359">
        <ele>1629.6</ele>
        <time>2022-02-27T09:57:07Z</time>
      </trkpt>
      <trkpt lat="42.84474" lon="0.50359">
        <ele>1629.852</ele>
        <time>2022-02-27T09:57:09Z</time>
      </trkpt>
      <trkpt lat="42.84473" lon="0.50358">
        <ele>1629.868</ele>
        <time>2022-02-27T09:57:11Z</time>
      </trkpt>
      <trkpt lat="42.84474" lon="0.50359">
        <ele>1629.812</ele>
        <time>2022-02-27T09:57:13Z</time>
      </trkpt>
      <trkpt lat="42.84474" lon="0.50359">
        <ele>1629.815</ele>
        <time>2022-02-27T09:57:15Z</time>
      </trkpt>
      <trkpt lat="42.84474" lon="0.50359">
        <ele>1629.82</ele>
        <time>2022-02-27T09:57:17Z</time>
      </trkpt>
      <trkpt lat="42.84474" lon="0.50359">
        <ele>1629.815</ele>
        <time>2022-02-27T09:57:19Z</time>
      </trkpt>
      <trkpt lat="42.84474" lon="0.50359">
        <ele>1629.816</ele>
        <time>2022-02-27T09:57:21Z</time>
      </trkpt>
      <trkpt lat="42.84474" lon="0.50359">
        <ele>1629.819</ele>
        <time>2022-02-27T09:57:23Z</time>
      </trkpt>
      <trkpt lat="42.84474" lon="0.50359">
        <ele>1629.827</ele>
        <time>2022-02-27T09:57:25Z</time>
      </trkpt>
      <trkpt lat="42.84473" lon="0.5036">
        <ele>1630.232</ele>
        <time>2022-02-27T09:57:27Z</time>
      </trkpt>
      <trkpt lat="42.84472" lon="0.50361">
        <ele>1630.317</ele>
        <time>2022-02-27T09:57:29Z</time>
      </trkpt>
      <trkpt lat="42.84472" lon="0.50362">
        <ele>1631.402</ele>
        <time>2022-02-27T09:57:31Z</time>
      </trkpt>
      <trkpt lat="42.84472" lon="0.50364">
        <ele>1630.556</ele>
        <time>2022-02-27T09:57:33Z</time>
      </trkpt>
      <trkpt lat="42.84472" lon="0.50363">
        <ele>1631.047</ele>
        <time>2022-02-27T09:57:35Z</time>
      </trkpt>
      <trkpt lat="42.84472" lon="0.50363">
        <ele>1631.044</ele>
        <time>2022-02-27T09:57:37Z</time>
      </trkpt>
      <trkpt lat="42.84472" lon="0.50363">
        <ele>1631.052</ele>
        <time>2022-02-27T09:57:39Z</time>
      </trkpt>
      <trkpt lat="42.84472" lon="0.50362">
        <ele>1630.822</ele>
        <time>2022-02-27T09:57:41Z</time>
      </trkpt>
      <trkpt lat="42.84472" lon="0.50362">
        <ele>1630.851</ele>
        <time>2022-02-27T09:57:43Z</time>
      </trkpt>
      <trkpt lat="42.84472" lon="0.50362">
        <ele>1630.847</ele>
        <time>2022-02-27T09:57:45Z</time>
      </trkpt>
      <trkpt lat="42.84472" lon="0.50362">
        <ele>1630.623</ele>
        <time>2022-02-27T09:57:47Z</time>
      </trkpt>
      <trkpt lat="42.84473" lon="0.50362">
        <ele>1630.983</ele>
        <time>2022-02-27T09:57:49Z</time>
      </trkpt>
      <trkpt lat="42.84473" lon="0.50362">
        <ele>1630.412</ele>
        <time>2022-02-27T09:57:51Z</time>
      </trkpt>
      <trkpt lat="42.84474" lon="0.50362">
        <ele>1630.535</ele>
        <time>2022-02-27T09:57:53Z</time>
      </trkpt>
      <trkpt lat="42.84474" lon="0.50362">
        <ele>1630.535</ele>
        <time>2022-02-27T09:57:55Z</time>
      </trkpt>
      <trkpt lat="42.84474" lon="0.50361">
        <ele>1630.591</ele>
        <time>2022-02-27T09:57:57Z</time>
      </trkpt>
      <trkpt lat="42.84475" lon="0.50361">
        <ele>1629.836</ele>
        <time>2022-02-27T09:57:59Z</time>
      </trkpt>
      <trkpt lat="42.84476" lon="0.5036">
        <ele>1630.851</ele>
        <time>2022-02-27T09:58:01Z</time>
      </trkpt>
      <trkpt lat="42.84477" lon="0.50358">
        <ele>1630.523</ele>
        <time>2022-02-27T09:58:03Z</time>
      </trkpt>
      <trkpt lat="42.84478" lon="0.50357">
        <ele>1630.646</ele>
        <time>2022-02-27T09:58:05Z</time>
      </trkpt>
      <trkpt lat="42.84479" lon="0.50356">
        <ele>1630.509</ele>
        <time>2022-02-27T09:58:07Z</time>
      </trkpt>
      <trkpt lat="42.84479" lon="0.50356">
        <ele>1630.092</ele>
        <time>2022-02-27T09:58:09Z</time>
      </trkpt>
      <trkpt lat="42.84479" lon="0.50356">
        <ele>1630.106</ele>
        <time>2022-02-27T09:58:11Z</time>
      </trkpt>
      <trkpt lat="42.84479" lon="0.50356">
        <ele>1630.2</ele>
        <time>2022-02-27T09:58:13Z</time>
      </trkpt>
      <trkpt lat="42.8448" lon="0.50356">
        <ele>1629.526</ele>
        <time>2022-02-27T09:58:15Z</time>
      </trkpt>
      <trkpt lat="42.8448" lon="0.50356">
        <ele>1628.85</ele>
        <time>2022-02-27T09:58:17Z</time>
      </trkpt>
      <trkpt lat="42.8448" lon="0.50356">
        <ele>1628.711</ele>
        <time>2022-02-27T09:58:19Z</time>
      </trkpt>
      <trkpt lat="42.84479" lon="0.50355">
        <ele>1629.106</ele>
        <time>2022-02-27T09:58:21Z</time>
      </trkpt>
      <trkpt lat="42.84479" lon="0.50354">
        <ele>1629.568</ele>
        <time>2022-02-27T09:58:23Z</time>
      </trkpt>
      <trkpt lat="42.84479" lon="0.50354">
        <ele>1629.805</ele>
        <time>2022-02-27T09:58:25Z</time>
      </trkpt>
      <trkpt lat="42.84479" lon="0.50354">
        <ele>1629.806</ele>
        <time>2022-02-27T09:58:27Z</time>
      </trkpt>
      <trkpt lat="42.84479" lon="0.50353">
        <ele>1629.277</ele>
        <time>2022-02-27T09:58:29Z</time>
      </trkpt>
      <trkpt lat="42.84478" lon="0.50353">
        <ele>1629.165</ele>
        <time>2022-02-27T09:58:31Z</time>
      </trkpt>
      <trkpt lat="42.84478" lon="0.50353">
        <ele>1629.147</ele>
        <time>2022-02-27T09:58:33Z</time>
      </trkpt>
      <trkpt lat="42.84477" lon="0.50353">
        <ele>1629.056</ele>
        <time>2022-02-27T09:58:35Z</time>
      </trkpt>
      <trkpt lat="42.84476" lon="0.50352">
        <ele>1629.106</ele>
        <time>2022-02-27T09:58:37Z</time>
      </trkpt>
      <trkpt lat="42.84476" lon="0.50352">
        <ele>1629.135</ele>
        <time>2022-02-27T09:58:39Z</time>
      </trkpt>
      <trkpt lat="42.84476" lon="0.50352">
        <ele>1629.149</ele>
        <time>2022-02-27T09:58:41Z</time>
      </trkpt>
      <trkpt lat="42.84476" lon="0.50352">
        <ele>1629.148</ele>
        <time>2022-02-27T09:58:43Z</time>
      </trkpt>
      <trkpt lat="42.84476" lon="0.50352">
        <ele>1629.151</ele>
        <time>2022-02-27T09:58:45Z</time>
      </trkpt>
      <trkpt lat="42.84476" lon="0.50352">
        <ele>1629.15</ele>
        <time>2022-02-27T09:58:47Z</time>
      </trkpt>
      <trkpt lat="42.84476" lon="0.50352">
        <ele>1628.836</ele>
        <time>2022-02-27T09:58:49Z</time>
      </trkpt>
      <trkpt lat="42.84476" lon="0.5035">
        <ele>1628.54</ele>
        <time>2022-02-27T09:58:51Z</time>
      </trkpt>
      <trkpt lat="42.84477" lon="0.50348">
        <ele>1629.141</ele>
        <time>2022-02-27T09:58:53Z</time>
      </trkpt>
      <trkpt lat="42.84477" lon="0.50347">
        <ele>1628.171</ele>
        <time>2022-02-27T09:58:55Z</time>
      </trkpt>
      <trkpt lat="42.84477" lon="0.50345">
        <ele>1628.766</ele>
        <time>2022-02-27T09:58:57Z</time>
      </trkpt>
      <trkpt lat="42.84477" lon="0.50344">
        <ele>1626.932</ele>
        <time>2022-02-27T09:58:59Z</time>
      </trkpt>
      <trkpt lat="42.84477" lon="0.50342">
        <ele>1627.312</ele>
        <time>2022-02-27T09:59:01Z</time>
      </trkpt>
      <trkpt lat="42.84477" lon="0.50341">
        <ele>1626.786</ele>
        <time>2022-02-27T09:59:03Z</time>
      </trkpt>
      <trkpt lat="42.84477" lon="0.50342">
        <ele>1626.903</ele>
        <time>2022-02-27T09:59:05Z</time>
      </trkpt>
      <trkpt lat="42.84477" lon="0.50342">
        <ele>1626.898</ele>
        <time>2022-02-27T09:59:07Z</time>
      </trkpt>
      <trkpt lat="42.84477" lon="0.50342">
        <ele>1626.903</ele>
        <time>2022-02-27T09:59:09Z</time>
      </trkpt>
      <trkpt lat="42.84477" lon="0.50342">
        <ele>1626.56</ele>
        <time>2022-02-27T09:59:11Z</time>
      </trkpt>
      <trkpt lat="42.84477" lon="0.50342">
        <ele>1626.568</ele>
        <time>2022-02-27T09:59:13Z</time>
      </trkpt>
      <trkpt lat="42.84477" lon="0.50342">
        <ele>1626.581</ele>
        <time>2022-02-27T09:59:15Z</time>
      </trkpt>
      <trkpt lat="42.84477" lon="0.50342">
        <ele>1626.575</ele>
        <time>2022-02-27T09:59:17Z</time>
      </trkpt>
      <trkpt lat="42.84477" lon="0.50342">
        <ele>1626.563</ele>
        <time>2022-02-27T09:59:19Z</time>
      </trkpt>
      <trkpt lat="42.84477" lon="0.50342">
        <ele>1626.563</ele>
        <time>2022-02-27T09:59:21Z</time>
      </trkpt>
      <trkpt lat="42.84477" lon="0.50342">
        <ele>1626.57</ele>
        <time>2022-02-27T09:59:23Z</time>
      </trkpt>
      <trkpt lat="42.84477" lon="0.50342">
        <ele>1626.581</ele>
        <time>2022-02-27T09:59:25Z</time>
      </trkpt>
      <trkpt lat="42.84477" lon="0.50342">
        <ele>1626.572</ele>
        <time>2022-02-27T09:59:27Z</time>
      </trkpt>
      <trkpt lat="42.84477" lon="0.50342">
        <ele>1626.548</ele>
        <time>2022-02-27T09:59:29Z</time>
      </trkpt>
      <trkpt lat="42.84477" lon="0.50342">
        <ele>1626.54</ele>
        <time>2022-02-27T09:59:31Z</time>
      </trkpt>
      <trkpt lat="42.84477" lon="0.50342">
        <ele>1626.509</ele>
        <time>2022-02-27T09:59:33Z</time>
      </trkpt>
      <trkpt lat="42.84477" lon="0.50342">
        <ele>1626.493</ele>
        <time>2022-02-27T09:59:35Z</time>
      </trkpt>
      <trkpt lat="42.84477" lon="0.50342">
        <ele>1626.454</ele>
        <time>2022-02-27T09:59:37Z</time>
      </trkpt>
      <trkpt lat="42.84477" lon="0.50342">
        <ele>1626.432</ele>
        <time>2022-02-27T09:59:39Z</time>
      </trkpt>
      <trkpt lat="42.84478" lon="0.50342">
        <ele>1626.421</ele>
        <time>2022-02-27T09:59:41Z</time>
      </trkpt>
      <trkpt lat="42.84478" lon="0.50342">
        <ele>1626.403</ele>
        <time>2022-02-27T09:59:43Z</time>
      </trkpt>
      <trkpt lat="42.84478" lon="0.50342">
        <ele>1626.386</ele>
        <time>2022-02-27T09:59:45Z</time>
      </trkpt>
      <trkpt lat="42.84478" lon="0.50342">
        <ele>1626.38</ele>
        <time>2022-02-27T09:59:47Z</time>
      </trkpt>
      <trkpt lat="42.84478" lon="0.50342">
        <ele>1625.739</ele>
        <time>2022-02-27T09:59:49Z</time>
      </trkpt>
      <trkpt lat="42.84478" lon="0.50342">
        <ele>1626.951</ele>
        <time>2022-02-27T09:59:51Z</time>
      </trkpt>
      <trkpt lat="42.84478" lon="0.5034">
        <ele>1627.514</ele>
        <time>2022-02-27T09:59:53Z</time>
      </trkpt>
      <trkpt lat="42.84479" lon="0.50339">
        <ele>1625.996</ele>
        <time>2022-02-27T09:59:55Z</time>
      </trkpt>
      <trkpt lat="42.84479" lon="0.50339">
        <ele>1625.744</ele>
        <time>2022-02-27T09:59:57Z</time>
      </trkpt>
      <trkpt lat="42.84479" lon="0.50339">
        <ele>1625.743</ele>
        <time>2022-02-27T09:59:59Z</time>
      </trkpt>
      <trkpt lat="42.84479" lon="0.50339">
        <ele>1626.011</ele>
        <time>2022-02-27T10:00:01Z</time>
      </trkpt>
      <trkpt lat="42.8448" lon="0.50339">
        <ele>1626.303</ele>
        <time>2022-02-27T10:00:03Z</time>
      </trkpt>
      <trkpt lat="42.8448" lon="0.50341">
        <ele>1625.403</ele>
        <time>2022-02-27T10:00:05Z</time>
      </trkpt>
      <trkpt lat="42.84479" lon="0.5034">
        <ele>1626.269</ele>
        <time>2022-02-27T10:00:07Z</time>
      </trkpt>
      <trkpt lat="42.84481" lon="0.50339">
        <ele>1625.03</ele>
        <time>2022-02-27T10:00:09Z</time>
      </trkpt>
      <trkpt lat="42.84482" lon="0.50339">
        <ele>1624.109</ele>
        <time>2022-02-27T10:00:11Z</time>
      </trkpt>
      <trkpt lat="42.84483" lon="0.50338">
        <ele>1624.441</ele>
        <time>2022-02-27T10:00:13Z</time>
      </trkpt>
      <trkpt lat="42.84483" lon="0.50336">
        <ele>1623.854</ele>
        <time>2022-02-27T10:00:15Z</time>
      </trkpt>
      <trkpt lat="42.84483" lon="0.50336">
        <ele>1623.849</ele>
        <time>2022-02-27T10:00:17Z</time>
      </trkpt>
      <trkpt lat="42.84484" lon="0.50337">
        <ele>1623.541</ele>
        <time>2022-02-27T10:00:19Z</time>
      </trkpt>
      <trkpt lat="42.84484" lon="0.50336">
        <ele>1621.784</ele>
        <time>2022-02-27T10:00:21Z</time>
      </trkpt>
      <trkpt lat="42.84485" lon="0.50333">
        <ele>1622.258</ele>
        <time>2022-02-27T10:00:23Z</time>
      </trkpt>
      <trkpt lat="42.84484" lon="0.50331">
        <ele>1623.732</ele>
        <time>2022-02-27T10:00:25Z</time>
      </trkpt>
      <trkpt lat="42.84483" lon="0.50329">
        <ele>1623.842</ele>
        <time>2022-02-27T10:00:27Z</time>
      </trkpt>
      <trkpt lat="42.84483" lon="0.50328">
        <ele>1623.555</ele>
        <time>2022-02-27T10:00:29Z</time>
      </trkpt>
      <trkpt lat="42.84483" lon="0.50326">
        <ele>1624.04</ele>
        <time>2022-02-27T10:00:31Z</time>
      </trkpt>
      <trkpt lat="42.84482" lon="0.50325">
        <ele>1623.958</ele>
        <time>2022-02-27T10:00:33Z</time>
      </trkpt>
      <trkpt lat="42.84481" lon="0.50325">
        <ele>1624.559</ele>
        <time>2022-02-27T10:00:35Z</time>
      </trkpt>
      <trkpt lat="42.84481" lon="0.50324">
        <ele>1624.434</ele>
        <time>2022-02-27T10:00:37Z</time>
      </trkpt>
      <trkpt lat="42.84481" lon="0.50325">
        <ele>1624.774</ele>
        <time>2022-02-27T10:00:39Z</time>
      </trkpt>
      <trkpt lat="42.8448" lon="0.50324">
        <ele>1625.14</ele>
        <time>2022-02-27T10:00:41Z</time>
      </trkpt>
      <trkpt lat="42.8448" lon="0.50326">
        <ele>1624.484</ele>
        <time>2022-02-27T10:00:43Z</time>
      </trkpt>
      <trkpt lat="42.8448" lon="0.50326">
        <ele>1624.479</ele>
        <time>2022-02-27T10:00:45Z</time>
      </trkpt>
      <trkpt lat="42.8448" lon="0.50326">
        <ele>1624.193</ele>
        <time>2022-02-27T10:00:47Z</time>
      </trkpt>
      <trkpt lat="42.84479" lon="0.50327">
        <ele>1623.669</ele>
        <time>2022-02-27T10:00:49Z</time>
      </trkpt>
      <trkpt lat="42.84477" lon="0.50326">
        <ele>1625.25</ele>
        <time>2022-02-27T10:00:51Z</time>
      </trkpt>
      <trkpt lat="42.84476" lon="0.50329">
        <ele>1624.535</ele>
        <time>2022-02-27T10:00:53Z</time>
      </trkpt>
      <trkpt lat="42.84475" lon="0.50332">
        <ele>1624.379</ele>
        <time>2022-02-27T10:00:55Z</time>
      </trkpt>
      <trkpt lat="42.84474" lon="0.50334">
        <ele>1624.476</ele>
        <time>2022-02-27T10:00:57Z</time>
      </trkpt>
      <trkpt lat="42.84473" lon="0.50335">
        <ele>1625.282</ele>
        <time>2022-02-27T10:00:59Z</time>
      </trkpt>
      <trkpt lat="42.84473" lon="0.50338">
        <ele>1625.796</ele>
        <time>2022-02-27T10:01:01Z</time>
      </trkpt>
      <trkpt lat="42.84472" lon="0.50339">
        <ele>1624.787</ele>
        <time>2022-02-27T10:01:03Z</time>
      </trkpt>
      <trkpt lat="42.84471" lon="0.50339">
        <ele>1625.8</ele>
        <time>2022-02-27T10:01:05Z</time>
      </trkpt>
      <trkpt lat="42.8447" lon="0.5034">
        <ele>1626.115</ele>
        <time>2022-02-27T10:01:07Z</time>
      </trkpt>
      <trkpt lat="42.8447" lon="0.50339">
        <ele>1625.018</ele>
        <time>2022-02-27T10:01:09Z</time>
      </trkpt>
      <trkpt lat="42.8447" lon="0.50337">
        <ele>1624.137</ele>
        <time>2022-02-27T10:01:11Z</time>
      </trkpt>
      <trkpt lat="42.84469" lon="0.50336">
        <ele>1626.955</ele>
        <time>2022-02-27T10:01:13Z</time>
      </trkpt>
      <trkpt lat="42.84468" lon="0.50334">
        <ele>1626.107</ele>
        <time>2022-02-27T10:01:15Z</time>
      </trkpt>
      <trkpt lat="42.84468" lon="0.50333">
        <ele>1625.398</ele>
        <time>2022-02-27T10:01:17Z</time>
      </trkpt>
      <trkpt lat="42.84467" lon="0.50333">
        <ele>1626.658</ele>
        <time>2022-02-27T10:01:19Z</time>
      </trkpt>
      <trkpt lat="42.84467" lon="0.50333">
        <ele>1625.471</ele>
        <time>2022-02-27T10:01:21Z</time>
      </trkpt>
      <trkpt lat="42.84467" lon="0.50332">
        <ele>1627.133</ele>
        <time>2022-02-27T10:01:23Z</time>
      </trkpt>
      <trkpt lat="42.84466" lon="0.50331">
        <ele>1627.45</ele>
        <time>2022-02-27T10:01:25Z</time>
      </trkpt>
      <trkpt lat="42.84465" lon="0.50329">
        <ele>1629.506</ele>
        <time>2022-02-27T10:01:27Z</time>
      </trkpt>
      <trkpt lat="42.84465" lon="0.50328">
        <ele>1629.694</ele>
        <time>2022-02-27T10:01:29Z</time>
      </trkpt>
      <trkpt lat="42.84465" lon="0.50328">
        <ele>1630.064</ele>
        <time>2022-02-27T10:01:31Z</time>
      </trkpt>
      <trkpt lat="42.84464" lon="0.50326">
        <ele>1630.567</ele>
        <time>2022-02-27T10:01:33Z</time>
      </trkpt>
      <trkpt lat="42.84464" lon="0.50326">
        <ele>1630.051</ele>
        <time>2022-02-27T10:01:35Z</time>
      </trkpt>
      <trkpt lat="42.84464" lon="0.50325">
        <ele>1630.188</ele>
        <time>2022-02-27T10:01:37Z</time>
      </trkpt>
      <trkpt lat="42.84464" lon="0.50324">
        <ele>1629.754</ele>
        <time>2022-02-27T10:01:39Z</time>
      </trkpt>
      <trkpt lat="42.84463" lon="0.50323">
        <ele>1630.09</ele>
        <time>2022-02-27T10:01:41Z</time>
      </trkpt>
      <trkpt lat="42.84463" lon="0.50323">
        <ele>1630.53</ele>
        <time>2022-02-27T10:01:43Z</time>
      </trkpt>
      <trkpt lat="42.84463" lon="0.50323">
        <ele>1630.785</ele>
        <time>2022-02-27T10:01:45Z</time>
      </trkpt>
      <trkpt lat="42.84463" lon="0.50323">
        <ele>1630.784</ele>
        <time>2022-02-27T10:01:47Z</time>
      </trkpt>
      <trkpt lat="42.84463" lon="0.50323">
        <ele>1630.785</ele>
        <time>2022-02-27T10:01:49Z</time>
      </trkpt>
      <trkpt lat="42.84463" lon="0.50323">
        <ele>1630.783</ele>
        <time>2022-02-27T10:01:50Z</time>
      </trkpt>
      <trkpt lat="42.84463" lon="0.50323">
        <ele>1630.78</ele>
        <time>2022-02-27T10:01:53Z</time>
      </trkpt>
      <trkpt lat="42.84463" lon="0.50323">
        <ele>1630.782</ele>
        <time>2022-02-27T10:01:55Z</time>
      </trkpt>
      <trkpt lat="42.84462" lon="0.50323">
        <ele>1631.052</ele>
        <time>2022-02-27T10:01:57Z</time>
      </trkpt>
      <trkpt lat="42.84462" lon="0.50322">
        <ele>1631.582</ele>
        <time>2022-02-27T10:01:59Z</time>
      </trkpt>
      <trkpt lat="42.8446" lon="0.50323">
        <ele>1631.254</ele>
        <time>2022-02-27T10:02:01Z</time>
      </trkpt>
      <trkpt lat="42.84459" lon="0.50323">
        <ele>1630.706</ele>
        <time>2022-02-27T10:02:03Z</time>
      </trkpt>
      <trkpt lat="42.84459" lon="0.50324">
        <ele>1630.7</ele>
        <time>2022-02-27T10:02:05Z</time>
      </trkpt>
      <trkpt lat="42.84458" lon="0.50323">
        <ele>1631.159</ele>
        <time>2022-02-27T10:02:07Z</time>
      </trkpt>
      <trkpt lat="42.84457" lon="0.50324">
        <ele>1630.986</ele>
        <time>2022-02-27T10:02:09Z</time>
      </trkpt>
      <trkpt lat="42.84456" lon="0.50325">
        <ele>1631.37</ele>
        <time>2022-02-27T10:02:11Z</time>
      </trkpt>
      <trkpt lat="42.84456" lon="0.50327">
        <ele>1631.629</ele>
        <time>2022-02-27T10:02:13Z</time>
      </trkpt>
      <trkpt lat="42.84456" lon="0.50329">
        <ele>1631.99</ele>
        <time>2022-02-27T10:02:15Z</time>
      </trkpt>
      <trkpt lat="42.84455" lon="0.50331">
        <ele>1632.671</ele>
        <time>2022-02-27T10:02:17Z</time>
      </trkpt>
      <trkpt lat="42.84454" lon="0.50333">
        <ele>1632.969</ele>
        <time>2022-02-27T10:02:19Z</time>
      </trkpt>
      <trkpt lat="42.84454" lon="0.50334">
        <ele>1633.085</ele>
        <time>2022-02-27T10:02:21Z</time>
      </trkpt>
      <trkpt lat="42.84453" lon="0.50335">
        <ele>1632.486</ele>
        <time>2022-02-27T10:02:23Z</time>
      </trkpt>
      <trkpt lat="42.84452" lon="0.50337">
        <ele>1631.805</ele>
        <time>2022-02-27T10:02:25Z</time>
      </trkpt>
      <trkpt lat="42.84452" lon="0.50336">
        <ele>1631.832</ele>
        <time>2022-02-27T10:02:27Z</time>
      </trkpt>
      <trkpt lat="42.84451" lon="0.50337">
        <ele>1632.926</ele>
        <time>2022-02-27T10:02:29Z</time>
      </trkpt>
      <trkpt lat="42.8445" lon="0.50337">
        <ele>1632.983</ele>
        <time>2022-02-27T10:02:31Z</time>
      </trkpt>
      <trkpt lat="42.84449" lon="0.50337">
        <ele>1633.319</ele>
        <time>2022-02-27T10:02:33Z</time>
      </trkpt>
      <trkpt lat="42.84448" lon="0.50338">
        <ele>1632.086</ele>
        <time>2022-02-27T10:02:35Z</time>
      </trkpt>
      <trkpt lat="42.84449" lon="0.50337">
        <ele>1632.229</ele>
        <time>2022-02-27T10:02:37Z</time>
      </trkpt>
      <trkpt lat="42.84449" lon="0.50337">
        <ele>1632.228</ele>
        <time>2022-02-27T10:02:39Z</time>
      </trkpt>
      <trkpt lat="42.84449" lon="0.50337">
        <ele>1632.231</ele>
        <time>2022-02-27T10:02:41Z</time>
      </trkpt>
      <trkpt lat="42.84449" lon="0.50337">
        <ele>1632.038</ele>
        <time>2022-02-27T10:02:43Z</time>
      </trkpt>
      <trkpt lat="42.84448" lon="0.50336">
        <ele>1631.613</ele>
        <time>2022-02-27T10:02:45Z</time>
      </trkpt>
      <trkpt lat="42.84447" lon="0.50337">
        <ele>1632.187</ele>
        <time>2022-02-27T10:02:47Z</time>
      </trkpt>
      <trkpt lat="42.84446" lon="0.50337">
        <ele>1632.836</ele>
        <time>2022-02-27T10:02:49Z</time>
      </trkpt>
      <trkpt lat="42.84445" lon="0.50338">
        <ele>1634.024</ele>
        <time>2022-02-27T10:02:51Z</time>
      </trkpt>
      <trkpt lat="42.84445" lon="0.50337">
        <ele>1631.981</ele>
        <time>2022-02-27T10:02:53Z</time>
      </trkpt>
      <trkpt lat="42.84444" lon="0.50337">
        <ele>1634.813</ele>
        <time>2022-02-27T10:02:55Z</time>
      </trkpt>
      <trkpt lat="42.84442" lon="0.50338">
        <ele>1636.326</ele>
        <time>2022-02-27T10:02:57Z</time>
      </trkpt>
      <trkpt lat="42.84441" lon="0.50338">
        <ele>1637.724</ele>
        <time>2022-02-27T10:02:59Z</time>
      </trkpt>
      <trkpt lat="42.8444" lon="0.50338">
        <ele>1638.113</ele>
        <time>2022-02-27T10:03:01Z</time>
      </trkpt>
      <trkpt lat="42.84439" lon="0.50338">
        <ele>1639.067</ele>
        <time>2022-02-27T10:03:03Z</time>
      </trkpt>
      <trkpt lat="42.84438" lon="0.50336">
        <ele>1638.165</ele>
        <time>2022-02-27T10:03:05Z</time>
      </trkpt>
      <trkpt lat="42.84437" lon="0.50337">
        <ele>1638.574</ele>
        <time>2022-02-27T10:03:07Z</time>
      </trkpt>
      <trkpt lat="42.84436" lon="0.50338">
        <ele>1639.064</ele>
        <time>2022-02-27T10:03:09Z</time>
      </trkpt>
      <trkpt lat="42.84435" lon="0.50339">
        <ele>1639.732</ele>
        <time>2022-02-27T10:03:11Z</time>
      </trkpt>
      <trkpt lat="42.84434" lon="0.50338">
        <ele>1639.651</ele>
        <time>2022-02-27T10:03:13Z</time>
      </trkpt>
      <trkpt lat="42.84433" lon="0.50338">
        <ele>1640.177</ele>
        <time>2022-02-27T10:03:15Z</time>
      </trkpt>
      <trkpt lat="42.84432" lon="0.50337">
        <ele>1640.444</ele>
        <time>2022-02-27T10:03:17Z</time>
      </trkpt>
      <trkpt lat="42.84431" lon="0.50338">
        <ele>1641.242</ele>
        <time>2022-02-27T10:03:19Z</time>
      </trkpt>
      <trkpt lat="42.8443" lon="0.50338">
        <ele>1641.303</ele>
        <time>2022-02-27T10:03:21Z</time>
      </trkpt>
      <trkpt lat="42.84429" lon="0.50338">
        <ele>1642.669</ele>
        <time>2022-02-27T10:03:23Z</time>
      </trkpt>
      <trkpt lat="42.84428" lon="0.50339">
        <ele>1641.029</ele>
        <time>2022-02-27T10:03:25Z</time>
      </trkpt>
      <trkpt lat="42.84427" lon="0.50338">
        <ele>1641.058</ele>
        <time>2022-02-27T10:03:27Z</time>
      </trkpt>
      <trkpt lat="42.84427" lon="0.50337">
        <ele>1639.962</ele>
        <time>2022-02-27T10:03:29Z</time>
      </trkpt>
      <trkpt lat="42.84426" lon="0.50335">
        <ele>1640.492</ele>
        <time>2022-02-27T10:03:31Z</time>
      </trkpt>
      <trkpt lat="42.84425" lon="0.50335">
        <ele>1640.596</ele>
        <time>2022-02-27T10:03:33Z</time>
      </trkpt>
      <trkpt lat="42.84425" lon="0.50335">
        <ele>1640.732</ele>
        <time>2022-02-27T10:03:35Z</time>
      </trkpt>
      <trkpt lat="42.84424" lon="0.50334">
        <ele>1641.038</ele>
        <time>2022-02-27T10:03:37Z</time>
      </trkpt>
      <trkpt lat="42.84423" lon="0.50333">
        <ele>1641.439</ele>
        <time>2022-02-27T10:03:39Z</time>
      </trkpt>
      <trkpt lat="42.84421" lon="0.50333">
        <ele>1642.997</ele>
        <time>2022-02-27T10:03:41Z</time>
      </trkpt>
      <trkpt lat="42.8442" lon="0.50332">
        <ele>1643.334</ele>
        <time>2022-02-27T10:03:43Z</time>
      </trkpt>
      <trkpt lat="42.8442" lon="0.50332">
        <ele>1642.895</ele>
        <time>2022-02-27T10:03:45Z</time>
      </trkpt>
      <trkpt lat="42.84419" lon="0.50332">
        <ele>1641.795</ele>
        <time>2022-02-27T10:03:47Z</time>
      </trkpt>
      <trkpt lat="42.84418" lon="0.50332">
        <ele>1640.249</ele>
        <time>2022-02-27T10:03:49Z</time>
      </trkpt>
      <trkpt lat="42.84418" lon="0.50333">
        <ele>1637.9</ele>
        <time>2022-02-27T10:03:51Z</time>
      </trkpt>
      <trkpt lat="42.84418" lon="0.50332">
        <ele>1638.405</ele>
        <time>2022-02-27T10:03:53Z</time>
      </trkpt>
      <trkpt lat="42.84418" lon="0.50333">
        <ele>1638.22</ele>
        <time>2022-02-27T10:03:55Z</time>
      </trkpt>
      <trkpt lat="42.84418" lon="0.50333">
        <ele>1638.209</ele>
        <time>2022-02-27T10:03:57Z</time>
      </trkpt>
      <trkpt lat="42.84418" lon="0.50333">
        <ele>1638.202</ele>
        <time>2022-02-27T10:03:59Z</time>
      </trkpt>
      <trkpt lat="42.84418" lon="0.50333">
        <ele>1638.297</ele>
        <time>2022-02-27T10:04:01Z</time>
      </trkpt>
      <trkpt lat="42.84417" lon="0.50332">
        <ele>1638.344</ele>
        <time>2022-02-27T10:04:03Z</time>
      </trkpt>
      <trkpt lat="42.84416" lon="0.50332">
        <ele>1639.2</ele>
        <time>2022-02-27T10:04:05Z</time>
      </trkpt>
      <trkpt lat="42.84415" lon="0.50332">
        <ele>1639.99</ele>
        <time>2022-02-27T10:04:07Z</time>
      </trkpt>
      <trkpt lat="42.84415" lon="0.50332">
        <ele>1638.29</ele>
        <time>2022-02-27T10:04:09Z</time>
      </trkpt>
      <trkpt lat="42.84414" lon="0.5033">
        <ele>1636.727</ele>
        <time>2022-02-27T10:04:11Z</time>
      </trkpt>
      <trkpt lat="42.84414" lon="0.50329">
        <ele>1636.934</ele>
        <time>2022-02-27T10:04:13Z</time>
      </trkpt>
      <trkpt lat="42.84412" lon="0.50329">
        <ele>1637.727</ele>
        <time>2022-02-27T10:04:15Z</time>
      </trkpt>
      <trkpt lat="42.84412" lon="0.50328">
        <ele>1636.846</ele>
        <time>2022-02-27T10:04:17Z</time>
      </trkpt>
      <trkpt lat="42.84412" lon="0.50328">
        <ele>1636.83</ele>
        <time>2022-02-27T10:04:19Z</time>
      </trkpt>
      <trkpt lat="42.84412" lon="0.50328">
        <ele>1636.836</ele>
        <time>2022-02-27T10:04:21Z</time>
      </trkpt>
      <trkpt lat="42.84412" lon="0.50328">
        <ele>1636.857</ele>
        <time>2022-02-27T10:04:23Z</time>
      </trkpt>
      <trkpt lat="42.84411" lon="0.50328">
        <ele>1637.32</ele>
        <time>2022-02-27T10:04:25Z</time>
      </trkpt>
      <trkpt lat="42.8441" lon="0.50328">
        <ele>1637.58</ele>
        <time>2022-02-27T10:04:27Z</time>
      </trkpt>
      <trkpt lat="42.84408" lon="0.50328">
        <ele>1637.246</ele>
        <time>2022-02-27T10:04:29Z</time>
      </trkpt>
      <trkpt lat="42.84408" lon="0.50328">
        <ele>1637.155</ele>
        <time>2022-02-27T10:04:31Z</time>
      </trkpt>
      <trkpt lat="42.84406" lon="0.50329">
        <ele>1638.074</ele>
        <time>2022-02-27T10:04:33Z</time>
      </trkpt>
      <trkpt lat="42.84405" lon="0.50329">
        <ele>1638.843</ele>
        <time>2022-02-27T10:04:35Z</time>
      </trkpt>
      <trkpt lat="42.84405" lon="0.50327">
        <ele>1637.745</ele>
        <time>2022-02-27T10:04:37Z</time>
      </trkpt>
      <trkpt lat="42.84404" lon="0.50326">
        <ele>1638.782</ele>
        <time>2022-02-27T10:04:39Z</time>
      </trkpt>
      <trkpt lat="42.84403" lon="0.50325">
        <ele>1639.346</ele>
        <time>2022-02-27T10:04:41Z</time>
      </trkpt>
      <trkpt lat="42.84402" lon="0.50325">
        <ele>1639.349</ele>
        <time>2022-02-27T10:04:43Z</time>
      </trkpt>
      <trkpt lat="42.84401" lon="0.50324">
        <ele>1639.819</ele>
        <time>2022-02-27T10:04:45Z</time>
      </trkpt>
      <trkpt lat="42.844" lon="0.50324">
        <ele>1641.249</ele>
        <time>2022-02-27T10:04:47Z</time>
      </trkpt>
      <trkpt lat="42.84399" lon="0.50324">
        <ele>1642.714</ele>
        <time>2022-02-27T10:04:49Z</time>
      </trkpt>
      <trkpt lat="42.84399" lon="0.50325">
        <ele>1643.211</ele>
        <time>2022-02-27T10:04:51Z</time>
      </trkpt>
      <trkpt lat="42.84399" lon="0.50325">
        <ele>1643.202</ele>
        <time>2022-02-27T10:04:53Z</time>
      </trkpt>
      <trkpt lat="42.84399" lon="0.50325">
        <ele>1643.201</ele>
        <time>2022-02-27T10:04:55Z</time>
      </trkpt>
      <trkpt lat="42.84399" lon="0.50325">
        <ele>1643.194</ele>
        <time>2022-02-27T10:04:57Z</time>
      </trkpt>
      <trkpt lat="42.84399" lon="0.50325">
        <ele>1643.197</ele>
        <time>2022-02-27T10:04:59Z</time>
      </trkpt>
      <trkpt lat="42.84399" lon="0.50325">
        <ele>1643.191</ele>
        <time>2022-02-27T10:05:01Z</time>
      </trkpt>
      <trkpt lat="42.84399" lon="0.50325">
        <ele>1643.186</ele>
        <time>2022-02-27T10:05:03Z</time>
      </trkpt>
      <trkpt lat="42.84399" lon="0.50325">
        <ele>1643.181</ele>
        <time>2022-02-27T10:05:05Z</time>
      </trkpt>
      <trkpt lat="42.84399" lon="0.50325">
        <ele>1643.293</ele>
        <time>2022-02-27T10:05:07Z</time>
      </trkpt>
      <trkpt lat="42.84398" lon="0.50326">
        <ele>1643.497</ele>
        <time>2022-02-27T10:05:09Z</time>
      </trkpt>
      <trkpt lat="42.84397" lon="0.50328">
        <ele>1643.629</ele>
        <time>2022-02-27T10:05:11Z</time>
      </trkpt>
      <trkpt lat="42.84396" lon="0.5033">
        <ele>1644.675</ele>
        <time>2022-02-27T10:05:13Z</time>
      </trkpt>
      <trkpt lat="42.84396" lon="0.50331">
        <ele>1645.192</ele>
        <time>2022-02-27T10:05:15Z</time>
      </trkpt>
      <trkpt lat="42.84395" lon="0.50333">
        <ele>1645.98</ele>
        <time>2022-02-27T10:05:17Z</time>
      </trkpt>
      <trkpt lat="42.84394" lon="0.50334">
        <ele>1645.626</ele>
        <time>2022-02-27T10:05:19Z</time>
      </trkpt>
      <trkpt lat="42.84396" lon="0.50336">
        <ele>1644.572</ele>
        <time>2022-02-27T10:05:21Z</time>
      </trkpt>
      <trkpt lat="42.84396" lon="0.50336">
        <ele>1645.756</ele>
        <time>2022-02-27T10:05:23Z</time>
      </trkpt>
      <trkpt lat="42.84396" lon="0.50336">
        <ele>1645.752</ele>
        <time>2022-02-27T10:05:25Z</time>
      </trkpt>
      <trkpt lat="42.84396" lon="0.50336">
        <ele>1645.748</ele>
        <time>2022-02-27T10:05:27Z</time>
      </trkpt>
      <trkpt lat="42.84396" lon="0.50336">
        <ele>1645.746</ele>
        <time>2022-02-27T10:05:29Z</time>
      </trkpt>
      <trkpt lat="42.84396" lon="0.50337">
        <ele>1645.772</ele>
        <time>2022-02-27T10:05:31Z</time>
      </trkpt>
      <trkpt lat="42.84395" lon="0.50337">
        <ele>1646.132</ele>
        <time>2022-02-27T10:05:33Z</time>
      </trkpt>
      <trkpt lat="42.84395" lon="0.50338">
        <ele>1645.896</ele>
        <time>2022-02-27T10:05:35Z</time>
      </trkpt>
      <trkpt lat="42.84394" lon="0.50338">
        <ele>1646.248</ele>
        <time>2022-02-27T10:05:37Z</time>
      </trkpt>
      <trkpt lat="42.84394" lon="0.50338">
        <ele>1646.277</ele>
        <time>2022-02-27T10:05:39Z</time>
      </trkpt>
      <trkpt lat="42.84394" lon="0.50338">
        <ele>1646.274</ele>
        <time>2022-02-27T10:05:41Z</time>
      </trkpt>
      <trkpt lat="42.84394" lon="0.50338">
        <ele>1646.259</ele>
        <time>2022-02-27T10:05:43Z</time>
      </trkpt>
      <trkpt lat="42.84394" lon="0.50338">
        <ele>1646.26</ele>
        <time>2022-02-27T10:05:45Z</time>
      </trkpt>
      <trkpt lat="42.84394" lon="0.50338">
        <ele>1646.264</ele>
        <time>2022-02-27T10:05:47Z</time>
      </trkpt>
      <trkpt lat="42.84394" lon="0.50338">
        <ele>1646.695</ele>
        <time>2022-02-27T10:05:49Z</time>
      </trkpt>
      <trkpt lat="42.84394" lon="0.50338">
        <ele>1646.693</ele>
        <time>2022-02-27T10:05:51Z</time>
      </trkpt>
      <trkpt lat="42.84394" lon="0.50338">
        <ele>1646.693</ele>
        <time>2022-02-27T10:05:53Z</time>
      </trkpt>
      <trkpt lat="42.84394" lon="0.50338">
        <ele>1646.684</ele>
        <time>2022-02-27T10:05:55Z</time>
      </trkpt>
      <trkpt lat="42.84394" lon="0.50338">
        <ele>1646.675</ele>
        <time>2022-02-27T10:05:57Z</time>
      </trkpt>
      <trkpt lat="42.84394" lon="0.50338">
        <ele>1646.671</ele>
        <time>2022-02-27T10:05:59Z</time>
      </trkpt>
      <trkpt lat="42.84394" lon="0.50338">
        <ele>1646.671</ele>
        <time>2022-02-27T10:06:01Z</time>
      </trkpt>
      <trkpt lat="42.84394" lon="0.50338">
        <ele>1646.669</ele>
        <time>2022-02-27T10:06:03Z</time>
      </trkpt>
      <trkpt lat="42.84394" lon="0.50338">
        <ele>1646.671</ele>
        <time>2022-02-27T10:06:05Z</time>
      </trkpt>
      <trkpt lat="42.84394" lon="0.50338">
        <ele>1646.673</ele>
        <time>2022-02-27T10:06:07Z</time>
      </trkpt>
      <trkpt lat="42.84394" lon="0.50338">
        <ele>1646.59</ele>
        <time>2022-02-27T10:06:09Z</time>
      </trkpt>
      <trkpt lat="42.84393" lon="0.50338">
        <ele>1646.589</ele>
        <time>2022-02-27T10:06:11Z</time>
      </trkpt>
      <trkpt lat="42.84393" lon="0.50338">
        <ele>1646.595</ele>
        <time>2022-02-27T10:06:13Z</time>
      </trkpt>
      <trkpt lat="42.84393" lon="0.50338">
        <ele>1646.559</ele>
        <time>2022-02-27T10:06:15Z</time>
      </trkpt>
      <trkpt lat="42.84393" lon="0.50338">
        <ele>1646.56</ele>
        <time>2022-02-27T10:06:17Z</time>
      </trkpt>
      <trkpt lat="42.84393" lon="0.50337">
        <ele>1646.371</ele>
        <time>2022-02-27T10:06:19Z</time>
      </trkpt>
      <trkpt lat="42.84393" lon="0.50337">
        <ele>1645.712</ele>
        <time>2022-02-27T10:06:21Z</time>
      </trkpt>
      <trkpt lat="42.84393" lon="0.50337">
        <ele>1645.72</ele>
        <time>2022-02-27T10:06:23Z</time>
      </trkpt>
      <trkpt lat="42.84393" lon="0.50337">
        <ele>1645.708</ele>
        <time>2022-02-27T10:06:25Z</time>
      </trkpt>
      <trkpt lat="42.84393" lon="0.50337">
        <ele>1645.685</ele>
        <time>2022-02-27T10:06:27Z</time>
      </trkpt>
      <trkpt lat="42.84393" lon="0.50337">
        <ele>1645.684</ele>
        <time>2022-02-27T10:06:29Z</time>
      </trkpt>
      <trkpt lat="42.84393" lon="0.50337">
        <ele>1645.676</ele>
        <time>2022-02-27T10:06:31Z</time>
      </trkpt>
      <trkpt lat="42.84393" lon="0.50337">
        <ele>1645.677</ele>
        <time>2022-02-27T10:06:33Z</time>
      </trkpt>
      <trkpt lat="42.84393" lon="0.50337">
        <ele>1645.68</ele>
        <time>2022-02-27T10:06:35Z</time>
      </trkpt>
      <trkpt lat="42.84393" lon="0.50337">
        <ele>1645.68</ele>
        <time>2022-02-27T10:06:37Z</time>
      </trkpt>
      <trkpt lat="42.84393" lon="0.50337">
        <ele>1645.68</ele>
        <time>2022-02-27T10:06:39Z</time>
      </trkpt>
      <trkpt lat="42.84393" lon="0.50337">
        <ele>1645.68</ele>
        <time>2022-02-27T10:06:41Z</time>
      </trkpt>
      <trkpt lat="42.84393" lon="0.50337">
        <ele>1645.678</ele>
        <time>2022-02-27T10:06:43Z</time>
      </trkpt>
      <trkpt lat="42.84393" lon="0.50337">
        <ele>1645.672</ele>
        <time>2022-02-27T10:06:45Z</time>
      </trkpt>
      <trkpt lat="42.84393" lon="0.50337">
        <ele>1645.667</ele>
        <time>2022-02-27T10:06:47Z</time>
      </trkpt>
      <trkpt lat="42.84393" lon="0.50337">
        <ele>1645.656</ele>
        <time>2022-02-27T10:06:49Z</time>
      </trkpt>
      <trkpt lat="42.84393" lon="0.50337">
        <ele>1645.639</ele>
        <time>2022-02-27T10:06:51Z</time>
      </trkpt>
      <trkpt lat="42.84393" lon="0.50337">
        <ele>1645.626</ele>
        <time>2022-02-27T10:06:53Z</time>
      </trkpt>
      <trkpt lat="42.84393" lon="0.50337">
        <ele>1645.61</ele>
        <time>2022-02-27T10:06:55Z</time>
      </trkpt>
      <trkpt lat="42.84393" lon="0.50337">
        <ele>1645.594</ele>
        <time>2022-02-27T10:06:57Z</time>
      </trkpt>
      <trkpt lat="42.84393" lon="0.50337">
        <ele>1645.582</ele>
        <time>2022-02-27T10:06:59Z</time>
      </trkpt>
      <trkpt lat="42.84393" lon="0.50337">
        <ele>1645.574</ele>
        <time>2022-02-27T10:07:01Z</time>
      </trkpt>
      <trkpt lat="42.84393" lon="0.50337">
        <ele>1645.572</ele>
        <time>2022-02-27T10:07:03Z</time>
      </trkpt>
      <trkpt lat="42.84393" lon="0.50337">
        <ele>1645.581</ele>
        <time>2022-02-27T10:07:05Z</time>
      </trkpt>
      <trkpt lat="42.84393" lon="0.50337">
        <ele>1645.584</ele>
        <time>2022-02-27T10:07:07Z</time>
      </trkpt>
      <trkpt lat="42.84393" lon="0.50337">
        <ele>1645.583</ele>
        <time>2022-02-27T10:07:09Z</time>
      </trkpt>
      <trkpt lat="42.84393" lon="0.50337">
        <ele>1645.574</ele>
        <time>2022-02-27T10:07:11Z</time>
      </trkpt>
      <trkpt lat="42.84393" lon="0.50337">
        <ele>1645.571</ele>
        <time>2022-02-27T10:07:13Z</time>
      </trkpt>
      <trkpt lat="42.84393" lon="0.50337">
        <ele>1645.57</ele>
        <time>2022-02-27T10:07:15Z</time>
      </trkpt>
      <trkpt lat="42.84393" lon="0.50337">
        <ele>1644.898</ele>
        <time>2022-02-27T10:07:17Z</time>
      </trkpt>
      <trkpt lat="42.84393" lon="0.50337">
        <ele>1644.889</ele>
        <time>2022-02-27T10:07:19Z</time>
      </trkpt>
      <trkpt lat="42.84393" lon="0.50337">
        <ele>1644.88</ele>
        <time>2022-02-27T10:07:21Z</time>
      </trkpt>
      <trkpt lat="42.84393" lon="0.50337">
        <ele>1644.871</ele>
        <time>2022-02-27T10:07:23Z</time>
      </trkpt>
      <trkpt lat="42.84393" lon="0.50337">
        <ele>1644.856</ele>
        <time>2022-02-27T10:07:25Z</time>
      </trkpt>
      <trkpt lat="42.84393" lon="0.50337">
        <ele>1644.848</ele>
        <time>2022-02-27T10:07:27Z</time>
      </trkpt>
      <trkpt lat="42.84393" lon="0.50337">
        <ele>1644.847</ele>
        <time>2022-02-27T10:07:29Z</time>
      </trkpt>
      <trkpt lat="42.84393" lon="0.50337">
        <ele>1644.527</ele>
        <time>2022-02-27T10:07:31Z</time>
      </trkpt>
      <trkpt lat="42.84393" lon="0.50337">
        <ele>1644.517</ele>
        <time>2022-02-27T10:07:33Z</time>
      </trkpt>
      <trkpt lat="42.84393" lon="0.50337">
        <ele>1644.516</ele>
        <time>2022-02-27T10:07:35Z</time>
      </trkpt>
      <trkpt lat="42.84393" lon="0.50337">
        <ele>1644.525</ele>
        <time>2022-02-27T10:07:37Z</time>
      </trkpt>
      <trkpt lat="42.84393" lon="0.50337">
        <ele>1644.459</ele>
        <time>2022-02-27T10:07:39Z</time>
      </trkpt>
      <trkpt lat="42.84392" lon="0.50336">
        <ele>1645.115</ele>
        <time>2022-02-27T10:07:41Z</time>
      </trkpt>
      <trkpt lat="42.84392" lon="0.50336">
        <ele>1645.133</ele>
        <time>2022-02-27T10:07:43Z</time>
      </trkpt>
      <trkpt lat="42.84392" lon="0.50336">
        <ele>1645.137</ele>
        <time>2022-02-27T10:07:45Z</time>
      </trkpt>
      <trkpt lat="42.84392" lon="0.50336">
        <ele>1645.135</ele>
        <time>2022-02-27T10:07:47Z</time>
      </trkpt>
      <trkpt lat="42.84392" lon="0.50336">
        <ele>1645.138</ele>
        <time>2022-02-27T10:07:49Z</time>
      </trkpt>
      <trkpt lat="42.84392" lon="0.50336">
        <ele>1645.137</ele>
        <time>2022-02-27T10:07:51Z</time>
      </trkpt>
      <trkpt lat="42.84392" lon="0.50336">
        <ele>1645.133</ele>
        <time>2022-02-27T10:07:53Z</time>
      </trkpt>
      <trkpt lat="42.84392" lon="0.50336">
        <ele>1645.132</ele>
        <time>2022-02-27T10:07:55Z</time>
      </trkpt>
      <trkpt lat="42.84392" lon="0.50336">
        <ele>1645.132</ele>
        <time>2022-02-27T10:07:57Z</time>
      </trkpt>
      <trkpt lat="42.84392" lon="0.50337">
        <ele>1644.799</ele>
        <time>2022-02-27T10:07:59Z</time>
      </trkpt>
      <trkpt lat="42.84391" lon="0.50337">
        <ele>1644.313</ele>
        <time>2022-02-27T10:08:01Z</time>
      </trkpt>
      <trkpt lat="42.84391" lon="0.50337">
        <ele>1644.312</ele>
        <time>2022-02-27T10:08:03Z</time>
      </trkpt>
      <trkpt lat="42.84391" lon="0.50337">
        <ele>1644.311</ele>
        <time>2022-02-27T10:08:05Z</time>
      </trkpt>
      <trkpt lat="42.84391" lon="0.50337">
        <ele>1644.3</ele>
        <time>2022-02-27T10:08:07Z</time>
      </trkpt>
      <trkpt lat="42.84391" lon="0.50337">
        <ele>1644.302</ele>
        <time>2022-02-27T10:08:09Z</time>
      </trkpt>
      <trkpt lat="42.84391" lon="0.50337">
        <ele>1644.298</ele>
        <time>2022-02-27T10:08:11Z</time>
      </trkpt>
      <trkpt lat="42.84391" lon="0.50337">
        <ele>1644.307</ele>
        <time>2022-02-27T10:08:13Z</time>
      </trkpt>
      <trkpt lat="42.84391" lon="0.50337">
        <ele>1644.302</ele>
        <time>2022-02-27T10:08:15Z</time>
      </trkpt>
      <trkpt lat="42.84391" lon="0.50337">
        <ele>1644.323</ele>
        <time>2022-02-27T10:08:17Z</time>
      </trkpt>
      <trkpt lat="42.84391" lon="0.50337">
        <ele>1644.339</ele>
        <time>2022-02-27T10:08:19Z</time>
      </trkpt>
      <trkpt lat="42.84391" lon="0.50337">
        <ele>1644.344</ele>
        <time>2022-02-27T10:08:21Z</time>
      </trkpt>
      <trkpt lat="42.84391" lon="0.50337">
        <ele>1644.584</ele>
        <time>2022-02-27T10:08:23Z</time>
      </trkpt>
      <trkpt lat="42.8439" lon="0.50337">
        <ele>1644.499</ele>
        <time>2022-02-27T10:08:25Z</time>
      </trkpt>
      <trkpt lat="42.84388" lon="0.50338">
        <ele>1646.041</ele>
        <time>2022-02-27T10:08:27Z</time>
      </trkpt>
      <trkpt lat="42.84387" lon="0.50339">
        <ele>1646.278</ele>
        <time>2022-02-27T10:08:29Z</time>
      </trkpt>
      <trkpt lat="42.84386" lon="0.5034">
        <ele>1646.776</ele>
        <time>2022-02-27T10:08:31Z</time>
      </trkpt>
      <trkpt lat="42.84385" lon="0.50341">
        <ele>1645.833</ele>
        <time>2022-02-27T10:08:33Z</time>
      </trkpt>
      <trkpt lat="42.84384" lon="0.50341">
        <ele>1645.289</ele>
        <time>2022-02-27T10:08:35Z</time>
      </trkpt>
      <trkpt lat="42.84383" lon="0.50341">
        <ele>1645.108</ele>
        <time>2022-02-27T10:08:37Z</time>
      </trkpt>
      <trkpt lat="42.84382" lon="0.50341">
        <ele>1645.634</ele>
        <time>2022-02-27T10:08:39Z</time>
      </trkpt>
      <trkpt lat="42.84382" lon="0.50341">
        <ele>1645.641</ele>
        <time>2022-02-27T10:08:41Z</time>
      </trkpt>
      <trkpt lat="42.84382" lon="0.50341">
        <ele>1645.642</ele>
        <time>2022-02-27T10:08:43Z</time>
      </trkpt>
      <trkpt lat="42.84382" lon="0.50341">
        <ele>1645.062</ele>
        <time>2022-02-27T10:08:45Z</time>
      </trkpt>
      <trkpt lat="42.84381" lon="0.50342">
        <ele>1644.452</ele>
        <time>2022-02-27T10:08:47Z</time>
      </trkpt>
      <trkpt lat="42.84379" lon="0.50342">
        <ele>1644.191</ele>
        <time>2022-02-27T10:08:49Z</time>
      </trkpt>
      <trkpt lat="42.84378" lon="0.50343">
        <ele>1644.329</ele>
        <time>2022-02-27T10:08:51Z</time>
      </trkpt>
      <trkpt lat="42.84377" lon="0.50344">
        <ele>1643.089</ele>
        <time>2022-02-27T10:08:53Z</time>
      </trkpt>
      <trkpt lat="42.84376" lon="0.50345">
        <ele>1642.504</ele>
        <time>2022-02-27T10:08:55Z</time>
      </trkpt>
      <trkpt lat="42.84375" lon="0.50345">
        <ele>1642.872</ele>
        <time>2022-02-27T10:08:57Z</time>
      </trkpt>
      <trkpt lat="42.84374" lon="0.50346">
        <ele>1642.962</ele>
        <time>2022-02-27T10:08:59Z</time>
      </trkpt>
      <trkpt lat="42.84373" lon="0.50347">
        <ele>1641.336</ele>
        <time>2022-02-27T10:09:01Z</time>
      </trkpt>
      <trkpt lat="42.84372" lon="0.50347">
        <ele>1640.671</ele>
        <time>2022-02-27T10:09:03Z</time>
      </trkpt>
      <trkpt lat="42.84371" lon="0.50348">
        <ele>1641.556</ele>
        <time>2022-02-27T10:09:05Z</time>
      </trkpt>
      <trkpt lat="42.84372" lon="0.50348">
        <ele>1642.816</ele>
        <time>2022-02-27T10:09:07Z</time>
      </trkpt>
      <trkpt lat="42.84372" lon="0.50348">
        <ele>1642.823</ele>
        <time>2022-02-27T10:09:09Z</time>
      </trkpt>
      <trkpt lat="42.84372" lon="0.50348">
        <ele>1642.82</ele>
        <time>2022-02-27T10:09:11Z</time>
      </trkpt>
      <trkpt lat="42.84372" lon="0.50348">
        <ele>1642.822</ele>
        <time>2022-02-27T10:09:13Z</time>
      </trkpt>
      <trkpt lat="42.84372" lon="0.50348">
        <ele>1642.818</ele>
        <time>2022-02-27T10:09:15Z</time>
      </trkpt>
      <trkpt lat="42.84372" lon="0.50348">
        <ele>1642.823</ele>
        <time>2022-02-27T10:09:17Z</time>
      </trkpt>
      <trkpt lat="42.84372" lon="0.50348">
        <ele>1642.839</ele>
        <time>2022-02-27T10:09:19Z</time>
      </trkpt>
      <trkpt lat="42.84372" lon="0.50348">
        <ele>1642.841</ele>
        <time>2022-02-27T10:09:21Z</time>
      </trkpt>
      <trkpt lat="42.84372" lon="0.50348">
        <ele>1642.858</ele>
        <time>2022-02-27T10:09:23Z</time>
      </trkpt>
      <trkpt lat="42.84372" lon="0.50348">
        <ele>1642.869</ele>
        <time>2022-02-27T10:09:25Z</time>
      </trkpt>
      <trkpt lat="42.84372" lon="0.50348">
        <ele>1642.864</ele>
        <time>2022-02-27T10:09:27Z</time>
      </trkpt>
      <trkpt lat="42.84372" lon="0.50348">
        <ele>1642.871</ele>
        <time>2022-02-27T10:09:29Z</time>
      </trkpt>
      <trkpt lat="42.84372" lon="0.50348">
        <ele>1642.9</ele>
        <time>2022-02-27T10:09:31Z</time>
      </trkpt>
      <trkpt lat="42.84372" lon="0.50348">
        <ele>1642.926</ele>
        <time>2022-02-27T10:09:33Z</time>
      </trkpt>
      <trkpt lat="42.84372" lon="0.50348">
        <ele>1642.928</ele>
        <time>2022-02-27T10:09:35Z</time>
      </trkpt>
      <trkpt lat="42.84372" lon="0.50348">
        <ele>1642.928</ele>
        <time>2022-02-27T10:09:37Z</time>
      </trkpt>
      <trkpt lat="42.84372" lon="0.50348">
        <ele>1642.939</ele>
        <time>2022-02-27T10:09:39Z</time>
      </trkpt>
      <trkpt lat="42.84372" lon="0.50348">
        <ele>1642.954</ele>
        <time>2022-02-27T10:09:41Z</time>
      </trkpt>
      <trkpt lat="42.84372" lon="0.50348">
        <ele>1642.966</ele>
        <time>2022-02-27T10:09:43Z</time>
      </trkpt>
      <trkpt lat="42.84371" lon="0.50348">
        <ele>1642.3</ele>
        <time>2022-02-27T10:09:45Z</time>
      </trkpt>
      <trkpt lat="42.84371" lon="0.50349">
        <ele>1641.678</ele>
        <time>2022-02-27T10:09:47Z</time>
      </trkpt>
      <trkpt lat="42.84372" lon="0.5035">
        <ele>1640.868</ele>
        <time>2022-02-27T10:09:49Z</time>
      </trkpt>
      <trkpt lat="42.84372" lon="0.50352">
        <ele>1640.173</ele>
        <time>2022-02-27T10:09:51Z</time>
      </trkpt>
      <trkpt lat="42.84372" lon="0.50354">
        <ele>1640.816</ele>
        <time>2022-02-27T10:09:53Z</time>
      </trkpt>
      <trkpt lat="42.84371" lon="0.50354">
        <ele>1639.812</ele>
        <time>2022-02-27T10:09:55Z</time>
      </trkpt>
      <trkpt lat="42.84371" lon="0.50357">
        <ele>1641.982</ele>
        <time>2022-02-27T10:09:57Z</time>
      </trkpt>
      <trkpt lat="42.84373" lon="0.50361">
        <ele>1641.329</ele>
        <time>2022-02-27T10:09:59Z</time>
      </trkpt>
      <trkpt lat="42.84373" lon="0.50364">
        <ele>1640.69</ele>
        <time>2022-02-27T10:10:01Z</time>
      </trkpt>
      <trkpt lat="42.84373" lon="0.50366">
        <ele>1641.843</ele>
        <time>2022-02-27T10:10:03Z</time>
      </trkpt>
      <trkpt lat="42.84373" lon="0.50367">
        <ele>1642.427</ele>
        <time>2022-02-27T10:10:05Z</time>
      </trkpt>
      <trkpt lat="42.84372" lon="0.50369">
        <ele>1643.32</ele>
        <time>2022-02-27T10:10:07Z</time>
      </trkpt>
      <trkpt lat="42.84372" lon="0.5037">
        <ele>1643.852</ele>
        <time>2022-02-27T10:10:09Z</time>
      </trkpt>
      <trkpt lat="42.84371" lon="0.50372">
        <ele>1643.771</ele>
        <time>2022-02-27T10:10:11Z</time>
      </trkpt>
      <trkpt lat="42.8437" lon="0.50373">
        <ele>1643.334</ele>
        <time>2022-02-27T10:10:13Z</time>
      </trkpt>
      <trkpt lat="42.8437" lon="0.50375">
        <ele>1644.689</ele>
        <time>2022-02-27T10:10:15Z</time>
      </trkpt>
      <trkpt lat="42.8437" lon="0.50375">
        <ele>1644.225</ele>
        <time>2022-02-27T10:10:17Z</time>
      </trkpt>
      <trkpt lat="42.8437" lon="0.50376">
        <ele>1643.478</ele>
        <time>2022-02-27T10:10:19Z</time>
      </trkpt>
      <trkpt lat="42.8437" lon="0.50378">
        <ele>1645.641</ele>
        <time>2022-02-27T10:10:21Z</time>
      </trkpt>
      <trkpt lat="42.8437" lon="0.50379">
        <ele>1647.31</ele>
        <time>2022-02-27T10:10:23Z</time>
      </trkpt>
      <trkpt lat="42.8437" lon="0.50381">
        <ele>1648.356</ele>
        <time>2022-02-27T10:10:25Z</time>
      </trkpt>
      <trkpt lat="42.8437" lon="0.50382">
        <ele>1649.979</ele>
        <time>2022-02-27T10:10:27Z</time>
      </trkpt>
      <trkpt lat="42.8437" lon="0.50383">
        <ele>1650.379</ele>
        <time>2022-02-27T10:10:29Z</time>
      </trkpt>
      <trkpt lat="42.84369" lon="0.50384">
        <ele>1650.951</ele>
        <time>2022-02-27T10:10:31Z</time>
      </trkpt>
      <trkpt lat="42.84368" lon="0.50385">
        <ele>1652.043</ele>
        <time>2022-02-27T10:10:33Z</time>
      </trkpt>
      <trkpt lat="42.84368" lon="0.50385">
        <ele>1652.264</ele>
        <time>2022-02-27T10:10:35Z</time>
      </trkpt>
      <trkpt lat="42.84368" lon="0.50385">
        <ele>1652.277</ele>
        <time>2022-02-27T10:10:37Z</time>
      </trkpt>
      <trkpt lat="42.84368" lon="0.50385">
        <ele>1652.279</ele>
        <time>2022-02-27T10:10:39Z</time>
      </trkpt>
      <trkpt lat="42.84368" lon="0.50385">
        <ele>1652.347</ele>
        <time>2022-02-27T10:10:41Z</time>
      </trkpt>
      <trkpt lat="42.84368" lon="0.50386">
        <ele>1652.492</ele>
        <time>2022-02-27T10:10:43Z</time>
      </trkpt>
      <trkpt lat="42.84367" lon="0.50387">
        <ele>1654.37</ele>
        <time>2022-02-27T10:10:45Z</time>
      </trkpt>
      <trkpt lat="42.84367" lon="0.50389">
        <ele>1655.409</ele>
        <time>2022-02-27T10:10:48Z</time>
      </trkpt>
      <trkpt lat="42.84366" lon="0.50389">
        <ele>1655.621</ele>
        <time>2022-02-27T10:10:50Z</time>
      </trkpt>
      <trkpt lat="42.84366" lon="0.50391">
        <ele>1655.519</ele>
        <time>2022-02-27T10:10:52Z</time>
      </trkpt>
      <trkpt lat="42.84366" lon="0.50391">
        <ele>1655.272</ele>
        <time>2022-02-27T10:10:54Z</time>
      </trkpt>
      <trkpt lat="42.84365" lon="0.50392">
        <ele>1655.531</ele>
        <time>2022-02-27T10:10:56Z</time>
      </trkpt>
      <trkpt lat="42.84365" lon="0.50393">
        <ele>1655.558</ele>
        <time>2022-02-27T10:10:58Z</time>
      </trkpt>
      <trkpt lat="42.84365" lon="0.50393">
        <ele>1655.018</ele>
        <time>2022-02-27T10:11:00Z</time>
      </trkpt>
      <trkpt lat="42.84364" lon="0.50394">
        <ele>1656.205</ele>
        <time>2022-02-27T10:11:02Z</time>
      </trkpt>
      <trkpt lat="42.84365" lon="0.50395">
        <ele>1656.926</ele>
        <time>2022-02-27T10:11:04Z</time>
      </trkpt>
      <trkpt lat="42.84365" lon="0.50396">
        <ele>1657.099</ele>
        <time>2022-02-27T10:11:06Z</time>
      </trkpt>
      <trkpt lat="42.84365" lon="0.50397">
        <ele>1657.473</ele>
        <time>2022-02-27T10:11:08Z</time>
      </trkpt>
      <trkpt lat="42.84364" lon="0.50398">
        <ele>1657.691</ele>
        <time>2022-02-27T10:11:10Z</time>
      </trkpt>
      <trkpt lat="42.84364" lon="0.50399">
        <ele>1657.786</ele>
        <time>2022-02-27T10:11:12Z</time>
      </trkpt>
      <trkpt lat="42.84364" lon="0.50401">
        <ele>1658.863</ele>
        <time>2022-02-27T10:11:14Z</time>
      </trkpt>
      <trkpt lat="42.84364" lon="0.50402">
        <ele>1659.048</ele>
        <time>2022-02-27T10:11:16Z</time>
      </trkpt>
      <trkpt lat="42.84364" lon="0.50402">
        <ele>1659.112</ele>
        <time>2022-02-27T10:11:18Z</time>
      </trkpt>
      <trkpt lat="42.84365" lon="0.50402">
        <ele>1659.101</ele>
        <time>2022-02-27T10:11:20Z</time>
      </trkpt>
      <trkpt lat="42.84364" lon="0.50404">
        <ele>1659.676</ele>
        <time>2022-02-27T10:11:22Z</time>
      </trkpt>
      <trkpt lat="42.84365" lon="0.50405">
        <ele>1659.775</ele>
        <time>2022-02-27T10:11:24Z</time>
      </trkpt>
      <trkpt lat="42.84365" lon="0.50406">
        <ele>1660.523</ele>
        <time>2022-02-27T10:11:26Z</time>
      </trkpt>
      <trkpt lat="42.84364" lon="0.50408">
        <ele>1661.273</ele>
        <time>2022-02-27T10:11:28Z</time>
      </trkpt>
      <trkpt lat="42.84364" lon="0.50408">
        <ele>1660.488</ele>
        <time>2022-02-27T10:11:30Z</time>
      </trkpt>
      <trkpt lat="42.84364" lon="0.50408">
        <ele>1660.505</ele>
        <time>2022-02-27T10:11:32Z</time>
      </trkpt>
      <trkpt lat="42.84364" lon="0.50408">
        <ele>1660.527</ele>
        <time>2022-02-27T10:11:34Z</time>
      </trkpt>
      <trkpt lat="42.84364" lon="0.50409">
        <ele>1660.426</ele>
        <time>2022-02-27T10:11:36Z</time>
      </trkpt>
      <trkpt lat="42.84364" lon="0.5041">
        <ele>1660.535</ele>
        <time>2022-02-27T10:11:38Z</time>
      </trkpt>
      <trkpt lat="42.84364" lon="0.50411">
        <ele>1660.292</ele>
        <time>2022-02-27T10:11:40Z</time>
      </trkpt>
      <trkpt lat="42.84364" lon="0.50412">
        <ele>1660.262</ele>
        <time>2022-02-27T10:11:42Z</time>
      </trkpt>
      <trkpt lat="42.84364" lon="0.50413">
        <ele>1661.519</ele>
        <time>2022-02-27T10:11:44Z</time>
      </trkpt>
      <trkpt lat="42.84364" lon="0.50414">
        <ele>1661.926</ele>
        <time>2022-02-27T10:11:46Z</time>
      </trkpt>
      <trkpt lat="42.84364" lon="0.50416">
        <ele>1662.778</ele>
        <time>2022-02-27T10:11:48Z</time>
      </trkpt>
      <trkpt lat="42.84364" lon="0.50416">
        <ele>1662.51</ele>
        <time>2022-02-27T10:11:50Z</time>
      </trkpt>
      <trkpt lat="42.84364" lon="0.50417">
        <ele>1663.272</ele>
        <time>2022-02-27T10:11:52Z</time>
      </trkpt>
      <trkpt lat="42.84364" lon="0.50418">
        <ele>1664.107</ele>
        <time>2022-02-27T10:11:54Z</time>
      </trkpt>
      <trkpt lat="42.84364" lon="0.50419">
        <ele>1664.88</ele>
        <time>2022-02-27T10:11:56Z</time>
      </trkpt>
      <trkpt lat="42.84364" lon="0.5042">
        <ele>1665.31</ele>
        <time>2022-02-27T10:11:58Z</time>
      </trkpt>
      <trkpt lat="42.84364" lon="0.50422">
        <ele>1664.848</ele>
        <time>2022-02-27T10:12:00Z</time>
      </trkpt>
      <trkpt lat="42.84364" lon="0.50422">
        <ele>1664.496</ele>
        <time>2022-02-27T10:12:02Z</time>
      </trkpt>
      <trkpt lat="42.84364" lon="0.50422">
        <ele>1664.485</ele>
        <time>2022-02-27T10:12:04Z</time>
      </trkpt>
      <trkpt lat="42.84364" lon="0.50423">
        <ele>1664.735</ele>
        <time>2022-02-27T10:12:06Z</time>
      </trkpt>
      <trkpt lat="42.84364" lon="0.50424">
        <ele>1665.049</ele>
        <time>2022-02-27T10:12:08Z</time>
      </trkpt>
      <trkpt lat="42.84364" lon="0.50425">
        <ele>1664.933</ele>
        <time>2022-02-27T10:12:10Z</time>
      </trkpt>
      <trkpt lat="42.84363" lon="0.50427">
        <ele>1664.02</ele>
        <time>2022-02-27T10:12:12Z</time>
      </trkpt>
      <trkpt lat="42.84363" lon="0.50428">
        <ele>1664.179</ele>
        <time>2022-02-27T10:12:14Z</time>
      </trkpt>
      <trkpt lat="42.84362" lon="0.50429">
        <ele>1663.715</ele>
        <time>2022-02-27T10:12:16Z</time>
      </trkpt>
      <trkpt lat="42.84362" lon="0.5043">
        <ele>1663.901</ele>
        <time>2022-02-27T10:12:18Z</time>
      </trkpt>
      <trkpt lat="42.84362" lon="0.50431">
        <ele>1664.691</ele>
        <time>2022-02-27T10:12:20Z</time>
      </trkpt>
      <trkpt lat="42.84362" lon="0.50433">
        <ele>1666.288</ele>
        <time>2022-02-27T10:12:22Z</time>
      </trkpt>
      <trkpt lat="42.84362" lon="0.50434">
        <ele>1667.321</ele>
        <time>2022-02-27T10:12:24Z</time>
      </trkpt>
      <trkpt lat="42.84362" lon="0.50434">
        <ele>1667.313</ele>
        <time>2022-02-27T10:12:26Z</time>
      </trkpt>
      <trkpt lat="42.84361" lon="0.50434">
        <ele>1667.869</ele>
        <time>2022-02-27T10:12:28Z</time>
      </trkpt>
      <trkpt lat="42.84361" lon="0.50436">
        <ele>1667.334</ele>
        <time>2022-02-27T10:12:30Z</time>
      </trkpt>
      <trkpt lat="42.84361" lon="0.50437">
        <ele>1668.056</ele>
        <time>2022-02-27T10:12:32Z</time>
      </trkpt>
      <trkpt lat="42.84362" lon="0.50439">
        <ele>1668.855</ele>
        <time>2022-02-27T10:12:34Z</time>
      </trkpt>
      <trkpt lat="42.84362" lon="0.5044">
        <ele>1669.352</ele>
        <time>2022-02-27T10:12:36Z</time>
      </trkpt>
      <trkpt lat="42.84363" lon="0.50442">
        <ele>1669.533</ele>
        <time>2022-02-27T10:12:38Z</time>
      </trkpt>
      <trkpt lat="42.84363" lon="0.50443">
        <ele>1669.901</ele>
        <time>2022-02-27T10:12:40Z</time>
      </trkpt>
      <trkpt lat="42.84363" lon="0.50443">
        <ele>1669.653</ele>
        <time>2022-02-27T10:12:42Z</time>
      </trkpt>
      <trkpt lat="42.84364" lon="0.50443">
        <ele>1670.326</ele>
        <time>2022-02-27T10:12:44Z</time>
      </trkpt>
      <trkpt lat="42.84364" lon="0.50443">
        <ele>1670.321</ele>
        <time>2022-02-27T10:12:46Z</time>
      </trkpt>
      <trkpt lat="42.84364" lon="0.50443">
        <ele>1670.318</ele>
        <time>2022-02-27T10:12:48Z</time>
      </trkpt>
      <trkpt lat="42.84364" lon="0.50443">
        <ele>1670.315</ele>
        <time>2022-02-27T10:12:50Z</time>
      </trkpt>
      <trkpt lat="42.84364" lon="0.50443">
        <ele>1670.31</ele>
        <time>2022-02-27T10:12:52Z</time>
      </trkpt>
      <trkpt lat="42.84364" lon="0.50443">
        <ele>1670.307</ele>
        <time>2022-02-27T10:12:54Z</time>
      </trkpt>
      <trkpt lat="42.84363" lon="0.50443">
        <ele>1670.331</ele>
        <time>2022-02-27T10:12:56Z</time>
      </trkpt>
      <trkpt lat="42.84363" lon="0.50443">
        <ele>1670.33</ele>
        <time>2022-02-27T10:12:58Z</time>
      </trkpt>
      <trkpt lat="42.84363" lon="0.50443">
        <ele>1670.323</ele>
        <time>2022-02-27T10:13:00Z</time>
      </trkpt>
      <trkpt lat="42.84363" lon="0.50443">
        <ele>1670.313</ele>
        <time>2022-02-27T10:13:02Z</time>
      </trkpt>
      <trkpt lat="42.84363" lon="0.50443">
        <ele>1670.312</ele>
        <time>2022-02-27T10:13:04Z</time>
      </trkpt>
      <trkpt lat="42.84363" lon="0.50442">
        <ele>1670.191</ele>
        <time>2022-02-27T10:13:06Z</time>
      </trkpt>
      <trkpt lat="42.84363" lon="0.50442">
        <ele>1670.183</ele>
        <time>2022-02-27T10:13:07Z</time>
      </trkpt>
      <trkpt lat="42.84363" lon="0.50442">
        <ele>1670.189</ele>
        <time>2022-02-27T10:13:10Z</time>
      </trkpt>
      <trkpt lat="42.84363" lon="0.50442">
        <ele>1670.222</ele>
        <time>2022-02-27T10:13:12Z</time>
      </trkpt>
      <trkpt lat="42.84363" lon="0.50442">
        <ele>1670.226</ele>
        <time>2022-02-27T10:13:14Z</time>
      </trkpt>
      <trkpt lat="42.84363" lon="0.50442">
        <ele>1670.172</ele>
        <time>2022-02-27T10:13:16Z</time>
      </trkpt>
      <trkpt lat="42.84363" lon="0.50442">
        <ele>1670.154</ele>
        <time>2022-02-27T10:13:18Z</time>
      </trkpt>
      <trkpt lat="42.84363" lon="0.50442">
        <ele>1670.155</ele>
        <time>2022-02-27T10:13:20Z</time>
      </trkpt>
      <trkpt lat="42.84363" lon="0.50442">
        <ele>1670.154</ele>
        <time>2022-02-27T10:13:22Z</time>
      </trkpt>
      <trkpt lat="42.84363" lon="0.50442">
        <ele>1670.158</ele>
        <time>2022-02-27T10:13:24Z</time>
      </trkpt>
      <trkpt lat="42.84363" lon="0.50442">
        <ele>1670.174</ele>
        <time>2022-02-27T10:13:26Z</time>
      </trkpt>
      <trkpt lat="42.84363" lon="0.50442">
        <ele>1670.173</ele>
        <time>2022-02-27T10:13:28Z</time>
      </trkpt>
      <trkpt lat="42.84363" lon="0.50442">
        <ele>1670.175</ele>
        <time>2022-02-27T10:13:30Z</time>
      </trkpt>
      <trkpt lat="42.84363" lon="0.50442">
        <ele>1670.188</ele>
        <time>2022-02-27T10:13:32Z</time>
      </trkpt>
      <trkpt lat="42.84363" lon="0.50442">
        <ele>1670.196</ele>
        <time>2022-02-27T10:13:34Z</time>
      </trkpt>
      <trkpt lat="42.84363" lon="0.50442">
        <ele>1670.192</ele>
        <time>2022-02-27T10:13:36Z</time>
      </trkpt>
      <trkpt lat="42.84363" lon="0.50442">
        <ele>1670.164</ele>
        <time>2022-02-27T10:13:38Z</time>
      </trkpt>
      <trkpt lat="42.84363" lon="0.50442">
        <ele>1670.145</ele>
        <time>2022-02-27T10:13:40Z</time>
      </trkpt>
      <trkpt lat="42.84363" lon="0.50442">
        <ele>1670.124</ele>
        <time>2022-02-27T10:13:42Z</time>
      </trkpt>
      <trkpt lat="42.84363" lon="0.50442">
        <ele>1670.106</ele>
        <time>2022-02-27T10:13:44Z</time>
      </trkpt>
      <trkpt lat="42.84363" lon="0.50442">
        <ele>1670.101</ele>
        <time>2022-02-27T10:13:46Z</time>
      </trkpt>
      <trkpt lat="42.84363" lon="0.50443">
        <ele>1670.159</ele>
        <time>2022-02-27T10:13:48Z</time>
      </trkpt>
      <trkpt lat="42.84363" lon="0.50445">
        <ele>1670.485</ele>
        <time>2022-02-27T10:13:50Z</time>
      </trkpt>
      <trkpt lat="42.84363" lon="0.50449">
        <ele>1669.389</ele>
        <time>2022-02-27T10:13:52Z</time>
      </trkpt>
      <trkpt lat="42.84362" lon="0.5045">
        <ele>1668.729</ele>
        <time>2022-02-27T10:13:54Z</time>
      </trkpt>
      <trkpt lat="42.84362" lon="0.50451">
        <ele>1669.984</ele>
        <time>2022-02-27T10:13:56Z</time>
      </trkpt>
      <trkpt lat="42.84362" lon="0.50453">
        <ele>1670.794</ele>
        <time>2022-02-27T10:13:58Z</time>
      </trkpt>
      <trkpt lat="42.84361" lon="0.50455">
        <ele>1671.707</ele>
        <time>2022-02-27T10:14:00Z</time>
      </trkpt>
      <trkpt lat="42.84361" lon="0.50457">
        <ele>1672.443</ele>
        <time>2022-02-27T10:14:02Z</time>
      </trkpt>
      <trkpt lat="42.84361" lon="0.50459">
        <ele>1673.875</ele>
        <time>2022-02-27T10:14:04Z</time>
      </trkpt>
      <trkpt lat="42.8436" lon="0.50461">
        <ele>1674.219</ele>
        <time>2022-02-27T10:14:06Z</time>
      </trkpt>
      <trkpt lat="42.84361" lon="0.5046">
        <ele>1673.272</ele>
        <time>2022-02-27T10:14:08Z</time>
      </trkpt>
      <trkpt lat="42.84361" lon="0.50459">
        <ele>1673.262</ele>
        <time>2022-02-27T10:14:10Z</time>
      </trkpt>
      <trkpt lat="42.84361" lon="0.5046">
        <ele>1673.344</ele>
        <time>2022-02-27T10:14:12Z</time>
      </trkpt>
      <trkpt lat="42.8436" lon="0.50463">
        <ele>1673.229</ele>
        <time>2022-02-27T10:14:14Z</time>
      </trkpt>
      <trkpt lat="42.84359" lon="0.50464">
        <ele>1674.067</ele>
        <time>2022-02-27T10:14:16Z</time>
      </trkpt>
      <trkpt lat="42.84359" lon="0.50465">
        <ele>1674.47</ele>
        <time>2022-02-27T10:14:18Z</time>
      </trkpt>
      <trkpt lat="42.84359" lon="0.50466">
        <ele>1675.494</ele>
        <time>2022-02-27T10:14:20Z</time>
      </trkpt>
      <trkpt lat="42.84358" lon="0.50468">
        <ele>1675.113</ele>
        <time>2022-02-27T10:14:22Z</time>
      </trkpt>
      <trkpt lat="42.84358" lon="0.5047">
        <ele>1675.164</ele>
        <time>2022-02-27T10:14:24Z</time>
      </trkpt>
      <trkpt lat="42.84357" lon="0.50472">
        <ele>1675.393</ele>
        <time>2022-02-27T10:14:26Z</time>
      </trkpt>
      <trkpt lat="42.84357" lon="0.50472">
        <ele>1673.975</ele>
        <time>2022-02-27T10:14:28Z</time>
      </trkpt>
      <trkpt lat="42.84357" lon="0.50473">
        <ele>1673.991</ele>
        <time>2022-02-27T10:14:30Z</time>
      </trkpt>
      <trkpt lat="42.84357" lon="0.50474">
        <ele>1671.666</ele>
        <time>2022-02-27T10:14:32Z</time>
      </trkpt>
      <trkpt lat="42.84357" lon="0.50474">
        <ele>1670.728</ele>
        <time>2022-02-27T10:14:34Z</time>
      </trkpt>
      <trkpt lat="42.84356" lon="0.50476">
        <ele>1671.288</ele>
        <time>2022-02-27T10:14:36Z</time>
      </trkpt>
      <trkpt lat="42.84356" lon="0.50477">
        <ele>1671.414</ele>
        <time>2022-02-27T10:14:38Z</time>
      </trkpt>
      <trkpt lat="42.84355" lon="0.50478">
        <ele>1671.691</ele>
        <time>2022-02-27T10:14:40Z</time>
      </trkpt>
      <trkpt lat="42.84355" lon="0.50479">
        <ele>1673.201</ele>
        <time>2022-02-27T10:14:42Z</time>
      </trkpt>
      <trkpt lat="42.84354" lon="0.50481">
        <ele>1673.897</ele>
        <time>2022-02-27T10:14:44Z</time>
      </trkpt>
      <trkpt lat="42.84354" lon="0.50482">
        <ele>1675.045</ele>
        <time>2022-02-27T10:14:46Z</time>
      </trkpt>
      <trkpt lat="42.84355" lon="0.50481">
        <ele>1675.221</ele>
        <time>2022-02-27T10:14:48Z</time>
      </trkpt>
      <trkpt lat="42.84355" lon="0.50481">
        <ele>1674.984</ele>
        <time>2022-02-27T10:14:50Z</time>
      </trkpt>
      <trkpt lat="42.84354" lon="0.50482">
        <ele>1673.725</ele>
        <time>2022-02-27T10:14:52Z</time>
      </trkpt>
      <trkpt lat="42.84354" lon="0.50484">
        <ele>1674.374</ele>
        <time>2022-02-27T10:14:54Z</time>
      </trkpt>
      <trkpt lat="42.84354" lon="0.50486">
        <ele>1675.256</ele>
        <time>2022-02-27T10:14:56Z</time>
      </trkpt>
      <trkpt lat="42.84353" lon="0.50487">
        <ele>1676.348</ele>
        <time>2022-02-27T10:14:58Z</time>
      </trkpt>
      <trkpt lat="42.84353" lon="0.50487">
        <ele>1677.138</ele>
        <time>2022-02-27T10:15:00Z</time>
      </trkpt>
      <trkpt lat="42.84353" lon="0.50487">
        <ele>1677.126</ele>
        <time>2022-02-27T10:15:02Z</time>
      </trkpt>
      <trkpt lat="42.84353" lon="0.50488">
        <ele>1677.427</ele>
        <time>2022-02-27T10:15:04Z</time>
      </trkpt>
      <trkpt lat="42.84353" lon="0.50488">
        <ele>1677.416</ele>
        <time>2022-02-27T10:15:06Z</time>
      </trkpt>
      <trkpt lat="42.84353" lon="0.50488">
        <ele>1677.271</ele>
        <time>2022-02-27T10:15:08Z</time>
      </trkpt>
      <trkpt lat="42.84352" lon="0.50488">
        <ele>1677.119</ele>
        <time>2022-02-27T10:15:10Z</time>
      </trkpt>
      <trkpt lat="42.84352" lon="0.50489">
        <ele>1677.467</ele>
        <time>2022-02-27T10:15:12Z</time>
      </trkpt>
      <trkpt lat="42.84353" lon="0.5049">
        <ele>1676.679</ele>
        <time>2022-02-27T10:15:14Z</time>
      </trkpt>
      <trkpt lat="42.84352" lon="0.50491">
        <ele>1676.662</ele>
        <time>2022-02-27T10:15:16Z</time>
      </trkpt>
      <trkpt lat="42.84352" lon="0.50492">
        <ele>1677.263</ele>
        <time>2022-02-27T10:15:18Z</time>
      </trkpt>
      <trkpt lat="42.84352" lon="0.50492">
        <ele>1677.264</ele>
        <time>2022-02-27T10:15:20Z</time>
      </trkpt>
      <trkpt lat="42.84352" lon="0.50493">
        <ele>1676.68</ele>
        <time>2022-02-27T10:15:22Z</time>
      </trkpt>
      <trkpt lat="42.84351" lon="0.50494">
        <ele>1676.682</ele>
        <time>2022-02-27T10:15:24Z</time>
      </trkpt>
      <trkpt lat="42.8435" lon="0.50496">
        <ele>1676.254</ele>
        <time>2022-02-27T10:15:26Z</time>
      </trkpt>
      <trkpt lat="42.84352" lon="0.50495">
        <ele>1674.364</ele>
        <time>2022-02-27T10:15:28Z</time>
      </trkpt>
      <trkpt lat="42.84352" lon="0.50495">
        <ele>1674.276</ele>
        <time>2022-02-27T10:15:30Z</time>
      </trkpt>
      <trkpt lat="42.84352" lon="0.50495">
        <ele>1674.251</ele>
        <time>2022-02-27T10:15:32Z</time>
      </trkpt>
      <trkpt lat="42.84352" lon="0.50496">
        <ele>1674.565</ele>
        <time>2022-02-27T10:15:34Z</time>
      </trkpt>
      <trkpt lat="42.84351" lon="0.50498">
        <ele>1674.4</ele>
        <time>2022-02-27T10:15:36Z</time>
      </trkpt>
      <trkpt lat="42.84351" lon="0.50498">
        <ele>1675.488</ele>
        <time>2022-02-27T10:15:38Z</time>
      </trkpt>
      <trkpt lat="42.8435" lon="0.50499">
        <ele>1675.113</ele>
        <time>2022-02-27T10:15:40Z</time>
      </trkpt>
      <trkpt lat="42.8435" lon="0.505">
        <ele>1675.488</ele>
        <time>2022-02-27T10:15:42Z</time>
      </trkpt>
      <trkpt lat="42.84349" lon="0.505">
        <ele>1677.221</ele>
        <time>2022-02-27T10:15:44Z</time>
      </trkpt>
      <trkpt lat="42.84349" lon="0.50501">
        <ele>1677.746</ele>
        <time>2022-02-27T10:15:46Z</time>
      </trkpt>
      <trkpt lat="42.8435" lon="0.50501">
        <ele>1678.232</ele>
        <time>2022-02-27T10:15:48Z</time>
      </trkpt>
      <trkpt lat="42.8435" lon="0.50502">
        <ele>1678.269</ele>
        <time>2022-02-27T10:15:50Z</time>
      </trkpt>
      <trkpt lat="42.8435" lon="0.50503">
        <ele>1678.465</ele>
        <time>2022-02-27T10:15:52Z</time>
      </trkpt>
      <trkpt lat="42.8435" lon="0.50503">
        <ele>1678.908</ele>
        <time>2022-02-27T10:15:54Z</time>
      </trkpt>
      <trkpt lat="42.84348" lon="0.50504">
        <ele>1678.82</ele>
        <time>2022-02-27T10:15:56Z</time>
      </trkpt>
      <trkpt lat="42.84348" lon="0.50504">
        <ele>1678.764</ele>
        <time>2022-02-27T10:15:58Z</time>
      </trkpt>
      <trkpt lat="42.84348" lon="0.50504">
        <ele>1678.766</ele>
        <time>2022-02-27T10:16:00Z</time>
      </trkpt>
      <trkpt lat="42.84348" lon="0.50504">
        <ele>1679.216</ele>
        <time>2022-02-27T10:16:02Z</time>
      </trkpt>
      <trkpt lat="42.84348" lon="0.50504">
        <ele>1679.177</ele>
        <time>2022-02-27T10:16:04Z</time>
      </trkpt>
      <trkpt lat="42.84348" lon="0.50504">
        <ele>1679.162</ele>
        <time>2022-02-27T10:16:06Z</time>
      </trkpt>
      <trkpt lat="42.84348" lon="0.50505">
        <ele>1679.57</ele>
        <time>2022-02-27T10:16:08Z</time>
      </trkpt>
      <trkpt lat="42.84347" lon="0.50505">
        <ele>1680.559</ele>
        <time>2022-02-27T10:16:10Z</time>
      </trkpt>
      <trkpt lat="42.84347" lon="0.50506">
        <ele>1681.159</ele>
        <time>2022-02-27T10:16:12Z</time>
      </trkpt>
      <trkpt lat="42.84347" lon="0.50506">
        <ele>1680.839</ele>
        <time>2022-02-27T10:16:14Z</time>
      </trkpt>
      <trkpt lat="42.84346" lon="0.50508">
        <ele>1682.04</ele>
        <time>2022-02-27T10:16:16Z</time>
      </trkpt>
      <trkpt lat="42.84345" lon="0.50507">
        <ele>1683.092</ele>
        <time>2022-02-27T10:16:18Z</time>
      </trkpt>
      <trkpt lat="42.84345" lon="0.50507">
        <ele>1683.069</ele>
        <time>2022-02-27T10:16:20Z</time>
      </trkpt>
      <trkpt lat="42.84345" lon="0.50507">
        <ele>1683.061</ele>
        <time>2022-02-27T10:16:22Z</time>
      </trkpt>
      <trkpt lat="42.84345" lon="0.50507">
        <ele>1683.051</ele>
        <time>2022-02-27T10:16:24Z</time>
      </trkpt>
      <trkpt lat="42.84345" lon="0.50507">
        <ele>1683.011</ele>
        <time>2022-02-27T10:16:26Z</time>
      </trkpt>
      <trkpt lat="42.84345" lon="0.50507">
        <ele>1682.992</ele>
        <time>2022-02-27T10:16:28Z</time>
      </trkpt>
      <trkpt lat="42.84345" lon="0.50507">
        <ele>1682.991</ele>
        <time>2022-02-27T10:16:30Z</time>
      </trkpt>
      <trkpt lat="42.84345" lon="0.50507">
        <ele>1682.993</ele>
        <time>2022-02-27T10:16:32Z</time>
      </trkpt>
      <trkpt lat="42.84345" lon="0.50507">
        <ele>1682.985</ele>
        <time>2022-02-27T10:16:34Z</time>
      </trkpt>
      <trkpt lat="42.84345" lon="0.50507">
        <ele>1682.985</ele>
        <time>2022-02-27T10:16:36Z</time>
      </trkpt>
      <trkpt lat="42.84345" lon="0.50507">
        <ele>1682.985</ele>
        <time>2022-02-27T10:16:38Z</time>
      </trkpt>
      <trkpt lat="42.84345" lon="0.50507">
        <ele>1682.992</ele>
        <time>2022-02-27T10:16:40Z</time>
      </trkpt>
      <trkpt lat="42.84345" lon="0.50507">
        <ele>1682.991</ele>
        <time>2022-02-27T10:16:42Z</time>
      </trkpt>
      <trkpt lat="42.84345" lon="0.50507">
        <ele>1682.986</ele>
        <time>2022-02-27T10:16:44Z</time>
      </trkpt>
      <trkpt lat="42.84345" lon="0.50507">
        <ele>1682.97</ele>
        <time>2022-02-27T10:16:46Z</time>
      </trkpt>
      <trkpt lat="42.84345" lon="0.50507">
        <ele>1682.982</ele>
        <time>2022-02-27T10:16:48Z</time>
      </trkpt>
      <trkpt lat="42.84345" lon="0.50507">
        <ele>1682.97</ele>
        <time>2022-02-27T10:16:50Z</time>
      </trkpt>
      <trkpt lat="42.84345" lon="0.50507">
        <ele>1682.97</ele>
        <time>2022-02-27T10:16:52Z</time>
      </trkpt>
      <trkpt lat="42.84345" lon="0.50507">
        <ele>1682.978</ele>
        <time>2022-02-27T10:16:54Z</time>
      </trkpt>
      <trkpt lat="42.84345" lon="0.50507">
        <ele>1682.936</ele>
        <time>2022-02-27T10:16:56Z</time>
      </trkpt>
      <trkpt lat="42.84345" lon="0.50507">
        <ele>1682.899</ele>
        <time>2022-02-27T10:16:58Z</time>
      </trkpt>
      <trkpt lat="42.84345" lon="0.50507">
        <ele>1682.858</ele>
        <time>2022-02-27T10:17:00Z</time>
      </trkpt>
      <trkpt lat="42.84345" lon="0.50507">
        <ele>1682.805</ele>
        <time>2022-02-27T10:17:02Z</time>
      </trkpt>
      <trkpt lat="42.84345" lon="0.50507">
        <ele>1682.809</ele>
        <time>2022-02-27T10:17:04Z</time>
      </trkpt>
      <trkpt lat="42.84345" lon="0.50507">
        <ele>1682.799</ele>
        <time>2022-02-27T10:17:06Z</time>
      </trkpt>
      <trkpt lat="42.84345" lon="0.50507">
        <ele>1682.794</ele>
        <time>2022-02-27T10:17:08Z</time>
      </trkpt>
      <trkpt lat="42.84345" lon="0.50507">
        <ele>1682.774</ele>
        <time>2022-02-27T10:17:10Z</time>
      </trkpt>
      <trkpt lat="42.84345" lon="0.50507">
        <ele>1682.972</ele>
        <time>2022-02-27T10:17:12Z</time>
      </trkpt>
      <trkpt lat="42.84345" lon="0.50508">
        <ele>1683.867</ele>
        <time>2022-02-27T10:17:14Z</time>
      </trkpt>
      <trkpt lat="42.84345" lon="0.50508">
        <ele>1683.864</ele>
        <time>2022-02-27T10:17:16Z</time>
      </trkpt>
      <trkpt lat="42.84344" lon="0.50508">
        <ele>1683.344</ele>
        <time>2022-02-27T10:17:18Z</time>
      </trkpt>
      <trkpt lat="42.84343" lon="0.50509">
        <ele>1683.393</ele>
        <time>2022-02-27T10:17:20Z</time>
      </trkpt>
      <trkpt lat="42.84343" lon="0.5051">
        <ele>1683.355</ele>
        <time>2022-02-27T10:17:22Z</time>
      </trkpt>
      <trkpt lat="42.84342" lon="0.50511">
        <ele>1683.422</ele>
        <time>2022-02-27T10:17:24Z</time>
      </trkpt>
      <trkpt lat="42.84343" lon="0.50511">
        <ele>1683.253</ele>
        <time>2022-02-27T10:17:26Z</time>
      </trkpt>
      <trkpt lat="42.84343" lon="0.50512">
        <ele>1683.607</ele>
        <time>2022-02-27T10:17:28Z</time>
      </trkpt>
      <trkpt lat="42.84343" lon="0.50513">
        <ele>1683.232</ele>
        <time>2022-02-27T10:17:30Z</time>
      </trkpt>
      <trkpt lat="42.84343" lon="0.50515">
        <ele>1683.699</ele>
        <time>2022-02-27T10:17:32Z</time>
      </trkpt>
      <trkpt lat="42.84344" lon="0.50516">
        <ele>1684.195</ele>
        <time>2022-02-27T10:17:34Z</time>
      </trkpt>
      <trkpt lat="42.84344" lon="0.50516">
        <ele>1684.243</ele>
        <time>2022-02-27T10:17:36Z</time>
      </trkpt>
      <trkpt lat="42.84345" lon="0.50517">
        <ele>1685.658</ele>
        <time>2022-02-27T10:17:38Z</time>
      </trkpt>
      <trkpt lat="42.84346" lon="0.50518">
        <ele>1685.267</ele>
        <time>2022-02-27T10:17:40Z</time>
      </trkpt>
      <trkpt lat="42.84346" lon="0.50519">
        <ele>1686.873</ele>
        <time>2022-02-27T10:17:42Z</time>
      </trkpt>
      <trkpt lat="42.84347" lon="0.5052">
        <ele>1688.342</ele>
        <time>2022-02-27T10:17:44Z</time>
      </trkpt>
      <trkpt lat="42.84347" lon="0.50521">
        <ele>1688.546</ele>
        <time>2022-02-27T10:17:46Z</time>
      </trkpt>
      <trkpt lat="42.84347" lon="0.50522">
        <ele>1687.982</ele>
        <time>2022-02-27T10:17:48Z</time>
      </trkpt>
      <trkpt lat="42.84348" lon="0.50524">
        <ele>1688.364</ele>
        <time>2022-02-27T10:17:50Z</time>
      </trkpt>
      <trkpt lat="42.84349" lon="0.50525">
        <ele>1688.641</ele>
        <time>2022-02-27T10:17:52Z</time>
      </trkpt>
      <trkpt lat="42.84349" lon="0.50526">
        <ele>1689.174</ele>
        <time>2022-02-27T10:17:54Z</time>
      </trkpt>
      <trkpt lat="42.84349" lon="0.50526">
        <ele>1689.45</ele>
        <time>2022-02-27T10:17:56Z</time>
      </trkpt>
      <trkpt lat="42.84348" lon="0.50528">
        <ele>1689.123</ele>
        <time>2022-02-27T10:17:58Z</time>
      </trkpt>
      <trkpt lat="42.84348" lon="0.5053">
        <ele>1688.899</ele>
        <time>2022-02-27T10:18:00Z</time>
      </trkpt>
      <trkpt lat="42.84347" lon="0.50532">
        <ele>1689.042</ele>
        <time>2022-02-27T10:18:02Z</time>
      </trkpt>
      <trkpt lat="42.84347" lon="0.50533">
        <ele>1687.882</ele>
        <time>2022-02-27T10:18:04Z</time>
      </trkpt>
      <trkpt lat="42.84347" lon="0.50535">
        <ele>1689.231</ele>
        <time>2022-02-27T10:18:06Z</time>
      </trkpt>
      <trkpt lat="42.84346" lon="0.50535">
        <ele>1691.209</ele>
        <time>2022-02-27T10:18:08Z</time>
      </trkpt>
      <trkpt lat="42.84346" lon="0.50535">
        <ele>1691.22</ele>
        <time>2022-02-27T10:18:10Z</time>
      </trkpt>
      <trkpt lat="42.84347" lon="0.50535">
        <ele>1690.147</ele>
        <time>2022-02-27T10:18:12Z</time>
      </trkpt>
      <trkpt lat="42.84346" lon="0.50536">
        <ele>1689.211</ele>
        <time>2022-02-27T10:18:15Z</time>
      </trkpt>
      <trkpt lat="42.84346" lon="0.50538">
        <ele>1689.052</ele>
        <time>2022-02-27T10:18:17Z</time>
      </trkpt>
      <trkpt lat="42.84345" lon="0.5054">
        <ele>1688.92</ele>
        <time>2022-02-27T10:18:19Z</time>
      </trkpt>
      <trkpt lat="42.84345" lon="0.50542">
        <ele>1689.212</ele>
        <time>2022-02-27T10:18:21Z</time>
      </trkpt>
      <trkpt lat="42.84345" lon="0.50542">
        <ele>1689.144</ele>
        <time>2022-02-27T10:18:23Z</time>
      </trkpt>
      <trkpt lat="42.84345" lon="0.50542">
        <ele>1688.973</ele>
        <time>2022-02-27T10:18:25Z</time>
      </trkpt>
      <trkpt lat="42.84344" lon="0.50544">
        <ele>1689.839</ele>
        <time>2022-02-27T10:18:27Z</time>
      </trkpt>
      <trkpt lat="42.84345" lon="0.50545">
        <ele>1689.204</ele>
        <time>2022-02-27T10:18:29Z</time>
      </trkpt>
      <trkpt lat="42.84345" lon="0.50544">
        <ele>1689.485</ele>
        <time>2022-02-27T10:18:31Z</time>
      </trkpt>
      <trkpt lat="42.84345" lon="0.50544">
        <ele>1689.152</ele>
        <time>2022-02-27T10:18:33Z</time>
      </trkpt>
      <trkpt lat="42.84345" lon="0.50544">
        <ele>1689.17</ele>
        <time>2022-02-27T10:18:35Z</time>
      </trkpt>
      <trkpt lat="42.84345" lon="0.50544">
        <ele>1689.173</ele>
        <time>2022-02-27T10:18:37Z</time>
      </trkpt>
      <trkpt lat="42.84345" lon="0.50544">
        <ele>1689.345</ele>
        <time>2022-02-27T10:18:39Z</time>
      </trkpt>
      <trkpt lat="42.84345" lon="0.50544">
        <ele>1689.347</ele>
        <time>2022-02-27T10:18:41Z</time>
      </trkpt>
      <trkpt lat="42.84345" lon="0.50544">
        <ele>1689.337</ele>
        <time>2022-02-27T10:18:43Z</time>
      </trkpt>
      <trkpt lat="42.84345" lon="0.50544">
        <ele>1689.758</ele>
        <time>2022-02-27T10:18:45Z</time>
      </trkpt>
      <trkpt lat="42.84345" lon="0.50544">
        <ele>1689.786</ele>
        <time>2022-02-27T10:18:47Z</time>
      </trkpt>
      <trkpt lat="42.84346" lon="0.50546">
        <ele>1688.772</ele>
        <time>2022-02-27T10:18:49Z</time>
      </trkpt>
      <trkpt lat="42.84346" lon="0.50547">
        <ele>1687.784</ele>
        <time>2022-02-27T10:18:51Z</time>
      </trkpt>
      <trkpt lat="42.84346" lon="0.50548">
        <ele>1688.168</ele>
        <time>2022-02-27T10:18:53Z</time>
      </trkpt>
      <trkpt lat="42.84346" lon="0.50548">
        <ele>1688.058</ele>
        <time>2022-02-27T10:18:55Z</time>
      </trkpt>
      <trkpt lat="42.84345" lon="0.50549">
        <ele>1688.116</ele>
        <time>2022-02-27T10:18:57Z</time>
      </trkpt>
      <trkpt lat="42.84344" lon="0.50549">
        <ele>1687.561</ele>
        <time>2022-02-27T10:18:59Z</time>
      </trkpt>
      <trkpt lat="42.84342" lon="0.50549">
        <ele>1688.211</ele>
        <time>2022-02-27T10:19:01Z</time>
      </trkpt>
      <trkpt lat="42.84342" lon="0.50549">
        <ele>1689.845</ele>
        <time>2022-02-27T10:19:03Z</time>
      </trkpt>
      <trkpt lat="42.84342" lon="0.50549">
        <ele>1690.719</ele>
        <time>2022-02-27T10:19:05Z</time>
      </trkpt>
      <trkpt lat="42.84342" lon="0.50548">
        <ele>1690.698</ele>
        <time>2022-02-27T10:19:07Z</time>
      </trkpt>
      <trkpt lat="42.84342" lon="0.50548">
        <ele>1690.701</ele>
        <time>2022-02-27T10:19:09Z</time>
      </trkpt>
      <trkpt lat="42.84342" lon="0.50548">
        <ele>1690.702</ele>
        <time>2022-02-27T10:19:11Z</time>
      </trkpt>
      <trkpt lat="42.84341" lon="0.50549">
        <ele>1690.994</ele>
        <time>2022-02-27T10:19:13Z</time>
      </trkpt>
      <trkpt lat="42.84341" lon="0.50549">
        <ele>1690.951</ele>
        <time>2022-02-27T10:19:15Z</time>
      </trkpt>
      <trkpt lat="42.84341" lon="0.5055">
        <ele>1690.672</ele>
        <time>2022-02-27T10:19:17Z</time>
      </trkpt>
      <trkpt lat="42.8434" lon="0.5055">
        <ele>1691.393</ele>
        <time>2022-02-27T10:19:19Z</time>
      </trkpt>
      <trkpt lat="42.8434" lon="0.50552">
        <ele>1691.296</ele>
        <time>2022-02-27T10:19:21Z</time>
      </trkpt>
      <trkpt lat="42.84341" lon="0.50553">
        <ele>1691.595</ele>
        <time>2022-02-27T10:19:23Z</time>
      </trkpt>
      <trkpt lat="42.84341" lon="0.50554">
        <ele>1691.379</ele>
        <time>2022-02-27T10:19:25Z</time>
      </trkpt>
      <trkpt lat="42.8434" lon="0.50555">
        <ele>1690.487</ele>
        <time>2022-02-27T10:19:27Z</time>
      </trkpt>
      <trkpt lat="42.8434" lon="0.50556">
        <ele>1690.187</ele>
        <time>2022-02-27T10:19:29Z</time>
      </trkpt>
      <trkpt lat="42.84339" lon="0.50556">
        <ele>1689.618</ele>
        <time>2022-02-27T10:19:31Z</time>
      </trkpt>
      <trkpt lat="42.84338" lon="0.50557">
        <ele>1690.742</ele>
        <time>2022-02-27T10:19:33Z</time>
      </trkpt>
      <trkpt lat="42.84338" lon="0.50558">
        <ele>1691.328</ele>
        <time>2022-02-27T10:19:35Z</time>
      </trkpt>
      <trkpt lat="42.84338" lon="0.50558">
        <ele>1691.377</ele>
        <time>2022-02-27T10:19:37Z</time>
      </trkpt>
      <trkpt lat="42.84338" lon="0.50558">
        <ele>1691.847</ele>
        <time>2022-02-27T10:19:39Z</time>
      </trkpt>
      <trkpt lat="42.84338" lon="0.50557">
        <ele>1691.85</ele>
        <time>2022-02-27T10:19:41Z</time>
      </trkpt>
      <trkpt lat="42.84338" lon="0.50557">
        <ele>1692.136</ele>
        <time>2022-02-27T10:19:43Z</time>
      </trkpt>
      <trkpt lat="42.84338" lon="0.50558">
        <ele>1693.048</ele>
        <time>2022-02-27T10:19:45Z</time>
      </trkpt>
      <trkpt lat="42.84337" lon="0.50558">
        <ele>1693.154</ele>
        <time>2022-02-27T10:19:47Z</time>
      </trkpt>
      <trkpt lat="42.84337" lon="0.50559">
        <ele>1693.737</ele>
        <time>2022-02-27T10:19:49Z</time>
      </trkpt>
      <trkpt lat="42.84335" lon="0.50558">
        <ele>1696.577</ele>
        <time>2022-02-27T10:19:51Z</time>
      </trkpt>
      <trkpt lat="42.84335" lon="0.50558">
        <ele>1697.517</ele>
        <time>2022-02-27T10:19:53Z</time>
      </trkpt>
      <trkpt lat="42.84335" lon="0.50558">
        <ele>1697.521</ele>
        <time>2022-02-27T10:19:55Z</time>
      </trkpt>
      <trkpt lat="42.84334" lon="0.50558">
        <ele>1697.911</ele>
        <time>2022-02-27T10:19:57Z</time>
      </trkpt>
      <trkpt lat="42.84334" lon="0.50559">
        <ele>1698.21</ele>
        <time>2022-02-27T10:19:59Z</time>
      </trkpt>
      <trkpt lat="42.84333" lon="0.50559">
        <ele>1698.1</ele>
        <time>2022-02-27T10:20:01Z</time>
      </trkpt>
      <trkpt lat="42.84333" lon="0.5056">
        <ele>1699.375</ele>
        <time>2022-02-27T10:20:03Z</time>
      </trkpt>
      <trkpt lat="42.84332" lon="0.5056">
        <ele>1699.698</ele>
        <time>2022-02-27T10:20:05Z</time>
      </trkpt>
      <trkpt lat="42.84331" lon="0.50561">
        <ele>1700.239</ele>
        <time>2022-02-27T10:20:07Z</time>
      </trkpt>
      <trkpt lat="42.8433" lon="0.50561">
        <ele>1700.578</ele>
        <time>2022-02-27T10:20:09Z</time>
      </trkpt>
      <trkpt lat="42.84329" lon="0.50562">
        <ele>1700.867</ele>
        <time>2022-02-27T10:20:11Z</time>
      </trkpt>
      <trkpt lat="42.84329" lon="0.50563">
        <ele>1702.094</ele>
        <time>2022-02-27T10:20:13Z</time>
      </trkpt>
      <trkpt lat="42.84328" lon="0.50564">
        <ele>1702.973</ele>
        <time>2022-02-27T10:20:15Z</time>
      </trkpt>
      <trkpt lat="42.84328" lon="0.50563">
        <ele>1703.382</ele>
        <time>2022-02-27T10:20:17Z</time>
      </trkpt>
      <trkpt lat="42.84327" lon="0.50563">
        <ele>1703.38</ele>
        <time>2022-02-27T10:20:19Z</time>
      </trkpt>
      <trkpt lat="42.84327" lon="0.50563">
        <ele>1703.381</ele>
        <time>2022-02-27T10:20:21Z</time>
      </trkpt>
      <trkpt lat="42.84327" lon="0.50563">
        <ele>1703.387</ele>
        <time>2022-02-27T10:20:23Z</time>
      </trkpt>
      <trkpt lat="42.84327" lon="0.50563">
        <ele>1703.527</ele>
        <time>2022-02-27T10:20:25Z</time>
      </trkpt>
      <trkpt lat="42.84327" lon="0.50563">
        <ele>1703.524</ele>
        <time>2022-02-27T10:20:27Z</time>
      </trkpt>
      <trkpt lat="42.84327" lon="0.50563">
        <ele>1703.526</ele>
        <time>2022-02-27T10:20:29Z</time>
      </trkpt>
      <trkpt lat="42.84327" lon="0.50563">
        <ele>1703.525</ele>
        <time>2022-02-27T10:20:31Z</time>
      </trkpt>
      <trkpt lat="42.84327" lon="0.50563">
        <ele>1703.528</ele>
        <time>2022-02-27T10:20:33Z</time>
      </trkpt>
      <trkpt lat="42.84327" lon="0.50563">
        <ele>1703.525</ele>
        <time>2022-02-27T10:20:35Z</time>
      </trkpt>
      <trkpt lat="42.84327" lon="0.50563">
        <ele>1703.527</ele>
        <time>2022-02-27T10:20:37Z</time>
      </trkpt>
      <trkpt lat="42.84327" lon="0.50564">
        <ele>1704.301</ele>
        <time>2022-02-27T10:20:39Z</time>
      </trkpt>
      <trkpt lat="42.84327" lon="0.50564">
        <ele>1704.813</ele>
        <time>2022-02-27T10:20:40Z</time>
      </trkpt>
      <trkpt lat="42.84327" lon="0.50565">
        <ele>1706.035</ele>
        <time>2022-02-27T10:20:43Z</time>
      </trkpt>
      <trkpt lat="42.84327" lon="0.50564">
        <ele>1706.047</ele>
        <time>2022-02-27T10:20:45Z</time>
      </trkpt>
      <trkpt lat="42.84327" lon="0.50564">
        <ele>1706.064</ele>
        <time>2022-02-27T10:20:47Z</time>
      </trkpt>
      <trkpt lat="42.84327" lon="0.50565">
        <ele>1707.82</ele>
        <time>2022-02-27T10:20:49Z</time>
      </trkpt>
      <trkpt lat="42.84327" lon="0.50566">
        <ele>1708.798</ele>
        <time>2022-02-27T10:20:51Z</time>
      </trkpt>
      <trkpt lat="42.84328" lon="0.50566">
        <ele>1708.22</ele>
        <time>2022-02-27T10:20:53Z</time>
      </trkpt>
      <trkpt lat="42.84329" lon="0.50568">
        <ele>1708.231</ele>
        <time>2022-02-27T10:20:55Z</time>
      </trkpt>
      <trkpt lat="42.84329" lon="0.50568">
        <ele>1708.267</ele>
        <time>2022-02-27T10:20:57Z</time>
      </trkpt>
      <trkpt lat="42.84329" lon="0.50568">
        <ele>1708.267</ele>
        <time>2022-02-27T10:20:59Z</time>
      </trkpt>
      <trkpt lat="42.84329" lon="0.50568">
        <ele>1708.267</ele>
        <time>2022-02-27T10:21:01Z</time>
      </trkpt>
      <trkpt lat="42.84329" lon="0.50568">
        <ele>1708.26</ele>
        <time>2022-02-27T10:21:03Z</time>
      </trkpt>
      <trkpt lat="42.84329" lon="0.50569">
        <ele>1708.628</ele>
        <time>2022-02-27T10:21:05Z</time>
      </trkpt>
      <trkpt lat="42.84329" lon="0.5057">
        <ele>1708.86</ele>
        <time>2022-02-27T10:21:07Z</time>
      </trkpt>
      <trkpt lat="42.84329" lon="0.50569">
        <ele>1708.859</ele>
        <time>2022-02-27T10:21:09Z</time>
      </trkpt>
      <trkpt lat="42.84328" lon="0.50571">
        <ele>1711.168</ele>
        <time>2022-02-27T10:21:11Z</time>
      </trkpt>
      <trkpt lat="42.84329" lon="0.50572">
        <ele>1710.585</ele>
        <time>2022-02-27T10:21:13Z</time>
      </trkpt>
      <trkpt lat="42.8433" lon="0.50574">
        <ele>1709.634</ele>
        <time>2022-02-27T10:21:15Z</time>
      </trkpt>
      <trkpt lat="42.84329" lon="0.50573">
        <ele>1710.197</ele>
        <time>2022-02-27T10:21:17Z</time>
      </trkpt>
      <trkpt lat="42.84329" lon="0.50573">
        <ele>1710.198</ele>
        <time>2022-02-27T10:21:19Z</time>
      </trkpt>
      <trkpt lat="42.84329" lon="0.50573">
        <ele>1710.19</ele>
        <time>2022-02-27T10:21:21Z</time>
      </trkpt>
      <trkpt lat="42.84329" lon="0.50573">
        <ele>1710.184</ele>
        <time>2022-02-27T10:21:23Z</time>
      </trkpt>
      <trkpt lat="42.84329" lon="0.50573">
        <ele>1710.184</ele>
        <time>2022-02-27T10:21:25Z</time>
      </trkpt>
      <trkpt lat="42.84329" lon="0.50573">
        <ele>1710.19</ele>
        <time>2022-02-27T10:21:27Z</time>
      </trkpt>
      <trkpt lat="42.84329" lon="0.50573">
        <ele>1710.255</ele>
        <time>2022-02-27T10:21:29Z</time>
      </trkpt>
      <trkpt lat="42.84329" lon="0.50572">
        <ele>1710.248</ele>
        <time>2022-02-27T10:21:31Z</time>
      </trkpt>
      <trkpt lat="42.84329" lon="0.50572">
        <ele>1710.247</ele>
        <time>2022-02-27T10:21:33Z</time>
      </trkpt>
      <trkpt lat="42.84329" lon="0.50572">
        <ele>1710.243</ele>
        <time>2022-02-27T10:21:35Z</time>
      </trkpt>
      <trkpt lat="42.84329" lon="0.50572">
        <ele>1710.24</ele>
        <time>2022-02-27T10:21:37Z</time>
      </trkpt>
      <trkpt lat="42.84329" lon="0.50572">
        <ele>1710.243</ele>
        <time>2022-02-27T10:21:39Z</time>
      </trkpt>
      <trkpt lat="42.84329" lon="0.50572">
        <ele>1710.241</ele>
        <time>2022-02-27T10:21:41Z</time>
      </trkpt>
      <trkpt lat="42.84329" lon="0.50572">
        <ele>1710.16</ele>
        <time>2022-02-27T10:21:43Z</time>
      </trkpt>
      <trkpt lat="42.84329" lon="0.50571">
        <ele>1710.126</ele>
        <time>2022-02-27T10:21:45Z</time>
      </trkpt>
      <trkpt lat="42.84329" lon="0.50571">
        <ele>1710.183</ele>
        <time>2022-02-27T10:21:47Z</time>
      </trkpt>
      <trkpt lat="42.84329" lon="0.50571">
        <ele>1709.872</ele>
        <time>2022-02-27T10:21:49Z</time>
      </trkpt>
      <trkpt lat="42.84329" lon="0.5057">
        <ele>1709.629</ele>
        <time>2022-02-27T10:21:51Z</time>
      </trkpt>
      <trkpt lat="42.84329" lon="0.5057">
        <ele>1709.766</ele>
        <time>2022-02-27T10:21:53Z</time>
      </trkpt>
      <trkpt lat="42.84329" lon="0.50568">
        <ele>1709.797</ele>
        <time>2022-02-27T10:21:55Z</time>
      </trkpt>
      <trkpt lat="42.84329" lon="0.50568">
        <ele>1709.391</ele>
        <time>2022-02-27T10:21:57Z</time>
      </trkpt>
      <trkpt lat="42.84329" lon="0.50565">
        <ele>1711.798</ele>
        <time>2022-02-27T10:21:59Z</time>
      </trkpt>
      <trkpt lat="42.84331" lon="0.50566">
        <ele>1711.078</ele>
        <time>2022-02-27T10:22:01Z</time>
      </trkpt>
      <trkpt lat="42.84331" lon="0.50566">
        <ele>1711.889</ele>
        <time>2022-02-27T10:22:03Z</time>
      </trkpt>
      <trkpt lat="42.84331" lon="0.50567">
        <ele>1712.111</ele>
        <time>2022-02-27T10:22:05Z</time>
      </trkpt>
      <trkpt lat="42.84332" lon="0.50568">
        <ele>1712.76</ele>
        <time>2022-02-27T10:22:07Z</time>
      </trkpt>
      <trkpt lat="42.84332" lon="0.50568">
        <ele>1713.22</ele>
        <time>2022-02-27T10:22:09Z</time>
      </trkpt>
      <trkpt lat="42.84332" lon="0.50568">
        <ele>1713.957</ele>
        <time>2022-02-27T10:22:11Z</time>
      </trkpt>
      <trkpt lat="42.84332" lon="0.50568">
        <ele>1713.989</ele>
        <time>2022-02-27T10:22:13Z</time>
      </trkpt>
      <trkpt lat="42.84333" lon="0.5057">
        <ele>1714.18</ele>
        <time>2022-02-27T10:22:15Z</time>
      </trkpt>
      <trkpt lat="42.84334" lon="0.50572">
        <ele>1713.299</ele>
        <time>2022-02-27T10:22:18Z</time>
      </trkpt>
      <trkpt lat="42.84333" lon="0.50574">
        <ele>1713.545</ele>
        <time>2022-02-27T10:22:20Z</time>
      </trkpt>
      <trkpt lat="42.84332" lon="0.50575">
        <ele>1714.093</ele>
        <time>2022-02-27T10:22:22Z</time>
      </trkpt>
      <trkpt lat="42.84332" lon="0.50577">
        <ele>1715.005</ele>
        <time>2022-02-27T10:22:24Z</time>
      </trkpt>
      <trkpt lat="42.84333" lon="0.50576">
        <ele>1714.049</ele>
        <time>2022-02-27T10:22:26Z</time>
      </trkpt>
      <trkpt lat="42.84333" lon="0.50576">
        <ele>1714.044</ele>
        <time>2022-02-27T10:22:28Z</time>
      </trkpt>
      <trkpt lat="42.84333" lon="0.50576">
        <ele>1714.225</ele>
        <time>2022-02-27T10:22:30Z</time>
      </trkpt>
      <trkpt lat="42.84332" lon="0.50578">
        <ele>1715.324</ele>
        <time>2022-02-27T10:22:32Z</time>
      </trkpt>
      <trkpt lat="42.84331" lon="0.50579">
        <ele>1715.061</ele>
        <time>2022-02-27T10:22:34Z</time>
      </trkpt>
      <trkpt lat="42.84331" lon="0.50581">
        <ele>1716.238</ele>
        <time>2022-02-27T10:22:36Z</time>
      </trkpt>
      <trkpt lat="42.8433" lon="0.50581">
        <ele>1717.512</ele>
        <time>2022-02-27T10:22:38Z</time>
      </trkpt>
      <trkpt lat="42.8433" lon="0.50583">
        <ele>1717.299</ele>
        <time>2022-02-27T10:22:40Z</time>
      </trkpt>
      <trkpt lat="42.84329" lon="0.50584">
        <ele>1718.184</ele>
        <time>2022-02-27T10:22:42Z</time>
      </trkpt>
      <trkpt lat="42.8433" lon="0.50584">
        <ele>1717.201</ele>
        <time>2022-02-27T10:22:45Z</time>
      </trkpt>
      <trkpt lat="42.8433" lon="0.50584">
        <ele>1717.19</ele>
        <time>2022-02-27T10:22:47Z</time>
      </trkpt>
      <trkpt lat="42.8433" lon="0.50584">
        <ele>1717.18</ele>
        <time>2022-02-27T10:22:49Z</time>
      </trkpt>
      <trkpt lat="42.8433" lon="0.50584">
        <ele>1717.149</ele>
        <time>2022-02-27T10:22:51Z</time>
      </trkpt>
      <trkpt lat="42.8433" lon="0.50585">
        <ele>1717.658</ele>
        <time>2022-02-27T10:22:53Z</time>
      </trkpt>
      <trkpt lat="42.8433" lon="0.50586">
        <ele>1717.563</ele>
        <time>2022-02-27T10:22:55Z</time>
      </trkpt>
      <trkpt lat="42.8433" lon="0.50586">
        <ele>1717.669</ele>
        <time>2022-02-27T10:22:57Z</time>
      </trkpt>
      <trkpt lat="42.8433" lon="0.50586">
        <ele>1717.676</ele>
        <time>2022-02-27T10:22:59Z</time>
      </trkpt>
      <trkpt lat="42.8433" lon="0.50586">
        <ele>1717.677</ele>
        <time>2022-02-27T10:23:01Z</time>
      </trkpt>
      <trkpt lat="42.8433" lon="0.50586">
        <ele>1717.68</ele>
        <time>2022-02-27T10:23:03Z</time>
      </trkpt>
      <trkpt lat="42.8433" lon="0.50587">
        <ele>1717.805</ele>
        <time>2022-02-27T10:23:05Z</time>
      </trkpt>
      <trkpt lat="42.8433" lon="0.50588">
        <ele>1717.479</ele>
        <time>2022-02-27T10:23:07Z</time>
      </trkpt>
      <trkpt lat="42.8433" lon="0.5059">
        <ele>1717.876</ele>
        <time>2022-02-27T10:23:09Z</time>
      </trkpt>
      <trkpt lat="42.8433" lon="0.50592">
        <ele>1718.989</ele>
        <time>2022-02-27T10:23:11Z</time>
      </trkpt>
      <trkpt lat="42.8433" lon="0.50591">
        <ele>1718.902</ele>
        <time>2022-02-27T10:23:13Z</time>
      </trkpt>
      <trkpt lat="42.8433" lon="0.50591">
        <ele>1718.904</ele>
        <time>2022-02-27T10:23:15Z</time>
      </trkpt>
      <trkpt lat="42.8433" lon="0.50591">
        <ele>1718.919</ele>
        <time>2022-02-27T10:23:17Z</time>
      </trkpt>
      <trkpt lat="42.8433" lon="0.50591">
        <ele>1718.927</ele>
        <time>2022-02-27T10:23:19Z</time>
      </trkpt>
      <trkpt lat="42.8433" lon="0.50592">
        <ele>1718.113</ele>
        <time>2022-02-27T10:23:21Z</time>
      </trkpt>
      <trkpt lat="42.8433" lon="0.50593">
        <ele>1718.66</ele>
        <time>2022-02-27T10:23:23Z</time>
      </trkpt>
      <trkpt lat="42.8433" lon="0.50594">
        <ele>1718.448</ele>
        <time>2022-02-27T10:23:25Z</time>
      </trkpt>
      <trkpt lat="42.84329" lon="0.50596">
        <ele>1719.705</ele>
        <time>2022-02-27T10:23:27Z</time>
      </trkpt>
      <trkpt lat="42.84329" lon="0.50598">
        <ele>1720.408</ele>
        <time>2022-02-27T10:23:29Z</time>
      </trkpt>
      <trkpt lat="42.84329" lon="0.50598">
        <ele>1720.407</ele>
        <time>2022-02-27T10:23:31Z</time>
      </trkpt>
      <trkpt lat="42.84329" lon="0.50598">
        <ele>1720.409</ele>
        <time>2022-02-27T10:23:33Z</time>
      </trkpt>
      <trkpt lat="42.84329" lon="0.50598">
        <ele>1720.373</ele>
        <time>2022-02-27T10:23:35Z</time>
      </trkpt>
      <trkpt lat="42.84329" lon="0.50598">
        <ele>1720.355</ele>
        <time>2022-02-27T10:23:37Z</time>
      </trkpt>
      <trkpt lat="42.84329" lon="0.50598">
        <ele>1720.565</ele>
        <time>2022-02-27T10:23:39Z</time>
      </trkpt>
      <trkpt lat="42.84329" lon="0.50599">
        <ele>1720.206</ele>
        <time>2022-02-27T10:23:41Z</time>
      </trkpt>
      <trkpt lat="42.84329" lon="0.50599">
        <ele>1720.783</ele>
        <time>2022-02-27T10:23:43Z</time>
      </trkpt>
      <trkpt lat="42.84328" lon="0.50599">
        <ele>1721.663</ele>
        <time>2022-02-27T10:23:45Z</time>
      </trkpt>
      <trkpt lat="42.84328" lon="0.50599">
        <ele>1722.092</ele>
        <time>2022-02-27T10:23:47Z</time>
      </trkpt>
      <trkpt lat="42.84327" lon="0.50601">
        <ele>1722.399</ele>
        <time>2022-02-27T10:23:49Z</time>
      </trkpt>
      <trkpt lat="42.84327" lon="0.50603">
        <ele>1723.268</ele>
        <time>2022-02-27T10:23:51Z</time>
      </trkpt>
      <trkpt lat="42.84328" lon="0.50603">
        <ele>1723.708</ele>
        <time>2022-02-27T10:23:53Z</time>
      </trkpt>
      <trkpt lat="42.84328" lon="0.50604">
        <ele>1723.645</ele>
        <time>2022-02-27T10:23:55Z</time>
      </trkpt>
      <trkpt lat="42.84328" lon="0.50605">
        <ele>1723.413</ele>
        <time>2022-02-27T10:23:57Z</time>
      </trkpt>
      <trkpt lat="42.84329" lon="0.50606">
        <ele>1723.412</ele>
        <time>2022-02-27T10:23:59Z</time>
      </trkpt>
      <trkpt lat="42.84329" lon="0.50606">
        <ele>1724.097</ele>
        <time>2022-02-27T10:24:02Z</time>
      </trkpt>
      <trkpt lat="42.8433" lon="0.50606">
        <ele>1724.99</ele>
        <time>2022-02-27T10:24:04Z</time>
      </trkpt>
      <trkpt lat="42.8433" lon="0.50606">
        <ele>1724.461</ele>
        <time>2022-02-27T10:24:06Z</time>
      </trkpt>
      <trkpt lat="42.84328" lon="0.50607">
        <ele>1725.585</ele>
        <time>2022-02-27T10:24:08Z</time>
      </trkpt>
      <trkpt lat="42.84328" lon="0.50608">
        <ele>1725.614</ele>
        <time>2022-02-27T10:24:10Z</time>
      </trkpt>
      <trkpt lat="42.84328" lon="0.50609">
        <ele>1725.765</ele>
        <time>2022-02-27T10:24:12Z</time>
      </trkpt>
      <trkpt lat="42.84328" lon="0.5061">
        <ele>1725.586</ele>
        <time>2022-02-27T10:24:14Z</time>
      </trkpt>
      <trkpt lat="42.84328" lon="0.5061">
        <ele>1725.541</ele>
        <time>2022-02-27T10:24:16Z</time>
      </trkpt>
      <trkpt lat="42.84327" lon="0.50609">
        <ele>1725.548</ele>
        <time>2022-02-27T10:24:18Z</time>
      </trkpt>
      <trkpt lat="42.84327" lon="0.50609">
        <ele>1725.55</ele>
        <time>2022-02-27T10:24:20Z</time>
      </trkpt>
      <trkpt lat="42.84327" lon="0.5061">
        <ele>1725.99</ele>
        <time>2022-02-27T10:24:22Z</time>
      </trkpt>
      <trkpt lat="42.84326" lon="0.5061">
        <ele>1725.534</ele>
        <time>2022-02-27T10:24:24Z</time>
      </trkpt>
      <trkpt lat="42.84326" lon="0.50611">
        <ele>1725.867</ele>
        <time>2022-02-27T10:24:26Z</time>
      </trkpt>
      <trkpt lat="42.84326" lon="0.50611">
        <ele>1725.866</ele>
        <time>2022-02-27T10:24:28Z</time>
      </trkpt>
      <trkpt lat="42.84326" lon="0.50611">
        <ele>1725.863</ele>
        <time>2022-02-27T10:24:30Z</time>
      </trkpt>
      <trkpt lat="42.84326" lon="0.50611">
        <ele>1725.868</ele>
        <time>2022-02-27T10:24:32Z</time>
      </trkpt>
      <trkpt lat="42.84326" lon="0.50611">
        <ele>1725.882</ele>
        <time>2022-02-27T10:24:34Z</time>
      </trkpt>
      <trkpt lat="42.84326" lon="0.50611">
        <ele>1725.719</ele>
        <time>2022-02-27T10:24:36Z</time>
      </trkpt>
      <trkpt lat="42.84327" lon="0.50612">
        <ele>1724.947</ele>
        <time>2022-02-27T10:24:38Z</time>
      </trkpt>
      <trkpt lat="42.84326" lon="0.50613">
        <ele>1726.005</ele>
        <time>2022-02-27T10:24:40Z</time>
      </trkpt>
      <trkpt lat="42.84325" lon="0.50612">
        <ele>1727.366</ele>
        <time>2022-02-27T10:24:42Z</time>
      </trkpt>
      <trkpt lat="42.84325" lon="0.50613">
        <ele>1728.388</ele>
        <time>2022-02-27T10:24:44Z</time>
      </trkpt>
      <trkpt lat="42.84325" lon="0.50613">
        <ele>1728.389</ele>
        <time>2022-02-27T10:24:46Z</time>
      </trkpt>
      <trkpt lat="42.84325" lon="0.50613">
        <ele>1727.523</ele>
        <time>2022-02-27T10:24:48Z</time>
      </trkpt>
      <trkpt lat="42.84325" lon="0.50612">
        <ele>1727.889</ele>
        <time>2022-02-27T10:24:50Z</time>
      </trkpt>
      <trkpt lat="42.84326" lon="0.50612">
        <ele>1728.452</ele>
        <time>2022-02-27T10:24:52Z</time>
      </trkpt>
      <trkpt lat="42.84326" lon="0.50613">
        <ele>1728.417</ele>
        <time>2022-02-27T10:24:54Z</time>
      </trkpt>
      <trkpt lat="42.84325" lon="0.50613">
        <ele>1729.152</ele>
        <time>2022-02-27T10:24:56Z</time>
      </trkpt>
      <trkpt lat="42.84325" lon="0.50613">
        <ele>1729.44</ele>
        <time>2022-02-27T10:24:58Z</time>
      </trkpt>
      <trkpt lat="42.84325" lon="0.50613">
        <ele>1729.747</ele>
        <time>2022-02-27T10:25:00Z</time>
      </trkpt>
      <trkpt lat="42.84326" lon="0.50614">
        <ele>1730.071</ele>
        <time>2022-02-27T10:25:02Z</time>
      </trkpt>
      <trkpt lat="42.84326" lon="0.50614">
        <ele>1730.189</ele>
        <time>2022-02-27T10:25:04Z</time>
      </trkpt>
      <trkpt lat="42.84326" lon="0.50614">
        <ele>1730.201</ele>
        <time>2022-02-27T10:25:06Z</time>
      </trkpt>
      <trkpt lat="42.84326" lon="0.50614">
        <ele>1730.213</ele>
        <time>2022-02-27T10:25:08Z</time>
      </trkpt>
      <trkpt lat="42.84326" lon="0.50614">
        <ele>1730.212</ele>
        <time>2022-02-27T10:25:09Z</time>
      </trkpt>
      <trkpt lat="42.84326" lon="0.50615">
        <ele>1731.575</ele>
        <time>2022-02-27T10:25:12Z</time>
      </trkpt>
      <trkpt lat="42.84325" lon="0.50614">
        <ele>1731.805</ele>
        <time>2022-02-27T10:25:14Z</time>
      </trkpt>
      <trkpt lat="42.84325" lon="0.50615">
        <ele>1732.138</ele>
        <time>2022-02-27T10:25:16Z</time>
      </trkpt>
      <trkpt lat="42.84325" lon="0.50616">
        <ele>1732.141</ele>
        <time>2022-02-27T10:25:18Z</time>
      </trkpt>
      <trkpt lat="42.84325" lon="0.50616">
        <ele>1732.373</ele>
        <time>2022-02-27T10:25:20Z</time>
      </trkpt>
      <trkpt lat="42.84325" lon="0.50617">
        <ele>1733.336</ele>
        <time>2022-02-27T10:25:22Z</time>
      </trkpt>
      <trkpt lat="42.84326" lon="0.50619">
        <ele>1733.911</ele>
        <time>2022-02-27T10:25:24Z</time>
      </trkpt>
      <trkpt lat="42.84325" lon="0.50621">
        <ele>1734.546</ele>
        <time>2022-02-27T10:25:26Z</time>
      </trkpt>
      <trkpt lat="42.84324" lon="0.50622">
        <ele>1735.525</ele>
        <time>2022-02-27T10:25:29Z</time>
      </trkpt>
      <trkpt lat="42.84324" lon="0.50622">
        <ele>1735.525</ele>
        <time>2022-02-27T10:25:31Z</time>
      </trkpt>
      <trkpt lat="42.84324" lon="0.50623">
        <ele>1735.413</ele>
        <time>2022-02-27T10:25:33Z</time>
      </trkpt>
      <trkpt lat="42.84324" lon="0.50624">
        <ele>1735.264</ele>
        <time>2022-02-27T10:25:35Z</time>
      </trkpt>
      <trkpt lat="42.84324" lon="0.50626">
        <ele>1735.336</ele>
        <time>2022-02-27T10:25:37Z</time>
      </trkpt>
      <trkpt lat="42.84324" lon="0.50627">
        <ele>1735.75</ele>
        <time>2022-02-27T10:25:39Z</time>
      </trkpt>
      <trkpt lat="42.84324" lon="0.50628">
        <ele>1736.869</ele>
        <time>2022-02-27T10:25:41Z</time>
      </trkpt>
      <trkpt lat="42.84323" lon="0.50629">
        <ele>1737.69</ele>
        <time>2022-02-27T10:25:43Z</time>
      </trkpt>
      <trkpt lat="42.84322" lon="0.50629">
        <ele>1738.009</ele>
        <time>2022-02-27T10:25:45Z</time>
      </trkpt>
      <trkpt lat="42.84322" lon="0.50629">
        <ele>1738.009</ele>
        <time>2022-02-27T10:25:47Z</time>
      </trkpt>
      <trkpt lat="42.84322" lon="0.50629">
        <ele>1738.903</ele>
        <time>2022-02-27T10:25:49Z</time>
      </trkpt>
      <trkpt lat="42.84322" lon="0.50629">
        <ele>1739.606</ele>
        <time>2022-02-27T10:25:51Z</time>
      </trkpt>
      <trkpt lat="42.84322" lon="0.50629">
        <ele>1739.562</ele>
        <time>2022-02-27T10:25:53Z</time>
      </trkpt>
      <trkpt lat="42.84321" lon="0.5063">
        <ele>1739.96</ele>
        <time>2022-02-27T10:25:55Z</time>
      </trkpt>
      <trkpt lat="42.84321" lon="0.50631">
        <ele>1739.713</ele>
        <time>2022-02-27T10:25:57Z</time>
      </trkpt>
      <trkpt lat="42.8432" lon="0.50632">
        <ele>1740.867</ele>
        <time>2022-02-27T10:25:59Z</time>
      </trkpt>
      <trkpt lat="42.8432" lon="0.50633">
        <ele>1741.637</ele>
        <time>2022-02-27T10:26:01Z</time>
      </trkpt>
      <trkpt lat="42.8432" lon="0.50633">
        <ele>1741.658</ele>
        <time>2022-02-27T10:26:04Z</time>
      </trkpt>
      <trkpt lat="42.8432" lon="0.50633">
        <ele>1741.661</ele>
        <time>2022-02-27T10:26:06Z</time>
      </trkpt>
      <trkpt lat="42.84319" lon="0.50634">
        <ele>1741.603</ele>
        <time>2022-02-27T10:26:08Z</time>
      </trkpt>
      <trkpt lat="42.84319" lon="0.50634">
        <ele>1742.222</ele>
        <time>2022-02-27T10:26:10Z</time>
      </trkpt>
      <trkpt lat="42.84319" lon="0.50634">
        <ele>1741.99</ele>
        <time>2022-02-27T10:26:12Z</time>
      </trkpt>
      <trkpt lat="42.84319" lon="0.50635">
        <ele>1742.455</ele>
        <time>2022-02-27T10:26:14Z</time>
      </trkpt>
      <trkpt lat="42.8432" lon="0.50635">
        <ele>1742.348</ele>
        <time>2022-02-27T10:26:16Z</time>
      </trkpt>
      <trkpt lat="42.8432" lon="0.50636">
        <ele>1742.422</ele>
        <time>2022-02-27T10:26:18Z</time>
      </trkpt>
      <trkpt lat="42.8432" lon="0.50636">
        <ele>1742.425</ele>
        <time>2022-02-27T10:26:20Z</time>
      </trkpt>
      <trkpt lat="42.8432" lon="0.50636">
        <ele>1741.964</ele>
        <time>2022-02-27T10:26:22Z</time>
      </trkpt>
      <trkpt lat="42.8432" lon="0.50636">
        <ele>1741.944</ele>
        <time>2022-02-27T10:26:24Z</time>
      </trkpt>
      <trkpt lat="42.8432" lon="0.50637">
        <ele>1742.243</ele>
        <time>2022-02-27T10:26:26Z</time>
      </trkpt>
      <trkpt lat="42.8432" lon="0.50638">
        <ele>1741.916</ele>
        <time>2022-02-27T10:26:28Z</time>
      </trkpt>
      <trkpt lat="42.84321" lon="0.50638">
        <ele>1741.926</ele>
        <time>2022-02-27T10:26:30Z</time>
      </trkpt>
      <trkpt lat="42.84321" lon="0.50638">
        <ele>1741.927</ele>
        <time>2022-02-27T10:26:32Z</time>
      </trkpt>
      <trkpt lat="42.8432" lon="0.50639">
        <ele>1742.858</ele>
        <time>2022-02-27T10:26:34Z</time>
      </trkpt>
      <trkpt lat="42.84319" lon="0.5064">
        <ele>1742.864</ele>
        <time>2022-02-27T10:26:36Z</time>
      </trkpt>
      <trkpt lat="42.84319" lon="0.50642">
        <ele>1742.906</ele>
        <time>2022-02-27T10:26:38Z</time>
      </trkpt>
      <trkpt lat="42.84319" lon="0.50642">
        <ele>1742.968</ele>
        <time>2022-02-27T10:26:40Z</time>
      </trkpt>
      <trkpt lat="42.84319" lon="0.50642">
        <ele>1742.745</ele>
        <time>2022-02-27T10:26:42Z</time>
      </trkpt>
      <trkpt lat="42.84319" lon="0.50643">
        <ele>1743.2</ele>
        <time>2022-02-27T10:26:44Z</time>
      </trkpt>
      <trkpt lat="42.84319" lon="0.50643">
        <ele>1743.203</ele>
        <time>2022-02-27T10:26:46Z</time>
      </trkpt>
      <trkpt lat="42.84319" lon="0.50643">
        <ele>1743.22</ele>
        <time>2022-02-27T10:26:48Z</time>
      </trkpt>
      <trkpt lat="42.84319" lon="0.50643">
        <ele>1743.224</ele>
        <time>2022-02-27T10:26:50Z</time>
      </trkpt>
      <trkpt lat="42.84319" lon="0.50643">
        <ele>1743.221</ele>
        <time>2022-02-27T10:26:52Z</time>
      </trkpt>
      <trkpt lat="42.84319" lon="0.50645">
        <ele>1744.009</ele>
        <time>2022-02-27T10:26:54Z</time>
      </trkpt>
      <trkpt lat="42.84319" lon="0.50646">
        <ele>1744.031</ele>
        <time>2022-02-27T10:26:56Z</time>
      </trkpt>
      <trkpt lat="42.84319" lon="0.50646">
        <ele>1744.142</ele>
        <time>2022-02-27T10:26:58Z</time>
      </trkpt>
      <trkpt lat="42.84319" lon="0.50646">
        <ele>1744.143</ele>
        <time>2022-02-27T10:27:00Z</time>
      </trkpt>
      <trkpt lat="42.84319" lon="0.50647">
        <ele>1744.059</ele>
        <time>2022-02-27T10:27:02Z</time>
      </trkpt>
      <trkpt lat="42.84319" lon="0.50647">
        <ele>1744.153</ele>
        <time>2022-02-27T10:27:04Z</time>
      </trkpt>
      <trkpt lat="42.8432" lon="0.50647">
        <ele>1743.472</ele>
        <time>2022-02-27T10:27:06Z</time>
      </trkpt>
      <trkpt lat="42.8432" lon="0.50648">
        <ele>1744.873</ele>
        <time>2022-02-27T10:27:07Z</time>
      </trkpt>
      <trkpt lat="42.84321" lon="0.50649">
        <ele>1745.324</ele>
        <time>2022-02-27T10:27:10Z</time>
      </trkpt>
      <trkpt lat="42.84321" lon="0.5065">
        <ele>1745.256</ele>
        <time>2022-02-27T10:27:12Z</time>
      </trkpt>
      <trkpt lat="42.84321" lon="0.5065">
        <ele>1746.524</ele>
        <time>2022-02-27T10:27:14Z</time>
      </trkpt>
      <trkpt lat="42.84322" lon="0.50652">
        <ele>1747.827</ele>
        <time>2022-02-27T10:27:16Z</time>
      </trkpt>
      <trkpt lat="42.84322" lon="0.50653">
        <ele>1749.018</ele>
        <time>2022-02-27T10:27:18Z</time>
      </trkpt>
      <trkpt lat="42.84322" lon="0.50654">
        <ele>1749.464</ele>
        <time>2022-02-27T10:27:20Z</time>
      </trkpt>
      <trkpt lat="42.84322" lon="0.50655">
        <ele>1750.18</ele>
        <time>2022-02-27T10:27:22Z</time>
      </trkpt>
      <trkpt lat="42.84322" lon="0.50655">
        <ele>1750.034</ele>
        <time>2022-02-27T10:27:24Z</time>
      </trkpt>
      <trkpt lat="42.84322" lon="0.50655">
        <ele>1750.033</ele>
        <time>2022-02-27T10:27:26Z</time>
      </trkpt>
      <trkpt lat="42.84322" lon="0.50656">
        <ele>1750.76</ele>
        <time>2022-02-27T10:27:28Z</time>
      </trkpt>
      <trkpt lat="42.84322" lon="0.50657">
        <ele>1751.275</ele>
        <time>2022-02-27T10:27:30Z</time>
      </trkpt>
      <trkpt lat="42.84322" lon="0.50657">
        <ele>1751.273</ele>
        <time>2022-02-27T10:27:32Z</time>
      </trkpt>
      <trkpt lat="42.84322" lon="0.50657">
        <ele>1751.25</ele>
        <time>2022-02-27T10:27:34Z</time>
      </trkpt>
      <trkpt lat="42.84322" lon="0.50657">
        <ele>1751.235</ele>
        <time>2022-02-27T10:27:36Z</time>
      </trkpt>
      <trkpt lat="42.84322" lon="0.50658">
        <ele>1751.894</ele>
        <time>2022-02-27T10:27:38Z</time>
      </trkpt>
      <trkpt lat="42.84322" lon="0.50659">
        <ele>1752.398</ele>
        <time>2022-02-27T10:27:40Z</time>
      </trkpt>
      <trkpt lat="42.84322" lon="0.50661">
        <ele>1752.576</ele>
        <time>2022-02-27T10:27:42Z</time>
      </trkpt>
      <trkpt lat="42.84322" lon="0.50662">
        <ele>1752.721</ele>
        <time>2022-02-27T10:27:44Z</time>
      </trkpt>
      <trkpt lat="42.84322" lon="0.50662">
        <ele>1752.385</ele>
        <time>2022-02-27T10:27:46Z</time>
      </trkpt>
      <trkpt lat="42.84322" lon="0.50663">
        <ele>1752.622</ele>
        <time>2022-02-27T10:27:48Z</time>
      </trkpt>
      <trkpt lat="42.84322" lon="0.50663">
        <ele>1752.619</ele>
        <time>2022-02-27T10:27:50Z</time>
      </trkpt>
      <trkpt lat="42.84322" lon="0.50663">
        <ele>1752.631</ele>
        <time>2022-02-27T10:27:52Z</time>
      </trkpt>
      <trkpt lat="42.84322" lon="0.50663">
        <ele>1752.618</ele>
        <time>2022-02-27T10:27:54Z</time>
      </trkpt>
      <trkpt lat="42.84322" lon="0.50663">
        <ele>1752.614</ele>
        <time>2022-02-27T10:27:56Z</time>
      </trkpt>
      <trkpt lat="42.84322" lon="0.50663">
        <ele>1752.736</ele>
        <time>2022-02-27T10:27:58Z</time>
      </trkpt>
      <trkpt lat="42.84322" lon="0.50663">
        <ele>1752.742</ele>
        <time>2022-02-27T10:28:00Z</time>
      </trkpt>
      <trkpt lat="42.84322" lon="0.50663">
        <ele>1752.737</ele>
        <time>2022-02-27T10:28:02Z</time>
      </trkpt>
      <trkpt lat="42.84322" lon="0.50663">
        <ele>1752.717</ele>
        <time>2022-02-27T10:28:04Z</time>
      </trkpt>
      <trkpt lat="42.84322" lon="0.50663">
        <ele>1752.697</ele>
        <time>2022-02-27T10:28:06Z</time>
      </trkpt>
      <trkpt lat="42.84322" lon="0.50663">
        <ele>1752.69</ele>
        <time>2022-02-27T10:28:08Z</time>
      </trkpt>
      <trkpt lat="42.84322" lon="0.50663">
        <ele>1752.697</ele>
        <time>2022-02-27T10:28:10Z</time>
      </trkpt>
      <trkpt lat="42.84323" lon="0.50664">
        <ele>1752.107</ele>
        <time>2022-02-27T10:28:12Z</time>
      </trkpt>
      <trkpt lat="42.84322" lon="0.50665">
        <ele>1752.476</ele>
        <time>2022-02-27T10:28:14Z</time>
      </trkpt>
      <trkpt lat="42.84322" lon="0.50665">
        <ele>1752.442</ele>
        <time>2022-02-27T10:28:16Z</time>
      </trkpt>
      <trkpt lat="42.84322" lon="0.50666">
        <ele>1751.847</ele>
        <time>2022-02-27T10:28:18Z</time>
      </trkpt>
      <trkpt lat="42.84322" lon="0.50666">
        <ele>1751.841</ele>
        <time>2022-02-27T10:28:20Z</time>
      </trkpt>
      <trkpt lat="42.84322" lon="0.50666">
        <ele>1751.841</ele>
        <time>2022-02-27T10:28:22Z</time>
      </trkpt>
      <trkpt lat="42.84322" lon="0.50666">
        <ele>1751.839</ele>
        <time>2022-02-27T10:28:24Z</time>
      </trkpt>
      <trkpt lat="42.84322" lon="0.50666">
        <ele>1751.832</ele>
        <time>2022-02-27T10:28:26Z</time>
      </trkpt>
      <trkpt lat="42.84322" lon="0.50666">
        <ele>1751.824</ele>
        <time>2022-02-27T10:28:28Z</time>
      </trkpt>
      <trkpt lat="42.84322" lon="0.50666">
        <ele>1751.817</ele>
        <time>2022-02-27T10:28:30Z</time>
      </trkpt>
      <trkpt lat="42.84322" lon="0.50666">
        <ele>1751.82</ele>
        <time>2022-02-27T10:28:32Z</time>
      </trkpt>
      <trkpt lat="42.84322" lon="0.50666">
        <ele>1751.808</ele>
        <time>2022-02-27T10:28:34Z</time>
      </trkpt>
      <trkpt lat="42.84322" lon="0.50666">
        <ele>1751.739</ele>
        <time>2022-02-27T10:28:36Z</time>
      </trkpt>
      <trkpt lat="42.84322" lon="0.50664">
        <ele>1751.072</ele>
        <time>2022-02-27T10:28:38Z</time>
      </trkpt>
      <trkpt lat="42.84322" lon="0.50664">
        <ele>1751.073</ele>
        <time>2022-02-27T10:28:40Z</time>
      </trkpt>
      <trkpt lat="42.84322" lon="0.50664">
        <ele>1751.07</ele>
        <time>2022-02-27T10:28:42Z</time>
      </trkpt>
      <trkpt lat="42.84322" lon="0.50664">
        <ele>1751.033</ele>
        <time>2022-02-27T10:28:44Z</time>
      </trkpt>
      <trkpt lat="42.84322" lon="0.50664">
        <ele>1751.02</ele>
        <time>2022-02-27T10:28:46Z</time>
      </trkpt>
      <trkpt lat="42.84322" lon="0.50664">
        <ele>1751.018</ele>
        <time>2022-02-27T10:28:48Z</time>
      </trkpt>
      <trkpt lat="42.84322" lon="0.50664">
        <ele>1751.006</ele>
        <time>2022-02-27T10:28:50Z</time>
      </trkpt>
      <trkpt lat="42.84322" lon="0.50664">
        <ele>1750.992</ele>
        <time>2022-02-27T10:28:52Z</time>
      </trkpt>
      <trkpt lat="42.84322" lon="0.50664">
        <ele>1750.98</ele>
        <time>2022-02-27T10:28:54Z</time>
      </trkpt>
      <trkpt lat="42.84322" lon="0.50664">
        <ele>1750.963</ele>
        <time>2022-02-27T10:28:56Z</time>
      </trkpt>
      <trkpt lat="42.84322" lon="0.50664">
        <ele>1750.965</ele>
        <time>2022-02-27T10:28:58Z</time>
      </trkpt>
      <trkpt lat="42.84322" lon="0.50664">
        <ele>1750.951</ele>
        <time>2022-02-27T10:29:00Z</time>
      </trkpt>
      <trkpt lat="42.84322" lon="0.50664">
        <ele>1750.955</ele>
        <time>2022-02-27T10:29:02Z</time>
      </trkpt>
      <trkpt lat="42.84322" lon="0.50664">
        <ele>1750.925</ele>
        <time>2022-02-27T10:29:04Z</time>
      </trkpt>
      <trkpt lat="42.84322" lon="0.50664">
        <ele>1750.934</ele>
        <time>2022-02-27T10:29:06Z</time>
      </trkpt>
      <trkpt lat="42.84322" lon="0.50664">
        <ele>1750.921</ele>
        <time>2022-02-27T10:29:08Z</time>
      </trkpt>
      <trkpt lat="42.84322" lon="0.50664">
        <ele>1750.921</ele>
        <time>2022-02-27T10:29:10Z</time>
      </trkpt>
      <trkpt lat="42.84322" lon="0.50664">
        <ele>1750.917</ele>
        <time>2022-02-27T10:29:12Z</time>
      </trkpt>
      <trkpt lat="42.84322" lon="0.50664">
        <ele>1750.921</ele>
        <time>2022-02-27T10:29:14Z</time>
      </trkpt>
      <trkpt lat="42.84322" lon="0.50664">
        <ele>1750.909</ele>
        <time>2022-02-27T10:29:16Z</time>
      </trkpt>
      <trkpt lat="42.84322" lon="0.50664">
        <ele>1750.891</ele>
        <time>2022-02-27T10:29:18Z</time>
      </trkpt>
      <trkpt lat="42.84322" lon="0.50664">
        <ele>1750.889</ele>
        <time>2022-02-27T10:29:20Z</time>
      </trkpt>
      <trkpt lat="42.84322" lon="0.50664">
        <ele>1750.891</ele>
        <time>2022-02-27T10:29:22Z</time>
      </trkpt>
      <trkpt lat="42.84322" lon="0.50664">
        <ele>1750.876</ele>
        <time>2022-02-27T10:29:24Z</time>
      </trkpt>
      <trkpt lat="42.84322" lon="0.50664">
        <ele>1750.882</ele>
        <time>2022-02-27T10:29:26Z</time>
      </trkpt>
      <trkpt lat="42.84322" lon="0.50664">
        <ele>1750.88</ele>
        <time>2022-02-27T10:29:28Z</time>
      </trkpt>
      <trkpt lat="42.84322" lon="0.50664">
        <ele>1750.682</ele>
        <time>2022-02-27T10:29:30Z</time>
      </trkpt>
      <trkpt lat="42.84322" lon="0.50664">
        <ele>1750.689</ele>
        <time>2022-02-27T10:29:32Z</time>
      </trkpt>
      <trkpt lat="42.84322" lon="0.50664">
        <ele>1750.695</ele>
        <time>2022-02-27T10:29:34Z</time>
      </trkpt>
      <trkpt lat="42.84322" lon="0.50664">
        <ele>1750.796</ele>
        <time>2022-02-27T10:29:36Z</time>
      </trkpt>
      <trkpt lat="42.84322" lon="0.50663">
        <ele>1750.812</ele>
        <time>2022-02-27T10:29:38Z</time>
      </trkpt>
      <trkpt lat="42.84322" lon="0.50663">
        <ele>1750.815</ele>
        <time>2022-02-27T10:29:40Z</time>
      </trkpt>
      <trkpt lat="42.84321" lon="0.50664">
        <ele>1750.888</ele>
        <time>2022-02-27T10:29:42Z</time>
      </trkpt>
      <trkpt lat="42.8432" lon="0.50665">
        <ele>1750.884</ele>
        <time>2022-02-27T10:29:44Z</time>
      </trkpt>
      <trkpt lat="42.8432" lon="0.50665">
        <ele>1750.886</ele>
        <time>2022-02-27T10:29:46Z</time>
      </trkpt>
      <trkpt lat="42.8432" lon="0.50665">
        <ele>1750.892</ele>
        <time>2022-02-27T10:29:48Z</time>
      </trkpt>
      <trkpt lat="42.8432" lon="0.50665">
        <ele>1750.903</ele>
        <time>2022-02-27T10:29:50Z</time>
      </trkpt>
      <trkpt lat="42.8432" lon="0.50665">
        <ele>1750.919</ele>
        <time>2022-02-27T10:29:52Z</time>
      </trkpt>
      <trkpt lat="42.8432" lon="0.50665">
        <ele>1750.937</ele>
        <time>2022-02-27T10:29:54Z</time>
      </trkpt>
      <trkpt lat="42.8432" lon="0.50665">
        <ele>1750.94</ele>
        <time>2022-02-27T10:29:56Z</time>
      </trkpt>
      <trkpt lat="42.8432" lon="0.50665">
        <ele>1750.937</ele>
        <time>2022-02-27T10:29:58Z</time>
      </trkpt>
      <trkpt lat="42.8432" lon="0.50665">
        <ele>1750.926</ele>
        <time>2022-02-27T10:30:00Z</time>
      </trkpt>
      <trkpt lat="42.8432" lon="0.50665">
        <ele>1750.917</ele>
        <time>2022-02-27T10:30:02Z</time>
      </trkpt>
      <trkpt lat="42.8432" lon="0.50665">
        <ele>1750.911</ele>
        <time>2022-02-27T10:30:04Z</time>
      </trkpt>
      <trkpt lat="42.8432" lon="0.50665">
        <ele>1750.905</ele>
        <time>2022-02-27T10:30:06Z</time>
      </trkpt>
      <trkpt lat="42.8432" lon="0.50665">
        <ele>1750.899</ele>
        <time>2022-02-27T10:30:08Z</time>
      </trkpt>
      <trkpt lat="42.8432" lon="0.50665">
        <ele>1750.904</ele>
        <time>2022-02-27T10:30:10Z</time>
      </trkpt>
      <trkpt lat="42.8432" lon="0.50665">
        <ele>1750.906</ele>
        <time>2022-02-27T10:30:12Z</time>
      </trkpt>
      <trkpt lat="42.8432" lon="0.50665">
        <ele>1750.91</ele>
        <time>2022-02-27T10:30:14Z</time>
      </trkpt>
      <trkpt lat="42.8432" lon="0.50665">
        <ele>1750.91</ele>
        <time>2022-02-27T10:30:16Z</time>
      </trkpt>
      <trkpt lat="42.8432" lon="0.50665">
        <ele>1750.908</ele>
        <time>2022-02-27T10:30:18Z</time>
      </trkpt>
      <trkpt lat="42.8432" lon="0.50665">
        <ele>1750.907</ele>
        <time>2022-02-27T10:30:20Z</time>
      </trkpt>
      <trkpt lat="42.8432" lon="0.50665">
        <ele>1750.91</ele>
        <time>2022-02-27T10:30:22Z</time>
      </trkpt>
      <trkpt lat="42.84321" lon="0.50666">
        <ele>1750.907</ele>
        <time>2022-02-27T10:30:24Z</time>
      </trkpt>
      <trkpt lat="42.84321" lon="0.50666">
        <ele>1750.774</ele>
        <time>2022-02-27T10:30:26Z</time>
      </trkpt>
      <trkpt lat="42.84321" lon="0.50665">
        <ele>1750.767</ele>
        <time>2022-02-27T10:30:28Z</time>
      </trkpt>
      <trkpt lat="42.84321" lon="0.50665">
        <ele>1750.764</ele>
        <time>2022-02-27T10:30:30Z</time>
      </trkpt>
      <trkpt lat="42.84321" lon="0.50665">
        <ele>1750.768</ele>
        <time>2022-02-27T10:30:32Z</time>
      </trkpt>
      <trkpt lat="42.84321" lon="0.50665">
        <ele>1750.766</ele>
        <time>2022-02-27T10:30:34Z</time>
      </trkpt>
      <trkpt lat="42.84321" lon="0.50665">
        <ele>1750.761</ele>
        <time>2022-02-27T10:30:36Z</time>
      </trkpt>
      <trkpt lat="42.84321" lon="0.50665">
        <ele>1750.755</ele>
        <time>2022-02-27T10:30:38Z</time>
      </trkpt>
      <trkpt lat="42.84321" lon="0.50665">
        <ele>1750.761</ele>
        <time>2022-02-27T10:30:40Z</time>
      </trkpt>
      <trkpt lat="42.84321" lon="0.50665">
        <ele>1750.762</ele>
        <time>2022-02-27T10:30:42Z</time>
      </trkpt>
      <trkpt lat="42.84321" lon="0.50665">
        <ele>1750.766</ele>
        <time>2022-02-27T10:30:44Z</time>
      </trkpt>
      <trkpt lat="42.84321" lon="0.50665">
        <ele>1750.775</ele>
        <time>2022-02-27T10:30:46Z</time>
      </trkpt>
      <trkpt lat="42.84321" lon="0.50665">
        <ele>1750.78</ele>
        <time>2022-02-27T10:30:48Z</time>
      </trkpt>
      <trkpt lat="42.84321" lon="0.50665">
        <ele>1750.784</ele>
        <time>2022-02-27T10:30:50Z</time>
      </trkpt>
      <trkpt lat="42.84321" lon="0.50665">
        <ele>1750.789</ele>
        <time>2022-02-27T10:30:52Z</time>
      </trkpt>
      <trkpt lat="42.84321" lon="0.50665">
        <ele>1750.795</ele>
        <time>2022-02-27T10:30:54Z</time>
      </trkpt>
      <trkpt lat="42.84321" lon="0.50665">
        <ele>1750.799</ele>
        <time>2022-02-27T10:30:56Z</time>
      </trkpt>
      <trkpt lat="42.84321" lon="0.50665">
        <ele>1750.8</ele>
        <time>2022-02-27T10:30:58Z</time>
      </trkpt>
      <trkpt lat="42.84321" lon="0.50665">
        <ele>1750.803</ele>
        <time>2022-02-27T10:31:00Z</time>
      </trkpt>
      <trkpt lat="42.84321" lon="0.50665">
        <ele>1750.8</ele>
        <time>2022-02-27T10:31:02Z</time>
      </trkpt>
      <trkpt lat="42.84321" lon="0.50665">
        <ele>1750.803</ele>
        <time>2022-02-27T10:31:04Z</time>
      </trkpt>
      <trkpt lat="42.84322" lon="0.50665">
        <ele>1750.662</ele>
        <time>2022-02-27T10:31:06Z</time>
      </trkpt>
      <trkpt lat="42.84322" lon="0.50665">
        <ele>1750.672</ele>
        <time>2022-02-27T10:31:08Z</time>
      </trkpt>
      <trkpt lat="42.84322" lon="0.50665">
        <ele>1750.676</ele>
        <time>2022-02-27T10:31:10Z</time>
      </trkpt>
      <trkpt lat="42.84322" lon="0.50665">
        <ele>1750.692</ele>
        <time>2022-02-27T10:31:12Z</time>
      </trkpt>
      <trkpt lat="42.84322" lon="0.50665">
        <ele>1750.695</ele>
        <time>2022-02-27T10:31:14Z</time>
      </trkpt>
      <trkpt lat="42.84322" lon="0.50665">
        <ele>1750.689</ele>
        <time>2022-02-27T10:31:16Z</time>
      </trkpt>
      <trkpt lat="42.84322" lon="0.50665">
        <ele>1750.69</ele>
        <time>2022-02-27T10:31:18Z</time>
      </trkpt>
      <trkpt lat="42.84322" lon="0.50665">
        <ele>1750.691</ele>
        <time>2022-02-27T10:31:20Z</time>
      </trkpt>
      <trkpt lat="42.84322" lon="0.50665">
        <ele>1750.685</ele>
        <time>2022-02-27T10:31:22Z</time>
      </trkpt>
      <trkpt lat="42.84322" lon="0.50665">
        <ele>1750.68</ele>
        <time>2022-02-27T10:31:24Z</time>
      </trkpt>
      <trkpt lat="42.84322" lon="0.50665">
        <ele>1750.672</ele>
        <time>2022-02-27T10:31:26Z</time>
      </trkpt>
      <trkpt lat="42.84322" lon="0.50665">
        <ele>1750.685</ele>
        <time>2022-02-27T10:31:28Z</time>
      </trkpt>
      <trkpt lat="42.84322" lon="0.50665">
        <ele>1750.689</ele>
        <time>2022-02-27T10:31:30Z</time>
      </trkpt>
      <trkpt lat="42.84322" lon="0.50665">
        <ele>1750.681</ele>
        <time>2022-02-27T10:31:32Z</time>
      </trkpt>
      <trkpt lat="42.84322" lon="0.50665">
        <ele>1750.66</ele>
        <time>2022-02-27T10:31:34Z</time>
      </trkpt>
      <trkpt lat="42.84322" lon="0.50665">
        <ele>1750.651</ele>
        <time>2022-02-27T10:31:36Z</time>
      </trkpt>
      <trkpt lat="42.84322" lon="0.50665">
        <ele>1750.655</ele>
        <time>2022-02-27T10:31:38Z</time>
      </trkpt>
      <trkpt lat="42.84322" lon="0.50665">
        <ele>1750.659</ele>
        <time>2022-02-27T10:31:40Z</time>
      </trkpt>
      <trkpt lat="42.84322" lon="0.50665">
        <ele>1750.671</ele>
        <time>2022-02-27T10:31:42Z</time>
      </trkpt>
      <trkpt lat="42.84322" lon="0.50665">
        <ele>1750.68</ele>
        <time>2022-02-27T10:31:44Z</time>
      </trkpt>
      <trkpt lat="42.84322" lon="0.50665">
        <ele>1750.688</ele>
        <time>2022-02-27T10:31:46Z</time>
      </trkpt>
      <trkpt lat="42.84321" lon="0.50665">
        <ele>1750.7</ele>
        <time>2022-02-27T10:31:48Z</time>
      </trkpt>
      <trkpt lat="42.84321" lon="0.50665">
        <ele>1750.701</ele>
        <time>2022-02-27T10:31:50Z</time>
      </trkpt>
      <trkpt lat="42.84321" lon="0.50665">
        <ele>1750.713</ele>
        <time>2022-02-27T10:31:52Z</time>
      </trkpt>
      <trkpt lat="42.84321" lon="0.50665">
        <ele>1750.815</ele>
        <time>2022-02-27T10:31:54Z</time>
      </trkpt>
      <trkpt lat="42.84321" lon="0.50665">
        <ele>1750.173</ele>
        <time>2022-02-27T10:31:56Z</time>
      </trkpt>
      <trkpt lat="42.84321" lon="0.50666">
        <ele>1749.36</ele>
        <time>2022-02-27T10:31:58Z</time>
      </trkpt>
      <trkpt lat="42.84321" lon="0.50666">
        <ele>1749.349</ele>
        <time>2022-02-27T10:32:00Z</time>
      </trkpt>
      <trkpt lat="42.84321" lon="0.50667">
        <ele>1749.194</ele>
        <time>2022-02-27T10:32:02Z</time>
      </trkpt>
      <trkpt lat="42.84321" lon="0.50669">
        <ele>1749.48</ele>
        <time>2022-02-27T10:32:04Z</time>
      </trkpt>
      <trkpt lat="42.8432" lon="0.5067">
        <ele>1749.218</ele>
        <time>2022-02-27T10:32:06Z</time>
      </trkpt>
      <trkpt lat="42.8432" lon="0.50672">
        <ele>1749.413</ele>
        <time>2022-02-27T10:32:08Z</time>
      </trkpt>
      <trkpt lat="42.8432" lon="0.50674">
        <ele>1749.406</ele>
        <time>2022-02-27T10:32:10Z</time>
      </trkpt>
      <trkpt lat="42.84319" lon="0.50677">
        <ele>1750.008</ele>
        <time>2022-02-27T10:32:12Z</time>
      </trkpt>
      <trkpt lat="42.84319" lon="0.50679">
        <ele>1750.123</ele>
        <time>2022-02-27T10:32:14Z</time>
      </trkpt>
      <trkpt lat="42.84318" lon="0.50681">
        <ele>1750.564</ele>
        <time>2022-02-27T10:32:16Z</time>
      </trkpt>
      <trkpt lat="42.84317" lon="0.50684">
        <ele>1750.756</ele>
        <time>2022-02-27T10:32:18Z</time>
      </trkpt>
      <trkpt lat="42.84316" lon="0.50687">
        <ele>1751.295</ele>
        <time>2022-02-27T10:32:20Z</time>
      </trkpt>
      <trkpt lat="42.84315" lon="0.5069">
        <ele>1750.568</ele>
        <time>2022-02-27T10:32:22Z</time>
      </trkpt>
      <trkpt lat="42.84315" lon="0.50692">
        <ele>1750.648</ele>
        <time>2022-02-27T10:32:24Z</time>
      </trkpt>
      <trkpt lat="42.84314" lon="0.50694">
        <ele>1750.479</ele>
        <time>2022-02-27T10:32:26Z</time>
      </trkpt>
      <trkpt lat="42.84313" lon="0.50696">
        <ele>1749.877</ele>
        <time>2022-02-27T10:32:28Z</time>
      </trkpt>
      <trkpt lat="42.84312" lon="0.50698">
        <ele>1749.868</ele>
        <time>2022-02-27T10:32:30Z</time>
      </trkpt>
      <trkpt lat="42.84311" lon="0.507">
        <ele>1749.785</ele>
        <time>2022-02-27T10:32:32Z</time>
      </trkpt>
      <trkpt lat="42.8431" lon="0.50702">
        <ele>1750.408</ele>
        <time>2022-02-27T10:32:34Z</time>
      </trkpt>
      <trkpt lat="42.84309" lon="0.50704">
        <ele>1750.401</ele>
        <time>2022-02-27T10:32:36Z</time>
      </trkpt>
      <trkpt lat="42.84308" lon="0.50706">
        <ele>1750.987</ele>
        <time>2022-02-27T10:32:38Z</time>
      </trkpt>
      <trkpt lat="42.84307" lon="0.50707">
        <ele>1751.068</ele>
        <time>2022-02-27T10:32:40Z</time>
      </trkpt>
      <trkpt lat="42.84306" lon="0.50707">
        <ele>1751.731</ele>
        <time>2022-02-27T10:32:42Z</time>
      </trkpt>
      <trkpt lat="42.84306" lon="0.50707">
        <ele>1751.631</ele>
        <time>2022-02-27T10:32:44Z</time>
      </trkpt>
      <trkpt lat="42.84304" lon="0.50708">
        <ele>1751.965</ele>
        <time>2022-02-27T10:32:46Z</time>
      </trkpt>
      <trkpt lat="42.84304" lon="0.50709">
        <ele>1752.291</ele>
        <time>2022-02-27T10:32:48Z</time>
      </trkpt>
      <trkpt lat="42.84303" lon="0.5071">
        <ele>1751.981</ele>
        <time>2022-02-27T10:32:50Z</time>
      </trkpt>
      <trkpt lat="42.84301" lon="0.50711">
        <ele>1752.374</ele>
        <time>2022-02-27T10:32:52Z</time>
      </trkpt>
      <trkpt lat="42.843" lon="0.50712">
        <ele>1752.104</ele>
        <time>2022-02-27T10:32:54Z</time>
      </trkpt>
      <trkpt lat="42.84299" lon="0.50713">
        <ele>1752.336</ele>
        <time>2022-02-27T10:32:56Z</time>
      </trkpt>
      <trkpt lat="42.84298" lon="0.50713">
        <ele>1751.953</ele>
        <time>2022-02-27T10:32:58Z</time>
      </trkpt>
      <trkpt lat="42.84296" lon="0.50714">
        <ele>1751.691</ele>
        <time>2022-02-27T10:33:00Z</time>
      </trkpt>
      <trkpt lat="42.84295" lon="0.50714">
        <ele>1751.947</ele>
        <time>2022-02-27T10:33:02Z</time>
      </trkpt>
      <trkpt lat="42.84294" lon="0.50714">
        <ele>1752.571</ele>
        <time>2022-02-27T10:33:04Z</time>
      </trkpt>
      <trkpt lat="42.84292" lon="0.50714">
        <ele>1752.931</ele>
        <time>2022-02-27T10:33:06Z</time>
      </trkpt>
      <trkpt lat="42.8429" lon="0.50713">
        <ele>1752.865</ele>
        <time>2022-02-27T10:33:08Z</time>
      </trkpt>
      <trkpt lat="42.84289" lon="0.50713">
        <ele>1753.394</ele>
        <time>2022-02-27T10:33:10Z</time>
      </trkpt>
      <trkpt lat="42.84287" lon="0.50713">
        <ele>1753.71</ele>
        <time>2022-02-27T10:33:12Z</time>
      </trkpt>
      <trkpt lat="42.84285" lon="0.50713">
        <ele>1753.903</ele>
        <time>2022-02-27T10:33:14Z</time>
      </trkpt>
      <trkpt lat="42.84284" lon="0.50713">
        <ele>1754.617</ele>
        <time>2022-02-27T10:33:16Z</time>
      </trkpt>
      <trkpt lat="42.84283" lon="0.50713">
        <ele>1754.827</ele>
        <time>2022-02-27T10:33:18Z</time>
      </trkpt>
      <trkpt lat="42.84281" lon="0.50713">
        <ele>1754.483</ele>
        <time>2022-02-27T10:33:20Z</time>
      </trkpt>
      <trkpt lat="42.8428" lon="0.50712">
        <ele>1754.686</ele>
        <time>2022-02-27T10:33:22Z</time>
      </trkpt>
      <trkpt lat="42.84279" lon="0.50712">
        <ele>1754.933</ele>
        <time>2022-02-27T10:33:24Z</time>
      </trkpt>
      <trkpt lat="42.84277" lon="0.50712">
        <ele>1755.705</ele>
        <time>2022-02-27T10:33:26Z</time>
      </trkpt>
      <trkpt lat="42.84276" lon="0.50712">
        <ele>1755.936</ele>
        <time>2022-02-27T10:33:28Z</time>
      </trkpt>
      <trkpt lat="42.84274" lon="0.50712">
        <ele>1756.175</ele>
        <time>2022-02-27T10:33:30Z</time>
      </trkpt>
      <trkpt lat="42.84273" lon="0.50712">
        <ele>1756.89</ele>
        <time>2022-02-27T10:33:32Z</time>
      </trkpt>
      <trkpt lat="42.84272" lon="0.50711">
        <ele>1757.394</ele>
        <time>2022-02-27T10:33:34Z</time>
      </trkpt>
      <trkpt lat="42.8427" lon="0.50711">
        <ele>1758.236</ele>
        <time>2022-02-27T10:33:36Z</time>
      </trkpt>
      <trkpt lat="42.84269" lon="0.50711">
        <ele>1758.314</ele>
        <time>2022-02-27T10:33:38Z</time>
      </trkpt>
      <trkpt lat="42.84268" lon="0.5071">
        <ele>1758.187</ele>
        <time>2022-02-27T10:33:40Z</time>
      </trkpt>
      <trkpt lat="42.84267" lon="0.5071">
        <ele>1758.266</ele>
        <time>2022-02-27T10:33:42Z</time>
      </trkpt>
      <trkpt lat="42.84265" lon="0.5071">
        <ele>1758.4</ele>
        <time>2022-02-27T10:33:44Z</time>
      </trkpt>
      <trkpt lat="42.84264" lon="0.50709">
        <ele>1758.093</ele>
        <time>2022-02-27T10:33:46Z</time>
      </trkpt>
      <trkpt lat="42.84263" lon="0.50709">
        <ele>1758.005</ele>
        <time>2022-02-27T10:33:48Z</time>
      </trkpt>
      <trkpt lat="42.84262" lon="0.50708">
        <ele>1757.863</ele>
        <time>2022-02-27T10:33:50Z</time>
      </trkpt>
      <trkpt lat="42.84261" lon="0.50707">
        <ele>1758.064</ele>
        <time>2022-02-27T10:33:52Z</time>
      </trkpt>
      <trkpt lat="42.8426" lon="0.50707">
        <ele>1758.639</ele>
        <time>2022-02-27T10:33:54Z</time>
      </trkpt>
      <trkpt lat="42.84259" lon="0.50706">
        <ele>1758.595</ele>
        <time>2022-02-27T10:33:56Z</time>
      </trkpt>
      <trkpt lat="42.84259" lon="0.50706">
        <ele>1758.597</ele>
        <time>2022-02-27T10:33:58Z</time>
      </trkpt>
      <trkpt lat="42.84257" lon="0.50706">
        <ele>1758.883</ele>
        <time>2022-02-27T10:34:00Z</time>
      </trkpt>
      <trkpt lat="42.84256" lon="0.50706">
        <ele>1758.778</ele>
        <time>2022-02-27T10:34:02Z</time>
      </trkpt>
      <trkpt lat="42.84255" lon="0.50706">
        <ele>1758.696</ele>
        <time>2022-02-27T10:34:04Z</time>
      </trkpt>
      <trkpt lat="42.84254" lon="0.50705">
        <ele>1758.171</ele>
        <time>2022-02-27T10:34:06Z</time>
      </trkpt>
      <trkpt lat="42.84252" lon="0.50705">
        <ele>1757.989</ele>
        <time>2022-02-27T10:34:08Z</time>
      </trkpt>
      <trkpt lat="42.84251" lon="0.50705">
        <ele>1757.901</ele>
        <time>2022-02-27T10:34:10Z</time>
      </trkpt>
      <trkpt lat="42.8425" lon="0.50704">
        <ele>1758.099</ele>
        <time>2022-02-27T10:34:12Z</time>
      </trkpt>
      <trkpt lat="42.84248" lon="0.50703">
        <ele>1757.83</ele>
        <time>2022-02-27T10:34:14Z</time>
      </trkpt>
      <trkpt lat="42.84248" lon="0.50703">
        <ele>1757.136</ele>
        <time>2022-02-27T10:34:16Z</time>
      </trkpt>
      <trkpt lat="42.84246" lon="0.50702">
        <ele>1758.03</ele>
        <time>2022-02-27T10:34:18Z</time>
      </trkpt>
      <trkpt lat="42.84245" lon="0.50701">
        <ele>1757.909</ele>
        <time>2022-02-27T10:34:20Z</time>
      </trkpt>
      <trkpt lat="42.84245" lon="0.507">
        <ele>1758.585</ele>
        <time>2022-02-27T10:34:22Z</time>
      </trkpt>
      <trkpt lat="42.84244" lon="0.50699">
        <ele>1759.496</ele>
        <time>2022-02-27T10:34:24Z</time>
      </trkpt>
      <trkpt lat="42.84242" lon="0.50698">
        <ele>1759.433</ele>
        <time>2022-02-27T10:34:26Z</time>
      </trkpt>
      <trkpt lat="42.84241" lon="0.50698">
        <ele>1759.874</ele>
        <time>2022-02-27T10:34:28Z</time>
      </trkpt>
      <trkpt lat="42.8424" lon="0.50698">
        <ele>1759.528</ele>
        <time>2022-02-27T10:34:30Z</time>
      </trkpt>
      <trkpt lat="42.84239" lon="0.50698">
        <ele>1758.67</ele>
        <time>2022-02-27T10:34:32Z</time>
      </trkpt>
      <trkpt lat="42.84238" lon="0.50698">
        <ele>1759.874</ele>
        <time>2022-02-27T10:34:34Z</time>
      </trkpt>
      <trkpt lat="42.84238" lon="0.50698">
        <ele>1759.853</ele>
        <time>2022-02-27T10:34:36Z</time>
      </trkpt>
      <trkpt lat="42.84238" lon="0.50698">
        <ele>1759.843</ele>
        <time>2022-02-27T10:34:38Z</time>
      </trkpt>
      <trkpt lat="42.84237" lon="0.50698">
        <ele>1759.843</ele>
        <time>2022-02-27T10:34:40Z</time>
      </trkpt>
      <trkpt lat="42.84236" lon="0.50697">
        <ele>1760.143</ele>
        <time>2022-02-27T10:34:42Z</time>
      </trkpt>
      <trkpt lat="42.84235" lon="0.50696">
        <ele>1760.81</ele>
        <time>2022-02-27T10:34:44Z</time>
      </trkpt>
      <trkpt lat="42.84234" lon="0.50697">
        <ele>1761.02</ele>
        <time>2022-02-27T10:34:46Z</time>
      </trkpt>
      <trkpt lat="42.84232" lon="0.50697">
        <ele>1760.926</ele>
        <time>2022-02-27T10:34:48Z</time>
      </trkpt>
      <trkpt lat="42.84232" lon="0.50697">
        <ele>1761.215</ele>
        <time>2022-02-27T10:34:50Z</time>
      </trkpt>
      <trkpt lat="42.84231" lon="0.50697">
        <ele>1761.66</ele>
        <time>2022-02-27T10:34:52Z</time>
      </trkpt>
      <trkpt lat="42.8423" lon="0.50697">
        <ele>1762.289</ele>
        <time>2022-02-27T10:34:54Z</time>
      </trkpt>
      <trkpt lat="42.84229" lon="0.50696">
        <ele>1762.871</ele>
        <time>2022-02-27T10:34:56Z</time>
      </trkpt>
      <trkpt lat="42.84228" lon="0.50696">
        <ele>1764.049</ele>
        <time>2022-02-27T10:34:58Z</time>
      </trkpt>
      <trkpt lat="42.84227" lon="0.50696">
        <ele>1765.197</ele>
        <time>2022-02-27T10:35:00Z</time>
      </trkpt>
      <trkpt lat="42.84226" lon="0.50696">
        <ele>1765.156</ele>
        <time>2022-02-27T10:35:02Z</time>
      </trkpt>
      <trkpt lat="42.84226" lon="0.50696">
        <ele>1765.186</ele>
        <time>2022-02-27T10:35:04Z</time>
      </trkpt>
      <trkpt lat="42.84226" lon="0.50696">
        <ele>1765.176</ele>
        <time>2022-02-27T10:35:06Z</time>
      </trkpt>
      <trkpt lat="42.84225" lon="0.50695">
        <ele>1766.021</ele>
        <time>2022-02-27T10:35:08Z</time>
      </trkpt>
      <trkpt lat="42.84224" lon="0.50695">
        <ele>1766.318</ele>
        <time>2022-02-27T10:35:10Z</time>
      </trkpt>
      <trkpt lat="42.84223" lon="0.50695">
        <ele>1767.652</ele>
        <time>2022-02-27T10:35:12Z</time>
      </trkpt>
      <trkpt lat="42.84222" lon="0.50695">
        <ele>1767.935</ele>
        <time>2022-02-27T10:35:14Z</time>
      </trkpt>
      <trkpt lat="42.84221" lon="0.50695">
        <ele>1767.773</ele>
        <time>2022-02-27T10:35:16Z</time>
      </trkpt>
      <trkpt lat="42.84221" lon="0.50696">
        <ele>1767.523</ele>
        <time>2022-02-27T10:35:18Z</time>
      </trkpt>
      <trkpt lat="42.84221" lon="0.50696">
        <ele>1767.526</ele>
        <time>2022-02-27T10:35:20Z</time>
      </trkpt>
      <trkpt lat="42.84221" lon="0.50696">
        <ele>1767.531</ele>
        <time>2022-02-27T10:35:22Z</time>
      </trkpt>
      <trkpt lat="42.84221" lon="0.50696">
        <ele>1767.538</ele>
        <time>2022-02-27T10:35:24Z</time>
      </trkpt>
      <trkpt lat="42.84221" lon="0.50696">
        <ele>1767.548</ele>
        <time>2022-02-27T10:35:26Z</time>
      </trkpt>
      <trkpt lat="42.84221" lon="0.50696">
        <ele>1767.548</ele>
        <time>2022-02-27T10:35:28Z</time>
      </trkpt>
      <trkpt lat="42.84221" lon="0.50696">
        <ele>1767.526</ele>
        <time>2022-02-27T10:35:30Z</time>
      </trkpt>
      <trkpt lat="42.84221" lon="0.50696">
        <ele>1767.529</ele>
        <time>2022-02-27T10:35:32Z</time>
      </trkpt>
      <trkpt lat="42.84221" lon="0.50696">
        <ele>1767.609</ele>
        <time>2022-02-27T10:35:34Z</time>
      </trkpt>
      <trkpt lat="42.84221" lon="0.50695">
        <ele>1767.576</ele>
        <time>2022-02-27T10:35:36Z</time>
      </trkpt>
      <trkpt lat="42.84221" lon="0.50695">
        <ele>1767.571</ele>
        <time>2022-02-27T10:35:38Z</time>
      </trkpt>
      <trkpt lat="42.84222" lon="0.50696">
        <ele>1767.433</ele>
        <time>2022-02-27T10:35:40Z</time>
      </trkpt>
      <trkpt lat="42.84222" lon="0.50695">
        <ele>1768.09</ele>
        <time>2022-02-27T10:35:42Z</time>
      </trkpt>
      <trkpt lat="42.84222" lon="0.50695">
        <ele>1768.081</ele>
        <time>2022-02-27T10:35:44Z</time>
      </trkpt>
      <trkpt lat="42.84222" lon="0.50695">
        <ele>1768.076</ele>
        <time>2022-02-27T10:35:46Z</time>
      </trkpt>
      <trkpt lat="42.84222" lon="0.50695">
        <ele>1768.067</ele>
        <time>2022-02-27T10:35:48Z</time>
      </trkpt>
      <trkpt lat="42.84222" lon="0.50695">
        <ele>1768.071</ele>
        <time>2022-02-27T10:35:50Z</time>
      </trkpt>
      <trkpt lat="42.84222" lon="0.50695">
        <ele>1768.071</ele>
        <time>2022-02-27T10:35:52Z</time>
      </trkpt>
      <trkpt lat="42.84222" lon="0.50695">
        <ele>1768.068</ele>
        <time>2022-02-27T10:35:54Z</time>
      </trkpt>
      <trkpt lat="42.84222" lon="0.50695">
        <ele>1768.07</ele>
        <time>2022-02-27T10:35:56Z</time>
      </trkpt>
      <trkpt lat="42.84222" lon="0.50695">
        <ele>1768.059</ele>
        <time>2022-02-27T10:35:58Z</time>
      </trkpt>
      <trkpt lat="42.84222" lon="0.50695">
        <ele>1768.057</ele>
        <time>2022-02-27T10:36:00Z</time>
      </trkpt>
      <trkpt lat="42.84222" lon="0.50695">
        <ele>1768.055</ele>
        <time>2022-02-27T10:36:02Z</time>
      </trkpt>
      <trkpt lat="42.84222" lon="0.50695">
        <ele>1768.042</ele>
        <time>2022-02-27T10:36:04Z</time>
      </trkpt>
      <trkpt lat="42.84222" lon="0.50695">
        <ele>1768.04</ele>
        <time>2022-02-27T10:36:06Z</time>
      </trkpt>
      <trkpt lat="42.84222" lon="0.50695">
        <ele>1768.032</ele>
        <time>2022-02-27T10:36:08Z</time>
      </trkpt>
      <trkpt lat="42.84222" lon="0.50695">
        <ele>1768.028</ele>
        <time>2022-02-27T10:36:10Z</time>
      </trkpt>
      <trkpt lat="42.84222" lon="0.50696">
        <ele>1768.11</ele>
        <time>2022-02-27T10:36:12Z</time>
      </trkpt>
      <trkpt lat="42.84222" lon="0.50696">
        <ele>1768.109</ele>
        <time>2022-02-27T10:36:14Z</time>
      </trkpt>
      <trkpt lat="42.84222" lon="0.50696">
        <ele>1767.916</ele>
        <time>2022-02-27T10:36:16Z</time>
      </trkpt>
      <trkpt lat="42.84222" lon="0.50696">
        <ele>1767.878</ele>
        <time>2022-02-27T10:36:18Z</time>
      </trkpt>
      <trkpt lat="42.84222" lon="0.50696">
        <ele>1767.816</ele>
        <time>2022-02-27T10:36:20Z</time>
      </trkpt>
      <trkpt lat="42.84222" lon="0.50696">
        <ele>1767.257</ele>
        <time>2022-02-27T10:36:22Z</time>
      </trkpt>
      <trkpt lat="42.84223" lon="0.50696">
        <ele>1766.94</ele>
        <time>2022-02-27T10:36:24Z</time>
      </trkpt>
      <trkpt lat="42.84223" lon="0.50696">
        <ele>1766.937</ele>
        <time>2022-02-27T10:36:26Z</time>
      </trkpt>
      <trkpt lat="42.84223" lon="0.50696">
        <ele>1767.026</ele>
        <time>2022-02-27T10:36:28Z</time>
      </trkpt>
      <trkpt lat="42.84223" lon="0.50697">
        <ele>1766.929</ele>
        <time>2022-02-27T10:36:30Z</time>
      </trkpt>
      <trkpt lat="42.84223" lon="0.50697">
        <ele>1766.931</ele>
        <time>2022-02-27T10:36:32Z</time>
      </trkpt>
      <trkpt lat="42.84223" lon="0.50697">
        <ele>1767.184</ele>
        <time>2022-02-27T10:36:34Z</time>
      </trkpt>
      <trkpt lat="42.84223" lon="0.50697">
        <ele>1767.158</ele>
        <time>2022-02-27T10:36:36Z</time>
      </trkpt>
      <trkpt lat="42.84223" lon="0.50697">
        <ele>1767.158</ele>
        <time>2022-02-27T10:36:38Z</time>
      </trkpt>
      <trkpt lat="42.84223" lon="0.50697">
        <ele>1767.158</ele>
        <time>2022-02-27T10:36:40Z</time>
      </trkpt>
      <trkpt lat="42.84223" lon="0.50696">
        <ele>1766.954</ele>
        <time>2022-02-27T10:36:42Z</time>
      </trkpt>
      <trkpt lat="42.84223" lon="0.50696">
        <ele>1766.954</ele>
        <time>2022-02-27T10:36:44Z</time>
      </trkpt>
      <trkpt lat="42.84223" lon="0.50696">
        <ele>1766.956</ele>
        <time>2022-02-27T10:36:46Z</time>
      </trkpt>
      <trkpt lat="42.84223" lon="0.50696">
        <ele>1766.959</ele>
        <time>2022-02-27T10:36:48Z</time>
      </trkpt>
      <trkpt lat="42.84223" lon="0.50696">
        <ele>1766.971</ele>
        <time>2022-02-27T10:36:50Z</time>
      </trkpt>
      <trkpt lat="42.84223" lon="0.50696">
        <ele>1766.97</ele>
        <time>2022-02-27T10:36:52Z</time>
      </trkpt>
      <trkpt lat="42.84223" lon="0.50696">
        <ele>1766.962</ele>
        <time>2022-02-27T10:36:54Z</time>
      </trkpt>
      <trkpt lat="42.84223" lon="0.50696">
        <ele>1766.97</ele>
        <time>2022-02-27T10:36:56Z</time>
      </trkpt>
      <trkpt lat="42.84223" lon="0.50696">
        <ele>1766.978</ele>
        <time>2022-02-27T10:36:58Z</time>
      </trkpt>
      <trkpt lat="42.84223" lon="0.50696">
        <ele>1766.976</ele>
        <time>2022-02-27T10:37:00Z</time>
      </trkpt>
      <trkpt lat="42.84223" lon="0.50696">
        <ele>1766.972</ele>
        <time>2022-02-27T10:37:02Z</time>
      </trkpt>
      <trkpt lat="42.84223" lon="0.50696">
        <ele>1766.974</ele>
        <time>2022-02-27T10:37:04Z</time>
      </trkpt>
      <trkpt lat="42.84223" lon="0.50696">
        <ele>1766.975</ele>
        <time>2022-02-27T10:37:06Z</time>
      </trkpt>
      <trkpt lat="42.84223" lon="0.50696">
        <ele>1766.97</ele>
        <time>2022-02-27T10:37:08Z</time>
      </trkpt>
      <trkpt lat="42.84223" lon="0.50696">
        <ele>1766.968</ele>
        <time>2022-02-27T10:37:10Z</time>
      </trkpt>
      <trkpt lat="42.84222" lon="0.50696">
        <ele>1766.967</ele>
        <time>2022-02-27T10:37:12Z</time>
      </trkpt>
      <trkpt lat="42.84223" lon="0.50696">
        <ele>1767.097</ele>
        <time>2022-02-27T10:37:14Z</time>
      </trkpt>
      <trkpt lat="42.84223" lon="0.50696">
        <ele>1767.073</ele>
        <time>2022-02-27T10:37:16Z</time>
      </trkpt>
      <trkpt lat="42.84223" lon="0.50696">
        <ele>1767.075</ele>
        <time>2022-02-27T10:37:18Z</time>
      </trkpt>
      <trkpt lat="42.84223" lon="0.50696">
        <ele>1767.073</ele>
        <time>2022-02-27T10:37:20Z</time>
      </trkpt>
      <trkpt lat="42.84223" lon="0.50696">
        <ele>1767.08</ele>
        <time>2022-02-27T10:37:22Z</time>
      </trkpt>
      <trkpt lat="42.84223" lon="0.50696">
        <ele>1767.301</ele>
        <time>2022-02-27T10:37:24Z</time>
      </trkpt>
      <trkpt lat="42.84222" lon="0.50696">
        <ele>1767.328</ele>
        <time>2022-02-27T10:37:26Z</time>
      </trkpt>
      <trkpt lat="42.84222" lon="0.50696">
        <ele>1767.329</ele>
        <time>2022-02-27T10:37:28Z</time>
      </trkpt>
      <trkpt lat="42.84222" lon="0.50696">
        <ele>1767.329</ele>
        <time>2022-02-27T10:37:30Z</time>
      </trkpt>
      <trkpt lat="42.84222" lon="0.50696">
        <ele>1767.332</ele>
        <time>2022-02-27T10:37:32Z</time>
      </trkpt>
      <trkpt lat="42.84222" lon="0.50696">
        <ele>1767.327</ele>
        <time>2022-02-27T10:37:34Z</time>
      </trkpt>
      <trkpt lat="42.84222" lon="0.50696">
        <ele>1767.317</ele>
        <time>2022-02-27T10:37:36Z</time>
      </trkpt>
      <trkpt lat="42.84222" lon="0.50696">
        <ele>1767.309</ele>
        <time>2022-02-27T10:37:38Z</time>
      </trkpt>
      <trkpt lat="42.84222" lon="0.50696">
        <ele>1767.316</ele>
        <time>2022-02-27T10:37:40Z</time>
      </trkpt>
      <trkpt lat="42.84222" lon="0.50696">
        <ele>1767.314</ele>
        <time>2022-02-27T10:37:42Z</time>
      </trkpt>
      <trkpt lat="42.84222" lon="0.50696">
        <ele>1767.45</ele>
        <time>2022-02-27T10:37:44Z</time>
      </trkpt>
      <trkpt lat="42.84222" lon="0.50696">
        <ele>1767.445</ele>
        <time>2022-02-27T10:37:46Z</time>
      </trkpt>
      <trkpt lat="42.84222" lon="0.50696">
        <ele>1767.432</ele>
        <time>2022-02-27T10:37:48Z</time>
      </trkpt>
      <trkpt lat="42.84222" lon="0.50696">
        <ele>1767.435</ele>
        <time>2022-02-27T10:37:50Z</time>
      </trkpt>
      <trkpt lat="42.84222" lon="0.50696">
        <ele>1767.432</ele>
        <time>2022-02-27T10:37:52Z</time>
      </trkpt>
      <trkpt lat="42.84222" lon="0.50696">
        <ele>1767.43</ele>
        <time>2022-02-27T10:37:54Z</time>
      </trkpt>
      <trkpt lat="42.84222" lon="0.50697">
        <ele>1767.393</ele>
        <time>2022-02-27T10:37:56Z</time>
      </trkpt>
      <trkpt lat="42.84222" lon="0.50696">
        <ele>1767.159</ele>
        <time>2022-02-27T10:37:58Z</time>
      </trkpt>
      <trkpt lat="42.84222" lon="0.50696">
        <ele>1767.119</ele>
        <time>2022-02-27T10:38:00Z</time>
      </trkpt>
      <trkpt lat="42.84222" lon="0.50696">
        <ele>1767.004</ele>
        <time>2022-02-27T10:38:02Z</time>
      </trkpt>
      <trkpt lat="42.84222" lon="0.50696">
        <ele>1766.93</ele>
        <time>2022-02-27T10:38:04Z</time>
      </trkpt>
      <trkpt lat="42.84222" lon="0.50696">
        <ele>1766.899</ele>
        <time>2022-02-27T10:38:06Z</time>
      </trkpt>
      <trkpt lat="42.84223" lon="0.50697">
        <ele>1767.267</ele>
        <time>2022-02-27T10:38:08Z</time>
      </trkpt>
      <trkpt lat="42.84223" lon="0.50697">
        <ele>1767.234</ele>
        <time>2022-02-27T10:38:10Z</time>
      </trkpt>
      <trkpt lat="42.84223" lon="0.50697">
        <ele>1767.235</ele>
        <time>2022-02-27T10:38:12Z</time>
      </trkpt>
      <trkpt lat="42.84223" lon="0.50697">
        <ele>1767.214</ele>
        <time>2022-02-27T10:38:14Z</time>
      </trkpt>
      <trkpt lat="42.84223" lon="0.50697">
        <ele>1767.204</ele>
        <time>2022-02-27T10:38:16Z</time>
      </trkpt>
      <trkpt lat="42.84223" lon="0.50697">
        <ele>1767.191</ele>
        <time>2022-02-27T10:38:18Z</time>
      </trkpt>
      <trkpt lat="42.84223" lon="0.50697">
        <ele>1767.177</ele>
        <time>2022-02-27T10:38:20Z</time>
      </trkpt>
      <trkpt lat="42.84223" lon="0.50697">
        <ele>1767.161</ele>
        <time>2022-02-27T10:38:22Z</time>
      </trkpt>
      <trkpt lat="42.84223" lon="0.50697">
        <ele>1767.157</ele>
        <time>2022-02-27T10:38:24Z</time>
      </trkpt>
      <trkpt lat="42.84223" lon="0.50697">
        <ele>1767.137</ele>
        <time>2022-02-27T10:38:26Z</time>
      </trkpt>
      <trkpt lat="42.84223" lon="0.50697">
        <ele>1767.137</ele>
        <time>2022-02-27T10:38:28Z</time>
      </trkpt>
      <trkpt lat="42.84222" lon="0.50697">
        <ele>1767.117</ele>
        <time>2022-02-27T10:38:30Z</time>
      </trkpt>
      <trkpt lat="42.84222" lon="0.50697">
        <ele>1767.1</ele>
        <time>2022-02-27T10:38:32Z</time>
      </trkpt>
      <trkpt lat="42.84222" lon="0.50697">
        <ele>1767.096</ele>
        <time>2022-02-27T10:38:34Z</time>
      </trkpt>
      <trkpt lat="42.84222" lon="0.50697">
        <ele>1767.087</ele>
        <time>2022-02-27T10:38:36Z</time>
      </trkpt>
      <trkpt lat="42.84222" lon="0.50697">
        <ele>1767.07</ele>
        <time>2022-02-27T10:38:37Z</time>
      </trkpt>
      <trkpt lat="42.84222" lon="0.50697">
        <ele>1767.052</ele>
        <time>2022-02-27T10:38:40Z</time>
      </trkpt>
      <trkpt lat="42.84222" lon="0.50697">
        <ele>1767.063</ele>
        <time>2022-02-27T10:38:42Z</time>
      </trkpt>
      <trkpt lat="42.84223" lon="0.50697">
        <ele>1767.038</ele>
        <time>2022-02-27T10:38:44Z</time>
      </trkpt>
      <trkpt lat="42.84222" lon="0.50697">
        <ele>1767.011</ele>
        <time>2022-02-27T10:38:46Z</time>
      </trkpt>
      <trkpt lat="42.84222" lon="0.50697">
        <ele>1766.987</ele>
        <time>2022-02-27T10:38:48Z</time>
      </trkpt>
      <trkpt lat="42.84222" lon="0.50697">
        <ele>1766.985</ele>
        <time>2022-02-27T10:38:50Z</time>
      </trkpt>
      <trkpt lat="42.84222" lon="0.50697">
        <ele>1766.994</ele>
        <time>2022-02-27T10:38:52Z</time>
      </trkpt>
      <trkpt lat="42.84222" lon="0.50697">
        <ele>1766.98</ele>
        <time>2022-02-27T10:38:54Z</time>
      </trkpt>
      <trkpt lat="42.84222" lon="0.50697">
        <ele>1766.969</ele>
        <time>2022-02-27T10:38:56Z</time>
      </trkpt>
      <trkpt lat="42.84222" lon="0.50697">
        <ele>1766.913</ele>
        <time>2022-02-27T10:38:58Z</time>
      </trkpt>
      <trkpt lat="42.84221" lon="0.50696">
        <ele>1767.447</ele>
        <time>2022-02-27T10:39:00Z</time>
      </trkpt>
      <trkpt lat="42.8422" lon="0.50695">
        <ele>1767.694</ele>
        <time>2022-02-27T10:39:02Z</time>
      </trkpt>
      <trkpt lat="42.8422" lon="0.50695">
        <ele>1767.346</ele>
        <time>2022-02-27T10:39:04Z</time>
      </trkpt>
      <trkpt lat="42.84218" lon="0.50695">
        <ele>1767.098</ele>
        <time>2022-02-27T10:39:06Z</time>
      </trkpt>
      <trkpt lat="42.84217" lon="0.50696">
        <ele>1767.733</ele>
        <time>2022-02-27T10:39:08Z</time>
      </trkpt>
      <trkpt lat="42.84217" lon="0.50695">
        <ele>1768.069</ele>
        <time>2022-02-27T10:39:10Z</time>
      </trkpt>
      <trkpt lat="42.84216" lon="0.50695">
        <ele>1768.651</ele>
        <time>2022-02-27T10:39:12Z</time>
      </trkpt>
      <trkpt lat="42.84215" lon="0.50695">
        <ele>1768.681</ele>
        <time>2022-02-27T10:39:14Z</time>
      </trkpt>
      <trkpt lat="42.84214" lon="0.50694">
        <ele>1769.931</ele>
        <time>2022-02-27T10:39:16Z</time>
      </trkpt>
      <trkpt lat="42.84214" lon="0.50694">
        <ele>1770.19</ele>
        <time>2022-02-27T10:39:18Z</time>
      </trkpt>
      <trkpt lat="42.84213" lon="0.50694">
        <ele>1770.846</ele>
        <time>2022-02-27T10:39:20Z</time>
      </trkpt>
      <trkpt lat="42.84212" lon="0.50694">
        <ele>1770.627</ele>
        <time>2022-02-27T10:39:22Z</time>
      </trkpt>
      <trkpt lat="42.84211" lon="0.50694">
        <ele>1770.628</ele>
        <time>2022-02-27T10:39:24Z</time>
      </trkpt>
      <trkpt lat="42.84211" lon="0.50693">
        <ele>1770.2</ele>
        <time>2022-02-27T10:39:26Z</time>
      </trkpt>
      <trkpt lat="42.8421" lon="0.50692">
        <ele>1770.956</ele>
        <time>2022-02-27T10:39:28Z</time>
      </trkpt>
      <trkpt lat="42.8421" lon="0.50692">
        <ele>1771.572</ele>
        <time>2022-02-27T10:39:30Z</time>
      </trkpt>
      <trkpt lat="42.84209" lon="0.50692">
        <ele>1772.154</ele>
        <time>2022-02-27T10:39:32Z</time>
      </trkpt>
      <trkpt lat="42.84209" lon="0.50692">
        <ele>1773.273</ele>
        <time>2022-02-27T10:39:34Z</time>
      </trkpt>
      <trkpt lat="42.84208" lon="0.50691">
        <ele>1773.557</ele>
        <time>2022-02-27T10:39:36Z</time>
      </trkpt>
      <trkpt lat="42.84207" lon="0.50691">
        <ele>1774.153</ele>
        <time>2022-02-27T10:39:38Z</time>
      </trkpt>
      <trkpt lat="42.84207" lon="0.5069">
        <ele>1774.708</ele>
        <time>2022-02-27T10:39:40Z</time>
      </trkpt>
      <trkpt lat="42.84206" lon="0.5069">
        <ele>1775.597</ele>
        <time>2022-02-27T10:39:42Z</time>
      </trkpt>
      <trkpt lat="42.84206" lon="0.5069">
        <ele>1775.429</ele>
        <time>2022-02-27T10:39:44Z</time>
      </trkpt>
      <trkpt lat="42.84205" lon="0.5069">
        <ele>1775.791</ele>
        <time>2022-02-27T10:39:46Z</time>
      </trkpt>
      <trkpt lat="42.84204" lon="0.5069">
        <ele>1776.176</ele>
        <time>2022-02-27T10:39:48Z</time>
      </trkpt>
      <trkpt lat="42.84204" lon="0.5069">
        <ele>1775.92</ele>
        <time>2022-02-27T10:39:50Z</time>
      </trkpt>
      <trkpt lat="42.84203" lon="0.5069">
        <ele>1776.036</ele>
        <time>2022-02-27T10:39:52Z</time>
      </trkpt>
      <trkpt lat="42.84202" lon="0.50689">
        <ele>1776.385</ele>
        <time>2022-02-27T10:39:54Z</time>
      </trkpt>
      <trkpt lat="42.84202" lon="0.50689">
        <ele>1776.319</ele>
        <time>2022-02-27T10:39:56Z</time>
      </trkpt>
      <trkpt lat="42.842" lon="0.50689">
        <ele>1775.513</ele>
        <time>2022-02-27T10:39:58Z</time>
      </trkpt>
      <trkpt lat="42.84199" lon="0.50689">
        <ele>1775.91</ele>
        <time>2022-02-27T10:40:00Z</time>
      </trkpt>
      <trkpt lat="42.84199" lon="0.50688">
        <ele>1776.815</ele>
        <time>2022-02-27T10:40:02Z</time>
      </trkpt>
      <trkpt lat="42.84199" lon="0.50688">
        <ele>1776.463</ele>
        <time>2022-02-27T10:40:04Z</time>
      </trkpt>
      <trkpt lat="42.84198" lon="0.50687">
        <ele>1776.555</ele>
        <time>2022-02-27T10:40:06Z</time>
      </trkpt>
      <trkpt lat="42.84198" lon="0.50687">
        <ele>1776.554</ele>
        <time>2022-02-27T10:40:08Z</time>
      </trkpt>
      <trkpt lat="42.84197" lon="0.50687">
        <ele>1776.738</ele>
        <time>2022-02-27T10:40:10Z</time>
      </trkpt>
      <trkpt lat="42.84196" lon="0.50686">
        <ele>1777.471</ele>
        <time>2022-02-27T10:40:12Z</time>
      </trkpt>
      <trkpt lat="42.84196" lon="0.50686">
        <ele>1777.807</ele>
        <time>2022-02-27T10:40:14Z</time>
      </trkpt>
      <trkpt lat="42.84195" lon="0.50685">
        <ele>1778.54</ele>
        <time>2022-02-27T10:40:16Z</time>
      </trkpt>
      <trkpt lat="42.84195" lon="0.50685">
        <ele>1778.563</ele>
        <time>2022-02-27T10:40:18Z</time>
      </trkpt>
      <trkpt lat="42.84194" lon="0.50685">
        <ele>1778.8</ele>
        <time>2022-02-27T10:40:20Z</time>
      </trkpt>
      <trkpt lat="42.84194" lon="0.50684">
        <ele>1777.605</ele>
        <time>2022-02-27T10:40:22Z</time>
      </trkpt>
      <trkpt lat="42.84193" lon="0.50684">
        <ele>1778.206</ele>
        <time>2022-02-27T10:40:24Z</time>
      </trkpt>
      <trkpt lat="42.84192" lon="0.50683">
        <ele>1778.815</ele>
        <time>2022-02-27T10:40:26Z</time>
      </trkpt>
      <trkpt lat="42.84192" lon="0.50683">
        <ele>1779.342</ele>
        <time>2022-02-27T10:40:28Z</time>
      </trkpt>
      <trkpt lat="42.84191" lon="0.50682">
        <ele>1779.568</ele>
        <time>2022-02-27T10:40:30Z</time>
      </trkpt>
      <trkpt lat="42.8419" lon="0.50682">
        <ele>1780.014</ele>
        <time>2022-02-27T10:40:32Z</time>
      </trkpt>
      <trkpt lat="42.84189" lon="0.50681">
        <ele>1780.178</ele>
        <time>2022-02-27T10:40:34Z</time>
      </trkpt>
      <trkpt lat="42.84189" lon="0.50681">
        <ele>1780.104</ele>
        <time>2022-02-27T10:40:36Z</time>
      </trkpt>
      <trkpt lat="42.84188" lon="0.50681">
        <ele>1780.045</ele>
        <time>2022-02-27T10:40:38Z</time>
      </trkpt>
      <trkpt lat="42.84187" lon="0.5068">
        <ele>1780.645</ele>
        <time>2022-02-27T10:40:40Z</time>
      </trkpt>
      <trkpt lat="42.84187" lon="0.5068">
        <ele>1781.161</ele>
        <time>2022-02-27T10:40:42Z</time>
      </trkpt>
      <trkpt lat="42.84186" lon="0.5068">
        <ele>1781.052</ele>
        <time>2022-02-27T10:40:44Z</time>
      </trkpt>
      <trkpt lat="42.84186" lon="0.50679">
        <ele>1780.438</ele>
        <time>2022-02-27T10:40:46Z</time>
      </trkpt>
      <trkpt lat="42.84185" lon="0.50679">
        <ele>1779.965</ele>
        <time>2022-02-27T10:40:48Z</time>
      </trkpt>
      <trkpt lat="42.84184" lon="0.50679">
        <ele>1779.858</ele>
        <time>2022-02-27T10:40:50Z</time>
      </trkpt>
      <trkpt lat="42.84184" lon="0.50679">
        <ele>1779.856</ele>
        <time>2022-02-27T10:40:52Z</time>
      </trkpt>
      <trkpt lat="42.84184" lon="0.50679">
        <ele>1780.153</ele>
        <time>2022-02-27T10:40:54Z</time>
      </trkpt>
      <trkpt lat="42.84183" lon="0.50678">
        <ele>1780.273</ele>
        <time>2022-02-27T10:40:56Z</time>
      </trkpt>
      <trkpt lat="42.84182" lon="0.50678">
        <ele>1780.78</ele>
        <time>2022-02-27T10:40:58Z</time>
      </trkpt>
      <trkpt lat="42.84182" lon="0.50679">
        <ele>1780.985</ele>
        <time>2022-02-27T10:41:00Z</time>
      </trkpt>
      <trkpt lat="42.84181" lon="0.50678">
        <ele>1781.839</ele>
        <time>2022-02-27T10:41:02Z</time>
      </trkpt>
      <trkpt lat="42.8418" lon="0.50678">
        <ele>1781.797</ele>
        <time>2022-02-27T10:41:04Z</time>
      </trkpt>
      <trkpt lat="42.84179" lon="0.50677">
        <ele>1781.738</ele>
        <time>2022-02-27T10:41:06Z</time>
      </trkpt>
      <trkpt lat="42.84178" lon="0.50676">
        <ele>1782.547</ele>
        <time>2022-02-27T10:41:08Z</time>
      </trkpt>
      <trkpt lat="42.84178" lon="0.50676">
        <ele>1782.24</ele>
        <time>2022-02-27T10:41:10Z</time>
      </trkpt>
      <trkpt lat="42.84178" lon="0.50676">
        <ele>1782.239</ele>
        <time>2022-02-27T10:41:12Z</time>
      </trkpt>
      <trkpt lat="42.84178" lon="0.50676">
        <ele>1782.235</ele>
        <time>2022-02-27T10:41:14Z</time>
      </trkpt>
      <trkpt lat="42.84178" lon="0.50676">
        <ele>1782.217</ele>
        <time>2022-02-27T10:41:16Z</time>
      </trkpt>
      <trkpt lat="42.84178" lon="0.50677">
        <ele>1781.948</ele>
        <time>2022-02-27T10:41:18Z</time>
      </trkpt>
      <trkpt lat="42.84178" lon="0.50677">
        <ele>1781.895</ele>
        <time>2022-02-27T10:41:20Z</time>
      </trkpt>
      <trkpt lat="42.84178" lon="0.50677">
        <ele>1781.893</ele>
        <time>2022-02-27T10:41:22Z</time>
      </trkpt>
      <trkpt lat="42.84178" lon="0.50677">
        <ele>1781.894</ele>
        <time>2022-02-27T10:41:24Z</time>
      </trkpt>
      <trkpt lat="42.84178" lon="0.50677">
        <ele>1781.89</ele>
        <time>2022-02-27T10:41:26Z</time>
      </trkpt>
      <trkpt lat="42.84178" lon="0.50676">
        <ele>1781.344</ele>
        <time>2022-02-27T10:41:28Z</time>
      </trkpt>
      <trkpt lat="42.84177" lon="0.50677">
        <ele>1780.805</ele>
        <time>2022-02-27T10:41:30Z</time>
      </trkpt>
      <trkpt lat="42.84177" lon="0.50677">
        <ele>1780.806</ele>
        <time>2022-02-27T10:41:32Z</time>
      </trkpt>
      <trkpt lat="42.84177" lon="0.50677">
        <ele>1780.805</ele>
        <time>2022-02-27T10:41:34Z</time>
      </trkpt>
      <trkpt lat="42.84177" lon="0.50677">
        <ele>1780.805</ele>
        <time>2022-02-27T10:41:36Z</time>
      </trkpt>
      <trkpt lat="42.84177" lon="0.50677">
        <ele>1780.803</ele>
        <time>2022-02-27T10:41:38Z</time>
      </trkpt>
      <trkpt lat="42.84177" lon="0.50677">
        <ele>1780.806</ele>
        <time>2022-02-27T10:41:40Z</time>
      </trkpt>
      <trkpt lat="42.84176" lon="0.50676">
        <ele>1780.059</ele>
        <time>2022-02-27T10:41:42Z</time>
      </trkpt>
      <trkpt lat="42.84175" lon="0.50675">
        <ele>1781.09</ele>
        <time>2022-02-27T10:41:44Z</time>
      </trkpt>
      <trkpt lat="42.84174" lon="0.50675">
        <ele>1781.742</ele>
        <time>2022-02-27T10:41:46Z</time>
      </trkpt>
      <trkpt lat="42.84173" lon="0.50674">
        <ele>1782.023</ele>
        <time>2022-02-27T10:41:48Z</time>
      </trkpt>
      <trkpt lat="42.84172" lon="0.50674">
        <ele>1782.469</ele>
        <time>2022-02-27T10:41:50Z</time>
      </trkpt>
      <trkpt lat="42.84171" lon="0.50673">
        <ele>1783.119</ele>
        <time>2022-02-27T10:41:52Z</time>
      </trkpt>
      <trkpt lat="42.84171" lon="0.50672">
        <ele>1783.321</ele>
        <time>2022-02-27T10:41:54Z</time>
      </trkpt>
      <trkpt lat="42.8417" lon="0.50672">
        <ele>1782.955</ele>
        <time>2022-02-27T10:41:56Z</time>
      </trkpt>
      <trkpt lat="42.84168" lon="0.50672">
        <ele>1783.043</ele>
        <time>2022-02-27T10:41:58Z</time>
      </trkpt>
      <trkpt lat="42.84167" lon="0.50672">
        <ele>1783.117</ele>
        <time>2022-02-27T10:42:00Z</time>
      </trkpt>
      <trkpt lat="42.84166" lon="0.50672">
        <ele>1784.822</ele>
        <time>2022-02-27T10:42:02Z</time>
      </trkpt>
      <trkpt lat="42.84165" lon="0.50672">
        <ele>1785.068</ele>
        <time>2022-02-27T10:42:04Z</time>
      </trkpt>
      <trkpt lat="42.84165" lon="0.50672">
        <ele>1785.869</ele>
        <time>2022-02-27T10:42:06Z</time>
      </trkpt>
      <trkpt lat="42.84165" lon="0.50671">
        <ele>1786.291</ele>
        <time>2022-02-27T10:42:08Z</time>
      </trkpt>
      <trkpt lat="42.84164" lon="0.5067">
        <ele>1786.061</ele>
        <time>2022-02-27T10:42:10Z</time>
      </trkpt>
      <trkpt lat="42.84163" lon="0.5067">
        <ele>1786.211</ele>
        <time>2022-02-27T10:42:12Z</time>
      </trkpt>
      <trkpt lat="42.84162" lon="0.50669">
        <ele>1786.837</ele>
        <time>2022-02-27T10:42:14Z</time>
      </trkpt>
      <trkpt lat="42.84161" lon="0.50668">
        <ele>1787.09</ele>
        <time>2022-02-27T10:42:16Z</time>
      </trkpt>
      <trkpt lat="42.8416" lon="0.50668">
        <ele>1787.134</ele>
        <time>2022-02-27T10:42:18Z</time>
      </trkpt>
      <trkpt lat="42.84159" lon="0.50667">
        <ele>1787.074</ele>
        <time>2022-02-27T10:42:20Z</time>
      </trkpt>
      <trkpt lat="42.84158" lon="0.50667">
        <ele>1787.635</ele>
        <time>2022-02-27T10:42:22Z</time>
      </trkpt>
      <trkpt lat="42.84157" lon="0.50667">
        <ele>1787.6</ele>
        <time>2022-02-27T10:42:24Z</time>
      </trkpt>
      <trkpt lat="42.84156" lon="0.50666">
        <ele>1787.301</ele>
        <time>2022-02-27T10:42:26Z</time>
      </trkpt>
      <trkpt lat="42.84155" lon="0.50666">
        <ele>1787.869</ele>
        <time>2022-02-27T10:42:28Z</time>
      </trkpt>
      <trkpt lat="42.84154" lon="0.50665">
        <ele>1788.142</ele>
        <time>2022-02-27T10:42:30Z</time>
      </trkpt>
      <trkpt lat="42.84153" lon="0.50665">
        <ele>1788.572</ele>
        <time>2022-02-27T10:42:32Z</time>
      </trkpt>
      <trkpt lat="42.84152" lon="0.50664">
        <ele>1788.519</ele>
        <time>2022-02-27T10:42:34Z</time>
      </trkpt>
      <trkpt lat="42.84151" lon="0.50664">
        <ele>1788.879</ele>
        <time>2022-02-27T10:42:36Z</time>
      </trkpt>
      <trkpt lat="42.84151" lon="0.50663">
        <ele>1789.226</ele>
        <time>2022-02-27T10:42:38Z</time>
      </trkpt>
      <trkpt lat="42.8415" lon="0.50663">
        <ele>1789.712</ele>
        <time>2022-02-27T10:42:40Z</time>
      </trkpt>
      <trkpt lat="42.84149" lon="0.50662">
        <ele>1789.826</ele>
        <time>2022-02-27T10:42:42Z</time>
      </trkpt>
      <trkpt lat="42.84148" lon="0.50662">
        <ele>1790.215</ele>
        <time>2022-02-27T10:42:44Z</time>
      </trkpt>
      <trkpt lat="42.84147" lon="0.50662">
        <ele>1790.573</ele>
        <time>2022-02-27T10:42:46Z</time>
      </trkpt>
      <trkpt lat="42.84146" lon="0.50662">
        <ele>1790.563</ele>
        <time>2022-02-27T10:42:48Z</time>
      </trkpt>
      <trkpt lat="42.84146" lon="0.50662">
        <ele>1790.563</ele>
        <time>2022-02-27T10:42:50Z</time>
      </trkpt>
      <trkpt lat="42.84146" lon="0.50662">
        <ele>1790.564</ele>
        <time>2022-02-27T10:42:52Z</time>
      </trkpt>
      <trkpt lat="42.84146" lon="0.50662">
        <ele>1790.566</ele>
        <time>2022-02-27T10:42:54Z</time>
      </trkpt>
      <trkpt lat="42.84146" lon="0.50662">
        <ele>1790.751</ele>
        <time>2022-02-27T10:42:56Z</time>
      </trkpt>
      <trkpt lat="42.84145" lon="0.50661">
        <ele>1791.08</ele>
        <time>2022-02-27T10:42:58Z</time>
      </trkpt>
      <trkpt lat="42.84144" lon="0.50661">
        <ele>1791.106</ele>
        <time>2022-02-27T10:43:00Z</time>
      </trkpt>
      <trkpt lat="42.84145" lon="0.50661">
        <ele>1791.049</ele>
        <time>2022-02-27T10:43:02Z</time>
      </trkpt>
      <trkpt lat="42.84145" lon="0.50661">
        <ele>1791.025</ele>
        <time>2022-02-27T10:43:04Z</time>
      </trkpt>
      <trkpt lat="42.84145" lon="0.50661">
        <ele>1791.031</ele>
        <time>2022-02-27T10:43:06Z</time>
      </trkpt>
      <trkpt lat="42.84145" lon="0.50661">
        <ele>1791.021</ele>
        <time>2022-02-27T10:43:08Z</time>
      </trkpt>
      <trkpt lat="42.84145" lon="0.50661">
        <ele>1791.023</ele>
        <time>2022-02-27T10:43:10Z</time>
      </trkpt>
      <trkpt lat="42.84145" lon="0.50661">
        <ele>1791.022</ele>
        <time>2022-02-27T10:43:12Z</time>
      </trkpt>
      <trkpt lat="42.84144" lon="0.5066">
        <ele>1791.21</ele>
        <time>2022-02-27T10:43:14Z</time>
      </trkpt>
      <trkpt lat="42.84142" lon="0.5066">
        <ele>1791.97</ele>
        <time>2022-02-27T10:43:16Z</time>
      </trkpt>
      <trkpt lat="42.84141" lon="0.5066">
        <ele>1791.421</ele>
        <time>2022-02-27T10:43:18Z</time>
      </trkpt>
      <trkpt lat="42.8414" lon="0.5066">
        <ele>1791.363</ele>
        <time>2022-02-27T10:43:20Z</time>
      </trkpt>
      <trkpt lat="42.84138" lon="0.50659">
        <ele>1792.051</ele>
        <time>2022-02-27T10:43:22Z</time>
      </trkpt>
      <trkpt lat="42.84137" lon="0.50659">
        <ele>1792.179</ele>
        <time>2022-02-27T10:43:24Z</time>
      </trkpt>
      <trkpt lat="42.84137" lon="0.50659">
        <ele>1792.841</ele>
        <time>2022-02-27T10:43:26Z</time>
      </trkpt>
      <trkpt lat="42.84136" lon="0.50659">
        <ele>1792.841</ele>
        <time>2022-02-27T10:43:28Z</time>
      </trkpt>
      <trkpt lat="42.84134" lon="0.50658">
        <ele>1793.515</ele>
        <time>2022-02-27T10:43:30Z</time>
      </trkpt>
      <trkpt lat="42.84133" lon="0.50657">
        <ele>1793.206</ele>
        <time>2022-02-27T10:43:32Z</time>
      </trkpt>
      <trkpt lat="42.84132" lon="0.50657">
        <ele>1792.997</ele>
        <time>2022-02-27T10:43:34Z</time>
      </trkpt>
      <trkpt lat="42.8413" lon="0.50656">
        <ele>1793.05</ele>
        <time>2022-02-27T10:43:36Z</time>
      </trkpt>
      <trkpt lat="42.84129" lon="0.50656">
        <ele>1794.039</ele>
        <time>2022-02-27T10:43:38Z</time>
      </trkpt>
      <trkpt lat="42.84128" lon="0.50655">
        <ele>1794.49</ele>
        <time>2022-02-27T10:43:40Z</time>
      </trkpt>
      <trkpt lat="42.84127" lon="0.50654">
        <ele>1794.453</ele>
        <time>2022-02-27T10:43:42Z</time>
      </trkpt>
      <trkpt lat="42.84126" lon="0.50653">
        <ele>1795.83</ele>
        <time>2022-02-27T10:43:44Z</time>
      </trkpt>
      <trkpt lat="42.84126" lon="0.50653">
        <ele>1795.806</ele>
        <time>2022-02-27T10:43:46Z</time>
      </trkpt>
      <trkpt lat="42.84125" lon="0.50653">
        <ele>1796.948</ele>
        <time>2022-02-27T10:43:48Z</time>
      </trkpt>
      <trkpt lat="42.84124" lon="0.50652">
        <ele>1796.644</ele>
        <time>2022-02-27T10:43:50Z</time>
      </trkpt>
      <trkpt lat="42.84124" lon="0.50652">
        <ele>1797.535</ele>
        <time>2022-02-27T10:43:52Z</time>
      </trkpt>
      <trkpt lat="42.84123" lon="0.50651">
        <ele>1797.903</ele>
        <time>2022-02-27T10:43:54Z</time>
      </trkpt>
      <trkpt lat="42.84122" lon="0.5065">
        <ele>1798.55</ele>
        <time>2022-02-27T10:43:56Z</time>
      </trkpt>
      <trkpt lat="42.84122" lon="0.50649">
        <ele>1798.484</ele>
        <time>2022-02-27T10:43:58Z</time>
      </trkpt>
      <trkpt lat="42.84122" lon="0.50649">
        <ele>1798.378</ele>
        <time>2022-02-27T10:44:00Z</time>
      </trkpt>
      <trkpt lat="42.84122" lon="0.50649">
        <ele>1798.365</ele>
        <time>2022-02-27T10:44:02Z</time>
      </trkpt>
      <trkpt lat="42.84122" lon="0.50649">
        <ele>1798.476</ele>
        <time>2022-02-27T10:44:04Z</time>
      </trkpt>
      <trkpt lat="42.84121" lon="0.50649">
        <ele>1798.988</ele>
        <time>2022-02-27T10:44:06Z</time>
      </trkpt>
      <trkpt lat="42.84121" lon="0.50649">
        <ele>1799.423</ele>
        <time>2022-02-27T10:44:08Z</time>
      </trkpt>
      <trkpt lat="42.84119" lon="0.50648">
        <ele>1798.799</ele>
        <time>2022-02-27T10:44:10Z</time>
      </trkpt>
      <trkpt lat="42.84119" lon="0.50648">
        <ele>1798.353</ele>
        <time>2022-02-27T10:44:12Z</time>
      </trkpt>
      <trkpt lat="42.84118" lon="0.50647">
        <ele>1798.476</ele>
        <time>2022-02-27T10:44:14Z</time>
      </trkpt>
      <trkpt lat="42.84117" lon="0.50647">
        <ele>1798.159</ele>
        <time>2022-02-27T10:44:16Z</time>
      </trkpt>
      <trkpt lat="42.84117" lon="0.50646">
        <ele>1797.578</ele>
        <time>2022-02-27T10:44:18Z</time>
      </trkpt>
      <trkpt lat="42.84116" lon="0.50645">
        <ele>1797.144</ele>
        <time>2022-02-27T10:44:20Z</time>
      </trkpt>
      <trkpt lat="42.84115" lon="0.50645">
        <ele>1796.937</ele>
        <time>2022-02-27T10:44:22Z</time>
      </trkpt>
      <trkpt lat="42.84114" lon="0.50644">
        <ele>1796.671</ele>
        <time>2022-02-27T10:44:24Z</time>
      </trkpt>
      <trkpt lat="42.84112" lon="0.50643">
        <ele>1797.149</ele>
        <time>2022-02-27T10:44:26Z</time>
      </trkpt>
      <trkpt lat="42.84111" lon="0.50643">
        <ele>1797.281</ele>
        <time>2022-02-27T10:44:28Z</time>
      </trkpt>
      <trkpt lat="42.8411" lon="0.50642">
        <ele>1797.286</ele>
        <time>2022-02-27T10:44:30Z</time>
      </trkpt>
      <trkpt lat="42.84109" lon="0.50641">
        <ele>1797.49</ele>
        <time>2022-02-27T10:44:32Z</time>
      </trkpt>
      <trkpt lat="42.84108" lon="0.5064">
        <ele>1797.194</ele>
        <time>2022-02-27T10:44:34Z</time>
      </trkpt>
      <trkpt lat="42.84107" lon="0.50639">
        <ele>1796.924</ele>
        <time>2022-02-27T10:44:36Z</time>
      </trkpt>
      <trkpt lat="42.84106" lon="0.50638">
        <ele>1796.798</ele>
        <time>2022-02-27T10:44:38Z</time>
      </trkpt>
      <trkpt lat="42.84105" lon="0.50638">
        <ele>1796.943</ele>
        <time>2022-02-27T10:44:40Z</time>
      </trkpt>
      <trkpt lat="42.84103" lon="0.50637">
        <ele>1795.98</ele>
        <time>2022-02-27T10:44:42Z</time>
      </trkpt>
      <trkpt lat="42.84102" lon="0.50637">
        <ele>1796.213</ele>
        <time>2022-02-27T10:44:44Z</time>
      </trkpt>
      <trkpt lat="42.841" lon="0.50636">
        <ele>1796.623</ele>
        <time>2022-02-27T10:44:46Z</time>
      </trkpt>
      <trkpt lat="42.84099" lon="0.50635">
        <ele>1796.983</ele>
        <time>2022-02-27T10:44:48Z</time>
      </trkpt>
      <trkpt lat="42.84097" lon="0.50635">
        <ele>1797.812</ele>
        <time>2022-02-27T10:44:50Z</time>
      </trkpt>
      <trkpt lat="42.84096" lon="0.50634">
        <ele>1797.552</ele>
        <time>2022-02-27T10:44:52Z</time>
      </trkpt>
      <trkpt lat="42.84095" lon="0.50634">
        <ele>1797.837</ele>
        <time>2022-02-27T10:44:54Z</time>
      </trkpt>
      <trkpt lat="42.84093" lon="0.50633">
        <ele>1798.392</ele>
        <time>2022-02-27T10:44:56Z</time>
      </trkpt>
      <trkpt lat="42.84092" lon="0.50633">
        <ele>1798.495</ele>
        <time>2022-02-27T10:44:58Z</time>
      </trkpt>
      <trkpt lat="42.84091" lon="0.50632">
        <ele>1798.192</ele>
        <time>2022-02-27T10:45:00Z</time>
      </trkpt>
      <trkpt lat="42.8409" lon="0.5063">
        <ele>1799.366</ele>
        <time>2022-02-27T10:45:02Z</time>
      </trkpt>
      <trkpt lat="42.84091" lon="0.5063">
        <ele>1799.385</ele>
        <time>2022-02-27T10:45:04Z</time>
      </trkpt>
      <trkpt lat="42.84091" lon="0.5063">
        <ele>1799.383</ele>
        <time>2022-02-27T10:45:06Z</time>
      </trkpt>
      <trkpt lat="42.84091" lon="0.50629">
        <ele>1799.385</ele>
        <time>2022-02-27T10:45:08Z</time>
      </trkpt>
      <trkpt lat="42.84091" lon="0.5063">
        <ele>1798.988</ele>
        <time>2022-02-27T10:45:10Z</time>
      </trkpt>
      <trkpt lat="42.8409" lon="0.5063">
        <ele>1799.189</ele>
        <time>2022-02-27T10:45:12Z</time>
      </trkpt>
      <trkpt lat="42.84088" lon="0.50629">
        <ele>1799.49</ele>
        <time>2022-02-27T10:45:14Z</time>
      </trkpt>
      <trkpt lat="42.84087" lon="0.50628">
        <ele>1799.181</ele>
        <time>2022-02-27T10:45:16Z</time>
      </trkpt>
      <trkpt lat="42.84086" lon="0.50628">
        <ele>1798.95</ele>
        <time>2022-02-27T10:45:18Z</time>
      </trkpt>
      <trkpt lat="42.84084" lon="0.50627">
        <ele>1798.752</ele>
        <time>2022-02-27T10:45:20Z</time>
      </trkpt>
      <trkpt lat="42.84083" lon="0.50626">
        <ele>1799.015</ele>
        <time>2022-02-27T10:45:22Z</time>
      </trkpt>
      <trkpt lat="42.84082" lon="0.50626">
        <ele>1798.285</ele>
        <time>2022-02-27T10:45:24Z</time>
      </trkpt>
      <trkpt lat="42.84081" lon="0.50625">
        <ele>1798.21</ele>
        <time>2022-02-27T10:45:26Z</time>
      </trkpt>
      <trkpt lat="42.8408" lon="0.50624">
        <ele>1799.4</ele>
        <time>2022-02-27T10:45:28Z</time>
      </trkpt>
      <trkpt lat="42.84079" lon="0.50623">
        <ele>1799.797</ele>
        <time>2022-02-27T10:45:30Z</time>
      </trkpt>
      <trkpt lat="42.84078" lon="0.50622">
        <ele>1799.683</ele>
        <time>2022-02-27T10:45:32Z</time>
      </trkpt>
      <trkpt lat="42.84077" lon="0.50622">
        <ele>1800.502</ele>
        <time>2022-02-27T10:45:34Z</time>
      </trkpt>
      <trkpt lat="42.84076" lon="0.50621">
        <ele>1800.47</ele>
        <time>2022-02-27T10:45:36Z</time>
      </trkpt>
      <trkpt lat="42.84074" lon="0.5062">
        <ele>1799.785</ele>
        <time>2022-02-27T10:45:38Z</time>
      </trkpt>
      <trkpt lat="42.84073" lon="0.50619">
        <ele>1799.4</ele>
        <time>2022-02-27T10:45:40Z</time>
      </trkpt>
      <trkpt lat="42.84072" lon="0.50618">
        <ele>1799.528</ele>
        <time>2022-02-27T10:45:42Z</time>
      </trkpt>
      <trkpt lat="42.84071" lon="0.50617">
        <ele>1798.588</ele>
        <time>2022-02-27T10:45:44Z</time>
      </trkpt>
      <trkpt lat="42.84071" lon="0.50616">
        <ele>1798.621</ele>
        <time>2022-02-27T10:45:46Z</time>
      </trkpt>
      <trkpt lat="42.8407" lon="0.50615">
        <ele>1798.925</ele>
        <time>2022-02-27T10:45:48Z</time>
      </trkpt>
      <trkpt lat="42.84069" lon="0.50614">
        <ele>1799.404</ele>
        <time>2022-02-27T10:45:50Z</time>
      </trkpt>
      <trkpt lat="42.84067" lon="0.50613">
        <ele>1799.331</ele>
        <time>2022-02-27T10:45:52Z</time>
      </trkpt>
      <trkpt lat="42.84066" lon="0.50611">
        <ele>1799.139</ele>
        <time>2022-02-27T10:45:54Z</time>
      </trkpt>
      <trkpt lat="42.84065" lon="0.5061">
        <ele>1798.653</ele>
        <time>2022-02-27T10:45:56Z</time>
      </trkpt>
      <trkpt lat="42.84064" lon="0.50609">
        <ele>1798.661</ele>
        <time>2022-02-27T10:45:58Z</time>
      </trkpt>
      <trkpt lat="42.84062" lon="0.50608">
        <ele>1798.351</ele>
        <time>2022-02-27T10:46:00Z</time>
      </trkpt>
      <trkpt lat="42.84061" lon="0.50607">
        <ele>1798.322</ele>
        <time>2022-02-27T10:46:02Z</time>
      </trkpt>
      <trkpt lat="42.84059" lon="0.50606">
        <ele>1798.345</ele>
        <time>2022-02-27T10:46:04Z</time>
      </trkpt>
      <trkpt lat="42.84058" lon="0.50605">
        <ele>1798.169</ele>
        <time>2022-02-27T10:46:06Z</time>
      </trkpt>
      <trkpt lat="42.84057" lon="0.50603">
        <ele>1798.266</ele>
        <time>2022-02-27T10:46:08Z</time>
      </trkpt>
      <trkpt lat="42.84056" lon="0.50601">
        <ele>1798.517</ele>
        <time>2022-02-27T10:46:10Z</time>
      </trkpt>
      <trkpt lat="42.84055" lon="0.506">
        <ele>1798.371</ele>
        <time>2022-02-27T10:46:12Z</time>
      </trkpt>
      <trkpt lat="42.84054" lon="0.50599">
        <ele>1798.277</ele>
        <time>2022-02-27T10:46:14Z</time>
      </trkpt>
      <trkpt lat="42.84053" lon="0.50597">
        <ele>1798.913</ele>
        <time>2022-02-27T10:46:16Z</time>
      </trkpt>
      <trkpt lat="42.84051" lon="0.50596">
        <ele>1798.912</ele>
        <time>2022-02-27T10:46:18Z</time>
      </trkpt>
      <trkpt lat="42.8405" lon="0.50594">
        <ele>1798.886</ele>
        <time>2022-02-27T10:46:20Z</time>
      </trkpt>
      <trkpt lat="42.84049" lon="0.50593">
        <ele>1799.769</ele>
        <time>2022-02-27T10:46:22Z</time>
      </trkpt>
      <trkpt lat="42.84048" lon="0.50592">
        <ele>1799.746</ele>
        <time>2022-02-27T10:46:24Z</time>
      </trkpt>
      <trkpt lat="42.84047" lon="0.50591">
        <ele>1800.624</ele>
        <time>2022-02-27T10:46:26Z</time>
      </trkpt>
      <trkpt lat="42.84045" lon="0.5059">
        <ele>1800.857</ele>
        <time>2022-02-27T10:46:28Z</time>
      </trkpt>
      <trkpt lat="42.84044" lon="0.5059">
        <ele>1801.571</ele>
        <time>2022-02-27T10:46:30Z</time>
      </trkpt>
      <trkpt lat="42.84042" lon="0.50589">
        <ele>1801.973</ele>
        <time>2022-02-27T10:46:32Z</time>
      </trkpt>
      <trkpt lat="42.84041" lon="0.50589">
        <ele>1802.621</ele>
        <time>2022-02-27T10:46:34Z</time>
      </trkpt>
      <trkpt lat="42.8404" lon="0.50588">
        <ele>1802.815</ele>
        <time>2022-02-27T10:46:36Z</time>
      </trkpt>
      <trkpt lat="42.84039" lon="0.50587">
        <ele>1803.036</ele>
        <time>2022-02-27T10:46:38Z</time>
      </trkpt>
      <trkpt lat="42.84038" lon="0.50587">
        <ele>1803.442</ele>
        <time>2022-02-27T10:46:40Z</time>
      </trkpt>
      <trkpt lat="42.84036" lon="0.50586">
        <ele>1803.566</ele>
        <time>2022-02-27T10:46:42Z</time>
      </trkpt>
      <trkpt lat="42.84036" lon="0.50585">
        <ele>1804.018</ele>
        <time>2022-02-27T10:46:44Z</time>
      </trkpt>
      <trkpt lat="42.84036" lon="0.50585">
        <ele>1804.023</ele>
        <time>2022-02-27T10:46:46Z</time>
      </trkpt>
      <trkpt lat="42.84035" lon="0.50585">
        <ele>1804.238</ele>
        <time>2022-02-27T10:46:48Z</time>
      </trkpt>
      <trkpt lat="42.84035" lon="0.50584">
        <ele>1804.71</ele>
        <time>2022-02-27T10:46:50Z</time>
      </trkpt>
      <trkpt lat="42.84034" lon="0.50584">
        <ele>1804.69</ele>
        <time>2022-02-27T10:46:52Z</time>
      </trkpt>
      <trkpt lat="42.84033" lon="0.50584">
        <ele>1804.496</ele>
        <time>2022-02-27T10:46:54Z</time>
      </trkpt>
      <trkpt lat="42.84032" lon="0.50583">
        <ele>1804.792</ele>
        <time>2022-02-27T10:46:56Z</time>
      </trkpt>
      <trkpt lat="42.84031" lon="0.50582">
        <ele>1805.01</ele>
        <time>2022-02-27T10:46:58Z</time>
      </trkpt>
      <trkpt lat="42.8403" lon="0.50581">
        <ele>1805.486</ele>
        <time>2022-02-27T10:47:00Z</time>
      </trkpt>
      <trkpt lat="42.84029" lon="0.5058">
        <ele>1806.052</ele>
        <time>2022-02-27T10:47:02Z</time>
      </trkpt>
      <trkpt lat="42.84028" lon="0.5058">
        <ele>1806.067</ele>
        <time>2022-02-27T10:47:04Z</time>
      </trkpt>
      <trkpt lat="42.84027" lon="0.5058">
        <ele>1806.227</ele>
        <time>2022-02-27T10:47:06Z</time>
      </trkpt>
      <trkpt lat="42.84027" lon="0.50579">
        <ele>1806.732</ele>
        <time>2022-02-27T10:47:08Z</time>
      </trkpt>
      <trkpt lat="42.84026" lon="0.50578">
        <ele>1807.245</ele>
        <time>2022-02-27T10:47:10Z</time>
      </trkpt>
      <trkpt lat="42.84025" lon="0.50577">
        <ele>1807.621</ele>
        <time>2022-02-27T10:47:12Z</time>
      </trkpt>
      <trkpt lat="42.84025" lon="0.50577">
        <ele>1807.444</ele>
        <time>2022-02-27T10:47:14Z</time>
      </trkpt>
      <trkpt lat="42.84024" lon="0.50577">
        <ele>1807.729</ele>
        <time>2022-02-27T10:47:16Z</time>
      </trkpt>
      <trkpt lat="42.84024" lon="0.50576">
        <ele>1808.149</ele>
        <time>2022-02-27T10:47:18Z</time>
      </trkpt>
      <trkpt lat="42.84023" lon="0.50576">
        <ele>1808.992</ele>
        <time>2022-02-27T10:47:20Z</time>
      </trkpt>
      <trkpt lat="42.84022" lon="0.50576">
        <ele>1809.409</ele>
        <time>2022-02-27T10:47:22Z</time>
      </trkpt>
      <trkpt lat="42.84022" lon="0.50575">
        <ele>1810.221</ele>
        <time>2022-02-27T10:47:24Z</time>
      </trkpt>
      <trkpt lat="42.84021" lon="0.50576">
        <ele>1810.436</ele>
        <time>2022-02-27T10:47:26Z</time>
      </trkpt>
      <trkpt lat="42.8402" lon="0.50575">
        <ele>1810.554</ele>
        <time>2022-02-27T10:47:28Z</time>
      </trkpt>
      <trkpt lat="42.84019" lon="0.50575">
        <ele>1810.654</ele>
        <time>2022-02-27T10:47:30Z</time>
      </trkpt>
      <trkpt lat="42.84018" lon="0.50575">
        <ele>1810.943</ele>
        <time>2022-02-27T10:47:32Z</time>
      </trkpt>
      <trkpt lat="42.84018" lon="0.50576">
        <ele>1811.377</ele>
        <time>2022-02-27T10:47:34Z</time>
      </trkpt>
      <trkpt lat="42.84017" lon="0.50576">
        <ele>1811.135</ele>
        <time>2022-02-27T10:47:36Z</time>
      </trkpt>
      <trkpt lat="42.84016" lon="0.50576">
        <ele>1811.817</ele>
        <time>2022-02-27T10:47:38Z</time>
      </trkpt>
      <trkpt lat="42.84015" lon="0.50575">
        <ele>1812.339</ele>
        <time>2022-02-27T10:47:40Z</time>
      </trkpt>
      <trkpt lat="42.84014" lon="0.50575">
        <ele>1812.668</ele>
        <time>2022-02-27T10:47:42Z</time>
      </trkpt>
      <trkpt lat="42.84013" lon="0.50574">
        <ele>1812.51</ele>
        <time>2022-02-27T10:47:44Z</time>
      </trkpt>
      <trkpt lat="42.84013" lon="0.50574">
        <ele>1812.575</ele>
        <time>2022-02-27T10:47:46Z</time>
      </trkpt>
      <trkpt lat="42.84011" lon="0.50573">
        <ele>1813.602</ele>
        <time>2022-02-27T10:47:48Z</time>
      </trkpt>
      <trkpt lat="42.84011" lon="0.50573">
        <ele>1813.906</ele>
        <time>2022-02-27T10:47:50Z</time>
      </trkpt>
      <trkpt lat="42.8401" lon="0.50573">
        <ele>1813.839</ele>
        <time>2022-02-27T10:47:52Z</time>
      </trkpt>
      <trkpt lat="42.8401" lon="0.50573">
        <ele>1813.906</ele>
        <time>2022-02-27T10:47:54Z</time>
      </trkpt>
      <trkpt lat="42.84009" lon="0.50573">
        <ele>1814.431</ele>
        <time>2022-02-27T10:47:56Z</time>
      </trkpt>
      <trkpt lat="42.84009" lon="0.50573">
        <ele>1814.856</ele>
        <time>2022-02-27T10:47:58Z</time>
      </trkpt>
      <trkpt lat="42.84008" lon="0.50573">
        <ele>1815.434</ele>
        <time>2022-02-27T10:48:00Z</time>
      </trkpt>
      <trkpt lat="42.84008" lon="0.50573">
        <ele>1815.436</ele>
        <time>2022-02-27T10:48:02Z</time>
      </trkpt>
      <trkpt lat="42.84008" lon="0.50573">
        <ele>1815.438</ele>
        <time>2022-02-27T10:48:04Z</time>
      </trkpt>
      <trkpt lat="42.84008" lon="0.50573">
        <ele>1815.434</ele>
        <time>2022-02-27T10:48:06Z</time>
      </trkpt>
      <trkpt lat="42.84008" lon="0.50573">
        <ele>1815.437</ele>
        <time>2022-02-27T10:48:08Z</time>
      </trkpt>
      <trkpt lat="42.84008" lon="0.50573">
        <ele>1815.434</ele>
        <time>2022-02-27T10:48:10Z</time>
      </trkpt>
      <trkpt lat="42.84008" lon="0.50573">
        <ele>1815.486</ele>
        <time>2022-02-27T10:48:12Z</time>
      </trkpt>
      <trkpt lat="42.84007" lon="0.50572">
        <ele>1815.876</ele>
        <time>2022-02-27T10:48:14Z</time>
      </trkpt>
      <trkpt lat="42.84007" lon="0.50571">
        <ele>1816.528</ele>
        <time>2022-02-27T10:48:16Z</time>
      </trkpt>
      <trkpt lat="42.84007" lon="0.50572">
        <ele>1816.498</ele>
        <time>2022-02-27T10:48:18Z</time>
      </trkpt>
      <trkpt lat="42.84006" lon="0.50572">
        <ele>1816.234</ele>
        <time>2022-02-27T10:48:20Z</time>
      </trkpt>
      <trkpt lat="42.84005" lon="0.50573">
        <ele>1815.996</ele>
        <time>2022-02-27T10:48:22Z</time>
      </trkpt>
      <trkpt lat="42.84005" lon="0.50574">
        <ele>1816.032</ele>
        <time>2022-02-27T10:48:24Z</time>
      </trkpt>
      <trkpt lat="42.84004" lon="0.50575">
        <ele>1815.925</ele>
        <time>2022-02-27T10:48:26Z</time>
      </trkpt>
      <trkpt lat="42.84003" lon="0.50575">
        <ele>1815.946</ele>
        <time>2022-02-27T10:48:28Z</time>
      </trkpt>
      <trkpt lat="42.84002" lon="0.50575">
        <ele>1815.876</ele>
        <time>2022-02-27T10:48:30Z</time>
      </trkpt>
      <trkpt lat="42.84002" lon="0.50574">
        <ele>1816.896</ele>
        <time>2022-02-27T10:48:32Z</time>
      </trkpt>
      <trkpt lat="42.84002" lon="0.50573">
        <ele>1817.686</ele>
        <time>2022-02-27T10:48:34Z</time>
      </trkpt>
      <trkpt lat="42.84002" lon="0.50573">
        <ele>1817.689</ele>
        <time>2022-02-27T10:48:36Z</time>
      </trkpt>
      <trkpt lat="42.84002" lon="0.50573">
        <ele>1817.688</ele>
        <time>2022-02-27T10:48:38Z</time>
      </trkpt>
      <trkpt lat="42.84002" lon="0.50573">
        <ele>1817.689</ele>
        <time>2022-02-27T10:48:40Z</time>
      </trkpt>
      <trkpt lat="42.84002" lon="0.50573">
        <ele>1817.693</ele>
        <time>2022-02-27T10:48:42Z</time>
      </trkpt>
      <trkpt lat="42.84002" lon="0.50573">
        <ele>1817.68</ele>
        <time>2022-02-27T10:48:44Z</time>
      </trkpt>
      <trkpt lat="42.84002" lon="0.50573">
        <ele>1817.678</ele>
        <time>2022-02-27T10:48:46Z</time>
      </trkpt>
      <trkpt lat="42.84002" lon="0.50573">
        <ele>1817.675</ele>
        <time>2022-02-27T10:48:48Z</time>
      </trkpt>
      <trkpt lat="42.84002" lon="0.50573">
        <ele>1817.732</ele>
        <time>2022-02-27T10:48:50Z</time>
      </trkpt>
      <trkpt lat="42.84001" lon="0.50572">
        <ele>1817.96</ele>
        <time>2022-02-27T10:48:52Z</time>
      </trkpt>
      <trkpt lat="42.84001" lon="0.50571">
        <ele>1818.023</ele>
        <time>2022-02-27T10:48:54Z</time>
      </trkpt>
      <trkpt lat="42.84" lon="0.50571">
        <ele>1818.277</ele>
        <time>2022-02-27T10:48:56Z</time>
      </trkpt>
      <trkpt lat="42.83999" lon="0.50571">
        <ele>1818.715</ele>
        <time>2022-02-27T10:48:58Z</time>
      </trkpt>
      <trkpt lat="42.83998" lon="0.50571">
        <ele>1819.545</ele>
        <time>2022-02-27T10:49:00Z</time>
      </trkpt>
      <trkpt lat="42.83998" lon="0.5057">
        <ele>1819.756</ele>
        <time>2022-02-27T10:49:02Z</time>
      </trkpt>
      <trkpt lat="42.83997" lon="0.5057">
        <ele>1819.813</ele>
        <time>2022-02-27T10:49:04Z</time>
      </trkpt>
      <trkpt lat="42.83996" lon="0.50569">
        <ele>1819.801</ele>
        <time>2022-02-27T10:49:06Z</time>
      </trkpt>
      <trkpt lat="42.83996" lon="0.50568">
        <ele>1820.567</ele>
        <time>2022-02-27T10:49:08Z</time>
      </trkpt>
      <trkpt lat="42.83995" lon="0.50567">
        <ele>1820.672</ele>
        <time>2022-02-27T10:49:10Z</time>
      </trkpt>
      <trkpt lat="42.83994" lon="0.50566">
        <ele>1821.06</ele>
        <time>2022-02-27T10:49:12Z</time>
      </trkpt>
      <trkpt lat="42.83994" lon="0.50566">
        <ele>1821.111</ele>
        <time>2022-02-27T10:49:14Z</time>
      </trkpt>
      <trkpt lat="42.83993" lon="0.50565">
        <ele>1822.049</ele>
        <time>2022-02-27T10:49:16Z</time>
      </trkpt>
      <trkpt lat="42.83992" lon="0.50565">
        <ele>1821.7</ele>
        <time>2022-02-27T10:49:18Z</time>
      </trkpt>
      <trkpt lat="42.83991" lon="0.50565">
        <ele>1820.8</ele>
        <time>2022-02-27T10:49:20Z</time>
      </trkpt>
      <trkpt lat="42.8399" lon="0.50564">
        <ele>1821.453</ele>
        <time>2022-02-27T10:49:22Z</time>
      </trkpt>
      <trkpt lat="42.8399" lon="0.50563">
        <ele>1822.071</ele>
        <time>2022-02-27T10:49:24Z</time>
      </trkpt>
      <trkpt lat="42.8399" lon="0.50563">
        <ele>1822.015</ele>
        <time>2022-02-27T10:49:26Z</time>
      </trkpt>
      <trkpt lat="42.8399" lon="0.50562">
        <ele>1822.018</ele>
        <time>2022-02-27T10:49:28Z</time>
      </trkpt>
      <trkpt lat="42.83989" lon="0.50561">
        <ele>1822.176</ele>
        <time>2022-02-27T10:49:30Z</time>
      </trkpt>
      <trkpt lat="42.83989" lon="0.5056">
        <ele>1821.548</ele>
        <time>2022-02-27T10:49:32Z</time>
      </trkpt>
      <trkpt lat="42.83989" lon="0.50559">
        <ele>1821.952</ele>
        <time>2022-02-27T10:49:34Z</time>
      </trkpt>
      <trkpt lat="42.83989" lon="0.50558">
        <ele>1822.465</ele>
        <time>2022-02-27T10:49:36Z</time>
      </trkpt>
      <trkpt lat="42.83989" lon="0.50558">
        <ele>1822.906</ele>
        <time>2022-02-27T10:49:38Z</time>
      </trkpt>
      <trkpt lat="42.83988" lon="0.50557">
        <ele>1822.675</ele>
        <time>2022-02-27T10:49:40Z</time>
      </trkpt>
      <trkpt lat="42.83988" lon="0.50556">
        <ele>1822.859</ele>
        <time>2022-02-27T10:49:42Z</time>
      </trkpt>
      <trkpt lat="42.83988" lon="0.50555">
        <ele>1823.172</ele>
        <time>2022-02-27T10:49:44Z</time>
      </trkpt>
      <trkpt lat="42.83988" lon="0.50554">
        <ele>1822.971</ele>
        <time>2022-02-27T10:49:46Z</time>
      </trkpt>
      <trkpt lat="42.83988" lon="0.50555">
        <ele>1823.006</ele>
        <time>2022-02-27T10:49:48Z</time>
      </trkpt>
      <trkpt lat="42.83988" lon="0.50555">
        <ele>1823.011</ele>
        <time>2022-02-27T10:49:50Z</time>
      </trkpt>
      <trkpt lat="42.83988" lon="0.50555">
        <ele>1823.01</ele>
        <time>2022-02-27T10:49:52Z</time>
      </trkpt>
      <trkpt lat="42.83988" lon="0.50555">
        <ele>1823.009</ele>
        <time>2022-02-27T10:49:54Z</time>
      </trkpt>
      <trkpt lat="42.83988" lon="0.50555">
        <ele>1823.008</ele>
        <time>2022-02-27T10:49:56Z</time>
      </trkpt>
      <trkpt lat="42.83988" lon="0.50555">
        <ele>1823.008</ele>
        <time>2022-02-27T10:49:58Z</time>
      </trkpt>
      <trkpt lat="42.83988" lon="0.50555">
        <ele>1823.012</ele>
        <time>2022-02-27T10:50:00Z</time>
      </trkpt>
      <trkpt lat="42.83988" lon="0.50555">
        <ele>1823.013</ele>
        <time>2022-02-27T10:50:02Z</time>
      </trkpt>
      <trkpt lat="42.83988" lon="0.50555">
        <ele>1823.011</ele>
        <time>2022-02-27T10:50:04Z</time>
      </trkpt>
      <trkpt lat="42.83988" lon="0.50554">
        <ele>1822.977</ele>
        <time>2022-02-27T10:50:06Z</time>
      </trkpt>
      <trkpt lat="42.83988" lon="0.50553">
        <ele>1823.09</ele>
        <time>2022-02-27T10:50:08Z</time>
      </trkpt>
      <trkpt lat="42.83988" lon="0.50551">
        <ele>1823.606</ele>
        <time>2022-02-27T10:50:10Z</time>
      </trkpt>
      <trkpt lat="42.83988" lon="0.5055">
        <ele>1824</ele>
        <time>2022-02-27T10:50:12Z</time>
      </trkpt>
      <trkpt lat="42.83987" lon="0.50548">
        <ele>1824.263</ele>
        <time>2022-02-27T10:50:14Z</time>
      </trkpt>
      <trkpt lat="42.83987" lon="0.50547">
        <ele>1824.376</ele>
        <time>2022-02-27T10:50:16Z</time>
      </trkpt>
      <trkpt lat="42.83987" lon="0.50547">
        <ele>1824.373</ele>
        <time>2022-02-27T10:50:18Z</time>
      </trkpt>
      <trkpt lat="42.83986" lon="0.50546">
        <ele>1824.354</ele>
        <time>2022-02-27T10:50:20Z</time>
      </trkpt>
      <trkpt lat="42.83986" lon="0.50545">
        <ele>1824.798</ele>
        <time>2022-02-27T10:50:22Z</time>
      </trkpt>
      <trkpt lat="42.83986" lon="0.50544">
        <ele>1825.331</ele>
        <time>2022-02-27T10:50:24Z</time>
      </trkpt>
      <trkpt lat="42.83986" lon="0.50544">
        <ele>1825.449</ele>
        <time>2022-02-27T10:50:26Z</time>
      </trkpt>
      <trkpt lat="42.83986" lon="0.50543">
        <ele>1825.678</ele>
        <time>2022-02-27T10:50:28Z</time>
      </trkpt>
      <trkpt lat="42.83986" lon="0.50543">
        <ele>1824.971</ele>
        <time>2022-02-27T10:50:30Z</time>
      </trkpt>
      <trkpt lat="42.83985" lon="0.50542">
        <ele>1825.022</ele>
        <time>2022-02-27T10:50:32Z</time>
      </trkpt>
      <trkpt lat="42.83986" lon="0.50542">
        <ele>1825.437</ele>
        <time>2022-02-27T10:50:34Z</time>
      </trkpt>
      <trkpt lat="42.83986" lon="0.5054">
        <ele>1825.854</ele>
        <time>2022-02-27T10:50:36Z</time>
      </trkpt>
      <trkpt lat="42.83986" lon="0.50539">
        <ele>1825.278</ele>
        <time>2022-02-27T10:50:38Z</time>
      </trkpt>
      <trkpt lat="42.83985" lon="0.50538">
        <ele>1825.645</ele>
        <time>2022-02-27T10:50:40Z</time>
      </trkpt>
      <trkpt lat="42.83986" lon="0.50537">
        <ele>1825.847</ele>
        <time>2022-02-27T10:50:42Z</time>
      </trkpt>
      <trkpt lat="42.83985" lon="0.50536">
        <ele>1826.51</ele>
        <time>2022-02-27T10:50:44Z</time>
      </trkpt>
      <trkpt lat="42.83985" lon="0.50535">
        <ele>1826.549</ele>
        <time>2022-02-27T10:50:46Z</time>
      </trkpt>
      <trkpt lat="42.83985" lon="0.50534">
        <ele>1827.381</ele>
        <time>2022-02-27T10:50:48Z</time>
      </trkpt>
      <trkpt lat="42.83984" lon="0.50533">
        <ele>1827.657</ele>
        <time>2022-02-27T10:50:50Z</time>
      </trkpt>
      <trkpt lat="42.83985" lon="0.50532">
        <ele>1827.671</ele>
        <time>2022-02-27T10:50:52Z</time>
      </trkpt>
      <trkpt lat="42.83985" lon="0.50531">
        <ele>1827.954</ele>
        <time>2022-02-27T10:50:54Z</time>
      </trkpt>
      <trkpt lat="42.83986" lon="0.5053">
        <ele>1827.947</ele>
        <time>2022-02-27T10:50:56Z</time>
      </trkpt>
      <trkpt lat="42.83985" lon="0.50529">
        <ele>1828.351</ele>
        <time>2022-02-27T10:50:58Z</time>
      </trkpt>
      <trkpt lat="42.83985" lon="0.50528">
        <ele>1828.447</ele>
        <time>2022-02-27T10:51:00Z</time>
      </trkpt>
      <trkpt lat="42.83985" lon="0.50527">
        <ele>1828.324</ele>
        <time>2022-02-27T10:51:02Z</time>
      </trkpt>
      <trkpt lat="42.83985" lon="0.50525">
        <ele>1829.388</ele>
        <time>2022-02-27T10:51:04Z</time>
      </trkpt>
      <trkpt lat="42.83985" lon="0.50523">
        <ele>1830.588</ele>
        <time>2022-02-27T10:51:06Z</time>
      </trkpt>
      <trkpt lat="42.83985" lon="0.50523">
        <ele>1830.245</ele>
        <time>2022-02-27T10:51:08Z</time>
      </trkpt>
      <trkpt lat="42.83985" lon="0.50523">
        <ele>1830.233</ele>
        <time>2022-02-27T10:51:10Z</time>
      </trkpt>
      <trkpt lat="42.83985" lon="0.50523">
        <ele>1830.226</ele>
        <time>2022-02-27T10:51:12Z</time>
      </trkpt>
      <trkpt lat="42.83985" lon="0.50523">
        <ele>1830.226</ele>
        <time>2022-02-27T10:51:14Z</time>
      </trkpt>
      <trkpt lat="42.83985" lon="0.50522">
        <ele>1830.093</ele>
        <time>2022-02-27T10:51:16Z</time>
      </trkpt>
      <trkpt lat="42.83984" lon="0.50521">
        <ele>1830.674</ele>
        <time>2022-02-27T10:51:18Z</time>
      </trkpt>
      <trkpt lat="42.83984" lon="0.5052">
        <ele>1830.818</ele>
        <time>2022-02-27T10:51:20Z</time>
      </trkpt>
      <trkpt lat="42.83984" lon="0.50518">
        <ele>1831.212</ele>
        <time>2022-02-27T10:51:22Z</time>
      </trkpt>
      <trkpt lat="42.83983" lon="0.50517">
        <ele>1831.329</ele>
        <time>2022-02-27T10:51:24Z</time>
      </trkpt>
      <trkpt lat="42.83983" lon="0.50516">
        <ele>1831.389</ele>
        <time>2022-02-27T10:51:26Z</time>
      </trkpt>
      <trkpt lat="42.83982" lon="0.50515">
        <ele>1831.537</ele>
        <time>2022-02-27T10:51:28Z</time>
      </trkpt>
      <trkpt lat="42.83982" lon="0.50514">
        <ele>1831.942</ele>
        <time>2022-02-27T10:51:30Z</time>
      </trkpt>
      <trkpt lat="42.83982" lon="0.50514">
        <ele>1831.925</ele>
        <time>2022-02-27T10:51:32Z</time>
      </trkpt>
      <trkpt lat="42.83981" lon="0.50513">
        <ele>1832.516</ele>
        <time>2022-02-27T10:51:34Z</time>
      </trkpt>
      <trkpt lat="42.83981" lon="0.50513">
        <ele>1832.581</ele>
        <time>2022-02-27T10:51:36Z</time>
      </trkpt>
      <trkpt lat="42.83982" lon="0.50513">
        <ele>1832.875</ele>
        <time>2022-02-27T10:51:38Z</time>
      </trkpt>
      <trkpt lat="42.83982" lon="0.50513">
        <ele>1833.026</ele>
        <time>2022-02-27T10:51:40Z</time>
      </trkpt>
      <trkpt lat="42.83982" lon="0.50513">
        <ele>1833.021</ele>
        <time>2022-02-27T10:51:42Z</time>
      </trkpt>
      <trkpt lat="42.83982" lon="0.50513">
        <ele>1833.014</ele>
        <time>2022-02-27T10:51:44Z</time>
      </trkpt>
      <trkpt lat="42.83982" lon="0.50513">
        <ele>1833.009</ele>
        <time>2022-02-27T10:51:46Z</time>
      </trkpt>
      <trkpt lat="42.83982" lon="0.50513">
        <ele>1833</ele>
        <time>2022-02-27T10:51:48Z</time>
      </trkpt>
      <trkpt lat="42.83982" lon="0.50513">
        <ele>1832.996</ele>
        <time>2022-02-27T10:51:50Z</time>
      </trkpt>
      <trkpt lat="42.83982" lon="0.50513">
        <ele>1832.996</ele>
        <time>2022-02-27T10:51:52Z</time>
      </trkpt>
      <trkpt lat="42.83982" lon="0.50512">
        <ele>1832.253</ele>
        <time>2022-02-27T10:51:54Z</time>
      </trkpt>
      <trkpt lat="42.83981" lon="0.50511">
        <ele>1832.478</ele>
        <time>2022-02-27T10:51:56Z</time>
      </trkpt>
      <trkpt lat="42.8398" lon="0.5051">
        <ele>1833.548</ele>
        <time>2022-02-27T10:51:58Z</time>
      </trkpt>
      <trkpt lat="42.8398" lon="0.5051">
        <ele>1833.098</ele>
        <time>2022-02-27T10:52:00Z</time>
      </trkpt>
      <trkpt lat="42.83979" lon="0.50509">
        <ele>1833.984</ele>
        <time>2022-02-27T10:52:02Z</time>
      </trkpt>
      <trkpt lat="42.83978" lon="0.50509">
        <ele>1834.383</ele>
        <time>2022-02-27T10:52:04Z</time>
      </trkpt>
      <trkpt lat="42.83977" lon="0.50508">
        <ele>1834.708</ele>
        <time>2022-02-27T10:52:06Z</time>
      </trkpt>
      <trkpt lat="42.83977" lon="0.50507">
        <ele>1834.969</ele>
        <time>2022-02-27T10:52:08Z</time>
      </trkpt>
      <trkpt lat="42.83976" lon="0.50507">
        <ele>1834.244</ele>
        <time>2022-02-27T10:52:10Z</time>
      </trkpt>
      <trkpt lat="42.83976" lon="0.50506">
        <ele>1834.662</ele>
        <time>2022-02-27T10:52:12Z</time>
      </trkpt>
      <trkpt lat="42.83975" lon="0.50505">
        <ele>1835.125</ele>
        <time>2022-02-27T10:52:14Z</time>
      </trkpt>
      <trkpt lat="42.83974" lon="0.50504">
        <ele>1835.034</ele>
        <time>2022-02-27T10:52:16Z</time>
      </trkpt>
      <trkpt lat="42.83974" lon="0.50504">
        <ele>1835.055</ele>
        <time>2022-02-27T10:52:18Z</time>
      </trkpt>
      <trkpt lat="42.83973" lon="0.50503">
        <ele>1834.982</ele>
        <time>2022-02-27T10:52:20Z</time>
      </trkpt>
      <trkpt lat="42.83974" lon="0.50503">
        <ele>1834.98</ele>
        <time>2022-02-27T10:52:22Z</time>
      </trkpt>
      <trkpt lat="42.83974" lon="0.50503">
        <ele>1834.983</ele>
        <time>2022-02-27T10:52:24Z</time>
      </trkpt>
      <trkpt lat="42.83974" lon="0.50503">
        <ele>1834.982</ele>
        <time>2022-02-27T10:52:26Z</time>
      </trkpt>
      <trkpt lat="42.83974" lon="0.50503">
        <ele>1834.984</ele>
        <time>2022-02-27T10:52:28Z</time>
      </trkpt>
      <trkpt lat="42.83974" lon="0.50503">
        <ele>1834.987</ele>
        <time>2022-02-27T10:52:30Z</time>
      </trkpt>
      <trkpt lat="42.83973" lon="0.50503">
        <ele>1835.036</ele>
        <time>2022-02-27T10:52:32Z</time>
      </trkpt>
      <trkpt lat="42.83972" lon="0.50502">
        <ele>1835.332</ele>
        <time>2022-02-27T10:52:34Z</time>
      </trkpt>
      <trkpt lat="42.83971" lon="0.50502">
        <ele>1835.355</ele>
        <time>2022-02-27T10:52:36Z</time>
      </trkpt>
      <trkpt lat="42.8397" lon="0.50502">
        <ele>1835.877</ele>
        <time>2022-02-27T10:52:38Z</time>
      </trkpt>
      <trkpt lat="42.83969" lon="0.50501">
        <ele>1836.591</ele>
        <time>2022-02-27T10:52:40Z</time>
      </trkpt>
      <trkpt lat="42.83969" lon="0.50501">
        <ele>1836.598</ele>
        <time>2022-02-27T10:52:42Z</time>
      </trkpt>
      <trkpt lat="42.83969" lon="0.50501">
        <ele>1836.7</ele>
        <time>2022-02-27T10:52:44Z</time>
      </trkpt>
      <trkpt lat="42.83969" lon="0.50502">
        <ele>1836.726</ele>
        <time>2022-02-27T10:52:46Z</time>
      </trkpt>
      <trkpt lat="42.83968" lon="0.50502">
        <ele>1837.582</ele>
        <time>2022-02-27T10:52:48Z</time>
      </trkpt>
      <trkpt lat="42.83967" lon="0.50503">
        <ele>1837.938</ele>
        <time>2022-02-27T10:52:50Z</time>
      </trkpt>
      <trkpt lat="42.83967" lon="0.50503">
        <ele>1838.275</ele>
        <time>2022-02-27T10:52:52Z</time>
      </trkpt>
      <trkpt lat="42.83966" lon="0.50502">
        <ele>1839.008</ele>
        <time>2022-02-27T10:52:54Z</time>
      </trkpt>
      <trkpt lat="42.83966" lon="0.50502">
        <ele>1839.737</ele>
        <time>2022-02-27T10:52:56Z</time>
      </trkpt>
      <trkpt lat="42.83965" lon="0.50501">
        <ele>1840.164</ele>
        <time>2022-02-27T10:52:58Z</time>
      </trkpt>
      <trkpt lat="42.83964" lon="0.505">
        <ele>1839.791</ele>
        <time>2022-02-27T10:53:00Z</time>
      </trkpt>
      <trkpt lat="42.83963" lon="0.505">
        <ele>1839.647</ele>
        <time>2022-02-27T10:53:02Z</time>
      </trkpt>
      <trkpt lat="42.83963" lon="0.50499">
        <ele>1840.418</ele>
        <time>2022-02-27T10:53:04Z</time>
      </trkpt>
      <trkpt lat="42.83962" lon="0.50499">
        <ele>1840.084</ele>
        <time>2022-02-27T10:53:06Z</time>
      </trkpt>
      <trkpt lat="42.83962" lon="0.50499">
        <ele>1840.614</ele>
        <time>2022-02-27T10:53:08Z</time>
      </trkpt>
      <trkpt lat="42.83961" lon="0.50498">
        <ele>1841.345</ele>
        <time>2022-02-27T10:53:10Z</time>
      </trkpt>
      <trkpt lat="42.83961" lon="0.50497">
        <ele>1842.017</ele>
        <time>2022-02-27T10:53:12Z</time>
      </trkpt>
      <trkpt lat="42.8396" lon="0.50496">
        <ele>1841.974</ele>
        <time>2022-02-27T10:53:14Z</time>
      </trkpt>
      <trkpt lat="42.8396" lon="0.50494">
        <ele>1842.195</ele>
        <time>2022-02-27T10:53:16Z</time>
      </trkpt>
      <trkpt lat="42.83959" lon="0.50494">
        <ele>1842.931</ele>
        <time>2022-02-27T10:53:18Z</time>
      </trkpt>
      <trkpt lat="42.83959" lon="0.50493">
        <ele>1843.189</ele>
        <time>2022-02-27T10:53:20Z</time>
      </trkpt>
      <trkpt lat="42.83959" lon="0.50494">
        <ele>1843.252</ele>
        <time>2022-02-27T10:53:22Z</time>
      </trkpt>
      <trkpt lat="42.83958" lon="0.50493">
        <ele>1843.138</ele>
        <time>2022-02-27T10:53:24Z</time>
      </trkpt>
      <trkpt lat="42.83958" lon="0.50493">
        <ele>1843.143</ele>
        <time>2022-02-27T10:53:26Z</time>
      </trkpt>
      <trkpt lat="42.83958" lon="0.50493">
        <ele>1843.16</ele>
        <time>2022-02-27T10:53:28Z</time>
      </trkpt>
      <trkpt lat="42.83959" lon="0.50493">
        <ele>1843.162</ele>
        <time>2022-02-27T10:53:30Z</time>
      </trkpt>
      <trkpt lat="42.83958" lon="0.50493">
        <ele>1843.1</ele>
        <time>2022-02-27T10:53:32Z</time>
      </trkpt>
      <trkpt lat="42.83958" lon="0.50494">
        <ele>1843.089</ele>
        <time>2022-02-27T10:53:34Z</time>
      </trkpt>
      <trkpt lat="42.83958" lon="0.50494">
        <ele>1843.085</ele>
        <time>2022-02-27T10:53:36Z</time>
      </trkpt>
      <trkpt lat="42.83958" lon="0.50494">
        <ele>1843.089</ele>
        <time>2022-02-27T10:53:38Z</time>
      </trkpt>
      <trkpt lat="42.83958" lon="0.50494">
        <ele>1843.09</ele>
        <time>2022-02-27T10:53:40Z</time>
      </trkpt>
      <trkpt lat="42.83958" lon="0.50494">
        <ele>1843.084</ele>
        <time>2022-02-27T10:53:42Z</time>
      </trkpt>
      <trkpt lat="42.83958" lon="0.50494">
        <ele>1843.089</ele>
        <time>2022-02-27T10:53:44Z</time>
      </trkpt>
      <trkpt lat="42.83958" lon="0.50494">
        <ele>1843.095</ele>
        <time>2022-02-27T10:53:46Z</time>
      </trkpt>
      <trkpt lat="42.83958" lon="0.50494">
        <ele>1843.098</ele>
        <time>2022-02-27T10:53:48Z</time>
      </trkpt>
      <trkpt lat="42.83958" lon="0.50494">
        <ele>1843.1</ele>
        <time>2022-02-27T10:53:50Z</time>
      </trkpt>
      <trkpt lat="42.83958" lon="0.50494">
        <ele>1843.099</ele>
        <time>2022-02-27T10:53:52Z</time>
      </trkpt>
      <trkpt lat="42.83958" lon="0.50494">
        <ele>1843.1</ele>
        <time>2022-02-27T10:53:54Z</time>
      </trkpt>
      <trkpt lat="42.83958" lon="0.50493">
        <ele>1844.562</ele>
        <time>2022-02-27T10:53:56Z</time>
      </trkpt>
      <trkpt lat="42.83957" lon="0.50492">
        <ele>1845.158</ele>
        <time>2022-02-27T10:53:58Z</time>
      </trkpt>
      <trkpt lat="42.83957" lon="0.50491">
        <ele>1845.648</ele>
        <time>2022-02-27T10:54:00Z</time>
      </trkpt>
      <trkpt lat="42.83956" lon="0.50491">
        <ele>1846.096</ele>
        <time>2022-02-27T10:54:02Z</time>
      </trkpt>
      <trkpt lat="42.83956" lon="0.50491">
        <ele>1846.609</ele>
        <time>2022-02-27T10:54:04Z</time>
      </trkpt>
      <trkpt lat="42.83956" lon="0.50491">
        <ele>1846.474</ele>
        <time>2022-02-27T10:54:06Z</time>
      </trkpt>
      <trkpt lat="42.83956" lon="0.50491">
        <ele>1846.469</ele>
        <time>2022-02-27T10:54:08Z</time>
      </trkpt>
      <trkpt lat="42.83956" lon="0.50491">
        <ele>1846.468</ele>
        <time>2022-02-27T10:54:10Z</time>
      </trkpt>
      <trkpt lat="42.83956" lon="0.50491">
        <ele>1846.466</ele>
        <time>2022-02-27T10:54:12Z</time>
      </trkpt>
      <trkpt lat="42.83956" lon="0.50491">
        <ele>1846.575</ele>
        <time>2022-02-27T10:54:14Z</time>
      </trkpt>
      <trkpt lat="42.83956" lon="0.50491">
        <ele>1846.58</ele>
        <time>2022-02-27T10:54:16Z</time>
      </trkpt>
      <trkpt lat="42.83956" lon="0.50491">
        <ele>1846.581</ele>
        <time>2022-02-27T10:54:18Z</time>
      </trkpt>
      <trkpt lat="42.83956" lon="0.50491">
        <ele>1846.465</ele>
        <time>2022-02-27T10:54:20Z</time>
      </trkpt>
      <trkpt lat="42.83956" lon="0.50491">
        <ele>1846.423</ele>
        <time>2022-02-27T10:54:22Z</time>
      </trkpt>
      <trkpt lat="42.83956" lon="0.50491">
        <ele>1846.458</ele>
        <time>2022-02-27T10:54:24Z</time>
      </trkpt>
      <trkpt lat="42.83955" lon="0.5049">
        <ele>1847.012</ele>
        <time>2022-02-27T10:54:26Z</time>
      </trkpt>
      <trkpt lat="42.83954" lon="0.50489">
        <ele>1847.503</ele>
        <time>2022-02-27T10:54:28Z</time>
      </trkpt>
      <trkpt lat="42.83953" lon="0.50488">
        <ele>1848.032</ele>
        <time>2022-02-27T10:54:30Z</time>
      </trkpt>
      <trkpt lat="42.83954" lon="0.50489">
        <ele>1847.199</ele>
        <time>2022-02-27T10:54:32Z</time>
      </trkpt>
      <trkpt lat="42.83952" lon="0.50489">
        <ele>1847.356</ele>
        <time>2022-02-27T10:54:34Z</time>
      </trkpt>
      <trkpt lat="42.83952" lon="0.50488">
        <ele>1847.503</ele>
        <time>2022-02-27T10:54:36Z</time>
      </trkpt>
      <trkpt lat="42.83951" lon="0.50487">
        <ele>1848.513</ele>
        <time>2022-02-27T10:54:38Z</time>
      </trkpt>
      <trkpt lat="42.83951" lon="0.50487">
        <ele>1848.422</ele>
        <time>2022-02-27T10:54:40Z</time>
      </trkpt>
      <trkpt lat="42.8395" lon="0.50486">
        <ele>1848.494</ele>
        <time>2022-02-27T10:54:42Z</time>
      </trkpt>
      <trkpt lat="42.83949" lon="0.50486">
        <ele>1848.739</ele>
        <time>2022-02-27T10:54:44Z</time>
      </trkpt>
      <trkpt lat="42.83948" lon="0.50486">
        <ele>1849.266</ele>
        <time>2022-02-27T10:54:46Z</time>
      </trkpt>
      <trkpt lat="42.83947" lon="0.50486">
        <ele>1849.309</ele>
        <time>2022-02-27T10:54:48Z</time>
      </trkpt>
      <trkpt lat="42.83947" lon="0.50486">
        <ele>1849.597</ele>
        <time>2022-02-27T10:54:50Z</time>
      </trkpt>
      <trkpt lat="42.83946" lon="0.50486">
        <ele>1849.267</ele>
        <time>2022-02-27T10:54:52Z</time>
      </trkpt>
      <trkpt lat="42.83945" lon="0.50486">
        <ele>1849.732</ele>
        <time>2022-02-27T10:54:54Z</time>
      </trkpt>
      <trkpt lat="42.83944" lon="0.50486">
        <ele>1849.751</ele>
        <time>2022-02-27T10:54:56Z</time>
      </trkpt>
      <trkpt lat="42.83944" lon="0.50486">
        <ele>1850.135</ele>
        <time>2022-02-27T10:54:58Z</time>
      </trkpt>
      <trkpt lat="42.83943" lon="0.50485">
        <ele>1849.959</ele>
        <time>2022-02-27T10:55:00Z</time>
      </trkpt>
      <trkpt lat="42.83943" lon="0.50484">
        <ele>1850.819</ele>
        <time>2022-02-27T10:55:02Z</time>
      </trkpt>
      <trkpt lat="42.83943" lon="0.50483">
        <ele>1851.111</ele>
        <time>2022-02-27T10:55:04Z</time>
      </trkpt>
      <trkpt lat="42.83942" lon="0.50482">
        <ele>1851.117</ele>
        <time>2022-02-27T10:55:06Z</time>
      </trkpt>
      <trkpt lat="42.83942" lon="0.50481">
        <ele>1850.992</ele>
        <time>2022-02-27T10:55:08Z</time>
      </trkpt>
      <trkpt lat="42.83942" lon="0.50481">
        <ele>1851.498</ele>
        <time>2022-02-27T10:55:10Z</time>
      </trkpt>
      <trkpt lat="42.83941" lon="0.5048">
        <ele>1851.974</ele>
        <time>2022-02-27T10:55:12Z</time>
      </trkpt>
      <trkpt lat="42.83941" lon="0.5048">
        <ele>1852.914</ele>
        <time>2022-02-27T10:55:14Z</time>
      </trkpt>
      <trkpt lat="42.83942" lon="0.5048">
        <ele>1852.911</ele>
        <time>2022-02-27T10:55:16Z</time>
      </trkpt>
      <trkpt lat="42.83942" lon="0.5048">
        <ele>1852.912</ele>
        <time>2022-02-27T10:55:18Z</time>
      </trkpt>
      <trkpt lat="42.83942" lon="0.5048">
        <ele>1853.351</ele>
        <time>2022-02-27T10:55:20Z</time>
      </trkpt>
      <trkpt lat="42.83941" lon="0.50479">
        <ele>1854.089</ele>
        <time>2022-02-27T10:55:22Z</time>
      </trkpt>
      <trkpt lat="42.83941" lon="0.50479">
        <ele>1853.947</ele>
        <time>2022-02-27T10:55:24Z</time>
      </trkpt>
      <trkpt lat="42.83941" lon="0.50479">
        <ele>1853.948</ele>
        <time>2022-02-27T10:55:26Z</time>
      </trkpt>
      <trkpt lat="42.8394" lon="0.50479">
        <ele>1853.928</ele>
        <time>2022-02-27T10:55:28Z</time>
      </trkpt>
      <trkpt lat="42.8394" lon="0.50478">
        <ele>1855.126</ele>
        <time>2022-02-27T10:55:30Z</time>
      </trkpt>
      <trkpt lat="42.83939" lon="0.50478">
        <ele>1855.566</ele>
        <time>2022-02-27T10:55:32Z</time>
      </trkpt>
      <trkpt lat="42.83938" lon="0.50477">
        <ele>1856.096</ele>
        <time>2022-02-27T10:55:34Z</time>
      </trkpt>
      <trkpt lat="42.83937" lon="0.50477">
        <ele>1855.644</ele>
        <time>2022-02-27T10:55:36Z</time>
      </trkpt>
      <trkpt lat="42.83936" lon="0.50476">
        <ele>1855.954</ele>
        <time>2022-02-27T10:55:38Z</time>
      </trkpt>
      <trkpt lat="42.83935" lon="0.50475">
        <ele>1856.123</ele>
        <time>2022-02-27T10:55:40Z</time>
      </trkpt>
      <trkpt lat="42.83934" lon="0.50475">
        <ele>1856.546</ele>
        <time>2022-02-27T10:55:42Z</time>
      </trkpt>
      <trkpt lat="42.83934" lon="0.50475">
        <ele>1856.464</ele>
        <time>2022-02-27T10:55:44Z</time>
      </trkpt>
      <trkpt lat="42.83934" lon="0.50475">
        <ele>1856.462</ele>
        <time>2022-02-27T10:55:46Z</time>
      </trkpt>
      <trkpt lat="42.83934" lon="0.50475">
        <ele>1856.477</ele>
        <time>2022-02-27T10:55:48Z</time>
      </trkpt>
      <trkpt lat="42.83934" lon="0.50475">
        <ele>1856.489</ele>
        <time>2022-02-27T10:55:50Z</time>
      </trkpt>
      <trkpt lat="42.83934" lon="0.50475">
        <ele>1856.504</ele>
        <time>2022-02-27T10:55:52Z</time>
      </trkpt>
      <trkpt lat="42.83934" lon="0.50475">
        <ele>1856.504</ele>
        <time>2022-02-27T10:55:54Z</time>
      </trkpt>
      <trkpt lat="42.83934" lon="0.50475">
        <ele>1856.497</ele>
        <time>2022-02-27T10:55:56Z</time>
      </trkpt>
      <trkpt lat="42.83934" lon="0.50474">
        <ele>1856.787</ele>
        <time>2022-02-27T10:55:58Z</time>
      </trkpt>
      <trkpt lat="42.83934" lon="0.50474">
        <ele>1856.678</ele>
        <time>2022-02-27T10:56:00Z</time>
      </trkpt>
      <trkpt lat="42.83933" lon="0.50473">
        <ele>1857.456</ele>
        <time>2022-02-27T10:56:02Z</time>
      </trkpt>
      <trkpt lat="42.83932" lon="0.50472">
        <ele>1857.778</ele>
        <time>2022-02-27T10:56:04Z</time>
      </trkpt>
      <trkpt lat="42.83932" lon="0.50471">
        <ele>1857.723</ele>
        <time>2022-02-27T10:56:06Z</time>
      </trkpt>
      <trkpt lat="42.83931" lon="0.5047">
        <ele>1857.936</ele>
        <time>2022-02-27T10:56:08Z</time>
      </trkpt>
      <trkpt lat="42.8393" lon="0.50469">
        <ele>1857.451</ele>
        <time>2022-02-27T10:56:10Z</time>
      </trkpt>
      <trkpt lat="42.83929" lon="0.50469">
        <ele>1857.135</ele>
        <time>2022-02-27T10:56:12Z</time>
      </trkpt>
      <trkpt lat="42.83928" lon="0.50468">
        <ele>1858.106</ele>
        <time>2022-02-27T10:56:14Z</time>
      </trkpt>
      <trkpt lat="42.83928" lon="0.50467">
        <ele>1859.466</ele>
        <time>2022-02-27T10:56:16Z</time>
      </trkpt>
      <trkpt lat="42.83927" lon="0.50466">
        <ele>1859.155</ele>
        <time>2022-02-27T10:56:18Z</time>
      </trkpt>
      <trkpt lat="42.83927" lon="0.50465">
        <ele>1859.055</ele>
        <time>2022-02-27T10:56:20Z</time>
      </trkpt>
      <trkpt lat="42.83926" lon="0.50464">
        <ele>1858.865</ele>
        <time>2022-02-27T10:56:22Z</time>
      </trkpt>
      <trkpt lat="42.83925" lon="0.50464">
        <ele>1859.348</ele>
        <time>2022-02-27T10:56:24Z</time>
      </trkpt>
      <trkpt lat="42.83924" lon="0.50463">
        <ele>1860.033</ele>
        <time>2022-02-27T10:56:26Z</time>
      </trkpt>
      <trkpt lat="42.83924" lon="0.50462">
        <ele>1860.909</ele>
        <time>2022-02-27T10:56:28Z</time>
      </trkpt>
      <trkpt lat="42.83924" lon="0.50461">
        <ele>1861.106</ele>
        <time>2022-02-27T10:56:30Z</time>
      </trkpt>
      <trkpt lat="42.83923" lon="0.5046">
        <ele>1861.295</ele>
        <time>2022-02-27T10:56:32Z</time>
      </trkpt>
      <trkpt lat="42.83922" lon="0.50459">
        <ele>1861.943</ele>
        <time>2022-02-27T10:56:34Z</time>
      </trkpt>
      <trkpt lat="42.83922" lon="0.50459">
        <ele>1862.469</ele>
        <time>2022-02-27T10:56:36Z</time>
      </trkpt>
      <trkpt lat="42.83921" lon="0.50458">
        <ele>1863.173</ele>
        <time>2022-02-27T10:56:38Z</time>
      </trkpt>
      <trkpt lat="42.83921" lon="0.50457">
        <ele>1864.005</ele>
        <time>2022-02-27T10:56:40Z</time>
      </trkpt>
      <trkpt lat="42.8392" lon="0.50457">
        <ele>1863.852</ele>
        <time>2022-02-27T10:56:42Z</time>
      </trkpt>
      <trkpt lat="42.83919" lon="0.50456">
        <ele>1863.984</ele>
        <time>2022-02-27T10:56:44Z</time>
      </trkpt>
      <trkpt lat="42.83919" lon="0.50456">
        <ele>1863.648</ele>
        <time>2022-02-27T10:56:46Z</time>
      </trkpt>
      <trkpt lat="42.83919" lon="0.50456">
        <ele>1863.643</ele>
        <time>2022-02-27T10:56:48Z</time>
      </trkpt>
      <trkpt lat="42.83919" lon="0.50456">
        <ele>1863.636</ele>
        <time>2022-02-27T10:56:50Z</time>
      </trkpt>
      <trkpt lat="42.83919" lon="0.50456">
        <ele>1863.629</ele>
        <time>2022-02-27T10:56:52Z</time>
      </trkpt>
      <trkpt lat="42.83919" lon="0.50456">
        <ele>1863.631</ele>
        <time>2022-02-27T10:56:54Z</time>
      </trkpt>
      <trkpt lat="42.83918" lon="0.50456">
        <ele>1863.474</ele>
        <time>2022-02-27T10:56:56Z</time>
      </trkpt>
      <trkpt lat="42.83918" lon="0.50456">
        <ele>1864.338</ele>
        <time>2022-02-27T10:56:58Z</time>
      </trkpt>
      <trkpt lat="42.83917" lon="0.50455">
        <ele>1864.846</ele>
        <time>2022-02-27T10:57:00Z</time>
      </trkpt>
      <trkpt lat="42.83916" lon="0.50453">
        <ele>1864.838</ele>
        <time>2022-02-27T10:57:02Z</time>
      </trkpt>
      <trkpt lat="42.83916" lon="0.50452">
        <ele>1865.01</ele>
        <time>2022-02-27T10:57:04Z</time>
      </trkpt>
      <trkpt lat="42.83915" lon="0.50451">
        <ele>1865.098</ele>
        <time>2022-02-27T10:57:06Z</time>
      </trkpt>
      <trkpt lat="42.83914" lon="0.5045">
        <ele>1865.313</ele>
        <time>2022-02-27T10:57:08Z</time>
      </trkpt>
      <trkpt lat="42.83914" lon="0.50449">
        <ele>1866.446</ele>
        <time>2022-02-27T10:57:10Z</time>
      </trkpt>
      <trkpt lat="42.83914" lon="0.50448">
        <ele>1867.465</ele>
        <time>2022-02-27T10:57:12Z</time>
      </trkpt>
      <trkpt lat="42.83914" lon="0.50448">
        <ele>1867.719</ele>
        <time>2022-02-27T10:57:14Z</time>
      </trkpt>
      <trkpt lat="42.83913" lon="0.50448">
        <ele>1867.596</ele>
        <time>2022-02-27T10:57:16Z</time>
      </trkpt>
      <trkpt lat="42.83911" lon="0.50447">
        <ele>1867.725</ele>
        <time>2022-02-27T10:57:18Z</time>
      </trkpt>
      <trkpt lat="42.8391" lon="0.50447">
        <ele>1867.574</ele>
        <time>2022-02-27T10:57:20Z</time>
      </trkpt>
      <trkpt lat="42.8391" lon="0.50447">
        <ele>1867.371</ele>
        <time>2022-02-27T10:57:22Z</time>
      </trkpt>
      <trkpt lat="42.83909" lon="0.50447">
        <ele>1867.605</ele>
        <time>2022-02-27T10:57:24Z</time>
      </trkpt>
      <trkpt lat="42.83908" lon="0.50446">
        <ele>1867.774</ele>
        <time>2022-02-27T10:57:26Z</time>
      </trkpt>
      <trkpt lat="42.83908" lon="0.50445">
        <ele>1867.86</ele>
        <time>2022-02-27T10:57:28Z</time>
      </trkpt>
      <trkpt lat="42.83907" lon="0.50445">
        <ele>1867.879</ele>
        <time>2022-02-27T10:57:30Z</time>
      </trkpt>
      <trkpt lat="42.83907" lon="0.50445">
        <ele>1868.023</ele>
        <time>2022-02-27T10:57:32Z</time>
      </trkpt>
      <trkpt lat="42.83907" lon="0.50446">
        <ele>1867.728</ele>
        <time>2022-02-27T10:57:34Z</time>
      </trkpt>
      <trkpt lat="42.83907" lon="0.50446">
        <ele>1868.391</ele>
        <time>2022-02-27T10:57:36Z</time>
      </trkpt>
      <trkpt lat="42.83906" lon="0.50446">
        <ele>1869.081</ele>
        <time>2022-02-27T10:57:38Z</time>
      </trkpt>
      <trkpt lat="42.83905" lon="0.50446">
        <ele>1869.622</ele>
        <time>2022-02-27T10:57:40Z</time>
      </trkpt>
      <trkpt lat="42.83904" lon="0.50445">
        <ele>1869.504</ele>
        <time>2022-02-27T10:57:42Z</time>
      </trkpt>
      <trkpt lat="42.83904" lon="0.50445">
        <ele>1869.469</ele>
        <time>2022-02-27T10:57:44Z</time>
      </trkpt>
      <trkpt lat="42.83904" lon="0.50445">
        <ele>1869.453</ele>
        <time>2022-02-27T10:57:46Z</time>
      </trkpt>
      <trkpt lat="42.83904" lon="0.50445">
        <ele>1869.428</ele>
        <time>2022-02-27T10:57:48Z</time>
      </trkpt>
      <trkpt lat="42.83904" lon="0.50445">
        <ele>1869.42</ele>
        <time>2022-02-27T10:57:50Z</time>
      </trkpt>
      <trkpt lat="42.83904" lon="0.50445">
        <ele>1869.482</ele>
        <time>2022-02-27T10:57:52Z</time>
      </trkpt>
      <trkpt lat="42.83903" lon="0.50444">
        <ele>1869.346</ele>
        <time>2022-02-27T10:57:54Z</time>
      </trkpt>
      <trkpt lat="42.83903" lon="0.50443">
        <ele>1869.955</ele>
        <time>2022-02-27T10:57:56Z</time>
      </trkpt>
      <trkpt lat="42.83904" lon="0.50443">
        <ele>1869.687</ele>
        <time>2022-02-27T10:57:58Z</time>
      </trkpt>
      <trkpt lat="42.83904" lon="0.50443">
        <ele>1869.654</ele>
        <time>2022-02-27T10:58:00Z</time>
      </trkpt>
      <trkpt lat="42.83904" lon="0.50443">
        <ele>1869.658</ele>
        <time>2022-02-27T10:58:02Z</time>
      </trkpt>
      <trkpt lat="42.83904" lon="0.50443">
        <ele>1869.652</ele>
        <time>2022-02-27T10:58:04Z</time>
      </trkpt>
      <trkpt lat="42.83904" lon="0.50443">
        <ele>1869.319</ele>
        <time>2022-02-27T10:58:06Z</time>
      </trkpt>
      <trkpt lat="42.83904" lon="0.50443">
        <ele>1869.305</ele>
        <time>2022-02-27T10:58:08Z</time>
      </trkpt>
      <trkpt lat="42.83904" lon="0.50443">
        <ele>1869.272</ele>
        <time>2022-02-27T10:58:10Z</time>
      </trkpt>
      <trkpt lat="42.83904" lon="0.50443">
        <ele>1869.286</ele>
        <time>2022-02-27T10:58:12Z</time>
      </trkpt>
      <trkpt lat="42.83904" lon="0.50443">
        <ele>1869.295</ele>
        <time>2022-02-27T10:58:14Z</time>
      </trkpt>
      <trkpt lat="42.83904" lon="0.50443">
        <ele>1869.299</ele>
        <time>2022-02-27T10:58:16Z</time>
      </trkpt>
      <trkpt lat="42.83904" lon="0.50443">
        <ele>1869.29</ele>
        <time>2022-02-27T10:58:18Z</time>
      </trkpt>
      <trkpt lat="42.83904" lon="0.50443">
        <ele>1869.274</ele>
        <time>2022-02-27T10:58:20Z</time>
      </trkpt>
      <trkpt lat="42.83904" lon="0.50443">
        <ele>1869.274</ele>
        <time>2022-02-27T10:58:22Z</time>
      </trkpt>
      <trkpt lat="42.83904" lon="0.50443">
        <ele>1869.278</ele>
        <time>2022-02-27T10:58:24Z</time>
      </trkpt>
      <trkpt lat="42.83904" lon="0.50443">
        <ele>1869.281</ele>
        <time>2022-02-27T10:58:26Z</time>
      </trkpt>
      <trkpt lat="42.83904" lon="0.50443">
        <ele>1869.279</ele>
        <time>2022-02-27T10:58:28Z</time>
      </trkpt>
      <trkpt lat="42.83904" lon="0.50443">
        <ele>1869.261</ele>
        <time>2022-02-27T10:58:30Z</time>
      </trkpt>
      <trkpt lat="42.83904" lon="0.50443">
        <ele>1869.257</ele>
        <time>2022-02-27T10:58:32Z</time>
      </trkpt>
      <trkpt lat="42.83904" lon="0.50442">
        <ele>1869.077</ele>
        <time>2022-02-27T10:58:34Z</time>
      </trkpt>
      <trkpt lat="42.83904" lon="0.50441">
        <ele>1871.063</ele>
        <time>2022-02-27T10:58:36Z</time>
      </trkpt>
      <trkpt lat="42.83903" lon="0.5044">
        <ele>1871.431</ele>
        <time>2022-02-27T10:58:38Z</time>
      </trkpt>
      <trkpt lat="42.83902" lon="0.5044">
        <ele>1871.342</ele>
        <time>2022-02-27T10:58:40Z</time>
      </trkpt>
      <trkpt lat="42.83902" lon="0.50441">
        <ele>1870.882</ele>
        <time>2022-02-27T10:58:42Z</time>
      </trkpt>
      <trkpt lat="42.83902" lon="0.50441">
        <ele>1870.879</ele>
        <time>2022-02-27T10:58:44Z</time>
      </trkpt>
      <trkpt lat="42.83902" lon="0.50441">
        <ele>1870.865</ele>
        <time>2022-02-27T10:58:46Z</time>
      </trkpt>
      <trkpt lat="42.83901" lon="0.50441">
        <ele>1870.362</ele>
        <time>2022-02-27T10:58:48Z</time>
      </trkpt>
      <trkpt lat="42.839" lon="0.5044">
        <ele>1870.565</ele>
        <time>2022-02-27T10:58:50Z</time>
      </trkpt>
      <trkpt lat="42.839" lon="0.50439">
        <ele>1870.979</ele>
        <time>2022-02-27T10:58:52Z</time>
      </trkpt>
      <trkpt lat="42.83899" lon="0.50438">
        <ele>1871.157</ele>
        <time>2022-02-27T10:58:54Z</time>
      </trkpt>
      <trkpt lat="42.83898" lon="0.50438">
        <ele>1870.159</ele>
        <time>2022-02-27T10:58:56Z</time>
      </trkpt>
      <trkpt lat="42.83897" lon="0.50438">
        <ele>1869.916</ele>
        <time>2022-02-27T10:58:58Z</time>
      </trkpt>
      <trkpt lat="42.83897" lon="0.50438">
        <ele>1869.857</ele>
        <time>2022-02-27T10:59:00Z</time>
      </trkpt>
      <trkpt lat="42.83897" lon="0.50437">
        <ele>1870.141</ele>
        <time>2022-02-27T10:59:02Z</time>
      </trkpt>
      <trkpt lat="42.83896" lon="0.50436">
        <ele>1870.384</ele>
        <time>2022-02-27T10:59:04Z</time>
      </trkpt>
      <trkpt lat="42.83896" lon="0.50435">
        <ele>1870.681</ele>
        <time>2022-02-27T10:59:06Z</time>
      </trkpt>
      <trkpt lat="42.83896" lon="0.50435">
        <ele>1869.812</ele>
        <time>2022-02-27T10:59:08Z</time>
      </trkpt>
      <trkpt lat="42.83896" lon="0.50435">
        <ele>1869.809</ele>
        <time>2022-02-27T10:59:10Z</time>
      </trkpt>
      <trkpt lat="42.83896" lon="0.50435">
        <ele>1869.817</ele>
        <time>2022-02-27T10:59:12Z</time>
      </trkpt>
      <trkpt lat="42.83896" lon="0.50435">
        <ele>1869.83</ele>
        <time>2022-02-27T10:59:14Z</time>
      </trkpt>
      <trkpt lat="42.83896" lon="0.50435">
        <ele>1869.842</ele>
        <time>2022-02-27T10:59:16Z</time>
      </trkpt>
      <trkpt lat="42.83896" lon="0.50435">
        <ele>1869.849</ele>
        <time>2022-02-27T10:59:18Z</time>
      </trkpt>
      <trkpt lat="42.83896" lon="0.50435">
        <ele>1869.825</ele>
        <time>2022-02-27T10:59:20Z</time>
      </trkpt>
      <trkpt lat="42.83895" lon="0.50435">
        <ele>1869.78</ele>
        <time>2022-02-27T10:59:22Z</time>
      </trkpt>
      <trkpt lat="42.83895" lon="0.50434">
        <ele>1870.075</ele>
        <time>2022-02-27T10:59:24Z</time>
      </trkpt>
      <trkpt lat="42.83895" lon="0.50434">
        <ele>1870.317</ele>
        <time>2022-02-27T10:59:26Z</time>
      </trkpt>
      <trkpt lat="42.83895" lon="0.50433">
        <ele>1870.759</ele>
        <time>2022-02-27T10:59:28Z</time>
      </trkpt>
      <trkpt lat="42.83894" lon="0.50432">
        <ele>1870.155</ele>
        <time>2022-02-27T10:59:30Z</time>
      </trkpt>
      <trkpt lat="42.83893" lon="0.50431">
        <ele>1870.397</ele>
        <time>2022-02-27T10:59:32Z</time>
      </trkpt>
      <trkpt lat="42.83892" lon="0.50431">
        <ele>1870.471</ele>
        <time>2022-02-27T10:59:34Z</time>
      </trkpt>
      <trkpt lat="42.83891" lon="0.5043">
        <ele>1870.847</ele>
        <time>2022-02-27T10:59:36Z</time>
      </trkpt>
      <trkpt lat="42.83891" lon="0.50429">
        <ele>1871.818</ele>
        <time>2022-02-27T10:59:38Z</time>
      </trkpt>
      <trkpt lat="42.83891" lon="0.50428">
        <ele>1872.153</ele>
        <time>2022-02-27T10:59:40Z</time>
      </trkpt>
      <trkpt lat="42.83891" lon="0.50428">
        <ele>1872.156</ele>
        <time>2022-02-27T10:59:42Z</time>
      </trkpt>
      <trkpt lat="42.83891" lon="0.50428">
        <ele>1872.138</ele>
        <time>2022-02-27T10:59:44Z</time>
      </trkpt>
      <trkpt lat="42.83891" lon="0.50428">
        <ele>1872.132</ele>
        <time>2022-02-27T10:59:46Z</time>
      </trkpt>
      <trkpt lat="42.83891" lon="0.50428">
        <ele>1872.12</ele>
        <time>2022-02-27T10:59:48Z</time>
      </trkpt>
      <trkpt lat="42.83891" lon="0.50428">
        <ele>1872.118</ele>
        <time>2022-02-27T10:59:50Z</time>
      </trkpt>
      <trkpt lat="42.83891" lon="0.50428">
        <ele>1872.147</ele>
        <time>2022-02-27T10:59:52Z</time>
      </trkpt>
      <trkpt lat="42.83891" lon="0.50428">
        <ele>1872.158</ele>
        <time>2022-02-27T10:59:54Z</time>
      </trkpt>
      <trkpt lat="42.83891" lon="0.50428">
        <ele>1872.15</ele>
        <time>2022-02-27T10:59:56Z</time>
      </trkpt>
      <trkpt lat="42.83891" lon="0.50428">
        <ele>1872.15</ele>
        <time>2022-02-27T10:59:58Z</time>
      </trkpt>
      <trkpt lat="42.83891" lon="0.50428">
        <ele>1872.129</ele>
        <time>2022-02-27T11:00:00Z</time>
      </trkpt>
      <trkpt lat="42.83891" lon="0.50428">
        <ele>1872.112</ele>
        <time>2022-02-27T11:00:02Z</time>
      </trkpt>
      <trkpt lat="42.83891" lon="0.50428">
        <ele>1872.087</ele>
        <time>2022-02-27T11:00:04Z</time>
      </trkpt>
      <trkpt lat="42.83891" lon="0.50428">
        <ele>1872.078</ele>
        <time>2022-02-27T11:00:06Z</time>
      </trkpt>
      <trkpt lat="42.83891" lon="0.50428">
        <ele>1872.053</ele>
        <time>2022-02-27T11:00:08Z</time>
      </trkpt>
      <trkpt lat="42.83891" lon="0.50428">
        <ele>1872.038</ele>
        <time>2022-02-27T11:00:10Z</time>
      </trkpt>
      <trkpt lat="42.83891" lon="0.50428">
        <ele>1872.024</ele>
        <time>2022-02-27T11:00:12Z</time>
      </trkpt>
      <trkpt lat="42.83891" lon="0.50428">
        <ele>1872.01</ele>
        <time>2022-02-27T11:00:14Z</time>
      </trkpt>
      <trkpt lat="42.83891" lon="0.50428">
        <ele>1872.008</ele>
        <time>2022-02-27T11:00:16Z</time>
      </trkpt>
      <trkpt lat="42.83891" lon="0.50428">
        <ele>1871.993</ele>
        <time>2022-02-27T11:00:18Z</time>
      </trkpt>
      <trkpt lat="42.8389" lon="0.50429">
        <ele>1871.891</ele>
        <time>2022-02-27T11:00:20Z</time>
      </trkpt>
      <trkpt lat="42.8389" lon="0.50429">
        <ele>1871.889</ele>
        <time>2022-02-27T11:00:22Z</time>
      </trkpt>
      <trkpt lat="42.83891" lon="0.50429">
        <ele>1871.442</ele>
        <time>2022-02-27T11:00:24Z</time>
      </trkpt>
      <trkpt lat="42.83891" lon="0.50429">
        <ele>1871.439</ele>
        <time>2022-02-27T11:00:26Z</time>
      </trkpt>
      <trkpt lat="42.83891" lon="0.50429">
        <ele>1871.439</ele>
        <time>2022-02-27T11:00:28Z</time>
      </trkpt>
      <trkpt lat="42.8389" lon="0.50429">
        <ele>1871.439</ele>
        <time>2022-02-27T11:00:30Z</time>
      </trkpt>
      <trkpt lat="42.8389" lon="0.50429">
        <ele>1871.435</ele>
        <time>2022-02-27T11:00:32Z</time>
      </trkpt>
      <trkpt lat="42.8389" lon="0.50429">
        <ele>1871.434</ele>
        <time>2022-02-27T11:00:34Z</time>
      </trkpt>
      <trkpt lat="42.8389" lon="0.50429">
        <ele>1871.428</ele>
        <time>2022-02-27T11:00:36Z</time>
      </trkpt>
      <trkpt lat="42.8389" lon="0.50429">
        <ele>1871.423</ele>
        <time>2022-02-27T11:00:38Z</time>
      </trkpt>
      <trkpt lat="42.8389" lon="0.50429">
        <ele>1871.42</ele>
        <time>2022-02-27T11:00:40Z</time>
      </trkpt>
      <trkpt lat="42.8389" lon="0.50429">
        <ele>1871.419</ele>
        <time>2022-02-27T11:00:42Z</time>
      </trkpt>
      <trkpt lat="42.8389" lon="0.50429">
        <ele>1871.416</ele>
        <time>2022-02-27T11:00:44Z</time>
      </trkpt>
      <trkpt lat="42.8389" lon="0.50429">
        <ele>1871.413</ele>
        <time>2022-02-27T11:00:46Z</time>
      </trkpt>
      <trkpt lat="42.8389" lon="0.50429">
        <ele>1871.41</ele>
        <time>2022-02-27T11:00:48Z</time>
      </trkpt>
      <trkpt lat="42.8389" lon="0.50429">
        <ele>1871.399</ele>
        <time>2022-02-27T11:00:50Z</time>
      </trkpt>
      <trkpt lat="42.8389" lon="0.50429">
        <ele>1871.394</ele>
        <time>2022-02-27T11:00:52Z</time>
      </trkpt>
      <trkpt lat="42.8389" lon="0.50429">
        <ele>1871.394</ele>
        <time>2022-02-27T11:00:54Z</time>
      </trkpt>
      <trkpt lat="42.8389" lon="0.50429">
        <ele>1871.389</ele>
        <time>2022-02-27T11:00:56Z</time>
      </trkpt>
      <trkpt lat="42.8389" lon="0.50429">
        <ele>1871.264</ele>
        <time>2022-02-27T11:00:58Z</time>
      </trkpt>
      <trkpt lat="42.8389" lon="0.50429">
        <ele>1871.263</ele>
        <time>2022-02-27T11:01:00Z</time>
      </trkpt>
      <trkpt lat="42.8389" lon="0.50429">
        <ele>1871.264</ele>
        <time>2022-02-27T11:01:02Z</time>
      </trkpt>
      <trkpt lat="42.8389" lon="0.50429">
        <ele>1871.262</ele>
        <time>2022-02-27T11:01:04Z</time>
      </trkpt>
      <trkpt lat="42.8389" lon="0.50429">
        <ele>1871.261</ele>
        <time>2022-02-27T11:01:06Z</time>
      </trkpt>
      <trkpt lat="42.8389" lon="0.50429">
        <ele>1871.259</ele>
        <time>2022-02-27T11:01:08Z</time>
      </trkpt>
      <trkpt lat="42.8389" lon="0.50429">
        <ele>1871.259</ele>
        <time>2022-02-27T11:01:10Z</time>
      </trkpt>
      <trkpt lat="42.8389" lon="0.50429">
        <ele>1871.258</ele>
        <time>2022-02-27T11:01:12Z</time>
      </trkpt>
      <trkpt lat="42.8389" lon="0.50429">
        <ele>1871.254</ele>
        <time>2022-02-27T11:01:14Z</time>
      </trkpt>
      <trkpt lat="42.8389" lon="0.50429">
        <ele>1871.24</ele>
        <time>2022-02-27T11:01:16Z</time>
      </trkpt>
      <trkpt lat="42.8389" lon="0.50429">
        <ele>1871.237</ele>
        <time>2022-02-27T11:01:18Z</time>
      </trkpt>
      <trkpt lat="42.8389" lon="0.50429">
        <ele>1871.233</ele>
        <time>2022-02-27T11:01:20Z</time>
      </trkpt>
      <trkpt lat="42.8389" lon="0.50429">
        <ele>1871.232</ele>
        <time>2022-02-27T11:01:22Z</time>
      </trkpt>
      <trkpt lat="42.8389" lon="0.50429">
        <ele>1871.234</ele>
        <time>2022-02-27T11:01:24Z</time>
      </trkpt>
      <trkpt lat="42.8389" lon="0.50429">
        <ele>1871.225</ele>
        <time>2022-02-27T11:01:26Z</time>
      </trkpt>
      <trkpt lat="42.8389" lon="0.50429">
        <ele>1871.214</ele>
        <time>2022-02-27T11:01:28Z</time>
      </trkpt>
      <trkpt lat="42.8389" lon="0.50429">
        <ele>1871.189</ele>
        <time>2022-02-27T11:01:30Z</time>
      </trkpt>
      <trkpt lat="42.8389" lon="0.50429">
        <ele>1871.176</ele>
        <time>2022-02-27T11:01:32Z</time>
      </trkpt>
      <trkpt lat="42.8389" lon="0.50429">
        <ele>1871.161</ele>
        <time>2022-02-27T11:01:34Z</time>
      </trkpt>
      <trkpt lat="42.8389" lon="0.50429">
        <ele>1871.139</ele>
        <time>2022-02-27T11:01:36Z</time>
      </trkpt>
      <trkpt lat="42.8389" lon="0.50429">
        <ele>1871.13</ele>
        <time>2022-02-27T11:01:38Z</time>
      </trkpt>
      <trkpt lat="42.8389" lon="0.50429">
        <ele>1871.132</ele>
        <time>2022-02-27T11:01:40Z</time>
      </trkpt>
      <trkpt lat="42.8389" lon="0.50429">
        <ele>1871.141</ele>
        <time>2022-02-27T11:01:42Z</time>
      </trkpt>
      <trkpt lat="42.8389" lon="0.50429">
        <ele>1871.139</ele>
        <time>2022-02-27T11:01:44Z</time>
      </trkpt>
      <trkpt lat="42.8389" lon="0.50429">
        <ele>1871.137</ele>
        <time>2022-02-27T11:01:46Z</time>
      </trkpt>
      <trkpt lat="42.8389" lon="0.50429">
        <ele>1871.133</ele>
        <time>2022-02-27T11:01:48Z</time>
      </trkpt>
      <trkpt lat="42.8389" lon="0.5043">
        <ele>1871.364</ele>
        <time>2022-02-27T11:01:50Z</time>
      </trkpt>
      <trkpt lat="42.8389" lon="0.5043">
        <ele>1871.369</ele>
        <time>2022-02-27T11:01:52Z</time>
      </trkpt>
      <trkpt lat="42.8389" lon="0.5043">
        <ele>1871.474</ele>
        <time>2022-02-27T11:01:54Z</time>
      </trkpt>
      <trkpt lat="42.8389" lon="0.5043">
        <ele>1871.476</ele>
        <time>2022-02-27T11:01:56Z</time>
      </trkpt>
      <trkpt lat="42.8389" lon="0.5043">
        <ele>1871.481</ele>
        <time>2022-02-27T11:01:58Z</time>
      </trkpt>
      <trkpt lat="42.8389" lon="0.5043">
        <ele>1871.475</ele>
        <time>2022-02-27T11:02:00Z</time>
      </trkpt>
      <trkpt lat="42.8389" lon="0.5043">
        <ele>1871.467</ele>
        <time>2022-02-27T11:02:02Z</time>
      </trkpt>
      <trkpt lat="42.8389" lon="0.5043">
        <ele>1871.647</ele>
        <time>2022-02-27T11:02:04Z</time>
      </trkpt>
      <trkpt lat="42.8389" lon="0.5043">
        <ele>1871.648</ele>
        <time>2022-02-27T11:02:06Z</time>
      </trkpt>
      <trkpt lat="42.8389" lon="0.5043">
        <ele>1871.649</ele>
        <time>2022-02-27T11:02:08Z</time>
      </trkpt>
      <trkpt lat="42.8389" lon="0.5043">
        <ele>1871.644</ele>
        <time>2022-02-27T11:02:10Z</time>
      </trkpt>
      <trkpt lat="42.8389" lon="0.5043">
        <ele>1871.65</ele>
        <time>2022-02-27T11:02:12Z</time>
      </trkpt>
      <trkpt lat="42.8389" lon="0.5043">
        <ele>1871.652</ele>
        <time>2022-02-27T11:02:14Z</time>
      </trkpt>
      <trkpt lat="42.8389" lon="0.5043">
        <ele>1871.65</ele>
        <time>2022-02-27T11:02:16Z</time>
      </trkpt>
      <trkpt lat="42.8389" lon="0.5043">
        <ele>1871.641</ele>
        <time>2022-02-27T11:02:18Z</time>
      </trkpt>
      <trkpt lat="42.8389" lon="0.5043">
        <ele>1871.634</ele>
        <time>2022-02-27T11:02:20Z</time>
      </trkpt>
      <trkpt lat="42.8389" lon="0.5043">
        <ele>1871.631</ele>
        <time>2022-02-27T11:02:22Z</time>
      </trkpt>
      <trkpt lat="42.8389" lon="0.5043">
        <ele>1871.634</ele>
        <time>2022-02-27T11:02:24Z</time>
      </trkpt>
      <trkpt lat="42.8389" lon="0.5043">
        <ele>1871.639</ele>
        <time>2022-02-27T11:02:26Z</time>
      </trkpt>
      <trkpt lat="42.8389" lon="0.5043">
        <ele>1871.643</ele>
        <time>2022-02-27T11:02:28Z</time>
      </trkpt>
      <trkpt lat="42.8389" lon="0.50429">
        <ele>1872.013</ele>
        <time>2022-02-27T11:02:30Z</time>
      </trkpt>
      <trkpt lat="42.8389" lon="0.50429">
        <ele>1872.026</ele>
        <time>2022-02-27T11:02:32Z</time>
      </trkpt>
      <trkpt lat="42.8389" lon="0.50429">
        <ele>1872.03</ele>
        <time>2022-02-27T11:02:34Z</time>
      </trkpt>
      <trkpt lat="42.8389" lon="0.50429">
        <ele>1872.037</ele>
        <time>2022-02-27T11:02:36Z</time>
      </trkpt>
      <trkpt lat="42.8389" lon="0.50429">
        <ele>1872.043</ele>
        <time>2022-02-27T11:02:38Z</time>
      </trkpt>
      <trkpt lat="42.8389" lon="0.50429">
        <ele>1872.047</ele>
        <time>2022-02-27T11:02:40Z</time>
      </trkpt>
      <trkpt lat="42.8389" lon="0.50429">
        <ele>1872.054</ele>
        <time>2022-02-27T11:02:42Z</time>
      </trkpt>
      <trkpt lat="42.8389" lon="0.50429">
        <ele>1872.339</ele>
        <time>2022-02-27T11:02:44Z</time>
      </trkpt>
      <trkpt lat="42.83889" lon="0.50429">
        <ele>1872.713</ele>
        <time>2022-02-27T11:02:46Z</time>
      </trkpt>
      <trkpt lat="42.83888" lon="0.50429">
        <ele>1872.457</ele>
        <time>2022-02-27T11:02:48Z</time>
      </trkpt>
      <trkpt lat="42.83887" lon="0.50429">
        <ele>1872.208</ele>
        <time>2022-02-27T11:02:50Z</time>
      </trkpt>
      <trkpt lat="42.83886" lon="0.50429">
        <ele>1871.911</ele>
        <time>2022-02-27T11:02:52Z</time>
      </trkpt>
      <trkpt lat="42.83885" lon="0.50429">
        <ele>1872.353</ele>
        <time>2022-02-27T11:02:54Z</time>
      </trkpt>
      <trkpt lat="42.83884" lon="0.50428">
        <ele>1873.244</ele>
        <time>2022-02-27T11:02:56Z</time>
      </trkpt>
      <trkpt lat="42.83883" lon="0.50427">
        <ele>1873.188</ele>
        <time>2022-02-27T11:02:58Z</time>
      </trkpt>
      <trkpt lat="42.83883" lon="0.50425">
        <ele>1873.482</ele>
        <time>2022-02-27T11:03:00Z</time>
      </trkpt>
      <trkpt lat="42.83882" lon="0.50424">
        <ele>1874.182</ele>
        <time>2022-02-27T11:03:02Z</time>
      </trkpt>
      <trkpt lat="42.83882" lon="0.50423">
        <ele>1874.291</ele>
        <time>2022-02-27T11:03:04Z</time>
      </trkpt>
      <trkpt lat="42.83881" lon="0.50423">
        <ele>1874.555</ele>
        <time>2022-02-27T11:03:06Z</time>
      </trkpt>
      <trkpt lat="42.8388" lon="0.50422">
        <ele>1875.085</ele>
        <time>2022-02-27T11:03:08Z</time>
      </trkpt>
      <trkpt lat="42.83879" lon="0.50421">
        <ele>1875.582</ele>
        <time>2022-02-27T11:03:10Z</time>
      </trkpt>
      <trkpt lat="42.83879" lon="0.50419">
        <ele>1876.211</ele>
        <time>2022-02-27T11:03:12Z</time>
      </trkpt>
      <trkpt lat="42.83878" lon="0.50418">
        <ele>1876.929</ele>
        <time>2022-02-27T11:03:14Z</time>
      </trkpt>
      <trkpt lat="42.83878" lon="0.50417">
        <ele>1877.009</ele>
        <time>2022-02-27T11:03:16Z</time>
      </trkpt>
      <trkpt lat="42.83877" lon="0.50417">
        <ele>1877.008</ele>
        <time>2022-02-27T11:03:18Z</time>
      </trkpt>
      <trkpt lat="42.83876" lon="0.50417">
        <ele>1876.947</ele>
        <time>2022-02-27T11:03:20Z</time>
      </trkpt>
      <trkpt lat="42.83875" lon="0.50417">
        <ele>1877.063</ele>
        <time>2022-02-27T11:03:22Z</time>
      </trkpt>
      <trkpt lat="42.83875" lon="0.50417">
        <ele>1877.494</ele>
        <time>2022-02-27T11:03:24Z</time>
      </trkpt>
      <trkpt lat="42.83874" lon="0.50416">
        <ele>1877.808</ele>
        <time>2022-02-27T11:03:26Z</time>
      </trkpt>
      <trkpt lat="42.83873" lon="0.50415">
        <ele>1878.189</ele>
        <time>2022-02-27T11:03:28Z</time>
      </trkpt>
      <trkpt lat="42.83873" lon="0.50414">
        <ele>1877.705</ele>
        <time>2022-02-27T11:03:30Z</time>
      </trkpt>
      <trkpt lat="42.83872" lon="0.50413">
        <ele>1877.293</ele>
        <time>2022-02-27T11:03:32Z</time>
      </trkpt>
      <trkpt lat="42.83871" lon="0.50412">
        <ele>1877.652</ele>
        <time>2022-02-27T11:03:34Z</time>
      </trkpt>
      <trkpt lat="42.83871" lon="0.50411">
        <ele>1878.614</ele>
        <time>2022-02-27T11:03:36Z</time>
      </trkpt>
      <trkpt lat="42.8387" lon="0.50411">
        <ele>1878.67</ele>
        <time>2022-02-27T11:03:38Z</time>
      </trkpt>
      <trkpt lat="42.8387" lon="0.50411">
        <ele>1878.258</ele>
        <time>2022-02-27T11:03:40Z</time>
      </trkpt>
      <trkpt lat="42.8387" lon="0.50411">
        <ele>1879.46</ele>
        <time>2022-02-27T11:03:42Z</time>
      </trkpt>
      <trkpt lat="42.83869" lon="0.5041">
        <ele>1879.79</ele>
        <time>2022-02-27T11:03:44Z</time>
      </trkpt>
      <trkpt lat="42.83869" lon="0.5041">
        <ele>1880.247</ele>
        <time>2022-02-27T11:03:46Z</time>
      </trkpt>
      <trkpt lat="42.8387" lon="0.5041">
        <ele>1880.201</ele>
        <time>2022-02-27T11:03:48Z</time>
      </trkpt>
      <trkpt lat="42.8387" lon="0.5041">
        <ele>1880.192</ele>
        <time>2022-02-27T11:03:50Z</time>
      </trkpt>
      <trkpt lat="42.8387" lon="0.5041">
        <ele>1880.195</ele>
        <time>2022-02-27T11:03:52Z</time>
      </trkpt>
      <trkpt lat="42.8387" lon="0.5041">
        <ele>1880.189</ele>
        <time>2022-02-27T11:03:54Z</time>
      </trkpt>
      <trkpt lat="42.8387" lon="0.5041">
        <ele>1880.172</ele>
        <time>2022-02-27T11:03:56Z</time>
      </trkpt>
      <trkpt lat="42.8387" lon="0.5041">
        <ele>1880.156</ele>
        <time>2022-02-27T11:03:58Z</time>
      </trkpt>
      <trkpt lat="42.83869" lon="0.5041">
        <ele>1880.065</ele>
        <time>2022-02-27T11:04:00Z</time>
      </trkpt>
      <trkpt lat="42.83868" lon="0.50409">
        <ele>1880.656</ele>
        <time>2022-02-27T11:04:02Z</time>
      </trkpt>
      <trkpt lat="42.83867" lon="0.50409">
        <ele>1881.133</ele>
        <time>2022-02-27T11:04:04Z</time>
      </trkpt>
      <trkpt lat="42.83866" lon="0.50408">
        <ele>1880.991</ele>
        <time>2022-02-27T11:04:06Z</time>
      </trkpt>
      <trkpt lat="42.83865" lon="0.50408">
        <ele>1881.184</ele>
        <time>2022-02-27T11:04:08Z</time>
      </trkpt>
      <trkpt lat="42.83864" lon="0.50408">
        <ele>1880.781</ele>
        <time>2022-02-27T11:04:10Z</time>
      </trkpt>
      <trkpt lat="42.83864" lon="0.50408">
        <ele>1880.843</ele>
        <time>2022-02-27T11:04:12Z</time>
      </trkpt>
      <trkpt lat="42.83863" lon="0.50409">
        <ele>1879.973</ele>
        <time>2022-02-27T11:04:14Z</time>
      </trkpt>
      <trkpt lat="42.83863" lon="0.50409">
        <ele>1880.468</ele>
        <time>2022-02-27T11:04:16Z</time>
      </trkpt>
      <trkpt lat="42.83862" lon="0.50409">
        <ele>1880.714</ele>
        <time>2022-02-27T11:04:18Z</time>
      </trkpt>
      <trkpt lat="42.83861" lon="0.50408">
        <ele>1881.481</ele>
        <time>2022-02-27T11:04:20Z</time>
      </trkpt>
      <trkpt lat="42.8386" lon="0.50407">
        <ele>1881.643</ele>
        <time>2022-02-27T11:04:22Z</time>
      </trkpt>
      <trkpt lat="42.83859" lon="0.50407">
        <ele>1882.01</ele>
        <time>2022-02-27T11:04:24Z</time>
      </trkpt>
      <trkpt lat="42.83858" lon="0.50406">
        <ele>1882.241</ele>
        <time>2022-02-27T11:04:26Z</time>
      </trkpt>
      <trkpt lat="42.83857" lon="0.50406">
        <ele>1882.41</ele>
        <time>2022-02-27T11:04:28Z</time>
      </trkpt>
      <trkpt lat="42.83857" lon="0.50406">
        <ele>1882.423</ele>
        <time>2022-02-27T11:04:30Z</time>
      </trkpt>
      <trkpt lat="42.83857" lon="0.50406">
        <ele>1882.135</ele>
        <time>2022-02-27T11:04:32Z</time>
      </trkpt>
      <trkpt lat="42.83857" lon="0.50406">
        <ele>1882.697</ele>
        <time>2022-02-27T11:04:34Z</time>
      </trkpt>
      <trkpt lat="42.83856" lon="0.50406">
        <ele>1883.01</ele>
        <time>2022-02-27T11:04:36Z</time>
      </trkpt>
      <trkpt lat="42.83855" lon="0.50406">
        <ele>1882.597</ele>
        <time>2022-02-27T11:04:38Z</time>
      </trkpt>
      <trkpt lat="42.83855" lon="0.50405">
        <ele>1883.217</ele>
        <time>2022-02-27T11:04:40Z</time>
      </trkpt>
      <trkpt lat="42.83855" lon="0.50405">
        <ele>1883.245</ele>
        <time>2022-02-27T11:04:42Z</time>
      </trkpt>
      <trkpt lat="42.83855" lon="0.50405">
        <ele>1883.237</ele>
        <time>2022-02-27T11:04:44Z</time>
      </trkpt>
      <trkpt lat="42.83855" lon="0.50405">
        <ele>1883.238</ele>
        <time>2022-02-27T11:04:46Z</time>
      </trkpt>
      <trkpt lat="42.83855" lon="0.50405">
        <ele>1883.238</ele>
        <time>2022-02-27T11:04:48Z</time>
      </trkpt>
      <trkpt lat="42.83855" lon="0.50405">
        <ele>1883.235</ele>
        <time>2022-02-27T11:04:50Z</time>
      </trkpt>
      <trkpt lat="42.83855" lon="0.50405">
        <ele>1883.232</ele>
        <time>2022-02-27T11:04:52Z</time>
      </trkpt>
      <trkpt lat="42.83854" lon="0.50405">
        <ele>1883.902</ele>
        <time>2022-02-27T11:04:54Z</time>
      </trkpt>
      <trkpt lat="42.83853" lon="0.50404">
        <ele>1883.879</ele>
        <time>2022-02-27T11:04:56Z</time>
      </trkpt>
      <trkpt lat="42.83852" lon="0.50403">
        <ele>1884.899</ele>
        <time>2022-02-27T11:04:58Z</time>
      </trkpt>
      <trkpt lat="42.83852" lon="0.50403">
        <ele>1884.273</ele>
        <time>2022-02-27T11:05:00Z</time>
      </trkpt>
      <trkpt lat="42.83851" lon="0.50402">
        <ele>1885.79</ele>
        <time>2022-02-27T11:05:02Z</time>
      </trkpt>
      <trkpt lat="42.83852" lon="0.50402">
        <ele>1885.782</ele>
        <time>2022-02-27T11:05:04Z</time>
      </trkpt>
      <trkpt lat="42.83851" lon="0.50402">
        <ele>1885.624</ele>
        <time>2022-02-27T11:05:06Z</time>
      </trkpt>
      <trkpt lat="42.8385" lon="0.50401">
        <ele>1885.781</ele>
        <time>2022-02-27T11:05:08Z</time>
      </trkpt>
      <trkpt lat="42.83849" lon="0.50401">
        <ele>1885.491</ele>
        <time>2022-02-27T11:05:10Z</time>
      </trkpt>
      <trkpt lat="42.83849" lon="0.504">
        <ele>1887.147</ele>
        <time>2022-02-27T11:05:12Z</time>
      </trkpt>
      <trkpt lat="42.83848" lon="0.504">
        <ele>1887.683</ele>
        <time>2022-02-27T11:05:14Z</time>
      </trkpt>
      <trkpt lat="42.83847" lon="0.504">
        <ele>1887.587</ele>
        <time>2022-02-27T11:05:16Z</time>
      </trkpt>
      <trkpt lat="42.83846" lon="0.504">
        <ele>1887.064</ele>
        <time>2022-02-27T11:05:18Z</time>
      </trkpt>
      <trkpt lat="42.83845" lon="0.504">
        <ele>1887.313</ele>
        <time>2022-02-27T11:05:20Z</time>
      </trkpt>
      <trkpt lat="42.83844" lon="0.50399">
        <ele>1887.494</ele>
        <time>2022-02-27T11:05:22Z</time>
      </trkpt>
      <trkpt lat="42.83843" lon="0.50398">
        <ele>1886.803</ele>
        <time>2022-02-27T11:05:24Z</time>
      </trkpt>
      <trkpt lat="42.83842" lon="0.50397">
        <ele>1886.769</ele>
        <time>2022-02-27T11:05:26Z</time>
      </trkpt>
      <trkpt lat="42.83841" lon="0.50396">
        <ele>1886.634</ele>
        <time>2022-02-27T11:05:28Z</time>
      </trkpt>
      <trkpt lat="42.8384" lon="0.50395">
        <ele>1887.2</ele>
        <time>2022-02-27T11:05:30Z</time>
      </trkpt>
      <trkpt lat="42.8384" lon="0.50396">
        <ele>1887.262</ele>
        <time>2022-02-27T11:05:32Z</time>
      </trkpt>
      <trkpt lat="42.83839" lon="0.50395">
        <ele>1888.182</ele>
        <time>2022-02-27T11:05:34Z</time>
      </trkpt>
      <trkpt lat="42.83837" lon="0.50395">
        <ele>1888.327</ele>
        <time>2022-02-27T11:05:36Z</time>
      </trkpt>
      <trkpt lat="42.83837" lon="0.50395">
        <ele>1888.074</ele>
        <time>2022-02-27T11:05:38Z</time>
      </trkpt>
      <trkpt lat="42.83836" lon="0.50395">
        <ele>1888.457</ele>
        <time>2022-02-27T11:05:40Z</time>
      </trkpt>
      <trkpt lat="42.83835" lon="0.50394">
        <ele>1889.273</ele>
        <time>2022-02-27T11:05:42Z</time>
      </trkpt>
      <trkpt lat="42.83834" lon="0.50394">
        <ele>1889.375</ele>
        <time>2022-02-27T11:05:44Z</time>
      </trkpt>
      <trkpt lat="42.83834" lon="0.50394">
        <ele>1890</ele>
        <time>2022-02-27T11:05:46Z</time>
      </trkpt>
      <trkpt lat="42.83833" lon="0.50394">
        <ele>1889.285</ele>
        <time>2022-02-27T11:05:48Z</time>
      </trkpt>
      <trkpt lat="42.83832" lon="0.50394">
        <ele>1888.729</ele>
        <time>2022-02-27T11:05:50Z</time>
      </trkpt>
      <trkpt lat="42.83832" lon="0.50394">
        <ele>1888.748</ele>
        <time>2022-02-27T11:05:52Z</time>
      </trkpt>
      <trkpt lat="42.83832" lon="0.50393">
        <ele>1889.437</ele>
        <time>2022-02-27T11:05:54Z</time>
      </trkpt>
      <trkpt lat="42.83831" lon="0.50392">
        <ele>1889.702</ele>
        <time>2022-02-27T11:05:56Z</time>
      </trkpt>
      <trkpt lat="42.83831" lon="0.50392">
        <ele>1889.871</ele>
        <time>2022-02-27T11:05:58Z</time>
      </trkpt>
      <trkpt lat="42.8383" lon="0.50391">
        <ele>1890.231</ele>
        <time>2022-02-27T11:06:00Z</time>
      </trkpt>
      <trkpt lat="42.8383" lon="0.5039">
        <ele>1890.304</ele>
        <time>2022-02-27T11:06:02Z</time>
      </trkpt>
      <trkpt lat="42.83829" lon="0.50389">
        <ele>1890.731</ele>
        <time>2022-02-27T11:06:04Z</time>
      </trkpt>
      <trkpt lat="42.83828" lon="0.50388">
        <ele>1891.189</ele>
        <time>2022-02-27T11:06:06Z</time>
      </trkpt>
      <trkpt lat="42.83827" lon="0.50387">
        <ele>1891.499</ele>
        <time>2022-02-27T11:06:08Z</time>
      </trkpt>
      <trkpt lat="42.83827" lon="0.50386">
        <ele>1891.398</ele>
        <time>2022-02-27T11:06:10Z</time>
      </trkpt>
      <trkpt lat="42.83826" lon="0.50385">
        <ele>1891.604</ele>
        <time>2022-02-27T11:06:12Z</time>
      </trkpt>
      <trkpt lat="42.83825" lon="0.50384">
        <ele>1892.097</ele>
        <time>2022-02-27T11:06:14Z</time>
      </trkpt>
      <trkpt lat="42.83824" lon="0.50383">
        <ele>1892.362</ele>
        <time>2022-02-27T11:06:16Z</time>
      </trkpt>
      <trkpt lat="42.83824" lon="0.50382">
        <ele>1892.349</ele>
        <time>2022-02-27T11:06:18Z</time>
      </trkpt>
      <trkpt lat="42.83823" lon="0.50381">
        <ele>1892.291</ele>
        <time>2022-02-27T11:06:20Z</time>
      </trkpt>
      <trkpt lat="42.83822" lon="0.5038">
        <ele>1893.081</ele>
        <time>2022-02-27T11:06:22Z</time>
      </trkpt>
      <trkpt lat="42.83822" lon="0.50379">
        <ele>1893.111</ele>
        <time>2022-02-27T11:06:24Z</time>
      </trkpt>
      <trkpt lat="42.83821" lon="0.50378">
        <ele>1892.87</ele>
        <time>2022-02-27T11:06:26Z</time>
      </trkpt>
      <trkpt lat="42.8382" lon="0.50377">
        <ele>1893.203</ele>
        <time>2022-02-27T11:06:28Z</time>
      </trkpt>
      <trkpt lat="42.83819" lon="0.50376">
        <ele>1893.614</ele>
        <time>2022-02-27T11:06:30Z</time>
      </trkpt>
      <trkpt lat="42.83818" lon="0.50375">
        <ele>1894.267</ele>
        <time>2022-02-27T11:06:32Z</time>
      </trkpt>
      <trkpt lat="42.83817" lon="0.50375">
        <ele>1894.058</ele>
        <time>2022-02-27T11:06:34Z</time>
      </trkpt>
      <trkpt lat="42.83816" lon="0.50376">
        <ele>1894.085</ele>
        <time>2022-02-27T11:06:36Z</time>
      </trkpt>
      <trkpt lat="42.83815" lon="0.50376">
        <ele>1894.269</ele>
        <time>2022-02-27T11:06:38Z</time>
      </trkpt>
      <trkpt lat="42.83814" lon="0.50375">
        <ele>1894.816</ele>
        <time>2022-02-27T11:06:40Z</time>
      </trkpt>
      <trkpt lat="42.83813" lon="0.50375">
        <ele>1895.125</ele>
        <time>2022-02-27T11:06:42Z</time>
      </trkpt>
      <trkpt lat="42.83812" lon="0.50375">
        <ele>1895.686</ele>
        <time>2022-02-27T11:06:44Z</time>
      </trkpt>
      <trkpt lat="42.83811" lon="0.50374">
        <ele>1896.161</ele>
        <time>2022-02-27T11:06:46Z</time>
      </trkpt>
      <trkpt lat="42.8381" lon="0.50374">
        <ele>1895.76</ele>
        <time>2022-02-27T11:06:48Z</time>
      </trkpt>
      <trkpt lat="42.8381" lon="0.50373">
        <ele>1895.633</ele>
        <time>2022-02-27T11:06:50Z</time>
      </trkpt>
      <trkpt lat="42.8381" lon="0.50374">
        <ele>1895.134</ele>
        <time>2022-02-27T11:06:52Z</time>
      </trkpt>
      <trkpt lat="42.8381" lon="0.50374">
        <ele>1895.525</ele>
        <time>2022-02-27T11:06:54Z</time>
      </trkpt>
      <trkpt lat="42.83809" lon="0.50375">
        <ele>1896.234</ele>
        <time>2022-02-27T11:06:56Z</time>
      </trkpt>
      <trkpt lat="42.83807" lon="0.50375">
        <ele>1896.183</ele>
        <time>2022-02-27T11:06:58Z</time>
      </trkpt>
      <trkpt lat="42.83806" lon="0.50376">
        <ele>1896.332</ele>
        <time>2022-02-27T11:07:00Z</time>
      </trkpt>
      <trkpt lat="42.83805" lon="0.50376">
        <ele>1896.658</ele>
        <time>2022-02-27T11:07:02Z</time>
      </trkpt>
      <trkpt lat="42.83804" lon="0.50376">
        <ele>1896.764</ele>
        <time>2022-02-27T11:07:04Z</time>
      </trkpt>
      <trkpt lat="42.83804" lon="0.50377">
        <ele>1897.361</ele>
        <time>2022-02-27T11:07:06Z</time>
      </trkpt>
      <trkpt lat="42.83803" lon="0.50377">
        <ele>1897.619</ele>
        <time>2022-02-27T11:07:08Z</time>
      </trkpt>
      <trkpt lat="42.83802" lon="0.50378">
        <ele>1898.382</ele>
        <time>2022-02-27T11:07:10Z</time>
      </trkpt>
      <trkpt lat="42.83801" lon="0.50378">
        <ele>1899.133</ele>
        <time>2022-02-27T11:07:12Z</time>
      </trkpt>
      <trkpt lat="42.83801" lon="0.50378">
        <ele>1899.468</ele>
        <time>2022-02-27T11:07:14Z</time>
      </trkpt>
      <trkpt lat="42.838" lon="0.50378">
        <ele>1899.284</ele>
        <time>2022-02-27T11:07:16Z</time>
      </trkpt>
      <trkpt lat="42.838" lon="0.50378">
        <ele>1899.448</ele>
        <time>2022-02-27T11:07:18Z</time>
      </trkpt>
      <trkpt lat="42.83799" lon="0.50378">
        <ele>1899.77</ele>
        <time>2022-02-27T11:07:20Z</time>
      </trkpt>
      <trkpt lat="42.83798" lon="0.50379">
        <ele>1899.976</ele>
        <time>2022-02-27T11:07:22Z</time>
      </trkpt>
      <trkpt lat="42.83796" lon="0.5038">
        <ele>1899.752</ele>
        <time>2022-02-27T11:07:24Z</time>
      </trkpt>
      <trkpt lat="42.83795" lon="0.50381">
        <ele>1899.885</ele>
        <time>2022-02-27T11:07:26Z</time>
      </trkpt>
      <trkpt lat="42.83794" lon="0.50381">
        <ele>1899.893</ele>
        <time>2022-02-27T11:07:28Z</time>
      </trkpt>
      <trkpt lat="42.83793" lon="0.50382">
        <ele>1899.628</ele>
        <time>2022-02-27T11:07:30Z</time>
      </trkpt>
      <trkpt lat="42.83793" lon="0.50382">
        <ele>1899.658</ele>
        <time>2022-02-27T11:07:32Z</time>
      </trkpt>
      <trkpt lat="42.83792" lon="0.50382">
        <ele>1900.471</ele>
        <time>2022-02-27T11:07:34Z</time>
      </trkpt>
      <trkpt lat="42.83791" lon="0.50381">
        <ele>1900.984</ele>
        <time>2022-02-27T11:07:36Z</time>
      </trkpt>
      <trkpt lat="42.83791" lon="0.50381">
        <ele>1901.335</ele>
        <time>2022-02-27T11:07:38Z</time>
      </trkpt>
      <trkpt lat="42.8379" lon="0.50381">
        <ele>1901.505</ele>
        <time>2022-02-27T11:07:40Z</time>
      </trkpt>
      <trkpt lat="42.83789" lon="0.50381">
        <ele>1901.897</ele>
        <time>2022-02-27T11:07:42Z</time>
      </trkpt>
      <trkpt lat="42.83788" lon="0.50381">
        <ele>1902.436</ele>
        <time>2022-02-27T11:07:44Z</time>
      </trkpt>
      <trkpt lat="42.83787" lon="0.50382">
        <ele>1902.593</ele>
        <time>2022-02-27T11:07:46Z</time>
      </trkpt>
      <trkpt lat="42.83786" lon="0.50382">
        <ele>1903.155</ele>
        <time>2022-02-27T11:07:48Z</time>
      </trkpt>
      <trkpt lat="42.83785" lon="0.50382">
        <ele>1903.651</ele>
        <time>2022-02-27T11:07:50Z</time>
      </trkpt>
      <trkpt lat="42.83784" lon="0.50383">
        <ele>1904.123</ele>
        <time>2022-02-27T11:07:52Z</time>
      </trkpt>
      <trkpt lat="42.83783" lon="0.50383">
        <ele>1904.582</ele>
        <time>2022-02-27T11:07:54Z</time>
      </trkpt>
      <trkpt lat="42.83782" lon="0.50383">
        <ele>1904.231</ele>
        <time>2022-02-27T11:07:56Z</time>
      </trkpt>
      <trkpt lat="42.83781" lon="0.50384">
        <ele>1904.343</ele>
        <time>2022-02-27T11:07:58Z</time>
      </trkpt>
      <trkpt lat="42.8378" lon="0.50384">
        <ele>1904.496</ele>
        <time>2022-02-27T11:08:00Z</time>
      </trkpt>
      <trkpt lat="42.83779" lon="0.50384">
        <ele>1904.389</ele>
        <time>2022-02-27T11:08:02Z</time>
      </trkpt>
      <trkpt lat="42.83778" lon="0.50384">
        <ele>1904.727</ele>
        <time>2022-02-27T11:08:04Z</time>
      </trkpt>
      <trkpt lat="42.83776" lon="0.50384">
        <ele>1904.837</ele>
        <time>2022-02-27T11:08:06Z</time>
      </trkpt>
      <trkpt lat="42.83776" lon="0.50384">
        <ele>1904.992</ele>
        <time>2022-02-27T11:08:08Z</time>
      </trkpt>
      <trkpt lat="42.83776" lon="0.50384">
        <ele>1904.992</ele>
        <time>2022-02-27T11:08:10Z</time>
      </trkpt>
      <trkpt lat="42.83776" lon="0.50384">
        <ele>1904.805</ele>
        <time>2022-02-27T11:08:12Z</time>
      </trkpt>
      <trkpt lat="42.83776" lon="0.50384">
        <ele>1905.722</ele>
        <time>2022-02-27T11:08:14Z</time>
      </trkpt>
      <trkpt lat="42.83776" lon="0.50384">
        <ele>1905.73</ele>
        <time>2022-02-27T11:08:16Z</time>
      </trkpt>
      <trkpt lat="42.83776" lon="0.50384">
        <ele>1905.729</ele>
        <time>2022-02-27T11:08:18Z</time>
      </trkpt>
      <trkpt lat="42.83776" lon="0.50384">
        <ele>1905.725</ele>
        <time>2022-02-27T11:08:20Z</time>
      </trkpt>
      <trkpt lat="42.83776" lon="0.50384">
        <ele>1905.727</ele>
        <time>2022-02-27T11:08:22Z</time>
      </trkpt>
      <trkpt lat="42.83776" lon="0.50384">
        <ele>1905.727</ele>
        <time>2022-02-27T11:08:24Z</time>
      </trkpt>
      <trkpt lat="42.83776" lon="0.50384">
        <ele>1905.729</ele>
        <time>2022-02-27T11:08:26Z</time>
      </trkpt>
      <trkpt lat="42.83775" lon="0.50384">
        <ele>1905.986</ele>
        <time>2022-02-27T11:08:28Z</time>
      </trkpt>
      <trkpt lat="42.83773" lon="0.50383">
        <ele>1906.263</ele>
        <time>2022-02-27T11:08:30Z</time>
      </trkpt>
      <trkpt lat="42.83772" lon="0.50383">
        <ele>1906.231</ele>
        <time>2022-02-27T11:08:32Z</time>
      </trkpt>
      <trkpt lat="42.83771" lon="0.50382">
        <ele>1906.422</ele>
        <time>2022-02-27T11:08:34Z</time>
      </trkpt>
      <trkpt lat="42.8377" lon="0.50381">
        <ele>1906.545</ele>
        <time>2022-02-27T11:08:36Z</time>
      </trkpt>
      <trkpt lat="42.83769" lon="0.50382">
        <ele>1906.547</ele>
        <time>2022-02-27T11:08:38Z</time>
      </trkpt>
      <trkpt lat="42.83768" lon="0.50381">
        <ele>1906.623</ele>
        <time>2022-02-27T11:08:40Z</time>
      </trkpt>
      <trkpt lat="42.83768" lon="0.50381">
        <ele>1906.613</ele>
        <time>2022-02-27T11:08:42Z</time>
      </trkpt>
      <trkpt lat="42.83768" lon="0.50381">
        <ele>1906.608</ele>
        <time>2022-02-27T11:08:44Z</time>
      </trkpt>
      <trkpt lat="42.83768" lon="0.50381">
        <ele>1906.603</ele>
        <time>2022-02-27T11:08:46Z</time>
      </trkpt>
      <trkpt lat="42.83768" lon="0.50381">
        <ele>1906.597</ele>
        <time>2022-02-27T11:08:48Z</time>
      </trkpt>
      <trkpt lat="42.83768" lon="0.50381">
        <ele>1906.6</ele>
        <time>2022-02-27T11:08:50Z</time>
      </trkpt>
      <trkpt lat="42.83768" lon="0.50381">
        <ele>1906.598</ele>
        <time>2022-02-27T11:08:52Z</time>
      </trkpt>
      <trkpt lat="42.83768" lon="0.50381">
        <ele>1906.589</ele>
        <time>2022-02-27T11:08:54Z</time>
      </trkpt>
      <trkpt lat="42.83768" lon="0.50381">
        <ele>1906.582</ele>
        <time>2022-02-27T11:08:56Z</time>
      </trkpt>
      <trkpt lat="42.83768" lon="0.50381">
        <ele>1906.579</ele>
        <time>2022-02-27T11:08:58Z</time>
      </trkpt>
      <trkpt lat="42.83768" lon="0.50381">
        <ele>1906.569</ele>
        <time>2022-02-27T11:09:00Z</time>
      </trkpt>
      <trkpt lat="42.83767" lon="0.50381">
        <ele>1906.748</ele>
        <time>2022-02-27T11:09:02Z</time>
      </trkpt>
      <trkpt lat="42.83766" lon="0.5038">
        <ele>1906.492</ele>
        <time>2022-02-27T11:09:04Z</time>
      </trkpt>
      <trkpt lat="42.83766" lon="0.50379">
        <ele>1907.061</ele>
        <time>2022-02-27T11:09:06Z</time>
      </trkpt>
      <trkpt lat="42.83765" lon="0.50378">
        <ele>1907.431</ele>
        <time>2022-02-27T11:09:08Z</time>
      </trkpt>
      <trkpt lat="42.83764" lon="0.50377">
        <ele>1907.58</ele>
        <time>2022-02-27T11:09:10Z</time>
      </trkpt>
      <trkpt lat="42.83764" lon="0.50376">
        <ele>1907.723</ele>
        <time>2022-02-27T11:09:12Z</time>
      </trkpt>
      <trkpt lat="42.83763" lon="0.50375">
        <ele>1907.858</ele>
        <time>2022-02-27T11:09:14Z</time>
      </trkpt>
      <trkpt lat="42.83762" lon="0.50375">
        <ele>1908.352</ele>
        <time>2022-02-27T11:09:16Z</time>
      </trkpt>
      <trkpt lat="42.83761" lon="0.50373">
        <ele>1908.427</ele>
        <time>2022-02-27T11:09:18Z</time>
      </trkpt>
      <trkpt lat="42.83761" lon="0.50373">
        <ele>1908.236</ele>
        <time>2022-02-27T11:09:20Z</time>
      </trkpt>
      <trkpt lat="42.83761" lon="0.50372">
        <ele>1908.936</ele>
        <time>2022-02-27T11:09:22Z</time>
      </trkpt>
      <trkpt lat="42.83761" lon="0.50372">
        <ele>1908.932</ele>
        <time>2022-02-27T11:09:24Z</time>
      </trkpt>
      <trkpt lat="42.83761" lon="0.50372">
        <ele>1908.932</ele>
        <time>2022-02-27T11:09:26Z</time>
      </trkpt>
      <trkpt lat="42.83761" lon="0.50372">
        <ele>1908.927</ele>
        <time>2022-02-27T11:09:28Z</time>
      </trkpt>
      <trkpt lat="42.83761" lon="0.50372">
        <ele>1908.923</ele>
        <time>2022-02-27T11:09:30Z</time>
      </trkpt>
      <trkpt lat="42.83761" lon="0.50372">
        <ele>1908.919</ele>
        <time>2022-02-27T11:09:32Z</time>
      </trkpt>
      <trkpt lat="42.83761" lon="0.50372">
        <ele>1908.926</ele>
        <time>2022-02-27T11:09:34Z</time>
      </trkpt>
      <trkpt lat="42.83761" lon="0.50372">
        <ele>1908.923</ele>
        <time>2022-02-27T11:09:36Z</time>
      </trkpt>
      <trkpt lat="42.83761" lon="0.50372">
        <ele>1908.916</ele>
        <time>2022-02-27T11:09:38Z</time>
      </trkpt>
      <trkpt lat="42.83761" lon="0.50372">
        <ele>1909.354</ele>
        <time>2022-02-27T11:09:40Z</time>
      </trkpt>
      <trkpt lat="42.83761" lon="0.50372">
        <ele>1909.353</ele>
        <time>2022-02-27T11:09:42Z</time>
      </trkpt>
      <trkpt lat="42.8376" lon="0.50371">
        <ele>1908.887</ele>
        <time>2022-02-27T11:09:44Z</time>
      </trkpt>
      <trkpt lat="42.8376" lon="0.5037">
        <ele>1909.04</ele>
        <time>2022-02-27T11:09:46Z</time>
      </trkpt>
      <trkpt lat="42.83758" lon="0.50368">
        <ele>1908.751</ele>
        <time>2022-02-27T11:09:48Z</time>
      </trkpt>
      <trkpt lat="42.83757" lon="0.50367">
        <ele>1908.889</ele>
        <time>2022-02-27T11:09:50Z</time>
      </trkpt>
      <trkpt lat="42.83756" lon="0.50366">
        <ele>1908.998</ele>
        <time>2022-02-27T11:09:52Z</time>
      </trkpt>
      <trkpt lat="42.83755" lon="0.50365">
        <ele>1909.286</ele>
        <time>2022-02-27T11:09:54Z</time>
      </trkpt>
      <trkpt lat="42.83754" lon="0.50364">
        <ele>1909.817</ele>
        <time>2022-02-27T11:09:56Z</time>
      </trkpt>
      <trkpt lat="42.83753" lon="0.50363">
        <ele>1909.916</ele>
        <time>2022-02-27T11:09:58Z</time>
      </trkpt>
      <trkpt lat="42.83751" lon="0.50361">
        <ele>1909.429</ele>
        <time>2022-02-27T11:10:00Z</time>
      </trkpt>
      <trkpt lat="42.83751" lon="0.5036">
        <ele>1909.407</ele>
        <time>2022-02-27T11:10:02Z</time>
      </trkpt>
      <trkpt lat="42.8375" lon="0.50358">
        <ele>1909.913</ele>
        <time>2022-02-27T11:10:04Z</time>
      </trkpt>
      <trkpt lat="42.83749" lon="0.50357">
        <ele>1909.93</ele>
        <time>2022-02-27T11:10:06Z</time>
      </trkpt>
      <trkpt lat="42.83748" lon="0.50356">
        <ele>1909.492</ele>
        <time>2022-02-27T11:10:08Z</time>
      </trkpt>
      <trkpt lat="42.83747" lon="0.50354">
        <ele>1909.948</ele>
        <time>2022-02-27T11:10:10Z</time>
      </trkpt>
      <trkpt lat="42.83746" lon="0.50352">
        <ele>1909.54</ele>
        <time>2022-02-27T11:10:12Z</time>
      </trkpt>
      <trkpt lat="42.83745" lon="0.50351">
        <ele>1909.767</ele>
        <time>2022-02-27T11:10:14Z</time>
      </trkpt>
      <trkpt lat="42.83744" lon="0.5035">
        <ele>1910.116</ele>
        <time>2022-02-27T11:10:16Z</time>
      </trkpt>
      <trkpt lat="42.83743" lon="0.50349">
        <ele>1910.368</ele>
        <time>2022-02-27T11:10:18Z</time>
      </trkpt>
      <trkpt lat="42.83743" lon="0.50347">
        <ele>1910.178</ele>
        <time>2022-02-27T11:10:20Z</time>
      </trkpt>
      <trkpt lat="42.83742" lon="0.50346">
        <ele>1910.522</ele>
        <time>2022-02-27T11:10:22Z</time>
      </trkpt>
      <trkpt lat="42.83741" lon="0.50345">
        <ele>1910.949</ele>
        <time>2022-02-27T11:10:24Z</time>
      </trkpt>
      <trkpt lat="42.8374" lon="0.50344">
        <ele>1911.431</ele>
        <time>2022-02-27T11:10:26Z</time>
      </trkpt>
      <trkpt lat="42.8374" lon="0.50344">
        <ele>1911.403</ele>
        <time>2022-02-27T11:10:28Z</time>
      </trkpt>
      <trkpt lat="42.8374" lon="0.50344">
        <ele>1911.403</ele>
        <time>2022-02-27T11:10:30Z</time>
      </trkpt>
      <trkpt lat="42.8374" lon="0.50344">
        <ele>1911.399</ele>
        <time>2022-02-27T11:10:32Z</time>
      </trkpt>
      <trkpt lat="42.8374" lon="0.50344">
        <ele>1911.394</ele>
        <time>2022-02-27T11:10:34Z</time>
      </trkpt>
      <trkpt lat="42.8374" lon="0.50344">
        <ele>1911.387</ele>
        <time>2022-02-27T11:10:36Z</time>
      </trkpt>
      <trkpt lat="42.8374" lon="0.50344">
        <ele>1911.385</ele>
        <time>2022-02-27T11:10:38Z</time>
      </trkpt>
      <trkpt lat="42.8374" lon="0.50344">
        <ele>1911.38</ele>
        <time>2022-02-27T11:10:40Z</time>
      </trkpt>
      <trkpt lat="42.8374" lon="0.50344">
        <ele>1911.37</ele>
        <time>2022-02-27T11:10:42Z</time>
      </trkpt>
      <trkpt lat="42.8374" lon="0.50344">
        <ele>1911.367</ele>
        <time>2022-02-27T11:10:44Z</time>
      </trkpt>
      <trkpt lat="42.8374" lon="0.50344">
        <ele>1911.363</ele>
        <time>2022-02-27T11:10:46Z</time>
      </trkpt>
      <trkpt lat="42.8374" lon="0.50344">
        <ele>1911.356</ele>
        <time>2022-02-27T11:10:48Z</time>
      </trkpt>
      <trkpt lat="42.8374" lon="0.50344">
        <ele>1911.36</ele>
        <time>2022-02-27T11:10:50Z</time>
      </trkpt>
      <trkpt lat="42.8374" lon="0.50344">
        <ele>1911.359</ele>
        <time>2022-02-27T11:10:52Z</time>
      </trkpt>
      <trkpt lat="42.8374" lon="0.50344">
        <ele>1911.364</ele>
        <time>2022-02-27T11:10:54Z</time>
      </trkpt>
      <trkpt lat="42.8374" lon="0.50344">
        <ele>1911.363</ele>
        <time>2022-02-27T11:10:56Z</time>
      </trkpt>
      <trkpt lat="42.8374" lon="0.50344">
        <ele>1911.365</ele>
        <time>2022-02-27T11:10:58Z</time>
      </trkpt>
      <trkpt lat="42.8374" lon="0.50344">
        <ele>1911.362</ele>
        <time>2022-02-27T11:11:00Z</time>
      </trkpt>
      <trkpt lat="42.8374" lon="0.50344">
        <ele>1911.361</ele>
        <time>2022-02-27T11:11:02Z</time>
      </trkpt>
      <trkpt lat="42.8374" lon="0.50344">
        <ele>1911.367</ele>
        <time>2022-02-27T11:11:04Z</time>
      </trkpt>
      <trkpt lat="42.8374" lon="0.50344">
        <ele>1911.367</ele>
        <time>2022-02-27T11:11:06Z</time>
      </trkpt>
      <trkpt lat="42.8374" lon="0.50344">
        <ele>1911.367</ele>
        <time>2022-02-27T11:11:08Z</time>
      </trkpt>
      <trkpt lat="42.8374" lon="0.50344">
        <ele>1911.367</ele>
        <time>2022-02-27T11:11:10Z</time>
      </trkpt>
      <trkpt lat="42.8374" lon="0.50344">
        <ele>1911.359</ele>
        <time>2022-02-27T11:11:12Z</time>
      </trkpt>
      <trkpt lat="42.8374" lon="0.50344">
        <ele>1911.361</ele>
        <time>2022-02-27T11:11:14Z</time>
      </trkpt>
      <trkpt lat="42.8374" lon="0.50344">
        <ele>1911.362</ele>
        <time>2022-02-27T11:11:16Z</time>
      </trkpt>
      <trkpt lat="42.8374" lon="0.50344">
        <ele>1911.354</ele>
        <time>2022-02-27T11:11:18Z</time>
      </trkpt>
      <trkpt lat="42.8374" lon="0.50344">
        <ele>1911.356</ele>
        <time>2022-02-27T11:11:20Z</time>
      </trkpt>
      <trkpt lat="42.8374" lon="0.50344">
        <ele>1911.353</ele>
        <time>2022-02-27T11:11:22Z</time>
      </trkpt>
      <trkpt lat="42.8374" lon="0.50344">
        <ele>1911.35</ele>
        <time>2022-02-27T11:11:24Z</time>
      </trkpt>
      <trkpt lat="42.8374" lon="0.50344">
        <ele>1911.35</ele>
        <time>2022-02-27T11:11:26Z</time>
      </trkpt>
      <trkpt lat="42.8374" lon="0.50344">
        <ele>1911.344</ele>
        <time>2022-02-27T11:11:28Z</time>
      </trkpt>
      <trkpt lat="42.8374" lon="0.50344">
        <ele>1911.337</ele>
        <time>2022-02-27T11:11:30Z</time>
      </trkpt>
      <trkpt lat="42.8374" lon="0.50344">
        <ele>1911.338</ele>
        <time>2022-02-27T11:11:32Z</time>
      </trkpt>
      <trkpt lat="42.8374" lon="0.50344">
        <ele>1911.332</ele>
        <time>2022-02-27T11:11:34Z</time>
      </trkpt>
      <trkpt lat="42.8374" lon="0.50344">
        <ele>1911.336</ele>
        <time>2022-02-27T11:11:36Z</time>
      </trkpt>
      <trkpt lat="42.8374" lon="0.50344">
        <ele>1911.329</ele>
        <time>2022-02-27T11:11:38Z</time>
      </trkpt>
      <trkpt lat="42.8374" lon="0.50344">
        <ele>1911.323</ele>
        <time>2022-02-27T11:11:40Z</time>
      </trkpt>
      <trkpt lat="42.8374" lon="0.50344">
        <ele>1911.327</ele>
        <time>2022-02-27T11:11:42Z</time>
      </trkpt>
      <trkpt lat="42.8374" lon="0.50344">
        <ele>1911.326</ele>
        <time>2022-02-27T11:11:44Z</time>
      </trkpt>
      <trkpt lat="42.8374" lon="0.50344">
        <ele>1911.325</ele>
        <time>2022-02-27T11:11:46Z</time>
      </trkpt>
      <trkpt lat="42.8374" lon="0.50344">
        <ele>1911.322</ele>
        <time>2022-02-27T11:11:48Z</time>
      </trkpt>
      <trkpt lat="42.8374" lon="0.50344">
        <ele>1911.321</ele>
        <time>2022-02-27T11:11:50Z</time>
      </trkpt>
      <trkpt lat="42.8374" lon="0.50344">
        <ele>1911.318</ele>
        <time>2022-02-27T11:11:52Z</time>
      </trkpt>
      <trkpt lat="42.8374" lon="0.50344">
        <ele>1911.309</ele>
        <time>2022-02-27T11:11:54Z</time>
      </trkpt>
      <trkpt lat="42.8374" lon="0.50344">
        <ele>1911.305</ele>
        <time>2022-02-27T11:11:56Z</time>
      </trkpt>
      <trkpt lat="42.8374" lon="0.50344">
        <ele>1911.3</ele>
        <time>2022-02-27T11:11:58Z</time>
      </trkpt>
      <trkpt lat="42.8374" lon="0.50344">
        <ele>1911.301</ele>
        <time>2022-02-27T11:12:00Z</time>
      </trkpt>
      <trkpt lat="42.8374" lon="0.50344">
        <ele>1911.299</ele>
        <time>2022-02-27T11:12:02Z</time>
      </trkpt>
      <trkpt lat="42.8374" lon="0.50344">
        <ele>1911.289</ele>
        <time>2022-02-27T11:12:04Z</time>
      </trkpt>
      <trkpt lat="42.8374" lon="0.50344">
        <ele>1911.281</ele>
        <time>2022-02-27T11:12:06Z</time>
      </trkpt>
      <trkpt lat="42.8374" lon="0.50344">
        <ele>1911.283</ele>
        <time>2022-02-27T11:12:08Z</time>
      </trkpt>
      <trkpt lat="42.8374" lon="0.50344">
        <ele>1911.282</ele>
        <time>2022-02-27T11:12:10Z</time>
      </trkpt>
      <trkpt lat="42.8374" lon="0.50344">
        <ele>1911.406</ele>
        <time>2022-02-27T11:12:12Z</time>
      </trkpt>
      <trkpt lat="42.83739" lon="0.50344">
        <ele>1911.116</ele>
        <time>2022-02-27T11:12:14Z</time>
      </trkpt>
      <trkpt lat="42.83739" lon="0.50344">
        <ele>1911.107</ele>
        <time>2022-02-27T11:12:16Z</time>
      </trkpt>
      <trkpt lat="42.83739" lon="0.50344">
        <ele>1911.105</ele>
        <time>2022-02-27T11:12:18Z</time>
      </trkpt>
      <trkpt lat="42.83739" lon="0.50344">
        <ele>1911.102</ele>
        <time>2022-02-27T11:12:20Z</time>
      </trkpt>
      <trkpt lat="42.83739" lon="0.50344">
        <ele>1911.101</ele>
        <time>2022-02-27T11:12:22Z</time>
      </trkpt>
      <trkpt lat="42.83739" lon="0.50344">
        <ele>1911.101</ele>
        <time>2022-02-27T11:12:24Z</time>
      </trkpt>
      <trkpt lat="42.83739" lon="0.50344">
        <ele>1911.097</ele>
        <time>2022-02-27T11:12:26Z</time>
      </trkpt>
      <trkpt lat="42.83738" lon="0.50344">
        <ele>1911.096</ele>
        <time>2022-02-27T11:12:28Z</time>
      </trkpt>
      <trkpt lat="42.83738" lon="0.50344">
        <ele>1911.093</ele>
        <time>2022-02-27T11:12:30Z</time>
      </trkpt>
      <trkpt lat="42.83738" lon="0.50344">
        <ele>1911.09</ele>
        <time>2022-02-27T11:12:32Z</time>
      </trkpt>
      <trkpt lat="42.83738" lon="0.50344">
        <ele>1911.086</ele>
        <time>2022-02-27T11:12:34Z</time>
      </trkpt>
      <trkpt lat="42.83738" lon="0.50344">
        <ele>1911.081</ele>
        <time>2022-02-27T11:12:36Z</time>
      </trkpt>
      <trkpt lat="42.83739" lon="0.50344">
        <ele>1910.849</ele>
        <time>2022-02-27T11:12:38Z</time>
      </trkpt>
      <trkpt lat="42.83739" lon="0.50344">
        <ele>1911.034</ele>
        <time>2022-02-27T11:12:40Z</time>
      </trkpt>
      <trkpt lat="42.83739" lon="0.50344">
        <ele>1910.913</ele>
        <time>2022-02-27T11:12:42Z</time>
      </trkpt>
      <trkpt lat="42.83739" lon="0.50344">
        <ele>1910.913</ele>
        <time>2022-02-27T11:12:44Z</time>
      </trkpt>
      <trkpt lat="42.83739" lon="0.50344">
        <ele>1910.913</ele>
        <time>2022-02-27T11:12:46Z</time>
      </trkpt>
      <trkpt lat="42.83739" lon="0.50344">
        <ele>1910.912</ele>
        <time>2022-02-27T11:12:48Z</time>
      </trkpt>
      <trkpt lat="42.83739" lon="0.50344">
        <ele>1910.908</ele>
        <time>2022-02-27T11:12:50Z</time>
      </trkpt>
      <trkpt lat="42.83739" lon="0.50344">
        <ele>1910.907</ele>
        <time>2022-02-27T11:12:52Z</time>
      </trkpt>
      <trkpt lat="42.83739" lon="0.50344">
        <ele>1910.902</ele>
        <time>2022-02-27T11:12:54Z</time>
      </trkpt>
      <trkpt lat="42.83739" lon="0.50344">
        <ele>1910.901</ele>
        <time>2022-02-27T11:12:56Z</time>
      </trkpt>
      <trkpt lat="42.83739" lon="0.50344">
        <ele>1910.902</ele>
        <time>2022-02-27T11:12:58Z</time>
      </trkpt>
      <trkpt lat="42.83739" lon="0.50344">
        <ele>1910.902</ele>
        <time>2022-02-27T11:13:00Z</time>
      </trkpt>
      <trkpt lat="42.83739" lon="0.50344">
        <ele>1910.903</ele>
        <time>2022-02-27T11:13:02Z</time>
      </trkpt>
      <trkpt lat="42.83739" lon="0.50344">
        <ele>1910.9</ele>
        <time>2022-02-27T11:13:04Z</time>
      </trkpt>
      <trkpt lat="42.83739" lon="0.50344">
        <ele>1910.888</ele>
        <time>2022-02-27T11:13:06Z</time>
      </trkpt>
      <trkpt lat="42.83739" lon="0.50344">
        <ele>1910.883</ele>
        <time>2022-02-27T11:13:08Z</time>
      </trkpt>
      <trkpt lat="42.83739" lon="0.50344">
        <ele>1910.881</ele>
        <time>2022-02-27T11:13:10Z</time>
      </trkpt>
      <trkpt lat="42.83739" lon="0.50344">
        <ele>1910.877</ele>
        <time>2022-02-27T11:13:12Z</time>
      </trkpt>
      <trkpt lat="42.83739" lon="0.50344">
        <ele>1910.829</ele>
        <time>2022-02-27T11:13:14Z</time>
      </trkpt>
      <trkpt lat="42.83739" lon="0.50344">
        <ele>1910.83</ele>
        <time>2022-02-27T11:13:16Z</time>
      </trkpt>
      <trkpt lat="42.83739" lon="0.50343">
        <ele>1910.959</ele>
        <time>2022-02-27T11:13:18Z</time>
      </trkpt>
      <trkpt lat="42.83739" lon="0.50343">
        <ele>1910.951</ele>
        <time>2022-02-27T11:13:20Z</time>
      </trkpt>
      <trkpt lat="42.83739" lon="0.50343">
        <ele>1910.948</ele>
        <time>2022-02-27T11:13:22Z</time>
      </trkpt>
      <trkpt lat="42.83739" lon="0.50343">
        <ele>1910.951</ele>
        <time>2022-02-27T11:13:24Z</time>
      </trkpt>
      <trkpt lat="42.83739" lon="0.50343">
        <ele>1910.954</ele>
        <time>2022-02-27T11:13:26Z</time>
      </trkpt>
      <trkpt lat="42.83738" lon="0.50343">
        <ele>1911.02</ele>
        <time>2022-02-27T11:13:28Z</time>
      </trkpt>
      <trkpt lat="42.83738" lon="0.50343">
        <ele>1910.284</ele>
        <time>2022-02-27T11:13:30Z</time>
      </trkpt>
      <trkpt lat="42.83737" lon="0.50342">
        <ele>1910.562</ele>
        <time>2022-02-27T11:13:32Z</time>
      </trkpt>
      <trkpt lat="42.83736" lon="0.5034">
        <ele>1910.558</ele>
        <time>2022-02-27T11:13:34Z</time>
      </trkpt>
      <trkpt lat="42.83736" lon="0.50339">
        <ele>1910.522</ele>
        <time>2022-02-27T11:13:36Z</time>
      </trkpt>
      <trkpt lat="42.83736" lon="0.50337">
        <ele>1910.787</ele>
        <time>2022-02-27T11:13:38Z</time>
      </trkpt>
      <trkpt lat="42.83735" lon="0.50336">
        <ele>1910.068</ele>
        <time>2022-02-27T11:13:40Z</time>
      </trkpt>
      <trkpt lat="42.83735" lon="0.50334">
        <ele>1910.445</ele>
        <time>2022-02-27T11:13:42Z</time>
      </trkpt>
      <trkpt lat="42.83734" lon="0.50333">
        <ele>1909.81</ele>
        <time>2022-02-27T11:13:44Z</time>
      </trkpt>
      <trkpt lat="42.83734" lon="0.50332">
        <ele>1909.411</ele>
        <time>2022-02-27T11:13:46Z</time>
      </trkpt>
      <trkpt lat="42.83733" lon="0.5033">
        <ele>1910.411</ele>
        <time>2022-02-27T11:13:48Z</time>
      </trkpt>
      <trkpt lat="42.83733" lon="0.50328">
        <ele>1910.522</ele>
        <time>2022-02-27T11:13:50Z</time>
      </trkpt>
      <trkpt lat="42.83731" lon="0.50324">
        <ele>1911.329</ele>
        <time>2022-02-27T11:13:52Z</time>
      </trkpt>
      <trkpt lat="42.83731" lon="0.50324">
        <ele>1910.685</ele>
        <time>2022-02-27T11:13:54Z</time>
      </trkpt>
      <trkpt lat="42.83731" lon="0.50325">
        <ele>1911.201</ele>
        <time>2022-02-27T11:13:56Z</time>
      </trkpt>
      <trkpt lat="42.83731" lon="0.50325">
        <ele>1911.206</ele>
        <time>2022-02-27T11:13:58Z</time>
      </trkpt>
      <trkpt lat="42.83731" lon="0.50325">
        <ele>1911.201</ele>
        <time>2022-02-27T11:14:00Z</time>
      </trkpt>
      <trkpt lat="42.83731" lon="0.50325">
        <ele>1911.204</ele>
        <time>2022-02-27T11:14:02Z</time>
      </trkpt>
      <trkpt lat="42.83731" lon="0.50325">
        <ele>1911.199</ele>
        <time>2022-02-27T11:14:04Z</time>
      </trkpt>
      <trkpt lat="42.83731" lon="0.50325">
        <ele>1911.194</ele>
        <time>2022-02-27T11:14:06Z</time>
      </trkpt>
      <trkpt lat="42.83731" lon="0.50325">
        <ele>1911.19</ele>
        <time>2022-02-27T11:14:08Z</time>
      </trkpt>
      <trkpt lat="42.83731" lon="0.50325">
        <ele>1911.178</ele>
        <time>2022-02-27T11:14:10Z</time>
      </trkpt>
      <trkpt lat="42.83731" lon="0.50325">
        <ele>1911.181</ele>
        <time>2022-02-27T11:14:12Z</time>
      </trkpt>
      <trkpt lat="42.83731" lon="0.50325">
        <ele>1911.184</ele>
        <time>2022-02-27T11:14:14Z</time>
      </trkpt>
      <trkpt lat="42.83731" lon="0.50325">
        <ele>1911.182</ele>
        <time>2022-02-27T11:14:16Z</time>
      </trkpt>
      <trkpt lat="42.83731" lon="0.50325">
        <ele>1911.179</ele>
        <time>2022-02-27T11:14:18Z</time>
      </trkpt>
      <trkpt lat="42.83731" lon="0.50325">
        <ele>1911.174</ele>
        <time>2022-02-27T11:14:20Z</time>
      </trkpt>
      <trkpt lat="42.83731" lon="0.50326">
        <ele>1911.267</ele>
        <time>2022-02-27T11:14:22Z</time>
      </trkpt>
      <trkpt lat="42.83731" lon="0.50326">
        <ele>1911.073</ele>
        <time>2022-02-27T11:14:24Z</time>
      </trkpt>
      <trkpt lat="42.83731" lon="0.50326">
        <ele>1911.064</ele>
        <time>2022-02-27T11:14:26Z</time>
      </trkpt>
      <trkpt lat="42.83731" lon="0.50326">
        <ele>1911.081</ele>
        <time>2022-02-27T11:14:28Z</time>
      </trkpt>
      <trkpt lat="42.83731" lon="0.50326">
        <ele>1910.864</ele>
        <time>2022-02-27T11:14:30Z</time>
      </trkpt>
      <trkpt lat="42.83731" lon="0.50326">
        <ele>1910.85</ele>
        <time>2022-02-27T11:14:32Z</time>
      </trkpt>
      <trkpt lat="42.83731" lon="0.50326">
        <ele>1910.859</ele>
        <time>2022-02-27T11:14:34Z</time>
      </trkpt>
      <trkpt lat="42.83731" lon="0.50326">
        <ele>1910.474</ele>
        <time>2022-02-27T11:14:36Z</time>
      </trkpt>
      <trkpt lat="42.83731" lon="0.50326">
        <ele>1910.462</ele>
        <time>2022-02-27T11:14:38Z</time>
      </trkpt>
      <trkpt lat="42.83731" lon="0.50326">
        <ele>1910.456</ele>
        <time>2022-02-27T11:14:40Z</time>
      </trkpt>
      <trkpt lat="42.83731" lon="0.50326">
        <ele>1910.462</ele>
        <time>2022-02-27T11:14:42Z</time>
      </trkpt>
      <trkpt lat="42.83731" lon="0.50326">
        <ele>1910.34</ele>
        <time>2022-02-27T11:14:44Z</time>
      </trkpt>
      <trkpt lat="42.83731" lon="0.50326">
        <ele>1910.33</ele>
        <time>2022-02-27T11:14:46Z</time>
      </trkpt>
      <trkpt lat="42.83731" lon="0.50326">
        <ele>1910.332</ele>
        <time>2022-02-27T11:14:48Z</time>
      </trkpt>
      <trkpt lat="42.83731" lon="0.50326">
        <ele>1910.324</ele>
        <time>2022-02-27T11:14:50Z</time>
      </trkpt>
      <trkpt lat="42.83731" lon="0.50327">
        <ele>1910.28</ele>
        <time>2022-02-27T11:14:52Z</time>
      </trkpt>
      <trkpt lat="42.83732" lon="0.50327">
        <ele>1910.275</ele>
        <time>2022-02-27T11:14:54Z</time>
      </trkpt>
      <trkpt lat="42.83732" lon="0.50327">
        <ele>1910.271</ele>
        <time>2022-02-27T11:14:56Z</time>
      </trkpt>
      <trkpt lat="42.83732" lon="0.50327">
        <ele>1910.285</ele>
        <time>2022-02-27T11:14:58Z</time>
      </trkpt>
      <trkpt lat="42.83732" lon="0.50328">
        <ele>1910.097</ele>
        <time>2022-02-27T11:15:00Z</time>
      </trkpt>
      <trkpt lat="42.83732" lon="0.50329">
        <ele>1909.855</ele>
        <time>2022-02-27T11:15:02Z</time>
      </trkpt>
      <trkpt lat="42.83733" lon="0.50331">
        <ele>1909.801</ele>
        <time>2022-02-27T11:15:04Z</time>
      </trkpt>
      <trkpt lat="42.83738" lon="0.5033">
        <ele>1910.011</ele>
        <time>2022-02-27T11:15:06Z</time>
      </trkpt>
      <trkpt lat="42.83738" lon="0.50333">
        <ele>1909.563</ele>
        <time>2022-02-27T11:15:08Z</time>
      </trkpt>
      <trkpt lat="42.83738" lon="0.50335">
        <ele>1909.271</ele>
        <time>2022-02-27T11:15:10Z</time>
      </trkpt>
      <trkpt lat="42.83739" lon="0.50337">
        <ele>1909.958</ele>
        <time>2022-02-27T11:15:12Z</time>
      </trkpt>
      <trkpt lat="42.83739" lon="0.50339">
        <ele>1910.082</ele>
        <time>2022-02-27T11:15:14Z</time>
      </trkpt>
      <trkpt lat="42.8374" lon="0.50341">
        <ele>1910.185</ele>
        <time>2022-02-27T11:15:16Z</time>
      </trkpt>
      <trkpt lat="42.8374" lon="0.50342">
        <ele>1910.183</ele>
        <time>2022-02-27T11:15:18Z</time>
      </trkpt>
      <trkpt lat="42.83741" lon="0.50342">
        <ele>1910.233</ele>
        <time>2022-02-27T11:15:20Z</time>
      </trkpt>
      <trkpt lat="42.83741" lon="0.50342">
        <ele>1910.166</ele>
        <time>2022-02-27T11:15:22Z</time>
      </trkpt>
      <trkpt lat="42.83741" lon="0.50342">
        <ele>1910.009</ele>
        <time>2022-02-27T11:15:24Z</time>
      </trkpt>
      <trkpt lat="42.83742" lon="0.50343">
        <ele>1910.832</ele>
        <time>2022-02-27T11:15:26Z</time>
      </trkpt>
      <trkpt lat="42.83742" lon="0.50344">
        <ele>1911.291</ele>
        <time>2022-02-27T11:15:28Z</time>
      </trkpt>
      <trkpt lat="42.83743" lon="0.50345">
        <ele>1911.038</ele>
        <time>2022-02-27T11:15:30Z</time>
      </trkpt>
      <trkpt lat="42.83743" lon="0.50345">
        <ele>1911.078</ele>
        <time>2022-02-27T11:15:32Z</time>
      </trkpt>
      <trkpt lat="42.83743" lon="0.50345">
        <ele>1910.974</ele>
        <time>2022-02-27T11:15:34Z</time>
      </trkpt>
      <trkpt lat="42.83744" lon="0.50347">
        <ele>1910.961</ele>
        <time>2022-02-27T11:15:36Z</time>
      </trkpt>
      <trkpt lat="42.83745" lon="0.50348">
        <ele>1911.075</ele>
        <time>2022-02-27T11:15:38Z</time>
      </trkpt>
      <trkpt lat="42.83746" lon="0.50349">
        <ele>1910.633</ele>
        <time>2022-02-27T11:15:40Z</time>
      </trkpt>
      <trkpt lat="42.83747" lon="0.50351">
        <ele>1910.298</ele>
        <time>2022-02-27T11:15:42Z</time>
      </trkpt>
      <trkpt lat="42.83748" lon="0.50352">
        <ele>1909.814</ele>
        <time>2022-02-27T11:15:44Z</time>
      </trkpt>
      <trkpt lat="42.83749" lon="0.50354">
        <ele>1908.866</ele>
        <time>2022-02-27T11:15:46Z</time>
      </trkpt>
      <trkpt lat="42.8375" lon="0.50356">
        <ele>1908.869</ele>
        <time>2022-02-27T11:15:48Z</time>
      </trkpt>
      <trkpt lat="42.83751" lon="0.50358">
        <ele>1908.802</ele>
        <time>2022-02-27T11:15:50Z</time>
      </trkpt>
      <trkpt lat="42.83752" lon="0.5036">
        <ele>1908.614</ele>
        <time>2022-02-27T11:15:52Z</time>
      </trkpt>
      <trkpt lat="42.83753" lon="0.50363">
        <ele>1908.396</ele>
        <time>2022-02-27T11:15:54Z</time>
      </trkpt>
      <trkpt lat="42.83755" lon="0.50365">
        <ele>1908.654</ele>
        <time>2022-02-27T11:15:56Z</time>
      </trkpt>
      <trkpt lat="42.83756" lon="0.50367">
        <ele>1907.947</ele>
        <time>2022-02-27T11:15:58Z</time>
      </trkpt>
      <trkpt lat="42.83757" lon="0.50368">
        <ele>1907.059</ele>
        <time>2022-02-27T11:16:00Z</time>
      </trkpt>
      <trkpt lat="42.83759" lon="0.5037">
        <ele>1906.948</ele>
        <time>2022-02-27T11:16:02Z</time>
      </trkpt>
      <trkpt lat="42.8376" lon="0.50372">
        <ele>1906.7</ele>
        <time>2022-02-27T11:16:04Z</time>
      </trkpt>
      <trkpt lat="42.83762" lon="0.50374">
        <ele>1906.889</ele>
        <time>2022-02-27T11:16:06Z</time>
      </trkpt>
      <trkpt lat="42.83763" lon="0.50377">
        <ele>1906.854</ele>
        <time>2022-02-27T11:16:08Z</time>
      </trkpt>
      <trkpt lat="42.83765" lon="0.50379">
        <ele>1906.337</ele>
        <time>2022-02-27T11:16:10Z</time>
      </trkpt>
      <trkpt lat="42.83766" lon="0.50381">
        <ele>1906.543</ele>
        <time>2022-02-27T11:16:12Z</time>
      </trkpt>
      <trkpt lat="42.83768" lon="0.50382">
        <ele>1906.379</ele>
        <time>2022-02-27T11:16:14Z</time>
      </trkpt>
      <trkpt lat="42.8377" lon="0.50383">
        <ele>1905.741</ele>
        <time>2022-02-27T11:16:16Z</time>
      </trkpt>
      <trkpt lat="42.83771" lon="0.50384">
        <ele>1905.659</ele>
        <time>2022-02-27T11:16:18Z</time>
      </trkpt>
      <trkpt lat="42.83773" lon="0.50385">
        <ele>1905.49</ele>
        <time>2022-02-27T11:16:20Z</time>
      </trkpt>
      <trkpt lat="42.83775" lon="0.50386">
        <ele>1906.033</ele>
        <time>2022-02-27T11:16:22Z</time>
      </trkpt>
      <trkpt lat="42.83776" lon="0.50387">
        <ele>1905.705</ele>
        <time>2022-02-27T11:16:24Z</time>
      </trkpt>
      <trkpt lat="42.83778" lon="0.50388">
        <ele>1904.487</ele>
        <time>2022-02-27T11:16:26Z</time>
      </trkpt>
      <trkpt lat="42.8378" lon="0.50389">
        <ele>1904.562</ele>
        <time>2022-02-27T11:16:28Z</time>
      </trkpt>
      <trkpt lat="42.83782" lon="0.5039">
        <ele>1904.744</ele>
        <time>2022-02-27T11:16:30Z</time>
      </trkpt>
      <trkpt lat="42.83784" lon="0.50392">
        <ele>1904.173</ele>
        <time>2022-02-27T11:16:32Z</time>
      </trkpt>
      <trkpt lat="42.83785" lon="0.50393">
        <ele>1903.445</ele>
        <time>2022-02-27T11:16:34Z</time>
      </trkpt>
      <trkpt lat="42.83787" lon="0.50394">
        <ele>1904.279</ele>
        <time>2022-02-27T11:16:36Z</time>
      </trkpt>
      <trkpt lat="42.83788" lon="0.50395">
        <ele>1903.921</ele>
        <time>2022-02-27T11:16:38Z</time>
      </trkpt>
      <trkpt lat="42.8379" lon="0.50397">
        <ele>1904.112</ele>
        <time>2022-02-27T11:16:40Z</time>
      </trkpt>
      <trkpt lat="42.83792" lon="0.50399">
        <ele>1904.281</ele>
        <time>2022-02-27T11:16:42Z</time>
      </trkpt>
      <trkpt lat="42.83794" lon="0.504">
        <ele>1903.384</ele>
        <time>2022-02-27T11:16:44Z</time>
      </trkpt>
      <trkpt lat="42.83795" lon="0.50402">
        <ele>1902.484</ele>
        <time>2022-02-27T11:16:46Z</time>
      </trkpt>
      <trkpt lat="42.83796" lon="0.50405">
        <ele>1901.652</ele>
        <time>2022-02-27T11:16:48Z</time>
      </trkpt>
      <trkpt lat="42.83797" lon="0.50407">
        <ele>1900.962</ele>
        <time>2022-02-27T11:16:50Z</time>
      </trkpt>
      <trkpt lat="42.83798" lon="0.50408">
        <ele>1900.321</ele>
        <time>2022-02-27T11:16:52Z</time>
      </trkpt>
      <trkpt lat="42.838" lon="0.5041">
        <ele>1899.817</ele>
        <time>2022-02-27T11:16:54Z</time>
      </trkpt>
      <trkpt lat="42.83801" lon="0.5041">
        <ele>1899.949</ele>
        <time>2022-02-27T11:16:56Z</time>
      </trkpt>
      <trkpt lat="42.83803" lon="0.50412">
        <ele>1899.184</ele>
        <time>2022-02-27T11:16:58Z</time>
      </trkpt>
      <trkpt lat="42.83804" lon="0.50414">
        <ele>1898.894</ele>
        <time>2022-02-27T11:17:00Z</time>
      </trkpt>
      <trkpt lat="42.83806" lon="0.50416">
        <ele>1898.67</ele>
        <time>2022-02-27T11:17:02Z</time>
      </trkpt>
      <trkpt lat="42.83807" lon="0.50419">
        <ele>1898.197</ele>
        <time>2022-02-27T11:17:04Z</time>
      </trkpt>
      <trkpt lat="42.83808" lon="0.50421">
        <ele>1897.403</ele>
        <time>2022-02-27T11:17:06Z</time>
      </trkpt>
      <trkpt lat="42.83809" lon="0.50423">
        <ele>1896.69</ele>
        <time>2022-02-27T11:17:08Z</time>
      </trkpt>
      <trkpt lat="42.8381" lon="0.50425">
        <ele>1896.447</ele>
        <time>2022-02-27T11:17:10Z</time>
      </trkpt>
      <trkpt lat="42.83811" lon="0.50426">
        <ele>1896.101</ele>
        <time>2022-02-27T11:17:12Z</time>
      </trkpt>
      <trkpt lat="42.83812" lon="0.50427">
        <ele>1895.882</ele>
        <time>2022-02-27T11:17:14Z</time>
      </trkpt>
      <trkpt lat="42.83812" lon="0.50429">
        <ele>1895.783</ele>
        <time>2022-02-27T11:17:16Z</time>
      </trkpt>
      <trkpt lat="42.83813" lon="0.50431">
        <ele>1895.607</ele>
        <time>2022-02-27T11:17:18Z</time>
      </trkpt>
      <trkpt lat="42.83814" lon="0.50433">
        <ele>1894.908</ele>
        <time>2022-02-27T11:17:20Z</time>
      </trkpt>
      <trkpt lat="42.83815" lon="0.50435">
        <ele>1894.125</ele>
        <time>2022-02-27T11:17:22Z</time>
      </trkpt>
      <trkpt lat="42.83816" lon="0.50437">
        <ele>1893.847</ele>
        <time>2022-02-27T11:17:24Z</time>
      </trkpt>
      <trkpt lat="42.83817" lon="0.50439">
        <ele>1893.609</ele>
        <time>2022-02-27T11:17:26Z</time>
      </trkpt>
      <trkpt lat="42.83818" lon="0.5044">
        <ele>1893.134</ele>
        <time>2022-02-27T11:17:28Z</time>
      </trkpt>
      <trkpt lat="42.83819" lon="0.50441">
        <ele>1892.879</ele>
        <time>2022-02-27T11:17:30Z</time>
      </trkpt>
      <trkpt lat="42.8382" lon="0.50441">
        <ele>1892.735</ele>
        <time>2022-02-27T11:17:32Z</time>
      </trkpt>
      <trkpt lat="42.8382" lon="0.50441">
        <ele>1892.727</ele>
        <time>2022-02-27T11:17:34Z</time>
      </trkpt>
      <trkpt lat="42.8382" lon="0.50441">
        <ele>1892.658</ele>
        <time>2022-02-27T11:17:36Z</time>
      </trkpt>
      <trkpt lat="42.83821" lon="0.50442">
        <ele>1892.142</ele>
        <time>2022-02-27T11:17:38Z</time>
      </trkpt>
      <trkpt lat="42.83822" lon="0.50443">
        <ele>1892.165</ele>
        <time>2022-02-27T11:17:40Z</time>
      </trkpt>
      <trkpt lat="42.83823" lon="0.50444">
        <ele>1892.77</ele>
        <time>2022-02-27T11:17:42Z</time>
      </trkpt>
      <trkpt lat="42.83824" lon="0.50445">
        <ele>1891.717</ele>
        <time>2022-02-27T11:17:44Z</time>
      </trkpt>
      <trkpt lat="42.83826" lon="0.50446">
        <ele>1891.455</ele>
        <time>2022-02-27T11:17:46Z</time>
      </trkpt>
      <trkpt lat="42.83827" lon="0.50447">
        <ele>1891.402</ele>
        <time>2022-02-27T11:17:48Z</time>
      </trkpt>
      <trkpt lat="42.83827" lon="0.50448">
        <ele>1891.233</ele>
        <time>2022-02-27T11:17:50Z</time>
      </trkpt>
      <trkpt lat="42.83829" lon="0.50448">
        <ele>1891.01</ele>
        <time>2022-02-27T11:17:52Z</time>
      </trkpt>
      <trkpt lat="42.83831" lon="0.50448">
        <ele>1890.953</ele>
        <time>2022-02-27T11:17:54Z</time>
      </trkpt>
      <trkpt lat="42.83832" lon="0.50448">
        <ele>1890.498</ele>
        <time>2022-02-27T11:17:56Z</time>
      </trkpt>
      <trkpt lat="42.83834" lon="0.50449">
        <ele>1889.809</ele>
        <time>2022-02-27T11:17:58Z</time>
      </trkpt>
      <trkpt lat="42.83835" lon="0.50449">
        <ele>1889.834</ele>
        <time>2022-02-27T11:18:00Z</time>
      </trkpt>
      <trkpt lat="42.83836" lon="0.5045">
        <ele>1890.032</ele>
        <time>2022-02-27T11:18:02Z</time>
      </trkpt>
      <trkpt lat="42.83836" lon="0.5045">
        <ele>1889.111</ele>
        <time>2022-02-27T11:18:04Z</time>
      </trkpt>
      <trkpt lat="42.83838" lon="0.5045">
        <ele>1888.926</ele>
        <time>2022-02-27T11:18:06Z</time>
      </trkpt>
      <trkpt lat="42.8384" lon="0.5045">
        <ele>1888.808</ele>
        <time>2022-02-27T11:18:08Z</time>
      </trkpt>
      <trkpt lat="42.83841" lon="0.50451">
        <ele>1888.013</ele>
        <time>2022-02-27T11:18:10Z</time>
      </trkpt>
      <trkpt lat="42.83843" lon="0.50451">
        <ele>1887.655</ele>
        <time>2022-02-27T11:18:12Z</time>
      </trkpt>
      <trkpt lat="42.83844" lon="0.50451">
        <ele>1887.467</ele>
        <time>2022-02-27T11:18:14Z</time>
      </trkpt>
      <trkpt lat="42.83845" lon="0.50452">
        <ele>1887.017</ele>
        <time>2022-02-27T11:18:16Z</time>
      </trkpt>
      <trkpt lat="42.83846" lon="0.50453">
        <ele>1886.558</ele>
        <time>2022-02-27T11:18:18Z</time>
      </trkpt>
      <trkpt lat="42.83847" lon="0.50454">
        <ele>1886.278</ele>
        <time>2022-02-27T11:18:20Z</time>
      </trkpt>
      <trkpt lat="42.83848" lon="0.50456">
        <ele>1885.681</ele>
        <time>2022-02-27T11:18:22Z</time>
      </trkpt>
      <trkpt lat="42.83847" lon="0.50456">
        <ele>1885.674</ele>
        <time>2022-02-27T11:18:24Z</time>
      </trkpt>
      <trkpt lat="42.83847" lon="0.50456">
        <ele>1885.681</ele>
        <time>2022-02-27T11:18:26Z</time>
      </trkpt>
      <trkpt lat="42.83847" lon="0.50456">
        <ele>1885.669</ele>
        <time>2022-02-27T11:18:28Z</time>
      </trkpt>
      <trkpt lat="42.83848" lon="0.50456">
        <ele>1885.452</ele>
        <time>2022-02-27T11:18:30Z</time>
      </trkpt>
      <trkpt lat="42.83849" lon="0.50456">
        <ele>1884.452</ele>
        <time>2022-02-27T11:18:32Z</time>
      </trkpt>
      <trkpt lat="42.8385" lon="0.50457">
        <ele>1883.975</ele>
        <time>2022-02-27T11:18:34Z</time>
      </trkpt>
      <trkpt lat="42.83851" lon="0.50459">
        <ele>1883.648</ele>
        <time>2022-02-27T11:18:36Z</time>
      </trkpt>
      <trkpt lat="42.83852" lon="0.50461">
        <ele>1882.58</ele>
        <time>2022-02-27T11:18:38Z</time>
      </trkpt>
      <trkpt lat="42.83852" lon="0.50463">
        <ele>1882.57</ele>
        <time>2022-02-27T11:18:40Z</time>
      </trkpt>
      <trkpt lat="42.83852" lon="0.50465">
        <ele>1881.748</ele>
        <time>2022-02-27T11:18:42Z</time>
      </trkpt>
      <trkpt lat="42.83852" lon="0.50466">
        <ele>1881.258</ele>
        <time>2022-02-27T11:18:44Z</time>
      </trkpt>
      <trkpt lat="42.83854" lon="0.50467">
        <ele>1881.134</ele>
        <time>2022-02-27T11:18:46Z</time>
      </trkpt>
      <trkpt lat="42.83855" lon="0.50467">
        <ele>1880.05</ele>
        <time>2022-02-27T11:18:48Z</time>
      </trkpt>
      <trkpt lat="42.83856" lon="0.50467">
        <ele>1880.213</ele>
        <time>2022-02-27T11:18:50Z</time>
      </trkpt>
      <trkpt lat="42.83856" lon="0.50467">
        <ele>1879.01</ele>
        <time>2022-02-27T11:18:52Z</time>
      </trkpt>
      <trkpt lat="42.83857" lon="0.50468">
        <ele>1877.822</ele>
        <time>2022-02-27T11:18:54Z</time>
      </trkpt>
      <trkpt lat="42.83858" lon="0.50469">
        <ele>1876.854</ele>
        <time>2022-02-27T11:18:56Z</time>
      </trkpt>
      <trkpt lat="42.83859" lon="0.5047">
        <ele>1876.315</ele>
        <time>2022-02-27T11:18:58Z</time>
      </trkpt>
      <trkpt lat="42.8386" lon="0.5047">
        <ele>1876.723</ele>
        <time>2022-02-27T11:19:00Z</time>
      </trkpt>
      <trkpt lat="42.83862" lon="0.50471">
        <ele>1876.513</ele>
        <time>2022-02-27T11:19:02Z</time>
      </trkpt>
      <trkpt lat="42.83863" lon="0.50472">
        <ele>1876.149</ele>
        <time>2022-02-27T11:19:04Z</time>
      </trkpt>
      <trkpt lat="42.83864" lon="0.50473">
        <ele>1875.967</ele>
        <time>2022-02-27T11:19:06Z</time>
      </trkpt>
      <trkpt lat="42.83865" lon="0.50474">
        <ele>1875.778</ele>
        <time>2022-02-27T11:19:08Z</time>
      </trkpt>
      <trkpt lat="42.83867" lon="0.50474">
        <ele>1875.292</ele>
        <time>2022-02-27T11:19:10Z</time>
      </trkpt>
      <trkpt lat="42.83868" lon="0.50473">
        <ele>1875.088</ele>
        <time>2022-02-27T11:19:12Z</time>
      </trkpt>
      <trkpt lat="42.83868" lon="0.50473">
        <ele>1874.901</ele>
        <time>2022-02-27T11:19:14Z</time>
      </trkpt>
      <trkpt lat="42.8387" lon="0.50473">
        <ele>1874.266</ele>
        <time>2022-02-27T11:19:16Z</time>
      </trkpt>
      <trkpt lat="42.83871" lon="0.50474">
        <ele>1873.775</ele>
        <time>2022-02-27T11:19:18Z</time>
      </trkpt>
      <trkpt lat="42.83872" lon="0.50474">
        <ele>1873.613</ele>
        <time>2022-02-27T11:19:20Z</time>
      </trkpt>
      <trkpt lat="42.83874" lon="0.50475">
        <ele>1872.603</ele>
        <time>2022-02-27T11:19:22Z</time>
      </trkpt>
      <trkpt lat="42.83875" lon="0.50475">
        <ele>1872.314</ele>
        <time>2022-02-27T11:19:24Z</time>
      </trkpt>
      <trkpt lat="42.83876" lon="0.50474">
        <ele>1871.126</ele>
        <time>2022-02-27T11:19:26Z</time>
      </trkpt>
      <trkpt lat="42.83878" lon="0.50473">
        <ele>1870.933</ele>
        <time>2022-02-27T11:19:28Z</time>
      </trkpt>
      <trkpt lat="42.83879" lon="0.50473">
        <ele>1870.642</ele>
        <time>2022-02-27T11:19:30Z</time>
      </trkpt>
      <trkpt lat="42.8388" lon="0.50473">
        <ele>1871.103</ele>
        <time>2022-02-27T11:19:32Z</time>
      </trkpt>
      <trkpt lat="42.83882" lon="0.50474">
        <ele>1871.453</ele>
        <time>2022-02-27T11:19:34Z</time>
      </trkpt>
      <trkpt lat="42.83883" lon="0.50475">
        <ele>1870.535</ele>
        <time>2022-02-27T11:19:36Z</time>
      </trkpt>
      <trkpt lat="42.83884" lon="0.50476">
        <ele>1870.64</ele>
        <time>2022-02-27T11:19:38Z</time>
      </trkpt>
      <trkpt lat="42.83885" lon="0.50477">
        <ele>1870.504</ele>
        <time>2022-02-27T11:19:40Z</time>
      </trkpt>
      <trkpt lat="42.83886" lon="0.50478">
        <ele>1869.691</ele>
        <time>2022-02-27T11:19:42Z</time>
      </trkpt>
      <trkpt lat="42.83886" lon="0.50478">
        <ele>1869.451</ele>
        <time>2022-02-27T11:19:44Z</time>
      </trkpt>
      <trkpt lat="42.83886" lon="0.50478">
        <ele>1869.452</ele>
        <time>2022-02-27T11:19:46Z</time>
      </trkpt>
      <trkpt lat="42.83886" lon="0.50478">
        <ele>1869.444</ele>
        <time>2022-02-27T11:19:48Z</time>
      </trkpt>
      <trkpt lat="42.83886" lon="0.50478">
        <ele>1869.443</ele>
        <time>2022-02-27T11:19:50Z</time>
      </trkpt>
      <trkpt lat="42.83886" lon="0.50478">
        <ele>1869.441</ele>
        <time>2022-02-27T11:19:52Z</time>
      </trkpt>
      <trkpt lat="42.83886" lon="0.50478">
        <ele>1869.434</ele>
        <time>2022-02-27T11:19:54Z</time>
      </trkpt>
      <trkpt lat="42.83886" lon="0.50478">
        <ele>1869.431</ele>
        <time>2022-02-27T11:19:56Z</time>
      </trkpt>
      <trkpt lat="42.83886" lon="0.50478">
        <ele>1869.427</ele>
        <time>2022-02-27T11:19:58Z</time>
      </trkpt>
      <trkpt lat="42.83886" lon="0.50478">
        <ele>1869.422</ele>
        <time>2022-02-27T11:20:00Z</time>
      </trkpt>
      <trkpt lat="42.83886" lon="0.50478">
        <ele>1869.418</ele>
        <time>2022-02-27T11:20:02Z</time>
      </trkpt>
      <trkpt lat="42.83886" lon="0.50478">
        <ele>1869.416</ele>
        <time>2022-02-27T11:20:04Z</time>
      </trkpt>
      <trkpt lat="42.83886" lon="0.50478">
        <ele>1869.695</ele>
        <time>2022-02-27T11:20:06Z</time>
      </trkpt>
      <trkpt lat="42.83886" lon="0.50478">
        <ele>1869.709</ele>
        <time>2022-02-27T11:20:08Z</time>
      </trkpt>
      <trkpt lat="42.83886" lon="0.50478">
        <ele>1869.71</ele>
        <time>2022-02-27T11:20:10Z</time>
      </trkpt>
      <trkpt lat="42.83887" lon="0.50478">
        <ele>1869.812</ele>
        <time>2022-02-27T11:20:12Z</time>
      </trkpt>
      <trkpt lat="42.83888" lon="0.5048">
        <ele>1869.329</ele>
        <time>2022-02-27T11:20:14Z</time>
      </trkpt>
      <trkpt lat="42.83889" lon="0.5048">
        <ele>1868.702</ele>
        <time>2022-02-27T11:20:16Z</time>
      </trkpt>
      <trkpt lat="42.8389" lon="0.50481">
        <ele>1868.338</ele>
        <time>2022-02-27T11:20:18Z</time>
      </trkpt>
      <trkpt lat="42.83891" lon="0.50483">
        <ele>1867.714</ele>
        <time>2022-02-27T11:20:20Z</time>
      </trkpt>
      <trkpt lat="42.83892" lon="0.50484">
        <ele>1867.475</ele>
        <time>2022-02-27T11:20:22Z</time>
      </trkpt>
      <trkpt lat="42.83892" lon="0.50485">
        <ele>1866.982</ele>
        <time>2022-02-27T11:20:24Z</time>
      </trkpt>
      <trkpt lat="42.83893" lon="0.50487">
        <ele>1865.853</ele>
        <time>2022-02-27T11:20:26Z</time>
      </trkpt>
      <trkpt lat="42.83893" lon="0.50489">
        <ele>1866.03</ele>
        <time>2022-02-27T11:20:28Z</time>
      </trkpt>
      <trkpt lat="42.83894" lon="0.5049">
        <ele>1866.049</ele>
        <time>2022-02-27T11:20:30Z</time>
      </trkpt>
      <trkpt lat="42.83894" lon="0.5049">
        <ele>1866.595</ele>
        <time>2022-02-27T11:20:32Z</time>
      </trkpt>
      <trkpt lat="42.83895" lon="0.50491">
        <ele>1866.006</ele>
        <time>2022-02-27T11:20:34Z</time>
      </trkpt>
      <trkpt lat="42.83897" lon="0.50493">
        <ele>1865.615</ele>
        <time>2022-02-27T11:20:36Z</time>
      </trkpt>
      <trkpt lat="42.83897" lon="0.50495">
        <ele>1865.488</ele>
        <time>2022-02-27T11:20:38Z</time>
      </trkpt>
      <trkpt lat="42.83898" lon="0.50496">
        <ele>1864.854</ele>
        <time>2022-02-27T11:20:40Z</time>
      </trkpt>
      <trkpt lat="42.839" lon="0.50497">
        <ele>1865.506</ele>
        <time>2022-02-27T11:20:42Z</time>
      </trkpt>
      <trkpt lat="42.839" lon="0.50498">
        <ele>1864.886</ele>
        <time>2022-02-27T11:20:44Z</time>
      </trkpt>
      <trkpt lat="42.83901" lon="0.50498">
        <ele>1864.212</ele>
        <time>2022-02-27T11:20:46Z</time>
      </trkpt>
      <trkpt lat="42.83902" lon="0.50499">
        <ele>1863.86</ele>
        <time>2022-02-27T11:20:48Z</time>
      </trkpt>
      <trkpt lat="42.83903" lon="0.50501">
        <ele>1863.005</ele>
        <time>2022-02-27T11:20:50Z</time>
      </trkpt>
      <trkpt lat="42.83903" lon="0.50502">
        <ele>1863.634</ele>
        <time>2022-02-27T11:20:52Z</time>
      </trkpt>
      <trkpt lat="42.83903" lon="0.50504">
        <ele>1863.584</ele>
        <time>2022-02-27T11:20:54Z</time>
      </trkpt>
      <trkpt lat="42.83904" lon="0.50505">
        <ele>1863.201</ele>
        <time>2022-02-27T11:20:56Z</time>
      </trkpt>
      <trkpt lat="42.83905" lon="0.50505">
        <ele>1863.185</ele>
        <time>2022-02-27T11:20:58Z</time>
      </trkpt>
      <trkpt lat="42.83906" lon="0.50506">
        <ele>1862.9</ele>
        <time>2022-02-27T11:21:00Z</time>
      </trkpt>
      <trkpt lat="42.83907" lon="0.50506">
        <ele>1862.007</ele>
        <time>2022-02-27T11:21:02Z</time>
      </trkpt>
      <trkpt lat="42.83908" lon="0.50507">
        <ele>1861.301</ele>
        <time>2022-02-27T11:21:04Z</time>
      </trkpt>
      <trkpt lat="42.83908" lon="0.50508">
        <ele>1861.367</ele>
        <time>2022-02-27T11:21:06Z</time>
      </trkpt>
      <trkpt lat="42.8391" lon="0.50508">
        <ele>1861.499</ele>
        <time>2022-02-27T11:21:08Z</time>
      </trkpt>
      <trkpt lat="42.83911" lon="0.50508">
        <ele>1860.54</ele>
        <time>2022-02-27T11:21:10Z</time>
      </trkpt>
      <trkpt lat="42.83912" lon="0.50508">
        <ele>1859.707</ele>
        <time>2022-02-27T11:21:12Z</time>
      </trkpt>
      <trkpt lat="42.83914" lon="0.50509">
        <ele>1859.147</ele>
        <time>2022-02-27T11:21:14Z</time>
      </trkpt>
      <trkpt lat="42.83915" lon="0.5051">
        <ele>1858.691</ele>
        <time>2022-02-27T11:21:16Z</time>
      </trkpt>
      <trkpt lat="42.83916" lon="0.50511">
        <ele>1858.258</ele>
        <time>2022-02-27T11:21:18Z</time>
      </trkpt>
      <trkpt lat="42.83917" lon="0.50512">
        <ele>1858.98</ele>
        <time>2022-02-27T11:21:20Z</time>
      </trkpt>
      <trkpt lat="42.83918" lon="0.50512">
        <ele>1857.75</ele>
        <time>2022-02-27T11:21:22Z</time>
      </trkpt>
      <trkpt lat="42.83918" lon="0.50512">
        <ele>1857.173</ele>
        <time>2022-02-27T11:21:24Z</time>
      </trkpt>
      <trkpt lat="42.83919" lon="0.50513">
        <ele>1856.974</ele>
        <time>2022-02-27T11:21:26Z</time>
      </trkpt>
      <trkpt lat="42.83919" lon="0.50514">
        <ele>1856.462</ele>
        <time>2022-02-27T11:21:28Z</time>
      </trkpt>
      <trkpt lat="42.8392" lon="0.50515">
        <ele>1856.477</ele>
        <time>2022-02-27T11:21:30Z</time>
      </trkpt>
      <trkpt lat="42.83921" lon="0.50516">
        <ele>1856.161</ele>
        <time>2022-02-27T11:21:32Z</time>
      </trkpt>
      <trkpt lat="42.83922" lon="0.50516">
        <ele>1855.383</ele>
        <time>2022-02-27T11:21:34Z</time>
      </trkpt>
      <trkpt lat="42.83924" lon="0.50517">
        <ele>1855.205</ele>
        <time>2022-02-27T11:21:36Z</time>
      </trkpt>
      <trkpt lat="42.83924" lon="0.50519">
        <ele>1854.527</ele>
        <time>2022-02-27T11:21:38Z</time>
      </trkpt>
      <trkpt lat="42.83926" lon="0.50519">
        <ele>1853.461</ele>
        <time>2022-02-27T11:21:40Z</time>
      </trkpt>
      <trkpt lat="42.83927" lon="0.5052">
        <ele>1852.172</ele>
        <time>2022-02-27T11:21:42Z</time>
      </trkpt>
      <trkpt lat="42.83928" lon="0.50521">
        <ele>1852.292</ele>
        <time>2022-02-27T11:21:44Z</time>
      </trkpt>
      <trkpt lat="42.83929" lon="0.50521">
        <ele>1851.949</ele>
        <time>2022-02-27T11:21:46Z</time>
      </trkpt>
      <trkpt lat="42.8393" lon="0.50523">
        <ele>1850.796</ele>
        <time>2022-02-27T11:21:48Z</time>
      </trkpt>
      <trkpt lat="42.83931" lon="0.50524">
        <ele>1850.145</ele>
        <time>2022-02-27T11:21:50Z</time>
      </trkpt>
      <trkpt lat="42.83932" lon="0.50525">
        <ele>1849.953</ele>
        <time>2022-02-27T11:21:52Z</time>
      </trkpt>
      <trkpt lat="42.83934" lon="0.50526">
        <ele>1848.994</ele>
        <time>2022-02-27T11:21:54Z</time>
      </trkpt>
      <trkpt lat="42.83935" lon="0.50526">
        <ele>1849.009</ele>
        <time>2022-02-27T11:21:56Z</time>
      </trkpt>
      <trkpt lat="42.83936" lon="0.50526">
        <ele>1848.631</ele>
        <time>2022-02-27T11:21:58Z</time>
      </trkpt>
      <trkpt lat="42.83937" lon="0.50527">
        <ele>1848.181</ele>
        <time>2022-02-27T11:22:00Z</time>
      </trkpt>
      <trkpt lat="42.83938" lon="0.50527">
        <ele>1847.248</ele>
        <time>2022-02-27T11:22:02Z</time>
      </trkpt>
      <trkpt lat="42.83939" lon="0.50528">
        <ele>1846.693</ele>
        <time>2022-02-27T11:22:04Z</time>
      </trkpt>
      <trkpt lat="42.8394" lon="0.50529">
        <ele>1846.086</ele>
        <time>2022-02-27T11:22:06Z</time>
      </trkpt>
      <trkpt lat="42.83941" lon="0.5053">
        <ele>1845.275</ele>
        <time>2022-02-27T11:22:08Z</time>
      </trkpt>
      <trkpt lat="42.83942" lon="0.50532">
        <ele>1844.65</ele>
        <time>2022-02-27T11:22:10Z</time>
      </trkpt>
      <trkpt lat="42.83943" lon="0.50533">
        <ele>1844.07</ele>
        <time>2022-02-27T11:22:12Z</time>
      </trkpt>
      <trkpt lat="42.83944" lon="0.50535">
        <ele>1844.38</ele>
        <time>2022-02-27T11:22:14Z</time>
      </trkpt>
      <trkpt lat="42.83943" lon="0.50535">
        <ele>1844.808</ele>
        <time>2022-02-27T11:22:16Z</time>
      </trkpt>
      <trkpt lat="42.83943" lon="0.50535">
        <ele>1844.806</ele>
        <time>2022-02-27T11:22:18Z</time>
      </trkpt>
      <trkpt lat="42.83943" lon="0.50535">
        <ele>1844.805</ele>
        <time>2022-02-27T11:22:20Z</time>
      </trkpt>
      <trkpt lat="42.83943" lon="0.50535">
        <ele>1844.815</ele>
        <time>2022-02-27T11:22:22Z</time>
      </trkpt>
      <trkpt lat="42.83943" lon="0.50535">
        <ele>1844.811</ele>
        <time>2022-02-27T11:22:24Z</time>
      </trkpt>
      <trkpt lat="42.83943" lon="0.50535">
        <ele>1844.81</ele>
        <time>2022-02-27T11:22:26Z</time>
      </trkpt>
      <trkpt lat="42.83943" lon="0.50535">
        <ele>1844.808</ele>
        <time>2022-02-27T11:22:28Z</time>
      </trkpt>
      <trkpt lat="42.83943" lon="0.50535">
        <ele>1844.92</ele>
        <time>2022-02-27T11:22:30Z</time>
      </trkpt>
      <trkpt lat="42.83943" lon="0.50535">
        <ele>1844.927</ele>
        <time>2022-02-27T11:22:32Z</time>
      </trkpt>
      <trkpt lat="42.83943" lon="0.50535">
        <ele>1844.929</ele>
        <time>2022-02-27T11:22:34Z</time>
      </trkpt>
      <trkpt lat="42.83943" lon="0.50535">
        <ele>1844.925</ele>
        <time>2022-02-27T11:22:36Z</time>
      </trkpt>
      <trkpt lat="42.83943" lon="0.50535">
        <ele>1844.926</ele>
        <time>2022-02-27T11:22:38Z</time>
      </trkpt>
      <trkpt lat="42.83943" lon="0.50536">
        <ele>1844.888</ele>
        <time>2022-02-27T11:22:40Z</time>
      </trkpt>
      <trkpt lat="42.83944" lon="0.50537">
        <ele>1844.108</ele>
        <time>2022-02-27T11:22:42Z</time>
      </trkpt>
      <trkpt lat="42.83945" lon="0.50538">
        <ele>1843.39</ele>
        <time>2022-02-27T11:22:44Z</time>
      </trkpt>
      <trkpt lat="42.83946" lon="0.50538">
        <ele>1842.665</ele>
        <time>2022-02-27T11:22:46Z</time>
      </trkpt>
      <trkpt lat="42.83947" lon="0.50539">
        <ele>1841.659</ele>
        <time>2022-02-27T11:22:48Z</time>
      </trkpt>
      <trkpt lat="42.83948" lon="0.50541">
        <ele>1841.081</ele>
        <time>2022-02-27T11:22:50Z</time>
      </trkpt>
      <trkpt lat="42.83949" lon="0.50541">
        <ele>1840.571</ele>
        <time>2022-02-27T11:22:52Z</time>
      </trkpt>
      <trkpt lat="42.8395" lon="0.50543">
        <ele>1840.091</ele>
        <time>2022-02-27T11:22:54Z</time>
      </trkpt>
      <trkpt lat="42.83951" lon="0.50544">
        <ele>1839.584</ele>
        <time>2022-02-27T11:22:56Z</time>
      </trkpt>
      <trkpt lat="42.83951" lon="0.50545">
        <ele>1838.934</ele>
        <time>2022-02-27T11:22:58Z</time>
      </trkpt>
      <trkpt lat="42.83952" lon="0.50546">
        <ele>1838.724</ele>
        <time>2022-02-27T11:23:00Z</time>
      </trkpt>
      <trkpt lat="42.83953" lon="0.50547">
        <ele>1837.639</ele>
        <time>2022-02-27T11:23:02Z</time>
      </trkpt>
      <trkpt lat="42.83954" lon="0.50548">
        <ele>1837.474</ele>
        <time>2022-02-27T11:23:04Z</time>
      </trkpt>
      <trkpt lat="42.83955" lon="0.5055">
        <ele>1836.521</ele>
        <time>2022-02-27T11:23:06Z</time>
      </trkpt>
      <trkpt lat="42.83955" lon="0.50551">
        <ele>1835.704</ele>
        <time>2022-02-27T11:23:08Z</time>
      </trkpt>
      <trkpt lat="42.83956" lon="0.50552">
        <ele>1834.912</ele>
        <time>2022-02-27T11:23:10Z</time>
      </trkpt>
      <trkpt lat="42.83957" lon="0.50554">
        <ele>1834.876</ele>
        <time>2022-02-27T11:23:12Z</time>
      </trkpt>
      <trkpt lat="42.83958" lon="0.50555">
        <ele>1833.862</ele>
        <time>2022-02-27T11:23:14Z</time>
      </trkpt>
      <trkpt lat="42.83959" lon="0.50556">
        <ele>1833.624</ele>
        <time>2022-02-27T11:23:16Z</time>
      </trkpt>
      <trkpt lat="42.83961" lon="0.50557">
        <ele>1832.926</ele>
        <time>2022-02-27T11:23:18Z</time>
      </trkpt>
      <trkpt lat="42.83962" lon="0.50558">
        <ele>1832.099</ele>
        <time>2022-02-27T11:23:20Z</time>
      </trkpt>
      <trkpt lat="42.83963" lon="0.50559">
        <ele>1831.793</ele>
        <time>2022-02-27T11:23:22Z</time>
      </trkpt>
      <trkpt lat="42.83964" lon="0.5056">
        <ele>1831.12</ele>
        <time>2022-02-27T11:23:24Z</time>
      </trkpt>
      <trkpt lat="42.83965" lon="0.50561">
        <ele>1830.713</ele>
        <time>2022-02-27T11:23:26Z</time>
      </trkpt>
      <trkpt lat="42.83965" lon="0.50563">
        <ele>1830.001</ele>
        <time>2022-02-27T11:23:28Z</time>
      </trkpt>
      <trkpt lat="42.83966" lon="0.50564">
        <ele>1829.88</ele>
        <time>2022-02-27T11:23:30Z</time>
      </trkpt>
      <trkpt lat="42.83967" lon="0.50563">
        <ele>1830.713</ele>
        <time>2022-02-27T11:23:32Z</time>
      </trkpt>
      <trkpt lat="42.83967" lon="0.50563">
        <ele>1830.404</ele>
        <time>2022-02-27T11:23:34Z</time>
      </trkpt>
      <trkpt lat="42.83967" lon="0.50563">
        <ele>1830.391</ele>
        <time>2022-02-27T11:23:36Z</time>
      </trkpt>
      <trkpt lat="42.83967" lon="0.50563">
        <ele>1830.388</ele>
        <time>2022-02-27T11:23:38Z</time>
      </trkpt>
      <trkpt lat="42.83968" lon="0.50563">
        <ele>1829.496</ele>
        <time>2022-02-27T11:23:40Z</time>
      </trkpt>
      <trkpt lat="42.83968" lon="0.50565">
        <ele>1828.661</ele>
        <time>2022-02-27T11:23:42Z</time>
      </trkpt>
      <trkpt lat="42.83969" lon="0.50568">
        <ele>1828.631</ele>
        <time>2022-02-27T11:23:44Z</time>
      </trkpt>
      <trkpt lat="42.8397" lon="0.5057">
        <ele>1827.487</ele>
        <time>2022-02-27T11:23:46Z</time>
      </trkpt>
      <trkpt lat="42.83971" lon="0.5057">
        <ele>1826.905</ele>
        <time>2022-02-27T11:23:48Z</time>
      </trkpt>
      <trkpt lat="42.83972" lon="0.5057">
        <ele>1826.97</ele>
        <time>2022-02-27T11:23:50Z</time>
      </trkpt>
      <trkpt lat="42.83973" lon="0.50571">
        <ele>1826.048</ele>
        <time>2022-02-27T11:23:52Z</time>
      </trkpt>
      <trkpt lat="42.83974" lon="0.50572">
        <ele>1825.656</ele>
        <time>2022-02-27T11:23:54Z</time>
      </trkpt>
      <trkpt lat="42.83975" lon="0.50573">
        <ele>1825.477</ele>
        <time>2022-02-27T11:23:56Z</time>
      </trkpt>
      <trkpt lat="42.83976" lon="0.50573">
        <ele>1825.358</ele>
        <time>2022-02-27T11:23:58Z</time>
      </trkpt>
      <trkpt lat="42.83977" lon="0.50574">
        <ele>1824.844</ele>
        <time>2022-02-27T11:24:00Z</time>
      </trkpt>
      <trkpt lat="42.83979" lon="0.50574">
        <ele>1824.535</ele>
        <time>2022-02-27T11:24:02Z</time>
      </trkpt>
      <trkpt lat="42.8398" lon="0.50575">
        <ele>1823.715</ele>
        <time>2022-02-27T11:24:04Z</time>
      </trkpt>
      <trkpt lat="42.83981" lon="0.50576">
        <ele>1823.138</ele>
        <time>2022-02-27T11:24:06Z</time>
      </trkpt>
      <trkpt lat="42.83982" lon="0.50577">
        <ele>1822.548</ele>
        <time>2022-02-27T11:24:08Z</time>
      </trkpt>
      <trkpt lat="42.83983" lon="0.50578">
        <ele>1822.486</ele>
        <time>2022-02-27T11:24:10Z</time>
      </trkpt>
      <trkpt lat="42.83984" lon="0.50579">
        <ele>1821.956</ele>
        <time>2022-02-27T11:24:12Z</time>
      </trkpt>
      <trkpt lat="42.83985" lon="0.50581">
        <ele>1821.549</ele>
        <time>2022-02-27T11:24:14Z</time>
      </trkpt>
      <trkpt lat="42.83986" lon="0.50581">
        <ele>1820.959</ele>
        <time>2022-02-27T11:24:16Z</time>
      </trkpt>
      <trkpt lat="42.83988" lon="0.50582">
        <ele>1819.896</ele>
        <time>2022-02-27T11:24:18Z</time>
      </trkpt>
      <trkpt lat="42.83989" lon="0.50583">
        <ele>1819.256</ele>
        <time>2022-02-27T11:24:20Z</time>
      </trkpt>
      <trkpt lat="42.83989" lon="0.50585">
        <ele>1819.381</ele>
        <time>2022-02-27T11:24:22Z</time>
      </trkpt>
      <trkpt lat="42.8399" lon="0.50586">
        <ele>1819.248</ele>
        <time>2022-02-27T11:24:24Z</time>
      </trkpt>
      <trkpt lat="42.83992" lon="0.50587">
        <ele>1818.555</ele>
        <time>2022-02-27T11:24:26Z</time>
      </trkpt>
      <trkpt lat="42.83993" lon="0.50588">
        <ele>1818.08</ele>
        <time>2022-02-27T11:24:28Z</time>
      </trkpt>
      <trkpt lat="42.83994" lon="0.5059">
        <ele>1817.84</ele>
        <time>2022-02-27T11:24:30Z</time>
      </trkpt>
      <trkpt lat="42.83996" lon="0.50592">
        <ele>1817.419</ele>
        <time>2022-02-27T11:24:32Z</time>
      </trkpt>
      <trkpt lat="42.83996" lon="0.50593">
        <ele>1816.946</ele>
        <time>2022-02-27T11:24:34Z</time>
      </trkpt>
      <trkpt lat="42.83997" lon="0.50595">
        <ele>1816.36</ele>
        <time>2022-02-27T11:24:36Z</time>
      </trkpt>
      <trkpt lat="42.83998" lon="0.50596">
        <ele>1815.22</ele>
        <time>2022-02-27T11:24:38Z</time>
      </trkpt>
      <trkpt lat="42.83999" lon="0.50597">
        <ele>1814.368</ele>
        <time>2022-02-27T11:24:40Z</time>
      </trkpt>
      <trkpt lat="42.84" lon="0.50599">
        <ele>1814.105</ele>
        <time>2022-02-27T11:24:42Z</time>
      </trkpt>
      <trkpt lat="42.84001" lon="0.506">
        <ele>1813.929</ele>
        <time>2022-02-27T11:24:44Z</time>
      </trkpt>
      <trkpt lat="42.84001" lon="0.50602">
        <ele>1813.538</ele>
        <time>2022-02-27T11:24:46Z</time>
      </trkpt>
      <trkpt lat="42.84002" lon="0.50604">
        <ele>1813.036</ele>
        <time>2022-02-27T11:24:48Z</time>
      </trkpt>
      <trkpt lat="42.84003" lon="0.50607">
        <ele>1812.531</ele>
        <time>2022-02-27T11:24:50Z</time>
      </trkpt>
      <trkpt lat="42.84004" lon="0.50609">
        <ele>1812.61</ele>
        <time>2022-02-27T11:24:52Z</time>
      </trkpt>
      <trkpt lat="42.84006" lon="0.50611">
        <ele>1812.352</ele>
        <time>2022-02-27T11:24:54Z</time>
      </trkpt>
      <trkpt lat="42.84007" lon="0.50612">
        <ele>1812.214</ele>
        <time>2022-02-27T11:24:56Z</time>
      </trkpt>
      <trkpt lat="42.84008" lon="0.50614">
        <ele>1811.656</ele>
        <time>2022-02-27T11:24:58Z</time>
      </trkpt>
      <trkpt lat="42.84009" lon="0.50615">
        <ele>1811.266</ele>
        <time>2022-02-27T11:25:00Z</time>
      </trkpt>
      <trkpt lat="42.8401" lon="0.50617">
        <ele>1811.048</ele>
        <time>2022-02-27T11:25:02Z</time>
      </trkpt>
      <trkpt lat="42.8401" lon="0.5062">
        <ele>1810.594</ele>
        <time>2022-02-27T11:25:04Z</time>
      </trkpt>
      <trkpt lat="42.8401" lon="0.50621">
        <ele>1810.084</ele>
        <time>2022-02-27T11:25:06Z</time>
      </trkpt>
      <trkpt lat="42.8401" lon="0.50622">
        <ele>1810.118</ele>
        <time>2022-02-27T11:25:08Z</time>
      </trkpt>
      <trkpt lat="42.8401" lon="0.50622">
        <ele>1810.117</ele>
        <time>2022-02-27T11:25:10Z</time>
      </trkpt>
      <trkpt lat="42.8401" lon="0.50622">
        <ele>1810.114</ele>
        <time>2022-02-27T11:25:12Z</time>
      </trkpt>
      <trkpt lat="42.8401" lon="0.50622">
        <ele>1810.117</ele>
        <time>2022-02-27T11:25:14Z</time>
      </trkpt>
      <trkpt lat="42.8401" lon="0.50622">
        <ele>1810.113</ele>
        <time>2022-02-27T11:25:16Z</time>
      </trkpt>
      <trkpt lat="42.8401" lon="0.50622">
        <ele>1809.924</ele>
        <time>2022-02-27T11:25:18Z</time>
      </trkpt>
      <trkpt lat="42.84011" lon="0.50624">
        <ele>1809.519</ele>
        <time>2022-02-27T11:25:20Z</time>
      </trkpt>
      <trkpt lat="42.84012" lon="0.50624">
        <ele>1809.57</ele>
        <time>2022-02-27T11:25:22Z</time>
      </trkpt>
      <trkpt lat="42.84012" lon="0.50624">
        <ele>1809.55</ele>
        <time>2022-02-27T11:25:24Z</time>
      </trkpt>
      <trkpt lat="42.84012" lon="0.50624">
        <ele>1809.541</ele>
        <time>2022-02-27T11:25:26Z</time>
      </trkpt>
      <trkpt lat="42.84012" lon="0.50624">
        <ele>1809.536</ele>
        <time>2022-02-27T11:25:28Z</time>
      </trkpt>
      <trkpt lat="42.84012" lon="0.50624">
        <ele>1809.543</ele>
        <time>2022-02-27T11:25:30Z</time>
      </trkpt>
      <trkpt lat="42.84013" lon="0.50624">
        <ele>1809.202</ele>
        <time>2022-02-27T11:25:32Z</time>
      </trkpt>
      <trkpt lat="42.84015" lon="0.50625">
        <ele>1809.561</ele>
        <time>2022-02-27T11:25:34Z</time>
      </trkpt>
      <trkpt lat="42.84016" lon="0.50625">
        <ele>1810.848</ele>
        <time>2022-02-27T11:25:36Z</time>
      </trkpt>
      <trkpt lat="42.84016" lon="0.50626">
        <ele>1810.578</ele>
        <time>2022-02-27T11:25:38Z</time>
      </trkpt>
      <trkpt lat="42.84018" lon="0.50627">
        <ele>1810.148</ele>
        <time>2022-02-27T11:25:40Z</time>
      </trkpt>
      <trkpt lat="42.84018" lon="0.50628">
        <ele>1810.221</ele>
        <time>2022-02-27T11:25:42Z</time>
      </trkpt>
      <trkpt lat="42.84019" lon="0.5063">
        <ele>1809.791</ele>
        <time>2022-02-27T11:25:44Z</time>
      </trkpt>
      <trkpt lat="42.84021" lon="0.50632">
        <ele>1810.178</ele>
        <time>2022-02-27T11:25:46Z</time>
      </trkpt>
      <trkpt lat="42.84022" lon="0.50634">
        <ele>1810.116</ele>
        <time>2022-02-27T11:25:48Z</time>
      </trkpt>
      <trkpt lat="42.84023" lon="0.50635">
        <ele>1809.856</ele>
        <time>2022-02-27T11:25:50Z</time>
      </trkpt>
      <trkpt lat="42.84025" lon="0.50637">
        <ele>1809.561</ele>
        <time>2022-02-27T11:25:52Z</time>
      </trkpt>
      <trkpt lat="42.84026" lon="0.5064">
        <ele>1809.44</ele>
        <time>2022-02-27T11:25:54Z</time>
      </trkpt>
      <trkpt lat="42.84028" lon="0.50641">
        <ele>1809.639</ele>
        <time>2022-02-27T11:25:56Z</time>
      </trkpt>
      <trkpt lat="42.84029" lon="0.50643">
        <ele>1809.205</ele>
        <time>2022-02-27T11:25:58Z</time>
      </trkpt>
      <trkpt lat="42.8403" lon="0.50644">
        <ele>1809.195</ele>
        <time>2022-02-27T11:26:00Z</time>
      </trkpt>
      <trkpt lat="42.84031" lon="0.50646">
        <ele>1809.184</ele>
        <time>2022-02-27T11:26:02Z</time>
      </trkpt>
      <trkpt lat="42.84032" lon="0.50648">
        <ele>1809.369</ele>
        <time>2022-02-27T11:26:04Z</time>
      </trkpt>
      <trkpt lat="42.84032" lon="0.5065">
        <ele>1809.092</ele>
        <time>2022-02-27T11:26:06Z</time>
      </trkpt>
      <trkpt lat="42.84033" lon="0.50651">
        <ele>1809.256</ele>
        <time>2022-02-27T11:26:08Z</time>
      </trkpt>
      <trkpt lat="42.84032" lon="0.50653">
        <ele>1809.302</ele>
        <time>2022-02-27T11:26:10Z</time>
      </trkpt>
      <trkpt lat="42.84032" lon="0.50654">
        <ele>1809.75</ele>
        <time>2022-02-27T11:26:12Z</time>
      </trkpt>
      <trkpt lat="42.84032" lon="0.50654">
        <ele>1809.96</ele>
        <time>2022-02-27T11:26:14Z</time>
      </trkpt>
      <trkpt lat="42.84032" lon="0.50653">
        <ele>1809.998</ele>
        <time>2022-02-27T11:26:16Z</time>
      </trkpt>
      <trkpt lat="42.84032" lon="0.50653">
        <ele>1809.99</ele>
        <time>2022-02-27T11:26:18Z</time>
      </trkpt>
      <trkpt lat="42.84032" lon="0.50653">
        <ele>1809.977</ele>
        <time>2022-02-27T11:26:20Z</time>
      </trkpt>
      <trkpt lat="42.84032" lon="0.50653">
        <ele>1809.974</ele>
        <time>2022-02-27T11:26:22Z</time>
      </trkpt>
      <trkpt lat="42.84032" lon="0.50653">
        <ele>1809.974</ele>
        <time>2022-02-27T11:26:24Z</time>
      </trkpt>
      <trkpt lat="42.84032" lon="0.50653">
        <ele>1809.967</ele>
        <time>2022-02-27T11:26:26Z</time>
      </trkpt>
      <trkpt lat="42.84032" lon="0.50653">
        <ele>1809.966</ele>
        <time>2022-02-27T11:26:28Z</time>
      </trkpt>
      <trkpt lat="42.84032" lon="0.50653">
        <ele>1809.969</ele>
        <time>2022-02-27T11:26:30Z</time>
      </trkpt>
      <trkpt lat="42.84032" lon="0.50653">
        <ele>1809.971</ele>
        <time>2022-02-27T11:26:32Z</time>
      </trkpt>
      <trkpt lat="42.84032" lon="0.50653">
        <ele>1809.963</ele>
        <time>2022-02-27T11:26:34Z</time>
      </trkpt>
      <trkpt lat="42.84032" lon="0.50653">
        <ele>1809.964</ele>
        <time>2022-02-27T11:26:36Z</time>
      </trkpt>
      <trkpt lat="42.84032" lon="0.50653">
        <ele>1809.973</ele>
        <time>2022-02-27T11:26:38Z</time>
      </trkpt>
      <trkpt lat="42.84032" lon="0.50653">
        <ele>1809.828</ele>
        <time>2022-02-27T11:26:40Z</time>
      </trkpt>
      <trkpt lat="42.84032" lon="0.50653">
        <ele>1809.818</ele>
        <time>2022-02-27T11:26:42Z</time>
      </trkpt>
      <trkpt lat="42.84032" lon="0.50653">
        <ele>1809.81</ele>
        <time>2022-02-27T11:26:44Z</time>
      </trkpt>
      <trkpt lat="42.84032" lon="0.50653">
        <ele>1809.805</ele>
        <time>2022-02-27T11:26:46Z</time>
      </trkpt>
      <trkpt lat="42.84032" lon="0.50653">
        <ele>1809.807</ele>
        <time>2022-02-27T11:26:48Z</time>
      </trkpt>
      <trkpt lat="42.84032" lon="0.50653">
        <ele>1809.806</ele>
        <time>2022-02-27T11:26:50Z</time>
      </trkpt>
      <trkpt lat="42.84032" lon="0.50653">
        <ele>1809.81</ele>
        <time>2022-02-27T11:26:52Z</time>
      </trkpt>
      <trkpt lat="42.84032" lon="0.50653">
        <ele>1809.811</ele>
        <time>2022-02-27T11:26:54Z</time>
      </trkpt>
      <trkpt lat="42.84032" lon="0.50653">
        <ele>1809.805</ele>
        <time>2022-02-27T11:26:56Z</time>
      </trkpt>
      <trkpt lat="42.84032" lon="0.50653">
        <ele>1809.804</ele>
        <time>2022-02-27T11:26:58Z</time>
      </trkpt>
      <trkpt lat="42.84031" lon="0.50653">
        <ele>1809.711</ele>
        <time>2022-02-27T11:27:00Z</time>
      </trkpt>
      <trkpt lat="42.84031" lon="0.50653">
        <ele>1809.71</ele>
        <time>2022-02-27T11:27:02Z</time>
      </trkpt>
      <trkpt lat="42.84031" lon="0.50653">
        <ele>1809.705</ele>
        <time>2022-02-27T11:27:04Z</time>
      </trkpt>
      <trkpt lat="42.84031" lon="0.50653">
        <ele>1809.7</ele>
        <time>2022-02-27T11:27:06Z</time>
      </trkpt>
      <trkpt lat="42.84031" lon="0.50653">
        <ele>1809.703</ele>
        <time>2022-02-27T11:27:08Z</time>
      </trkpt>
      <trkpt lat="42.84031" lon="0.50653">
        <ele>1809.703</ele>
        <time>2022-02-27T11:27:10Z</time>
      </trkpt>
      <trkpt lat="42.84031" lon="0.50653">
        <ele>1809.703</ele>
        <time>2022-02-27T11:27:12Z</time>
      </trkpt>
      <trkpt lat="42.84031" lon="0.50653">
        <ele>1809.704</ele>
        <time>2022-02-27T11:27:14Z</time>
      </trkpt>
      <trkpt lat="42.84031" lon="0.50653">
        <ele>1809.704</ele>
        <time>2022-02-27T11:27:16Z</time>
      </trkpt>
      <trkpt lat="42.84031" lon="0.50653">
        <ele>1809.706</ele>
        <time>2022-02-27T11:27:18Z</time>
      </trkpt>
      <trkpt lat="42.84031" lon="0.50653">
        <ele>1809.706</ele>
        <time>2022-02-27T11:27:20Z</time>
      </trkpt>
      <trkpt lat="42.84031" lon="0.50653">
        <ele>1809.705</ele>
        <time>2022-02-27T11:27:22Z</time>
      </trkpt>
      <trkpt lat="42.84031" lon="0.50653">
        <ele>1809.705</ele>
        <time>2022-02-27T11:27:24Z</time>
      </trkpt>
      <trkpt lat="42.84031" lon="0.50653">
        <ele>1809.705</ele>
        <time>2022-02-27T11:27:26Z</time>
      </trkpt>
      <trkpt lat="42.84031" lon="0.50653">
        <ele>1809.699</ele>
        <time>2022-02-27T11:27:28Z</time>
      </trkpt>
      <trkpt lat="42.84031" lon="0.50653">
        <ele>1809.693</ele>
        <time>2022-02-27T11:27:30Z</time>
      </trkpt>
      <trkpt lat="42.84031" lon="0.50653">
        <ele>1809.687</ele>
        <time>2022-02-27T11:27:32Z</time>
      </trkpt>
      <trkpt lat="42.84031" lon="0.50653">
        <ele>1809.684</ele>
        <time>2022-02-27T11:27:34Z</time>
      </trkpt>
      <trkpt lat="42.84031" lon="0.50653">
        <ele>1809.685</ele>
        <time>2022-02-27T11:27:36Z</time>
      </trkpt>
      <trkpt lat="42.84031" lon="0.50653">
        <ele>1809.68</ele>
        <time>2022-02-27T11:27:38Z</time>
      </trkpt>
      <trkpt lat="42.84031" lon="0.50653">
        <ele>1809.672</ele>
        <time>2022-02-27T11:27:40Z</time>
      </trkpt>
      <trkpt lat="42.84031" lon="0.50653">
        <ele>1809.671</ele>
        <time>2022-02-27T11:27:42Z</time>
      </trkpt>
      <trkpt lat="42.84031" lon="0.50653">
        <ele>1809.664</ele>
        <time>2022-02-27T11:27:44Z</time>
      </trkpt>
      <trkpt lat="42.84031" lon="0.50653">
        <ele>1809.662</ele>
        <time>2022-02-27T11:27:46Z</time>
      </trkpt>
      <trkpt lat="42.84031" lon="0.50653">
        <ele>1809.661</ele>
        <time>2022-02-27T11:27:48Z</time>
      </trkpt>
      <trkpt lat="42.84031" lon="0.50653">
        <ele>1809.66</ele>
        <time>2022-02-27T11:27:50Z</time>
      </trkpt>
      <trkpt lat="42.84031" lon="0.50653">
        <ele>1809.661</ele>
        <time>2022-02-27T11:27:52Z</time>
      </trkpt>
      <trkpt lat="42.84031" lon="0.50653">
        <ele>1809.659</ele>
        <time>2022-02-27T11:27:54Z</time>
      </trkpt>
      <trkpt lat="42.84031" lon="0.50653">
        <ele>1809.659</ele>
        <time>2022-02-27T11:27:56Z</time>
      </trkpt>
      <trkpt lat="42.84031" lon="0.50653">
        <ele>1809.66</ele>
        <time>2022-02-27T11:27:58Z</time>
      </trkpt>
      <trkpt lat="42.84031" lon="0.50653">
        <ele>1809.661</ele>
        <time>2022-02-27T11:28:00Z</time>
      </trkpt>
      <trkpt lat="42.84031" lon="0.50653">
        <ele>1809.658</ele>
        <time>2022-02-27T11:28:02Z</time>
      </trkpt>
      <trkpt lat="42.84031" lon="0.50653">
        <ele>1809.657</ele>
        <time>2022-02-27T11:28:04Z</time>
      </trkpt>
      <trkpt lat="42.84031" lon="0.50653">
        <ele>1809.655</ele>
        <time>2022-02-27T11:28:06Z</time>
      </trkpt>
      <trkpt lat="42.84031" lon="0.50653">
        <ele>1809.654</ele>
        <time>2022-02-27T11:28:08Z</time>
      </trkpt>
      <trkpt lat="42.84031" lon="0.50653">
        <ele>1809.652</ele>
        <time>2022-02-27T11:28:10Z</time>
      </trkpt>
      <trkpt lat="42.84031" lon="0.50653">
        <ele>1809.656</ele>
        <time>2022-02-27T11:28:12Z</time>
      </trkpt>
      <trkpt lat="42.84031" lon="0.50653">
        <ele>1809.651</ele>
        <time>2022-02-27T11:28:14Z</time>
      </trkpt>
      <trkpt lat="42.84031" lon="0.50653">
        <ele>1809.645</ele>
        <time>2022-02-27T11:28:16Z</time>
      </trkpt>
      <trkpt lat="42.84031" lon="0.50653">
        <ele>1809.645</ele>
        <time>2022-02-27T11:28:18Z</time>
      </trkpt>
      <trkpt lat="42.84031" lon="0.50653">
        <ele>1809.643</ele>
        <time>2022-02-27T11:28:20Z</time>
      </trkpt>
      <trkpt lat="42.84031" lon="0.50653">
        <ele>1809.641</ele>
        <time>2022-02-27T11:28:22Z</time>
      </trkpt>
      <trkpt lat="42.84031" lon="0.50653">
        <ele>1809.639</ele>
        <time>2022-02-27T11:28:24Z</time>
      </trkpt>
      <trkpt lat="42.84031" lon="0.50653">
        <ele>1809.639</ele>
        <time>2022-02-27T11:28:26Z</time>
      </trkpt>
      <trkpt lat="42.84031" lon="0.50653">
        <ele>1809.638</ele>
        <time>2022-02-27T11:28:28Z</time>
      </trkpt>
      <trkpt lat="42.84031" lon="0.50653">
        <ele>1809.637</ele>
        <time>2022-02-27T11:28:30Z</time>
      </trkpt>
      <trkpt lat="42.84031" lon="0.50653">
        <ele>1809.635</ele>
        <time>2022-02-27T11:28:32Z</time>
      </trkpt>
      <trkpt lat="42.84031" lon="0.50653">
        <ele>1809.631</ele>
        <time>2022-02-27T11:28:34Z</time>
      </trkpt>
      <trkpt lat="42.84031" lon="0.50653">
        <ele>1809.625</ele>
        <time>2022-02-27T11:28:36Z</time>
      </trkpt>
      <trkpt lat="42.84031" lon="0.50653">
        <ele>1809.62</ele>
        <time>2022-02-27T11:28:38Z</time>
      </trkpt>
      <trkpt lat="42.84031" lon="0.50653">
        <ele>1809.617</ele>
        <time>2022-02-27T11:28:40Z</time>
      </trkpt>
      <trkpt lat="42.84031" lon="0.50653">
        <ele>1809.614</ele>
        <time>2022-02-27T11:28:42Z</time>
      </trkpt>
      <trkpt lat="42.84031" lon="0.50653">
        <ele>1809.606</ele>
        <time>2022-02-27T11:28:44Z</time>
      </trkpt>
      <trkpt lat="42.84031" lon="0.50653">
        <ele>1809.604</ele>
        <time>2022-02-27T11:28:46Z</time>
      </trkpt>
      <trkpt lat="42.84031" lon="0.50653">
        <ele>1809.599</ele>
        <time>2022-02-27T11:28:48Z</time>
      </trkpt>
      <trkpt lat="42.84031" lon="0.50653">
        <ele>1809.599</ele>
        <time>2022-02-27T11:28:50Z</time>
      </trkpt>
      <trkpt lat="42.84031" lon="0.50653">
        <ele>1809.476</ele>
        <time>2022-02-27T11:28:52Z</time>
      </trkpt>
      <trkpt lat="42.84031" lon="0.50653">
        <ele>1809.484</ele>
        <time>2022-02-27T11:28:54Z</time>
      </trkpt>
      <trkpt lat="42.84031" lon="0.50653">
        <ele>1809.485</ele>
        <time>2022-02-27T11:28:56Z</time>
      </trkpt>
      <trkpt lat="42.84031" lon="0.50653">
        <ele>1809.487</ele>
        <time>2022-02-27T11:28:58Z</time>
      </trkpt>
      <trkpt lat="42.84031" lon="0.50653">
        <ele>1809.488</ele>
        <time>2022-02-27T11:29:00Z</time>
      </trkpt>
      <trkpt lat="42.84031" lon="0.50653">
        <ele>1809.487</ele>
        <time>2022-02-27T11:29:02Z</time>
      </trkpt>
      <trkpt lat="42.84031" lon="0.50653">
        <ele>1809.489</ele>
        <time>2022-02-27T11:29:04Z</time>
      </trkpt>
      <trkpt lat="42.84031" lon="0.50653">
        <ele>1809.489</ele>
        <time>2022-02-27T11:29:06Z</time>
      </trkpt>
      <trkpt lat="42.84031" lon="0.50653">
        <ele>1809.489</ele>
        <time>2022-02-27T11:29:08Z</time>
      </trkpt>
      <trkpt lat="42.84031" lon="0.50653">
        <ele>1809.491</ele>
        <time>2022-02-27T11:29:10Z</time>
      </trkpt>
      <trkpt lat="42.84031" lon="0.50653">
        <ele>1809.488</ele>
        <time>2022-02-27T11:29:12Z</time>
      </trkpt>
      <trkpt lat="42.84031" lon="0.50653">
        <ele>1809.489</ele>
        <time>2022-02-27T11:29:14Z</time>
      </trkpt>
      <trkpt lat="42.84031" lon="0.50653">
        <ele>1809.49</ele>
        <time>2022-02-27T11:29:16Z</time>
      </trkpt>
      <trkpt lat="42.84031" lon="0.50653">
        <ele>1809.488</ele>
        <time>2022-02-27T11:29:18Z</time>
      </trkpt>
      <trkpt lat="42.84031" lon="0.50653">
        <ele>1809.49</ele>
        <time>2022-02-27T11:29:20Z</time>
      </trkpt>
      <trkpt lat="42.84031" lon="0.50653">
        <ele>1809.489</ele>
        <time>2022-02-27T11:29:22Z</time>
      </trkpt>
      <trkpt lat="42.84031" lon="0.50653">
        <ele>1809.49</ele>
        <time>2022-02-27T11:29:24Z</time>
      </trkpt>
      <trkpt lat="42.84031" lon="0.50653">
        <ele>1809.489</ele>
        <time>2022-02-27T11:29:26Z</time>
      </trkpt>
      <trkpt lat="42.84031" lon="0.50653">
        <ele>1809.487</ele>
        <time>2022-02-27T11:29:28Z</time>
      </trkpt>
      <trkpt lat="42.84031" lon="0.50653">
        <ele>1809.487</ele>
        <time>2022-02-27T11:29:30Z</time>
      </trkpt>
      <trkpt lat="42.84031" lon="0.50653">
        <ele>1809.487</ele>
        <time>2022-02-27T11:29:32Z</time>
      </trkpt>
      <trkpt lat="42.84031" lon="0.50653">
        <ele>1809.488</ele>
        <time>2022-02-27T11:29:34Z</time>
      </trkpt>
      <trkpt lat="42.84031" lon="0.50653">
        <ele>1809.489</ele>
        <time>2022-02-27T11:29:36Z</time>
      </trkpt>
      <trkpt lat="42.84031" lon="0.50653">
        <ele>1809.491</ele>
        <time>2022-02-27T11:29:38Z</time>
      </trkpt>
      <trkpt lat="42.84031" lon="0.50653">
        <ele>1809.491</ele>
        <time>2022-02-27T11:29:40Z</time>
      </trkpt>
      <trkpt lat="42.84031" lon="0.50653">
        <ele>1809.489</ele>
        <time>2022-02-27T11:29:42Z</time>
      </trkpt>
      <trkpt lat="42.84031" lon="0.50653">
        <ele>1809.487</ele>
        <time>2022-02-27T11:29:44Z</time>
      </trkpt>
      <trkpt lat="42.84031" lon="0.50653">
        <ele>1809.485</ele>
        <time>2022-02-27T11:29:46Z</time>
      </trkpt>
      <trkpt lat="42.84031" lon="0.50653">
        <ele>1809.486</ele>
        <time>2022-02-27T11:29:48Z</time>
      </trkpt>
      <trkpt lat="42.84031" lon="0.50653">
        <ele>1809.487</ele>
        <time>2022-02-27T11:29:50Z</time>
      </trkpt>
      <trkpt lat="42.84031" lon="0.50653">
        <ele>1809.488</ele>
        <time>2022-02-27T11:29:52Z</time>
      </trkpt>
      <trkpt lat="42.84031" lon="0.50653">
        <ele>1809.491</ele>
        <time>2022-02-27T11:29:54Z</time>
      </trkpt>
      <trkpt lat="42.84031" lon="0.50653">
        <ele>1809.489</ele>
        <time>2022-02-27T11:29:56Z</time>
      </trkpt>
      <trkpt lat="42.84031" lon="0.50653">
        <ele>1809.484</ele>
        <time>2022-02-27T11:29:58Z</time>
      </trkpt>
      <trkpt lat="42.84031" lon="0.50653">
        <ele>1809.487</ele>
        <time>2022-02-27T11:30:00Z</time>
      </trkpt>
      <trkpt lat="42.84031" lon="0.50653">
        <ele>1809.486</ele>
        <time>2022-02-27T11:30:02Z</time>
      </trkpt>
      <trkpt lat="42.84031" lon="0.50653">
        <ele>1809.486</ele>
        <time>2022-02-27T11:30:04Z</time>
      </trkpt>
      <trkpt lat="42.84031" lon="0.50653">
        <ele>1809.485</ele>
        <time>2022-02-27T11:30:06Z</time>
      </trkpt>
      <trkpt lat="42.84031" lon="0.50653">
        <ele>1809.485</ele>
        <time>2022-02-27T11:30:08Z</time>
      </trkpt>
      <trkpt lat="42.84031" lon="0.50653">
        <ele>1809.483</ele>
        <time>2022-02-27T11:30:10Z</time>
      </trkpt>
      <trkpt lat="42.84031" lon="0.50653">
        <ele>1809.483</ele>
        <time>2022-02-27T11:30:12Z</time>
      </trkpt>
      <trkpt lat="42.84031" lon="0.50653">
        <ele>1809.483</ele>
        <time>2022-02-27T11:30:14Z</time>
      </trkpt>
      <trkpt lat="42.84031" lon="0.50653">
        <ele>1809.48</ele>
        <time>2022-02-27T11:30:16Z</time>
      </trkpt>
      <trkpt lat="42.84031" lon="0.50653">
        <ele>1809.48</ele>
        <time>2022-02-27T11:30:18Z</time>
      </trkpt>
      <trkpt lat="42.84031" lon="0.50653">
        <ele>1809.48</ele>
        <time>2022-02-27T11:30:20Z</time>
      </trkpt>
      <trkpt lat="42.84031" lon="0.50653">
        <ele>1809.478</ele>
        <time>2022-02-27T11:30:22Z</time>
      </trkpt>
      <trkpt lat="42.84031" lon="0.50653">
        <ele>1809.478</ele>
        <time>2022-02-27T11:30:24Z</time>
      </trkpt>
      <trkpt lat="42.84031" lon="0.50653">
        <ele>1809.479</ele>
        <time>2022-02-27T11:30:26Z</time>
      </trkpt>
      <trkpt lat="42.84031" lon="0.50653">
        <ele>1809.478</ele>
        <time>2022-02-27T11:30:28Z</time>
      </trkpt>
      <trkpt lat="42.84031" lon="0.50653">
        <ele>1809.477</ele>
        <time>2022-02-27T11:30:30Z</time>
      </trkpt>
      <trkpt lat="42.84031" lon="0.50653">
        <ele>1809.476</ele>
        <time>2022-02-27T11:30:32Z</time>
      </trkpt>
      <trkpt lat="42.84031" lon="0.50653">
        <ele>1809.474</ele>
        <time>2022-02-27T11:30:34Z</time>
      </trkpt>
      <trkpt lat="42.84031" lon="0.50653">
        <ele>1809.418</ele>
        <time>2022-02-27T11:30:36Z</time>
      </trkpt>
      <trkpt lat="42.84031" lon="0.50653">
        <ele>1809.414</ele>
        <time>2022-02-27T11:30:38Z</time>
      </trkpt>
      <trkpt lat="42.84031" lon="0.50653">
        <ele>1809.406</ele>
        <time>2022-02-27T11:30:40Z</time>
      </trkpt>
      <trkpt lat="42.84031" lon="0.50653">
        <ele>1809.402</ele>
        <time>2022-02-27T11:30:42Z</time>
      </trkpt>
      <trkpt lat="42.84032" lon="0.50653">
        <ele>1809.429</ele>
        <time>2022-02-27T11:30:44Z</time>
      </trkpt>
      <trkpt lat="42.84032" lon="0.50654">
        <ele>1809.173</ele>
        <time>2022-02-27T11:30:46Z</time>
      </trkpt>
      <trkpt lat="42.84033" lon="0.50656">
        <ele>1809.392</ele>
        <time>2022-02-27T11:30:48Z</time>
      </trkpt>
      <trkpt lat="42.84033" lon="0.50656">
        <ele>1809.351</ele>
        <time>2022-02-27T11:30:50Z</time>
      </trkpt>
      <trkpt lat="42.84034" lon="0.50657">
        <ele>1809.177</ele>
        <time>2022-02-27T11:30:52Z</time>
      </trkpt>
      <trkpt lat="42.84035" lon="0.50658">
        <ele>1809.137</ele>
        <time>2022-02-27T11:30:54Z</time>
      </trkpt>
      <trkpt lat="42.84036" lon="0.5066">
        <ele>1808.914</ele>
        <time>2022-02-27T11:30:56Z</time>
      </trkpt>
      <trkpt lat="42.84037" lon="0.5066">
        <ele>1809.094</ele>
        <time>2022-02-27T11:30:58Z</time>
      </trkpt>
      <trkpt lat="42.84039" lon="0.50662">
        <ele>1809.439</ele>
        <time>2022-02-27T11:31:00Z</time>
      </trkpt>
      <trkpt lat="42.84039" lon="0.50664">
        <ele>1809.198</ele>
        <time>2022-02-27T11:31:02Z</time>
      </trkpt>
      <trkpt lat="42.8404" lon="0.50665">
        <ele>1808.953</ele>
        <time>2022-02-27T11:31:04Z</time>
      </trkpt>
      <trkpt lat="42.84042" lon="0.50667">
        <ele>1809.404</ele>
        <time>2022-02-27T11:31:06Z</time>
      </trkpt>
      <trkpt lat="42.84043" lon="0.50668">
        <ele>1808.686</ele>
        <time>2022-02-27T11:31:08Z</time>
      </trkpt>
      <trkpt lat="42.84044" lon="0.5067">
        <ele>1808.916</ele>
        <time>2022-02-27T11:31:10Z</time>
      </trkpt>
      <trkpt lat="42.84045" lon="0.50672">
        <ele>1808.769</ele>
        <time>2022-02-27T11:31:12Z</time>
      </trkpt>
      <trkpt lat="42.84047" lon="0.50674">
        <ele>1809.152</ele>
        <time>2022-02-27T11:31:14Z</time>
      </trkpt>
      <trkpt lat="42.84048" lon="0.50675">
        <ele>1809.4</ele>
        <time>2022-02-27T11:31:16Z</time>
      </trkpt>
      <trkpt lat="42.84049" lon="0.50677">
        <ele>1809.661</ele>
        <time>2022-02-27T11:31:18Z</time>
      </trkpt>
      <trkpt lat="42.8405" lon="0.50679">
        <ele>1809.362</ele>
        <time>2022-02-27T11:31:20Z</time>
      </trkpt>
      <trkpt lat="42.84052" lon="0.5068">
        <ele>1810.146</ele>
        <time>2022-02-27T11:31:22Z</time>
      </trkpt>
      <trkpt lat="42.84054" lon="0.50682">
        <ele>1809.6</ele>
        <time>2022-02-27T11:31:24Z</time>
      </trkpt>
      <trkpt lat="42.84055" lon="0.50683">
        <ele>1809.193</ele>
        <time>2022-02-27T11:31:26Z</time>
      </trkpt>
      <trkpt lat="42.84057" lon="0.50685">
        <ele>1808.879</ele>
        <time>2022-02-27T11:31:28Z</time>
      </trkpt>
      <trkpt lat="42.84058" lon="0.50687">
        <ele>1808.819</ele>
        <time>2022-02-27T11:31:30Z</time>
      </trkpt>
      <trkpt lat="42.84059" lon="0.50688">
        <ele>1809.073</ele>
        <time>2022-02-27T11:31:32Z</time>
      </trkpt>
      <trkpt lat="42.84061" lon="0.5069">
        <ele>1809.265</ele>
        <time>2022-02-27T11:31:34Z</time>
      </trkpt>
      <trkpt lat="42.84062" lon="0.50692">
        <ele>1809.867</ele>
        <time>2022-02-27T11:31:36Z</time>
      </trkpt>
      <trkpt lat="42.84063" lon="0.50694">
        <ele>1809.992</ele>
        <time>2022-02-27T11:31:38Z</time>
      </trkpt>
      <trkpt lat="42.84064" lon="0.50696">
        <ele>1810.515</ele>
        <time>2022-02-27T11:31:40Z</time>
      </trkpt>
      <trkpt lat="42.84066" lon="0.50697">
        <ele>1810.279</ele>
        <time>2022-02-27T11:31:42Z</time>
      </trkpt>
      <trkpt lat="42.84067" lon="0.50699">
        <ele>1810.588</ele>
        <time>2022-02-27T11:31:44Z</time>
      </trkpt>
      <trkpt lat="42.84069" lon="0.50699">
        <ele>1810.336</ele>
        <time>2022-02-27T11:31:46Z</time>
      </trkpt>
      <trkpt lat="42.8407" lon="0.50701">
        <ele>1810.506</ele>
        <time>2022-02-27T11:31:48Z</time>
      </trkpt>
      <trkpt lat="42.84072" lon="0.50702">
        <ele>1810.857</ele>
        <time>2022-02-27T11:31:50Z</time>
      </trkpt>
      <trkpt lat="42.84073" lon="0.50702">
        <ele>1810.385</ele>
        <time>2022-02-27T11:31:52Z</time>
      </trkpt>
      <trkpt lat="42.84075" lon="0.50703">
        <ele>1810.396</ele>
        <time>2022-02-27T11:31:54Z</time>
      </trkpt>
      <trkpt lat="42.84076" lon="0.50703">
        <ele>1811.518</ele>
        <time>2022-02-27T11:31:56Z</time>
      </trkpt>
      <trkpt lat="42.84078" lon="0.50702">
        <ele>1811.387</ele>
        <time>2022-02-27T11:31:58Z</time>
      </trkpt>
      <trkpt lat="42.8408" lon="0.50701">
        <ele>1811.059</ele>
        <time>2022-02-27T11:32:00Z</time>
      </trkpt>
      <trkpt lat="42.84081" lon="0.507">
        <ele>1811.719</ele>
        <time>2022-02-27T11:32:02Z</time>
      </trkpt>
      <trkpt lat="42.84082" lon="0.50701">
        <ele>1811.637</ele>
        <time>2022-02-27T11:32:04Z</time>
      </trkpt>
      <trkpt lat="42.84083" lon="0.507">
        <ele>1811.985</ele>
        <time>2022-02-27T11:32:06Z</time>
      </trkpt>
      <trkpt lat="42.84084" lon="0.50699">
        <ele>1812.498</ele>
        <time>2022-02-27T11:32:08Z</time>
      </trkpt>
      <trkpt lat="42.84086" lon="0.50699">
        <ele>1812.182</ele>
        <time>2022-02-27T11:32:10Z</time>
      </trkpt>
      <trkpt lat="42.84088" lon="0.50699">
        <ele>1812.2</ele>
        <time>2022-02-27T11:32:12Z</time>
      </trkpt>
      <trkpt lat="42.84089" lon="0.50699">
        <ele>1811.929</ele>
        <time>2022-02-27T11:32:14Z</time>
      </trkpt>
      <trkpt lat="42.84091" lon="0.50701">
        <ele>1811.604</ele>
        <time>2022-02-27T11:32:16Z</time>
      </trkpt>
      <trkpt lat="42.84093" lon="0.50702">
        <ele>1811.279</ele>
        <time>2022-02-27T11:32:18Z</time>
      </trkpt>
      <trkpt lat="42.84094" lon="0.50704">
        <ele>1811.221</ele>
        <time>2022-02-27T11:32:20Z</time>
      </trkpt>
      <trkpt lat="42.84095" lon="0.50705">
        <ele>1811.011</ele>
        <time>2022-02-27T11:32:22Z</time>
      </trkpt>
      <trkpt lat="42.84096" lon="0.50706">
        <ele>1811.178</ele>
        <time>2022-02-27T11:32:24Z</time>
      </trkpt>
      <trkpt lat="42.84098" lon="0.50707">
        <ele>1810.317</ele>
        <time>2022-02-27T11:32:26Z</time>
      </trkpt>
      <trkpt lat="42.841" lon="0.50706">
        <ele>1809.463</ele>
        <time>2022-02-27T11:32:28Z</time>
      </trkpt>
      <trkpt lat="42.84101" lon="0.50707">
        <ele>1809.227</ele>
        <time>2022-02-27T11:32:30Z</time>
      </trkpt>
      <trkpt lat="42.84103" lon="0.50707">
        <ele>1809.021</ele>
        <time>2022-02-27T11:32:32Z</time>
      </trkpt>
      <trkpt lat="42.84104" lon="0.50708">
        <ele>1809.428</ele>
        <time>2022-02-27T11:32:34Z</time>
      </trkpt>
      <trkpt lat="42.84106" lon="0.50709">
        <ele>1809.271</ele>
        <time>2022-02-27T11:32:36Z</time>
      </trkpt>
      <trkpt lat="42.84107" lon="0.50709">
        <ele>1809.013</ele>
        <time>2022-02-27T11:32:38Z</time>
      </trkpt>
      <trkpt lat="42.84108" lon="0.5071">
        <ele>1808.682</ele>
        <time>2022-02-27T11:32:40Z</time>
      </trkpt>
      <trkpt lat="42.8411" lon="0.50711">
        <ele>1807.976</ele>
        <time>2022-02-27T11:32:42Z</time>
      </trkpt>
      <trkpt lat="42.84111" lon="0.50712">
        <ele>1807.507</ele>
        <time>2022-02-27T11:32:44Z</time>
      </trkpt>
      <trkpt lat="42.84113" lon="0.50713">
        <ele>1807.915</ele>
        <time>2022-02-27T11:32:46Z</time>
      </trkpt>
      <trkpt lat="42.84114" lon="0.50714">
        <ele>1807.657</ele>
        <time>2022-02-27T11:32:48Z</time>
      </trkpt>
      <trkpt lat="42.84115" lon="0.50714">
        <ele>1807.602</ele>
        <time>2022-02-27T11:32:50Z</time>
      </trkpt>
      <trkpt lat="42.84117" lon="0.50715">
        <ele>1807.277</ele>
        <time>2022-02-27T11:32:52Z</time>
      </trkpt>
      <trkpt lat="42.84119" lon="0.50716">
        <ele>1807.161</ele>
        <time>2022-02-27T11:32:54Z</time>
      </trkpt>
      <trkpt lat="42.8412" lon="0.50717">
        <ele>1807.068</ele>
        <time>2022-02-27T11:32:56Z</time>
      </trkpt>
      <trkpt lat="42.84122" lon="0.50717">
        <ele>1806.952</ele>
        <time>2022-02-27T11:32:58Z</time>
      </trkpt>
      <trkpt lat="42.84124" lon="0.50718">
        <ele>1806.592</ele>
        <time>2022-02-27T11:33:00Z</time>
      </trkpt>
      <trkpt lat="42.84126" lon="0.50718">
        <ele>1806.157</ele>
        <time>2022-02-27T11:33:02Z</time>
      </trkpt>
      <trkpt lat="42.84129" lon="0.50718">
        <ele>1805.669</ele>
        <time>2022-02-27T11:33:04Z</time>
      </trkpt>
      <trkpt lat="42.84131" lon="0.50718">
        <ele>1805.34</ele>
        <time>2022-02-27T11:33:06Z</time>
      </trkpt>
      <trkpt lat="42.84133" lon="0.50717">
        <ele>1804.377</ele>
        <time>2022-02-27T11:33:08Z</time>
      </trkpt>
      <trkpt lat="42.84135" lon="0.50717">
        <ele>1803.643</ele>
        <time>2022-02-27T11:33:10Z</time>
      </trkpt>
      <trkpt lat="42.84137" lon="0.50717">
        <ele>1803.21</ele>
        <time>2022-02-27T11:33:12Z</time>
      </trkpt>
      <trkpt lat="42.84139" lon="0.50717">
        <ele>1802.988</ele>
        <time>2022-02-27T11:33:14Z</time>
      </trkpt>
      <trkpt lat="42.84141" lon="0.50717">
        <ele>1802.658</ele>
        <time>2022-02-27T11:33:16Z</time>
      </trkpt>
      <trkpt lat="42.84142" lon="0.50717">
        <ele>1802.117</ele>
        <time>2022-02-27T11:33:18Z</time>
      </trkpt>
      <trkpt lat="42.84144" lon="0.50716">
        <ele>1801.488</ele>
        <time>2022-02-27T11:33:20Z</time>
      </trkpt>
      <trkpt lat="42.84145" lon="0.50715">
        <ele>1801.036</ele>
        <time>2022-02-27T11:33:22Z</time>
      </trkpt>
      <trkpt lat="42.84147" lon="0.50714">
        <ele>1800.772</ele>
        <time>2022-02-27T11:33:24Z</time>
      </trkpt>
      <trkpt lat="42.84148" lon="0.50713">
        <ele>1800.465</ele>
        <time>2022-02-27T11:33:26Z</time>
      </trkpt>
      <trkpt lat="42.8415" lon="0.50712">
        <ele>1799.866</ele>
        <time>2022-02-27T11:33:28Z</time>
      </trkpt>
      <trkpt lat="42.84151" lon="0.50711">
        <ele>1799.769</ele>
        <time>2022-02-27T11:33:30Z</time>
      </trkpt>
      <trkpt lat="42.84152" lon="0.5071">
        <ele>1798.664</ele>
        <time>2022-02-27T11:33:32Z</time>
      </trkpt>
      <trkpt lat="42.84154" lon="0.50709">
        <ele>1797.829</ele>
        <time>2022-02-27T11:33:34Z</time>
      </trkpt>
      <trkpt lat="42.84155" lon="0.50709">
        <ele>1796.468</ele>
        <time>2022-02-27T11:33:36Z</time>
      </trkpt>
      <trkpt lat="42.84157" lon="0.50708">
        <ele>1795.652</ele>
        <time>2022-02-27T11:33:38Z</time>
      </trkpt>
      <trkpt lat="42.8416" lon="0.50707">
        <ele>1795.025</ele>
        <time>2022-02-27T11:33:40Z</time>
      </trkpt>
      <trkpt lat="42.84162" lon="0.50706">
        <ele>1794.709</ele>
        <time>2022-02-27T11:33:42Z</time>
      </trkpt>
      <trkpt lat="42.84164" lon="0.50706">
        <ele>1795.329</ele>
        <time>2022-02-27T11:33:44Z</time>
      </trkpt>
      <trkpt lat="42.84165" lon="0.50706">
        <ele>1793.878</ele>
        <time>2022-02-27T11:33:46Z</time>
      </trkpt>
      <trkpt lat="42.84166" lon="0.50706">
        <ele>1793.312</ele>
        <time>2022-02-27T11:33:48Z</time>
      </trkpt>
      <trkpt lat="42.84167" lon="0.50707">
        <ele>1792.718</ele>
        <time>2022-02-27T11:33:50Z</time>
      </trkpt>
      <trkpt lat="42.84168" lon="0.50709">
        <ele>1793.318</ele>
        <time>2022-02-27T11:33:52Z</time>
      </trkpt>
      <trkpt lat="42.84169" lon="0.5071">
        <ele>1793.783</ele>
        <time>2022-02-27T11:33:54Z</time>
      </trkpt>
      <trkpt lat="42.8417" lon="0.50711">
        <ele>1793.856</ele>
        <time>2022-02-27T11:33:56Z</time>
      </trkpt>
      <trkpt lat="42.84171" lon="0.50712">
        <ele>1793.374</ele>
        <time>2022-02-27T11:33:58Z</time>
      </trkpt>
      <trkpt lat="42.84173" lon="0.50713">
        <ele>1793.232</ele>
        <time>2022-02-27T11:34:00Z</time>
      </trkpt>
      <trkpt lat="42.84174" lon="0.50714">
        <ele>1792.429</ele>
        <time>2022-02-27T11:34:02Z</time>
      </trkpt>
      <trkpt lat="42.84175" lon="0.50715">
        <ele>1792.265</ele>
        <time>2022-02-27T11:34:04Z</time>
      </trkpt>
      <trkpt lat="42.84176" lon="0.50716">
        <ele>1791.834</ele>
        <time>2022-02-27T11:34:06Z</time>
      </trkpt>
      <trkpt lat="42.84177" lon="0.50718">
        <ele>1791.567</ele>
        <time>2022-02-27T11:34:08Z</time>
      </trkpt>
      <trkpt lat="42.84179" lon="0.50719">
        <ele>1791.684</ele>
        <time>2022-02-27T11:34:10Z</time>
      </trkpt>
      <trkpt lat="42.8418" lon="0.5072">
        <ele>1791.374</ele>
        <time>2022-02-27T11:34:12Z</time>
      </trkpt>
      <trkpt lat="42.84182" lon="0.50721">
        <ele>1790.879</ele>
        <time>2022-02-27T11:34:14Z</time>
      </trkpt>
      <trkpt lat="42.84183" lon="0.50722">
        <ele>1790.194</ele>
        <time>2022-02-27T11:34:16Z</time>
      </trkpt>
      <trkpt lat="42.84185" lon="0.50723">
        <ele>1790.182</ele>
        <time>2022-02-27T11:34:18Z</time>
      </trkpt>
      <trkpt lat="42.84186" lon="0.50724">
        <ele>1790.292</ele>
        <time>2022-02-27T11:34:20Z</time>
      </trkpt>
      <trkpt lat="42.84187" lon="0.50725">
        <ele>1790.013</ele>
        <time>2022-02-27T11:34:22Z</time>
      </trkpt>
      <trkpt lat="42.84188" lon="0.50725">
        <ele>1789.148</ele>
        <time>2022-02-27T11:34:24Z</time>
      </trkpt>
      <trkpt lat="42.8419" lon="0.50725">
        <ele>1787.828</ele>
        <time>2022-02-27T11:34:26Z</time>
      </trkpt>
      <trkpt lat="42.84191" lon="0.50726">
        <ele>1788.108</ele>
        <time>2022-02-27T11:34:28Z</time>
      </trkpt>
      <trkpt lat="42.84193" lon="0.50727">
        <ele>1788.634</ele>
        <time>2022-02-27T11:34:30Z</time>
      </trkpt>
      <trkpt lat="42.84194" lon="0.50729">
        <ele>1788.508</ele>
        <time>2022-02-27T11:34:32Z</time>
      </trkpt>
      <trkpt lat="42.84195" lon="0.50729">
        <ele>1788.967</ele>
        <time>2022-02-27T11:34:34Z</time>
      </trkpt>
      <trkpt lat="42.84196" lon="0.5073">
        <ele>1788.559</ele>
        <time>2022-02-27T11:34:36Z</time>
      </trkpt>
      <trkpt lat="42.84196" lon="0.5073">
        <ele>1787.789</ele>
        <time>2022-02-27T11:34:38Z</time>
      </trkpt>
      <trkpt lat="42.84197" lon="0.5073">
        <ele>1786.928</ele>
        <time>2022-02-27T11:34:40Z</time>
      </trkpt>
      <trkpt lat="42.84197" lon="0.5073">
        <ele>1786.852</ele>
        <time>2022-02-27T11:34:42Z</time>
      </trkpt>
      <trkpt lat="42.84198" lon="0.50731">
        <ele>1786.223</ele>
        <time>2022-02-27T11:34:44Z</time>
      </trkpt>
      <trkpt lat="42.84198" lon="0.50731">
        <ele>1785.739</ele>
        <time>2022-02-27T11:34:46Z</time>
      </trkpt>
      <trkpt lat="42.84198" lon="0.50731">
        <ele>1785.727</ele>
        <time>2022-02-27T11:34:48Z</time>
      </trkpt>
      <trkpt lat="42.84198" lon="0.50731">
        <ele>1785.723</ele>
        <time>2022-02-27T11:34:50Z</time>
      </trkpt>
      <trkpt lat="42.84199" lon="0.50731">
        <ele>1785.7</ele>
        <time>2022-02-27T11:34:52Z</time>
      </trkpt>
      <trkpt lat="42.84201" lon="0.5073">
        <ele>1785.986</ele>
        <time>2022-02-27T11:34:54Z</time>
      </trkpt>
      <trkpt lat="42.84201" lon="0.5073">
        <ele>1785.985</ele>
        <time>2022-02-27T11:34:56Z</time>
      </trkpt>
      <trkpt lat="42.84201" lon="0.5073">
        <ele>1785.946</ele>
        <time>2022-02-27T11:34:58Z</time>
      </trkpt>
      <trkpt lat="42.84201" lon="0.5073">
        <ele>1785.942</ele>
        <time>2022-02-27T11:35:00Z</time>
      </trkpt>
      <trkpt lat="42.84201" lon="0.5073">
        <ele>1785.904</ele>
        <time>2022-02-27T11:35:02Z</time>
      </trkpt>
      <trkpt lat="42.84202" lon="0.5073">
        <ele>1785.777</ele>
        <time>2022-02-27T11:35:04Z</time>
      </trkpt>
      <trkpt lat="42.84204" lon="0.50729">
        <ele>1785.778</ele>
        <time>2022-02-27T11:35:06Z</time>
      </trkpt>
      <trkpt lat="42.84206" lon="0.50728">
        <ele>1785.691</ele>
        <time>2022-02-27T11:35:08Z</time>
      </trkpt>
      <trkpt lat="42.84207" lon="0.50727">
        <ele>1785.27</ele>
        <time>2022-02-27T11:35:10Z</time>
      </trkpt>
      <trkpt lat="42.84209" lon="0.50726">
        <ele>1785.16</ele>
        <time>2022-02-27T11:35:12Z</time>
      </trkpt>
      <trkpt lat="42.84209" lon="0.50725">
        <ele>1783.857</ele>
        <time>2022-02-27T11:35:14Z</time>
      </trkpt>
      <trkpt lat="42.84211" lon="0.50724">
        <ele>1783.531</ele>
        <time>2022-02-27T11:35:16Z</time>
      </trkpt>
      <trkpt lat="42.84212" lon="0.50723">
        <ele>1783.434</ele>
        <time>2022-02-27T11:35:18Z</time>
      </trkpt>
      <trkpt lat="42.84213" lon="0.50722">
        <ele>1783.534</ele>
        <time>2022-02-27T11:35:20Z</time>
      </trkpt>
      <trkpt lat="42.84215" lon="0.50721">
        <ele>1783.856</ele>
        <time>2022-02-27T11:35:22Z</time>
      </trkpt>
      <trkpt lat="42.84216" lon="0.5072">
        <ele>1782.705</ele>
        <time>2022-02-27T11:35:24Z</time>
      </trkpt>
      <trkpt lat="42.84216" lon="0.5072">
        <ele>1780.975</ele>
        <time>2022-02-27T11:35:26Z</time>
      </trkpt>
      <trkpt lat="42.84217" lon="0.50721">
        <ele>1780.486</ele>
        <time>2022-02-27T11:35:28Z</time>
      </trkpt>
      <trkpt lat="42.84217" lon="0.50721">
        <ele>1779.689</ele>
        <time>2022-02-27T11:35:30Z</time>
      </trkpt>
      <trkpt lat="42.84219" lon="0.50721">
        <ele>1779.331</ele>
        <time>2022-02-27T11:35:32Z</time>
      </trkpt>
      <trkpt lat="42.8422" lon="0.5072">
        <ele>1778.218</ele>
        <time>2022-02-27T11:35:34Z</time>
      </trkpt>
      <trkpt lat="42.84221" lon="0.5072">
        <ele>1776.649</ele>
        <time>2022-02-27T11:35:36Z</time>
      </trkpt>
      <trkpt lat="42.84221" lon="0.5072">
        <ele>1776.274</ele>
        <time>2022-02-27T11:35:38Z</time>
      </trkpt>
      <trkpt lat="42.84222" lon="0.5072">
        <ele>1775.719</ele>
        <time>2022-02-27T11:35:40Z</time>
      </trkpt>
      <trkpt lat="42.84223" lon="0.50721">
        <ele>1775.428</ele>
        <time>2022-02-27T11:35:42Z</time>
      </trkpt>
      <trkpt lat="42.84224" lon="0.50721">
        <ele>1774.877</ele>
        <time>2022-02-27T11:35:44Z</time>
      </trkpt>
      <trkpt lat="42.84225" lon="0.50722">
        <ele>1774.26</ele>
        <time>2022-02-27T11:35:46Z</time>
      </trkpt>
      <trkpt lat="42.84226" lon="0.50722">
        <ele>1773.725</ele>
        <time>2022-02-27T11:35:48Z</time>
      </trkpt>
      <trkpt lat="42.84227" lon="0.50723">
        <ele>1772.679</ele>
        <time>2022-02-27T11:35:50Z</time>
      </trkpt>
      <trkpt lat="42.84229" lon="0.50724">
        <ele>1772.581</ele>
        <time>2022-02-27T11:35:52Z</time>
      </trkpt>
      <trkpt lat="42.8423" lon="0.50725">
        <ele>1771.63</ele>
        <time>2022-02-27T11:35:54Z</time>
      </trkpt>
      <trkpt lat="42.84231" lon="0.50726">
        <ele>1770.186</ele>
        <time>2022-02-27T11:35:56Z</time>
      </trkpt>
      <trkpt lat="42.84233" lon="0.50726">
        <ele>1769.535</ele>
        <time>2022-02-27T11:35:58Z</time>
      </trkpt>
      <trkpt lat="42.84234" lon="0.50726">
        <ele>1769.082</ele>
        <time>2022-02-27T11:36:00Z</time>
      </trkpt>
      <trkpt lat="42.84235" lon="0.50727">
        <ele>1768.59</ele>
        <time>2022-02-27T11:36:02Z</time>
      </trkpt>
      <trkpt lat="42.84236" lon="0.50727">
        <ele>1767.774</ele>
        <time>2022-02-27T11:36:04Z</time>
      </trkpt>
      <trkpt lat="42.84238" lon="0.50728">
        <ele>1767.523</ele>
        <time>2022-02-27T11:36:06Z</time>
      </trkpt>
      <trkpt lat="42.8424" lon="0.50729">
        <ele>1767.17</ele>
        <time>2022-02-27T11:36:08Z</time>
      </trkpt>
      <trkpt lat="42.84241" lon="0.5073">
        <ele>1767.681</ele>
        <time>2022-02-27T11:36:10Z</time>
      </trkpt>
      <trkpt lat="42.84241" lon="0.5073">
        <ele>1767.656</ele>
        <time>2022-02-27T11:36:12Z</time>
      </trkpt>
      <trkpt lat="42.84242" lon="0.50731">
        <ele>1769.048</ele>
        <time>2022-02-27T11:36:14Z</time>
      </trkpt>
      <trkpt lat="42.84243" lon="0.50732">
        <ele>1768.608</ele>
        <time>2022-02-27T11:36:16Z</time>
      </trkpt>
      <trkpt lat="42.84244" lon="0.50732">
        <ele>1768.059</ele>
        <time>2022-02-27T11:36:18Z</time>
      </trkpt>
      <trkpt lat="42.84246" lon="0.50733">
        <ele>1767.937</ele>
        <time>2022-02-27T11:36:20Z</time>
      </trkpt>
      <trkpt lat="42.84248" lon="0.50733">
        <ele>1767.471</ele>
        <time>2022-02-27T11:36:22Z</time>
      </trkpt>
      <trkpt lat="42.8425" lon="0.50733">
        <ele>1766.873</ele>
        <time>2022-02-27T11:36:24Z</time>
      </trkpt>
      <trkpt lat="42.84251" lon="0.50732">
        <ele>1767.056</ele>
        <time>2022-02-27T11:36:26Z</time>
      </trkpt>
      <trkpt lat="42.84253" lon="0.50732">
        <ele>1766.073</ele>
        <time>2022-02-27T11:36:28Z</time>
      </trkpt>
      <trkpt lat="42.84254" lon="0.5073">
        <ele>1765.654</ele>
        <time>2022-02-27T11:36:30Z</time>
      </trkpt>
      <trkpt lat="42.84256" lon="0.5073">
        <ele>1765.036</ele>
        <time>2022-02-27T11:36:32Z</time>
      </trkpt>
      <trkpt lat="42.84258" lon="0.5073">
        <ele>1764.869</ele>
        <time>2022-02-27T11:36:34Z</time>
      </trkpt>
      <trkpt lat="42.84259" lon="0.5073">
        <ele>1764.057</ele>
        <time>2022-02-27T11:36:36Z</time>
      </trkpt>
      <trkpt lat="42.84261" lon="0.50729">
        <ele>1763.644</ele>
        <time>2022-02-27T11:36:38Z</time>
      </trkpt>
      <trkpt lat="42.84264" lon="0.50728">
        <ele>1763.164</ele>
        <time>2022-02-27T11:36:40Z</time>
      </trkpt>
      <trkpt lat="42.84266" lon="0.50727">
        <ele>1761.768</ele>
        <time>2022-02-27T11:36:42Z</time>
      </trkpt>
      <trkpt lat="42.84268" lon="0.50727">
        <ele>1761.68</ele>
        <time>2022-02-27T11:36:44Z</time>
      </trkpt>
      <trkpt lat="42.84269" lon="0.50727">
        <ele>1760.753</ele>
        <time>2022-02-27T11:36:46Z</time>
      </trkpt>
      <trkpt lat="42.84271" lon="0.50727">
        <ele>1760.228</ele>
        <time>2022-02-27T11:36:48Z</time>
      </trkpt>
      <trkpt lat="42.84273" lon="0.50727">
        <ele>1759.878</ele>
        <time>2022-02-27T11:36:50Z</time>
      </trkpt>
      <trkpt lat="42.84275" lon="0.50726">
        <ele>1759.387</ele>
        <time>2022-02-27T11:36:52Z</time>
      </trkpt>
      <trkpt lat="42.84277" lon="0.50726">
        <ele>1759.453</ele>
        <time>2022-02-27T11:36:54Z</time>
      </trkpt>
      <trkpt lat="42.84279" lon="0.50725">
        <ele>1758.614</ele>
        <time>2022-02-27T11:36:56Z</time>
      </trkpt>
      <trkpt lat="42.84281" lon="0.50724">
        <ele>1758.053</ele>
        <time>2022-02-27T11:36:58Z</time>
      </trkpt>
      <trkpt lat="42.84284" lon="0.50723">
        <ele>1757.565</ele>
        <time>2022-02-27T11:37:00Z</time>
      </trkpt>
      <trkpt lat="42.84285" lon="0.50721">
        <ele>1757.7</ele>
        <time>2022-02-27T11:37:02Z</time>
      </trkpt>
      <trkpt lat="42.84287" lon="0.5072">
        <ele>1757.201</ele>
        <time>2022-02-27T11:37:04Z</time>
      </trkpt>
      <trkpt lat="42.84289" lon="0.50718">
        <ele>1756.301</ele>
        <time>2022-02-27T11:37:06Z</time>
      </trkpt>
      <trkpt lat="42.84291" lon="0.50717">
        <ele>1755.69</ele>
        <time>2022-02-27T11:37:08Z</time>
      </trkpt>
      <trkpt lat="42.84293" lon="0.50716">
        <ele>1755.293</ele>
        <time>2022-02-27T11:37:10Z</time>
      </trkpt>
      <trkpt lat="42.84295" lon="0.50715">
        <ele>1755.142</ele>
        <time>2022-02-27T11:37:12Z</time>
      </trkpt>
      <trkpt lat="42.84297" lon="0.50714">
        <ele>1755.213</ele>
        <time>2022-02-27T11:37:14Z</time>
      </trkpt>
      <trkpt lat="42.843" lon="0.50713">
        <ele>1754.299</ele>
        <time>2022-02-27T11:37:16Z</time>
      </trkpt>
      <trkpt lat="42.84302" lon="0.50712">
        <ele>1754.169</ele>
        <time>2022-02-27T11:37:18Z</time>
      </trkpt>
      <trkpt lat="42.84304" lon="0.50712">
        <ele>1753.992</ele>
        <time>2022-02-27T11:37:20Z</time>
      </trkpt>
      <trkpt lat="42.84305" lon="0.50712">
        <ele>1753.37</ele>
        <time>2022-02-27T11:37:22Z</time>
      </trkpt>
      <trkpt lat="42.84307" lon="0.50711">
        <ele>1753.6</ele>
        <time>2022-02-27T11:37:24Z</time>
      </trkpt>
      <trkpt lat="42.84309" lon="0.5071">
        <ele>1753.471</ele>
        <time>2022-02-27T11:37:26Z</time>
      </trkpt>
      <trkpt lat="42.84311" lon="0.50708">
        <ele>1753.194</ele>
        <time>2022-02-27T11:37:28Z</time>
      </trkpt>
      <trkpt lat="42.84312" lon="0.50706">
        <ele>1753.009</ele>
        <time>2022-02-27T11:37:30Z</time>
      </trkpt>
      <trkpt lat="42.84312" lon="0.50703">
        <ele>1753.453</ele>
        <time>2022-02-27T11:37:32Z</time>
      </trkpt>
      <trkpt lat="42.84313" lon="0.50701">
        <ele>1753.672</ele>
        <time>2022-02-27T11:37:34Z</time>
      </trkpt>
      <trkpt lat="42.84314" lon="0.50698">
        <ele>1753.242</ele>
        <time>2022-02-27T11:37:36Z</time>
      </trkpt>
      <trkpt lat="42.84315" lon="0.50696">
        <ele>1753.381</ele>
        <time>2022-02-27T11:37:38Z</time>
      </trkpt>
      <trkpt lat="42.84316" lon="0.50694">
        <ele>1752.874</ele>
        <time>2022-02-27T11:37:40Z</time>
      </trkpt>
      <trkpt lat="42.84317" lon="0.50692">
        <ele>1752.632</ele>
        <time>2022-02-27T11:37:42Z</time>
      </trkpt>
      <trkpt lat="42.84318" lon="0.5069">
        <ele>1752.362</ele>
        <time>2022-02-27T11:37:44Z</time>
      </trkpt>
      <trkpt lat="42.84318" lon="0.50688">
        <ele>1752.302</ele>
        <time>2022-02-27T11:37:46Z</time>
      </trkpt>
      <trkpt lat="42.84319" lon="0.50686">
        <ele>1751.343</ele>
        <time>2022-02-27T11:37:48Z</time>
      </trkpt>
      <trkpt lat="42.84319" lon="0.50683">
        <ele>1752.17</ele>
        <time>2022-02-27T11:37:50Z</time>
      </trkpt>
      <trkpt lat="42.8432" lon="0.50681">
        <ele>1752.157</ele>
        <time>2022-02-27T11:37:52Z</time>
      </trkpt>
      <trkpt lat="42.8432" lon="0.50679">
        <ele>1752.07</ele>
        <time>2022-02-27T11:37:54Z</time>
      </trkpt>
      <trkpt lat="42.84321" lon="0.50677">
        <ele>1752.263</ele>
        <time>2022-02-27T11:37:56Z</time>
      </trkpt>
      <trkpt lat="42.84321" lon="0.50674">
        <ele>1751.693</ele>
        <time>2022-02-27T11:37:58Z</time>
      </trkpt>
      <trkpt lat="42.84322" lon="0.50672">
        <ele>1752.077</ele>
        <time>2022-02-27T11:38:00Z</time>
      </trkpt>
      <trkpt lat="42.84322" lon="0.50669">
        <ele>1752.235</ele>
        <time>2022-02-27T11:38:02Z</time>
      </trkpt>
      <trkpt lat="42.84323" lon="0.50667">
        <ele>1753.151</ele>
        <time>2022-02-27T11:38:04Z</time>
      </trkpt>
      <trkpt lat="42.84323" lon="0.50666">
        <ele>1752.777</ele>
        <time>2022-02-27T11:38:06Z</time>
      </trkpt>
      <trkpt lat="42.84323" lon="0.50665">
        <ele>1752.645</ele>
        <time>2022-02-27T11:38:08Z</time>
      </trkpt>
      <trkpt lat="42.84323" lon="0.50663">
        <ele>1752.944</ele>
        <time>2022-02-27T11:38:10Z</time>
      </trkpt>
      <trkpt lat="42.84323" lon="0.50663">
        <ele>1753.259</ele>
        <time>2022-02-27T11:38:12Z</time>
      </trkpt>
      <trkpt lat="42.84323" lon="0.50663">
        <ele>1753.273</ele>
        <time>2022-02-27T11:38:14Z</time>
      </trkpt>
      <trkpt lat="42.84323" lon="0.50663">
        <ele>1753.264</ele>
        <time>2022-02-27T11:38:16Z</time>
      </trkpt>
      <trkpt lat="42.84323" lon="0.50663">
        <ele>1753.28</ele>
        <time>2022-02-27T11:38:18Z</time>
      </trkpt>
      <trkpt lat="42.84323" lon="0.50663">
        <ele>1753.271</ele>
        <time>2022-02-27T11:38:20Z</time>
      </trkpt>
      <trkpt lat="42.84323" lon="0.50663">
        <ele>1753.282</ele>
        <time>2022-02-27T11:38:22Z</time>
      </trkpt>
      <trkpt lat="42.84323" lon="0.50663">
        <ele>1753.274</ele>
        <time>2022-02-27T11:38:24Z</time>
      </trkpt>
      <trkpt lat="42.84323" lon="0.50663">
        <ele>1753.273</ele>
        <time>2022-02-27T11:38:26Z</time>
      </trkpt>
      <trkpt lat="42.84323" lon="0.50663">
        <ele>1753.256</ele>
        <time>2022-02-27T11:38:28Z</time>
      </trkpt>
      <trkpt lat="42.84323" lon="0.50663">
        <ele>1753.259</ele>
        <time>2022-02-27T11:38:30Z</time>
      </trkpt>
      <trkpt lat="42.84324" lon="0.50662">
        <ele>1753.217</ele>
        <time>2022-02-27T11:38:32Z</time>
      </trkpt>
      <trkpt lat="42.84324" lon="0.50661">
        <ele>1753.409</ele>
        <time>2022-02-27T11:38:34Z</time>
      </trkpt>
      <trkpt lat="42.84325" lon="0.5066">
        <ele>1752.791</ele>
        <time>2022-02-27T11:38:36Z</time>
      </trkpt>
      <trkpt lat="42.84325" lon="0.50659">
        <ele>1753.225</ele>
        <time>2022-02-27T11:38:38Z</time>
      </trkpt>
      <trkpt lat="42.84326" lon="0.50658">
        <ele>1753.572</ele>
        <time>2022-02-27T11:38:40Z</time>
      </trkpt>
      <trkpt lat="42.84326" lon="0.50658">
        <ele>1753.11</ele>
        <time>2022-02-27T11:38:42Z</time>
      </trkpt>
      <trkpt lat="42.84327" lon="0.50658">
        <ele>1752.291</ele>
        <time>2022-02-27T11:38:44Z</time>
      </trkpt>
      <trkpt lat="42.84328" lon="0.50658">
        <ele>1751.575</ele>
        <time>2022-02-27T11:38:46Z</time>
      </trkpt>
      <trkpt lat="42.84329" lon="0.50658">
        <ele>1751.349</ele>
        <time>2022-02-27T11:38:48Z</time>
      </trkpt>
      <trkpt lat="42.8433" lon="0.50657">
        <ele>1751.003</ele>
        <time>2022-02-27T11:38:50Z</time>
      </trkpt>
      <trkpt lat="42.84331" lon="0.50656">
        <ele>1750.34</ele>
        <time>2022-02-27T11:38:52Z</time>
      </trkpt>
      <trkpt lat="42.84332" lon="0.50655">
        <ele>1749.786</ele>
        <time>2022-02-27T11:38:54Z</time>
      </trkpt>
      <trkpt lat="42.84334" lon="0.50654">
        <ele>1749.85</ele>
        <time>2022-02-27T11:38:56Z</time>
      </trkpt>
      <trkpt lat="42.84335" lon="0.50654">
        <ele>1750.352</ele>
        <time>2022-02-27T11:38:58Z</time>
      </trkpt>
      <trkpt lat="42.84336" lon="0.50654">
        <ele>1750.471</ele>
        <time>2022-02-27T11:39:00Z</time>
      </trkpt>
      <trkpt lat="42.84337" lon="0.50654">
        <ele>1749.915</ele>
        <time>2022-02-27T11:39:02Z</time>
      </trkpt>
      <trkpt lat="42.84338" lon="0.50653">
        <ele>1750.821</ele>
        <time>2022-02-27T11:39:04Z</time>
      </trkpt>
      <trkpt lat="42.8434" lon="0.50653">
        <ele>1749.691</ele>
        <time>2022-02-27T11:39:06Z</time>
      </trkpt>
      <trkpt lat="42.84341" lon="0.50652">
        <ele>1748.897</ele>
        <time>2022-02-27T11:39:08Z</time>
      </trkpt>
      <trkpt lat="42.84341" lon="0.50652">
        <ele>1748.226</ele>
        <time>2022-02-27T11:39:10Z</time>
      </trkpt>
      <trkpt lat="42.84343" lon="0.50651">
        <ele>1747.766</ele>
        <time>2022-02-27T11:39:12Z</time>
      </trkpt>
      <trkpt lat="42.84345" lon="0.5065">
        <ele>1747.664</ele>
        <time>2022-02-27T11:39:14Z</time>
      </trkpt>
      <trkpt lat="42.84346" lon="0.50649">
        <ele>1747.672</ele>
        <time>2022-02-27T11:39:16Z</time>
      </trkpt>
      <trkpt lat="42.84346" lon="0.50649">
        <ele>1747.633</ele>
        <time>2022-02-27T11:39:18Z</time>
      </trkpt>
      <trkpt lat="42.84346" lon="0.5065">
        <ele>1748.431</ele>
        <time>2022-02-27T11:39:20Z</time>
      </trkpt>
      <trkpt lat="42.84346" lon="0.5065">
        <ele>1748.384</ele>
        <time>2022-02-27T11:39:22Z</time>
      </trkpt>
      <trkpt lat="42.84346" lon="0.5065">
        <ele>1748.381</ele>
        <time>2022-02-27T11:39:24Z</time>
      </trkpt>
      <trkpt lat="42.84346" lon="0.5065">
        <ele>1748.365</ele>
        <time>2022-02-27T11:39:26Z</time>
      </trkpt>
      <trkpt lat="42.84346" lon="0.50651">
        <ele>1747.879</ele>
        <time>2022-02-27T11:39:28Z</time>
      </trkpt>
      <trkpt lat="42.84346" lon="0.50651">
        <ele>1747.604</ele>
        <time>2022-02-27T11:39:30Z</time>
      </trkpt>
      <trkpt lat="42.84346" lon="0.50651">
        <ele>1747.423</ele>
        <time>2022-02-27T11:39:32Z</time>
      </trkpt>
      <trkpt lat="42.84347" lon="0.50651">
        <ele>1746.529</ele>
        <time>2022-02-27T11:39:34Z</time>
      </trkpt>
      <trkpt lat="42.84348" lon="0.5065">
        <ele>1747.236</ele>
        <time>2022-02-27T11:39:36Z</time>
      </trkpt>
      <trkpt lat="42.84349" lon="0.50648">
        <ele>1746.813</ele>
        <time>2022-02-27T11:39:38Z</time>
      </trkpt>
      <trkpt lat="42.84351" lon="0.50646">
        <ele>1746.184</ele>
        <time>2022-02-27T11:39:40Z</time>
      </trkpt>
      <trkpt lat="42.84353" lon="0.50645">
        <ele>1745.566</ele>
        <time>2022-02-27T11:39:42Z</time>
      </trkpt>
      <trkpt lat="42.84354" lon="0.50644">
        <ele>1745.021</ele>
        <time>2022-02-27T11:39:44Z</time>
      </trkpt>
      <trkpt lat="42.84355" lon="0.50642">
        <ele>1744</ele>
        <time>2022-02-27T11:39:46Z</time>
      </trkpt>
      <trkpt lat="42.84355" lon="0.50642">
        <ele>1743.5</ele>
        <time>2022-02-27T11:39:48Z</time>
      </trkpt>
      <trkpt lat="42.84356" lon="0.50641">
        <ele>1742.879</ele>
        <time>2022-02-27T11:39:50Z</time>
      </trkpt>
      <trkpt lat="42.84356" lon="0.5064">
        <ele>1742.332</ele>
        <time>2022-02-27T11:39:52Z</time>
      </trkpt>
      <trkpt lat="42.84356" lon="0.50638">
        <ele>1741.608</ele>
        <time>2022-02-27T11:39:54Z</time>
      </trkpt>
      <trkpt lat="42.84355" lon="0.50639">
        <ele>1741.032</ele>
        <time>2022-02-27T11:39:56Z</time>
      </trkpt>
      <trkpt lat="42.84355" lon="0.50639">
        <ele>1741.032</ele>
        <time>2022-02-27T11:39:58Z</time>
      </trkpt>
      <trkpt lat="42.84355" lon="0.50639">
        <ele>1740.989</ele>
        <time>2022-02-27T11:40:00Z</time>
      </trkpt>
      <trkpt lat="42.84355" lon="0.50639">
        <ele>1740.973</ele>
        <time>2022-02-27T11:40:02Z</time>
      </trkpt>
      <trkpt lat="42.84355" lon="0.50639">
        <ele>1740.925</ele>
        <time>2022-02-27T11:40:04Z</time>
      </trkpt>
      <trkpt lat="42.84355" lon="0.50639">
        <ele>1740.889</ele>
        <time>2022-02-27T11:40:06Z</time>
      </trkpt>
      <trkpt lat="42.84355" lon="0.50639">
        <ele>1740.859</ele>
        <time>2022-02-27T11:40:08Z</time>
      </trkpt>
      <trkpt lat="42.84355" lon="0.50639">
        <ele>1740.867</ele>
        <time>2022-02-27T11:40:10Z</time>
      </trkpt>
      <trkpt lat="42.84355" lon="0.50639">
        <ele>1740.845</ele>
        <time>2022-02-27T11:40:12Z</time>
      </trkpt>
      <trkpt lat="42.84355" lon="0.50639">
        <ele>1740.846</ele>
        <time>2022-02-27T11:40:14Z</time>
      </trkpt>
      <trkpt lat="42.84355" lon="0.50639">
        <ele>1740.828</ele>
        <time>2022-02-27T11:40:16Z</time>
      </trkpt>
      <trkpt lat="42.84355" lon="0.50639">
        <ele>1740.835</ele>
        <time>2022-02-27T11:40:18Z</time>
      </trkpt>
      <trkpt lat="42.84355" lon="0.50639">
        <ele>1740.837</ele>
        <time>2022-02-27T11:40:20Z</time>
      </trkpt>
      <trkpt lat="42.84355" lon="0.50639">
        <ele>1740.861</ele>
        <time>2022-02-27T11:40:22Z</time>
      </trkpt>
      <trkpt lat="42.84355" lon="0.50639">
        <ele>1740.864</ele>
        <time>2022-02-27T11:40:24Z</time>
      </trkpt>
      <trkpt lat="42.84355" lon="0.50639">
        <ele>1740.852</ele>
        <time>2022-02-27T11:40:26Z</time>
      </trkpt>
      <trkpt lat="42.84355" lon="0.50639">
        <ele>1740.839</ele>
        <time>2022-02-27T11:40:28Z</time>
      </trkpt>
      <trkpt lat="42.84355" lon="0.50639">
        <ele>1740.844</ele>
        <time>2022-02-27T11:40:30Z</time>
      </trkpt>
      <trkpt lat="42.84355" lon="0.50639">
        <ele>1740.815</ele>
        <time>2022-02-27T11:40:32Z</time>
      </trkpt>
      <trkpt lat="42.84354" lon="0.50639">
        <ele>1740.788</ele>
        <time>2022-02-27T11:40:34Z</time>
      </trkpt>
      <trkpt lat="42.84354" lon="0.50639">
        <ele>1740.75</ele>
        <time>2022-02-27T11:40:36Z</time>
      </trkpt>
      <trkpt lat="42.84354" lon="0.50639">
        <ele>1740.734</ele>
        <time>2022-02-27T11:40:38Z</time>
      </trkpt>
      <trkpt lat="42.84354" lon="0.50639">
        <ele>1740.727</ele>
        <time>2022-02-27T11:40:40Z</time>
      </trkpt>
      <trkpt lat="42.84354" lon="0.50639">
        <ele>1740.716</ele>
        <time>2022-02-27T11:40:42Z</time>
      </trkpt>
      <trkpt lat="42.84354" lon="0.50639">
        <ele>1740.722</ele>
        <time>2022-02-27T11:40:44Z</time>
      </trkpt>
      <trkpt lat="42.84354" lon="0.50639">
        <ele>1740.724</ele>
        <time>2022-02-27T11:40:46Z</time>
      </trkpt>
      <trkpt lat="42.84354" lon="0.50639">
        <ele>1740.729</ele>
        <time>2022-02-27T11:40:48Z</time>
      </trkpt>
      <trkpt lat="42.84354" lon="0.50639">
        <ele>1740.729</ele>
        <time>2022-02-27T11:40:50Z</time>
      </trkpt>
      <trkpt lat="42.84354" lon="0.50639">
        <ele>1740.716</ele>
        <time>2022-02-27T11:40:52Z</time>
      </trkpt>
      <trkpt lat="42.84354" lon="0.50639">
        <ele>1740.699</ele>
        <time>2022-02-27T11:40:54Z</time>
      </trkpt>
      <trkpt lat="42.84354" lon="0.50639">
        <ele>1740.684</ele>
        <time>2022-02-27T11:40:56Z</time>
      </trkpt>
      <trkpt lat="42.84354" lon="0.50639">
        <ele>1740.686</ele>
        <time>2022-02-27T11:40:58Z</time>
      </trkpt>
      <trkpt lat="42.84354" lon="0.50639">
        <ele>1740.326</ele>
        <time>2022-02-27T11:41:00Z</time>
      </trkpt>
      <trkpt lat="42.84355" lon="0.50639">
        <ele>1740.323</ele>
        <time>2022-02-27T11:41:02Z</time>
      </trkpt>
      <trkpt lat="42.84355" lon="0.50639">
        <ele>1739.345</ele>
        <time>2022-02-27T11:41:04Z</time>
      </trkpt>
      <trkpt lat="42.84355" lon="0.50637">
        <ele>1739.156</ele>
        <time>2022-02-27T11:41:06Z</time>
      </trkpt>
      <trkpt lat="42.84356" lon="0.50635">
        <ele>1738.747</ele>
        <time>2022-02-27T11:41:08Z</time>
      </trkpt>
      <trkpt lat="42.84356" lon="0.50633">
        <ele>1738.356</ele>
        <time>2022-02-27T11:41:10Z</time>
      </trkpt>
      <trkpt lat="42.84357" lon="0.50631">
        <ele>1739.018</ele>
        <time>2022-02-27T11:41:12Z</time>
      </trkpt>
      <trkpt lat="42.84358" lon="0.5063">
        <ele>1738.876</ele>
        <time>2022-02-27T11:41:14Z</time>
      </trkpt>
      <trkpt lat="42.84358" lon="0.50628">
        <ele>1739.148</ele>
        <time>2022-02-27T11:41:16Z</time>
      </trkpt>
      <trkpt lat="42.84358" lon="0.50626">
        <ele>1739.71</ele>
        <time>2022-02-27T11:41:18Z</time>
      </trkpt>
      <trkpt lat="42.84359" lon="0.50624">
        <ele>1739.592</ele>
        <time>2022-02-27T11:41:20Z</time>
      </trkpt>
      <trkpt lat="42.84358" lon="0.50623">
        <ele>1738.09</ele>
        <time>2022-02-27T11:41:22Z</time>
      </trkpt>
      <trkpt lat="42.84357" lon="0.50622">
        <ele>1736.253</ele>
        <time>2022-02-27T11:41:24Z</time>
      </trkpt>
      <trkpt lat="42.84357" lon="0.5062">
        <ele>1734.566</ele>
        <time>2022-02-27T11:41:26Z</time>
      </trkpt>
      <trkpt lat="42.84357" lon="0.50619">
        <ele>1734.414</ele>
        <time>2022-02-27T11:41:28Z</time>
      </trkpt>
      <trkpt lat="42.84357" lon="0.5062">
        <ele>1734.359</ele>
        <time>2022-02-27T11:41:30Z</time>
      </trkpt>
      <trkpt lat="42.84357" lon="0.5062">
        <ele>1734.342</ele>
        <time>2022-02-27T11:41:32Z</time>
      </trkpt>
      <trkpt lat="42.84357" lon="0.5062">
        <ele>1734.354</ele>
        <time>2022-02-27T11:41:34Z</time>
      </trkpt>
      <trkpt lat="42.84357" lon="0.5062">
        <ele>1734.326</ele>
        <time>2022-02-27T11:41:36Z</time>
      </trkpt>
      <trkpt lat="42.84357" lon="0.5062">
        <ele>1734.304</ele>
        <time>2022-02-27T11:41:38Z</time>
      </trkpt>
      <trkpt lat="42.84357" lon="0.5062">
        <ele>1733.91</ele>
        <time>2022-02-27T11:41:40Z</time>
      </trkpt>
      <trkpt lat="42.84356" lon="0.50618">
        <ele>1732.836</ele>
        <time>2022-02-27T11:41:42Z</time>
      </trkpt>
      <trkpt lat="42.84356" lon="0.50616">
        <ele>1731.666</ele>
        <time>2022-02-27T11:41:44Z</time>
      </trkpt>
      <trkpt lat="42.84356" lon="0.50615">
        <ele>1731.378</ele>
        <time>2022-02-27T11:41:46Z</time>
      </trkpt>
      <trkpt lat="42.84357" lon="0.50613">
        <ele>1730.941</ele>
        <time>2022-02-27T11:41:48Z</time>
      </trkpt>
      <trkpt lat="42.84357" lon="0.50612">
        <ele>1730.667</ele>
        <time>2022-02-27T11:41:50Z</time>
      </trkpt>
      <trkpt lat="42.84358" lon="0.5061">
        <ele>1730.002</ele>
        <time>2022-02-27T11:41:52Z</time>
      </trkpt>
      <trkpt lat="42.84358" lon="0.50609">
        <ele>1729.57</ele>
        <time>2022-02-27T11:41:54Z</time>
      </trkpt>
      <trkpt lat="42.84358" lon="0.50607">
        <ele>1728.145</ele>
        <time>2022-02-27T11:41:56Z</time>
      </trkpt>
      <trkpt lat="42.84358" lon="0.50606">
        <ele>1726.841</ele>
        <time>2022-02-27T11:41:58Z</time>
      </trkpt>
      <trkpt lat="42.84359" lon="0.50605">
        <ele>1728.693</ele>
        <time>2022-02-27T11:42:00Z</time>
      </trkpt>
      <trkpt lat="42.84358" lon="0.50603">
        <ele>1729.186</ele>
        <time>2022-02-27T11:42:02Z</time>
      </trkpt>
      <trkpt lat="42.84358" lon="0.50602">
        <ele>1727.84</ele>
        <time>2022-02-27T11:42:04Z</time>
      </trkpt>
      <trkpt lat="42.84358" lon="0.506">
        <ele>1727.234</ele>
        <time>2022-02-27T11:42:06Z</time>
      </trkpt>
      <trkpt lat="42.84358" lon="0.50599">
        <ele>1726.359</ele>
        <time>2022-02-27T11:42:08Z</time>
      </trkpt>
      <trkpt lat="42.84358" lon="0.50598">
        <ele>1726.542</ele>
        <time>2022-02-27T11:42:10Z</time>
      </trkpt>
      <trkpt lat="42.84358" lon="0.50596">
        <ele>1726.933</ele>
        <time>2022-02-27T11:42:12Z</time>
      </trkpt>
      <trkpt lat="42.84357" lon="0.50597">
        <ele>1725.151</ele>
        <time>2022-02-27T11:42:14Z</time>
      </trkpt>
      <trkpt lat="42.84357" lon="0.50597">
        <ele>1725.51</ele>
        <time>2022-02-27T11:42:16Z</time>
      </trkpt>
      <trkpt lat="42.84357" lon="0.50597">
        <ele>1725.477</ele>
        <time>2022-02-27T11:42:18Z</time>
      </trkpt>
      <trkpt lat="42.84357" lon="0.50597">
        <ele>1725.47</ele>
        <time>2022-02-27T11:42:20Z</time>
      </trkpt>
      <trkpt lat="42.84357" lon="0.50597">
        <ele>1725.491</ele>
        <time>2022-02-27T11:42:22Z</time>
      </trkpt>
      <trkpt lat="42.84357" lon="0.50597">
        <ele>1725.477</ele>
        <time>2022-02-27T11:42:24Z</time>
      </trkpt>
      <trkpt lat="42.84357" lon="0.50597">
        <ele>1725.497</ele>
        <time>2022-02-27T11:42:26Z</time>
      </trkpt>
      <trkpt lat="42.84357" lon="0.50597">
        <ele>1725.091</ele>
        <time>2022-02-27T11:42:28Z</time>
      </trkpt>
      <trkpt lat="42.84358" lon="0.50597">
        <ele>1725.293</ele>
        <time>2022-02-27T11:42:30Z</time>
      </trkpt>
      <trkpt lat="42.84359" lon="0.50595">
        <ele>1726.128</ele>
        <time>2022-02-27T11:42:32Z</time>
      </trkpt>
      <trkpt lat="42.84359" lon="0.50595">
        <ele>1725.989</ele>
        <time>2022-02-27T11:42:34Z</time>
      </trkpt>
      <trkpt lat="42.84359" lon="0.50595">
        <ele>1726.605</ele>
        <time>2022-02-27T11:42:36Z</time>
      </trkpt>
      <trkpt lat="42.8436" lon="0.50593">
        <ele>1726.677</ele>
        <time>2022-02-27T11:42:38Z</time>
      </trkpt>
      <trkpt lat="42.8436" lon="0.50593">
        <ele>1726.653</ele>
        <time>2022-02-27T11:42:40Z</time>
      </trkpt>
      <trkpt lat="42.8436" lon="0.50593">
        <ele>1726.657</ele>
        <time>2022-02-27T11:42:42Z</time>
      </trkpt>
      <trkpt lat="42.8436" lon="0.50592">
        <ele>1726.681</ele>
        <time>2022-02-27T11:42:44Z</time>
      </trkpt>
      <trkpt lat="42.8436" lon="0.50592">
        <ele>1726.699</ele>
        <time>2022-02-27T11:42:46Z</time>
      </trkpt>
      <trkpt lat="42.8436" lon="0.50592">
        <ele>1726.712</ele>
        <time>2022-02-27T11:42:48Z</time>
      </trkpt>
      <trkpt lat="42.8436" lon="0.50592">
        <ele>1726.717</ele>
        <time>2022-02-27T11:42:50Z</time>
      </trkpt>
      <trkpt lat="42.8436" lon="0.50592">
        <ele>1726.712</ele>
        <time>2022-02-27T11:42:52Z</time>
      </trkpt>
      <trkpt lat="42.8436" lon="0.50592">
        <ele>1726.71</ele>
        <time>2022-02-27T11:42:54Z</time>
      </trkpt>
      <trkpt lat="42.8436" lon="0.50592">
        <ele>1726.714</ele>
        <time>2022-02-27T11:42:56Z</time>
      </trkpt>
      <trkpt lat="42.8436" lon="0.5059">
        <ele>1727.927</ele>
        <time>2022-02-27T11:42:58Z</time>
      </trkpt>
      <trkpt lat="42.84362" lon="0.50588">
        <ele>1728.602</ele>
        <time>2022-02-27T11:43:00Z</time>
      </trkpt>
      <trkpt lat="42.84364" lon="0.50587">
        <ele>1727.281</ele>
        <time>2022-02-27T11:43:02Z</time>
      </trkpt>
      <trkpt lat="42.84365" lon="0.50586">
        <ele>1726.414</ele>
        <time>2022-02-27T11:43:04Z</time>
      </trkpt>
      <trkpt lat="42.84367" lon="0.50586">
        <ele>1726.353</ele>
        <time>2022-02-27T11:43:06Z</time>
      </trkpt>
      <trkpt lat="42.84368" lon="0.50586">
        <ele>1725.578</ele>
        <time>2022-02-27T11:43:08Z</time>
      </trkpt>
      <trkpt lat="42.84371" lon="0.50586">
        <ele>1725.226</ele>
        <time>2022-02-27T11:43:10Z</time>
      </trkpt>
      <trkpt lat="42.84373" lon="0.50585">
        <ele>1724.199</ele>
        <time>2022-02-27T11:43:12Z</time>
      </trkpt>
      <trkpt lat="42.84374" lon="0.50585">
        <ele>1723.219</ele>
        <time>2022-02-27T11:43:14Z</time>
      </trkpt>
      <trkpt lat="42.84375" lon="0.50584">
        <ele>1722.515</ele>
        <time>2022-02-27T11:43:16Z</time>
      </trkpt>
      <trkpt lat="42.84377" lon="0.50584">
        <ele>1722.162</ele>
        <time>2022-02-27T11:43:18Z</time>
      </trkpt>
      <trkpt lat="42.84378" lon="0.50583">
        <ele>1721.163</ele>
        <time>2022-02-27T11:43:20Z</time>
      </trkpt>
      <trkpt lat="42.84379" lon="0.50582">
        <ele>1721.001</ele>
        <time>2022-02-27T11:43:22Z</time>
      </trkpt>
      <trkpt lat="42.8438" lon="0.5058">
        <ele>1720.222</ele>
        <time>2022-02-27T11:43:24Z</time>
      </trkpt>
      <trkpt lat="42.84381" lon="0.50579">
        <ele>1718.856</ele>
        <time>2022-02-27T11:43:26Z</time>
      </trkpt>
      <trkpt lat="42.84382" lon="0.50578">
        <ele>1719.211</ele>
        <time>2022-02-27T11:43:28Z</time>
      </trkpt>
      <trkpt lat="42.84383" lon="0.50577">
        <ele>1718.614</ele>
        <time>2022-02-27T11:43:30Z</time>
      </trkpt>
      <trkpt lat="42.84385" lon="0.50577">
        <ele>1718.849</ele>
        <time>2022-02-27T11:43:32Z</time>
      </trkpt>
      <trkpt lat="42.84386" lon="0.50576">
        <ele>1718.285</ele>
        <time>2022-02-27T11:43:34Z</time>
      </trkpt>
      <trkpt lat="42.84388" lon="0.50576">
        <ele>1717.798</ele>
        <time>2022-02-27T11:43:36Z</time>
      </trkpt>
      <trkpt lat="42.84389" lon="0.50576">
        <ele>1716.636</ele>
        <time>2022-02-27T11:43:38Z</time>
      </trkpt>
      <trkpt lat="42.8439" lon="0.50576">
        <ele>1716.24</ele>
        <time>2022-02-27T11:43:40Z</time>
      </trkpt>
      <trkpt lat="42.84392" lon="0.50576">
        <ele>1715.372</ele>
        <time>2022-02-27T11:43:42Z</time>
      </trkpt>
      <trkpt lat="42.84393" lon="0.50575">
        <ele>1715.463</ele>
        <time>2022-02-27T11:43:44Z</time>
      </trkpt>
      <trkpt lat="42.84395" lon="0.50575">
        <ele>1715.201</ele>
        <time>2022-02-27T11:43:46Z</time>
      </trkpt>
      <trkpt lat="42.84396" lon="0.50574">
        <ele>1715.002</ele>
        <time>2022-02-27T11:43:48Z</time>
      </trkpt>
      <trkpt lat="42.84397" lon="0.50573">
        <ele>1715.153</ele>
        <time>2022-02-27T11:43:50Z</time>
      </trkpt>
      <trkpt lat="42.84398" lon="0.50572">
        <ele>1715.693</ele>
        <time>2022-02-27T11:43:52Z</time>
      </trkpt>
      <trkpt lat="42.84397" lon="0.50569">
        <ele>1715.655</ele>
        <time>2022-02-27T11:43:54Z</time>
      </trkpt>
      <trkpt lat="42.84396" lon="0.50567">
        <ele>1715.824</ele>
        <time>2022-02-27T11:43:56Z</time>
      </trkpt>
      <trkpt lat="42.84394" lon="0.50566">
        <ele>1713.059</ele>
        <time>2022-02-27T11:43:58Z</time>
      </trkpt>
      <trkpt lat="42.84393" lon="0.50565">
        <ele>1713.128</ele>
        <time>2022-02-27T11:44:00Z</time>
      </trkpt>
      <trkpt lat="42.84392" lon="0.50563">
        <ele>1712.966</ele>
        <time>2022-02-27T11:44:02Z</time>
      </trkpt>
      <trkpt lat="42.84391" lon="0.50561">
        <ele>1712.978</ele>
        <time>2022-02-27T11:44:04Z</time>
      </trkpt>
      <trkpt lat="42.8439" lon="0.50559">
        <ele>1712.172</ele>
        <time>2022-02-27T11:44:06Z</time>
      </trkpt>
      <trkpt lat="42.84389" lon="0.50558">
        <ele>1711.587</ele>
        <time>2022-02-27T11:44:08Z</time>
      </trkpt>
      <trkpt lat="42.84389" lon="0.50556">
        <ele>1712.438</ele>
        <time>2022-02-27T11:44:10Z</time>
      </trkpt>
      <trkpt lat="42.84388" lon="0.50555">
        <ele>1712.407</ele>
        <time>2022-02-27T11:44:12Z</time>
      </trkpt>
      <trkpt lat="42.84387" lon="0.50553">
        <ele>1712.134</ele>
        <time>2022-02-27T11:44:14Z</time>
      </trkpt>
      <trkpt lat="42.84386" lon="0.50552">
        <ele>1712.309</ele>
        <time>2022-02-27T11:44:16Z</time>
      </trkpt>
      <trkpt lat="42.84384" lon="0.50552">
        <ele>1708.949</ele>
        <time>2022-02-27T11:44:18Z</time>
      </trkpt>
      <trkpt lat="42.84383" lon="0.50551">
        <ele>1707.758</ele>
        <time>2022-02-27T11:44:20Z</time>
      </trkpt>
      <trkpt lat="42.84382" lon="0.50551">
        <ele>1705.649</ele>
        <time>2022-02-27T11:44:22Z</time>
      </trkpt>
      <trkpt lat="42.84381" lon="0.5055">
        <ele>1705.904</ele>
        <time>2022-02-27T11:44:24Z</time>
      </trkpt>
      <trkpt lat="42.84381" lon="0.50549">
        <ele>1706.835</ele>
        <time>2022-02-27T11:44:26Z</time>
      </trkpt>
      <trkpt lat="42.8438" lon="0.50548">
        <ele>1705.947</ele>
        <time>2022-02-27T11:44:28Z</time>
      </trkpt>
      <trkpt lat="42.8438" lon="0.50547">
        <ele>1705.745</ele>
        <time>2022-02-27T11:44:30Z</time>
      </trkpt>
      <trkpt lat="42.8438" lon="0.50546">
        <ele>1703.907</ele>
        <time>2022-02-27T11:44:32Z</time>
      </trkpt>
      <trkpt lat="42.84379" lon="0.50545">
        <ele>1703.296</ele>
        <time>2022-02-27T11:44:34Z</time>
      </trkpt>
      <trkpt lat="42.84379" lon="0.50543">
        <ele>1702.586</ele>
        <time>2022-02-27T11:44:36Z</time>
      </trkpt>
      <trkpt lat="42.84378" lon="0.50542">
        <ele>1700.042</ele>
        <time>2022-02-27T11:44:38Z</time>
      </trkpt>
      <trkpt lat="42.84377" lon="0.50541">
        <ele>1699.829</ele>
        <time>2022-02-27T11:44:40Z</time>
      </trkpt>
      <trkpt lat="42.84377" lon="0.50541">
        <ele>1699.764</ele>
        <time>2022-02-27T11:44:42Z</time>
      </trkpt>
      <trkpt lat="42.84377" lon="0.5054">
        <ele>1698.164</ele>
        <time>2022-02-27T11:44:44Z</time>
      </trkpt>
      <trkpt lat="42.84377" lon="0.50537">
        <ele>1697.146</ele>
        <time>2022-02-27T11:44:46Z</time>
      </trkpt>
      <trkpt lat="42.84377" lon="0.50535">
        <ele>1696.884</ele>
        <time>2022-02-27T11:44:48Z</time>
      </trkpt>
      <trkpt lat="42.84378" lon="0.50534">
        <ele>1696.462</ele>
        <time>2022-02-27T11:44:50Z</time>
      </trkpt>
      <trkpt lat="42.84378" lon="0.50532">
        <ele>1693.894</ele>
        <time>2022-02-27T11:44:52Z</time>
      </trkpt>
      <trkpt lat="42.84378" lon="0.5053">
        <ele>1693.811</ele>
        <time>2022-02-27T11:44:54Z</time>
      </trkpt>
      <trkpt lat="42.84379" lon="0.50527">
        <ele>1694.7</ele>
        <time>2022-02-27T11:44:56Z</time>
      </trkpt>
      <trkpt lat="42.8438" lon="0.50524">
        <ele>1696.874</ele>
        <time>2022-02-27T11:44:58Z</time>
      </trkpt>
      <trkpt lat="42.8438" lon="0.50522">
        <ele>1696.395</ele>
        <time>2022-02-27T11:45:00Z</time>
      </trkpt>
      <trkpt lat="42.8438" lon="0.50519">
        <ele>1697.428</ele>
        <time>2022-02-27T11:45:02Z</time>
      </trkpt>
      <trkpt lat="42.8438" lon="0.50517">
        <ele>1696.611</ele>
        <time>2022-02-27T11:45:04Z</time>
      </trkpt>
      <trkpt lat="42.84381" lon="0.50515">
        <ele>1696.528</ele>
        <time>2022-02-27T11:45:06Z</time>
      </trkpt>
      <trkpt lat="42.84381" lon="0.50513">
        <ele>1696.003</ele>
        <time>2022-02-27T11:45:08Z</time>
      </trkpt>
      <trkpt lat="42.84382" lon="0.50512">
        <ele>1694.991</ele>
        <time>2022-02-27T11:45:10Z</time>
      </trkpt>
      <trkpt lat="42.84382" lon="0.50509">
        <ele>1694.928</ele>
        <time>2022-02-27T11:45:12Z</time>
      </trkpt>
      <trkpt lat="42.84383" lon="0.50507">
        <ele>1694.789</ele>
        <time>2022-02-27T11:45:14Z</time>
      </trkpt>
      <trkpt lat="42.84384" lon="0.50506">
        <ele>1694.224</ele>
        <time>2022-02-27T11:45:16Z</time>
      </trkpt>
      <trkpt lat="42.84384" lon="0.50504">
        <ele>1693.955</ele>
        <time>2022-02-27T11:45:18Z</time>
      </trkpt>
      <trkpt lat="42.84385" lon="0.50503">
        <ele>1693.939</ele>
        <time>2022-02-27T11:45:20Z</time>
      </trkpt>
      <trkpt lat="42.84386" lon="0.50501">
        <ele>1692.968</ele>
        <time>2022-02-27T11:45:22Z</time>
      </trkpt>
      <trkpt lat="42.84386" lon="0.505">
        <ele>1692.013</ele>
        <time>2022-02-27T11:45:24Z</time>
      </trkpt>
      <trkpt lat="42.84386" lon="0.50498">
        <ele>1690.468</ele>
        <time>2022-02-27T11:45:26Z</time>
      </trkpt>
      <trkpt lat="42.84387" lon="0.50497">
        <ele>1689.642</ele>
        <time>2022-02-27T11:45:28Z</time>
      </trkpt>
      <trkpt lat="42.84387" lon="0.50495">
        <ele>1688.961</ele>
        <time>2022-02-27T11:45:30Z</time>
      </trkpt>
      <trkpt lat="42.84388" lon="0.50493">
        <ele>1689.921</ele>
        <time>2022-02-27T11:45:32Z</time>
      </trkpt>
      <trkpt lat="42.84389" lon="0.50492">
        <ele>1689.155</ele>
        <time>2022-02-27T11:45:34Z</time>
      </trkpt>
      <trkpt lat="42.84389" lon="0.50491">
        <ele>1688.279</ele>
        <time>2022-02-27T11:45:36Z</time>
      </trkpt>
      <trkpt lat="42.84389" lon="0.50489">
        <ele>1686.938</ele>
        <time>2022-02-27T11:45:38Z</time>
      </trkpt>
      <trkpt lat="42.84388" lon="0.50487">
        <ele>1686.801</ele>
        <time>2022-02-27T11:45:40Z</time>
      </trkpt>
      <trkpt lat="42.84389" lon="0.50487">
        <ele>1684.057</ele>
        <time>2022-02-27T11:45:42Z</time>
      </trkpt>
      <trkpt lat="42.84389" lon="0.50487">
        <ele>1683.866</ele>
        <time>2022-02-27T11:45:44Z</time>
      </trkpt>
      <trkpt lat="42.84389" lon="0.50486">
        <ele>1684.266</ele>
        <time>2022-02-27T11:45:46Z</time>
      </trkpt>
      <trkpt lat="42.8439" lon="0.50483">
        <ele>1685.849</ele>
        <time>2022-02-27T11:45:48Z</time>
      </trkpt>
      <trkpt lat="42.8439" lon="0.50481">
        <ele>1685.391</ele>
        <time>2022-02-27T11:45:50Z</time>
      </trkpt>
      <trkpt lat="42.84391" lon="0.50479">
        <ele>1685.911</ele>
        <time>2022-02-27T11:45:52Z</time>
      </trkpt>
      <trkpt lat="42.84392" lon="0.50478">
        <ele>1686.543</ele>
        <time>2022-02-27T11:45:54Z</time>
      </trkpt>
      <trkpt lat="42.84393" lon="0.50474">
        <ele>1686.648</ele>
        <time>2022-02-27T11:45:56Z</time>
      </trkpt>
      <trkpt lat="42.84395" lon="0.5047">
        <ele>1687.307</ele>
        <time>2022-02-27T11:45:58Z</time>
      </trkpt>
      <trkpt lat="42.84395" lon="0.50466">
        <ele>1687</ele>
        <time>2022-02-27T11:46:00Z</time>
      </trkpt>
      <trkpt lat="42.84396" lon="0.50463">
        <ele>1686.902</ele>
        <time>2022-02-27T11:46:02Z</time>
      </trkpt>
      <trkpt lat="42.84395" lon="0.5046">
        <ele>1687.212</ele>
        <time>2022-02-27T11:46:04Z</time>
      </trkpt>
      <trkpt lat="42.84394" lon="0.50459">
        <ele>1687.178</ele>
        <time>2022-02-27T11:46:06Z</time>
      </trkpt>
      <trkpt lat="42.84392" lon="0.50458">
        <ele>1687.076</ele>
        <time>2022-02-27T11:46:08Z</time>
      </trkpt>
      <trkpt lat="42.84391" lon="0.50456">
        <ele>1686.483</ele>
        <time>2022-02-27T11:46:10Z</time>
      </trkpt>
      <trkpt lat="42.8439" lon="0.50455">
        <ele>1685.751</ele>
        <time>2022-02-27T11:46:12Z</time>
      </trkpt>
      <trkpt lat="42.84388" lon="0.50453">
        <ele>1684.596</ele>
        <time>2022-02-27T11:46:14Z</time>
      </trkpt>
      <trkpt lat="42.84387" lon="0.50452">
        <ele>1684.842</ele>
        <time>2022-02-27T11:46:16Z</time>
      </trkpt>
      <trkpt lat="42.84385" lon="0.50451">
        <ele>1684.011</ele>
        <time>2022-02-27T11:46:18Z</time>
      </trkpt>
      <trkpt lat="42.84383" lon="0.5045">
        <ele>1684.519</ele>
        <time>2022-02-27T11:46:20Z</time>
      </trkpt>
      <trkpt lat="42.8438" lon="0.50451">
        <ele>1683.67</ele>
        <time>2022-02-27T11:46:22Z</time>
      </trkpt>
      <trkpt lat="42.84378" lon="0.50454">
        <ele>1682.666</ele>
        <time>2022-02-27T11:46:24Z</time>
      </trkpt>
      <trkpt lat="42.84375" lon="0.50454">
        <ele>1682.118</ele>
        <time>2022-02-27T11:46:26Z</time>
      </trkpt>
      <trkpt lat="42.84374" lon="0.50453">
        <ele>1681.272</ele>
        <time>2022-02-27T11:46:28Z</time>
      </trkpt>
      <trkpt lat="42.84371" lon="0.50455">
        <ele>1680.471</ele>
        <time>2022-02-27T11:46:30Z</time>
      </trkpt>
      <trkpt lat="42.84368" lon="0.50457">
        <ele>1678.327</ele>
        <time>2022-02-27T11:46:32Z</time>
      </trkpt>
      <trkpt lat="42.84366" lon="0.50459">
        <ele>1677.726</ele>
        <time>2022-02-27T11:46:34Z</time>
      </trkpt>
      <trkpt lat="42.84364" lon="0.5046">
        <ele>1677.931</ele>
        <time>2022-02-27T11:46:36Z</time>
      </trkpt>
      <trkpt lat="42.84363" lon="0.5046">
        <ele>1678.148</ele>
        <time>2022-02-27T11:46:38Z</time>
      </trkpt>
      <trkpt lat="42.84361" lon="0.5046">
        <ele>1679.297</ele>
        <time>2022-02-27T11:46:40Z</time>
      </trkpt>
      <trkpt lat="42.8436" lon="0.50459">
        <ele>1679.496</ele>
        <time>2022-02-27T11:46:42Z</time>
      </trkpt>
      <trkpt lat="42.84357" lon="0.50459">
        <ele>1678.967</ele>
        <time>2022-02-27T11:46:44Z</time>
      </trkpt>
      <trkpt lat="42.84355" lon="0.5046">
        <ele>1678.927</ele>
        <time>2022-02-27T11:46:46Z</time>
      </trkpt>
      <trkpt lat="42.84354" lon="0.5046">
        <ele>1678.77</ele>
        <time>2022-02-27T11:46:48Z</time>
      </trkpt>
      <trkpt lat="42.84353" lon="0.50459">
        <ele>1678.488</ele>
        <time>2022-02-27T11:46:50Z</time>
      </trkpt>
      <trkpt lat="42.84351" lon="0.50459">
        <ele>1677.85</ele>
        <time>2022-02-27T11:46:52Z</time>
      </trkpt>
      <trkpt lat="42.8435" lon="0.50459">
        <ele>1678.39</ele>
        <time>2022-02-27T11:46:54Z</time>
      </trkpt>
      <trkpt lat="42.84349" lon="0.50459">
        <ele>1678.681</ele>
        <time>2022-02-27T11:46:56Z</time>
      </trkpt>
      <trkpt lat="42.84348" lon="0.50459">
        <ele>1677.79</ele>
        <time>2022-02-27T11:46:58Z</time>
      </trkpt>
      <trkpt lat="42.84346" lon="0.50458">
        <ele>1677.397</ele>
        <time>2022-02-27T11:47:00Z</time>
      </trkpt>
      <trkpt lat="42.84344" lon="0.50457">
        <ele>1675.593</ele>
        <time>2022-02-27T11:47:02Z</time>
      </trkpt>
      <trkpt lat="42.84343" lon="0.50456">
        <ele>1674.185</ele>
        <time>2022-02-27T11:47:04Z</time>
      </trkpt>
      <trkpt lat="42.84341" lon="0.50454">
        <ele>1674.585</ele>
        <time>2022-02-27T11:47:06Z</time>
      </trkpt>
      <trkpt lat="42.8434" lon="0.50452">
        <ele>1672.624</ele>
        <time>2022-02-27T11:47:08Z</time>
      </trkpt>
      <trkpt lat="42.84339" lon="0.5045">
        <ele>1671.637</ele>
        <time>2022-02-27T11:47:10Z</time>
      </trkpt>
      <trkpt lat="42.84339" lon="0.50448">
        <ele>1670.601</ele>
        <time>2022-02-27T11:47:12Z</time>
      </trkpt>
      <trkpt lat="42.84339" lon="0.50446">
        <ele>1670.064</ele>
        <time>2022-02-27T11:47:14Z</time>
      </trkpt>
      <trkpt lat="42.84339" lon="0.50444">
        <ele>1668.212</ele>
        <time>2022-02-27T11:47:16Z</time>
      </trkpt>
      <trkpt lat="42.84339" lon="0.50442">
        <ele>1668.795</ele>
        <time>2022-02-27T11:47:18Z</time>
      </trkpt>
      <trkpt lat="42.8434" lon="0.50442">
        <ele>1667.874</ele>
        <time>2022-02-27T11:47:20Z</time>
      </trkpt>
      <trkpt lat="42.8434" lon="0.50439">
        <ele>1668.28</ele>
        <time>2022-02-27T11:47:22Z</time>
      </trkpt>
      <trkpt lat="42.84341" lon="0.50437">
        <ele>1667.493</ele>
        <time>2022-02-27T11:47:24Z</time>
      </trkpt>
      <trkpt lat="42.84341" lon="0.50435">
        <ele>1667.211</ele>
        <time>2022-02-27T11:47:26Z</time>
      </trkpt>
      <trkpt lat="42.84342" lon="0.50434">
        <ele>1666.704</ele>
        <time>2022-02-27T11:47:28Z</time>
      </trkpt>
      <trkpt lat="42.84342" lon="0.50432">
        <ele>1665.866</ele>
        <time>2022-02-27T11:47:30Z</time>
      </trkpt>
      <trkpt lat="42.84342" lon="0.50429">
        <ele>1666.889</ele>
        <time>2022-02-27T11:47:32Z</time>
      </trkpt>
      <trkpt lat="42.84343" lon="0.50426">
        <ele>1667.606</ele>
        <time>2022-02-27T11:47:34Z</time>
      </trkpt>
      <trkpt lat="42.84343" lon="0.50424">
        <ele>1666.578</ele>
        <time>2022-02-27T11:47:36Z</time>
      </trkpt>
      <trkpt lat="42.84344" lon="0.50422">
        <ele>1666.453</ele>
        <time>2022-02-27T11:47:38Z</time>
      </trkpt>
      <trkpt lat="42.84345" lon="0.5042">
        <ele>1666.077</ele>
        <time>2022-02-27T11:47:40Z</time>
      </trkpt>
      <trkpt lat="42.84346" lon="0.50417">
        <ele>1665.018</ele>
        <time>2022-02-27T11:47:42Z</time>
      </trkpt>
      <trkpt lat="42.84347" lon="0.50415">
        <ele>1664.189</ele>
        <time>2022-02-27T11:47:44Z</time>
      </trkpt>
      <trkpt lat="42.84348" lon="0.50414">
        <ele>1663.437</ele>
        <time>2022-02-27T11:47:46Z</time>
      </trkpt>
      <trkpt lat="42.84349" lon="0.50411">
        <ele>1664.18</ele>
        <time>2022-02-27T11:47:48Z</time>
      </trkpt>
      <trkpt lat="42.84349" lon="0.50411">
        <ele>1664.047</ele>
        <time>2022-02-27T11:47:50Z</time>
      </trkpt>
      <trkpt lat="42.84349" lon="0.50411">
        <ele>1664.048</ele>
        <time>2022-02-27T11:47:52Z</time>
      </trkpt>
      <trkpt lat="42.84349" lon="0.50411">
        <ele>1664.07</ele>
        <time>2022-02-27T11:47:54Z</time>
      </trkpt>
      <trkpt lat="42.84349" lon="0.50411">
        <ele>1664.077</ele>
        <time>2022-02-27T11:47:56Z</time>
      </trkpt>
      <trkpt lat="42.84349" lon="0.50411">
        <ele>1664.061</ele>
        <time>2022-02-27T11:47:58Z</time>
      </trkpt>
      <trkpt lat="42.8435" lon="0.5041">
        <ele>1663.546</ele>
        <time>2022-02-27T11:48:00Z</time>
      </trkpt>
      <trkpt lat="42.84351" lon="0.50408">
        <ele>1663.249</ele>
        <time>2022-02-27T11:48:02Z</time>
      </trkpt>
      <trkpt lat="42.84352" lon="0.50407">
        <ele>1662.742</ele>
        <time>2022-02-27T11:48:04Z</time>
      </trkpt>
      <trkpt lat="42.84353" lon="0.50406">
        <ele>1662.132</ele>
        <time>2022-02-27T11:48:06Z</time>
      </trkpt>
      <trkpt lat="42.84354" lon="0.50404">
        <ele>1662.156</ele>
        <time>2022-02-27T11:48:08Z</time>
      </trkpt>
      <trkpt lat="42.84354" lon="0.50403">
        <ele>1661.482</ele>
        <time>2022-02-27T11:48:10Z</time>
      </trkpt>
      <trkpt lat="42.84355" lon="0.50402">
        <ele>1661.173</ele>
        <time>2022-02-27T11:48:12Z</time>
      </trkpt>
      <trkpt lat="42.84357" lon="0.504">
        <ele>1660.451</ele>
        <time>2022-02-27T11:48:14Z</time>
      </trkpt>
      <trkpt lat="42.84357" lon="0.50399">
        <ele>1659.901</ele>
        <time>2022-02-27T11:48:16Z</time>
      </trkpt>
      <trkpt lat="42.84358" lon="0.50398">
        <ele>1659.671</ele>
        <time>2022-02-27T11:48:18Z</time>
      </trkpt>
      <trkpt lat="42.84359" lon="0.50396">
        <ele>1658.721</ele>
        <time>2022-02-27T11:48:20Z</time>
      </trkpt>
      <trkpt lat="42.84359" lon="0.50395">
        <ele>1658.717</ele>
        <time>2022-02-27T11:48:22Z</time>
      </trkpt>
      <trkpt lat="42.8436" lon="0.50394">
        <ele>1657.669</ele>
        <time>2022-02-27T11:48:24Z</time>
      </trkpt>
      <trkpt lat="42.84358" lon="0.50397">
        <ele>1652.552</ele>
        <time>2022-02-27T11:48:26Z</time>
      </trkpt>
      <trkpt lat="42.84358" lon="0.50396">
        <ele>1652.201</ele>
        <time>2022-02-27T11:48:28Z</time>
      </trkpt>
      <trkpt lat="42.84359" lon="0.50394">
        <ele>1651.547</ele>
        <time>2022-02-27T11:48:30Z</time>
      </trkpt>
      <trkpt lat="42.84359" lon="0.50391">
        <ele>1651.467</ele>
        <time>2022-02-27T11:48:32Z</time>
      </trkpt>
      <trkpt lat="42.8436" lon="0.50388">
        <ele>1650.589</ele>
        <time>2022-02-27T11:48:34Z</time>
      </trkpt>
      <trkpt lat="42.84361" lon="0.50387">
        <ele>1650.836</ele>
        <time>2022-02-27T11:48:36Z</time>
      </trkpt>
      <trkpt lat="42.84362" lon="0.50386">
        <ele>1650.672</ele>
        <time>2022-02-27T11:48:38Z</time>
      </trkpt>
      <trkpt lat="42.84363" lon="0.50384">
        <ele>1650.731</ele>
        <time>2022-02-27T11:48:40Z</time>
      </trkpt>
      <trkpt lat="42.84364" lon="0.50383">
        <ele>1651.893</ele>
        <time>2022-02-27T11:48:42Z</time>
      </trkpt>
      <trkpt lat="42.84364" lon="0.50382">
        <ele>1650.295</ele>
        <time>2022-02-27T11:48:44Z</time>
      </trkpt>
      <trkpt lat="42.84365" lon="0.5038">
        <ele>1650.224</ele>
        <time>2022-02-27T11:48:46Z</time>
      </trkpt>
      <trkpt lat="42.84365" lon="0.50379">
        <ele>1650.205</ele>
        <time>2022-02-27T11:48:48Z</time>
      </trkpt>
      <trkpt lat="42.84366" lon="0.50378">
        <ele>1648.705</ele>
        <time>2022-02-27T11:48:50Z</time>
      </trkpt>
      <trkpt lat="42.84366" lon="0.50375">
        <ele>1648.142</ele>
        <time>2022-02-27T11:48:52Z</time>
      </trkpt>
      <trkpt lat="42.84367" lon="0.50373">
        <ele>1649.517</ele>
        <time>2022-02-27T11:48:54Z</time>
      </trkpt>
      <trkpt lat="42.84368" lon="0.50371">
        <ele>1648.296</ele>
        <time>2022-02-27T11:48:56Z</time>
      </trkpt>
      <trkpt lat="42.84369" lon="0.50369">
        <ele>1649.08</ele>
        <time>2022-02-27T11:48:58Z</time>
      </trkpt>
      <trkpt lat="42.8437" lon="0.50367">
        <ele>1648.179</ele>
        <time>2022-02-27T11:49:00Z</time>
      </trkpt>
      <trkpt lat="42.8437" lon="0.50365">
        <ele>1648.352</ele>
        <time>2022-02-27T11:49:02Z</time>
      </trkpt>
      <trkpt lat="42.8437" lon="0.50363">
        <ele>1649.796</ele>
        <time>2022-02-27T11:49:04Z</time>
      </trkpt>
      <trkpt lat="42.8437" lon="0.50361">
        <ele>1649.491</ele>
        <time>2022-02-27T11:49:06Z</time>
      </trkpt>
      <trkpt lat="42.8437" lon="0.50359">
        <ele>1650.453</ele>
        <time>2022-02-27T11:49:08Z</time>
      </trkpt>
      <trkpt lat="42.84371" lon="0.50357">
        <ele>1650.193</ele>
        <time>2022-02-27T11:49:10Z</time>
      </trkpt>
      <trkpt lat="42.84373" lon="0.50355">
        <ele>1650.158</ele>
        <time>2022-02-27T11:49:12Z</time>
      </trkpt>
      <trkpt lat="42.84374" lon="0.50354">
        <ele>1650.447</ele>
        <time>2022-02-27T11:49:14Z</time>
      </trkpt>
      <trkpt lat="42.84374" lon="0.50352">
        <ele>1649.949</ele>
        <time>2022-02-27T11:49:16Z</time>
      </trkpt>
      <trkpt lat="42.84375" lon="0.5035">
        <ele>1650.658</ele>
        <time>2022-02-27T11:49:18Z</time>
      </trkpt>
      <trkpt lat="42.84376" lon="0.50348">
        <ele>1652.035</ele>
        <time>2022-02-27T11:49:20Z</time>
      </trkpt>
      <trkpt lat="42.84376" lon="0.50348">
        <ele>1650.859</ele>
        <time>2022-02-27T11:49:22Z</time>
      </trkpt>
      <trkpt lat="42.84376" lon="0.50347">
        <ele>1650.285</ele>
        <time>2022-02-27T11:49:24Z</time>
      </trkpt>
      <trkpt lat="42.84376" lon="0.50347">
        <ele>1649.997</ele>
        <time>2022-02-27T11:49:26Z</time>
      </trkpt>
      <trkpt lat="42.84376" lon="0.50346">
        <ele>1650.005</ele>
        <time>2022-02-27T11:49:28Z</time>
      </trkpt>
      <trkpt lat="42.84376" lon="0.50346">
        <ele>1650.007</ele>
        <time>2022-02-27T11:49:30Z</time>
      </trkpt>
      <trkpt lat="42.84376" lon="0.50346">
        <ele>1650.012</ele>
        <time>2022-02-27T11:49:32Z</time>
      </trkpt>
      <trkpt lat="42.84376" lon="0.50346">
        <ele>1650.015</ele>
        <time>2022-02-27T11:49:34Z</time>
      </trkpt>
      <trkpt lat="42.84376" lon="0.50346">
        <ele>1649.991</ele>
        <time>2022-02-27T11:49:36Z</time>
      </trkpt>
      <trkpt lat="42.84376" lon="0.50346">
        <ele>1649.982</ele>
        <time>2022-02-27T11:49:38Z</time>
      </trkpt>
      <trkpt lat="42.84376" lon="0.50346">
        <ele>1650.146</ele>
        <time>2022-02-27T11:49:40Z</time>
      </trkpt>
      <trkpt lat="42.84376" lon="0.50344">
        <ele>1650.866</ele>
        <time>2022-02-27T11:49:42Z</time>
      </trkpt>
      <trkpt lat="42.84374" lon="0.50343">
        <ele>1650.971</ele>
        <time>2022-02-27T11:49:44Z</time>
      </trkpt>
      <trkpt lat="42.84372" lon="0.50343">
        <ele>1649.458</ele>
        <time>2022-02-27T11:49:46Z</time>
      </trkpt>
      <trkpt lat="42.84371" lon="0.50342">
        <ele>1649.259</ele>
        <time>2022-02-27T11:49:48Z</time>
      </trkpt>
      <trkpt lat="42.8437" lon="0.50341">
        <ele>1649.066</ele>
        <time>2022-02-27T11:49:50Z</time>
      </trkpt>
      <trkpt lat="42.84371" lon="0.50342">
        <ele>1648.406</ele>
        <time>2022-02-27T11:49:52Z</time>
      </trkpt>
      <trkpt lat="42.84371" lon="0.50342">
        <ele>1648.417</ele>
        <time>2022-02-27T11:49:54Z</time>
      </trkpt>
      <trkpt lat="42.84371" lon="0.50342">
        <ele>1647.983</ele>
        <time>2022-02-27T11:49:56Z</time>
      </trkpt>
      <trkpt lat="42.84371" lon="0.50342">
        <ele>1647.96</ele>
        <time>2022-02-27T11:49:58Z</time>
      </trkpt>
      <trkpt lat="42.84371" lon="0.50341">
        <ele>1647.742</ele>
        <time>2022-02-27T11:50:00Z</time>
      </trkpt>
      <trkpt lat="42.84371" lon="0.50342">
        <ele>1647.445</ele>
        <time>2022-02-27T11:50:02Z</time>
      </trkpt>
      <trkpt lat="42.84371" lon="0.50342">
        <ele>1647.431</ele>
        <time>2022-02-27T11:50:04Z</time>
      </trkpt>
      <trkpt lat="42.84371" lon="0.50342">
        <ele>1647.416</ele>
        <time>2022-02-27T11:50:06Z</time>
      </trkpt>
      <trkpt lat="42.84371" lon="0.50342">
        <ele>1647.408</ele>
        <time>2022-02-27T11:50:08Z</time>
      </trkpt>
      <trkpt lat="42.84371" lon="0.50342">
        <ele>1647.414</ele>
        <time>2022-02-27T11:50:10Z</time>
      </trkpt>
      <trkpt lat="42.84371" lon="0.50342">
        <ele>1647.423</ele>
        <time>2022-02-27T11:50:12Z</time>
      </trkpt>
      <trkpt lat="42.84371" lon="0.50342">
        <ele>1647.433</ele>
        <time>2022-02-27T11:50:14Z</time>
      </trkpt>
      <trkpt lat="42.84371" lon="0.50342">
        <ele>1647.438</ele>
        <time>2022-02-27T11:50:16Z</time>
      </trkpt>
      <trkpt lat="42.84371" lon="0.50342">
        <ele>1646.778</ele>
        <time>2022-02-27T11:50:18Z</time>
      </trkpt>
      <trkpt lat="42.84371" lon="0.50341">
        <ele>1646.378</ele>
        <time>2022-02-27T11:50:20Z</time>
      </trkpt>
      <trkpt lat="42.84371" lon="0.50341">
        <ele>1646.211</ele>
        <time>2022-02-27T11:50:22Z</time>
      </trkpt>
      <trkpt lat="42.84371" lon="0.50341">
        <ele>1646.205</ele>
        <time>2022-02-27T11:50:24Z</time>
      </trkpt>
      <trkpt lat="42.84371" lon="0.50341">
        <ele>1646.19</ele>
        <time>2022-02-27T11:50:26Z</time>
      </trkpt>
      <trkpt lat="42.84371" lon="0.50341">
        <ele>1645.607</ele>
        <time>2022-02-27T11:50:28Z</time>
      </trkpt>
      <trkpt lat="42.84373" lon="0.50341">
        <ele>1645.247</ele>
        <time>2022-02-27T11:50:30Z</time>
      </trkpt>
      <trkpt lat="42.84375" lon="0.50341">
        <ele>1644.838</ele>
        <time>2022-02-27T11:50:32Z</time>
      </trkpt>
      <trkpt lat="42.84375" lon="0.5034">
        <ele>1643.764</ele>
        <time>2022-02-27T11:50:34Z</time>
      </trkpt>
      <trkpt lat="42.84376" lon="0.50338">
        <ele>1643.659</ele>
        <time>2022-02-27T11:50:36Z</time>
      </trkpt>
      <trkpt lat="42.84376" lon="0.50337">
        <ele>1643.324</ele>
        <time>2022-02-27T11:50:38Z</time>
      </trkpt>
      <trkpt lat="42.84377" lon="0.50335">
        <ele>1644.887</ele>
        <time>2022-02-27T11:50:40Z</time>
      </trkpt>
      <trkpt lat="42.84377" lon="0.50333">
        <ele>1644.197</ele>
        <time>2022-02-27T11:50:42Z</time>
      </trkpt>
      <trkpt lat="42.84379" lon="0.50332">
        <ele>1644.538</ele>
        <time>2022-02-27T11:50:44Z</time>
      </trkpt>
      <trkpt lat="42.84379" lon="0.5033">
        <ele>1643.198</ele>
        <time>2022-02-27T11:50:46Z</time>
      </trkpt>
      <trkpt lat="42.8438" lon="0.50329">
        <ele>1642.727</ele>
        <time>2022-02-27T11:50:48Z</time>
      </trkpt>
      <trkpt lat="42.8438" lon="0.50328">
        <ele>1642.29</ele>
        <time>2022-02-27T11:50:50Z</time>
      </trkpt>
      <trkpt lat="42.84381" lon="0.50326">
        <ele>1643.154</ele>
        <time>2022-02-27T11:50:52Z</time>
      </trkpt>
      <trkpt lat="42.84381" lon="0.50325">
        <ele>1642.976</ele>
        <time>2022-02-27T11:50:54Z</time>
      </trkpt>
      <trkpt lat="42.84382" lon="0.50323">
        <ele>1643.38</ele>
        <time>2022-02-27T11:50:56Z</time>
      </trkpt>
      <trkpt lat="42.84384" lon="0.50321">
        <ele>1644.335</ele>
        <time>2022-02-27T11:50:58Z</time>
      </trkpt>
      <trkpt lat="42.84385" lon="0.5032">
        <ele>1645.407</ele>
        <time>2022-02-27T11:51:00Z</time>
      </trkpt>
      <trkpt lat="42.84387" lon="0.50318">
        <ele>1645.879</ele>
        <time>2022-02-27T11:51:02Z</time>
      </trkpt>
      <trkpt lat="42.84387" lon="0.50317">
        <ele>1645.93</ele>
        <time>2022-02-27T11:51:04Z</time>
      </trkpt>
      <trkpt lat="42.84389" lon="0.50315">
        <ele>1647.172</ele>
        <time>2022-02-27T11:51:06Z</time>
      </trkpt>
      <trkpt lat="42.8439" lon="0.50314">
        <ele>1647.715</ele>
        <time>2022-02-27T11:51:08Z</time>
      </trkpt>
      <trkpt lat="42.8439" lon="0.50313">
        <ele>1647.773</ele>
        <time>2022-02-27T11:51:10Z</time>
      </trkpt>
      <trkpt lat="42.84392" lon="0.50312">
        <ele>1648.724</ele>
        <time>2022-02-27T11:51:12Z</time>
      </trkpt>
      <trkpt lat="42.84393" lon="0.50311">
        <ele>1649.467</ele>
        <time>2022-02-27T11:51:14Z</time>
      </trkpt>
      <trkpt lat="42.84395" lon="0.5031">
        <ele>1650.084</ele>
        <time>2022-02-27T11:51:16Z</time>
      </trkpt>
      <trkpt lat="42.84397" lon="0.5031">
        <ele>1652.045</ele>
        <time>2022-02-27T11:51:18Z</time>
      </trkpt>
      <trkpt lat="42.84397" lon="0.50309">
        <ele>1651.418</ele>
        <time>2022-02-27T11:51:20Z</time>
      </trkpt>
      <trkpt lat="42.84399" lon="0.50308">
        <ele>1651.711</ele>
        <time>2022-02-27T11:51:22Z</time>
      </trkpt>
      <trkpt lat="42.844" lon="0.50307">
        <ele>1651.826</ele>
        <time>2022-02-27T11:51:24Z</time>
      </trkpt>
      <trkpt lat="42.84401" lon="0.50306">
        <ele>1651.717</ele>
        <time>2022-02-27T11:51:26Z</time>
      </trkpt>
      <trkpt lat="42.84402" lon="0.50306">
        <ele>1652.127</ele>
        <time>2022-02-27T11:51:28Z</time>
      </trkpt>
      <trkpt lat="42.84403" lon="0.50305">
        <ele>1651.388</ele>
        <time>2022-02-27T11:51:30Z</time>
      </trkpt>
      <trkpt lat="42.84404" lon="0.50303">
        <ele>1651.691</ele>
        <time>2022-02-27T11:51:32Z</time>
      </trkpt>
      <trkpt lat="42.84405" lon="0.50301">
        <ele>1651.701</ele>
        <time>2022-02-27T11:51:34Z</time>
      </trkpt>
      <trkpt lat="42.84405" lon="0.503">
        <ele>1650.986</ele>
        <time>2022-02-27T11:51:36Z</time>
      </trkpt>
      <trkpt lat="42.84405" lon="0.50299">
        <ele>1650.614</ele>
        <time>2022-02-27T11:51:38Z</time>
      </trkpt>
      <trkpt lat="42.84406" lon="0.50299">
        <ele>1650.389</ele>
        <time>2022-02-27T11:51:40Z</time>
      </trkpt>
      <trkpt lat="42.84404" lon="0.503">
        <ele>1648.101</ele>
        <time>2022-02-27T11:51:42Z</time>
      </trkpt>
      <trkpt lat="42.84403" lon="0.503">
        <ele>1648.088</ele>
        <time>2022-02-27T11:51:44Z</time>
      </trkpt>
      <trkpt lat="42.84403" lon="0.503">
        <ele>1647.677</ele>
        <time>2022-02-27T11:51:46Z</time>
      </trkpt>
      <trkpt lat="42.84403" lon="0.50299">
        <ele>1647.032</ele>
        <time>2022-02-27T11:51:48Z</time>
      </trkpt>
      <trkpt lat="42.84402" lon="0.50299">
        <ele>1647.095</ele>
        <time>2022-02-27T11:51:50Z</time>
      </trkpt>
      <trkpt lat="42.84402" lon="0.50299">
        <ele>1647.098</ele>
        <time>2022-02-27T11:51:52Z</time>
      </trkpt>
      <trkpt lat="42.84402" lon="0.50299">
        <ele>1647.098</ele>
        <time>2022-02-27T11:51:54Z</time>
      </trkpt>
      <trkpt lat="42.84403" lon="0.50299">
        <ele>1646.784</ele>
        <time>2022-02-27T11:51:56Z</time>
      </trkpt>
      <trkpt lat="42.84403" lon="0.50299">
        <ele>1646.793</ele>
        <time>2022-02-27T11:51:58Z</time>
      </trkpt>
      <trkpt lat="42.84403" lon="0.50299">
        <ele>1646.799</ele>
        <time>2022-02-27T11:52:00Z</time>
      </trkpt>
      <trkpt lat="42.84403" lon="0.50299">
        <ele>1646.815</ele>
        <time>2022-02-27T11:52:02Z</time>
      </trkpt>
      <trkpt lat="42.84403" lon="0.50299">
        <ele>1646.835</ele>
        <time>2022-02-27T11:52:04Z</time>
      </trkpt>
      <trkpt lat="42.84403" lon="0.50299">
        <ele>1646.867</ele>
        <time>2022-02-27T11:52:06Z</time>
      </trkpt>
      <trkpt lat="42.84403" lon="0.50299">
        <ele>1646.867</ele>
        <time>2022-02-27T11:52:08Z</time>
      </trkpt>
      <trkpt lat="42.84403" lon="0.50299">
        <ele>1646.863</ele>
        <time>2022-02-27T11:52:10Z</time>
      </trkpt>
      <trkpt lat="42.84403" lon="0.50299">
        <ele>1646.953</ele>
        <time>2022-02-27T11:52:12Z</time>
      </trkpt>
      <trkpt lat="42.84403" lon="0.50299">
        <ele>1646.985</ele>
        <time>2022-02-27T11:52:14Z</time>
      </trkpt>
      <trkpt lat="42.84403" lon="0.50299">
        <ele>1646.994</ele>
        <time>2022-02-27T11:52:16Z</time>
      </trkpt>
      <trkpt lat="42.84403" lon="0.50299">
        <ele>1647.002</ele>
        <time>2022-02-27T11:52:18Z</time>
      </trkpt>
      <trkpt lat="42.84403" lon="0.50299">
        <ele>1646.998</ele>
        <time>2022-02-27T11:52:20Z</time>
      </trkpt>
      <trkpt lat="42.84403" lon="0.50299">
        <ele>1646.997</ele>
        <time>2022-02-27T11:52:22Z</time>
      </trkpt>
      <trkpt lat="42.84403" lon="0.50299">
        <ele>1647.013</ele>
        <time>2022-02-27T11:52:24Z</time>
      </trkpt>
      <trkpt lat="42.84403" lon="0.50299">
        <ele>1647.018</ele>
        <time>2022-02-27T11:52:26Z</time>
      </trkpt>
      <trkpt lat="42.84403" lon="0.50299">
        <ele>1647.029</ele>
        <time>2022-02-27T11:52:28Z</time>
      </trkpt>
      <trkpt lat="42.84403" lon="0.50299">
        <ele>1647.041</ele>
        <time>2022-02-27T11:52:30Z</time>
      </trkpt>
      <trkpt lat="42.84403" lon="0.50299">
        <ele>1647.048</ele>
        <time>2022-02-27T11:52:32Z</time>
      </trkpt>
      <trkpt lat="42.84403" lon="0.50299">
        <ele>1647.053</ele>
        <time>2022-02-27T11:52:34Z</time>
      </trkpt>
      <trkpt lat="42.84403" lon="0.50299">
        <ele>1646.713</ele>
        <time>2022-02-27T11:52:36Z</time>
      </trkpt>
      <trkpt lat="42.84403" lon="0.50299">
        <ele>1646.719</ele>
        <time>2022-02-27T11:52:38Z</time>
      </trkpt>
      <trkpt lat="42.84403" lon="0.50298">
        <ele>1647.03</ele>
        <time>2022-02-27T11:52:40Z</time>
      </trkpt>
      <trkpt lat="42.84403" lon="0.50298">
        <ele>1647.031</ele>
        <time>2022-02-27T11:52:42Z</time>
      </trkpt>
      <trkpt lat="42.84403" lon="0.50298">
        <ele>1647.037</ele>
        <time>2022-02-27T11:52:44Z</time>
      </trkpt>
      <trkpt lat="42.84403" lon="0.50298">
        <ele>1647.051</ele>
        <time>2022-02-27T11:52:46Z</time>
      </trkpt>
      <trkpt lat="42.84403" lon="0.50298">
        <ele>1647.061</ele>
        <time>2022-02-27T11:52:48Z</time>
      </trkpt>
      <trkpt lat="42.84403" lon="0.50298">
        <ele>1647.178</ele>
        <time>2022-02-27T11:52:50Z</time>
      </trkpt>
      <trkpt lat="42.84403" lon="0.50298">
        <ele>1647.172</ele>
        <time>2022-02-27T11:52:52Z</time>
      </trkpt>
      <trkpt lat="42.84403" lon="0.50298">
        <ele>1647.187</ele>
        <time>2022-02-27T11:52:54Z</time>
      </trkpt>
      <trkpt lat="42.84403" lon="0.50298">
        <ele>1647.2</ele>
        <time>2022-02-27T11:52:56Z</time>
      </trkpt>
      <trkpt lat="42.84403" lon="0.50298">
        <ele>1647.213</ele>
        <time>2022-02-27T11:52:58Z</time>
      </trkpt>
      <trkpt lat="42.84403" lon="0.50298">
        <ele>1647.207</ele>
        <time>2022-02-27T11:53:00Z</time>
      </trkpt>
      <trkpt lat="42.84403" lon="0.50298">
        <ele>1647.211</ele>
        <time>2022-02-27T11:53:02Z</time>
      </trkpt>
      <trkpt lat="42.84403" lon="0.50298">
        <ele>1647.219</ele>
        <time>2022-02-27T11:53:04Z</time>
      </trkpt>
      <trkpt lat="42.84403" lon="0.50298">
        <ele>1647.233</ele>
        <time>2022-02-27T11:53:06Z</time>
      </trkpt>
      <trkpt lat="42.84403" lon="0.50299">
        <ele>1646.892</ele>
        <time>2022-02-27T11:53:08Z</time>
      </trkpt>
      <trkpt lat="42.84402" lon="0.50299">
        <ele>1646.872</ele>
        <time>2022-02-27T11:53:10Z</time>
      </trkpt>
      <trkpt lat="42.84402" lon="0.50299">
        <ele>1646.879</ele>
        <time>2022-02-27T11:53:12Z</time>
      </trkpt>
      <trkpt lat="42.84402" lon="0.50299">
        <ele>1646.878</ele>
        <time>2022-02-27T11:53:14Z</time>
      </trkpt>
      <trkpt lat="42.84402" lon="0.50299">
        <ele>1646.878</ele>
        <time>2022-02-27T11:53:16Z</time>
      </trkpt>
      <trkpt lat="42.84402" lon="0.50299">
        <ele>1646.879</ele>
        <time>2022-02-27T11:53:18Z</time>
      </trkpt>
      <trkpt lat="42.84402" lon="0.50299">
        <ele>1646.885</ele>
        <time>2022-02-27T11:53:20Z</time>
      </trkpt>
      <trkpt lat="42.84402" lon="0.50299">
        <ele>1646.881</ele>
        <time>2022-02-27T11:53:22Z</time>
      </trkpt>
      <trkpt lat="42.84402" lon="0.50299">
        <ele>1646.872</ele>
        <time>2022-02-27T11:53:24Z</time>
      </trkpt>
      <trkpt lat="42.84402" lon="0.50299">
        <ele>1646.867</ele>
        <time>2022-02-27T11:53:26Z</time>
      </trkpt>
      <trkpt lat="42.84402" lon="0.50299">
        <ele>1646.874</ele>
        <time>2022-02-27T11:53:28Z</time>
      </trkpt>
      <trkpt lat="42.84402" lon="0.50299">
        <ele>1646.872</ele>
        <time>2022-02-27T11:53:30Z</time>
      </trkpt>
      <trkpt lat="42.84402" lon="0.50299">
        <ele>1646.874</ele>
        <time>2022-02-27T11:53:32Z</time>
      </trkpt>
      <trkpt lat="42.84402" lon="0.50299">
        <ele>1646.884</ele>
        <time>2022-02-27T11:53:34Z</time>
      </trkpt>
      <trkpt lat="42.84402" lon="0.50299">
        <ele>1646.893</ele>
        <time>2022-02-27T11:53:36Z</time>
      </trkpt>
      <trkpt lat="42.84402" lon="0.50299">
        <ele>1646.9</ele>
        <time>2022-02-27T11:53:38Z</time>
      </trkpt>
      <trkpt lat="42.84402" lon="0.50299">
        <ele>1646.906</ele>
        <time>2022-02-27T11:53:40Z</time>
      </trkpt>
      <trkpt lat="42.84402" lon="0.50299">
        <ele>1646.909</ele>
        <time>2022-02-27T11:53:42Z</time>
      </trkpt>
      <trkpt lat="42.84402" lon="0.50299">
        <ele>1646.921</ele>
        <time>2022-02-27T11:53:44Z</time>
      </trkpt>
      <trkpt lat="42.84402" lon="0.50299">
        <ele>1646.939</ele>
        <time>2022-02-27T11:53:46Z</time>
      </trkpt>
      <trkpt lat="42.84402" lon="0.50299">
        <ele>1646.95</ele>
        <time>2022-02-27T11:53:48Z</time>
      </trkpt>
      <trkpt lat="42.84402" lon="0.50299">
        <ele>1646.944</ele>
        <time>2022-02-27T11:53:50Z</time>
      </trkpt>
      <trkpt lat="42.84402" lon="0.50299">
        <ele>1646.95</ele>
        <time>2022-02-27T11:53:52Z</time>
      </trkpt>
      <trkpt lat="42.84402" lon="0.50299">
        <ele>1646.946</ele>
        <time>2022-02-27T11:53:54Z</time>
      </trkpt>
      <trkpt lat="42.84402" lon="0.50299">
        <ele>1646.95</ele>
        <time>2022-02-27T11:53:56Z</time>
      </trkpt>
      <trkpt lat="42.84402" lon="0.50299">
        <ele>1646.953</ele>
        <time>2022-02-27T11:53:58Z</time>
      </trkpt>
      <trkpt lat="42.84402" lon="0.50299">
        <ele>1646.958</ele>
        <time>2022-02-27T11:54:00Z</time>
      </trkpt>
      <trkpt lat="42.84402" lon="0.50299">
        <ele>1646.96</ele>
        <time>2022-02-27T11:54:02Z</time>
      </trkpt>
      <trkpt lat="42.84402" lon="0.50299">
        <ele>1646.954</ele>
        <time>2022-02-27T11:54:04Z</time>
      </trkpt>
      <trkpt lat="42.84402" lon="0.50299">
        <ele>1646.968</ele>
        <time>2022-02-27T11:54:06Z</time>
      </trkpt>
      <trkpt lat="42.84402" lon="0.50299">
        <ele>1646.982</ele>
        <time>2022-02-27T11:54:08Z</time>
      </trkpt>
      <trkpt lat="42.84402" lon="0.50299">
        <ele>1646.989</ele>
        <time>2022-02-27T11:54:10Z</time>
      </trkpt>
      <trkpt lat="42.84403" lon="0.50299">
        <ele>1647.003</ele>
        <time>2022-02-27T11:54:12Z</time>
      </trkpt>
      <trkpt lat="42.84403" lon="0.50299">
        <ele>1647.02</ele>
        <time>2022-02-27T11:54:14Z</time>
      </trkpt>
      <trkpt lat="42.84403" lon="0.50299">
        <ele>1647.034</ele>
        <time>2022-02-27T11:54:16Z</time>
      </trkpt>
      <trkpt lat="42.84403" lon="0.50299">
        <ele>1647.045</ele>
        <time>2022-02-27T11:54:18Z</time>
      </trkpt>
      <trkpt lat="42.84403" lon="0.50299">
        <ele>1647.045</ele>
        <time>2022-02-27T11:54:20Z</time>
      </trkpt>
      <trkpt lat="42.84403" lon="0.50299">
        <ele>1647.035</ele>
        <time>2022-02-27T11:54:22Z</time>
      </trkpt>
      <trkpt lat="42.84403" lon="0.50299">
        <ele>1647.024</ele>
        <time>2022-02-27T11:54:24Z</time>
      </trkpt>
      <trkpt lat="42.84403" lon="0.50299">
        <ele>1647.019</ele>
        <time>2022-02-27T11:54:26Z</time>
      </trkpt>
      <trkpt lat="42.84403" lon="0.50299">
        <ele>1647.019</ele>
        <time>2022-02-27T11:54:28Z</time>
      </trkpt>
      <trkpt lat="42.84403" lon="0.50299">
        <ele>1647.026</ele>
        <time>2022-02-27T11:54:30Z</time>
      </trkpt>
      <trkpt lat="42.84403" lon="0.50299">
        <ele>1647.035</ele>
        <time>2022-02-27T11:54:32Z</time>
      </trkpt>
      <trkpt lat="42.84403" lon="0.50299">
        <ele>1647.038</ele>
        <time>2022-02-27T11:54:34Z</time>
      </trkpt>
      <trkpt lat="42.84403" lon="0.50299">
        <ele>1647.045</ele>
        <time>2022-02-27T11:54:36Z</time>
      </trkpt>
      <trkpt lat="42.84403" lon="0.50299">
        <ele>1647.049</ele>
        <time>2022-02-27T11:54:38Z</time>
      </trkpt>
      <trkpt lat="42.84403" lon="0.50299">
        <ele>1647.059</ele>
        <time>2022-02-27T11:54:40Z</time>
      </trkpt>
      <trkpt lat="42.84403" lon="0.50299">
        <ele>1647.063</ele>
        <time>2022-02-27T11:54:42Z</time>
      </trkpt>
      <trkpt lat="42.84403" lon="0.50299">
        <ele>1647.554</ele>
        <time>2022-02-27T11:54:44Z</time>
      </trkpt>
      <trkpt lat="42.84403" lon="0.50299">
        <ele>1647.603</ele>
        <time>2022-02-27T11:54:46Z</time>
      </trkpt>
      <trkpt lat="42.84403" lon="0.50299">
        <ele>1647.616</ele>
        <time>2022-02-27T11:54:48Z</time>
      </trkpt>
      <trkpt lat="42.84403" lon="0.50299">
        <ele>1647.635</ele>
        <time>2022-02-27T11:54:50Z</time>
      </trkpt>
      <trkpt lat="42.84403" lon="0.50299">
        <ele>1647.644</ele>
        <time>2022-02-27T11:54:52Z</time>
      </trkpt>
      <trkpt lat="42.84403" lon="0.50299">
        <ele>1647.213</ele>
        <time>2022-02-27T11:54:54Z</time>
      </trkpt>
      <trkpt lat="42.84403" lon="0.50299">
        <ele>1647.141</ele>
        <time>2022-02-27T11:54:56Z</time>
      </trkpt>
      <trkpt lat="42.84403" lon="0.50299">
        <ele>1647.142</ele>
        <time>2022-02-27T11:54:58Z</time>
      </trkpt>
      <trkpt lat="42.84403" lon="0.50299">
        <ele>1647.143</ele>
        <time>2022-02-27T11:55:00Z</time>
      </trkpt>
      <trkpt lat="42.84403" lon="0.50299">
        <ele>1647.143</ele>
        <time>2022-02-27T11:55:02Z</time>
      </trkpt>
      <trkpt lat="42.84403" lon="0.50299">
        <ele>1647.142</ele>
        <time>2022-02-27T11:55:04Z</time>
      </trkpt>
      <trkpt lat="42.84403" lon="0.50299">
        <ele>1647.142</ele>
        <time>2022-02-27T11:55:06Z</time>
      </trkpt>
      <trkpt lat="42.84403" lon="0.50299">
        <ele>1647.138</ele>
        <time>2022-02-27T11:55:08Z</time>
      </trkpt>
      <trkpt lat="42.84403" lon="0.50299">
        <ele>1647.144</ele>
        <time>2022-02-27T11:55:10Z</time>
      </trkpt>
      <trkpt lat="42.84403" lon="0.50299">
        <ele>1647.144</ele>
        <time>2022-02-27T11:55:12Z</time>
      </trkpt>
      <trkpt lat="42.84403" lon="0.50299">
        <ele>1647.146</ele>
        <time>2022-02-27T11:55:14Z</time>
      </trkpt>
      <trkpt lat="42.84403" lon="0.50299">
        <ele>1647.154</ele>
        <time>2022-02-27T11:55:16Z</time>
      </trkpt>
      <trkpt lat="42.84403" lon="0.50299">
        <ele>1647.154</ele>
        <time>2022-02-27T11:55:18Z</time>
      </trkpt>
      <trkpt lat="42.84403" lon="0.50299">
        <ele>1647.154</ele>
        <time>2022-02-27T11:55:20Z</time>
      </trkpt>
      <trkpt lat="42.84404" lon="0.50299">
        <ele>1646.585</ele>
        <time>2022-02-27T11:55:22Z</time>
      </trkpt>
      <trkpt lat="42.84404" lon="0.50299">
        <ele>1646.584</ele>
        <time>2022-02-27T11:55:24Z</time>
      </trkpt>
      <trkpt lat="42.84404" lon="0.50299">
        <ele>1646.592</ele>
        <time>2022-02-27T11:55:26Z</time>
      </trkpt>
      <trkpt lat="42.84404" lon="0.50299">
        <ele>1647.291</ele>
        <time>2022-02-27T11:55:28Z</time>
      </trkpt>
      <trkpt lat="42.84404" lon="0.50299">
        <ele>1648.262</ele>
        <time>2022-02-27T11:55:30Z</time>
      </trkpt>
      <trkpt lat="42.84405" lon="0.50299">
        <ele>1648.202</ele>
        <time>2022-02-27T11:55:32Z</time>
      </trkpt>
      <trkpt lat="42.84405" lon="0.50299">
        <ele>1648.198</ele>
        <time>2022-02-27T11:55:34Z</time>
      </trkpt>
      <trkpt lat="42.84405" lon="0.50299">
        <ele>1648.195</ele>
        <time>2022-02-27T11:55:36Z</time>
      </trkpt>
      <trkpt lat="42.84405" lon="0.503">
        <ele>1648.62</ele>
        <time>2022-02-27T11:55:38Z</time>
      </trkpt>
      <trkpt lat="42.84405" lon="0.503">
        <ele>1647.669</ele>
        <time>2022-02-27T11:55:40Z</time>
      </trkpt>
      <trkpt lat="42.84405" lon="0.503">
        <ele>1647.676</ele>
        <time>2022-02-27T11:55:42Z</time>
      </trkpt>
      <trkpt lat="42.84405" lon="0.503">
        <ele>1647.682</ele>
        <time>2022-02-27T11:55:44Z</time>
      </trkpt>
      <trkpt lat="42.84405" lon="0.503">
        <ele>1647.685</ele>
        <time>2022-02-27T11:55:46Z</time>
      </trkpt>
      <trkpt lat="42.84405" lon="0.503">
        <ele>1647.702</ele>
        <time>2022-02-27T11:55:48Z</time>
      </trkpt>
      <trkpt lat="42.84405" lon="0.503">
        <ele>1647.701</ele>
        <time>2022-02-27T11:55:50Z</time>
      </trkpt>
      <trkpt lat="42.84405" lon="0.503">
        <ele>1647.361</ele>
        <time>2022-02-27T11:55:52Z</time>
      </trkpt>
      <trkpt lat="42.84403" lon="0.50297">
        <ele>1646.596</ele>
        <time>2022-02-27T11:55:54Z</time>
      </trkpt>
      <trkpt lat="42.84403" lon="0.50297">
        <ele>1646.602</ele>
        <time>2022-02-27T11:55:56Z</time>
      </trkpt>
      <trkpt lat="42.84403" lon="0.50297">
        <ele>1646.624</ele>
        <time>2022-02-27T11:55:58Z</time>
      </trkpt>
      <trkpt lat="42.84403" lon="0.50297">
        <ele>1646.632</ele>
        <time>2022-02-27T11:56:00Z</time>
      </trkpt>
      <trkpt lat="42.84403" lon="0.50297">
        <ele>1646.638</ele>
        <time>2022-02-27T11:56:02Z</time>
      </trkpt>
      <trkpt lat="42.84403" lon="0.50297">
        <ele>1646.425</ele>
        <time>2022-02-27T11:56:04Z</time>
      </trkpt>
      <trkpt lat="42.84403" lon="0.50297">
        <ele>1646.434</ele>
        <time>2022-02-27T11:56:06Z</time>
      </trkpt>
      <trkpt lat="42.84403" lon="0.50297">
        <ele>1646.449</ele>
        <time>2022-02-27T11:56:08Z</time>
      </trkpt>
      <trkpt lat="42.84403" lon="0.50297">
        <ele>1646.469</ele>
        <time>2022-02-27T11:56:10Z</time>
      </trkpt>
      <trkpt lat="42.84403" lon="0.50297">
        <ele>1646.489</ele>
        <time>2022-02-27T11:56:12Z</time>
      </trkpt>
      <trkpt lat="42.84403" lon="0.50297">
        <ele>1646.492</ele>
        <time>2022-02-27T11:56:14Z</time>
      </trkpt>
      <trkpt lat="42.84403" lon="0.50297">
        <ele>1646.495</ele>
        <time>2022-02-27T11:56:16Z</time>
      </trkpt>
      <trkpt lat="42.84403" lon="0.50297">
        <ele>1646.51</ele>
        <time>2022-02-27T11:56:18Z</time>
      </trkpt>
      <trkpt lat="42.84403" lon="0.50297">
        <ele>1646.522</ele>
        <time>2022-02-27T11:56:20Z</time>
      </trkpt>
      <trkpt lat="42.84403" lon="0.50297">
        <ele>1646.529</ele>
        <time>2022-02-27T11:56:22Z</time>
      </trkpt>
      <trkpt lat="42.84403" lon="0.50297">
        <ele>1646.532</ele>
        <time>2022-02-27T11:56:24Z</time>
      </trkpt>
      <trkpt lat="42.84403" lon="0.50297">
        <ele>1646.53</ele>
        <time>2022-02-27T11:56:26Z</time>
      </trkpt>
      <trkpt lat="42.84403" lon="0.50297">
        <ele>1646.531</ele>
        <time>2022-02-27T11:56:28Z</time>
      </trkpt>
      <trkpt lat="42.84403" lon="0.50297">
        <ele>1646.526</ele>
        <time>2022-02-27T11:56:30Z</time>
      </trkpt>
      <trkpt lat="42.84403" lon="0.50297">
        <ele>1646.529</ele>
        <time>2022-02-27T11:56:32Z</time>
      </trkpt>
      <trkpt lat="42.84403" lon="0.50297">
        <ele>1646.525</ele>
        <time>2022-02-27T11:56:34Z</time>
      </trkpt>
      <trkpt lat="42.84403" lon="0.50297">
        <ele>1646.532</ele>
        <time>2022-02-27T11:56:36Z</time>
      </trkpt>
      <trkpt lat="42.84403" lon="0.50297">
        <ele>1646.551</ele>
        <time>2022-02-27T11:56:38Z</time>
      </trkpt>
      <trkpt lat="42.84403" lon="0.50297">
        <ele>1646.571</ele>
        <time>2022-02-27T11:56:40Z</time>
      </trkpt>
      <trkpt lat="42.84403" lon="0.50297">
        <ele>1646.575</ele>
        <time>2022-02-27T11:56:42Z</time>
      </trkpt>
      <trkpt lat="42.84403" lon="0.50297">
        <ele>1646.58</ele>
        <time>2022-02-27T11:56:44Z</time>
      </trkpt>
      <trkpt lat="42.84403" lon="0.50297">
        <ele>1646.581</ele>
        <time>2022-02-27T11:56:46Z</time>
      </trkpt>
      <trkpt lat="42.84403" lon="0.50297">
        <ele>1646.585</ele>
        <time>2022-02-27T11:56:48Z</time>
      </trkpt>
      <trkpt lat="42.84403" lon="0.50297">
        <ele>1646.588</ele>
        <time>2022-02-27T11:56:50Z</time>
      </trkpt>
      <trkpt lat="42.84403" lon="0.50297">
        <ele>1646.595</ele>
        <time>2022-02-27T11:56:52Z</time>
      </trkpt>
      <trkpt lat="42.84402" lon="0.50297">
        <ele>1646.319</ele>
        <time>2022-02-27T11:56:54Z</time>
      </trkpt>
      <trkpt lat="42.84402" lon="0.50297">
        <ele>1646.286</ele>
        <time>2022-02-27T11:56:56Z</time>
      </trkpt>
      <trkpt lat="42.84402" lon="0.50297">
        <ele>1646.296</ele>
        <time>2022-02-27T11:56:58Z</time>
      </trkpt>
      <trkpt lat="42.84402" lon="0.50297">
        <ele>1646.309</ele>
        <time>2022-02-27T11:57:00Z</time>
      </trkpt>
      <trkpt lat="42.84402" lon="0.50297">
        <ele>1646.316</ele>
        <time>2022-02-27T11:57:02Z</time>
      </trkpt>
      <trkpt lat="42.84402" lon="0.50297">
        <ele>1646.321</ele>
        <time>2022-02-27T11:57:04Z</time>
      </trkpt>
      <trkpt lat="42.84402" lon="0.50297">
        <ele>1646.333</ele>
        <time>2022-02-27T11:57:06Z</time>
      </trkpt>
      <trkpt lat="42.84402" lon="0.50297">
        <ele>1646.328</ele>
        <time>2022-02-27T11:57:08Z</time>
      </trkpt>
      <trkpt lat="42.84402" lon="0.50297">
        <ele>1646.333</ele>
        <time>2022-02-27T11:57:10Z</time>
      </trkpt>
      <trkpt lat="42.84402" lon="0.50297">
        <ele>1646.346</ele>
        <time>2022-02-27T11:57:12Z</time>
      </trkpt>
      <trkpt lat="42.84402" lon="0.50297">
        <ele>1646.364</ele>
        <time>2022-02-27T11:57:14Z</time>
      </trkpt>
      <trkpt lat="42.84402" lon="0.50297">
        <ele>1646.386</ele>
        <time>2022-02-27T11:57:16Z</time>
      </trkpt>
      <trkpt lat="42.84402" lon="0.50297">
        <ele>1646.393</ele>
        <time>2022-02-27T11:57:18Z</time>
      </trkpt>
      <trkpt lat="42.84402" lon="0.50297">
        <ele>1646.403</ele>
        <time>2022-02-27T11:57:20Z</time>
      </trkpt>
      <trkpt lat="42.84402" lon="0.50297">
        <ele>1646.401</ele>
        <time>2022-02-27T11:57:22Z</time>
      </trkpt>
      <trkpt lat="42.84402" lon="0.50297">
        <ele>1646.394</ele>
        <time>2022-02-27T11:57:24Z</time>
      </trkpt>
      <trkpt lat="42.84402" lon="0.50297">
        <ele>1646.426</ele>
        <time>2022-02-27T11:57:26Z</time>
      </trkpt>
      <trkpt lat="42.84402" lon="0.50297">
        <ele>1646.456</ele>
        <time>2022-02-27T11:57:28Z</time>
      </trkpt>
      <trkpt lat="42.84402" lon="0.50297">
        <ele>1646.464</ele>
        <time>2022-02-27T11:57:30Z</time>
      </trkpt>
      <trkpt lat="42.84402" lon="0.50297">
        <ele>1646.483</ele>
        <time>2022-02-27T11:57:32Z</time>
      </trkpt>
      <trkpt lat="42.84402" lon="0.50297">
        <ele>1646.511</ele>
        <time>2022-02-27T11:57:34Z</time>
      </trkpt>
      <trkpt lat="42.84402" lon="0.50297">
        <ele>1646.519</ele>
        <time>2022-02-27T11:57:36Z</time>
      </trkpt>
      <trkpt lat="42.84402" lon="0.50297">
        <ele>1646.526</ele>
        <time>2022-02-27T11:57:38Z</time>
      </trkpt>
      <trkpt lat="42.84402" lon="0.50297">
        <ele>1646.537</ele>
        <time>2022-02-27T11:57:40Z</time>
      </trkpt>
      <trkpt lat="42.84402" lon="0.50297">
        <ele>1646.549</ele>
        <time>2022-02-27T11:57:42Z</time>
      </trkpt>
      <trkpt lat="42.84402" lon="0.50297">
        <ele>1646.552</ele>
        <time>2022-02-27T11:57:44Z</time>
      </trkpt>
      <trkpt lat="42.84402" lon="0.50297">
        <ele>1646.561</ele>
        <time>2022-02-27T11:57:46Z</time>
      </trkpt>
      <trkpt lat="42.84402" lon="0.50297">
        <ele>1646.57</ele>
        <time>2022-02-27T11:57:48Z</time>
      </trkpt>
      <trkpt lat="42.84402" lon="0.50297">
        <ele>1646.587</ele>
        <time>2022-02-27T11:57:50Z</time>
      </trkpt>
      <trkpt lat="42.84402" lon="0.50297">
        <ele>1646.609</ele>
        <time>2022-02-27T11:57:52Z</time>
      </trkpt>
      <trkpt lat="42.84402" lon="0.50297">
        <ele>1646.627</ele>
        <time>2022-02-27T11:57:54Z</time>
      </trkpt>
      <trkpt lat="42.84402" lon="0.50297">
        <ele>1646.641</ele>
        <time>2022-02-27T11:57:56Z</time>
      </trkpt>
      <trkpt lat="42.84402" lon="0.50297">
        <ele>1646.65</ele>
        <time>2022-02-27T11:57:58Z</time>
      </trkpt>
      <trkpt lat="42.84402" lon="0.50297">
        <ele>1646.655</ele>
        <time>2022-02-27T11:58:00Z</time>
      </trkpt>
      <trkpt lat="42.84402" lon="0.50297">
        <ele>1646.662</ele>
        <time>2022-02-27T11:58:02Z</time>
      </trkpt>
      <trkpt lat="42.84402" lon="0.50297">
        <ele>1646.658</ele>
        <time>2022-02-27T11:58:04Z</time>
      </trkpt>
      <trkpt lat="42.84402" lon="0.50297">
        <ele>1646.661</ele>
        <time>2022-02-27T11:58:06Z</time>
      </trkpt>
      <trkpt lat="42.84402" lon="0.50297">
        <ele>1646.67</ele>
        <time>2022-02-27T11:58:08Z</time>
      </trkpt>
      <trkpt lat="42.84402" lon="0.50297">
        <ele>1646.678</ele>
        <time>2022-02-27T11:58:10Z</time>
      </trkpt>
      <trkpt lat="42.84402" lon="0.50297">
        <ele>1646.697</ele>
        <time>2022-02-27T11:58:12Z</time>
      </trkpt>
      <trkpt lat="42.84402" lon="0.50297">
        <ele>1646.709</ele>
        <time>2022-02-27T11:58:14Z</time>
      </trkpt>
      <trkpt lat="42.84402" lon="0.50297">
        <ele>1646.728</ele>
        <time>2022-02-27T11:58:16Z</time>
      </trkpt>
      <trkpt lat="42.84402" lon="0.50297">
        <ele>1646.749</ele>
        <time>2022-02-27T11:58:18Z</time>
      </trkpt>
      <trkpt lat="42.84402" lon="0.50297">
        <ele>1646.762</ele>
        <time>2022-02-27T11:58:20Z</time>
      </trkpt>
      <trkpt lat="42.84402" lon="0.50297">
        <ele>1646.763</ele>
        <time>2022-02-27T11:58:22Z</time>
      </trkpt>
      <trkpt lat="42.84402" lon="0.50297">
        <ele>1646.771</ele>
        <time>2022-02-27T11:58:24Z</time>
      </trkpt>
      <trkpt lat="42.84402" lon="0.50297">
        <ele>1646.779</ele>
        <time>2022-02-27T11:58:26Z</time>
      </trkpt>
      <trkpt lat="42.84402" lon="0.50297">
        <ele>1646.792</ele>
        <time>2022-02-27T11:58:28Z</time>
      </trkpt>
      <trkpt lat="42.84402" lon="0.50297">
        <ele>1646.808</ele>
        <time>2022-02-27T11:58:30Z</time>
      </trkpt>
      <trkpt lat="42.84402" lon="0.50297">
        <ele>1646.823</ele>
        <time>2022-02-27T11:58:32Z</time>
      </trkpt>
      <trkpt lat="42.84402" lon="0.50297">
        <ele>1646.822</ele>
        <time>2022-02-27T11:58:34Z</time>
      </trkpt>
      <trkpt lat="42.84402" lon="0.50297">
        <ele>1646.827</ele>
        <time>2022-02-27T11:58:36Z</time>
      </trkpt>
      <trkpt lat="42.84402" lon="0.50297">
        <ele>1646.842</ele>
        <time>2022-02-27T11:58:38Z</time>
      </trkpt>
      <trkpt lat="42.84402" lon="0.50297">
        <ele>1646.854</ele>
        <time>2022-02-27T11:58:40Z</time>
      </trkpt>
      <trkpt lat="42.84402" lon="0.50297">
        <ele>1646.864</ele>
        <time>2022-02-27T11:58:42Z</time>
      </trkpt>
      <trkpt lat="42.84402" lon="0.50297">
        <ele>1646.883</ele>
        <time>2022-02-27T11:58:44Z</time>
      </trkpt>
      <trkpt lat="42.84402" lon="0.50297">
        <ele>1646.887</ele>
        <time>2022-02-27T11:58:46Z</time>
      </trkpt>
      <trkpt lat="42.84402" lon="0.50297">
        <ele>1646.898</ele>
        <time>2022-02-27T11:58:48Z</time>
      </trkpt>
      <trkpt lat="42.84402" lon="0.50297">
        <ele>1646.909</ele>
        <time>2022-02-27T11:58:50Z</time>
      </trkpt>
      <trkpt lat="42.84402" lon="0.50297">
        <ele>1646.915</ele>
        <time>2022-02-27T11:58:52Z</time>
      </trkpt>
      <trkpt lat="42.84402" lon="0.50297">
        <ele>1646.918</ele>
        <time>2022-02-27T11:58:54Z</time>
      </trkpt>
      <trkpt lat="42.84402" lon="0.50297">
        <ele>1646.925</ele>
        <time>2022-02-27T11:58:56Z</time>
      </trkpt>
      <trkpt lat="42.84402" lon="0.50297">
        <ele>1646.928</ele>
        <time>2022-02-27T11:58:58Z</time>
      </trkpt>
      <trkpt lat="42.84402" lon="0.50297">
        <ele>1646.928</ele>
        <time>2022-02-27T11:59:00Z</time>
      </trkpt>
      <trkpt lat="42.84402" lon="0.50297">
        <ele>1646.936</ele>
        <time>2022-02-27T11:59:02Z</time>
      </trkpt>
      <trkpt lat="42.84402" lon="0.50297">
        <ele>1646.938</ele>
        <time>2022-02-27T11:59:04Z</time>
      </trkpt>
      <trkpt lat="42.84402" lon="0.50297">
        <ele>1646.933</ele>
        <time>2022-02-27T11:59:06Z</time>
      </trkpt>
      <trkpt lat="42.84402" lon="0.50297">
        <ele>1646.932</ele>
        <time>2022-02-27T11:59:08Z</time>
      </trkpt>
      <trkpt lat="42.84402" lon="0.50297">
        <ele>1646.93</ele>
        <time>2022-02-27T11:59:10Z</time>
      </trkpt>
      <trkpt lat="42.84402" lon="0.50297">
        <ele>1646.937</ele>
        <time>2022-02-27T11:59:12Z</time>
      </trkpt>
      <trkpt lat="42.84402" lon="0.50297">
        <ele>1646.951</ele>
        <time>2022-02-27T11:59:14Z</time>
      </trkpt>
      <trkpt lat="42.84402" lon="0.50297">
        <ele>1646.956</ele>
        <time>2022-02-27T11:59:16Z</time>
      </trkpt>
      <trkpt lat="42.84402" lon="0.50297">
        <ele>1646.966</ele>
        <time>2022-02-27T11:59:18Z</time>
      </trkpt>
      <trkpt lat="42.84402" lon="0.50297">
        <ele>1646.981</ele>
        <time>2022-02-27T11:59:20Z</time>
      </trkpt>
      <trkpt lat="42.84402" lon="0.50297">
        <ele>1646.992</ele>
        <time>2022-02-27T11:59:22Z</time>
      </trkpt>
      <trkpt lat="42.84402" lon="0.50297">
        <ele>1646.992</ele>
        <time>2022-02-27T11:59:24Z</time>
      </trkpt>
      <trkpt lat="42.84402" lon="0.50297">
        <ele>1646.993</ele>
        <time>2022-02-27T11:59:26Z</time>
      </trkpt>
      <trkpt lat="42.84402" lon="0.50297">
        <ele>1647.001</ele>
        <time>2022-02-27T11:59:28Z</time>
      </trkpt>
      <trkpt lat="42.84402" lon="0.50297">
        <ele>1647.003</ele>
        <time>2022-02-27T11:59:30Z</time>
      </trkpt>
      <trkpt lat="42.84402" lon="0.50297">
        <ele>1647.007</ele>
        <time>2022-02-27T11:59:32Z</time>
      </trkpt>
      <trkpt lat="42.84402" lon="0.50297">
        <ele>1647.005</ele>
        <time>2022-02-27T11:59:34Z</time>
      </trkpt>
      <trkpt lat="42.84402" lon="0.50297">
        <ele>1647.001</ele>
        <time>2022-02-27T11:59:36Z</time>
      </trkpt>
      <trkpt lat="42.84402" lon="0.50297">
        <ele>1646.998</ele>
        <time>2022-02-27T11:59:38Z</time>
      </trkpt>
      <trkpt lat="42.84402" lon="0.50297">
        <ele>1647</ele>
        <time>2022-02-27T11:59:40Z</time>
      </trkpt>
      <trkpt lat="42.84402" lon="0.50297">
        <ele>1647</ele>
        <time>2022-02-27T11:59:42Z</time>
      </trkpt>
      <trkpt lat="42.84402" lon="0.50297">
        <ele>1647.017</ele>
        <time>2022-02-27T11:59:44Z</time>
      </trkpt>
      <trkpt lat="42.84402" lon="0.50297">
        <ele>1647.026</ele>
        <time>2022-02-27T11:59:46Z</time>
      </trkpt>
      <trkpt lat="42.84402" lon="0.50297">
        <ele>1647.03</ele>
        <time>2022-02-27T11:59:48Z</time>
      </trkpt>
      <trkpt lat="42.84402" lon="0.50297">
        <ele>1647.034</ele>
        <time>2022-02-27T11:59:50Z</time>
      </trkpt>
      <trkpt lat="42.84402" lon="0.50297">
        <ele>1647.021</ele>
        <time>2022-02-27T11:59:52Z</time>
      </trkpt>
      <trkpt lat="42.84402" lon="0.50297">
        <ele>1647.012</ele>
        <time>2022-02-27T11:59:54Z</time>
      </trkpt>
      <trkpt lat="42.84402" lon="0.50297">
        <ele>1647.017</ele>
        <time>2022-02-27T11:59:56Z</time>
      </trkpt>
      <trkpt lat="42.84402" lon="0.50297">
        <ele>1647.023</ele>
        <time>2022-02-27T11:59:58Z</time>
      </trkpt>
      <trkpt lat="42.84402" lon="0.50297">
        <ele>1647.027</ele>
        <time>2022-02-27T12:00:00Z</time>
      </trkpt>
      <trkpt lat="42.84402" lon="0.50297">
        <ele>1647.034</ele>
        <time>2022-02-27T12:00:02Z</time>
      </trkpt>
      <trkpt lat="42.84402" lon="0.50297">
        <ele>1647.039</ele>
        <time>2022-02-27T12:00:04Z</time>
      </trkpt>
      <trkpt lat="42.84402" lon="0.50297">
        <ele>1647.042</ele>
        <time>2022-02-27T12:00:06Z</time>
      </trkpt>
      <trkpt lat="42.84402" lon="0.50297">
        <ele>1647.052</ele>
        <time>2022-02-27T12:00:08Z</time>
      </trkpt>
      <trkpt lat="42.84402" lon="0.50297">
        <ele>1647.056</ele>
        <time>2022-02-27T12:00:10Z</time>
      </trkpt>
      <trkpt lat="42.84402" lon="0.50297">
        <ele>1647.063</ele>
        <time>2022-02-27T12:00:12Z</time>
      </trkpt>
      <trkpt lat="42.84402" lon="0.50297">
        <ele>1647.073</ele>
        <time>2022-02-27T12:00:14Z</time>
      </trkpt>
      <trkpt lat="42.84402" lon="0.50297">
        <ele>1647.083</ele>
        <time>2022-02-27T12:00:16Z</time>
      </trkpt>
      <trkpt lat="42.84402" lon="0.50297">
        <ele>1647.092</ele>
        <time>2022-02-27T12:00:18Z</time>
      </trkpt>
      <trkpt lat="42.84403" lon="0.50297">
        <ele>1647.094</ele>
        <time>2022-02-27T12:00:20Z</time>
      </trkpt>
      <trkpt lat="42.84403" lon="0.50297">
        <ele>1647.092</ele>
        <time>2022-02-27T12:00:22Z</time>
      </trkpt>
      <trkpt lat="42.84403" lon="0.50297">
        <ele>1647.096</ele>
        <time>2022-02-27T12:00:24Z</time>
      </trkpt>
      <trkpt lat="42.84403" lon="0.50297">
        <ele>1647.1</ele>
        <time>2022-02-27T12:00:26Z</time>
      </trkpt>
      <trkpt lat="42.84403" lon="0.50297">
        <ele>1647.108</ele>
        <time>2022-02-27T12:00:28Z</time>
      </trkpt>
      <trkpt lat="42.84403" lon="0.50297">
        <ele>1647.115</ele>
        <time>2022-02-27T12:00:30Z</time>
      </trkpt>
      <trkpt lat="42.84403" lon="0.50297">
        <ele>1647.117</ele>
        <time>2022-02-27T12:00:32Z</time>
      </trkpt>
      <trkpt lat="42.84403" lon="0.50297">
        <ele>1647.124</ele>
        <time>2022-02-27T12:00:34Z</time>
      </trkpt>
      <trkpt lat="42.84403" lon="0.50297">
        <ele>1647.134</ele>
        <time>2022-02-27T12:00:36Z</time>
      </trkpt>
      <trkpt lat="42.84403" lon="0.50297">
        <ele>1647.151</ele>
        <time>2022-02-27T12:00:38Z</time>
      </trkpt>
      <trkpt lat="42.84403" lon="0.50297">
        <ele>1647.161</ele>
        <time>2022-02-27T12:00:40Z</time>
      </trkpt>
      <trkpt lat="42.84403" lon="0.50297">
        <ele>1647.17</ele>
        <time>2022-02-27T12:00:42Z</time>
      </trkpt>
      <trkpt lat="42.84403" lon="0.50297">
        <ele>1647.177</ele>
        <time>2022-02-27T12:00:44Z</time>
      </trkpt>
      <trkpt lat="42.84403" lon="0.50297">
        <ele>1647.178</ele>
        <time>2022-02-27T12:00:46Z</time>
      </trkpt>
      <trkpt lat="42.84403" lon="0.50297">
        <ele>1647.19</ele>
        <time>2022-02-27T12:00:48Z</time>
      </trkpt>
      <trkpt lat="42.84403" lon="0.50297">
        <ele>1647.201</ele>
        <time>2022-02-27T12:00:50Z</time>
      </trkpt>
      <trkpt lat="42.84403" lon="0.50297">
        <ele>1647.204</ele>
        <time>2022-02-27T12:00:52Z</time>
      </trkpt>
      <trkpt lat="42.84403" lon="0.50297">
        <ele>1647.208</ele>
        <time>2022-02-27T12:00:54Z</time>
      </trkpt>
      <trkpt lat="42.84403" lon="0.50297">
        <ele>1647.216</ele>
        <time>2022-02-27T12:00:56Z</time>
      </trkpt>
      <trkpt lat="42.84403" lon="0.50297">
        <ele>1647.23</ele>
        <time>2022-02-27T12:00:58Z</time>
      </trkpt>
      <trkpt lat="42.84403" lon="0.50297">
        <ele>1647.235</ele>
        <time>2022-02-27T12:01:00Z</time>
      </trkpt>
      <trkpt lat="42.84403" lon="0.50297">
        <ele>1647.243</ele>
        <time>2022-02-27T12:01:02Z</time>
      </trkpt>
      <trkpt lat="42.84403" lon="0.50297">
        <ele>1647.247</ele>
        <time>2022-02-27T12:01:04Z</time>
      </trkpt>
      <trkpt lat="42.84403" lon="0.50297">
        <ele>1647.249</ele>
        <time>2022-02-27T12:01:06Z</time>
      </trkpt>
      <trkpt lat="42.84403" lon="0.50297">
        <ele>1647.25</ele>
        <time>2022-02-27T12:01:08Z</time>
      </trkpt>
      <trkpt lat="42.84403" lon="0.50297">
        <ele>1647.254</ele>
        <time>2022-02-27T12:01:10Z</time>
      </trkpt>
      <trkpt lat="42.84403" lon="0.50297">
        <ele>1647.258</ele>
        <time>2022-02-27T12:01:12Z</time>
      </trkpt>
      <trkpt lat="42.84403" lon="0.50297">
        <ele>1647.263</ele>
        <time>2022-02-27T12:01:14Z</time>
      </trkpt>
      <trkpt lat="42.84403" lon="0.50297">
        <ele>1647.274</ele>
        <time>2022-02-27T12:01:16Z</time>
      </trkpt>
      <trkpt lat="42.84403" lon="0.50297">
        <ele>1647.285</ele>
        <time>2022-02-27T12:01:18Z</time>
      </trkpt>
      <trkpt lat="42.84403" lon="0.50297">
        <ele>1647.289</ele>
        <time>2022-02-27T12:01:20Z</time>
      </trkpt>
      <trkpt lat="42.84403" lon="0.50297">
        <ele>1647.297</ele>
        <time>2022-02-27T12:01:22Z</time>
      </trkpt>
      <trkpt lat="42.84403" lon="0.50297">
        <ele>1647.302</ele>
        <time>2022-02-27T12:01:24Z</time>
      </trkpt>
      <trkpt lat="42.84403" lon="0.50297">
        <ele>1647.308</ele>
        <time>2022-02-27T12:01:26Z</time>
      </trkpt>
      <trkpt lat="42.84403" lon="0.50297">
        <ele>1647.312</ele>
        <time>2022-02-27T12:01:28Z</time>
      </trkpt>
      <trkpt lat="42.84403" lon="0.50297">
        <ele>1647.316</ele>
        <time>2022-02-27T12:01:30Z</time>
      </trkpt>
      <trkpt lat="42.84403" lon="0.50297">
        <ele>1647.323</ele>
        <time>2022-02-27T12:01:32Z</time>
      </trkpt>
      <trkpt lat="42.84403" lon="0.50297">
        <ele>1647.343</ele>
        <time>2022-02-27T12:01:34Z</time>
      </trkpt>
      <trkpt lat="42.84403" lon="0.50297">
        <ele>1647.354</ele>
        <time>2022-02-27T12:01:36Z</time>
      </trkpt>
      <trkpt lat="42.84403" lon="0.50297">
        <ele>1647.358</ele>
        <time>2022-02-27T12:01:38Z</time>
      </trkpt>
      <trkpt lat="42.84403" lon="0.50297">
        <ele>1647.362</ele>
        <time>2022-02-27T12:01:40Z</time>
      </trkpt>
      <trkpt lat="42.84403" lon="0.50297">
        <ele>1647.365</ele>
        <time>2022-02-27T12:01:42Z</time>
      </trkpt>
      <trkpt lat="42.84403" lon="0.50297">
        <ele>1647.373</ele>
        <time>2022-02-27T12:01:44Z</time>
      </trkpt>
      <trkpt lat="42.84403" lon="0.50297">
        <ele>1647.371</ele>
        <time>2022-02-27T12:01:46Z</time>
      </trkpt>
      <trkpt lat="42.84403" lon="0.50297">
        <ele>1647.377</ele>
        <time>2022-02-27T12:01:48Z</time>
      </trkpt>
      <trkpt lat="42.84403" lon="0.50297">
        <ele>1647.381</ele>
        <time>2022-02-27T12:01:50Z</time>
      </trkpt>
      <trkpt lat="42.84403" lon="0.50297">
        <ele>1647.39</ele>
        <time>2022-02-27T12:01:52Z</time>
      </trkpt>
      <trkpt lat="42.84403" lon="0.50297">
        <ele>1647.401</ele>
        <time>2022-02-27T12:01:54Z</time>
      </trkpt>
      <trkpt lat="42.84403" lon="0.50297">
        <ele>1647.41</ele>
        <time>2022-02-27T12:01:56Z</time>
      </trkpt>
      <trkpt lat="42.84403" lon="0.50297">
        <ele>1647.418</ele>
        <time>2022-02-27T12:01:58Z</time>
      </trkpt>
      <trkpt lat="42.84403" lon="0.50297">
        <ele>1647.422</ele>
        <time>2022-02-27T12:02:00Z</time>
      </trkpt>
      <trkpt lat="42.84403" lon="0.50297">
        <ele>1647.432</ele>
        <time>2022-02-27T12:02:02Z</time>
      </trkpt>
      <trkpt lat="42.84403" lon="0.50297">
        <ele>1647.432</ele>
        <time>2022-02-27T12:02:04Z</time>
      </trkpt>
      <trkpt lat="42.84403" lon="0.50297">
        <ele>1647.434</ele>
        <time>2022-02-27T12:02:06Z</time>
      </trkpt>
      <trkpt lat="42.84403" lon="0.50297">
        <ele>1647.436</ele>
        <time>2022-02-27T12:02:08Z</time>
      </trkpt>
      <trkpt lat="42.84403" lon="0.50297">
        <ele>1647.436</ele>
        <time>2022-02-27T12:02:10Z</time>
      </trkpt>
      <trkpt lat="42.84403" lon="0.50297">
        <ele>1647.444</ele>
        <time>2022-02-27T12:02:12Z</time>
      </trkpt>
      <trkpt lat="42.84403" lon="0.50297">
        <ele>1647.452</ele>
        <time>2022-02-27T12:02:14Z</time>
      </trkpt>
      <trkpt lat="42.84403" lon="0.50297">
        <ele>1647.46</ele>
        <time>2022-02-27T12:02:16Z</time>
      </trkpt>
      <trkpt lat="42.84403" lon="0.50297">
        <ele>1647.47</ele>
        <time>2022-02-27T12:02:18Z</time>
      </trkpt>
      <trkpt lat="42.84403" lon="0.50297">
        <ele>1647.487</ele>
        <time>2022-02-27T12:02:20Z</time>
      </trkpt>
      <trkpt lat="42.84403" lon="0.50297">
        <ele>1647.513</ele>
        <time>2022-02-27T12:02:22Z</time>
      </trkpt>
      <trkpt lat="42.84403" lon="0.50297">
        <ele>1647.537</ele>
        <time>2022-02-27T12:02:24Z</time>
      </trkpt>
      <trkpt lat="42.84403" lon="0.50297">
        <ele>1647.564</ele>
        <time>2022-02-27T12:02:26Z</time>
      </trkpt>
      <trkpt lat="42.84403" lon="0.50297">
        <ele>1647.581</ele>
        <time>2022-02-27T12:02:28Z</time>
      </trkpt>
      <trkpt lat="42.84403" lon="0.50297">
        <ele>1647.58</ele>
        <time>2022-02-27T12:02:30Z</time>
      </trkpt>
      <trkpt lat="42.84403" lon="0.50297">
        <ele>1647.588</ele>
        <time>2022-02-27T12:02:32Z</time>
      </trkpt>
      <trkpt lat="42.84403" lon="0.50297">
        <ele>1647.592</ele>
        <time>2022-02-27T12:02:34Z</time>
      </trkpt>
      <trkpt lat="42.84403" lon="0.50297">
        <ele>1647.61</ele>
        <time>2022-02-27T12:02:36Z</time>
      </trkpt>
      <trkpt lat="42.84403" lon="0.50297">
        <ele>1647.616</ele>
        <time>2022-02-27T12:02:38Z</time>
      </trkpt>
      <trkpt lat="42.84403" lon="0.50297">
        <ele>1647.642</ele>
        <time>2022-02-27T12:02:40Z</time>
      </trkpt>
      <trkpt lat="42.84403" lon="0.50297">
        <ele>1647.647</ele>
        <time>2022-02-27T12:02:42Z</time>
      </trkpt>
      <trkpt lat="42.84403" lon="0.50297">
        <ele>1647.672</ele>
        <time>2022-02-27T12:02:44Z</time>
      </trkpt>
      <trkpt lat="42.84403" lon="0.50297">
        <ele>1647.671</ele>
        <time>2022-02-27T12:02:46Z</time>
      </trkpt>
      <trkpt lat="42.84403" lon="0.50297">
        <ele>1647.682</ele>
        <time>2022-02-27T12:02:48Z</time>
      </trkpt>
      <trkpt lat="42.84403" lon="0.50297">
        <ele>1647.699</ele>
        <time>2022-02-27T12:02:50Z</time>
      </trkpt>
      <trkpt lat="42.84403" lon="0.50297">
        <ele>1647.708</ele>
        <time>2022-02-27T12:02:52Z</time>
      </trkpt>
      <trkpt lat="42.84403" lon="0.50297">
        <ele>1647.714</ele>
        <time>2022-02-27T12:02:54Z</time>
      </trkpt>
      <trkpt lat="42.84403" lon="0.50297">
        <ele>1647.713</ele>
        <time>2022-02-27T12:02:56Z</time>
      </trkpt>
      <trkpt lat="42.84403" lon="0.50297">
        <ele>1647.711</ele>
        <time>2022-02-27T12:02:58Z</time>
      </trkpt>
      <trkpt lat="42.84403" lon="0.50297">
        <ele>1647.714</ele>
        <time>2022-02-27T12:03:00Z</time>
      </trkpt>
      <trkpt lat="42.84403" lon="0.50297">
        <ele>1647.722</ele>
        <time>2022-02-27T12:03:02Z</time>
      </trkpt>
      <trkpt lat="42.84403" lon="0.50297">
        <ele>1647.729</ele>
        <time>2022-02-27T12:03:04Z</time>
      </trkpt>
      <trkpt lat="42.84403" lon="0.50297">
        <ele>1647.747</ele>
        <time>2022-02-27T12:03:06Z</time>
      </trkpt>
      <trkpt lat="42.84403" lon="0.50297">
        <ele>1647.771</ele>
        <time>2022-02-27T12:03:08Z</time>
      </trkpt>
      <trkpt lat="42.84403" lon="0.50297">
        <ele>1647.779</ele>
        <time>2022-02-27T12:03:10Z</time>
      </trkpt>
      <trkpt lat="42.84403" lon="0.50297">
        <ele>1647.789</ele>
        <time>2022-02-27T12:03:12Z</time>
      </trkpt>
      <trkpt lat="42.84403" lon="0.50297">
        <ele>1647.795</ele>
        <time>2022-02-27T12:03:14Z</time>
      </trkpt>
      <trkpt lat="42.84403" lon="0.50297">
        <ele>1647.803</ele>
        <time>2022-02-27T12:03:16Z</time>
      </trkpt>
      <trkpt lat="42.84403" lon="0.50297">
        <ele>1647.812</ele>
        <time>2022-02-27T12:03:18Z</time>
      </trkpt>
      <trkpt lat="42.84403" lon="0.50297">
        <ele>1647.835</ele>
        <time>2022-02-27T12:03:20Z</time>
      </trkpt>
      <trkpt lat="42.84403" lon="0.50297">
        <ele>1647.861</ele>
        <time>2022-02-27T12:03:22Z</time>
      </trkpt>
      <trkpt lat="42.84403" lon="0.50297">
        <ele>1647.885</ele>
        <time>2022-02-27T12:03:24Z</time>
      </trkpt>
      <trkpt lat="42.84403" lon="0.50297">
        <ele>1647.905</ele>
        <time>2022-02-27T12:03:26Z</time>
      </trkpt>
      <trkpt lat="42.84403" lon="0.50297">
        <ele>1647.929</ele>
        <time>2022-02-27T12:03:28Z</time>
      </trkpt>
      <trkpt lat="42.84403" lon="0.50297">
        <ele>1647.944</ele>
        <time>2022-02-27T12:03:30Z</time>
      </trkpt>
      <trkpt lat="42.84403" lon="0.50297">
        <ele>1647.952</ele>
        <time>2022-02-27T12:03:32Z</time>
      </trkpt>
      <trkpt lat="42.84403" lon="0.50297">
        <ele>1647.955</ele>
        <time>2022-02-27T12:03:34Z</time>
      </trkpt>
      <trkpt lat="42.84403" lon="0.50297">
        <ele>1647.96</ele>
        <time>2022-02-27T12:03:36Z</time>
      </trkpt>
      <trkpt lat="42.84403" lon="0.50297">
        <ele>1647.963</ele>
        <time>2022-02-27T12:03:38Z</time>
      </trkpt>
      <trkpt lat="42.84403" lon="0.50297">
        <ele>1647.982</ele>
        <time>2022-02-27T12:03:40Z</time>
      </trkpt>
      <trkpt lat="42.84403" lon="0.50297">
        <ele>1648</ele>
        <time>2022-02-27T12:03:42Z</time>
      </trkpt>
      <trkpt lat="42.84403" lon="0.50297">
        <ele>1648.022</ele>
        <time>2022-02-27T12:03:44Z</time>
      </trkpt>
      <trkpt lat="42.84403" lon="0.50297">
        <ele>1648.028</ele>
        <time>2022-02-27T12:03:46Z</time>
      </trkpt>
      <trkpt lat="42.84403" lon="0.50297">
        <ele>1648.037</ele>
        <time>2022-02-27T12:03:48Z</time>
      </trkpt>
      <trkpt lat="42.84403" lon="0.50297">
        <ele>1648.05</ele>
        <time>2022-02-27T12:03:50Z</time>
      </trkpt>
      <trkpt lat="42.84403" lon="0.50297">
        <ele>1648.06</ele>
        <time>2022-02-27T12:03:52Z</time>
      </trkpt>
      <trkpt lat="42.84403" lon="0.50297">
        <ele>1648.076</ele>
        <time>2022-02-27T12:03:54Z</time>
      </trkpt>
      <trkpt lat="42.84403" lon="0.50297">
        <ele>1648.086</ele>
        <time>2022-02-27T12:03:56Z</time>
      </trkpt>
      <trkpt lat="42.84403" lon="0.50297">
        <ele>1648.108</ele>
        <time>2022-02-27T12:03:58Z</time>
      </trkpt>
      <trkpt lat="42.84403" lon="0.50297">
        <ele>1648.126</ele>
        <time>2022-02-27T12:04:00Z</time>
      </trkpt>
      <trkpt lat="42.84403" lon="0.50297">
        <ele>1648.139</ele>
        <time>2022-02-27T12:04:02Z</time>
      </trkpt>
      <trkpt lat="42.84403" lon="0.50297">
        <ele>1648.164</ele>
        <time>2022-02-27T12:04:04Z</time>
      </trkpt>
      <trkpt lat="42.84403" lon="0.50297">
        <ele>1648.189</ele>
        <time>2022-02-27T12:04:06Z</time>
      </trkpt>
      <trkpt lat="42.84403" lon="0.50297">
        <ele>1648.21</ele>
        <time>2022-02-27T12:04:08Z</time>
      </trkpt>
      <trkpt lat="42.84403" lon="0.50297">
        <ele>1648.221</ele>
        <time>2022-02-27T12:04:10Z</time>
      </trkpt>
      <trkpt lat="42.84403" lon="0.50297">
        <ele>1648.238</ele>
        <time>2022-02-27T12:04:12Z</time>
      </trkpt>
      <trkpt lat="42.84403" lon="0.50297">
        <ele>1648.24</ele>
        <time>2022-02-27T12:04:14Z</time>
      </trkpt>
      <trkpt lat="42.84403" lon="0.50297">
        <ele>1648.247</ele>
        <time>2022-02-27T12:04:16Z</time>
      </trkpt>
      <trkpt lat="42.84403" lon="0.50297">
        <ele>1648.263</ele>
        <time>2022-02-27T12:04:18Z</time>
      </trkpt>
      <trkpt lat="42.84403" lon="0.50297">
        <ele>1648.283</ele>
        <time>2022-02-27T12:04:20Z</time>
      </trkpt>
      <trkpt lat="42.84403" lon="0.50297">
        <ele>1648.294</ele>
        <time>2022-02-27T12:04:22Z</time>
      </trkpt>
      <trkpt lat="42.84403" lon="0.50297">
        <ele>1648.301</ele>
        <time>2022-02-27T12:04:24Z</time>
      </trkpt>
      <trkpt lat="42.84403" lon="0.50297">
        <ele>1648.304</ele>
        <time>2022-02-27T12:04:26Z</time>
      </trkpt>
      <trkpt lat="42.84403" lon="0.50297">
        <ele>1648.315</ele>
        <time>2022-02-27T12:04:28Z</time>
      </trkpt>
      <trkpt lat="42.84403" lon="0.50297">
        <ele>1648.327</ele>
        <time>2022-02-27T12:04:30Z</time>
      </trkpt>
      <trkpt lat="42.84403" lon="0.50297">
        <ele>1648.339</ele>
        <time>2022-02-27T12:04:32Z</time>
      </trkpt>
      <trkpt lat="42.84403" lon="0.50297">
        <ele>1648.348</ele>
        <time>2022-02-27T12:04:34Z</time>
      </trkpt>
      <trkpt lat="42.84403" lon="0.50297">
        <ele>1648.346</ele>
        <time>2022-02-27T12:04:36Z</time>
      </trkpt>
      <trkpt lat="42.84403" lon="0.50297">
        <ele>1648.348</ele>
        <time>2022-02-27T12:04:38Z</time>
      </trkpt>
      <trkpt lat="42.84403" lon="0.50297">
        <ele>1648.349</ele>
        <time>2022-02-27T12:04:40Z</time>
      </trkpt>
      <trkpt lat="42.84403" lon="0.50297">
        <ele>1648.347</ele>
        <time>2022-02-27T12:04:42Z</time>
      </trkpt>
      <trkpt lat="42.84403" lon="0.50297">
        <ele>1648.355</ele>
        <time>2022-02-27T12:04:44Z</time>
      </trkpt>
      <trkpt lat="42.84403" lon="0.50297">
        <ele>1648.359</ele>
        <time>2022-02-27T12:04:46Z</time>
      </trkpt>
      <trkpt lat="42.84403" lon="0.50297">
        <ele>1648.366</ele>
        <time>2022-02-27T12:04:48Z</time>
      </trkpt>
      <trkpt lat="42.84403" lon="0.50297">
        <ele>1648.373</ele>
        <time>2022-02-27T12:04:50Z</time>
      </trkpt>
      <trkpt lat="42.84403" lon="0.50298">
        <ele>1648.389</ele>
        <time>2022-02-27T12:04:52Z</time>
      </trkpt>
      <trkpt lat="42.84403" lon="0.50298">
        <ele>1648.408</ele>
        <time>2022-02-27T12:04:54Z</time>
      </trkpt>
      <trkpt lat="42.84403" lon="0.50298">
        <ele>1648.418</ele>
        <time>2022-02-27T12:04:56Z</time>
      </trkpt>
      <trkpt lat="42.84403" lon="0.50298">
        <ele>1648.412</ele>
        <time>2022-02-27T12:04:58Z</time>
      </trkpt>
      <trkpt lat="42.84403" lon="0.50298">
        <ele>1648.402</ele>
        <time>2022-02-27T12:05:00Z</time>
      </trkpt>
      <trkpt lat="42.84403" lon="0.50297">
        <ele>1648.384</ele>
        <time>2022-02-27T12:05:02Z</time>
      </trkpt>
      <trkpt lat="42.84403" lon="0.50297">
        <ele>1648.389</ele>
        <time>2022-02-27T12:05:04Z</time>
      </trkpt>
      <trkpt lat="42.84403" lon="0.50297">
        <ele>1648.402</ele>
        <time>2022-02-27T12:05:06Z</time>
      </trkpt>
      <trkpt lat="42.84403" lon="0.50298">
        <ele>1648.421</ele>
        <time>2022-02-27T12:05:08Z</time>
      </trkpt>
      <trkpt lat="42.84403" lon="0.50298">
        <ele>1648.441</ele>
        <time>2022-02-27T12:05:10Z</time>
      </trkpt>
      <trkpt lat="42.84403" lon="0.50298">
        <ele>1648.464</ele>
        <time>2022-02-27T12:05:12Z</time>
      </trkpt>
      <trkpt lat="42.84403" lon="0.50298">
        <ele>1648.491</ele>
        <time>2022-02-27T12:05:14Z</time>
      </trkpt>
      <trkpt lat="42.84403" lon="0.50298">
        <ele>1648.503</ele>
        <time>2022-02-27T12:05:16Z</time>
      </trkpt>
      <trkpt lat="42.84403" lon="0.50298">
        <ele>1648.52</ele>
        <time>2022-02-27T12:05:18Z</time>
      </trkpt>
      <trkpt lat="42.84403" lon="0.50298">
        <ele>1648.54</ele>
        <time>2022-02-27T12:05:20Z</time>
      </trkpt>
      <trkpt lat="42.84403" lon="0.50298">
        <ele>1648.555</ele>
        <time>2022-02-27T12:05:22Z</time>
      </trkpt>
      <trkpt lat="42.84403" lon="0.50298">
        <ele>1648.569</ele>
        <time>2022-02-27T12:05:24Z</time>
      </trkpt>
      <trkpt lat="42.84403" lon="0.50298">
        <ele>1648.58</ele>
        <time>2022-02-27T12:05:26Z</time>
      </trkpt>
      <trkpt lat="42.84403" lon="0.50298">
        <ele>1648.601</ele>
        <time>2022-02-27T12:05:28Z</time>
      </trkpt>
      <trkpt lat="42.84403" lon="0.50298">
        <ele>1648.611</ele>
        <time>2022-02-27T12:05:30Z</time>
      </trkpt>
      <trkpt lat="42.84403" lon="0.50298">
        <ele>1648.624</ele>
        <time>2022-02-27T12:05:32Z</time>
      </trkpt>
      <trkpt lat="42.84403" lon="0.50298">
        <ele>1648.636</ele>
        <time>2022-02-27T12:05:34Z</time>
      </trkpt>
      <trkpt lat="42.84403" lon="0.50298">
        <ele>1648.633</ele>
        <time>2022-02-27T12:05:36Z</time>
      </trkpt>
      <trkpt lat="42.84403" lon="0.50298">
        <ele>1648.634</ele>
        <time>2022-02-27T12:05:38Z</time>
      </trkpt>
      <trkpt lat="42.84403" lon="0.50298">
        <ele>1648.634</ele>
        <time>2022-02-27T12:05:40Z</time>
      </trkpt>
      <trkpt lat="42.84403" lon="0.50298">
        <ele>1648.642</ele>
        <time>2022-02-27T12:05:42Z</time>
      </trkpt>
      <trkpt lat="42.84403" lon="0.50298">
        <ele>1648.658</ele>
        <time>2022-02-27T12:05:44Z</time>
      </trkpt>
      <trkpt lat="42.84403" lon="0.50298">
        <ele>1648.682</ele>
        <time>2022-02-27T12:05:46Z</time>
      </trkpt>
      <trkpt lat="42.84403" lon="0.50298">
        <ele>1648.715</ele>
        <time>2022-02-27T12:05:48Z</time>
      </trkpt>
      <trkpt lat="42.84403" lon="0.50298">
        <ele>1648.735</ele>
        <time>2022-02-27T12:05:50Z</time>
      </trkpt>
      <trkpt lat="42.84403" lon="0.50298">
        <ele>1648.748</ele>
        <time>2022-02-27T12:05:52Z</time>
      </trkpt>
      <trkpt lat="42.84403" lon="0.50298">
        <ele>1648.758</ele>
        <time>2022-02-27T12:05:54Z</time>
      </trkpt>
      <trkpt lat="42.84403" lon="0.50298">
        <ele>1648.771</ele>
        <time>2022-02-27T12:05:56Z</time>
      </trkpt>
      <trkpt lat="42.84403" lon="0.50298">
        <ele>1648.766</ele>
        <time>2022-02-27T12:05:58Z</time>
      </trkpt>
      <trkpt lat="42.84403" lon="0.50298">
        <ele>1648.769</ele>
        <time>2022-02-27T12:06:00Z</time>
      </trkpt>
      <trkpt lat="42.84403" lon="0.50298">
        <ele>1648.784</ele>
        <time>2022-02-27T12:06:02Z</time>
      </trkpt>
      <trkpt lat="42.84403" lon="0.50298">
        <ele>1648.802</ele>
        <time>2022-02-27T12:06:04Z</time>
      </trkpt>
      <trkpt lat="42.84403" lon="0.50298">
        <ele>1648.825</ele>
        <time>2022-02-27T12:06:06Z</time>
      </trkpt>
      <trkpt lat="42.84403" lon="0.50298">
        <ele>1648.845</ele>
        <time>2022-02-27T12:06:08Z</time>
      </trkpt>
      <trkpt lat="42.84403" lon="0.50298">
        <ele>1648.853</ele>
        <time>2022-02-27T12:06:10Z</time>
      </trkpt>
      <trkpt lat="42.84403" lon="0.50298">
        <ele>1648.857</ele>
        <time>2022-02-27T12:06:12Z</time>
      </trkpt>
      <trkpt lat="42.84403" lon="0.50298">
        <ele>1648.859</ele>
        <time>2022-02-27T12:06:14Z</time>
      </trkpt>
      <trkpt lat="42.84403" lon="0.50298">
        <ele>1648.862</ele>
        <time>2022-02-27T12:06:16Z</time>
      </trkpt>
      <trkpt lat="42.84403" lon="0.50298">
        <ele>1648.867</ele>
        <time>2022-02-27T12:06:18Z</time>
      </trkpt>
      <trkpt lat="42.84403" lon="0.50298">
        <ele>1648.881</ele>
        <time>2022-02-27T12:06:20Z</time>
      </trkpt>
      <trkpt lat="42.84403" lon="0.50298">
        <ele>1648.893</ele>
        <time>2022-02-27T12:06:22Z</time>
      </trkpt>
      <trkpt lat="42.84403" lon="0.50298">
        <ele>1648.913</ele>
        <time>2022-02-27T12:06:24Z</time>
      </trkpt>
      <trkpt lat="42.84403" lon="0.50298">
        <ele>1648.92</ele>
        <time>2022-02-27T12:06:26Z</time>
      </trkpt>
      <trkpt lat="42.84403" lon="0.50298">
        <ele>1648.932</ele>
        <time>2022-02-27T12:06:28Z</time>
      </trkpt>
      <trkpt lat="42.84403" lon="0.50298">
        <ele>1648.937</ele>
        <time>2022-02-27T12:06:30Z</time>
      </trkpt>
      <trkpt lat="42.84403" lon="0.50298">
        <ele>1648.94</ele>
        <time>2022-02-27T12:06:32Z</time>
      </trkpt>
      <trkpt lat="42.84403" lon="0.50298">
        <ele>1648.947</ele>
        <time>2022-02-27T12:06:34Z</time>
      </trkpt>
      <trkpt lat="42.84403" lon="0.50298">
        <ele>1648.956</ele>
        <time>2022-02-27T12:06:36Z</time>
      </trkpt>
      <trkpt lat="42.84403" lon="0.50298">
        <ele>1648.964</ele>
        <time>2022-02-27T12:06:38Z</time>
      </trkpt>
      <trkpt lat="42.84403" lon="0.50298">
        <ele>1648.969</ele>
        <time>2022-02-27T12:06:40Z</time>
      </trkpt>
      <trkpt lat="42.84403" lon="0.50298">
        <ele>1648.974</ele>
        <time>2022-02-27T12:06:42Z</time>
      </trkpt>
      <trkpt lat="42.84403" lon="0.50298">
        <ele>1648.983</ele>
        <time>2022-02-27T12:06:44Z</time>
      </trkpt>
      <trkpt lat="42.84403" lon="0.50298">
        <ele>1648.996</ele>
        <time>2022-02-27T12:06:46Z</time>
      </trkpt>
      <trkpt lat="42.84403" lon="0.50298">
        <ele>1649.005</ele>
        <time>2022-02-27T12:06:48Z</time>
      </trkpt>
      <trkpt lat="42.84403" lon="0.50298">
        <ele>1648.998</ele>
        <time>2022-02-27T12:06:50Z</time>
      </trkpt>
      <trkpt lat="42.84403" lon="0.50298">
        <ele>1649.005</ele>
        <time>2022-02-27T12:06:52Z</time>
      </trkpt>
      <trkpt lat="42.84403" lon="0.50298">
        <ele>1649.026</ele>
        <time>2022-02-27T12:06:54Z</time>
      </trkpt>
      <trkpt lat="42.84403" lon="0.50298">
        <ele>1649.042</ele>
        <time>2022-02-27T12:06:56Z</time>
      </trkpt>
      <trkpt lat="42.84403" lon="0.50298">
        <ele>1649.064</ele>
        <time>2022-02-27T12:06:58Z</time>
      </trkpt>
      <trkpt lat="42.84403" lon="0.50298">
        <ele>1649.081</ele>
        <time>2022-02-27T12:07:00Z</time>
      </trkpt>
      <trkpt lat="42.84403" lon="0.50298">
        <ele>1649.092</ele>
        <time>2022-02-27T12:07:02Z</time>
      </trkpt>
      <trkpt lat="42.84403" lon="0.50298">
        <ele>1649.092</ele>
        <time>2022-02-27T12:07:04Z</time>
      </trkpt>
      <trkpt lat="42.84403" lon="0.50298">
        <ele>1649.095</ele>
        <time>2022-02-27T12:07:06Z</time>
      </trkpt>
      <trkpt lat="42.84403" lon="0.50298">
        <ele>1649.092</ele>
        <time>2022-02-27T12:07:08Z</time>
      </trkpt>
      <trkpt lat="42.84403" lon="0.50298">
        <ele>1649.356</ele>
        <time>2022-02-27T12:07:10Z</time>
      </trkpt>
      <trkpt lat="42.84403" lon="0.50298">
        <ele>1649.346</ele>
        <time>2022-02-27T12:07:12Z</time>
      </trkpt>
      <trkpt lat="42.84403" lon="0.50298">
        <ele>1649.346</ele>
        <time>2022-02-27T12:07:14Z</time>
      </trkpt>
      <trkpt lat="42.84403" lon="0.50298">
        <ele>1649.346</ele>
        <time>2022-02-27T12:07:16Z</time>
      </trkpt>
      <trkpt lat="42.84403" lon="0.50298">
        <ele>1649.347</ele>
        <time>2022-02-27T12:07:18Z</time>
      </trkpt>
      <trkpt lat="42.84403" lon="0.50298">
        <ele>1649.35</ele>
        <time>2022-02-27T12:07:20Z</time>
      </trkpt>
      <trkpt lat="42.84403" lon="0.50298">
        <ele>1649.356</ele>
        <time>2022-02-27T12:07:22Z</time>
      </trkpt>
      <trkpt lat="42.84403" lon="0.50298">
        <ele>1649.357</ele>
        <time>2022-02-27T12:07:24Z</time>
      </trkpt>
      <trkpt lat="42.84403" lon="0.50298">
        <ele>1649.359</ele>
        <time>2022-02-27T12:07:26Z</time>
      </trkpt>
      <trkpt lat="42.84403" lon="0.50298">
        <ele>1649.366</ele>
        <time>2022-02-27T12:07:28Z</time>
      </trkpt>
      <trkpt lat="42.84403" lon="0.50298">
        <ele>1649.371</ele>
        <time>2022-02-27T12:07:30Z</time>
      </trkpt>
      <trkpt lat="42.84403" lon="0.50298">
        <ele>1649.378</ele>
        <time>2022-02-27T12:07:32Z</time>
      </trkpt>
      <trkpt lat="42.84403" lon="0.50298">
        <ele>1649.385</ele>
        <time>2022-02-27T12:07:34Z</time>
      </trkpt>
      <trkpt lat="42.84403" lon="0.50298">
        <ele>1649.393</ele>
        <time>2022-02-27T12:07:36Z</time>
      </trkpt>
      <trkpt lat="42.84403" lon="0.50298">
        <ele>1649.404</ele>
        <time>2022-02-27T12:07:38Z</time>
      </trkpt>
      <trkpt lat="42.84403" lon="0.50298">
        <ele>1649.408</ele>
        <time>2022-02-27T12:07:40Z</time>
      </trkpt>
      <trkpt lat="42.84403" lon="0.50298">
        <ele>1649.422</ele>
        <time>2022-02-27T12:07:42Z</time>
      </trkpt>
      <trkpt lat="42.84403" lon="0.50298">
        <ele>1649.428</ele>
        <time>2022-02-27T12:07:44Z</time>
      </trkpt>
      <trkpt lat="42.84403" lon="0.50298">
        <ele>1649.432</ele>
        <time>2022-02-27T12:07:46Z</time>
      </trkpt>
      <trkpt lat="42.84403" lon="0.50298">
        <ele>1649.438</ele>
        <time>2022-02-27T12:07:48Z</time>
      </trkpt>
      <trkpt lat="42.84403" lon="0.50298">
        <ele>1649.439</ele>
        <time>2022-02-27T12:07:50Z</time>
      </trkpt>
      <trkpt lat="42.84403" lon="0.50298">
        <ele>1649.449</ele>
        <time>2022-02-27T12:07:52Z</time>
      </trkpt>
      <trkpt lat="42.84403" lon="0.50298">
        <ele>1649.451</ele>
        <time>2022-02-27T12:07:54Z</time>
      </trkpt>
      <trkpt lat="42.84403" lon="0.50298">
        <ele>1649.458</ele>
        <time>2022-02-27T12:07:56Z</time>
      </trkpt>
      <trkpt lat="42.84403" lon="0.50298">
        <ele>1649.472</ele>
        <time>2022-02-27T12:07:58Z</time>
      </trkpt>
      <trkpt lat="42.84403" lon="0.50298">
        <ele>1649.483</ele>
        <time>2022-02-27T12:08:00Z</time>
      </trkpt>
      <trkpt lat="42.84403" lon="0.50298">
        <ele>1649.491</ele>
        <time>2022-02-27T12:08:02Z</time>
      </trkpt>
      <trkpt lat="42.84403" lon="0.50298">
        <ele>1649.505</ele>
        <time>2022-02-27T12:08:04Z</time>
      </trkpt>
      <trkpt lat="42.84403" lon="0.50298">
        <ele>1649.516</ele>
        <time>2022-02-27T12:08:06Z</time>
      </trkpt>
      <trkpt lat="42.84404" lon="0.50298">
        <ele>1649.533</ele>
        <time>2022-02-27T12:08:08Z</time>
      </trkpt>
      <trkpt lat="42.84404" lon="0.50298">
        <ele>1649.546</ele>
        <time>2022-02-27T12:08:10Z</time>
      </trkpt>
      <trkpt lat="42.84404" lon="0.50298">
        <ele>1649.551</ele>
        <time>2022-02-27T12:08:12Z</time>
      </trkpt>
      <trkpt lat="42.84404" lon="0.50298">
        <ele>1649.55</ele>
        <time>2022-02-27T12:08:14Z</time>
      </trkpt>
      <trkpt lat="42.84404" lon="0.50298">
        <ele>1649.549</ele>
        <time>2022-02-27T12:08:16Z</time>
      </trkpt>
      <trkpt lat="42.84404" lon="0.50298">
        <ele>1649.549</ele>
        <time>2022-02-27T12:08:18Z</time>
      </trkpt>
      <trkpt lat="42.84404" lon="0.50298">
        <ele>1649.548</ele>
        <time>2022-02-27T12:08:20Z</time>
      </trkpt>
      <trkpt lat="42.84404" lon="0.50298">
        <ele>1649.547</ele>
        <time>2022-02-27T12:08:22Z</time>
      </trkpt>
      <trkpt lat="42.84404" lon="0.50298">
        <ele>1649.548</ele>
        <time>2022-02-27T12:08:24Z</time>
      </trkpt>
      <trkpt lat="42.84404" lon="0.50298">
        <ele>1649.548</ele>
        <time>2022-02-27T12:08:26Z</time>
      </trkpt>
      <trkpt lat="42.84404" lon="0.50298">
        <ele>1649.548</ele>
        <time>2022-02-27T12:08:28Z</time>
      </trkpt>
      <trkpt lat="42.84404" lon="0.50298">
        <ele>1649.556</ele>
        <time>2022-02-27T12:08:30Z</time>
      </trkpt>
      <trkpt lat="42.84404" lon="0.50298">
        <ele>1649.565</ele>
        <time>2022-02-27T12:08:32Z</time>
      </trkpt>
      <trkpt lat="42.84404" lon="0.50298">
        <ele>1649.581</ele>
        <time>2022-02-27T12:08:34Z</time>
      </trkpt>
      <trkpt lat="42.84404" lon="0.50298">
        <ele>1649.578</ele>
        <time>2022-02-27T12:08:36Z</time>
      </trkpt>
      <trkpt lat="42.84403" lon="0.50298">
        <ele>1649.586</ele>
        <time>2022-02-27T12:08:38Z</time>
      </trkpt>
      <trkpt lat="42.84403" lon="0.50298">
        <ele>1649.593</ele>
        <time>2022-02-27T12:08:40Z</time>
      </trkpt>
      <trkpt lat="42.84404" lon="0.50298">
        <ele>1649.796</ele>
        <time>2022-02-27T12:08:42Z</time>
      </trkpt>
      <trkpt lat="42.84404" lon="0.50298">
        <ele>1649.801</ele>
        <time>2022-02-27T12:08:44Z</time>
      </trkpt>
      <trkpt lat="42.84404" lon="0.50298">
        <ele>1649.804</ele>
        <time>2022-02-27T12:08:46Z</time>
      </trkpt>
      <trkpt lat="42.84404" lon="0.50298">
        <ele>1649.812</ele>
        <time>2022-02-27T12:08:48Z</time>
      </trkpt>
      <trkpt lat="42.84404" lon="0.50298">
        <ele>1649.823</ele>
        <time>2022-02-27T12:08:50Z</time>
      </trkpt>
      <trkpt lat="42.84404" lon="0.50298">
        <ele>1649.828</ele>
        <time>2022-02-27T12:08:52Z</time>
      </trkpt>
      <trkpt lat="42.84404" lon="0.50298">
        <ele>1649.833</ele>
        <time>2022-02-27T12:08:54Z</time>
      </trkpt>
      <trkpt lat="42.84404" lon="0.50298">
        <ele>1649.837</ele>
        <time>2022-02-27T12:08:56Z</time>
      </trkpt>
      <trkpt lat="42.84404" lon="0.50298">
        <ele>1649.838</ele>
        <time>2022-02-27T12:08:58Z</time>
      </trkpt>
      <trkpt lat="42.84404" lon="0.50298">
        <ele>1649.842</ele>
        <time>2022-02-27T12:09:00Z</time>
      </trkpt>
      <trkpt lat="42.84404" lon="0.50298">
        <ele>1649.844</ele>
        <time>2022-02-27T12:09:02Z</time>
      </trkpt>
      <trkpt lat="42.84404" lon="0.50298">
        <ele>1649.844</ele>
        <time>2022-02-27T12:09:04Z</time>
      </trkpt>
      <trkpt lat="42.84404" lon="0.50298">
        <ele>1649.848</ele>
        <time>2022-02-27T12:09:06Z</time>
      </trkpt>
      <trkpt lat="42.84404" lon="0.50298">
        <ele>1649.86</ele>
        <time>2022-02-27T12:09:08Z</time>
      </trkpt>
      <trkpt lat="42.84404" lon="0.50298">
        <ele>1649.863</ele>
        <time>2022-02-27T12:09:10Z</time>
      </trkpt>
      <trkpt lat="42.84404" lon="0.50298">
        <ele>1649.873</ele>
        <time>2022-02-27T12:09:12Z</time>
      </trkpt>
      <trkpt lat="42.84404" lon="0.50298">
        <ele>1649.884</ele>
        <time>2022-02-27T12:09:14Z</time>
      </trkpt>
      <trkpt lat="42.84404" lon="0.50298">
        <ele>1649.897</ele>
        <time>2022-02-27T12:09:16Z</time>
      </trkpt>
      <trkpt lat="42.84404" lon="0.50298">
        <ele>1649.904</ele>
        <time>2022-02-27T12:09:18Z</time>
      </trkpt>
      <trkpt lat="42.84404" lon="0.50298">
        <ele>1649.906</ele>
        <time>2022-02-27T12:09:20Z</time>
      </trkpt>
      <trkpt lat="42.84404" lon="0.50298">
        <ele>1649.9</ele>
        <time>2022-02-27T12:09:22Z</time>
      </trkpt>
      <trkpt lat="42.84404" lon="0.50298">
        <ele>1649.905</ele>
        <time>2022-02-27T12:09:24Z</time>
      </trkpt>
      <trkpt lat="42.84404" lon="0.50298">
        <ele>1649.908</ele>
        <time>2022-02-27T12:09:26Z</time>
      </trkpt>
      <trkpt lat="42.84404" lon="0.50298">
        <ele>1649.906</ele>
        <time>2022-02-27T12:09:28Z</time>
      </trkpt>
      <trkpt lat="42.84404" lon="0.50298">
        <ele>1649.908</ele>
        <time>2022-02-27T12:09:30Z</time>
      </trkpt>
      <trkpt lat="42.84404" lon="0.50298">
        <ele>1649.906</ele>
        <time>2022-02-27T12:09:32Z</time>
      </trkpt>
      <trkpt lat="42.84404" lon="0.50298">
        <ele>1649.905</ele>
        <time>2022-02-27T12:09:34Z</time>
      </trkpt>
      <trkpt lat="42.84404" lon="0.50298">
        <ele>1649.91</ele>
        <time>2022-02-27T12:09:36Z</time>
      </trkpt>
      <trkpt lat="42.84404" lon="0.50298">
        <ele>1649.916</ele>
        <time>2022-02-27T12:09:38Z</time>
      </trkpt>
      <trkpt lat="42.84404" lon="0.50298">
        <ele>1649.922</ele>
        <time>2022-02-27T12:09:40Z</time>
      </trkpt>
      <trkpt lat="42.84404" lon="0.50298">
        <ele>1649.923</ele>
        <time>2022-02-27T12:09:42Z</time>
      </trkpt>
      <trkpt lat="42.84404" lon="0.50298">
        <ele>1649.923</ele>
        <time>2022-02-27T12:09:44Z</time>
      </trkpt>
      <trkpt lat="42.84404" lon="0.50298">
        <ele>1649.925</ele>
        <time>2022-02-27T12:09:46Z</time>
      </trkpt>
      <trkpt lat="42.84404" lon="0.50298">
        <ele>1649.919</ele>
        <time>2022-02-27T12:09:48Z</time>
      </trkpt>
      <trkpt lat="42.84404" lon="0.50298">
        <ele>1649.926</ele>
        <time>2022-02-27T12:09:50Z</time>
      </trkpt>
      <trkpt lat="42.84404" lon="0.50298">
        <ele>1649.929</ele>
        <time>2022-02-27T12:09:52Z</time>
      </trkpt>
      <trkpt lat="42.84404" lon="0.50298">
        <ele>1649.939</ele>
        <time>2022-02-27T12:09:54Z</time>
      </trkpt>
      <trkpt lat="42.84404" lon="0.50298">
        <ele>1649.945</ele>
        <time>2022-02-27T12:09:56Z</time>
      </trkpt>
      <trkpt lat="42.84404" lon="0.50298">
        <ele>1649.958</ele>
        <time>2022-02-27T12:09:58Z</time>
      </trkpt>
      <trkpt lat="42.84404" lon="0.50298">
        <ele>1649.973</ele>
        <time>2022-02-27T12:10:00Z</time>
      </trkpt>
      <trkpt lat="42.84404" lon="0.50298">
        <ele>1649.992</ele>
        <time>2022-02-27T12:10:02Z</time>
      </trkpt>
      <trkpt lat="42.84404" lon="0.50298">
        <ele>1650.004</ele>
        <time>2022-02-27T12:10:04Z</time>
      </trkpt>
      <trkpt lat="42.84404" lon="0.50298">
        <ele>1650.015</ele>
        <time>2022-02-27T12:10:06Z</time>
      </trkpt>
      <trkpt lat="42.84404" lon="0.50299">
        <ele>1650.022</ele>
        <time>2022-02-27T12:10:08Z</time>
      </trkpt>
      <trkpt lat="42.84404" lon="0.50299">
        <ele>1650.021</ele>
        <time>2022-02-27T12:10:10Z</time>
      </trkpt>
      <trkpt lat="42.84404" lon="0.50299">
        <ele>1650.027</ele>
        <time>2022-02-27T12:10:12Z</time>
      </trkpt>
      <trkpt lat="42.84404" lon="0.50299">
        <ele>1650.029</ele>
        <time>2022-02-27T12:10:14Z</time>
      </trkpt>
      <trkpt lat="42.84404" lon="0.50299">
        <ele>1650.038</ele>
        <time>2022-02-27T12:10:16Z</time>
      </trkpt>
      <trkpt lat="42.84404" lon="0.50299">
        <ele>1650.044</ele>
        <time>2022-02-27T12:10:18Z</time>
      </trkpt>
      <trkpt lat="42.84404" lon="0.50299">
        <ele>1650.045</ele>
        <time>2022-02-27T12:10:20Z</time>
      </trkpt>
      <trkpt lat="42.84404" lon="0.50299">
        <ele>1650.043</ele>
        <time>2022-02-27T12:10:22Z</time>
      </trkpt>
      <trkpt lat="42.84404" lon="0.50299">
        <ele>1650.049</ele>
        <time>2022-02-27T12:10:24Z</time>
      </trkpt>
      <trkpt lat="42.84404" lon="0.50299">
        <ele>1650.054</ele>
        <time>2022-02-27T12:10:26Z</time>
      </trkpt>
      <trkpt lat="42.84404" lon="0.50299">
        <ele>1650.057</ele>
        <time>2022-02-27T12:10:28Z</time>
      </trkpt>
      <trkpt lat="42.84404" lon="0.50299">
        <ele>1650.061</ele>
        <time>2022-02-27T12:10:30Z</time>
      </trkpt>
      <trkpt lat="42.84404" lon="0.50299">
        <ele>1650.067</ele>
        <time>2022-02-27T12:10:32Z</time>
      </trkpt>
      <trkpt lat="42.84404" lon="0.50299">
        <ele>1650.078</ele>
        <time>2022-02-27T12:10:34Z</time>
      </trkpt>
      <trkpt lat="42.84404" lon="0.50299">
        <ele>1650.088</ele>
        <time>2022-02-27T12:10:36Z</time>
      </trkpt>
      <trkpt lat="42.84404" lon="0.50299">
        <ele>1650.094</ele>
        <time>2022-02-27T12:10:38Z</time>
      </trkpt>
      <trkpt lat="42.84404" lon="0.50299">
        <ele>1650.1</ele>
        <time>2022-02-27T12:10:40Z</time>
      </trkpt>
      <trkpt lat="42.84404" lon="0.50299">
        <ele>1650.1</ele>
        <time>2022-02-27T12:10:42Z</time>
      </trkpt>
      <trkpt lat="42.84404" lon="0.50299">
        <ele>1650.104</ele>
        <time>2022-02-27T12:10:44Z</time>
      </trkpt>
      <trkpt lat="42.84404" lon="0.50299">
        <ele>1650.105</ele>
        <time>2022-02-27T12:10:46Z</time>
      </trkpt>
      <trkpt lat="42.84404" lon="0.50299">
        <ele>1650.103</ele>
        <time>2022-02-27T12:10:48Z</time>
      </trkpt>
      <trkpt lat="42.84404" lon="0.50299">
        <ele>1650.103</ele>
        <time>2022-02-27T12:10:50Z</time>
      </trkpt>
      <trkpt lat="42.84404" lon="0.50299">
        <ele>1650.11</ele>
        <time>2022-02-27T12:10:52Z</time>
      </trkpt>
      <trkpt lat="42.84404" lon="0.50299">
        <ele>1650.118</ele>
        <time>2022-02-27T12:10:54Z</time>
      </trkpt>
      <trkpt lat="42.84404" lon="0.50299">
        <ele>1650.128</ele>
        <time>2022-02-27T12:10:56Z</time>
      </trkpt>
      <trkpt lat="42.84404" lon="0.50299">
        <ele>1650.139</ele>
        <time>2022-02-27T12:10:58Z</time>
      </trkpt>
      <trkpt lat="42.84404" lon="0.50299">
        <ele>1650.148</ele>
        <time>2022-02-27T12:11:00Z</time>
      </trkpt>
      <trkpt lat="42.84404" lon="0.50299">
        <ele>1650.154</ele>
        <time>2022-02-27T12:11:02Z</time>
      </trkpt>
      <trkpt lat="42.84404" lon="0.50299">
        <ele>1650.154</ele>
        <time>2022-02-27T12:11:04Z</time>
      </trkpt>
      <trkpt lat="42.84404" lon="0.50299">
        <ele>1650.162</ele>
        <time>2022-02-27T12:11:06Z</time>
      </trkpt>
      <trkpt lat="42.84404" lon="0.50299">
        <ele>1650.165</ele>
        <time>2022-02-27T12:11:08Z</time>
      </trkpt>
      <trkpt lat="42.84404" lon="0.50299">
        <ele>1650.17</ele>
        <time>2022-02-27T12:11:10Z</time>
      </trkpt>
      <trkpt lat="42.84404" lon="0.50299">
        <ele>1650.176</ele>
        <time>2022-02-27T12:11:12Z</time>
      </trkpt>
      <trkpt lat="42.84404" lon="0.50299">
        <ele>1650.172</ele>
        <time>2022-02-27T12:11:14Z</time>
      </trkpt>
      <trkpt lat="42.84404" lon="0.50299">
        <ele>1650.173</ele>
        <time>2022-02-27T12:11:16Z</time>
      </trkpt>
      <trkpt lat="42.84404" lon="0.50299">
        <ele>1650.177</ele>
        <time>2022-02-27T12:11:18Z</time>
      </trkpt>
      <trkpt lat="42.84404" lon="0.50299">
        <ele>1650.18</ele>
        <time>2022-02-27T12:11:20Z</time>
      </trkpt>
      <trkpt lat="42.84404" lon="0.50299">
        <ele>1650.183</ele>
        <time>2022-02-27T12:11:22Z</time>
      </trkpt>
      <trkpt lat="42.84404" lon="0.50299">
        <ele>1650.188</ele>
        <time>2022-02-27T12:11:24Z</time>
      </trkpt>
      <trkpt lat="42.84404" lon="0.50299">
        <ele>1650.195</ele>
        <time>2022-02-27T12:11:26Z</time>
      </trkpt>
      <trkpt lat="42.84404" lon="0.50299">
        <ele>1650.2</ele>
        <time>2022-02-27T12:11:28Z</time>
      </trkpt>
      <trkpt lat="42.84404" lon="0.50299">
        <ele>1650.208</ele>
        <time>2022-02-27T12:11:30Z</time>
      </trkpt>
      <trkpt lat="42.84404" lon="0.50299">
        <ele>1650.223</ele>
        <time>2022-02-27T12:11:32Z</time>
      </trkpt>
      <trkpt lat="42.84404" lon="0.50299">
        <ele>1650.224</ele>
        <time>2022-02-27T12:11:34Z</time>
      </trkpt>
      <trkpt lat="42.84404" lon="0.50299">
        <ele>1650.232</ele>
        <time>2022-02-27T12:11:36Z</time>
      </trkpt>
      <trkpt lat="42.84404" lon="0.50299">
        <ele>1650.234</ele>
        <time>2022-02-27T12:11:38Z</time>
      </trkpt>
      <trkpt lat="42.84404" lon="0.50299">
        <ele>1650.236</ele>
        <time>2022-02-27T12:11:40Z</time>
      </trkpt>
      <trkpt lat="42.84404" lon="0.50299">
        <ele>1650.237</ele>
        <time>2022-02-27T12:11:42Z</time>
      </trkpt>
      <trkpt lat="42.84404" lon="0.50299">
        <ele>1650.242</ele>
        <time>2022-02-27T12:11:44Z</time>
      </trkpt>
      <trkpt lat="42.84404" lon="0.50299">
        <ele>1650.246</ele>
        <time>2022-02-27T12:11:46Z</time>
      </trkpt>
      <trkpt lat="42.84404" lon="0.50299">
        <ele>1650.245</ele>
        <time>2022-02-27T12:11:48Z</time>
      </trkpt>
      <trkpt lat="42.84404" lon="0.50299">
        <ele>1650.247</ele>
        <time>2022-02-27T12:11:50Z</time>
      </trkpt>
      <trkpt lat="42.84404" lon="0.50299">
        <ele>1650.25</ele>
        <time>2022-02-27T12:11:52Z</time>
      </trkpt>
      <trkpt lat="42.84404" lon="0.50299">
        <ele>1650.252</ele>
        <time>2022-02-27T12:11:54Z</time>
      </trkpt>
      <trkpt lat="42.84404" lon="0.50299">
        <ele>1650.255</ele>
        <time>2022-02-27T12:11:56Z</time>
      </trkpt>
      <trkpt lat="42.84404" lon="0.50299">
        <ele>1650.262</ele>
        <time>2022-02-27T12:11:58Z</time>
      </trkpt>
      <trkpt lat="42.84404" lon="0.50299">
        <ele>1650.27</ele>
        <time>2022-02-27T12:12:00Z</time>
      </trkpt>
      <trkpt lat="42.84404" lon="0.50299">
        <ele>1650.279</ele>
        <time>2022-02-27T12:12:02Z</time>
      </trkpt>
      <trkpt lat="42.84404" lon="0.50299">
        <ele>1650.29</ele>
        <time>2022-02-27T12:12:04Z</time>
      </trkpt>
      <trkpt lat="42.84404" lon="0.50299">
        <ele>1650.299</ele>
        <time>2022-02-27T12:12:06Z</time>
      </trkpt>
      <trkpt lat="42.84404" lon="0.50299">
        <ele>1650.305</ele>
        <time>2022-02-27T12:12:08Z</time>
      </trkpt>
      <trkpt lat="42.84404" lon="0.50299">
        <ele>1650.308</ele>
        <time>2022-02-27T12:12:10Z</time>
      </trkpt>
      <trkpt lat="42.84404" lon="0.50299">
        <ele>1650.314</ele>
        <time>2022-02-27T12:12:12Z</time>
      </trkpt>
      <trkpt lat="42.84404" lon="0.50299">
        <ele>1650.322</ele>
        <time>2022-02-27T12:12:14Z</time>
      </trkpt>
      <trkpt lat="42.84404" lon="0.50299">
        <ele>1650.331</ele>
        <time>2022-02-27T12:12:16Z</time>
      </trkpt>
      <trkpt lat="42.84404" lon="0.50299">
        <ele>1650.339</ele>
        <time>2022-02-27T12:12:18Z</time>
      </trkpt>
      <trkpt lat="42.84404" lon="0.50299">
        <ele>1650.344</ele>
        <time>2022-02-27T12:12:20Z</time>
      </trkpt>
      <trkpt lat="42.84404" lon="0.50299">
        <ele>1650.35</ele>
        <time>2022-02-27T12:12:22Z</time>
      </trkpt>
      <trkpt lat="42.84404" lon="0.50299">
        <ele>1650.354</ele>
        <time>2022-02-27T12:12:24Z</time>
      </trkpt>
      <trkpt lat="42.84404" lon="0.50299">
        <ele>1650.357</ele>
        <time>2022-02-27T12:12:26Z</time>
      </trkpt>
      <trkpt lat="42.84404" lon="0.50299">
        <ele>1650.36</ele>
        <time>2022-02-27T12:12:28Z</time>
      </trkpt>
      <trkpt lat="42.84404" lon="0.50299">
        <ele>1650.368</ele>
        <time>2022-02-27T12:12:30Z</time>
      </trkpt>
      <trkpt lat="42.84404" lon="0.50299">
        <ele>1650.363</ele>
        <time>2022-02-27T12:12:32Z</time>
      </trkpt>
      <trkpt lat="42.84404" lon="0.50299">
        <ele>1650.364</ele>
        <time>2022-02-27T12:12:34Z</time>
      </trkpt>
      <trkpt lat="42.84404" lon="0.50299">
        <ele>1650.357</ele>
        <time>2022-02-27T12:12:36Z</time>
      </trkpt>
      <trkpt lat="42.84404" lon="0.50299">
        <ele>1650.361</ele>
        <time>2022-02-27T12:12:38Z</time>
      </trkpt>
      <trkpt lat="42.84404" lon="0.50299">
        <ele>1650.362</ele>
        <time>2022-02-27T12:12:40Z</time>
      </trkpt>
      <trkpt lat="42.84404" lon="0.50299">
        <ele>1650.364</ele>
        <time>2022-02-27T12:12:42Z</time>
      </trkpt>
      <trkpt lat="42.84404" lon="0.50299">
        <ele>1650.361</ele>
        <time>2022-02-27T12:12:44Z</time>
      </trkpt>
      <trkpt lat="42.84404" lon="0.50299">
        <ele>1650.368</ele>
        <time>2022-02-27T12:12:46Z</time>
      </trkpt>
      <trkpt lat="42.84404" lon="0.50299">
        <ele>1650.383</ele>
        <time>2022-02-27T12:12:48Z</time>
      </trkpt>
      <trkpt lat="42.84404" lon="0.50299">
        <ele>1650.399</ele>
        <time>2022-02-27T12:12:50Z</time>
      </trkpt>
      <trkpt lat="42.84404" lon="0.50299">
        <ele>1650.419</ele>
        <time>2022-02-27T12:12:52Z</time>
      </trkpt>
      <trkpt lat="42.84404" lon="0.50299">
        <ele>1650.428</ele>
        <time>2022-02-27T12:12:54Z</time>
      </trkpt>
      <trkpt lat="42.84404" lon="0.50299">
        <ele>1650.439</ele>
        <time>2022-02-27T12:12:56Z</time>
      </trkpt>
      <trkpt lat="42.84404" lon="0.50299">
        <ele>1650.454</ele>
        <time>2022-02-27T12:12:58Z</time>
      </trkpt>
      <trkpt lat="42.84404" lon="0.50299">
        <ele>1650.465</ele>
        <time>2022-02-27T12:13:00Z</time>
      </trkpt>
      <trkpt lat="42.84404" lon="0.50299">
        <ele>1650.472</ele>
        <time>2022-02-27T12:13:02Z</time>
      </trkpt>
      <trkpt lat="42.84404" lon="0.50299">
        <ele>1650.465</ele>
        <time>2022-02-27T12:13:04Z</time>
      </trkpt>
      <trkpt lat="42.84404" lon="0.50299">
        <ele>1650.462</ele>
        <time>2022-02-27T12:13:06Z</time>
      </trkpt>
      <trkpt lat="42.84404" lon="0.50299">
        <ele>1650.459</ele>
        <time>2022-02-27T12:13:08Z</time>
      </trkpt>
      <trkpt lat="42.84404" lon="0.50299">
        <ele>1650.462</ele>
        <time>2022-02-27T12:13:10Z</time>
      </trkpt>
      <trkpt lat="42.84404" lon="0.50299">
        <ele>1650.461</ele>
        <time>2022-02-27T12:13:12Z</time>
      </trkpt>
      <trkpt lat="42.84404" lon="0.50299">
        <ele>1650.468</ele>
        <time>2022-02-27T12:13:14Z</time>
      </trkpt>
      <trkpt lat="42.84404" lon="0.50299">
        <ele>1650.476</ele>
        <time>2022-02-27T12:13:16Z</time>
      </trkpt>
      <trkpt lat="42.84404" lon="0.50299">
        <ele>1650.487</ele>
        <time>2022-02-27T12:13:18Z</time>
      </trkpt>
      <trkpt lat="42.84404" lon="0.50299">
        <ele>1650.493</ele>
        <time>2022-02-27T12:13:20Z</time>
      </trkpt>
      <trkpt lat="42.84404" lon="0.50299">
        <ele>1650.49</ele>
        <time>2022-02-27T12:13:22Z</time>
      </trkpt>
      <trkpt lat="42.84404" lon="0.50299">
        <ele>1650.495</ele>
        <time>2022-02-27T12:13:24Z</time>
      </trkpt>
      <trkpt lat="42.84404" lon="0.50299">
        <ele>1650.5</ele>
        <time>2022-02-27T12:13:26Z</time>
      </trkpt>
      <trkpt lat="42.84404" lon="0.50299">
        <ele>1650.5</ele>
        <time>2022-02-27T12:13:28Z</time>
      </trkpt>
      <trkpt lat="42.84404" lon="0.50299">
        <ele>1650.515</ele>
        <time>2022-02-27T12:13:30Z</time>
      </trkpt>
      <trkpt lat="42.84404" lon="0.50299">
        <ele>1650.52</ele>
        <time>2022-02-27T12:13:32Z</time>
      </trkpt>
      <trkpt lat="42.84404" lon="0.50299">
        <ele>1650.525</ele>
        <time>2022-02-27T12:13:34Z</time>
      </trkpt>
      <trkpt lat="42.84404" lon="0.50299">
        <ele>1650.53</ele>
        <time>2022-02-27T12:13:36Z</time>
      </trkpt>
      <trkpt lat="42.84404" lon="0.50299">
        <ele>1650.539</ele>
        <time>2022-02-27T12:13:38Z</time>
      </trkpt>
      <trkpt lat="42.84404" lon="0.50299">
        <ele>1650.538</ele>
        <time>2022-02-27T12:13:40Z</time>
      </trkpt>
      <trkpt lat="42.84404" lon="0.50299">
        <ele>1650.547</ele>
        <time>2022-02-27T12:13:42Z</time>
      </trkpt>
      <trkpt lat="42.84404" lon="0.50299">
        <ele>1650.556</ele>
        <time>2022-02-27T12:13:44Z</time>
      </trkpt>
      <trkpt lat="42.84404" lon="0.50299">
        <ele>1650.561</ele>
        <time>2022-02-27T12:13:46Z</time>
      </trkpt>
      <trkpt lat="42.84404" lon="0.50299">
        <ele>1650.565</ele>
        <time>2022-02-27T12:13:48Z</time>
      </trkpt>
      <trkpt lat="42.84404" lon="0.50299">
        <ele>1650.571</ele>
        <time>2022-02-27T12:13:50Z</time>
      </trkpt>
      <trkpt lat="42.84404" lon="0.50299">
        <ele>1650.577</ele>
        <time>2022-02-27T12:13:52Z</time>
      </trkpt>
      <trkpt lat="42.84404" lon="0.50299">
        <ele>1650.579</ele>
        <time>2022-02-27T12:13:54Z</time>
      </trkpt>
      <trkpt lat="42.84404" lon="0.50299">
        <ele>1650.587</ele>
        <time>2022-02-27T12:13:56Z</time>
      </trkpt>
      <trkpt lat="42.84404" lon="0.50299">
        <ele>1650.589</ele>
        <time>2022-02-27T12:13:58Z</time>
      </trkpt>
      <trkpt lat="42.84404" lon="0.50299">
        <ele>1650.595</ele>
        <time>2022-02-27T12:14:00Z</time>
      </trkpt>
      <trkpt lat="42.84404" lon="0.50299">
        <ele>1650.594</ele>
        <time>2022-02-27T12:14:02Z</time>
      </trkpt>
      <trkpt lat="42.84404" lon="0.50299">
        <ele>1650.593</ele>
        <time>2022-02-27T12:14:04Z</time>
      </trkpt>
      <trkpt lat="42.84404" lon="0.50299">
        <ele>1650.588</ele>
        <time>2022-02-27T12:14:06Z</time>
      </trkpt>
      <trkpt lat="42.84404" lon="0.50299">
        <ele>1650.585</ele>
        <time>2022-02-27T12:14:08Z</time>
      </trkpt>
      <trkpt lat="42.84404" lon="0.50299">
        <ele>1650.588</ele>
        <time>2022-02-27T12:14:10Z</time>
      </trkpt>
      <trkpt lat="42.84404" lon="0.50299">
        <ele>1650.584</ele>
        <time>2022-02-27T12:14:12Z</time>
      </trkpt>
      <trkpt lat="42.84404" lon="0.50299">
        <ele>1650.583</ele>
        <time>2022-02-27T12:14:14Z</time>
      </trkpt>
      <trkpt lat="42.84404" lon="0.50299">
        <ele>1650.581</ele>
        <time>2022-02-27T12:14:16Z</time>
      </trkpt>
      <trkpt lat="42.84404" lon="0.50299">
        <ele>1650.579</ele>
        <time>2022-02-27T12:14:18Z</time>
      </trkpt>
      <trkpt lat="42.84404" lon="0.50299">
        <ele>1650.582</ele>
        <time>2022-02-27T12:14:20Z</time>
      </trkpt>
      <trkpt lat="42.84404" lon="0.50299">
        <ele>1650.582</ele>
        <time>2022-02-27T12:14:22Z</time>
      </trkpt>
      <trkpt lat="42.84404" lon="0.50299">
        <ele>1650.585</ele>
        <time>2022-02-27T12:14:24Z</time>
      </trkpt>
      <trkpt lat="42.84404" lon="0.50299">
        <ele>1650.592</ele>
        <time>2022-02-27T12:14:26Z</time>
      </trkpt>
      <trkpt lat="42.84404" lon="0.50299">
        <ele>1650.606</ele>
        <time>2022-02-27T12:14:28Z</time>
      </trkpt>
      <trkpt lat="42.84404" lon="0.50299">
        <ele>1650.61</ele>
        <time>2022-02-27T12:14:30Z</time>
      </trkpt>
      <trkpt lat="42.84404" lon="0.50299">
        <ele>1650.615</ele>
        <time>2022-02-27T12:14:32Z</time>
      </trkpt>
      <trkpt lat="42.84404" lon="0.50299">
        <ele>1650.529</ele>
        <time>2022-02-27T12:14:34Z</time>
      </trkpt>
      <trkpt lat="42.84404" lon="0.50299">
        <ele>1650.524</ele>
        <time>2022-02-27T12:14:36Z</time>
      </trkpt>
      <trkpt lat="42.84404" lon="0.50299">
        <ele>1650.522</ele>
        <time>2022-02-27T12:14:38Z</time>
      </trkpt>
      <trkpt lat="42.84404" lon="0.50299">
        <ele>1650.527</ele>
        <time>2022-02-27T12:14:40Z</time>
      </trkpt>
      <trkpt lat="42.84404" lon="0.50299">
        <ele>1650.526</ele>
        <time>2022-02-27T12:14:42Z</time>
      </trkpt>
      <trkpt lat="42.84404" lon="0.50299">
        <ele>1650.53</ele>
        <time>2022-02-27T12:14:44Z</time>
      </trkpt>
      <trkpt lat="42.84404" lon="0.50299">
        <ele>1650.53</ele>
        <time>2022-02-27T12:14:46Z</time>
      </trkpt>
      <trkpt lat="42.84404" lon="0.50299">
        <ele>1650.53</ele>
        <time>2022-02-27T12:14:48Z</time>
      </trkpt>
      <trkpt lat="42.84404" lon="0.50299">
        <ele>1650.53</ele>
        <time>2022-02-27T12:14:50Z</time>
      </trkpt>
      <trkpt lat="42.84404" lon="0.50299">
        <ele>1650.529</ele>
        <time>2022-02-27T12:14:52Z</time>
      </trkpt>
      <trkpt lat="42.84404" lon="0.50299">
        <ele>1650.531</ele>
        <time>2022-02-27T12:14:54Z</time>
      </trkpt>
      <trkpt lat="42.84404" lon="0.50299">
        <ele>1650.531</ele>
        <time>2022-02-27T12:14:56Z</time>
      </trkpt>
      <trkpt lat="42.84404" lon="0.50299">
        <ele>1650.53</ele>
        <time>2022-02-27T12:14:58Z</time>
      </trkpt>
      <trkpt lat="42.84404" lon="0.50299">
        <ele>1650.53</ele>
        <time>2022-02-27T12:15:00Z</time>
      </trkpt>
      <trkpt lat="42.84404" lon="0.50299">
        <ele>1650.525</ele>
        <time>2022-02-27T12:15:02Z</time>
      </trkpt>
      <trkpt lat="42.84404" lon="0.50299">
        <ele>1650.528</ele>
        <time>2022-02-27T12:15:04Z</time>
      </trkpt>
      <trkpt lat="42.84404" lon="0.50299">
        <ele>1650.533</ele>
        <time>2022-02-27T12:15:06Z</time>
      </trkpt>
      <trkpt lat="42.84404" lon="0.50299">
        <ele>1650.535</ele>
        <time>2022-02-27T12:15:08Z</time>
      </trkpt>
      <trkpt lat="42.84404" lon="0.50299">
        <ele>1650.543</ele>
        <time>2022-02-27T12:15:10Z</time>
      </trkpt>
      <trkpt lat="42.84404" lon="0.50299">
        <ele>1650.552</ele>
        <time>2022-02-27T12:15:12Z</time>
      </trkpt>
      <trkpt lat="42.84404" lon="0.50299">
        <ele>1650.553</ele>
        <time>2022-02-27T12:15:14Z</time>
      </trkpt>
      <trkpt lat="42.84404" lon="0.50299">
        <ele>1650.554</ele>
        <time>2022-02-27T12:15:16Z</time>
      </trkpt>
      <trkpt lat="42.84404" lon="0.50299">
        <ele>1650.554</ele>
        <time>2022-02-27T12:15:18Z</time>
      </trkpt>
      <trkpt lat="42.84404" lon="0.50299">
        <ele>1650.555</ele>
        <time>2022-02-27T12:15:20Z</time>
      </trkpt>
      <trkpt lat="42.84404" lon="0.50299">
        <ele>1650.552</ele>
        <time>2022-02-27T12:15:22Z</time>
      </trkpt>
      <trkpt lat="42.84404" lon="0.50299">
        <ele>1650.549</ele>
        <time>2022-02-27T12:15:24Z</time>
      </trkpt>
      <trkpt lat="42.84404" lon="0.50299">
        <ele>1650.557</ele>
        <time>2022-02-27T12:15:26Z</time>
      </trkpt>
      <trkpt lat="42.84404" lon="0.50299">
        <ele>1650.552</ele>
        <time>2022-02-27T12:15:28Z</time>
      </trkpt>
      <trkpt lat="42.84404" lon="0.50299">
        <ele>1650.555</ele>
        <time>2022-02-27T12:15:30Z</time>
      </trkpt>
      <trkpt lat="42.84404" lon="0.50299">
        <ele>1650.549</ele>
        <time>2022-02-27T12:15:32Z</time>
      </trkpt>
      <trkpt lat="42.84404" lon="0.50299">
        <ele>1650.549</ele>
        <time>2022-02-27T12:15:34Z</time>
      </trkpt>
      <trkpt lat="42.84404" lon="0.50299">
        <ele>1650.55</ele>
        <time>2022-02-27T12:15:36Z</time>
      </trkpt>
      <trkpt lat="42.84404" lon="0.50299">
        <ele>1650.558</ele>
        <time>2022-02-27T12:15:38Z</time>
      </trkpt>
      <trkpt lat="42.84404" lon="0.50299">
        <ele>1650.557</ele>
        <time>2022-02-27T12:15:40Z</time>
      </trkpt>
      <trkpt lat="42.84404" lon="0.50299">
        <ele>1650.56</ele>
        <time>2022-02-27T12:15:42Z</time>
      </trkpt>
      <trkpt lat="42.84404" lon="0.50299">
        <ele>1650.567</ele>
        <time>2022-02-27T12:15:44Z</time>
      </trkpt>
      <trkpt lat="42.84404" lon="0.50299">
        <ele>1650.571</ele>
        <time>2022-02-27T12:15:46Z</time>
      </trkpt>
      <trkpt lat="42.84404" lon="0.50299">
        <ele>1650.575</ele>
        <time>2022-02-27T12:15:48Z</time>
      </trkpt>
      <trkpt lat="42.84404" lon="0.50299">
        <ele>1650.58</ele>
        <time>2022-02-27T12:15:50Z</time>
      </trkpt>
      <trkpt lat="42.84404" lon="0.50299">
        <ele>1650.582</ele>
        <time>2022-02-27T12:15:52Z</time>
      </trkpt>
      <trkpt lat="42.84404" lon="0.50299">
        <ele>1650.586</ele>
        <time>2022-02-27T12:15:54Z</time>
      </trkpt>
      <trkpt lat="42.84404" lon="0.50299">
        <ele>1650.592</ele>
        <time>2022-02-27T12:15:56Z</time>
      </trkpt>
      <trkpt lat="42.84404" lon="0.50299">
        <ele>1650.602</ele>
        <time>2022-02-27T12:15:58Z</time>
      </trkpt>
      <trkpt lat="42.84404" lon="0.50299">
        <ele>1650.606</ele>
        <time>2022-02-27T12:16:00Z</time>
      </trkpt>
      <trkpt lat="42.84404" lon="0.50299">
        <ele>1650.613</ele>
        <time>2022-02-27T12:16:02Z</time>
      </trkpt>
      <trkpt lat="42.84404" lon="0.50299">
        <ele>1650.62</ele>
        <time>2022-02-27T12:16:04Z</time>
      </trkpt>
      <trkpt lat="42.84404" lon="0.50299">
        <ele>1650.618</ele>
        <time>2022-02-27T12:16:06Z</time>
      </trkpt>
      <trkpt lat="42.84404" lon="0.50299">
        <ele>1650.622</ele>
        <time>2022-02-27T12:16:08Z</time>
      </trkpt>
      <trkpt lat="42.84404" lon="0.50299">
        <ele>1650.624</ele>
        <time>2022-02-27T12:16:10Z</time>
      </trkpt>
      <trkpt lat="42.84404" lon="0.50299">
        <ele>1650.629</ele>
        <time>2022-02-27T12:16:12Z</time>
      </trkpt>
      <trkpt lat="42.84404" lon="0.50299">
        <ele>1650.634</ele>
        <time>2022-02-27T12:16:14Z</time>
      </trkpt>
      <trkpt lat="42.84404" lon="0.50299">
        <ele>1650.633</ele>
        <time>2022-02-27T12:16:16Z</time>
      </trkpt>
      <trkpt lat="42.84404" lon="0.50299">
        <ele>1650.631</ele>
        <time>2022-02-27T12:16:18Z</time>
      </trkpt>
      <trkpt lat="42.84404" lon="0.50299">
        <ele>1650.631</ele>
        <time>2022-02-27T12:16:20Z</time>
      </trkpt>
      <trkpt lat="42.84404" lon="0.50299">
        <ele>1650.634</ele>
        <time>2022-02-27T12:16:22Z</time>
      </trkpt>
      <trkpt lat="42.84404" lon="0.50299">
        <ele>1650.635</ele>
        <time>2022-02-27T12:16:24Z</time>
      </trkpt>
      <trkpt lat="42.84404" lon="0.50299">
        <ele>1650.635</ele>
        <time>2022-02-27T12:16:26Z</time>
      </trkpt>
      <trkpt lat="42.84404" lon="0.50299">
        <ele>1650.635</ele>
        <time>2022-02-27T12:16:28Z</time>
      </trkpt>
      <trkpt lat="42.84404" lon="0.50299">
        <ele>1650.635</ele>
        <time>2022-02-27T12:16:30Z</time>
      </trkpt>
      <trkpt lat="42.84404" lon="0.50299">
        <ele>1650.638</ele>
        <time>2022-02-27T12:16:32Z</time>
      </trkpt>
      <trkpt lat="42.84404" lon="0.50299">
        <ele>1650.64</ele>
        <time>2022-02-27T12:16:34Z</time>
      </trkpt>
      <trkpt lat="42.84404" lon="0.50299">
        <ele>1650.646</ele>
        <time>2022-02-27T12:16:36Z</time>
      </trkpt>
      <trkpt lat="42.84404" lon="0.50299">
        <ele>1650.647</ele>
        <time>2022-02-27T12:16:38Z</time>
      </trkpt>
      <trkpt lat="42.84404" lon="0.50299">
        <ele>1650.654</ele>
        <time>2022-02-27T12:16:40Z</time>
      </trkpt>
      <trkpt lat="42.84404" lon="0.50299">
        <ele>1650.658</ele>
        <time>2022-02-27T12:16:42Z</time>
      </trkpt>
      <trkpt lat="42.84404" lon="0.50299">
        <ele>1650.667</ele>
        <time>2022-02-27T12:16:44Z</time>
      </trkpt>
      <trkpt lat="42.84404" lon="0.50299">
        <ele>1650.669</ele>
        <time>2022-02-27T12:16:46Z</time>
      </trkpt>
      <trkpt lat="42.84404" lon="0.50299">
        <ele>1650.667</ele>
        <time>2022-02-27T12:16:48Z</time>
      </trkpt>
      <trkpt lat="42.84404" lon="0.50299">
        <ele>1650.67</ele>
        <time>2022-02-27T12:16:50Z</time>
      </trkpt>
      <trkpt lat="42.84404" lon="0.50299">
        <ele>1650.675</ele>
        <time>2022-02-27T12:16:52Z</time>
      </trkpt>
      <trkpt lat="42.84404" lon="0.50299">
        <ele>1650.674</ele>
        <time>2022-02-27T12:16:54Z</time>
      </trkpt>
      <trkpt lat="42.84404" lon="0.50299">
        <ele>1650.676</ele>
        <time>2022-02-27T12:16:56Z</time>
      </trkpt>
      <trkpt lat="42.84404" lon="0.50299">
        <ele>1650.673</ele>
        <time>2022-02-27T12:16:58Z</time>
      </trkpt>
      <trkpt lat="42.84404" lon="0.50299">
        <ele>1650.672</ele>
        <time>2022-02-27T12:17:00Z</time>
      </trkpt>
      <trkpt lat="42.84404" lon="0.50299">
        <ele>1650.67</ele>
        <time>2022-02-27T12:17:02Z</time>
      </trkpt>
      <trkpt lat="42.84404" lon="0.50299">
        <ele>1650.667</ele>
        <time>2022-02-27T12:17:04Z</time>
      </trkpt>
      <trkpt lat="42.84404" lon="0.50299">
        <ele>1650.664</ele>
        <time>2022-02-27T12:17:06Z</time>
      </trkpt>
      <trkpt lat="42.84404" lon="0.50299">
        <ele>1650.662</ele>
        <time>2022-02-27T12:17:08Z</time>
      </trkpt>
      <trkpt lat="42.84404" lon="0.50299">
        <ele>1650.66</ele>
        <time>2022-02-27T12:17:10Z</time>
      </trkpt>
      <trkpt lat="42.84404" lon="0.50299">
        <ele>1650.657</ele>
        <time>2022-02-27T12:17:12Z</time>
      </trkpt>
      <trkpt lat="42.84404" lon="0.50299">
        <ele>1650.66</ele>
        <time>2022-02-27T12:17:14Z</time>
      </trkpt>
      <trkpt lat="42.84404" lon="0.50299">
        <ele>1650.669</ele>
        <time>2022-02-27T12:17:16Z</time>
      </trkpt>
      <trkpt lat="42.84404" lon="0.50299">
        <ele>1650.664</ele>
        <time>2022-02-27T12:17:18Z</time>
      </trkpt>
      <trkpt lat="42.84404" lon="0.50299">
        <ele>1650.66</ele>
        <time>2022-02-27T12:17:20Z</time>
      </trkpt>
      <trkpt lat="42.84404" lon="0.50299">
        <ele>1650.658</ele>
        <time>2022-02-27T12:17:22Z</time>
      </trkpt>
      <trkpt lat="42.84404" lon="0.50299">
        <ele>1650.664</ele>
        <time>2022-02-27T12:17:24Z</time>
      </trkpt>
      <trkpt lat="42.84404" lon="0.50299">
        <ele>1650.668</ele>
        <time>2022-02-27T12:17:26Z</time>
      </trkpt>
      <trkpt lat="42.84404" lon="0.50299">
        <ele>1650.664</ele>
        <time>2022-02-27T12:17:28Z</time>
      </trkpt>
      <trkpt lat="42.84404" lon="0.50299">
        <ele>1650.659</ele>
        <time>2022-02-27T12:17:30Z</time>
      </trkpt>
      <trkpt lat="42.84404" lon="0.50299">
        <ele>1650.657</ele>
        <time>2022-02-27T12:17:32Z</time>
      </trkpt>
      <trkpt lat="42.84404" lon="0.50299">
        <ele>1650.65</ele>
        <time>2022-02-27T12:17:34Z</time>
      </trkpt>
      <trkpt lat="42.84404" lon="0.50299">
        <ele>1650.648</ele>
        <time>2022-02-27T12:17:36Z</time>
      </trkpt>
      <trkpt lat="42.84404" lon="0.50299">
        <ele>1650.647</ele>
        <time>2022-02-27T12:17:38Z</time>
      </trkpt>
      <trkpt lat="42.84404" lon="0.50299">
        <ele>1650.647</ele>
        <time>2022-02-27T12:17:40Z</time>
      </trkpt>
      <trkpt lat="42.84404" lon="0.50299">
        <ele>1650.642</ele>
        <time>2022-02-27T12:17:42Z</time>
      </trkpt>
      <trkpt lat="42.84404" lon="0.50299">
        <ele>1650.644</ele>
        <time>2022-02-27T12:17:44Z</time>
      </trkpt>
      <trkpt lat="42.84404" lon="0.50299">
        <ele>1650.645</ele>
        <time>2022-02-27T12:17:46Z</time>
      </trkpt>
      <trkpt lat="42.84404" lon="0.50299">
        <ele>1650.648</ele>
        <time>2022-02-27T12:17:48Z</time>
      </trkpt>
      <trkpt lat="42.84404" lon="0.50299">
        <ele>1650.652</ele>
        <time>2022-02-27T12:17:50Z</time>
      </trkpt>
      <trkpt lat="42.84404" lon="0.50299">
        <ele>1650.65</ele>
        <time>2022-02-27T12:17:52Z</time>
      </trkpt>
      <trkpt lat="42.84404" lon="0.50299">
        <ele>1650.641</ele>
        <time>2022-02-27T12:17:54Z</time>
      </trkpt>
      <trkpt lat="42.84404" lon="0.50299">
        <ele>1650.637</ele>
        <time>2022-02-27T12:17:56Z</time>
      </trkpt>
      <trkpt lat="42.84404" lon="0.50299">
        <ele>1650.633</ele>
        <time>2022-02-27T12:17:58Z</time>
      </trkpt>
      <trkpt lat="42.84404" lon="0.50299">
        <ele>1650.621</ele>
        <time>2022-02-27T12:18:00Z</time>
      </trkpt>
      <trkpt lat="42.84404" lon="0.50299">
        <ele>1650.622</ele>
        <time>2022-02-27T12:18:02Z</time>
      </trkpt>
      <trkpt lat="42.84404" lon="0.50299">
        <ele>1650.612</ele>
        <time>2022-02-27T12:18:04Z</time>
      </trkpt>
      <trkpt lat="42.84404" lon="0.50299">
        <ele>1650.614</ele>
        <time>2022-02-27T12:18:06Z</time>
      </trkpt>
      <trkpt lat="42.84404" lon="0.50299">
        <ele>1650.613</ele>
        <time>2022-02-27T12:18:08Z</time>
      </trkpt>
      <trkpt lat="42.84404" lon="0.50299">
        <ele>1650.616</ele>
        <time>2022-02-27T12:18:10Z</time>
      </trkpt>
      <trkpt lat="42.84404" lon="0.50299">
        <ele>1650.622</ele>
        <time>2022-02-27T12:18:12Z</time>
      </trkpt>
      <trkpt lat="42.84404" lon="0.50299">
        <ele>1650.63</ele>
        <time>2022-02-27T12:18:14Z</time>
      </trkpt>
      <trkpt lat="42.84404" lon="0.50299">
        <ele>1650.652</ele>
        <time>2022-02-27T12:18:16Z</time>
      </trkpt>
      <trkpt lat="42.84404" lon="0.50299">
        <ele>1650.655</ele>
        <time>2022-02-27T12:18:18Z</time>
      </trkpt>
      <trkpt lat="42.84404" lon="0.50299">
        <ele>1650.664</ele>
        <time>2022-02-27T12:18:20Z</time>
      </trkpt>
      <trkpt lat="42.84404" lon="0.50299">
        <ele>1650.667</ele>
        <time>2022-02-27T12:18:22Z</time>
      </trkpt>
      <trkpt lat="42.84404" lon="0.50299">
        <ele>1650.666</ele>
        <time>2022-02-27T12:18:24Z</time>
      </trkpt>
      <trkpt lat="42.84404" lon="0.50299">
        <ele>1650.677</ele>
        <time>2022-02-27T12:18:26Z</time>
      </trkpt>
      <trkpt lat="42.84404" lon="0.50299">
        <ele>1650.687</ele>
        <time>2022-02-27T12:18:28Z</time>
      </trkpt>
      <trkpt lat="42.84404" lon="0.50299">
        <ele>1650.691</ele>
        <time>2022-02-27T12:18:30Z</time>
      </trkpt>
      <trkpt lat="42.84404" lon="0.50299">
        <ele>1650.701</ele>
        <time>2022-02-27T12:18:32Z</time>
      </trkpt>
      <trkpt lat="42.84404" lon="0.50299">
        <ele>1650.704</ele>
        <time>2022-02-27T12:18:34Z</time>
      </trkpt>
      <trkpt lat="42.84404" lon="0.50299">
        <ele>1650.709</ele>
        <time>2022-02-27T12:18:36Z</time>
      </trkpt>
      <trkpt lat="42.84404" lon="0.50299">
        <ele>1650.713</ele>
        <time>2022-02-27T12:18:38Z</time>
      </trkpt>
      <trkpt lat="42.84404" lon="0.50299">
        <ele>1650.718</ele>
        <time>2022-02-27T12:18:40Z</time>
      </trkpt>
      <trkpt lat="42.84404" lon="0.50299">
        <ele>1650.724</ele>
        <time>2022-02-27T12:18:42Z</time>
      </trkpt>
      <trkpt lat="42.84404" lon="0.50299">
        <ele>1650.729</ele>
        <time>2022-02-27T12:18:44Z</time>
      </trkpt>
      <trkpt lat="42.84404" lon="0.50299">
        <ele>1650.732</ele>
        <time>2022-02-27T12:18:46Z</time>
      </trkpt>
      <trkpt lat="42.84404" lon="0.50299">
        <ele>1650.73</ele>
        <time>2022-02-27T12:18:48Z</time>
      </trkpt>
      <trkpt lat="42.84404" lon="0.50299">
        <ele>1650.73</ele>
        <time>2022-02-27T12:18:50Z</time>
      </trkpt>
      <trkpt lat="42.84404" lon="0.50299">
        <ele>1650.73</ele>
        <time>2022-02-27T12:18:52Z</time>
      </trkpt>
      <trkpt lat="42.84404" lon="0.50299">
        <ele>1650.732</ele>
        <time>2022-02-27T12:18:54Z</time>
      </trkpt>
      <trkpt lat="42.84404" lon="0.50299">
        <ele>1650.738</ele>
        <time>2022-02-27T12:18:56Z</time>
      </trkpt>
      <trkpt lat="42.84404" lon="0.50299">
        <ele>1650.742</ele>
        <time>2022-02-27T12:18:58Z</time>
      </trkpt>
      <trkpt lat="42.84404" lon="0.50299">
        <ele>1650.747</ele>
        <time>2022-02-27T12:19:00Z</time>
      </trkpt>
      <trkpt lat="42.84404" lon="0.50299">
        <ele>1650.749</ele>
        <time>2022-02-27T12:19:02Z</time>
      </trkpt>
      <trkpt lat="42.84404" lon="0.50299">
        <ele>1650.751</ele>
        <time>2022-02-27T12:19:04Z</time>
      </trkpt>
      <trkpt lat="42.84404" lon="0.50299">
        <ele>1650.751</ele>
        <time>2022-02-27T12:19:06Z</time>
      </trkpt>
      <trkpt lat="42.84404" lon="0.50299">
        <ele>1650.753</ele>
        <time>2022-02-27T12:19:08Z</time>
      </trkpt>
      <trkpt lat="42.84404" lon="0.50299">
        <ele>1650.759</ele>
        <time>2022-02-27T12:19:10Z</time>
      </trkpt>
      <trkpt lat="42.84404" lon="0.50299">
        <ele>1650.764</ele>
        <time>2022-02-27T12:19:12Z</time>
      </trkpt>
      <trkpt lat="42.84404" lon="0.50299">
        <ele>1650.772</ele>
        <time>2022-02-27T12:19:14Z</time>
      </trkpt>
      <trkpt lat="42.84404" lon="0.50299">
        <ele>1650.773</ele>
        <time>2022-02-27T12:19:16Z</time>
      </trkpt>
      <trkpt lat="42.84404" lon="0.50299">
        <ele>1650.771</ele>
        <time>2022-02-27T12:19:18Z</time>
      </trkpt>
      <trkpt lat="42.84404" lon="0.50299">
        <ele>1650.77</ele>
        <time>2022-02-27T12:19:20Z</time>
      </trkpt>
      <trkpt lat="42.84404" lon="0.50299">
        <ele>1650.772</ele>
        <time>2022-02-27T12:19:22Z</time>
      </trkpt>
      <trkpt lat="42.84404" lon="0.50299">
        <ele>1650.767</ele>
        <time>2022-02-27T12:19:24Z</time>
      </trkpt>
      <trkpt lat="42.84404" lon="0.50299">
        <ele>1650.769</ele>
        <time>2022-02-27T12:19:26Z</time>
      </trkpt>
      <trkpt lat="42.84404" lon="0.50299">
        <ele>1650.661</ele>
        <time>2022-02-27T12:19:28Z</time>
      </trkpt>
      <trkpt lat="42.84404" lon="0.50299">
        <ele>1650.571</ele>
        <time>2022-02-27T12:19:30Z</time>
      </trkpt>
      <trkpt lat="42.84404" lon="0.50299">
        <ele>1650.571</ele>
        <time>2022-02-27T12:19:32Z</time>
      </trkpt>
      <trkpt lat="42.84405" lon="0.50298">
        <ele>1650.381</ele>
        <time>2022-02-27T12:19:34Z</time>
      </trkpt>
      <trkpt lat="42.84405" lon="0.50298">
        <ele>1650.402</ele>
        <time>2022-02-27T12:19:36Z</time>
      </trkpt>
      <trkpt lat="42.84405" lon="0.50298">
        <ele>1650.404</ele>
        <time>2022-02-27T12:19:38Z</time>
      </trkpt>
      <trkpt lat="42.84405" lon="0.50298">
        <ele>1650.405</ele>
        <time>2022-02-27T12:19:40Z</time>
      </trkpt>
      <trkpt lat="42.84405" lon="0.50298">
        <ele>1650.407</ele>
        <time>2022-02-27T12:19:42Z</time>
      </trkpt>
      <trkpt lat="42.84405" lon="0.50298">
        <ele>1650.409</ele>
        <time>2022-02-27T12:19:44Z</time>
      </trkpt>
      <trkpt lat="42.84405" lon="0.50298">
        <ele>1650.409</ele>
        <time>2022-02-27T12:19:46Z</time>
      </trkpt>
      <trkpt lat="42.84405" lon="0.50298">
        <ele>1650.409</ele>
        <time>2022-02-27T12:19:48Z</time>
      </trkpt>
      <trkpt lat="42.84405" lon="0.50298">
        <ele>1650.409</ele>
        <time>2022-02-27T12:19:50Z</time>
      </trkpt>
      <trkpt lat="42.84405" lon="0.50298">
        <ele>1650.407</ele>
        <time>2022-02-27T12:19:52Z</time>
      </trkpt>
      <trkpt lat="42.84405" lon="0.50298">
        <ele>1650.407</ele>
        <time>2022-02-27T12:19:54Z</time>
      </trkpt>
      <trkpt lat="42.84405" lon="0.50298">
        <ele>1650.414</ele>
        <time>2022-02-27T12:19:56Z</time>
      </trkpt>
      <trkpt lat="42.84405" lon="0.50298">
        <ele>1650.415</ele>
        <time>2022-02-27T12:19:58Z</time>
      </trkpt>
      <trkpt lat="42.84405" lon="0.50298">
        <ele>1650.417</ele>
        <time>2022-02-27T12:20:00Z</time>
      </trkpt>
      <trkpt lat="42.84405" lon="0.50298">
        <ele>1650.421</ele>
        <time>2022-02-27T12:20:02Z</time>
      </trkpt>
      <trkpt lat="42.84405" lon="0.50298">
        <ele>1650.409</ele>
        <time>2022-02-27T12:20:04Z</time>
      </trkpt>
      <trkpt lat="42.84405" lon="0.50298">
        <ele>1650.416</ele>
        <time>2022-02-27T12:20:06Z</time>
      </trkpt>
      <trkpt lat="42.84405" lon="0.50298">
        <ele>1650.787</ele>
        <time>2022-02-27T12:20:08Z</time>
      </trkpt>
      <trkpt lat="42.84405" lon="0.50298">
        <ele>1650.787</ele>
        <time>2022-02-27T12:20:10Z</time>
      </trkpt>
      <trkpt lat="42.84405" lon="0.50298">
        <ele>1650.791</ele>
        <time>2022-02-27T12:20:12Z</time>
      </trkpt>
      <trkpt lat="42.84405" lon="0.50298">
        <ele>1650.798</ele>
        <time>2022-02-27T12:20:14Z</time>
      </trkpt>
      <trkpt lat="42.84405" lon="0.50298">
        <ele>1650.799</ele>
        <time>2022-02-27T12:20:16Z</time>
      </trkpt>
      <trkpt lat="42.84405" lon="0.50298">
        <ele>1650.798</ele>
        <time>2022-02-27T12:20:18Z</time>
      </trkpt>
      <trkpt lat="42.84405" lon="0.50298">
        <ele>1650.795</ele>
        <time>2022-02-27T12:20:20Z</time>
      </trkpt>
      <trkpt lat="42.84405" lon="0.50298">
        <ele>1650.796</ele>
        <time>2022-02-27T12:20:22Z</time>
      </trkpt>
      <trkpt lat="42.84405" lon="0.50298">
        <ele>1650.799</ele>
        <time>2022-02-27T12:20:24Z</time>
      </trkpt>
      <trkpt lat="42.84405" lon="0.50298">
        <ele>1650.803</ele>
        <time>2022-02-27T12:20:26Z</time>
      </trkpt>
      <trkpt lat="42.84405" lon="0.50298">
        <ele>1650.805</ele>
        <time>2022-02-27T12:20:28Z</time>
      </trkpt>
      <trkpt lat="42.84405" lon="0.50298">
        <ele>1650.809</ele>
        <time>2022-02-27T12:20:30Z</time>
      </trkpt>
      <trkpt lat="42.84405" lon="0.50298">
        <ele>1650.814</ele>
        <time>2022-02-27T12:20:32Z</time>
      </trkpt>
      <trkpt lat="42.84405" lon="0.50298">
        <ele>1650.817</ele>
        <time>2022-02-27T12:20:34Z</time>
      </trkpt>
      <trkpt lat="42.84405" lon="0.50298">
        <ele>1650.824</ele>
        <time>2022-02-27T12:20:36Z</time>
      </trkpt>
      <trkpt lat="42.84405" lon="0.50298">
        <ele>1650.83</ele>
        <time>2022-02-27T12:20:38Z</time>
      </trkpt>
      <trkpt lat="42.84405" lon="0.50298">
        <ele>1650.837</ele>
        <time>2022-02-27T12:20:40Z</time>
      </trkpt>
      <trkpt lat="42.84405" lon="0.50298">
        <ele>1650.841</ele>
        <time>2022-02-27T12:20:42Z</time>
      </trkpt>
      <trkpt lat="42.84405" lon="0.50298">
        <ele>1650.847</ele>
        <time>2022-02-27T12:20:44Z</time>
      </trkpt>
      <trkpt lat="42.84405" lon="0.50298">
        <ele>1650.86</ele>
        <time>2022-02-27T12:20:46Z</time>
      </trkpt>
      <trkpt lat="42.84405" lon="0.50298">
        <ele>1650.864</ele>
        <time>2022-02-27T12:20:48Z</time>
      </trkpt>
      <trkpt lat="42.84405" lon="0.50298">
        <ele>1650.867</ele>
        <time>2022-02-27T12:20:50Z</time>
      </trkpt>
      <trkpt lat="42.84405" lon="0.50298">
        <ele>1650.871</ele>
        <time>2022-02-27T12:20:52Z</time>
      </trkpt>
      <trkpt lat="42.84405" lon="0.50298">
        <ele>1650.875</ele>
        <time>2022-02-27T12:20:54Z</time>
      </trkpt>
      <trkpt lat="42.84405" lon="0.50298">
        <ele>1650.875</ele>
        <time>2022-02-27T12:20:56Z</time>
      </trkpt>
      <trkpt lat="42.84405" lon="0.50298">
        <ele>1650.885</ele>
        <time>2022-02-27T12:20:58Z</time>
      </trkpt>
      <trkpt lat="42.84405" lon="0.50298">
        <ele>1650.895</ele>
        <time>2022-02-27T12:21:00Z</time>
      </trkpt>
      <trkpt lat="42.84405" lon="0.50298">
        <ele>1650.91</ele>
        <time>2022-02-27T12:21:02Z</time>
      </trkpt>
      <trkpt lat="42.84405" lon="0.50298">
        <ele>1650.926</ele>
        <time>2022-02-27T12:21:04Z</time>
      </trkpt>
      <trkpt lat="42.84405" lon="0.50298">
        <ele>1650.936</ele>
        <time>2022-02-27T12:21:06Z</time>
      </trkpt>
      <trkpt lat="42.84405" lon="0.50298">
        <ele>1650.942</ele>
        <time>2022-02-27T12:21:08Z</time>
      </trkpt>
      <trkpt lat="42.84405" lon="0.50298">
        <ele>1650.95</ele>
        <time>2022-02-27T12:21:10Z</time>
      </trkpt>
      <trkpt lat="42.84405" lon="0.50298">
        <ele>1650.956</ele>
        <time>2022-02-27T12:21:12Z</time>
      </trkpt>
      <trkpt lat="42.84405" lon="0.50298">
        <ele>1650.96</ele>
        <time>2022-02-27T12:21:14Z</time>
      </trkpt>
      <trkpt lat="42.84405" lon="0.50298">
        <ele>1650.959</ele>
        <time>2022-02-27T12:21:16Z</time>
      </trkpt>
      <trkpt lat="42.84405" lon="0.50298">
        <ele>1650.96</ele>
        <time>2022-02-27T12:21:18Z</time>
      </trkpt>
      <trkpt lat="42.84405" lon="0.50299">
        <ele>1651.24</ele>
        <time>2022-02-27T12:21:20Z</time>
      </trkpt>
      <trkpt lat="42.84405" lon="0.50299">
        <ele>1651.187</ele>
        <time>2022-02-27T12:21:22Z</time>
      </trkpt>
      <trkpt lat="42.84405" lon="0.50299">
        <ele>1651.188</ele>
        <time>2022-02-27T12:21:24Z</time>
      </trkpt>
      <trkpt lat="42.84405" lon="0.50299">
        <ele>1651.193</ele>
        <time>2022-02-27T12:21:26Z</time>
      </trkpt>
      <trkpt lat="42.84405" lon="0.50299">
        <ele>1651.195</ele>
        <time>2022-02-27T12:21:28Z</time>
      </trkpt>
      <trkpt lat="42.84405" lon="0.50299">
        <ele>1651.204</ele>
        <time>2022-02-27T12:21:30Z</time>
      </trkpt>
      <trkpt lat="42.84405" lon="0.50299">
        <ele>1651.215</ele>
        <time>2022-02-27T12:21:32Z</time>
      </trkpt>
      <trkpt lat="42.84405" lon="0.50299">
        <ele>1651.224</ele>
        <time>2022-02-27T12:21:34Z</time>
      </trkpt>
      <trkpt lat="42.84405" lon="0.50299">
        <ele>1651.232</ele>
        <time>2022-02-27T12:21:36Z</time>
      </trkpt>
      <trkpt lat="42.84405" lon="0.50299">
        <ele>1651.239</ele>
        <time>2022-02-27T12:21:38Z</time>
      </trkpt>
      <trkpt lat="42.84405" lon="0.50299">
        <ele>1651.25</ele>
        <time>2022-02-27T12:21:40Z</time>
      </trkpt>
      <trkpt lat="42.84405" lon="0.50299">
        <ele>1651.257</ele>
        <time>2022-02-27T12:21:42Z</time>
      </trkpt>
      <trkpt lat="42.84405" lon="0.50299">
        <ele>1651.263</ele>
        <time>2022-02-27T12:21:44Z</time>
      </trkpt>
      <trkpt lat="42.84405" lon="0.50299">
        <ele>1651.271</ele>
        <time>2022-02-27T12:21:46Z</time>
      </trkpt>
      <trkpt lat="42.84405" lon="0.50299">
        <ele>1651.273</ele>
        <time>2022-02-27T12:21:48Z</time>
      </trkpt>
      <trkpt lat="42.84405" lon="0.50299">
        <ele>1651.276</ele>
        <time>2022-02-27T12:21:50Z</time>
      </trkpt>
      <trkpt lat="42.84405" lon="0.503">
        <ele>1651.475</ele>
        <time>2022-02-27T12:21:52Z</time>
      </trkpt>
      <trkpt lat="42.84405" lon="0.503">
        <ele>1651.449</ele>
        <time>2022-02-27T12:21:54Z</time>
      </trkpt>
      <trkpt lat="42.84404" lon="0.503">
        <ele>1652.102</ele>
        <time>2022-02-27T12:21:56Z</time>
      </trkpt>
      <trkpt lat="42.84405" lon="0.503">
        <ele>1652.05</ele>
        <time>2022-02-27T12:21:58Z</time>
      </trkpt>
      <trkpt lat="42.84404" lon="0.503">
        <ele>1652.284</ele>
        <time>2022-02-27T12:22:00Z</time>
      </trkpt>
      <trkpt lat="42.84404" lon="0.503">
        <ele>1652.291</ele>
        <time>2022-02-27T12:22:02Z</time>
      </trkpt>
      <trkpt lat="42.84405" lon="0.503">
        <ele>1652.562</ele>
        <time>2022-02-27T12:22:04Z</time>
      </trkpt>
      <trkpt lat="42.84405" lon="0.503">
        <ele>1652.571</ele>
        <time>2022-02-27T12:22:06Z</time>
      </trkpt>
      <trkpt lat="42.84405" lon="0.503">
        <ele>1652.579</ele>
        <time>2022-02-27T12:22:08Z</time>
      </trkpt>
      <trkpt lat="42.84405" lon="0.503">
        <ele>1652.58</ele>
        <time>2022-02-27T12:22:10Z</time>
      </trkpt>
      <trkpt lat="42.84405" lon="0.503">
        <ele>1652.586</ele>
        <time>2022-02-27T12:22:12Z</time>
      </trkpt>
      <trkpt lat="42.84405" lon="0.503">
        <ele>1652.593</ele>
        <time>2022-02-27T12:22:14Z</time>
      </trkpt>
      <trkpt lat="42.84405" lon="0.503">
        <ele>1652.709</ele>
        <time>2022-02-27T12:22:16Z</time>
      </trkpt>
      <trkpt lat="42.84405" lon="0.503">
        <ele>1652.826</ele>
        <time>2022-02-27T12:22:18Z</time>
      </trkpt>
      <trkpt lat="42.84405" lon="0.503">
        <ele>1652.824</ele>
        <time>2022-02-27T12:22:20Z</time>
      </trkpt>
      <trkpt lat="42.84405" lon="0.503">
        <ele>1652.82</ele>
        <time>2022-02-27T12:22:22Z</time>
      </trkpt>
      <trkpt lat="42.84405" lon="0.503">
        <ele>1652.818</ele>
        <time>2022-02-27T12:22:24Z</time>
      </trkpt>
      <trkpt lat="42.84405" lon="0.503">
        <ele>1652.825</ele>
        <time>2022-02-27T12:22:26Z</time>
      </trkpt>
      <trkpt lat="42.84405" lon="0.503">
        <ele>1652.821</ele>
        <time>2022-02-27T12:22:28Z</time>
      </trkpt>
      <trkpt lat="42.84405" lon="0.503">
        <ele>1652.819</ele>
        <time>2022-02-27T12:22:30Z</time>
      </trkpt>
      <trkpt lat="42.84405" lon="0.503">
        <ele>1652.817</ele>
        <time>2022-02-27T12:22:32Z</time>
      </trkpt>
      <trkpt lat="42.84405" lon="0.503">
        <ele>1652.819</ele>
        <time>2022-02-27T12:22:34Z</time>
      </trkpt>
      <trkpt lat="42.84405" lon="0.503">
        <ele>1652.818</ele>
        <time>2022-02-27T12:22:36Z</time>
      </trkpt>
      <trkpt lat="42.84405" lon="0.503">
        <ele>1652.818</ele>
        <time>2022-02-27T12:22:38Z</time>
      </trkpt>
      <trkpt lat="42.84405" lon="0.503">
        <ele>1652.817</ele>
        <time>2022-02-27T12:22:40Z</time>
      </trkpt>
      <trkpt lat="42.84405" lon="0.503">
        <ele>1652.819</ele>
        <time>2022-02-27T12:22:42Z</time>
      </trkpt>
      <trkpt lat="42.84405" lon="0.503">
        <ele>1652.816</ele>
        <time>2022-02-27T12:22:44Z</time>
      </trkpt>
      <trkpt lat="42.84405" lon="0.503">
        <ele>1652.817</ele>
        <time>2022-02-27T12:22:46Z</time>
      </trkpt>
      <trkpt lat="42.84405" lon="0.503">
        <ele>1652.824</ele>
        <time>2022-02-27T12:22:48Z</time>
      </trkpt>
      <trkpt lat="42.84405" lon="0.503">
        <ele>1652.834</ele>
        <time>2022-02-27T12:22:50Z</time>
      </trkpt>
      <trkpt lat="42.84405" lon="0.503">
        <ele>1652.84</ele>
        <time>2022-02-27T12:22:52Z</time>
      </trkpt>
      <trkpt lat="42.84405" lon="0.503">
        <ele>1652.842</ele>
        <time>2022-02-27T12:22:54Z</time>
      </trkpt>
      <trkpt lat="42.84405" lon="0.503">
        <ele>1652.843</ele>
        <time>2022-02-27T12:22:56Z</time>
      </trkpt>
      <trkpt lat="42.84405" lon="0.503">
        <ele>1652.846</ele>
        <time>2022-02-27T12:22:58Z</time>
      </trkpt>
      <trkpt lat="42.84405" lon="0.503">
        <ele>1652.847</ele>
        <time>2022-02-27T12:23:00Z</time>
      </trkpt>
      <trkpt lat="42.84405" lon="0.503">
        <ele>1652.846</ele>
        <time>2022-02-27T12:23:02Z</time>
      </trkpt>
      <trkpt lat="42.84405" lon="0.503">
        <ele>1652.843</ele>
        <time>2022-02-27T12:23:04Z</time>
      </trkpt>
      <trkpt lat="42.84405" lon="0.503">
        <ele>1652.844</ele>
        <time>2022-02-27T12:23:06Z</time>
      </trkpt>
      <trkpt lat="42.84405" lon="0.503">
        <ele>1652.843</ele>
        <time>2022-02-27T12:23:08Z</time>
      </trkpt>
      <trkpt lat="42.84405" lon="0.503">
        <ele>1652.849</ele>
        <time>2022-02-27T12:23:10Z</time>
      </trkpt>
      <trkpt lat="42.84405" lon="0.503">
        <ele>1652.854</ele>
        <time>2022-02-27T12:23:12Z</time>
      </trkpt>
      <trkpt lat="42.84405" lon="0.503">
        <ele>1652.853</ele>
        <time>2022-02-27T12:23:14Z</time>
      </trkpt>
      <trkpt lat="42.84405" lon="0.503">
        <ele>1652.857</ele>
        <time>2022-02-27T12:23:16Z</time>
      </trkpt>
      <trkpt lat="42.84405" lon="0.503">
        <ele>1652.861</ele>
        <time>2022-02-27T12:23:18Z</time>
      </trkpt>
      <trkpt lat="42.84405" lon="0.503">
        <ele>1652.861</ele>
        <time>2022-02-27T12:23:20Z</time>
      </trkpt>
      <trkpt lat="42.84405" lon="0.503">
        <ele>1652.86</ele>
        <time>2022-02-27T12:23:22Z</time>
      </trkpt>
      <trkpt lat="42.84405" lon="0.503">
        <ele>1652.876</ele>
        <time>2022-02-27T12:23:24Z</time>
      </trkpt>
      <trkpt lat="42.84405" lon="0.503">
        <ele>1653.297</ele>
        <time>2022-02-27T12:23:26Z</time>
      </trkpt>
      <trkpt lat="42.84405" lon="0.503">
        <ele>1653.332</ele>
        <time>2022-02-27T12:23:28Z</time>
      </trkpt>
      <trkpt lat="42.84405" lon="0.503">
        <ele>1653.332</ele>
        <time>2022-02-27T12:23:30Z</time>
      </trkpt>
      <trkpt lat="42.84405" lon="0.503">
        <ele>1653.328</ele>
        <time>2022-02-27T12:23:32Z</time>
      </trkpt>
      <trkpt lat="42.84405" lon="0.503">
        <ele>1653.328</ele>
        <time>2022-02-27T12:23:34Z</time>
      </trkpt>
      <trkpt lat="42.84405" lon="0.503">
        <ele>1653.054</ele>
        <time>2022-02-27T12:23:36Z</time>
      </trkpt>
      <trkpt lat="42.84405" lon="0.503">
        <ele>1653.058</ele>
        <time>2022-02-27T12:23:38Z</time>
      </trkpt>
      <trkpt lat="42.84405" lon="0.503">
        <ele>1653.275</ele>
        <time>2022-02-27T12:23:40Z</time>
      </trkpt>
      <trkpt lat="42.84405" lon="0.503">
        <ele>1654.234</ele>
        <time>2022-02-27T12:23:42Z</time>
      </trkpt>
      <trkpt lat="42.84404" lon="0.50301">
        <ele>1654.254</ele>
        <time>2022-02-27T12:23:44Z</time>
      </trkpt>
      <trkpt lat="42.84404" lon="0.50301">
        <ele>1654.251</ele>
        <time>2022-02-27T12:23:46Z</time>
      </trkpt>
      <trkpt lat="42.84404" lon="0.50301">
        <ele>1654.246</ele>
        <time>2022-02-27T12:23:48Z</time>
      </trkpt>
      <trkpt lat="42.84404" lon="0.50301">
        <ele>1654.237</ele>
        <time>2022-02-27T12:23:50Z</time>
      </trkpt>
      <trkpt lat="42.84404" lon="0.50301">
        <ele>1654.234</ele>
        <time>2022-02-27T12:23:52Z</time>
      </trkpt>
      <trkpt lat="42.84404" lon="0.50301">
        <ele>1654.233</ele>
        <time>2022-02-27T12:23:54Z</time>
      </trkpt>
      <trkpt lat="42.84404" lon="0.50301">
        <ele>1654.234</ele>
        <time>2022-02-27T12:23:56Z</time>
      </trkpt>
      <trkpt lat="42.84404" lon="0.50301">
        <ele>1654.238</ele>
        <time>2022-02-27T12:23:58Z</time>
      </trkpt>
      <trkpt lat="42.84404" lon="0.50301">
        <ele>1654.238</ele>
        <time>2022-02-27T12:24:00Z</time>
      </trkpt>
      <trkpt lat="42.84404" lon="0.50301">
        <ele>1654.235</ele>
        <time>2022-02-27T12:24:02Z</time>
      </trkpt>
      <trkpt lat="42.84404" lon="0.50301">
        <ele>1654.236</ele>
        <time>2022-02-27T12:24:04Z</time>
      </trkpt>
      <trkpt lat="42.84404" lon="0.50301">
        <ele>1654.139</ele>
        <time>2022-02-27T12:24:06Z</time>
      </trkpt>
      <trkpt lat="42.84404" lon="0.50301">
        <ele>1653.596</ele>
        <time>2022-02-27T12:24:08Z</time>
      </trkpt>
      <trkpt lat="42.84404" lon="0.50301">
        <ele>1653.596</ele>
        <time>2022-02-27T12:24:10Z</time>
      </trkpt>
      <trkpt lat="42.84404" lon="0.50301">
        <ele>1653.596</ele>
        <time>2022-02-27T12:24:12Z</time>
      </trkpt>
      <trkpt lat="42.84404" lon="0.50301">
        <ele>1653.604</ele>
        <time>2022-02-27T12:24:14Z</time>
      </trkpt>
      <trkpt lat="42.84404" lon="0.50301">
        <ele>1653.61</ele>
        <time>2022-02-27T12:24:16Z</time>
      </trkpt>
      <trkpt lat="42.84404" lon="0.50301">
        <ele>1653.616</ele>
        <time>2022-02-27T12:24:18Z</time>
      </trkpt>
      <trkpt lat="42.84404" lon="0.50301">
        <ele>1654.083</ele>
        <time>2022-02-27T12:24:20Z</time>
      </trkpt>
      <trkpt lat="42.84404" lon="0.50301">
        <ele>1653.825</ele>
        <time>2022-02-27T12:24:22Z</time>
      </trkpt>
      <trkpt lat="42.84404" lon="0.50301">
        <ele>1653.558</ele>
        <time>2022-02-27T12:24:24Z</time>
      </trkpt>
      <trkpt lat="42.84404" lon="0.50301">
        <ele>1653.625</ele>
        <time>2022-02-27T12:24:26Z</time>
      </trkpt>
      <trkpt lat="42.84404" lon="0.50301">
        <ele>1653.619</ele>
        <time>2022-02-27T12:24:28Z</time>
      </trkpt>
      <trkpt lat="42.84404" lon="0.50301">
        <ele>1653.62</ele>
        <time>2022-02-27T12:24:30Z</time>
      </trkpt>
      <trkpt lat="42.84404" lon="0.50301">
        <ele>1653.619</ele>
        <time>2022-02-27T12:24:32Z</time>
      </trkpt>
      <trkpt lat="42.84404" lon="0.50301">
        <ele>1653.62</ele>
        <time>2022-02-27T12:24:34Z</time>
      </trkpt>
      <trkpt lat="42.84404" lon="0.50301">
        <ele>1653.628</ele>
        <time>2022-02-27T12:24:36Z</time>
      </trkpt>
      <trkpt lat="42.84404" lon="0.50301">
        <ele>1653.626</ele>
        <time>2022-02-27T12:24:38Z</time>
      </trkpt>
      <trkpt lat="42.84404" lon="0.50301">
        <ele>1653.807</ele>
        <time>2022-02-27T12:24:40Z</time>
      </trkpt>
      <trkpt lat="42.84404" lon="0.50301">
        <ele>1653.799</ele>
        <time>2022-02-27T12:24:42Z</time>
      </trkpt>
      <trkpt lat="42.84404" lon="0.50301">
        <ele>1653.772</ele>
        <time>2022-02-27T12:24:44Z</time>
      </trkpt>
      <trkpt lat="42.84404" lon="0.50301">
        <ele>1654.059</ele>
        <time>2022-02-27T12:24:46Z</time>
      </trkpt>
      <trkpt lat="42.84404" lon="0.50301">
        <ele>1654.063</ele>
        <time>2022-02-27T12:24:48Z</time>
      </trkpt>
      <trkpt lat="42.84404" lon="0.50301">
        <ele>1654.072</ele>
        <time>2022-02-27T12:24:50Z</time>
      </trkpt>
      <trkpt lat="42.84404" lon="0.50302">
        <ele>1654.074</ele>
        <time>2022-02-27T12:24:52Z</time>
      </trkpt>
      <trkpt lat="42.84404" lon="0.50302">
        <ele>1654.073</ele>
        <time>2022-02-27T12:24:54Z</time>
      </trkpt>
      <trkpt lat="42.84404" lon="0.50301">
        <ele>1654.077</ele>
        <time>2022-02-27T12:24:56Z</time>
      </trkpt>
      <trkpt lat="42.84404" lon="0.50301">
        <ele>1654.09</ele>
        <time>2022-02-27T12:24:58Z</time>
      </trkpt>
      <trkpt lat="42.84404" lon="0.50302">
        <ele>1654.097</ele>
        <time>2022-02-27T12:25:00Z</time>
      </trkpt>
      <trkpt lat="42.84404" lon="0.50302">
        <ele>1654.1</ele>
        <time>2022-02-27T12:25:02Z</time>
      </trkpt>
      <trkpt lat="42.84404" lon="0.50302">
        <ele>1654.107</ele>
        <time>2022-02-27T12:25:04Z</time>
      </trkpt>
      <trkpt lat="42.84404" lon="0.50302">
        <ele>1654.101</ele>
        <time>2022-02-27T12:25:06Z</time>
      </trkpt>
      <trkpt lat="42.84404" lon="0.50302">
        <ele>1654.096</ele>
        <time>2022-02-27T12:25:08Z</time>
      </trkpt>
      <trkpt lat="42.84404" lon="0.50302">
        <ele>1654.102</ele>
        <time>2022-02-27T12:25:10Z</time>
      </trkpt>
      <trkpt lat="42.84404" lon="0.50302">
        <ele>1654.115</ele>
        <time>2022-02-27T12:25:12Z</time>
      </trkpt>
      <trkpt lat="42.84404" lon="0.50302">
        <ele>1654.122</ele>
        <time>2022-02-27T12:25:14Z</time>
      </trkpt>
      <trkpt lat="42.84404" lon="0.50302">
        <ele>1654.13</ele>
        <time>2022-02-27T12:25:16Z</time>
      </trkpt>
      <trkpt lat="42.84404" lon="0.50302">
        <ele>1654.138</ele>
        <time>2022-02-27T12:25:18Z</time>
      </trkpt>
      <trkpt lat="42.84404" lon="0.50301">
        <ele>1654.631</ele>
        <time>2022-02-27T12:25:20Z</time>
      </trkpt>
      <trkpt lat="42.84404" lon="0.50301">
        <ele>1654.864</ele>
        <time>2022-02-27T12:25:22Z</time>
      </trkpt>
      <trkpt lat="42.84404" lon="0.50301">
        <ele>1654.87</ele>
        <time>2022-02-27T12:25:24Z</time>
      </trkpt>
      <trkpt lat="42.84404" lon="0.50301">
        <ele>1654.874</ele>
        <time>2022-02-27T12:25:26Z</time>
      </trkpt>
      <trkpt lat="42.84404" lon="0.50301">
        <ele>1654.883</ele>
        <time>2022-02-27T12:25:28Z</time>
      </trkpt>
      <trkpt lat="42.84404" lon="0.50301">
        <ele>1654.881</ele>
        <time>2022-02-27T12:25:30Z</time>
      </trkpt>
      <trkpt lat="42.84404" lon="0.50301">
        <ele>1654.879</ele>
        <time>2022-02-27T12:25:32Z</time>
      </trkpt>
      <trkpt lat="42.84404" lon="0.50301">
        <ele>1654.879</ele>
        <time>2022-02-27T12:25:34Z</time>
      </trkpt>
      <trkpt lat="42.84404" lon="0.50301">
        <ele>1654.875</ele>
        <time>2022-02-27T12:25:36Z</time>
      </trkpt>
      <trkpt lat="42.84404" lon="0.50301">
        <ele>1654.865</ele>
        <time>2022-02-27T12:25:38Z</time>
      </trkpt>
      <trkpt lat="42.84404" lon="0.50301">
        <ele>1654.852</ele>
        <time>2022-02-27T12:25:40Z</time>
      </trkpt>
      <trkpt lat="42.84404" lon="0.50301">
        <ele>1654.852</ele>
        <time>2022-02-27T12:25:42Z</time>
      </trkpt>
      <trkpt lat="42.84404" lon="0.50301">
        <ele>1654.853</ele>
        <time>2022-02-27T12:25:44Z</time>
      </trkpt>
      <trkpt lat="42.84404" lon="0.50301">
        <ele>1654.847</ele>
        <time>2022-02-27T12:25:46Z</time>
      </trkpt>
      <trkpt lat="42.84404" lon="0.50301">
        <ele>1654.846</ele>
        <time>2022-02-27T12:25:48Z</time>
      </trkpt>
      <trkpt lat="42.84404" lon="0.50301">
        <ele>1654.844</ele>
        <time>2022-02-27T12:25:50Z</time>
      </trkpt>
      <trkpt lat="42.84404" lon="0.50301">
        <ele>1654.849</ele>
        <time>2022-02-27T12:25:52Z</time>
      </trkpt>
      <trkpt lat="42.84404" lon="0.50301">
        <ele>1654.856</ele>
        <time>2022-02-27T12:25:54Z</time>
      </trkpt>
      <trkpt lat="42.84404" lon="0.50301">
        <ele>1654.859</ele>
        <time>2022-02-27T12:25:56Z</time>
      </trkpt>
      <trkpt lat="42.84404" lon="0.50301">
        <ele>1654.862</ele>
        <time>2022-02-27T12:25:58Z</time>
      </trkpt>
      <trkpt lat="42.84404" lon="0.50301">
        <ele>1654.865</ele>
        <time>2022-02-27T12:26:00Z</time>
      </trkpt>
      <trkpt lat="42.84404" lon="0.50301">
        <ele>1654.87</ele>
        <time>2022-02-27T12:26:02Z</time>
      </trkpt>
      <trkpt lat="42.84404" lon="0.50301">
        <ele>1654.874</ele>
        <time>2022-02-27T12:26:04Z</time>
      </trkpt>
      <trkpt lat="42.84404" lon="0.50301">
        <ele>1654.876</ele>
        <time>2022-02-27T12:26:06Z</time>
      </trkpt>
      <trkpt lat="42.84404" lon="0.50301">
        <ele>1654.88</ele>
        <time>2022-02-27T12:26:08Z</time>
      </trkpt>
      <trkpt lat="42.84404" lon="0.50301">
        <ele>1654.879</ele>
        <time>2022-02-27T12:26:10Z</time>
      </trkpt>
      <trkpt lat="42.84404" lon="0.50301">
        <ele>1654.869</ele>
        <time>2022-02-27T12:26:12Z</time>
      </trkpt>
      <trkpt lat="42.84404" lon="0.50301">
        <ele>1654.868</ele>
        <time>2022-02-27T12:26:14Z</time>
      </trkpt>
      <trkpt lat="42.84404" lon="0.50301">
        <ele>1654.591</ele>
        <time>2022-02-27T12:26:16Z</time>
      </trkpt>
      <trkpt lat="42.84404" lon="0.50301">
        <ele>1654.587</ele>
        <time>2022-02-27T12:26:18Z</time>
      </trkpt>
      <trkpt lat="42.84404" lon="0.50301">
        <ele>1654.585</ele>
        <time>2022-02-27T12:26:20Z</time>
      </trkpt>
      <trkpt lat="42.84404" lon="0.50301">
        <ele>1654.591</ele>
        <time>2022-02-27T12:26:22Z</time>
      </trkpt>
      <trkpt lat="42.84404" lon="0.50301">
        <ele>1654.592</ele>
        <time>2022-02-27T12:26:24Z</time>
      </trkpt>
      <trkpt lat="42.84405" lon="0.50301">
        <ele>1654.293</ele>
        <time>2022-02-27T12:26:26Z</time>
      </trkpt>
      <trkpt lat="42.84405" lon="0.50301">
        <ele>1654.289</ele>
        <time>2022-02-27T12:26:28Z</time>
      </trkpt>
      <trkpt lat="42.84405" lon="0.50301">
        <ele>1654.284</ele>
        <time>2022-02-27T12:26:30Z</time>
      </trkpt>
      <trkpt lat="42.84405" lon="0.50301">
        <ele>1654.284</ele>
        <time>2022-02-27T12:26:32Z</time>
      </trkpt>
      <trkpt lat="42.84405" lon="0.50301">
        <ele>1654.288</ele>
        <time>2022-02-27T12:26:34Z</time>
      </trkpt>
      <trkpt lat="42.84405" lon="0.50301">
        <ele>1654.303</ele>
        <time>2022-02-27T12:26:36Z</time>
      </trkpt>
      <trkpt lat="42.84405" lon="0.50301">
        <ele>1654.305</ele>
        <time>2022-02-27T12:26:38Z</time>
      </trkpt>
      <trkpt lat="42.84405" lon="0.50301">
        <ele>1654.293</ele>
        <time>2022-02-27T12:26:40Z</time>
      </trkpt>
      <trkpt lat="42.84405" lon="0.50301">
        <ele>1654.284</ele>
        <time>2022-02-27T12:26:42Z</time>
      </trkpt>
      <trkpt lat="42.84405" lon="0.50301">
        <ele>1654.292</ele>
        <time>2022-02-27T12:26:44Z</time>
      </trkpt>
      <trkpt lat="42.84405" lon="0.50301">
        <ele>1654.304</ele>
        <time>2022-02-27T12:26:46Z</time>
      </trkpt>
      <trkpt lat="42.84405" lon="0.50301">
        <ele>1654.305</ele>
        <time>2022-02-27T12:26:48Z</time>
      </trkpt>
      <trkpt lat="42.84405" lon="0.50301">
        <ele>1654.302</ele>
        <time>2022-02-27T12:26:50Z</time>
      </trkpt>
      <trkpt lat="42.84405" lon="0.50302">
        <ele>1654.525</ele>
        <time>2022-02-27T12:26:52Z</time>
      </trkpt>
      <trkpt lat="42.84405" lon="0.50302">
        <ele>1654.527</ele>
        <time>2022-02-27T12:26:54Z</time>
      </trkpt>
      <trkpt lat="42.84405" lon="0.50302">
        <ele>1654.526</ele>
        <time>2022-02-27T12:26:56Z</time>
      </trkpt>
      <trkpt lat="42.84405" lon="0.50302">
        <ele>1654.534</ele>
        <time>2022-02-27T12:26:58Z</time>
      </trkpt>
      <trkpt lat="42.84405" lon="0.50302">
        <ele>1654.534</ele>
        <time>2022-02-27T12:27:00Z</time>
      </trkpt>
      <trkpt lat="42.84405" lon="0.50302">
        <ele>1654.544</ele>
        <time>2022-02-27T12:27:02Z</time>
      </trkpt>
      <trkpt lat="42.84405" lon="0.50302">
        <ele>1654.548</ele>
        <time>2022-02-27T12:27:04Z</time>
      </trkpt>
      <trkpt lat="42.84405" lon="0.50302">
        <ele>1654.544</ele>
        <time>2022-02-27T12:27:06Z</time>
      </trkpt>
      <trkpt lat="42.84405" lon="0.50302">
        <ele>1654.546</ele>
        <time>2022-02-27T12:27:08Z</time>
      </trkpt>
      <trkpt lat="42.84405" lon="0.50302">
        <ele>1654.551</ele>
        <time>2022-02-27T12:27:10Z</time>
      </trkpt>
      <trkpt lat="42.84405" lon="0.50302">
        <ele>1654.555</ele>
        <time>2022-02-27T12:27:12Z</time>
      </trkpt>
      <trkpt lat="42.84405" lon="0.50302">
        <ele>1654.564</ele>
        <time>2022-02-27T12:27:14Z</time>
      </trkpt>
      <trkpt lat="42.84405" lon="0.50302">
        <ele>1654.57</ele>
        <time>2022-02-27T12:27:16Z</time>
      </trkpt>
      <trkpt lat="42.84405" lon="0.50302">
        <ele>1654.575</ele>
        <time>2022-02-27T12:27:18Z</time>
      </trkpt>
      <trkpt lat="42.84405" lon="0.50302">
        <ele>1654.577</ele>
        <time>2022-02-27T12:27:20Z</time>
      </trkpt>
      <trkpt lat="42.84405" lon="0.50302">
        <ele>1654.582</ele>
        <time>2022-02-27T12:27:22Z</time>
      </trkpt>
      <trkpt lat="42.84405" lon="0.50302">
        <ele>1654.588</ele>
        <time>2022-02-27T12:27:24Z</time>
      </trkpt>
      <trkpt lat="42.84405" lon="0.50302">
        <ele>1654.588</ele>
        <time>2022-02-27T12:27:26Z</time>
      </trkpt>
      <trkpt lat="42.84405" lon="0.50302">
        <ele>1654.596</ele>
        <time>2022-02-27T12:27:28Z</time>
      </trkpt>
      <trkpt lat="42.84405" lon="0.50302">
        <ele>1654.594</ele>
        <time>2022-02-27T12:27:30Z</time>
      </trkpt>
      <trkpt lat="42.84405" lon="0.50302">
        <ele>1654.6</ele>
        <time>2022-02-27T12:27:32Z</time>
      </trkpt>
      <trkpt lat="42.84405" lon="0.50302">
        <ele>1654.61</ele>
        <time>2022-02-27T12:27:34Z</time>
      </trkpt>
      <trkpt lat="42.84405" lon="0.50302">
        <ele>1654.618</ele>
        <time>2022-02-27T12:27:36Z</time>
      </trkpt>
      <trkpt lat="42.84405" lon="0.50302">
        <ele>1654.628</ele>
        <time>2022-02-27T12:27:38Z</time>
      </trkpt>
      <trkpt lat="42.84405" lon="0.50302">
        <ele>1654.629</ele>
        <time>2022-02-27T12:27:40Z</time>
      </trkpt>
      <trkpt lat="42.84405" lon="0.50302">
        <ele>1654.621</ele>
        <time>2022-02-27T12:27:42Z</time>
      </trkpt>
      <trkpt lat="42.84405" lon="0.50302">
        <ele>1654.615</ele>
        <time>2022-02-27T12:27:44Z</time>
      </trkpt>
      <trkpt lat="42.84405" lon="0.50302">
        <ele>1654.602</ele>
        <time>2022-02-27T12:27:46Z</time>
      </trkpt>
      <trkpt lat="42.84405" lon="0.50302">
        <ele>1654.593</ele>
        <time>2022-02-27T12:27:48Z</time>
      </trkpt>
      <trkpt lat="42.84405" lon="0.50302">
        <ele>1654.593</ele>
        <time>2022-02-27T12:27:50Z</time>
      </trkpt>
      <trkpt lat="42.84405" lon="0.50302">
        <ele>1654.581</ele>
        <time>2022-02-27T12:27:52Z</time>
      </trkpt>
      <trkpt lat="42.84405" lon="0.50302">
        <ele>1654.572</ele>
        <time>2022-02-27T12:27:54Z</time>
      </trkpt>
      <trkpt lat="42.84405" lon="0.50302">
        <ele>1654.577</ele>
        <time>2022-02-27T12:27:56Z</time>
      </trkpt>
      <trkpt lat="42.84405" lon="0.50302">
        <ele>1654.58</ele>
        <time>2022-02-27T12:27:58Z</time>
      </trkpt>
      <trkpt lat="42.84405" lon="0.50302">
        <ele>1654.588</ele>
        <time>2022-02-27T12:28:00Z</time>
      </trkpt>
      <trkpt lat="42.84405" lon="0.50302">
        <ele>1654.591</ele>
        <time>2022-02-27T12:28:02Z</time>
      </trkpt>
      <trkpt lat="42.84405" lon="0.50302">
        <ele>1654.604</ele>
        <time>2022-02-27T12:28:04Z</time>
      </trkpt>
      <trkpt lat="42.84405" lon="0.50302">
        <ele>1654.612</ele>
        <time>2022-02-27T12:28:06Z</time>
      </trkpt>
      <trkpt lat="42.84405" lon="0.50302">
        <ele>1654.623</ele>
        <time>2022-02-27T12:28:08Z</time>
      </trkpt>
      <trkpt lat="42.84405" lon="0.50302">
        <ele>1654.63</ele>
        <time>2022-02-27T12:28:10Z</time>
      </trkpt>
      <trkpt lat="42.84405" lon="0.50302">
        <ele>1654.627</ele>
        <time>2022-02-27T12:28:12Z</time>
      </trkpt>
      <trkpt lat="42.84405" lon="0.50302">
        <ele>1654.534</ele>
        <time>2022-02-27T12:28:14Z</time>
      </trkpt>
      <trkpt lat="42.84405" lon="0.50302">
        <ele>1654.545</ele>
        <time>2022-02-27T12:28:16Z</time>
      </trkpt>
      <trkpt lat="42.84405" lon="0.50302">
        <ele>1654.546</ele>
        <time>2022-02-27T12:28:18Z</time>
      </trkpt>
      <trkpt lat="42.84405" lon="0.50302">
        <ele>1654.549</ele>
        <time>2022-02-27T12:28:20Z</time>
      </trkpt>
      <trkpt lat="42.84405" lon="0.50302">
        <ele>1654.54</ele>
        <time>2022-02-27T12:28:22Z</time>
      </trkpt>
      <trkpt lat="42.84405" lon="0.50302">
        <ele>1654.535</ele>
        <time>2022-02-27T12:28:24Z</time>
      </trkpt>
      <trkpt lat="42.84405" lon="0.50302">
        <ele>1654.534</ele>
        <time>2022-02-27T12:28:26Z</time>
      </trkpt>
      <trkpt lat="42.84405" lon="0.50302">
        <ele>1654.538</ele>
        <time>2022-02-27T12:28:28Z</time>
      </trkpt>
      <trkpt lat="42.84405" lon="0.50302">
        <ele>1654.534</ele>
        <time>2022-02-27T12:28:30Z</time>
      </trkpt>
      <trkpt lat="42.84405" lon="0.50302">
        <ele>1654.526</ele>
        <time>2022-02-27T12:28:32Z</time>
      </trkpt>
      <trkpt lat="42.84405" lon="0.50302">
        <ele>1654.525</ele>
        <time>2022-02-27T12:28:34Z</time>
      </trkpt>
      <trkpt lat="42.84405" lon="0.50302">
        <ele>1654.531</ele>
        <time>2022-02-27T12:28:36Z</time>
      </trkpt>
      <trkpt lat="42.84405" lon="0.50302">
        <ele>1654.531</ele>
        <time>2022-02-27T12:28:38Z</time>
      </trkpt>
      <trkpt lat="42.84405" lon="0.50302">
        <ele>1654.533</ele>
        <time>2022-02-27T12:28:40Z</time>
      </trkpt>
      <trkpt lat="42.84405" lon="0.50302">
        <ele>1654.536</ele>
        <time>2022-02-27T12:28:42Z</time>
      </trkpt>
      <trkpt lat="42.84405" lon="0.50302">
        <ele>1654.525</ele>
        <time>2022-02-27T12:28:44Z</time>
      </trkpt>
      <trkpt lat="42.84405" lon="0.50302">
        <ele>1654.53</ele>
        <time>2022-02-27T12:28:46Z</time>
      </trkpt>
      <trkpt lat="42.84405" lon="0.50302">
        <ele>1654.913</ele>
        <time>2022-02-27T12:28:48Z</time>
      </trkpt>
      <trkpt lat="42.84405" lon="0.50302">
        <ele>1654.9</ele>
        <time>2022-02-27T12:28:50Z</time>
      </trkpt>
      <trkpt lat="42.84405" lon="0.50302">
        <ele>1654.902</ele>
        <time>2022-02-27T12:28:52Z</time>
      </trkpt>
      <trkpt lat="42.84405" lon="0.50302">
        <ele>1654.903</ele>
        <time>2022-02-27T12:28:54Z</time>
      </trkpt>
      <trkpt lat="42.84405" lon="0.50302">
        <ele>1654.904</ele>
        <time>2022-02-27T12:28:56Z</time>
      </trkpt>
      <trkpt lat="42.84405" lon="0.50302">
        <ele>1654.909</ele>
        <time>2022-02-27T12:28:58Z</time>
      </trkpt>
      <trkpt lat="42.84405" lon="0.50302">
        <ele>1654.91</ele>
        <time>2022-02-27T12:29:00Z</time>
      </trkpt>
      <trkpt lat="42.84405" lon="0.50302">
        <ele>1654.57</ele>
        <time>2022-02-27T12:29:02Z</time>
      </trkpt>
      <trkpt lat="42.84405" lon="0.50302">
        <ele>1654.538</ele>
        <time>2022-02-27T12:29:04Z</time>
      </trkpt>
      <trkpt lat="42.84405" lon="0.50302">
        <ele>1654.534</ele>
        <time>2022-02-27T12:29:06Z</time>
      </trkpt>
      <trkpt lat="42.84405" lon="0.50302">
        <ele>1654.52</ele>
        <time>2022-02-27T12:29:08Z</time>
      </trkpt>
      <trkpt lat="42.84404" lon="0.50302">
        <ele>1653.195</ele>
        <time>2022-02-27T12:29:10Z</time>
      </trkpt>
      <trkpt lat="42.84403" lon="0.50302">
        <ele>1652.79</ele>
        <time>2022-02-27T12:29:12Z</time>
      </trkpt>
      <trkpt lat="42.84403" lon="0.50302">
        <ele>1652.764</ele>
        <time>2022-02-27T12:29:14Z</time>
      </trkpt>
      <trkpt lat="42.84403" lon="0.50302">
        <ele>1652.742</ele>
        <time>2022-02-27T12:29:16Z</time>
      </trkpt>
      <trkpt lat="42.84403" lon="0.50302">
        <ele>1652.729</ele>
        <time>2022-02-27T12:29:18Z</time>
      </trkpt>
      <trkpt lat="42.84403" lon="0.50302">
        <ele>1652.721</ele>
        <time>2022-02-27T12:29:20Z</time>
      </trkpt>
      <trkpt lat="42.84403" lon="0.50302">
        <ele>1652.711</ele>
        <time>2022-02-27T12:29:22Z</time>
      </trkpt>
      <trkpt lat="42.84403" lon="0.50302">
        <ele>1652.708</ele>
        <time>2022-02-27T12:29:24Z</time>
      </trkpt>
      <trkpt lat="42.84403" lon="0.50302">
        <ele>1652.699</ele>
        <time>2022-02-27T12:29:26Z</time>
      </trkpt>
      <trkpt lat="42.84403" lon="0.50302">
        <ele>1652.68</ele>
        <time>2022-02-27T12:29:28Z</time>
      </trkpt>
      <trkpt lat="42.84403" lon="0.50302">
        <ele>1652.656</ele>
        <time>2022-02-27T12:29:30Z</time>
      </trkpt>
      <trkpt lat="42.84403" lon="0.50302">
        <ele>1652.643</ele>
        <time>2022-02-27T12:29:32Z</time>
      </trkpt>
      <trkpt lat="42.84403" lon="0.50302">
        <ele>1652.621</ele>
        <time>2022-02-27T12:29:34Z</time>
      </trkpt>
      <trkpt lat="42.84402" lon="0.50301">
        <ele>1652.318</ele>
        <time>2022-02-27T12:29:36Z</time>
      </trkpt>
      <trkpt lat="42.84402" lon="0.50301">
        <ele>1652.298</ele>
        <time>2022-02-27T12:29:38Z</time>
      </trkpt>
      <trkpt lat="42.84402" lon="0.50301">
        <ele>1652.287</ele>
        <time>2022-02-27T12:29:40Z</time>
      </trkpt>
      <trkpt lat="42.84402" lon="0.50301">
        <ele>1651.726</ele>
        <time>2022-02-27T12:29:42Z</time>
      </trkpt>
      <trkpt lat="42.84402" lon="0.50301">
        <ele>1651.625</ele>
        <time>2022-02-27T12:29:44Z</time>
      </trkpt>
      <trkpt lat="42.84402" lon="0.50301">
        <ele>1651.61</ele>
        <time>2022-02-27T12:29:46Z</time>
      </trkpt>
      <trkpt lat="42.84402" lon="0.50301">
        <ele>1651.243</ele>
        <time>2022-02-27T12:29:48Z</time>
      </trkpt>
      <trkpt lat="42.84402" lon="0.50301">
        <ele>1651.226</ele>
        <time>2022-02-27T12:29:50Z</time>
      </trkpt>
      <trkpt lat="42.84402" lon="0.503">
        <ele>1651.426</ele>
        <time>2022-02-27T12:29:52Z</time>
      </trkpt>
      <trkpt lat="42.84402" lon="0.503">
        <ele>1651.403</ele>
        <time>2022-02-27T12:29:54Z</time>
      </trkpt>
      <trkpt lat="42.84402" lon="0.503">
        <ele>1650.689</ele>
        <time>2022-02-27T12:29:56Z</time>
      </trkpt>
      <trkpt lat="42.84402" lon="0.503">
        <ele>1650.691</ele>
        <time>2022-02-27T12:29:58Z</time>
      </trkpt>
      <trkpt lat="42.84402" lon="0.503">
        <ele>1650.085</ele>
        <time>2022-02-27T12:30:00Z</time>
      </trkpt>
      <trkpt lat="42.84402" lon="0.503">
        <ele>1650.044</ele>
        <time>2022-02-27T12:30:02Z</time>
      </trkpt>
      <trkpt lat="42.84402" lon="0.503">
        <ele>1650.031</ele>
        <time>2022-02-27T12:30:04Z</time>
      </trkpt>
      <trkpt lat="42.84402" lon="0.503">
        <ele>1650.024</ele>
        <time>2022-02-27T12:30:06Z</time>
      </trkpt>
      <trkpt lat="42.84402" lon="0.503">
        <ele>1650.017</ele>
        <time>2022-02-27T12:30:08Z</time>
      </trkpt>
      <trkpt lat="42.84402" lon="0.503">
        <ele>1650.016</ele>
        <time>2022-02-27T12:30:10Z</time>
      </trkpt>
      <trkpt lat="42.84402" lon="0.503">
        <ele>1650.146</ele>
        <time>2022-02-27T12:30:12Z</time>
      </trkpt>
      <trkpt lat="42.84402" lon="0.50299">
        <ele>1649.873</ele>
        <time>2022-02-27T12:30:14Z</time>
      </trkpt>
      <trkpt lat="42.84403" lon="0.50299">
        <ele>1649.87</ele>
        <time>2022-02-27T12:30:16Z</time>
      </trkpt>
      <trkpt lat="42.84403" lon="0.50299">
        <ele>1649.861</ele>
        <time>2022-02-27T12:30:18Z</time>
      </trkpt>
      <trkpt lat="42.84403" lon="0.50299">
        <ele>1649.865</ele>
        <time>2022-02-27T12:30:20Z</time>
      </trkpt>
      <trkpt lat="42.84403" lon="0.50299">
        <ele>1649.855</ele>
        <time>2022-02-27T12:30:22Z</time>
      </trkpt>
      <trkpt lat="42.84403" lon="0.50299">
        <ele>1649.852</ele>
        <time>2022-02-27T12:30:24Z</time>
      </trkpt>
      <trkpt lat="42.84403" lon="0.50299">
        <ele>1649.856</ele>
        <time>2022-02-27T12:30:26Z</time>
      </trkpt>
      <trkpt lat="42.84403" lon="0.50299">
        <ele>1649.857</ele>
        <time>2022-02-27T12:30:28Z</time>
      </trkpt>
      <trkpt lat="42.84403" lon="0.50299">
        <ele>1649.86</ele>
        <time>2022-02-27T12:30:30Z</time>
      </trkpt>
      <trkpt lat="42.84403" lon="0.50299">
        <ele>1649.865</ele>
        <time>2022-02-27T12:30:32Z</time>
      </trkpt>
      <trkpt lat="42.84403" lon="0.50299">
        <ele>1649.872</ele>
        <time>2022-02-27T12:30:34Z</time>
      </trkpt>
      <trkpt lat="42.84403" lon="0.50299">
        <ele>1649.877</ele>
        <time>2022-02-27T12:30:36Z</time>
      </trkpt>
      <trkpt lat="42.84403" lon="0.50299">
        <ele>1650.277</ele>
        <time>2022-02-27T12:30:38Z</time>
      </trkpt>
      <trkpt lat="42.84403" lon="0.50299">
        <ele>1649.834</ele>
        <time>2022-02-27T12:30:40Z</time>
      </trkpt>
      <trkpt lat="42.84403" lon="0.50297">
        <ele>1648.637</ele>
        <time>2022-02-27T12:30:42Z</time>
      </trkpt>
      <trkpt lat="42.84403" lon="0.50297">
        <ele>1648.637</ele>
        <time>2022-02-27T12:30:44Z</time>
      </trkpt>
      <trkpt lat="42.84403" lon="0.50297">
        <ele>1648.623</ele>
        <time>2022-02-27T12:30:46Z</time>
      </trkpt>
      <trkpt lat="42.84403" lon="0.50297">
        <ele>1648.614</ele>
        <time>2022-02-27T12:30:48Z</time>
      </trkpt>
      <trkpt lat="42.84403" lon="0.50297">
        <ele>1648.615</ele>
        <time>2022-02-27T12:30:50Z</time>
      </trkpt>
      <trkpt lat="42.84403" lon="0.50297">
        <ele>1648.618</ele>
        <time>2022-02-27T12:30:52Z</time>
      </trkpt>
      <trkpt lat="42.84403" lon="0.50297">
        <ele>1648.619</ele>
        <time>2022-02-27T12:30:54Z</time>
      </trkpt>
      <trkpt lat="42.84403" lon="0.50297">
        <ele>1648.625</ele>
        <time>2022-02-27T12:30:56Z</time>
      </trkpt>
      <trkpt lat="42.84403" lon="0.50296">
        <ele>1647.989</ele>
        <time>2022-02-27T12:30:58Z</time>
      </trkpt>
      <trkpt lat="42.84403" lon="0.50296">
        <ele>1647.974</ele>
        <time>2022-02-27T12:31:00Z</time>
      </trkpt>
      <trkpt lat="42.84403" lon="0.50296">
        <ele>1647.972</ele>
        <time>2022-02-27T12:31:02Z</time>
      </trkpt>
      <trkpt lat="42.84403" lon="0.50296">
        <ele>1647.975</ele>
        <time>2022-02-27T12:31:04Z</time>
      </trkpt>
      <trkpt lat="42.84403" lon="0.50296">
        <ele>1647.963</ele>
        <time>2022-02-27T12:31:06Z</time>
      </trkpt>
      <trkpt lat="42.84403" lon="0.50296">
        <ele>1647.963</ele>
        <time>2022-02-27T12:31:08Z</time>
      </trkpt>
      <trkpt lat="42.84403" lon="0.50296">
        <ele>1648.256</ele>
        <time>2022-02-27T12:31:10Z</time>
      </trkpt>
      <trkpt lat="42.84402" lon="0.50296">
        <ele>1647.819</ele>
        <time>2022-02-27T12:31:12Z</time>
      </trkpt>
      <trkpt lat="42.84402" lon="0.50296">
        <ele>1647.821</ele>
        <time>2022-02-27T12:31:14Z</time>
      </trkpt>
      <trkpt lat="42.84402" lon="0.50296">
        <ele>1647.82</ele>
        <time>2022-02-27T12:31:16Z</time>
      </trkpt>
      <trkpt lat="42.84402" lon="0.50295">
        <ele>1647.481</ele>
        <time>2022-02-27T12:31:18Z</time>
      </trkpt>
      <trkpt lat="42.84402" lon="0.50295">
        <ele>1647.382</ele>
        <time>2022-02-27T12:31:20Z</time>
      </trkpt>
      <trkpt lat="42.84402" lon="0.50295">
        <ele>1647.377</ele>
        <time>2022-02-27T12:31:22Z</time>
      </trkpt>
      <trkpt lat="42.84402" lon="0.50295">
        <ele>1647.391</ele>
        <time>2022-02-27T12:31:24Z</time>
      </trkpt>
      <trkpt lat="42.84401" lon="0.50295">
        <ele>1647.388</ele>
        <time>2022-02-27T12:31:26Z</time>
      </trkpt>
      <trkpt lat="42.84401" lon="0.50295">
        <ele>1647.376</ele>
        <time>2022-02-27T12:31:28Z</time>
      </trkpt>
      <trkpt lat="42.84401" lon="0.50295">
        <ele>1647.367</ele>
        <time>2022-02-27T12:31:30Z</time>
      </trkpt>
      <trkpt lat="42.84401" lon="0.50295">
        <ele>1647.358</ele>
        <time>2022-02-27T12:31:32Z</time>
      </trkpt>
      <trkpt lat="42.84401" lon="0.50295">
        <ele>1647.363</ele>
        <time>2022-02-27T12:31:34Z</time>
      </trkpt>
      <trkpt lat="42.84401" lon="0.50295">
        <ele>1647.359</ele>
        <time>2022-02-27T12:31:36Z</time>
      </trkpt>
      <trkpt lat="42.84401" lon="0.50295">
        <ele>1647.357</ele>
        <time>2022-02-27T12:31:38Z</time>
      </trkpt>
      <trkpt lat="42.84401" lon="0.50295">
        <ele>1647.349</ele>
        <time>2022-02-27T12:31:40Z</time>
      </trkpt>
      <trkpt lat="42.84401" lon="0.50295">
        <ele>1647.344</ele>
        <time>2022-02-27T12:31:42Z</time>
      </trkpt>
      <trkpt lat="42.84401" lon="0.50295">
        <ele>1647.346</ele>
        <time>2022-02-27T12:31:44Z</time>
      </trkpt>
      <trkpt lat="42.84401" lon="0.50295">
        <ele>1647.338</ele>
        <time>2022-02-27T12:31:46Z</time>
      </trkpt>
      <trkpt lat="42.84401" lon="0.50295">
        <ele>1647.33</ele>
        <time>2022-02-27T12:31:48Z</time>
      </trkpt>
      <trkpt lat="42.84401" lon="0.50295">
        <ele>1647.33</ele>
        <time>2022-02-27T12:31:50Z</time>
      </trkpt>
      <trkpt lat="42.84401" lon="0.50295">
        <ele>1647.331</ele>
        <time>2022-02-27T12:31:52Z</time>
      </trkpt>
      <trkpt lat="42.84401" lon="0.50295">
        <ele>1647.331</ele>
        <time>2022-02-27T12:31:54Z</time>
      </trkpt>
      <trkpt lat="42.84401" lon="0.50295">
        <ele>1647.337</ele>
        <time>2022-02-27T12:31:56Z</time>
      </trkpt>
      <trkpt lat="42.84401" lon="0.50295">
        <ele>1647.343</ele>
        <time>2022-02-27T12:31:58Z</time>
      </trkpt>
      <trkpt lat="42.84401" lon="0.50295">
        <ele>1647.333</ele>
        <time>2022-02-27T12:32:00Z</time>
      </trkpt>
      <trkpt lat="42.84401" lon="0.50295">
        <ele>1647.343</ele>
        <time>2022-02-27T12:32:02Z</time>
      </trkpt>
      <trkpt lat="42.84401" lon="0.50295">
        <ele>1647.348</ele>
        <time>2022-02-27T12:32:04Z</time>
      </trkpt>
      <trkpt lat="42.84401" lon="0.50295">
        <ele>1647.489</ele>
        <time>2022-02-27T12:32:06Z</time>
      </trkpt>
      <trkpt lat="42.84401" lon="0.50295">
        <ele>1647.113</ele>
        <time>2022-02-27T12:32:08Z</time>
      </trkpt>
      <trkpt lat="42.84401" lon="0.50296">
        <ele>1647.459</ele>
        <time>2022-02-27T12:32:10Z</time>
      </trkpt>
      <trkpt lat="42.844" lon="0.50296">
        <ele>1647.587</ele>
        <time>2022-02-27T12:32:12Z</time>
      </trkpt>
      <trkpt lat="42.844" lon="0.50296">
        <ele>1647.577</ele>
        <time>2022-02-27T12:32:14Z</time>
      </trkpt>
      <trkpt lat="42.844" lon="0.50296">
        <ele>1647.572</ele>
        <time>2022-02-27T12:32:16Z</time>
      </trkpt>
      <trkpt lat="42.844" lon="0.50296">
        <ele>1647.578</ele>
        <time>2022-02-27T12:32:18Z</time>
      </trkpt>
      <trkpt lat="42.844" lon="0.50296">
        <ele>1647.657</ele>
        <time>2022-02-27T12:32:20Z</time>
      </trkpt>
      <trkpt lat="42.84401" lon="0.50296">
        <ele>1647.616</ele>
        <time>2022-02-27T12:32:22Z</time>
      </trkpt>
      <trkpt lat="42.84401" lon="0.50296">
        <ele>1647.629</ele>
        <time>2022-02-27T12:32:24Z</time>
      </trkpt>
      <trkpt lat="42.84401" lon="0.50296">
        <ele>1647.623</ele>
        <time>2022-02-27T12:32:26Z</time>
      </trkpt>
      <trkpt lat="42.844" lon="0.50295">
        <ele>1647.518</ele>
        <time>2022-02-27T12:32:28Z</time>
      </trkpt>
      <trkpt lat="42.844" lon="0.50296">
        <ele>1647.556</ele>
        <time>2022-02-27T12:32:30Z</time>
      </trkpt>
      <trkpt lat="42.844" lon="0.50296">
        <ele>1647.549</ele>
        <time>2022-02-27T12:32:32Z</time>
      </trkpt>
      <trkpt lat="42.844" lon="0.50296">
        <ele>1647.546</ele>
        <time>2022-02-27T12:32:34Z</time>
      </trkpt>
      <trkpt lat="42.844" lon="0.50296">
        <ele>1647.557</ele>
        <time>2022-02-27T12:32:36Z</time>
      </trkpt>
      <trkpt lat="42.844" lon="0.50296">
        <ele>1647.568</ele>
        <time>2022-02-27T12:32:38Z</time>
      </trkpt>
      <trkpt lat="42.844" lon="0.50296">
        <ele>1647.577</ele>
        <time>2022-02-27T12:32:40Z</time>
      </trkpt>
      <trkpt lat="42.84401" lon="0.50296">
        <ele>1647.593</ele>
        <time>2022-02-27T12:32:42Z</time>
      </trkpt>
      <trkpt lat="42.84401" lon="0.50296">
        <ele>1647.762</ele>
        <time>2022-02-27T12:32:44Z</time>
      </trkpt>
      <trkpt lat="42.84401" lon="0.50296">
        <ele>1647.87</ele>
        <time>2022-02-27T12:32:46Z</time>
      </trkpt>
      <trkpt lat="42.844" lon="0.50297">
        <ele>1648.322</ele>
        <time>2022-02-27T12:32:48Z</time>
      </trkpt>
      <trkpt lat="42.84399" lon="0.50298">
        <ele>1648.847</ele>
        <time>2022-02-27T12:32:50Z</time>
      </trkpt>
      <trkpt lat="42.84399" lon="0.503">
        <ele>1648.979</ele>
        <time>2022-02-27T12:32:52Z</time>
      </trkpt>
      <trkpt lat="42.84399" lon="0.50302">
        <ele>1648.034</ele>
        <time>2022-02-27T12:32:55Z</time>
      </trkpt>
      <trkpt lat="42.84398" lon="0.50304">
        <ele>1646.848</ele>
        <time>2022-02-27T12:32:57Z</time>
      </trkpt>
      <trkpt lat="42.84397" lon="0.50305">
        <ele>1646.29</ele>
        <time>2022-02-27T12:32:59Z</time>
      </trkpt>
      <trkpt lat="42.84397" lon="0.50307">
        <ele>1646.126</ele>
        <time>2022-02-27T12:33:01Z</time>
      </trkpt>
      <trkpt lat="42.84396" lon="0.50309">
        <ele>1645.522</ele>
        <time>2022-02-27T12:33:03Z</time>
      </trkpt>
      <trkpt lat="42.84396" lon="0.50311">
        <ele>1645.491</ele>
        <time>2022-02-27T12:33:05Z</time>
      </trkpt>
      <trkpt lat="42.84396" lon="0.50312">
        <ele>1645.385</ele>
        <time>2022-02-27T12:33:07Z</time>
      </trkpt>
      <trkpt lat="42.84397" lon="0.50314">
        <ele>1645.787</ele>
        <time>2022-02-27T12:33:09Z</time>
      </trkpt>
      <trkpt lat="42.84397" lon="0.50315">
        <ele>1645.645</ele>
        <time>2022-02-27T12:33:11Z</time>
      </trkpt>
      <trkpt lat="42.84398" lon="0.50316">
        <ele>1646.151</ele>
        <time>2022-02-27T12:33:13Z</time>
      </trkpt>
      <trkpt lat="42.84398" lon="0.50319">
        <ele>1647.548</ele>
        <time>2022-02-27T12:33:15Z</time>
      </trkpt>
      <trkpt lat="42.84399" lon="0.50321">
        <ele>1649.067</ele>
        <time>2022-02-27T12:33:17Z</time>
      </trkpt>
      <trkpt lat="42.84399" lon="0.50323">
        <ele>1648.141</ele>
        <time>2022-02-27T12:33:19Z</time>
      </trkpt>
      <trkpt lat="42.844" lon="0.50325">
        <ele>1646.676</ele>
        <time>2022-02-27T12:33:21Z</time>
      </trkpt>
      <trkpt lat="42.844" lon="0.50327">
        <ele>1647.413</ele>
        <time>2022-02-27T12:33:23Z</time>
      </trkpt>
      <trkpt lat="42.84401" lon="0.50329">
        <ele>1646.514</ele>
        <time>2022-02-27T12:33:25Z</time>
      </trkpt>
      <trkpt lat="42.84401" lon="0.5033">
        <ele>1644.414</ele>
        <time>2022-02-27T12:33:27Z</time>
      </trkpt>
      <trkpt lat="42.84401" lon="0.50332">
        <ele>1643.382</ele>
        <time>2022-02-27T12:33:29Z</time>
      </trkpt>
      <trkpt lat="42.84402" lon="0.50332">
        <ele>1642.197</ele>
        <time>2022-02-27T12:33:31Z</time>
      </trkpt>
      <trkpt lat="42.84403" lon="0.50334">
        <ele>1642.475</ele>
        <time>2022-02-27T12:33:33Z</time>
      </trkpt>
      <trkpt lat="42.84404" lon="0.50335">
        <ele>1643.214</ele>
        <time>2022-02-27T12:33:35Z</time>
      </trkpt>
      <trkpt lat="42.84405" lon="0.50334">
        <ele>1642.619</ele>
        <time>2022-02-27T12:33:37Z</time>
      </trkpt>
      <trkpt lat="42.84407" lon="0.50335">
        <ele>1641.673</ele>
        <time>2022-02-27T12:33:39Z</time>
      </trkpt>
      <trkpt lat="42.84409" lon="0.50335">
        <ele>1641.531</ele>
        <time>2022-02-27T12:33:41Z</time>
      </trkpt>
      <trkpt lat="42.84411" lon="0.50334">
        <ele>1640.813</ele>
        <time>2022-02-27T12:33:43Z</time>
      </trkpt>
      <trkpt lat="42.84412" lon="0.50334">
        <ele>1641.273</ele>
        <time>2022-02-27T12:33:45Z</time>
      </trkpt>
      <trkpt lat="42.84414" lon="0.50334">
        <ele>1640.402</ele>
        <time>2022-02-27T12:33:47Z</time>
      </trkpt>
      <trkpt lat="42.84417" lon="0.50334">
        <ele>1640.134</ele>
        <time>2022-02-27T12:33:49Z</time>
      </trkpt>
      <trkpt lat="42.84419" lon="0.50335">
        <ele>1639.981</ele>
        <time>2022-02-27T12:33:51Z</time>
      </trkpt>
      <trkpt lat="42.8442" lon="0.50336">
        <ele>1640.724</ele>
        <time>2022-02-27T12:33:53Z</time>
      </trkpt>
      <trkpt lat="42.84421" lon="0.50337">
        <ele>1641.512</ele>
        <time>2022-02-27T12:33:55Z</time>
      </trkpt>
      <trkpt lat="42.84422" lon="0.50338">
        <ele>1641.615</ele>
        <time>2022-02-27T12:33:57Z</time>
      </trkpt>
      <trkpt lat="42.84424" lon="0.50339">
        <ele>1641.993</ele>
        <time>2022-02-27T12:33:59Z</time>
      </trkpt>
      <trkpt lat="42.84426" lon="0.50339">
        <ele>1641.028</ele>
        <time>2022-02-27T12:34:01Z</time>
      </trkpt>
      <trkpt lat="42.84427" lon="0.50339">
        <ele>1640.7</ele>
        <time>2022-02-27T12:34:03Z</time>
      </trkpt>
      <trkpt lat="42.84429" lon="0.5034">
        <ele>1639.209</ele>
        <time>2022-02-27T12:34:05Z</time>
      </trkpt>
      <trkpt lat="42.84431" lon="0.5034">
        <ele>1638.828</ele>
        <time>2022-02-27T12:34:07Z</time>
      </trkpt>
      <trkpt lat="42.84433" lon="0.5034">
        <ele>1638.917</ele>
        <time>2022-02-27T12:34:09Z</time>
      </trkpt>
      <trkpt lat="42.84435" lon="0.50341">
        <ele>1638.381</ele>
        <time>2022-02-27T12:34:11Z</time>
      </trkpt>
      <trkpt lat="42.84437" lon="0.50341">
        <ele>1637.154</ele>
        <time>2022-02-27T12:34:13Z</time>
      </trkpt>
      <trkpt lat="42.84439" lon="0.5034">
        <ele>1636.974</ele>
        <time>2022-02-27T12:34:15Z</time>
      </trkpt>
      <trkpt lat="42.8444" lon="0.50339">
        <ele>1636.714</ele>
        <time>2022-02-27T12:34:17Z</time>
      </trkpt>
      <trkpt lat="42.84442" lon="0.50338">
        <ele>1635.369</ele>
        <time>2022-02-27T12:34:19Z</time>
      </trkpt>
      <trkpt lat="42.84443" lon="0.50337">
        <ele>1636.651</ele>
        <time>2022-02-27T12:34:21Z</time>
      </trkpt>
      <trkpt lat="42.84445" lon="0.50336">
        <ele>1635.734</ele>
        <time>2022-02-27T12:34:23Z</time>
      </trkpt>
      <trkpt lat="42.84447" lon="0.50336">
        <ele>1633.712</ele>
        <time>2022-02-27T12:34:25Z</time>
      </trkpt>
      <trkpt lat="42.84448" lon="0.50335">
        <ele>1632.836</ele>
        <time>2022-02-27T12:34:27Z</time>
      </trkpt>
      <trkpt lat="42.8445" lon="0.50334">
        <ele>1632.242</ele>
        <time>2022-02-27T12:34:29Z</time>
      </trkpt>
      <trkpt lat="42.84451" lon="0.50333">
        <ele>1629.891</ele>
        <time>2022-02-27T12:34:31Z</time>
      </trkpt>
      <trkpt lat="42.84452" lon="0.50332">
        <ele>1628.835</ele>
        <time>2022-02-27T12:34:33Z</time>
      </trkpt>
      <trkpt lat="42.84454" lon="0.50332">
        <ele>1627.488</ele>
        <time>2022-02-27T12:34:35Z</time>
      </trkpt>
      <trkpt lat="42.84456" lon="0.50331">
        <ele>1626.739</ele>
        <time>2022-02-27T12:34:37Z</time>
      </trkpt>
      <trkpt lat="42.84457" lon="0.50331">
        <ele>1626.706</ele>
        <time>2022-02-27T12:34:39Z</time>
      </trkpt>
      <trkpt lat="42.84458" lon="0.5033">
        <ele>1626.527</ele>
        <time>2022-02-27T12:34:41Z</time>
      </trkpt>
      <trkpt lat="42.84458" lon="0.5033">
        <ele>1626.352</ele>
        <time>2022-02-27T12:34:43Z</time>
      </trkpt>
      <trkpt lat="42.84458" lon="0.5033">
        <ele>1626.359</ele>
        <time>2022-02-27T12:34:45Z</time>
      </trkpt>
      <trkpt lat="42.84459" lon="0.50331">
        <ele>1626.317</ele>
        <time>2022-02-27T12:34:47Z</time>
      </trkpt>
      <trkpt lat="42.84461" lon="0.50331">
        <ele>1626.117</ele>
        <time>2022-02-27T12:34:49Z</time>
      </trkpt>
      <trkpt lat="42.84463" lon="0.50332">
        <ele>1625.876</ele>
        <time>2022-02-27T12:34:51Z</time>
      </trkpt>
      <trkpt lat="42.84464" lon="0.50333">
        <ele>1626.232</ele>
        <time>2022-02-27T12:34:53Z</time>
      </trkpt>
      <trkpt lat="42.84465" lon="0.50334">
        <ele>1626.619</ele>
        <time>2022-02-27T12:34:55Z</time>
      </trkpt>
      <trkpt lat="42.84466" lon="0.50336">
        <ele>1627.151</ele>
        <time>2022-02-27T12:34:57Z</time>
      </trkpt>
      <trkpt lat="42.84467" lon="0.50338">
        <ele>1627.979</ele>
        <time>2022-02-27T12:34:59Z</time>
      </trkpt>
      <trkpt lat="42.84467" lon="0.50339">
        <ele>1628.659</ele>
        <time>2022-02-27T12:35:01Z</time>
      </trkpt>
      <trkpt lat="42.84467" lon="0.50339">
        <ele>1628.242</ele>
        <time>2022-02-27T12:35:03Z</time>
      </trkpt>
      <trkpt lat="42.84468" lon="0.5034">
        <ele>1627.821</ele>
        <time>2022-02-27T12:35:05Z</time>
      </trkpt>
      <trkpt lat="42.8447" lon="0.5034">
        <ele>1627.858</ele>
        <time>2022-02-27T12:35:07Z</time>
      </trkpt>
      <trkpt lat="42.84472" lon="0.50339">
        <ele>1627.503</ele>
        <time>2022-02-27T12:35:09Z</time>
      </trkpt>
      <trkpt lat="42.84473" lon="0.50339">
        <ele>1627.61</ele>
        <time>2022-02-27T12:35:11Z</time>
      </trkpt>
      <trkpt lat="42.84474" lon="0.50338">
        <ele>1627.354</ele>
        <time>2022-02-27T12:35:13Z</time>
      </trkpt>
      <trkpt lat="42.84475" lon="0.50337">
        <ele>1627.099</ele>
        <time>2022-02-27T12:35:15Z</time>
      </trkpt>
      <trkpt lat="42.84476" lon="0.50336">
        <ele>1626.625</ele>
        <time>2022-02-27T12:35:17Z</time>
      </trkpt>
      <trkpt lat="42.84477" lon="0.50335">
        <ele>1625.548</ele>
        <time>2022-02-27T12:35:19Z</time>
      </trkpt>
      <trkpt lat="42.84478" lon="0.50334">
        <ele>1625.135</ele>
        <time>2022-02-27T12:35:21Z</time>
      </trkpt>
      <trkpt lat="42.84479" lon="0.50333">
        <ele>1625.48</ele>
        <time>2022-02-27T12:35:23Z</time>
      </trkpt>
      <trkpt lat="42.8448" lon="0.50331">
        <ele>1624.819</ele>
        <time>2022-02-27T12:35:25Z</time>
      </trkpt>
      <trkpt lat="42.84481" lon="0.50331">
        <ele>1624.91</ele>
        <time>2022-02-27T12:35:27Z</time>
      </trkpt>
      <trkpt lat="42.84481" lon="0.5033">
        <ele>1624.999</ele>
        <time>2022-02-27T12:35:29Z</time>
      </trkpt>
      <trkpt lat="42.84481" lon="0.5033">
        <ele>1624.906</ele>
        <time>2022-02-27T12:35:31Z</time>
      </trkpt>
      <trkpt lat="42.84481" lon="0.5033">
        <ele>1623.271</ele>
        <time>2022-02-27T12:35:33Z</time>
      </trkpt>
      <trkpt lat="42.84481" lon="0.5033">
        <ele>1622.957</ele>
        <time>2022-02-27T12:35:35Z</time>
      </trkpt>
      <trkpt lat="42.84481" lon="0.5033">
        <ele>1623.512</ele>
        <time>2022-02-27T12:35:37Z</time>
      </trkpt>
      <trkpt lat="42.84481" lon="0.5033">
        <ele>1623.461</ele>
        <time>2022-02-27T12:35:39Z</time>
      </trkpt>
      <trkpt lat="42.84482" lon="0.50331">
        <ele>1623.544</ele>
        <time>2022-02-27T12:35:41Z</time>
      </trkpt>
      <trkpt lat="42.84482" lon="0.5033">
        <ele>1622.863</ele>
        <time>2022-02-27T12:35:43Z</time>
      </trkpt>
      <trkpt lat="42.84483" lon="0.50331">
        <ele>1623.313</ele>
        <time>2022-02-27T12:35:45Z</time>
      </trkpt>
      <trkpt lat="42.84484" lon="0.50332">
        <ele>1621.034</ele>
        <time>2022-02-27T12:35:47Z</time>
      </trkpt>
      <trkpt lat="42.84486" lon="0.50335">
        <ele>1620.441</ele>
        <time>2022-02-27T12:35:49Z</time>
      </trkpt>
      <trkpt lat="42.84487" lon="0.50337">
        <ele>1621.137</ele>
        <time>2022-02-27T12:35:51Z</time>
      </trkpt>
      <trkpt lat="42.84487" lon="0.5034">
        <ele>1621.102</ele>
        <time>2022-02-27T12:35:53Z</time>
      </trkpt>
      <trkpt lat="42.84488" lon="0.50341">
        <ele>1621.932</ele>
        <time>2022-02-27T12:35:55Z</time>
      </trkpt>
      <trkpt lat="42.84489" lon="0.50342">
        <ele>1622.623</ele>
        <time>2022-02-27T12:35:57Z</time>
      </trkpt>
      <trkpt lat="42.84489" lon="0.50342">
        <ele>1621.077</ele>
        <time>2022-02-27T12:35:59Z</time>
      </trkpt>
      <trkpt lat="42.8449" lon="0.50344">
        <ele>1620.896</ele>
        <time>2022-02-27T12:36:01Z</time>
      </trkpt>
      <trkpt lat="42.84491" lon="0.50345">
        <ele>1621.168</ele>
        <time>2022-02-27T12:36:03Z</time>
      </trkpt>
      <trkpt lat="42.84492" lon="0.50346">
        <ele>1621.095</ele>
        <time>2022-02-27T12:36:05Z</time>
      </trkpt>
      <trkpt lat="42.84493" lon="0.50347">
        <ele>1621.423</ele>
        <time>2022-02-27T12:36:07Z</time>
      </trkpt>
      <trkpt lat="42.84492" lon="0.50347">
        <ele>1620.711</ele>
        <time>2022-02-27T12:36:09Z</time>
      </trkpt>
      <trkpt lat="42.84493" lon="0.50348">
        <ele>1620.523</ele>
        <time>2022-02-27T12:36:11Z</time>
      </trkpt>
      <trkpt lat="42.84494" lon="0.50349">
        <ele>1620.254</ele>
        <time>2022-02-27T12:36:13Z</time>
      </trkpt>
      <trkpt lat="42.84495" lon="0.50351">
        <ele>1619.67</ele>
        <time>2022-02-27T12:36:15Z</time>
      </trkpt>
      <trkpt lat="42.84496" lon="0.50352">
        <ele>1621.248</ele>
        <time>2022-02-27T12:36:17Z</time>
      </trkpt>
      <trkpt lat="42.84498" lon="0.50352">
        <ele>1621.203</ele>
        <time>2022-02-27T12:36:19Z</time>
      </trkpt>
      <trkpt lat="42.84499" lon="0.50352">
        <ele>1621.467</ele>
        <time>2022-02-27T12:36:21Z</time>
      </trkpt>
      <trkpt lat="42.84501" lon="0.50352">
        <ele>1622.455</ele>
        <time>2022-02-27T12:36:23Z</time>
      </trkpt>
      <trkpt lat="42.84502" lon="0.50353">
        <ele>1621.96</ele>
        <time>2022-02-27T12:36:25Z</time>
      </trkpt>
      <trkpt lat="42.84503" lon="0.50353">
        <ele>1620.819</ele>
        <time>2022-02-27T12:36:27Z</time>
      </trkpt>
      <trkpt lat="42.84502" lon="0.50352">
        <ele>1618.375</ele>
        <time>2022-02-27T12:36:29Z</time>
      </trkpt>
      <trkpt lat="42.84506" lon="0.50351">
        <ele>1620.409</ele>
        <time>2022-02-27T12:36:31Z</time>
      </trkpt>
      <trkpt lat="42.84506" lon="0.50351">
        <ele>1619.809</ele>
        <time>2022-02-27T12:36:33Z</time>
      </trkpt>
      <trkpt lat="42.84507" lon="0.50351">
        <ele>1621.042</ele>
        <time>2022-02-27T12:36:35Z</time>
      </trkpt>
      <trkpt lat="42.84508" lon="0.50351">
        <ele>1620.944</ele>
        <time>2022-02-27T12:36:37Z</time>
      </trkpt>
      <trkpt lat="42.84509" lon="0.50351">
        <ele>1621.11</ele>
        <time>2022-02-27T12:36:39Z</time>
      </trkpt>
      <trkpt lat="42.84509" lon="0.50352">
        <ele>1621.23</ele>
        <time>2022-02-27T12:36:41Z</time>
      </trkpt>
      <trkpt lat="42.84511" lon="0.50351">
        <ele>1621.356</ele>
        <time>2022-02-27T12:36:43Z</time>
      </trkpt>
      <trkpt lat="42.84511" lon="0.50351">
        <ele>1621.32</ele>
        <time>2022-02-27T12:36:45Z</time>
      </trkpt>
      <trkpt lat="42.84511" lon="0.50351">
        <ele>1621.296</ele>
        <time>2022-02-27T12:36:47Z</time>
      </trkpt>
      <trkpt lat="42.84509" lon="0.5035">
        <ele>1620.583</ele>
        <time>2022-02-27T12:36:49Z</time>
      </trkpt>
      <trkpt lat="42.84509" lon="0.50348">
        <ele>1620.75</ele>
        <time>2022-02-27T12:36:51Z</time>
      </trkpt>
      <trkpt lat="42.84507" lon="0.50348">
        <ele>1618.816</ele>
        <time>2022-02-27T12:36:53Z</time>
      </trkpt>
      <trkpt lat="42.84507" lon="0.50345">
        <ele>1618.854</ele>
        <time>2022-02-27T12:36:55Z</time>
      </trkpt>
      <trkpt lat="42.84509" lon="0.50345">
        <ele>1618.952</ele>
        <time>2022-02-27T12:36:57Z</time>
      </trkpt>
      <trkpt lat="42.84508" lon="0.50344">
        <ele>1618.477</ele>
        <time>2022-02-27T12:36:59Z</time>
      </trkpt>
      <trkpt lat="42.84507" lon="0.50345">
        <ele>1617.515</ele>
        <time>2022-02-27T12:37:01Z</time>
      </trkpt>
      <trkpt lat="42.84506" lon="0.50345">
        <ele>1616.64</ele>
        <time>2022-02-27T12:37:03Z</time>
      </trkpt>
      <trkpt lat="42.84507" lon="0.50344">
        <ele>1615.526</ele>
        <time>2022-02-27T12:37:05Z</time>
      </trkpt>
      <trkpt lat="42.84507" lon="0.50341">
        <ele>1615.17</ele>
        <time>2022-02-27T12:37:07Z</time>
      </trkpt>
      <trkpt lat="42.84506" lon="0.50339">
        <ele>1615.35</ele>
        <time>2022-02-27T12:37:09Z</time>
      </trkpt>
      <trkpt lat="42.84505" lon="0.50337">
        <ele>1615.773</ele>
        <time>2022-02-27T12:37:11Z</time>
      </trkpt>
      <trkpt lat="42.84505" lon="0.50336">
        <ele>1615.585</ele>
        <time>2022-02-27T12:37:13Z</time>
      </trkpt>
      <trkpt lat="42.84505" lon="0.50336">
        <ele>1615.535</ele>
        <time>2022-02-27T12:37:15Z</time>
      </trkpt>
      <trkpt lat="42.84505" lon="0.50336">
        <ele>1615.094</ele>
        <time>2022-02-27T12:37:17Z</time>
      </trkpt>
      <trkpt lat="42.84504" lon="0.50334">
        <ele>1614.684</ele>
        <time>2022-02-27T12:37:19Z</time>
      </trkpt>
      <trkpt lat="42.84505" lon="0.50333">
        <ele>1614.137</ele>
        <time>2022-02-27T12:37:21Z</time>
      </trkpt>
      <trkpt lat="42.84505" lon="0.50332">
        <ele>1613.515</ele>
        <time>2022-02-27T12:37:23Z</time>
      </trkpt>
      <trkpt lat="42.84505" lon="0.50334">
        <ele>1613.042</ele>
        <time>2022-02-27T12:37:25Z</time>
      </trkpt>
      <trkpt lat="42.84506" lon="0.50335">
        <ele>1612.105</ele>
        <time>2022-02-27T12:37:27Z</time>
      </trkpt>
      <trkpt lat="42.84507" lon="0.50335">
        <ele>1611.83</ele>
        <time>2022-02-27T12:37:29Z</time>
      </trkpt>
      <trkpt lat="42.84507" lon="0.50334">
        <ele>1611.822</ele>
        <time>2022-02-27T12:37:31Z</time>
      </trkpt>
      <trkpt lat="42.84507" lon="0.50334">
        <ele>1611.804</ele>
        <time>2022-02-27T12:37:33Z</time>
      </trkpt>
      <trkpt lat="42.84507" lon="0.50335">
        <ele>1608.976</ele>
        <time>2022-02-27T12:37:35Z</time>
      </trkpt>
      <trkpt lat="42.84507" lon="0.50335">
        <ele>1608.981</ele>
        <time>2022-02-27T12:37:37Z</time>
      </trkpt>
      <trkpt lat="42.84507" lon="0.50335">
        <ele>1609.896</ele>
        <time>2022-02-27T12:37:39Z</time>
      </trkpt>
      <trkpt lat="42.84507" lon="0.50333">
        <ele>1609.998</ele>
        <time>2022-02-27T12:37:41Z</time>
      </trkpt>
      <trkpt lat="42.84507" lon="0.50332">
        <ele>1609.677</ele>
        <time>2022-02-27T12:37:43Z</time>
      </trkpt>
      <trkpt lat="42.84507" lon="0.50332">
        <ele>1610.338</ele>
        <time>2022-02-27T12:37:45Z</time>
      </trkpt>
      <trkpt lat="42.84506" lon="0.50331">
        <ele>1609.827</ele>
        <time>2022-02-27T12:37:47Z</time>
      </trkpt>
      <trkpt lat="42.84506" lon="0.5033">
        <ele>1609.385</ele>
        <time>2022-02-27T12:37:49Z</time>
      </trkpt>
      <trkpt lat="42.84506" lon="0.5033">
        <ele>1608.131</ele>
        <time>2022-02-27T12:37:51Z</time>
      </trkpt>
      <trkpt lat="42.84507" lon="0.5033">
        <ele>1608.622</ele>
        <time>2022-02-27T12:37:53Z</time>
      </trkpt>
      <trkpt lat="42.84506" lon="0.50328">
        <ele>1608.091</ele>
        <time>2022-02-27T12:37:55Z</time>
      </trkpt>
      <trkpt lat="42.84506" lon="0.50322">
        <ele>1610.598</ele>
        <time>2022-02-27T12:37:57Z</time>
      </trkpt>
      <trkpt lat="42.8451" lon="0.50321">
        <ele>1608.905</ele>
        <time>2022-02-27T12:37:59Z</time>
      </trkpt>
      <trkpt lat="42.8451" lon="0.50318">
        <ele>1608.269</ele>
        <time>2022-02-27T12:38:01Z</time>
      </trkpt>
      <trkpt lat="42.84509" lon="0.50321">
        <ele>1605.692</ele>
        <time>2022-02-27T12:38:03Z</time>
      </trkpt>
      <trkpt lat="42.84509" lon="0.50321">
        <ele>1605.681</ele>
        <time>2022-02-27T12:38:05Z</time>
      </trkpt>
      <trkpt lat="42.84509" lon="0.50321">
        <ele>1605.785</ele>
        <time>2022-02-27T12:38:07Z</time>
      </trkpt>
      <trkpt lat="42.8451" lon="0.50318">
        <ele>1608.794</ele>
        <time>2022-02-27T12:38:09Z</time>
      </trkpt>
      <trkpt lat="42.84511" lon="0.50318">
        <ele>1607.77</ele>
        <time>2022-02-27T12:38:11Z</time>
      </trkpt>
      <trkpt lat="42.8451" lon="0.50318">
        <ele>1607.605</ele>
        <time>2022-02-27T12:38:13Z</time>
      </trkpt>
      <trkpt lat="42.8451" lon="0.50319">
        <ele>1606.804</ele>
        <time>2022-02-27T12:38:15Z</time>
      </trkpt>
      <trkpt lat="42.8451" lon="0.50319">
        <ele>1605.789</ele>
        <time>2022-02-27T12:38:17Z</time>
      </trkpt>
      <trkpt lat="42.8451" lon="0.50319">
        <ele>1604.537</ele>
        <time>2022-02-27T12:38:19Z</time>
      </trkpt>
      <trkpt lat="42.8451" lon="0.50318">
        <ele>1604.498</ele>
        <time>2022-02-27T12:38:21Z</time>
      </trkpt>
      <trkpt lat="42.8451" lon="0.50318">
        <ele>1604.495</ele>
        <time>2022-02-27T12:38:23Z</time>
      </trkpt>
      <trkpt lat="42.8451" lon="0.50318">
        <ele>1604.493</ele>
        <time>2022-02-27T12:38:25Z</time>
      </trkpt>
      <trkpt lat="42.8451" lon="0.50318">
        <ele>1604.5</ele>
        <time>2022-02-27T12:38:27Z</time>
      </trkpt>
      <trkpt lat="42.8451" lon="0.50318">
        <ele>1603.861</ele>
        <time>2022-02-27T12:38:29Z</time>
      </trkpt>
      <trkpt lat="42.8451" lon="0.50317">
        <ele>1604.79</ele>
        <time>2022-02-27T12:38:31Z</time>
      </trkpt>
      <trkpt lat="42.84511" lon="0.50313">
        <ele>1604.209</ele>
        <time>2022-02-27T12:38:33Z</time>
      </trkpt>
      <trkpt lat="42.84513" lon="0.5031">
        <ele>1605.178</ele>
        <time>2022-02-27T12:38:35Z</time>
      </trkpt>
      <trkpt lat="42.84511" lon="0.50308">
        <ele>1606.326</ele>
        <time>2022-02-27T12:38:37Z</time>
      </trkpt>
      <trkpt lat="42.8451" lon="0.50304">
        <ele>1607.282</ele>
        <time>2022-02-27T12:38:39Z</time>
      </trkpt>
      <trkpt lat="42.84513" lon="0.50305">
        <ele>1605.977</ele>
        <time>2022-02-27T12:38:41Z</time>
      </trkpt>
      <trkpt lat="42.84515" lon="0.50306">
        <ele>1604.92</ele>
        <time>2022-02-27T12:38:43Z</time>
      </trkpt>
      <trkpt lat="42.84516" lon="0.50306">
        <ele>1606.058</ele>
        <time>2022-02-27T12:38:45Z</time>
      </trkpt>
      <trkpt lat="42.84518" lon="0.50306">
        <ele>1606.125</ele>
        <time>2022-02-27T12:38:47Z</time>
      </trkpt>
      <trkpt lat="42.8452" lon="0.50306">
        <ele>1606.482</ele>
        <time>2022-02-27T12:38:49Z</time>
      </trkpt>
      <trkpt lat="42.84523" lon="0.50306">
        <ele>1605.492</ele>
        <time>2022-02-27T12:38:51Z</time>
      </trkpt>
      <trkpt lat="42.84525" lon="0.50308">
        <ele>1604.35</ele>
        <time>2022-02-27T12:38:53Z</time>
      </trkpt>
      <trkpt lat="42.84523" lon="0.50309">
        <ele>1602.584</ele>
        <time>2022-02-27T12:38:55Z</time>
      </trkpt>
      <trkpt lat="42.84524" lon="0.5031">
        <ele>1603.028</ele>
        <time>2022-02-27T12:38:57Z</time>
      </trkpt>
      <trkpt lat="42.84526" lon="0.50311">
        <ele>1605.138</ele>
        <time>2022-02-27T12:38:59Z</time>
      </trkpt>
      <trkpt lat="42.84528" lon="0.50311">
        <ele>1604.678</ele>
        <time>2022-02-27T12:39:01Z</time>
      </trkpt>
      <trkpt lat="42.84529" lon="0.50312">
        <ele>1604.285</ele>
        <time>2022-02-27T12:39:03Z</time>
      </trkpt>
      <trkpt lat="42.84531" lon="0.50313">
        <ele>1605.179</ele>
        <time>2022-02-27T12:39:05Z</time>
      </trkpt>
      <trkpt lat="42.84532" lon="0.50313">
        <ele>1604.713</ele>
        <time>2022-02-27T12:39:07Z</time>
      </trkpt>
      <trkpt lat="42.84534" lon="0.50314">
        <ele>1604.282</ele>
        <time>2022-02-27T12:39:09Z</time>
      </trkpt>
      <trkpt lat="42.84536" lon="0.50315">
        <ele>1603.657</ele>
        <time>2022-02-27T12:39:11Z</time>
      </trkpt>
      <trkpt lat="42.84534" lon="0.50316">
        <ele>1601.111</ele>
        <time>2022-02-27T12:39:13Z</time>
      </trkpt>
      <trkpt lat="42.84535" lon="0.50317">
        <ele>1600.608</ele>
        <time>2022-02-27T12:39:15Z</time>
      </trkpt>
      <trkpt lat="42.84536" lon="0.50317">
        <ele>1601.089</ele>
        <time>2022-02-27T12:39:17Z</time>
      </trkpt>
      <trkpt lat="42.84537" lon="0.50318">
        <ele>1601.076</ele>
        <time>2022-02-27T12:39:19Z</time>
      </trkpt>
      <trkpt lat="42.8454" lon="0.50318">
        <ele>1601.093</ele>
        <time>2022-02-27T12:39:21Z</time>
      </trkpt>
      <trkpt lat="42.84542" lon="0.50319">
        <ele>1601.842</ele>
        <time>2022-02-27T12:39:23Z</time>
      </trkpt>
      <trkpt lat="42.84543" lon="0.5032">
        <ele>1601.775</ele>
        <time>2022-02-27T12:39:25Z</time>
      </trkpt>
      <trkpt lat="42.84544" lon="0.50322">
        <ele>1601.234</ele>
        <time>2022-02-27T12:39:27Z</time>
      </trkpt>
      <trkpt lat="42.84545" lon="0.50323">
        <ele>1601.68</ele>
        <time>2022-02-27T12:39:29Z</time>
      </trkpt>
      <trkpt lat="42.84544" lon="0.50324">
        <ele>1600.499</ele>
        <time>2022-02-27T12:39:31Z</time>
      </trkpt>
      <trkpt lat="42.84545" lon="0.50325">
        <ele>1599.834</ele>
        <time>2022-02-27T12:39:33Z</time>
      </trkpt>
      <trkpt lat="42.84547" lon="0.50326">
        <ele>1600.454</ele>
        <time>2022-02-27T12:39:35Z</time>
      </trkpt>
      <trkpt lat="42.84548" lon="0.50327">
        <ele>1600.246</ele>
        <time>2022-02-27T12:39:37Z</time>
      </trkpt>
      <trkpt lat="42.84549" lon="0.50327">
        <ele>1599.498</ele>
        <time>2022-02-27T12:39:39Z</time>
      </trkpt>
      <trkpt lat="42.8455" lon="0.50327">
        <ele>1598.608</ele>
        <time>2022-02-27T12:39:41Z</time>
      </trkpt>
      <trkpt lat="42.84551" lon="0.50327">
        <ele>1598.402</ele>
        <time>2022-02-27T12:39:43Z</time>
      </trkpt>
      <trkpt lat="42.84553" lon="0.50328">
        <ele>1599.071</ele>
        <time>2022-02-27T12:39:45Z</time>
      </trkpt>
      <trkpt lat="42.84555" lon="0.50329">
        <ele>1599.983</ele>
        <time>2022-02-27T12:39:47Z</time>
      </trkpt>
      <trkpt lat="42.84557" lon="0.50331">
        <ele>1600.877</ele>
        <time>2022-02-27T12:39:49Z</time>
      </trkpt>
      <trkpt lat="42.84557" lon="0.50332">
        <ele>1600.832</ele>
        <time>2022-02-27T12:39:51Z</time>
      </trkpt>
      <trkpt lat="42.84556" lon="0.50332">
        <ele>1600.822</ele>
        <time>2022-02-27T12:39:53Z</time>
      </trkpt>
      <trkpt lat="42.84557" lon="0.50333">
        <ele>1600.895</ele>
        <time>2022-02-27T12:39:55Z</time>
      </trkpt>
      <trkpt lat="42.84559" lon="0.50334">
        <ele>1601.386</ele>
        <time>2022-02-27T12:39:57Z</time>
      </trkpt>
      <trkpt lat="42.84561" lon="0.50335">
        <ele>1600.907</ele>
        <time>2022-02-27T12:39:59Z</time>
      </trkpt>
      <trkpt lat="42.84562" lon="0.50335">
        <ele>1600.555</ele>
        <time>2022-02-27T12:40:01Z</time>
      </trkpt>
      <trkpt lat="42.84563" lon="0.50336">
        <ele>1601.138</ele>
        <time>2022-02-27T12:40:03Z</time>
      </trkpt>
      <trkpt lat="42.84564" lon="0.50337">
        <ele>1600.356</ele>
        <time>2022-02-27T12:40:05Z</time>
      </trkpt>
      <trkpt lat="42.84564" lon="0.50339">
        <ele>1599.576</ele>
        <time>2022-02-27T12:40:07Z</time>
      </trkpt>
      <trkpt lat="42.84565" lon="0.5034">
        <ele>1599.157</ele>
        <time>2022-02-27T12:40:09Z</time>
      </trkpt>
      <trkpt lat="42.84565" lon="0.50341">
        <ele>1599.065</ele>
        <time>2022-02-27T12:40:11Z</time>
      </trkpt>
      <trkpt lat="42.84563" lon="0.5034">
        <ele>1596.74</ele>
        <time>2022-02-27T12:40:13Z</time>
      </trkpt>
      <trkpt lat="42.84562" lon="0.50342">
        <ele>1595.602</ele>
        <time>2022-02-27T12:40:15Z</time>
      </trkpt>
      <trkpt lat="42.84563" lon="0.50344">
        <ele>1594.965</ele>
        <time>2022-02-27T12:40:17Z</time>
      </trkpt>
      <trkpt lat="42.84563" lon="0.50346">
        <ele>1594.848</ele>
        <time>2022-02-27T12:40:19Z</time>
      </trkpt>
      <trkpt lat="42.84562" lon="0.50349">
        <ele>1592.866</ele>
        <time>2022-02-27T12:40:21Z</time>
      </trkpt>
      <trkpt lat="42.84562" lon="0.50351">
        <ele>1591.972</ele>
        <time>2022-02-27T12:40:23Z</time>
      </trkpt>
      <trkpt lat="42.84562" lon="0.50352">
        <ele>1592.036</ele>
        <time>2022-02-27T12:40:25Z</time>
      </trkpt>
      <trkpt lat="42.84563" lon="0.50354">
        <ele>1592.05</ele>
        <time>2022-02-27T12:40:27Z</time>
      </trkpt>
      <trkpt lat="42.84564" lon="0.50356">
        <ele>1591.831</ele>
        <time>2022-02-27T12:40:29Z</time>
      </trkpt>
      <trkpt lat="42.84564" lon="0.50358">
        <ele>1591.287</ele>
        <time>2022-02-27T12:40:31Z</time>
      </trkpt>
      <trkpt lat="42.84565" lon="0.5036">
        <ele>1590.627</ele>
        <time>2022-02-27T12:40:33Z</time>
      </trkpt>
      <trkpt lat="42.84566" lon="0.50361">
        <ele>1590.146</ele>
        <time>2022-02-27T12:40:35Z</time>
      </trkpt>
      <trkpt lat="42.84567" lon="0.50363">
        <ele>1590.084</ele>
        <time>2022-02-27T12:40:37Z</time>
      </trkpt>
      <trkpt lat="42.84568" lon="0.50365">
        <ele>1589.087</ele>
        <time>2022-02-27T12:40:39Z</time>
      </trkpt>
      <trkpt lat="42.84569" lon="0.50366">
        <ele>1589.545</ele>
        <time>2022-02-27T12:40:41Z</time>
      </trkpt>
      <trkpt lat="42.8457" lon="0.50368">
        <ele>1589.477</ele>
        <time>2022-02-27T12:40:43Z</time>
      </trkpt>
      <trkpt lat="42.84571" lon="0.50369">
        <ele>1589.303</ele>
        <time>2022-02-27T12:40:45Z</time>
      </trkpt>
      <trkpt lat="42.84572" lon="0.5037">
        <ele>1589.056</ele>
        <time>2022-02-27T12:40:47Z</time>
      </trkpt>
      <trkpt lat="42.84573" lon="0.50371">
        <ele>1588.52</ele>
        <time>2022-02-27T12:40:49Z</time>
      </trkpt>
      <trkpt lat="42.84574" lon="0.50372">
        <ele>1588.349</ele>
        <time>2022-02-27T12:40:51Z</time>
      </trkpt>
      <trkpt lat="42.84574" lon="0.50374">
        <ele>1587.768</ele>
        <time>2022-02-27T12:40:53Z</time>
      </trkpt>
      <trkpt lat="42.84575" lon="0.50375">
        <ele>1586.763</ele>
        <time>2022-02-27T12:40:55Z</time>
      </trkpt>
      <trkpt lat="42.84576" lon="0.50376">
        <ele>1587.054</ele>
        <time>2022-02-27T12:40:57Z</time>
      </trkpt>
      <trkpt lat="42.84577" lon="0.50378">
        <ele>1586.77</ele>
        <time>2022-02-27T12:40:59Z</time>
      </trkpt>
      <trkpt lat="42.84577" lon="0.50379">
        <ele>1585.817</ele>
        <time>2022-02-27T12:41:01Z</time>
      </trkpt>
      <trkpt lat="42.84577" lon="0.50382">
        <ele>1584.868</ele>
        <time>2022-02-27T12:41:03Z</time>
      </trkpt>
      <trkpt lat="42.84577" lon="0.50384">
        <ele>1584.15</ele>
        <time>2022-02-27T12:41:05Z</time>
      </trkpt>
      <trkpt lat="42.84576" lon="0.50385">
        <ele>1583.227</ele>
        <time>2022-02-27T12:41:07Z</time>
      </trkpt>
      <trkpt lat="42.84577" lon="0.50386">
        <ele>1582.678</ele>
        <time>2022-02-27T12:41:09Z</time>
      </trkpt>
      <trkpt lat="42.84577" lon="0.50388">
        <ele>1581.366</ele>
        <time>2022-02-27T12:41:11Z</time>
      </trkpt>
      <trkpt lat="42.84577" lon="0.5039">
        <ele>1580.802</ele>
        <time>2022-02-27T12:41:13Z</time>
      </trkpt>
      <trkpt lat="42.84578" lon="0.50392">
        <ele>1580.588</ele>
        <time>2022-02-27T12:41:15Z</time>
      </trkpt>
      <trkpt lat="42.84579" lon="0.50394">
        <ele>1580.516</ele>
        <time>2022-02-27T12:41:17Z</time>
      </trkpt>
      <trkpt lat="42.84579" lon="0.50396">
        <ele>1580.4</ele>
        <time>2022-02-27T12:41:19Z</time>
      </trkpt>
      <trkpt lat="42.8458" lon="0.50398">
        <ele>1579.419</ele>
        <time>2022-02-27T12:41:21Z</time>
      </trkpt>
      <trkpt lat="42.84581" lon="0.50399">
        <ele>1579.047</ele>
        <time>2022-02-27T12:41:23Z</time>
      </trkpt>
      <trkpt lat="42.84582" lon="0.504">
        <ele>1577.835</ele>
        <time>2022-02-27T12:41:25Z</time>
      </trkpt>
      <trkpt lat="42.84583" lon="0.50401">
        <ele>1577.314</ele>
        <time>2022-02-27T12:41:27Z</time>
      </trkpt>
      <trkpt lat="42.84583" lon="0.50403">
        <ele>1576.909</ele>
        <time>2022-02-27T12:41:29Z</time>
      </trkpt>
      <trkpt lat="42.84585" lon="0.50404">
        <ele>1575.792</ele>
        <time>2022-02-27T12:41:31Z</time>
      </trkpt>
      <trkpt lat="42.84586" lon="0.50405">
        <ele>1575.541</ele>
        <time>2022-02-27T12:41:33Z</time>
      </trkpt>
      <trkpt lat="42.84588" lon="0.50407">
        <ele>1575.41</ele>
        <time>2022-02-27T12:41:35Z</time>
      </trkpt>
      <trkpt lat="42.84589" lon="0.50409">
        <ele>1575.051</ele>
        <time>2022-02-27T12:41:37Z</time>
      </trkpt>
      <trkpt lat="42.8459" lon="0.5041">
        <ele>1574.772</ele>
        <time>2022-02-27T12:41:39Z</time>
      </trkpt>
      <trkpt lat="42.84591" lon="0.50411">
        <ele>1573.476</ele>
        <time>2022-02-27T12:41:41Z</time>
      </trkpt>
      <trkpt lat="42.84592" lon="0.50412">
        <ele>1572.67</ele>
        <time>2022-02-27T12:41:43Z</time>
      </trkpt>
      <trkpt lat="42.84593" lon="0.50413">
        <ele>1572.246</ele>
        <time>2022-02-27T12:41:45Z</time>
      </trkpt>
      <trkpt lat="42.84594" lon="0.50414">
        <ele>1571.55</ele>
        <time>2022-02-27T12:41:47Z</time>
      </trkpt>
      <trkpt lat="42.84595" lon="0.50416">
        <ele>1571.017</ele>
        <time>2022-02-27T12:41:49Z</time>
      </trkpt>
      <trkpt lat="42.84597" lon="0.50417">
        <ele>1570.989</ele>
        <time>2022-02-27T12:41:51Z</time>
      </trkpt>
      <trkpt lat="42.84598" lon="0.50418">
        <ele>1569.913</ele>
        <time>2022-02-27T12:41:53Z</time>
      </trkpt>
      <trkpt lat="42.84599" lon="0.50419">
        <ele>1570.623</ele>
        <time>2022-02-27T12:41:55Z</time>
      </trkpt>
      <trkpt lat="42.846" lon="0.5042">
        <ele>1570.527</ele>
        <time>2022-02-27T12:41:57Z</time>
      </trkpt>
      <trkpt lat="42.84601" lon="0.50421">
        <ele>1569.977</ele>
        <time>2022-02-27T12:41:59Z</time>
      </trkpt>
      <trkpt lat="42.84603" lon="0.50422">
        <ele>1569.867</ele>
        <time>2022-02-27T12:42:01Z</time>
      </trkpt>
      <trkpt lat="42.84603" lon="0.50423">
        <ele>1569.38</ele>
        <time>2022-02-27T12:42:03Z</time>
      </trkpt>
      <trkpt lat="42.84604" lon="0.50425">
        <ele>1567.916</ele>
        <time>2022-02-27T12:42:05Z</time>
      </trkpt>
      <trkpt lat="42.84605" lon="0.50428">
        <ele>1567.674</ele>
        <time>2022-02-27T12:42:07Z</time>
      </trkpt>
      <trkpt lat="42.84607" lon="0.50429">
        <ele>1567.807</ele>
        <time>2022-02-27T12:42:09Z</time>
      </trkpt>
      <trkpt lat="42.84608" lon="0.50431">
        <ele>1567.65</ele>
        <time>2022-02-27T12:42:11Z</time>
      </trkpt>
      <trkpt lat="42.84609" lon="0.50432">
        <ele>1566.405</ele>
        <time>2022-02-27T12:42:13Z</time>
      </trkpt>
      <trkpt lat="42.8461" lon="0.50434">
        <ele>1566.158</ele>
        <time>2022-02-27T12:42:15Z</time>
      </trkpt>
      <trkpt lat="42.84611" lon="0.50436">
        <ele>1565.462</ele>
        <time>2022-02-27T12:42:17Z</time>
      </trkpt>
      <trkpt lat="42.84611" lon="0.50438">
        <ele>1565.322</ele>
        <time>2022-02-27T12:42:19Z</time>
      </trkpt>
      <trkpt lat="42.84612" lon="0.50439">
        <ele>1563.384</ele>
        <time>2022-02-27T12:42:21Z</time>
      </trkpt>
      <trkpt lat="42.84612" lon="0.5044">
        <ele>1562.427</ele>
        <time>2022-02-27T12:42:23Z</time>
      </trkpt>
      <trkpt lat="42.84613" lon="0.50442">
        <ele>1562.179</ele>
        <time>2022-02-27T12:42:25Z</time>
      </trkpt>
      <trkpt lat="42.84615" lon="0.50443">
        <ele>1562.344</ele>
        <time>2022-02-27T12:42:27Z</time>
      </trkpt>
      <trkpt lat="42.84616" lon="0.50445">
        <ele>1561.848</ele>
        <time>2022-02-27T12:42:29Z</time>
      </trkpt>
      <trkpt lat="42.84617" lon="0.50447">
        <ele>1561.27</ele>
        <time>2022-02-27T12:42:31Z</time>
      </trkpt>
      <trkpt lat="42.84618" lon="0.50449">
        <ele>1561.345</ele>
        <time>2022-02-27T12:42:33Z</time>
      </trkpt>
      <trkpt lat="42.84619" lon="0.50451">
        <ele>1559.784</ele>
        <time>2022-02-27T12:42:35Z</time>
      </trkpt>
      <trkpt lat="42.8462" lon="0.50452">
        <ele>1559.137</ele>
        <time>2022-02-27T12:42:37Z</time>
      </trkpt>
      <trkpt lat="42.84621" lon="0.50454">
        <ele>1559.614</ele>
        <time>2022-02-27T12:42:39Z</time>
      </trkpt>
      <trkpt lat="42.84623" lon="0.50456">
        <ele>1559.53</ele>
        <time>2022-02-27T12:42:41Z</time>
      </trkpt>
      <trkpt lat="42.84624" lon="0.50457">
        <ele>1559.127</ele>
        <time>2022-02-27T12:42:43Z</time>
      </trkpt>
      <trkpt lat="42.84625" lon="0.50458">
        <ele>1559.527</ele>
        <time>2022-02-27T12:42:45Z</time>
      </trkpt>
      <trkpt lat="42.84626" lon="0.5046">
        <ele>1559.479</ele>
        <time>2022-02-27T12:42:47Z</time>
      </trkpt>
      <trkpt lat="42.84628" lon="0.50461">
        <ele>1559.049</ele>
        <time>2022-02-27T12:42:49Z</time>
      </trkpt>
      <trkpt lat="42.8463" lon="0.50462">
        <ele>1559.75</ele>
        <time>2022-02-27T12:42:51Z</time>
      </trkpt>
      <trkpt lat="42.8463" lon="0.50463">
        <ele>1559.174</ele>
        <time>2022-02-27T12:42:53Z</time>
      </trkpt>
      <trkpt lat="42.84631" lon="0.50464">
        <ele>1560.357</ele>
        <time>2022-02-27T12:42:55Z</time>
      </trkpt>
      <trkpt lat="42.84633" lon="0.50465">
        <ele>1560.152</ele>
        <time>2022-02-27T12:42:57Z</time>
      </trkpt>
      <trkpt lat="42.84634" lon="0.50466">
        <ele>1559.565</ele>
        <time>2022-02-27T12:42:59Z</time>
      </trkpt>
      <trkpt lat="42.84635" lon="0.50466">
        <ele>1559.885</ele>
        <time>2022-02-27T12:43:01Z</time>
      </trkpt>
      <trkpt lat="42.84637" lon="0.50467">
        <ele>1560.233</ele>
        <time>2022-02-27T12:43:03Z</time>
      </trkpt>
      <trkpt lat="42.84637" lon="0.50467">
        <ele>1559.453</ele>
        <time>2022-02-27T12:43:05Z</time>
      </trkpt>
      <trkpt lat="42.84639" lon="0.50467">
        <ele>1559.613</ele>
        <time>2022-02-27T12:43:07Z</time>
      </trkpt>
      <trkpt lat="42.84639" lon="0.50467">
        <ele>1558.912</ele>
        <time>2022-02-27T12:43:09Z</time>
      </trkpt>
      <trkpt lat="42.8464" lon="0.50467">
        <ele>1558.74</ele>
        <time>2022-02-27T12:43:11Z</time>
      </trkpt>
      <trkpt lat="42.84641" lon="0.50467">
        <ele>1558.916</ele>
        <time>2022-02-27T12:43:13Z</time>
      </trkpt>
      <trkpt lat="42.84642" lon="0.50467">
        <ele>1558.511</ele>
        <time>2022-02-27T12:43:15Z</time>
      </trkpt>
      <trkpt lat="42.84644" lon="0.50467">
        <ele>1558.383</ele>
        <time>2022-02-27T12:43:17Z</time>
      </trkpt>
      <trkpt lat="42.84645" lon="0.50468">
        <ele>1558.316</ele>
        <time>2022-02-27T12:43:19Z</time>
      </trkpt>
      <trkpt lat="42.84646" lon="0.50469">
        <ele>1557.451</ele>
        <time>2022-02-27T12:43:21Z</time>
      </trkpt>
      <trkpt lat="42.84647" lon="0.5047">
        <ele>1556.813</ele>
        <time>2022-02-27T12:43:23Z</time>
      </trkpt>
      <trkpt lat="42.84648" lon="0.50471">
        <ele>1556.886</ele>
        <time>2022-02-27T12:43:25Z</time>
      </trkpt>
      <trkpt lat="42.8465" lon="0.50472">
        <ele>1557.183</ele>
        <time>2022-02-27T12:43:27Z</time>
      </trkpt>
      <trkpt lat="42.84652" lon="0.50473">
        <ele>1557.842</ele>
        <time>2022-02-27T12:43:29Z</time>
      </trkpt>
      <trkpt lat="42.84654" lon="0.50475">
        <ele>1558.733</ele>
        <time>2022-02-27T12:43:31Z</time>
      </trkpt>
      <trkpt lat="42.84656" lon="0.50475">
        <ele>1558.77</ele>
        <time>2022-02-27T12:43:33Z</time>
      </trkpt>
      <trkpt lat="42.84657" lon="0.50476">
        <ele>1557.186</ele>
        <time>2022-02-27T12:43:35Z</time>
      </trkpt>
      <trkpt lat="42.84657" lon="0.50476">
        <ele>1556.243</ele>
        <time>2022-02-27T12:43:37Z</time>
      </trkpt>
      <trkpt lat="42.84658" lon="0.50477">
        <ele>1556.096</ele>
        <time>2022-02-27T12:43:39Z</time>
      </trkpt>
      <trkpt lat="42.84656" lon="0.50476">
        <ele>1554.389</ele>
        <time>2022-02-27T12:43:41Z</time>
      </trkpt>
      <trkpt lat="42.84656" lon="0.50476">
        <ele>1554.028</ele>
        <time>2022-02-27T12:43:43Z</time>
      </trkpt>
      <trkpt lat="42.84656" lon="0.50477">
        <ele>1553.489</ele>
        <time>2022-02-27T12:43:45Z</time>
      </trkpt>
      <trkpt lat="42.84658" lon="0.50477">
        <ele>1552.863</ele>
        <time>2022-02-27T12:43:47Z</time>
      </trkpt>
      <trkpt lat="42.84659" lon="0.50478">
        <ele>1553.298</ele>
        <time>2022-02-27T12:43:49Z</time>
      </trkpt>
      <trkpt lat="42.8466" lon="0.5048">
        <ele>1553.618</ele>
        <time>2022-02-27T12:43:51Z</time>
      </trkpt>
      <trkpt lat="42.84662" lon="0.50482">
        <ele>1553.64</ele>
        <time>2022-02-27T12:43:53Z</time>
      </trkpt>
      <trkpt lat="42.84663" lon="0.50483">
        <ele>1553.484</ele>
        <time>2022-02-27T12:43:55Z</time>
      </trkpt>
      <trkpt lat="42.84663" lon="0.50484">
        <ele>1553.446</ele>
        <time>2022-02-27T12:43:57Z</time>
      </trkpt>
      <trkpt lat="42.84664" lon="0.50485">
        <ele>1553.079</ele>
        <time>2022-02-27T12:43:59Z</time>
      </trkpt>
      <trkpt lat="42.84664" lon="0.50485">
        <ele>1551.251</ele>
        <time>2022-02-27T12:44:01Z</time>
      </trkpt>
      <trkpt lat="42.84664" lon="0.50485">
        <ele>1551.492</ele>
        <time>2022-02-27T12:44:03Z</time>
      </trkpt>
      <trkpt lat="42.84664" lon="0.50488">
        <ele>1551.82</ele>
        <time>2022-02-27T12:44:05Z</time>
      </trkpt>
      <trkpt lat="42.84663" lon="0.5049">
        <ele>1551.418</ele>
        <time>2022-02-27T12:44:07Z</time>
      </trkpt>
      <trkpt lat="42.84663" lon="0.50493">
        <ele>1551.541</ele>
        <time>2022-02-27T12:44:09Z</time>
      </trkpt>
      <trkpt lat="42.84664" lon="0.50495">
        <ele>1552.363</ele>
        <time>2022-02-27T12:44:11Z</time>
      </trkpt>
      <trkpt lat="42.84665" lon="0.50496">
        <ele>1552.647</ele>
        <time>2022-02-27T12:44:13Z</time>
      </trkpt>
      <trkpt lat="42.84665" lon="0.50495">
        <ele>1551.1</ele>
        <time>2022-02-27T12:44:15Z</time>
      </trkpt>
      <trkpt lat="42.84665" lon="0.50495">
        <ele>1551.023</ele>
        <time>2022-02-27T12:44:17Z</time>
      </trkpt>
      <trkpt lat="42.84665" lon="0.50495">
        <ele>1550.984</ele>
        <time>2022-02-27T12:44:19Z</time>
      </trkpt>
      <trkpt lat="42.84665" lon="0.50495">
        <ele>1550.937</ele>
        <time>2022-02-27T12:44:21Z</time>
      </trkpt>
      <trkpt lat="42.84665" lon="0.50495">
        <ele>1550.904</ele>
        <time>2022-02-27T12:44:23Z</time>
      </trkpt>
      <trkpt lat="42.84665" lon="0.50495">
        <ele>1550.659</ele>
        <time>2022-02-27T12:44:25Z</time>
      </trkpt>
      <trkpt lat="42.84665" lon="0.50495">
        <ele>1550.269</ele>
        <time>2022-02-27T12:44:27Z</time>
      </trkpt>
      <trkpt lat="42.84666" lon="0.50497">
        <ele>1550.476</ele>
        <time>2022-02-27T12:44:29Z</time>
      </trkpt>
      <trkpt lat="42.84667" lon="0.50498">
        <ele>1550.531</ele>
        <time>2022-02-27T12:44:31Z</time>
      </trkpt>
      <trkpt lat="42.84668" lon="0.50501">
        <ele>1549.412</ele>
        <time>2022-02-27T12:44:33Z</time>
      </trkpt>
      <trkpt lat="42.84668" lon="0.50503">
        <ele>1548.921</ele>
        <time>2022-02-27T12:44:35Z</time>
      </trkpt>
      <trkpt lat="42.84669" lon="0.50505">
        <ele>1548.24</ele>
        <time>2022-02-27T12:44:37Z</time>
      </trkpt>
      <trkpt lat="42.8467" lon="0.50506">
        <ele>1548.294</ele>
        <time>2022-02-27T12:44:39Z</time>
      </trkpt>
      <trkpt lat="42.8467" lon="0.50508">
        <ele>1548.268</ele>
        <time>2022-02-27T12:44:41Z</time>
      </trkpt>
      <trkpt lat="42.84672" lon="0.5051">
        <ele>1548.15</ele>
        <time>2022-02-27T12:44:43Z</time>
      </trkpt>
      <trkpt lat="42.84673" lon="0.50511">
        <ele>1547.375</ele>
        <time>2022-02-27T12:44:45Z</time>
      </trkpt>
      <trkpt lat="42.84674" lon="0.50512">
        <ele>1546.714</ele>
        <time>2022-02-27T12:44:47Z</time>
      </trkpt>
      <trkpt lat="42.84676" lon="0.50513">
        <ele>1546.014</ele>
        <time>2022-02-27T12:44:49Z</time>
      </trkpt>
      <trkpt lat="42.84677" lon="0.50515">
        <ele>1545.654</ele>
        <time>2022-02-27T12:44:51Z</time>
      </trkpt>
      <trkpt lat="42.84678" lon="0.50517">
        <ele>1546.007</ele>
        <time>2022-02-27T12:44:53Z</time>
      </trkpt>
      <trkpt lat="42.84678" lon="0.50519">
        <ele>1545.697</ele>
        <time>2022-02-27T12:44:55Z</time>
      </trkpt>
      <trkpt lat="42.84679" lon="0.50521">
        <ele>1546.068</ele>
        <time>2022-02-27T12:44:57Z</time>
      </trkpt>
      <trkpt lat="42.84681" lon="0.50522">
        <ele>1545.642</ele>
        <time>2022-02-27T12:44:59Z</time>
      </trkpt>
      <trkpt lat="42.84682" lon="0.50524">
        <ele>1544.996</ele>
        <time>2022-02-27T12:45:01Z</time>
      </trkpt>
      <trkpt lat="42.84683" lon="0.50525">
        <ele>1543.834</ele>
        <time>2022-02-27T12:45:03Z</time>
      </trkpt>
      <trkpt lat="42.84684" lon="0.50527">
        <ele>1543.344</ele>
        <time>2022-02-27T12:45:05Z</time>
      </trkpt>
      <trkpt lat="42.84685" lon="0.50528">
        <ele>1543.659</ele>
        <time>2022-02-27T12:45:07Z</time>
      </trkpt>
      <trkpt lat="42.84687" lon="0.50529">
        <ele>1542.64</ele>
        <time>2022-02-27T12:45:09Z</time>
      </trkpt>
      <trkpt lat="42.84688" lon="0.5053">
        <ele>1542.319</ele>
        <time>2022-02-27T12:45:11Z</time>
      </trkpt>
      <trkpt lat="42.84689" lon="0.50532">
        <ele>1541.912</ele>
        <time>2022-02-27T12:45:13Z</time>
      </trkpt>
      <trkpt lat="42.8469" lon="0.50533">
        <ele>1541.612</ele>
        <time>2022-02-27T12:45:15Z</time>
      </trkpt>
      <trkpt lat="42.84691" lon="0.50534">
        <ele>1541.378</ele>
        <time>2022-02-27T12:45:17Z</time>
      </trkpt>
      <trkpt lat="42.84692" lon="0.50536">
        <ele>1541.845</ele>
        <time>2022-02-27T12:45:19Z</time>
      </trkpt>
      <trkpt lat="42.84694" lon="0.50537">
        <ele>1541.172</ele>
        <time>2022-02-27T12:45:21Z</time>
      </trkpt>
      <trkpt lat="42.84695" lon="0.50539">
        <ele>1541.491</ele>
        <time>2022-02-27T12:45:23Z</time>
      </trkpt>
      <trkpt lat="42.84695" lon="0.5054">
        <ele>1540.816</ele>
        <time>2022-02-27T12:45:25Z</time>
      </trkpt>
      <trkpt lat="42.84696" lon="0.50542">
        <ele>1541.173</ele>
        <time>2022-02-27T12:45:27Z</time>
      </trkpt>
      <trkpt lat="42.84697" lon="0.50544">
        <ele>1540.454</ele>
        <time>2022-02-27T12:45:29Z</time>
      </trkpt>
      <trkpt lat="42.84697" lon="0.50545">
        <ele>1540.509</ele>
        <time>2022-02-27T12:45:31Z</time>
      </trkpt>
      <trkpt lat="42.84699" lon="0.50547">
        <ele>1541.005</ele>
        <time>2022-02-27T12:45:33Z</time>
      </trkpt>
      <trkpt lat="42.847" lon="0.50549">
        <ele>1541.107</ele>
        <time>2022-02-27T12:45:35Z</time>
      </trkpt>
      <trkpt lat="42.84701" lon="0.50551">
        <ele>1541.39</ele>
        <time>2022-02-27T12:45:37Z</time>
      </trkpt>
      <trkpt lat="42.84701" lon="0.50553">
        <ele>1540.527</ele>
        <time>2022-02-27T12:45:39Z</time>
      </trkpt>
      <trkpt lat="42.84702" lon="0.50555">
        <ele>1539.823</ele>
        <time>2022-02-27T12:45:41Z</time>
      </trkpt>
      <trkpt lat="42.84703" lon="0.50557">
        <ele>1539.274</ele>
        <time>2022-02-27T12:45:43Z</time>
      </trkpt>
      <trkpt lat="42.84703" lon="0.50559">
        <ele>1538.643</ele>
        <time>2022-02-27T12:45:45Z</time>
      </trkpt>
      <trkpt lat="42.84704" lon="0.50561">
        <ele>1538.696</ele>
        <time>2022-02-27T12:45:47Z</time>
      </trkpt>
      <trkpt lat="42.84704" lon="0.50562">
        <ele>1537.855</ele>
        <time>2022-02-27T12:45:49Z</time>
      </trkpt>
      <trkpt lat="42.84705" lon="0.50564">
        <ele>1537.221</ele>
        <time>2022-02-27T12:45:51Z</time>
      </trkpt>
      <trkpt lat="42.84705" lon="0.50566">
        <ele>1536.516</ele>
        <time>2022-02-27T12:45:53Z</time>
      </trkpt>
      <trkpt lat="42.84705" lon="0.50569">
        <ele>1535.106</ele>
        <time>2022-02-27T12:45:55Z</time>
      </trkpt>
      <trkpt lat="42.84705" lon="0.50571">
        <ele>1534.214</ele>
        <time>2022-02-27T12:45:57Z</time>
      </trkpt>
      <trkpt lat="42.84705" lon="0.50573">
        <ele>1533.45</ele>
        <time>2022-02-27T12:45:59Z</time>
      </trkpt>
      <trkpt lat="42.84705" lon="0.50575">
        <ele>1532.581</ele>
        <time>2022-02-27T12:46:01Z</time>
      </trkpt>
      <trkpt lat="42.84705" lon="0.50578">
        <ele>1531.894</ele>
        <time>2022-02-27T12:46:03Z</time>
      </trkpt>
      <trkpt lat="42.84705" lon="0.5058">
        <ele>1530.972</ele>
        <time>2022-02-27T12:46:05Z</time>
      </trkpt>
      <trkpt lat="42.84705" lon="0.50582">
        <ele>1529.867</ele>
        <time>2022-02-27T12:46:07Z</time>
      </trkpt>
      <trkpt lat="42.84705" lon="0.50584">
        <ele>1528.967</ele>
        <time>2022-02-27T12:46:09Z</time>
      </trkpt>
      <trkpt lat="42.84705" lon="0.50587">
        <ele>1528.542</ele>
        <time>2022-02-27T12:46:11Z</time>
      </trkpt>
      <trkpt lat="42.84705" lon="0.5059">
        <ele>1528.56</ele>
        <time>2022-02-27T12:46:13Z</time>
      </trkpt>
      <trkpt lat="42.84705" lon="0.50593">
        <ele>1527.959</ele>
        <time>2022-02-27T12:46:15Z</time>
      </trkpt>
      <trkpt lat="42.84704" lon="0.50595">
        <ele>1527.464</ele>
        <time>2022-02-27T12:46:17Z</time>
      </trkpt>
      <trkpt lat="42.84702" lon="0.50597">
        <ele>1526.247</ele>
        <time>2022-02-27T12:46:19Z</time>
      </trkpt>
      <trkpt lat="42.84701" lon="0.50599">
        <ele>1525.833</ele>
        <time>2022-02-27T12:46:21Z</time>
      </trkpt>
      <trkpt lat="42.847" lon="0.50601">
        <ele>1525.244</ele>
        <time>2022-02-27T12:46:23Z</time>
      </trkpt>
      <trkpt lat="42.847" lon="0.50604">
        <ele>1524.873</ele>
        <time>2022-02-27T12:46:25Z</time>
      </trkpt>
      <trkpt lat="42.847" lon="0.50607">
        <ele>1524.826</ele>
        <time>2022-02-27T12:46:27Z</time>
      </trkpt>
      <trkpt lat="42.847" lon="0.50609">
        <ele>1525.007</ele>
        <time>2022-02-27T12:46:29Z</time>
      </trkpt>
      <trkpt lat="42.84699" lon="0.50611">
        <ele>1524.669</ele>
        <time>2022-02-27T12:46:31Z</time>
      </trkpt>
      <trkpt lat="42.84699" lon="0.50614">
        <ele>1523.828</ele>
        <time>2022-02-27T12:46:33Z</time>
      </trkpt>
      <trkpt lat="42.84698" lon="0.50616">
        <ele>1523.231</ele>
        <time>2022-02-27T12:46:35Z</time>
      </trkpt>
      <trkpt lat="42.84697" lon="0.50619">
        <ele>1523.009</ele>
        <time>2022-02-27T12:46:37Z</time>
      </trkpt>
      <trkpt lat="42.84697" lon="0.50621">
        <ele>1522.459</ele>
        <time>2022-02-27T12:46:39Z</time>
      </trkpt>
      <trkpt lat="42.84696" lon="0.50623">
        <ele>1521.63</ele>
        <time>2022-02-27T12:46:41Z</time>
      </trkpt>
      <trkpt lat="42.84696" lon="0.50625">
        <ele>1520.945</ele>
        <time>2022-02-27T12:46:43Z</time>
      </trkpt>
      <trkpt lat="42.84695" lon="0.50626">
        <ele>1519.616</ele>
        <time>2022-02-27T12:46:45Z</time>
      </trkpt>
      <trkpt lat="42.84694" lon="0.5063">
        <ele>1519.282</ele>
        <time>2022-02-27T12:46:47Z</time>
      </trkpt>
      <trkpt lat="42.84694" lon="0.50632">
        <ele>1518.626</ele>
        <time>2022-02-27T12:46:49Z</time>
      </trkpt>
      <trkpt lat="42.84695" lon="0.50634">
        <ele>1518.732</ele>
        <time>2022-02-27T12:46:51Z</time>
      </trkpt>
      <trkpt lat="42.84695" lon="0.50636">
        <ele>1519.049</ele>
        <time>2022-02-27T12:46:53Z</time>
      </trkpt>
      <trkpt lat="42.84695" lon="0.50638">
        <ele>1518.959</ele>
        <time>2022-02-27T12:46:55Z</time>
      </trkpt>
      <trkpt lat="42.84695" lon="0.50639">
        <ele>1519.515</ele>
        <time>2022-02-27T12:46:57Z</time>
      </trkpt>
      <trkpt lat="42.84696" lon="0.5064">
        <ele>1519.157</ele>
        <time>2022-02-27T12:46:59Z</time>
      </trkpt>
      <trkpt lat="42.84696" lon="0.50642">
        <ele>1519.081</ele>
        <time>2022-02-27T12:47:01Z</time>
      </trkpt>
      <trkpt lat="42.84697" lon="0.50644">
        <ele>1519.188</ele>
        <time>2022-02-27T12:47:03Z</time>
      </trkpt>
      <trkpt lat="42.84698" lon="0.50646">
        <ele>1519.083</ele>
        <time>2022-02-27T12:47:05Z</time>
      </trkpt>
      <trkpt lat="42.84699" lon="0.50648">
        <ele>1518.529</ele>
        <time>2022-02-27T12:47:07Z</time>
      </trkpt>
      <trkpt lat="42.84699" lon="0.5065">
        <ele>1518.271</ele>
        <time>2022-02-27T12:47:09Z</time>
      </trkpt>
      <trkpt lat="42.84699" lon="0.50651">
        <ele>1518.193</ele>
        <time>2022-02-27T12:47:11Z</time>
      </trkpt>
      <trkpt lat="42.847" lon="0.50653">
        <ele>1517.251</ele>
        <time>2022-02-27T12:47:13Z</time>
      </trkpt>
      <trkpt lat="42.84701" lon="0.50656">
        <ele>1517.083</ele>
        <time>2022-02-27T12:47:15Z</time>
      </trkpt>
      <trkpt lat="42.84702" lon="0.50658">
        <ele>1517.037</ele>
        <time>2022-02-27T12:47:17Z</time>
      </trkpt>
      <trkpt lat="42.84702" lon="0.5066">
        <ele>1516.799</ele>
        <time>2022-02-27T12:47:19Z</time>
      </trkpt>
      <trkpt lat="42.84702" lon="0.50662">
        <ele>1516.508</ele>
        <time>2022-02-27T12:47:21Z</time>
      </trkpt>
      <trkpt lat="42.84703" lon="0.50664">
        <ele>1516.737</ele>
        <time>2022-02-27T12:47:23Z</time>
      </trkpt>
      <trkpt lat="42.84704" lon="0.50665">
        <ele>1516.653</ele>
        <time>2022-02-27T12:47:25Z</time>
      </trkpt>
      <trkpt lat="42.84705" lon="0.50666">
        <ele>1515.675</ele>
        <time>2022-02-27T12:47:27Z</time>
      </trkpt>
      <trkpt lat="42.84706" lon="0.50667">
        <ele>1515.107</ele>
        <time>2022-02-27T12:47:29Z</time>
      </trkpt>
      <trkpt lat="42.84707" lon="0.50669">
        <ele>1514.845</ele>
        <time>2022-02-27T12:47:31Z</time>
      </trkpt>
      <trkpt lat="42.84707" lon="0.50671">
        <ele>1514.155</ele>
        <time>2022-02-27T12:47:33Z</time>
      </trkpt>
      <trkpt lat="42.84707" lon="0.50673">
        <ele>1513.961</ele>
        <time>2022-02-27T12:47:35Z</time>
      </trkpt>
      <trkpt lat="42.84707" lon="0.50674">
        <ele>1513.837</ele>
        <time>2022-02-27T12:47:37Z</time>
      </trkpt>
      <trkpt lat="42.84706" lon="0.50676">
        <ele>1513.578</ele>
        <time>2022-02-27T12:47:39Z</time>
      </trkpt>
      <trkpt lat="42.84707" lon="0.50678">
        <ele>1514.411</ele>
        <time>2022-02-27T12:47:41Z</time>
      </trkpt>
      <trkpt lat="42.84707" lon="0.50678">
        <ele>1514.182</ele>
        <time>2022-02-27T12:47:43Z</time>
      </trkpt>
      <trkpt lat="42.84707" lon="0.50678">
        <ele>1514.195</ele>
        <time>2022-02-27T12:47:45Z</time>
      </trkpt>
      <trkpt lat="42.84707" lon="0.50678">
        <ele>1514.228</ele>
        <time>2022-02-27T12:47:47Z</time>
      </trkpt>
      <trkpt lat="42.84707" lon="0.50678">
        <ele>1514.227</ele>
        <time>2022-02-27T12:47:49Z</time>
      </trkpt>
      <trkpt lat="42.84707" lon="0.50678">
        <ele>1514.228</ele>
        <time>2022-02-27T12:47:51Z</time>
      </trkpt>
      <trkpt lat="42.84707" lon="0.50678">
        <ele>1514.254</ele>
        <time>2022-02-27T12:47:53Z</time>
      </trkpt>
      <trkpt lat="42.84707" lon="0.50679">
        <ele>1514.543</ele>
        <time>2022-02-27T12:47:55Z</time>
      </trkpt>
      <trkpt lat="42.84707" lon="0.50681">
        <ele>1514.34</ele>
        <time>2022-02-27T12:47:57Z</time>
      </trkpt>
      <trkpt lat="42.84707" lon="0.50683">
        <ele>1513.523</ele>
        <time>2022-02-27T12:47:59Z</time>
      </trkpt>
      <trkpt lat="42.84707" lon="0.50685">
        <ele>1513.482</ele>
        <time>2022-02-27T12:48:01Z</time>
      </trkpt>
      <trkpt lat="42.84707" lon="0.50686">
        <ele>1512.724</ele>
        <time>2022-02-27T12:48:03Z</time>
      </trkpt>
      <trkpt lat="42.84707" lon="0.50688">
        <ele>1512.616</ele>
        <time>2022-02-27T12:48:05Z</time>
      </trkpt>
      <trkpt lat="42.84708" lon="0.5069">
        <ele>1511.915</ele>
        <time>2022-02-27T12:48:07Z</time>
      </trkpt>
      <trkpt lat="42.84708" lon="0.50692">
        <ele>1512.067</ele>
        <time>2022-02-27T12:48:09Z</time>
      </trkpt>
      <trkpt lat="42.84708" lon="0.50694">
        <ele>1511.613</ele>
        <time>2022-02-27T12:48:11Z</time>
      </trkpt>
      <trkpt lat="42.84708" lon="0.50696">
        <ele>1511.182</ele>
        <time>2022-02-27T12:48:13Z</time>
      </trkpt>
      <trkpt lat="42.84709" lon="0.50698">
        <ele>1511.234</ele>
        <time>2022-02-27T12:48:15Z</time>
      </trkpt>
      <trkpt lat="42.84709" lon="0.507">
        <ele>1511.3</ele>
        <time>2022-02-27T12:48:17Z</time>
      </trkpt>
      <trkpt lat="42.8471" lon="0.50701">
        <ele>1510.696</ele>
        <time>2022-02-27T12:48:19Z</time>
      </trkpt>
      <trkpt lat="42.84711" lon="0.50703">
        <ele>1510.142</ele>
        <time>2022-02-27T12:48:21Z</time>
      </trkpt>
      <trkpt lat="42.84712" lon="0.50704">
        <ele>1509.068</ele>
        <time>2022-02-27T12:48:23Z</time>
      </trkpt>
      <trkpt lat="42.84712" lon="0.50706">
        <ele>1507.755</ele>
        <time>2022-02-27T12:48:25Z</time>
      </trkpt>
      <trkpt lat="42.84712" lon="0.50708">
        <ele>1506.749</ele>
        <time>2022-02-27T12:48:27Z</time>
      </trkpt>
      <trkpt lat="42.84713" lon="0.5071">
        <ele>1506.423</ele>
        <time>2022-02-27T12:48:29Z</time>
      </trkpt>
      <trkpt lat="42.84713" lon="0.50711">
        <ele>1506.108</ele>
        <time>2022-02-27T12:48:31Z</time>
      </trkpt>
      <trkpt lat="42.84714" lon="0.50713">
        <ele>1505.639</ele>
        <time>2022-02-27T12:48:33Z</time>
      </trkpt>
      <trkpt lat="42.84714" lon="0.50714">
        <ele>1505.583</ele>
        <time>2022-02-27T12:48:35Z</time>
      </trkpt>
      <trkpt lat="42.84714" lon="0.50716">
        <ele>1505.618</ele>
        <time>2022-02-27T12:48:37Z</time>
      </trkpt>
      <trkpt lat="42.84715" lon="0.50718">
        <ele>1505.534</ele>
        <time>2022-02-27T12:48:39Z</time>
      </trkpt>
      <trkpt lat="42.84715" lon="0.50719">
        <ele>1505.105</ele>
        <time>2022-02-27T12:48:41Z</time>
      </trkpt>
      <trkpt lat="42.84716" lon="0.50721">
        <ele>1504.662</ele>
        <time>2022-02-27T12:48:43Z</time>
      </trkpt>
      <trkpt lat="42.84716" lon="0.50723">
        <ele>1503.822</ele>
        <time>2022-02-27T12:48:45Z</time>
      </trkpt>
      <trkpt lat="42.84717" lon="0.50725">
        <ele>1503.377</ele>
        <time>2022-02-27T12:48:47Z</time>
      </trkpt>
      <trkpt lat="42.84717" lon="0.50727">
        <ele>1503.074</ele>
        <time>2022-02-27T12:48:49Z</time>
      </trkpt>
      <trkpt lat="42.84717" lon="0.50729">
        <ele>1502.067</ele>
        <time>2022-02-27T12:48:51Z</time>
      </trkpt>
      <trkpt lat="42.84718" lon="0.50731">
        <ele>1501.815</ele>
        <time>2022-02-27T12:48:53Z</time>
      </trkpt>
      <trkpt lat="42.84719" lon="0.50734">
        <ele>1502.179</ele>
        <time>2022-02-27T12:48:55Z</time>
      </trkpt>
      <trkpt lat="42.84719" lon="0.50737">
        <ele>1501.83</ele>
        <time>2022-02-27T12:48:57Z</time>
      </trkpt>
      <trkpt lat="42.84719" lon="0.50738">
        <ele>1501.413</ele>
        <time>2022-02-27T12:48:59Z</time>
      </trkpt>
      <trkpt lat="42.8472" lon="0.5074">
        <ele>1500.699</ele>
        <time>2022-02-27T12:49:01Z</time>
      </trkpt>
      <trkpt lat="42.8472" lon="0.50742">
        <ele>1500.553</ele>
        <time>2022-02-27T12:49:03Z</time>
      </trkpt>
      <trkpt lat="42.84719" lon="0.50744">
        <ele>1500.503</ele>
        <time>2022-02-27T12:49:05Z</time>
      </trkpt>
      <trkpt lat="42.84718" lon="0.50744">
        <ele>1499.23</ele>
        <time>2022-02-27T12:49:07Z</time>
      </trkpt>
      <trkpt lat="42.84718" lon="0.50746">
        <ele>1498.747</ele>
        <time>2022-02-27T12:49:09Z</time>
      </trkpt>
      <trkpt lat="42.84718" lon="0.50748">
        <ele>1498.044</ele>
        <time>2022-02-27T12:49:11Z</time>
      </trkpt>
      <trkpt lat="42.84718" lon="0.5075">
        <ele>1497.574</ele>
        <time>2022-02-27T12:49:13Z</time>
      </trkpt>
      <trkpt lat="42.84719" lon="0.50751">
        <ele>1497.05</ele>
        <time>2022-02-27T12:49:15Z</time>
      </trkpt>
      <trkpt lat="42.8472" lon="0.50752">
        <ele>1496.045</ele>
        <time>2022-02-27T12:49:17Z</time>
      </trkpt>
      <trkpt lat="42.84721" lon="0.50754">
        <ele>1495.086</ele>
        <time>2022-02-27T12:49:19Z</time>
      </trkpt>
      <trkpt lat="42.84721" lon="0.50755">
        <ele>1494.244</ele>
        <time>2022-02-27T12:49:21Z</time>
      </trkpt>
      <trkpt lat="42.84721" lon="0.50757">
        <ele>1493.633</ele>
        <time>2022-02-27T12:49:23Z</time>
      </trkpt>
      <trkpt lat="42.84721" lon="0.50758">
        <ele>1492.553</ele>
        <time>2022-02-27T12:49:25Z</time>
      </trkpt>
      <trkpt lat="42.84722" lon="0.5076">
        <ele>1492.872</ele>
        <time>2022-02-27T12:49:27Z</time>
      </trkpt>
      <trkpt lat="42.84722" lon="0.50762">
        <ele>1492.346</ele>
        <time>2022-02-27T12:49:29Z</time>
      </trkpt>
      <trkpt lat="42.84722" lon="0.50764">
        <ele>1492.765</ele>
        <time>2022-02-27T12:49:31Z</time>
      </trkpt>
      <trkpt lat="42.84723" lon="0.50766">
        <ele>1492.495</ele>
        <time>2022-02-27T12:49:33Z</time>
      </trkpt>
      <trkpt lat="42.84723" lon="0.50767">
        <ele>1492.756</ele>
        <time>2022-02-27T12:49:35Z</time>
      </trkpt>
      <trkpt lat="42.84724" lon="0.50769">
        <ele>1493.16</ele>
        <time>2022-02-27T12:49:37Z</time>
      </trkpt>
      <trkpt lat="42.84724" lon="0.5077">
        <ele>1494.192</ele>
        <time>2022-02-27T12:49:39Z</time>
      </trkpt>
      <trkpt lat="42.84724" lon="0.50772">
        <ele>1493.83</ele>
        <time>2022-02-27T12:49:41Z</time>
      </trkpt>
      <trkpt lat="42.84725" lon="0.50774">
        <ele>1494.778</ele>
        <time>2022-02-27T12:49:43Z</time>
      </trkpt>
      <trkpt lat="42.84726" lon="0.50776">
        <ele>1495.225</ele>
        <time>2022-02-27T12:49:45Z</time>
      </trkpt>
      <trkpt lat="42.84727" lon="0.50778">
        <ele>1494.563</ele>
        <time>2022-02-27T12:49:47Z</time>
      </trkpt>
      <trkpt lat="42.84727" lon="0.50779">
        <ele>1493.643</ele>
        <time>2022-02-27T12:49:49Z</time>
      </trkpt>
      <trkpt lat="42.84727" lon="0.5078">
        <ele>1493.63</ele>
        <time>2022-02-27T12:49:51Z</time>
      </trkpt>
      <trkpt lat="42.84727" lon="0.50782">
        <ele>1494.414</ele>
        <time>2022-02-27T12:49:53Z</time>
      </trkpt>
      <trkpt lat="42.84726" lon="0.50784">
        <ele>1495.134</ele>
        <time>2022-02-27T12:49:55Z</time>
      </trkpt>
      <trkpt lat="42.84727" lon="0.50787">
        <ele>1495.782</ele>
        <time>2022-02-27T12:49:57Z</time>
      </trkpt>
      <trkpt lat="42.84727" lon="0.50789">
        <ele>1495.519</ele>
        <time>2022-02-27T12:49:59Z</time>
      </trkpt>
      <trkpt lat="42.84727" lon="0.5079">
        <ele>1495.575</ele>
        <time>2022-02-27T12:50:01Z</time>
      </trkpt>
      <trkpt lat="42.84727" lon="0.50792">
        <ele>1494.893</ele>
        <time>2022-02-27T12:50:03Z</time>
      </trkpt>
      <trkpt lat="42.84727" lon="0.50794">
        <ele>1495.367</ele>
        <time>2022-02-27T12:50:05Z</time>
      </trkpt>
      <trkpt lat="42.84727" lon="0.50795">
        <ele>1493.961</ele>
        <time>2022-02-27T12:50:07Z</time>
      </trkpt>
      <trkpt lat="42.84727" lon="0.50797">
        <ele>1492.822</ele>
        <time>2022-02-27T12:50:09Z</time>
      </trkpt>
      <trkpt lat="42.84727" lon="0.50799">
        <ele>1492.668</ele>
        <time>2022-02-27T12:50:11Z</time>
      </trkpt>
      <trkpt lat="42.84727" lon="0.50801">
        <ele>1491.713</ele>
        <time>2022-02-27T12:50:13Z</time>
      </trkpt>
      <trkpt lat="42.84727" lon="0.50802">
        <ele>1490.544</ele>
        <time>2022-02-27T12:50:15Z</time>
      </trkpt>
      <trkpt lat="42.84726" lon="0.50804">
        <ele>1489.234</ele>
        <time>2022-02-27T12:50:17Z</time>
      </trkpt>
      <trkpt lat="42.84726" lon="0.50805">
        <ele>1489.424</ele>
        <time>2022-02-27T12:50:19Z</time>
      </trkpt>
      <trkpt lat="42.84725" lon="0.50807">
        <ele>1489.485</ele>
        <time>2022-02-27T12:50:21Z</time>
      </trkpt>
      <trkpt lat="42.84724" lon="0.50809">
        <ele>1490.104</ele>
        <time>2022-02-27T12:50:23Z</time>
      </trkpt>
      <trkpt lat="42.84724" lon="0.5081">
        <ele>1489.382</ele>
        <time>2022-02-27T12:50:25Z</time>
      </trkpt>
      <trkpt lat="42.84724" lon="0.50811">
        <ele>1488.031</ele>
        <time>2022-02-27T12:50:27Z</time>
      </trkpt>
      <trkpt lat="42.84723" lon="0.50813">
        <ele>1486.779</ele>
        <time>2022-02-27T12:50:29Z</time>
      </trkpt>
      <trkpt lat="42.84723" lon="0.50814">
        <ele>1486.396</ele>
        <time>2022-02-27T12:50:31Z</time>
      </trkpt>
      <trkpt lat="42.84723" lon="0.50815">
        <ele>1485.913</ele>
        <time>2022-02-27T12:50:33Z</time>
      </trkpt>
      <trkpt lat="42.84723" lon="0.50817">
        <ele>1485.434</ele>
        <time>2022-02-27T12:50:35Z</time>
      </trkpt>
      <trkpt lat="42.84722" lon="0.50819">
        <ele>1485.484</ele>
        <time>2022-02-27T12:50:37Z</time>
      </trkpt>
      <trkpt lat="42.84722" lon="0.5082">
        <ele>1485.035</ele>
        <time>2022-02-27T12:50:39Z</time>
      </trkpt>
      <trkpt lat="42.84722" lon="0.50822">
        <ele>1483.562</ele>
        <time>2022-02-27T12:50:41Z</time>
      </trkpt>
      <trkpt lat="42.84722" lon="0.50823">
        <ele>1482.708</ele>
        <time>2022-02-27T12:50:43Z</time>
      </trkpt>
      <trkpt lat="42.84723" lon="0.50825">
        <ele>1480.591</ele>
        <time>2022-02-27T12:50:45Z</time>
      </trkpt>
      <trkpt lat="42.84723" lon="0.50827">
        <ele>1479.952</ele>
        <time>2022-02-27T12:50:47Z</time>
      </trkpt>
      <trkpt lat="42.84723" lon="0.50828">
        <ele>1479.043</ele>
        <time>2022-02-27T12:50:49Z</time>
      </trkpt>
      <trkpt lat="42.84723" lon="0.50831">
        <ele>1478.524</ele>
        <time>2022-02-27T12:50:51Z</time>
      </trkpt>
      <trkpt lat="42.84724" lon="0.50833">
        <ele>1477.699</ele>
        <time>2022-02-27T12:50:53Z</time>
      </trkpt>
      <trkpt lat="42.84724" lon="0.50836">
        <ele>1477.415</ele>
        <time>2022-02-27T12:50:55Z</time>
      </trkpt>
      <trkpt lat="42.84724" lon="0.50838">
        <ele>1476.792</ele>
        <time>2022-02-27T12:50:57Z</time>
      </trkpt>
      <trkpt lat="42.84724" lon="0.5084">
        <ele>1475.658</ele>
        <time>2022-02-27T12:50:59Z</time>
      </trkpt>
      <trkpt lat="42.84723" lon="0.50842">
        <ele>1474.5</ele>
        <time>2022-02-27T12:51:01Z</time>
      </trkpt>
      <trkpt lat="42.84723" lon="0.50844">
        <ele>1473.633</ele>
        <time>2022-02-27T12:51:03Z</time>
      </trkpt>
      <trkpt lat="42.84722" lon="0.50846">
        <ele>1473.127</ele>
        <time>2022-02-27T12:51:05Z</time>
      </trkpt>
      <trkpt lat="42.84722" lon="0.50848">
        <ele>1472.802</ele>
        <time>2022-02-27T12:51:07Z</time>
      </trkpt>
      <trkpt lat="42.84721" lon="0.5085">
        <ele>1472.676</ele>
        <time>2022-02-27T12:51:09Z</time>
      </trkpt>
      <trkpt lat="42.84719" lon="0.5085">
        <ele>1472.548</ele>
        <time>2022-02-27T12:51:11Z</time>
      </trkpt>
      <trkpt lat="42.84717" lon="0.5085">
        <ele>1472.377</ele>
        <time>2022-02-27T12:51:13Z</time>
      </trkpt>
      <trkpt lat="42.84717" lon="0.50849">
        <ele>1471.981</ele>
        <time>2022-02-27T12:51:15Z</time>
      </trkpt>
      <trkpt lat="42.84717" lon="0.50849">
        <ele>1471.985</ele>
        <time>2022-02-27T12:51:17Z</time>
      </trkpt>
      <trkpt lat="42.84717" lon="0.50849">
        <ele>1471.985</ele>
        <time>2022-02-27T12:51:19Z</time>
      </trkpt>
      <trkpt lat="42.84717" lon="0.50849">
        <ele>1471.985</ele>
        <time>2022-02-27T12:51:21Z</time>
      </trkpt>
      <trkpt lat="42.84717" lon="0.50849">
        <ele>1471.764</ele>
        <time>2022-02-27T12:51:23Z</time>
      </trkpt>
      <trkpt lat="42.84718" lon="0.5085">
        <ele>1471.749</ele>
        <time>2022-02-27T12:51:25Z</time>
      </trkpt>
      <trkpt lat="42.84718" lon="0.5085">
        <ele>1471.758</ele>
        <time>2022-02-27T12:51:27Z</time>
      </trkpt>
      <trkpt lat="42.84718" lon="0.5085">
        <ele>1471.901</ele>
        <time>2022-02-27T12:51:29Z</time>
      </trkpt>
      <trkpt lat="42.84718" lon="0.5085">
        <ele>1471.922</ele>
        <time>2022-02-27T12:51:31Z</time>
      </trkpt>
      <trkpt lat="42.84718" lon="0.5085">
        <ele>1471.933</ele>
        <time>2022-02-27T12:51:33Z</time>
      </trkpt>
      <trkpt lat="42.84718" lon="0.5085">
        <ele>1472.093</ele>
        <time>2022-02-27T12:51:35Z</time>
      </trkpt>
      <trkpt lat="42.84718" lon="0.5085">
        <ele>1472.083</ele>
        <time>2022-02-27T12:51:37Z</time>
      </trkpt>
      <trkpt lat="42.84718" lon="0.50851">
        <ele>1472.082</ele>
        <time>2022-02-27T12:51:39Z</time>
      </trkpt>
      <trkpt lat="42.84718" lon="0.50851">
        <ele>1472.073</ele>
        <time>2022-02-27T12:51:41Z</time>
      </trkpt>
      <trkpt lat="42.84718" lon="0.50851">
        <ele>1472.077</ele>
        <time>2022-02-27T12:51:43Z</time>
      </trkpt>
      <trkpt lat="42.84718" lon="0.50851">
        <ele>1472.183</ele>
        <time>2022-02-27T12:51:45Z</time>
      </trkpt>
      <trkpt lat="42.84718" lon="0.5085">
        <ele>1471.951</ele>
        <time>2022-02-27T12:51:47Z</time>
      </trkpt>
      <trkpt lat="42.84718" lon="0.5085">
        <ele>1472.068</ele>
        <time>2022-02-27T12:51:49Z</time>
      </trkpt>
      <trkpt lat="42.84718" lon="0.5085">
        <ele>1472.067</ele>
        <time>2022-02-27T12:51:51Z</time>
      </trkpt>
      <trkpt lat="42.84718" lon="0.5085">
        <ele>1472.034</ele>
        <time>2022-02-27T12:51:53Z</time>
      </trkpt>
      <trkpt lat="42.84718" lon="0.50851">
        <ele>1472.113</ele>
        <time>2022-02-27T12:51:55Z</time>
      </trkpt>
      <trkpt lat="42.84718" lon="0.50851">
        <ele>1472.465</ele>
        <time>2022-02-27T12:51:57Z</time>
      </trkpt>
      <trkpt lat="42.84718" lon="0.50851">
        <ele>1472.483</ele>
        <time>2022-02-27T12:51:59Z</time>
      </trkpt>
      <trkpt lat="42.84719" lon="0.50851">
        <ele>1474.002</ele>
        <time>2022-02-27T12:52:01Z</time>
      </trkpt>
      <trkpt lat="42.84719" lon="0.50852">
        <ele>1474.825</ele>
        <time>2022-02-27T12:52:03Z</time>
      </trkpt>
      <trkpt lat="42.84719" lon="0.50852">
        <ele>1475.045</ele>
        <time>2022-02-27T12:52:05Z</time>
      </trkpt>
      <trkpt lat="42.84719" lon="0.50852">
        <ele>1475.019</ele>
        <time>2022-02-27T12:52:07Z</time>
      </trkpt>
      <trkpt lat="42.84719" lon="0.50852">
        <ele>1475.021</ele>
        <time>2022-02-27T12:52:09Z</time>
      </trkpt>
      <trkpt lat="42.84719" lon="0.50852">
        <ele>1475.021</ele>
        <time>2022-02-27T12:52:11Z</time>
      </trkpt>
      <trkpt lat="42.84719" lon="0.50852">
        <ele>1475.013</ele>
        <time>2022-02-27T12:52:13Z</time>
      </trkpt>
      <trkpt lat="42.84719" lon="0.50852">
        <ele>1475.333</ele>
        <time>2022-02-27T12:52:15Z</time>
      </trkpt>
      <trkpt lat="42.84718" lon="0.50852">
        <ele>1474.948</ele>
        <time>2022-02-27T12:52:17Z</time>
      </trkpt>
      <trkpt lat="42.84718" lon="0.50852">
        <ele>1475.148</ele>
        <time>2022-02-27T12:52:19Z</time>
      </trkpt>
      <trkpt lat="42.84718" lon="0.50852">
        <ele>1475.419</ele>
        <time>2022-02-27T12:52:21Z</time>
      </trkpt>
      <trkpt lat="42.84718" lon="0.50852">
        <ele>1475.415</ele>
        <time>2022-02-27T12:52:23Z</time>
      </trkpt>
      <trkpt lat="42.84718" lon="0.50852">
        <ele>1475.416</ele>
        <time>2022-02-27T12:52:25Z</time>
      </trkpt>
      <trkpt lat="42.84718" lon="0.50852">
        <ele>1475.41</ele>
        <time>2022-02-27T12:52:27Z</time>
      </trkpt>
      <trkpt lat="42.84718" lon="0.50852">
        <ele>1475.768</ele>
        <time>2022-02-27T12:52:29Z</time>
      </trkpt>
      <trkpt lat="42.84718" lon="0.50851">
        <ele>1475.346</ele>
        <time>2022-02-27T12:52:31Z</time>
      </trkpt>
      <trkpt lat="42.84718" lon="0.50851">
        <ele>1475.357</ele>
        <time>2022-02-27T12:52:33Z</time>
      </trkpt>
      <trkpt lat="42.84718" lon="0.50851">
        <ele>1475.526</ele>
        <time>2022-02-27T12:52:35Z</time>
      </trkpt>
      <trkpt lat="42.8472" lon="0.50851">
        <ele>1475.497</ele>
        <time>2022-02-27T12:52:37Z</time>
      </trkpt>
      <trkpt lat="42.84719" lon="0.50851">
        <ele>1475.58</ele>
        <time>2022-02-27T12:52:39Z</time>
      </trkpt>
      <trkpt lat="42.84719" lon="0.50852">
        <ele>1475.579</ele>
        <time>2022-02-27T12:52:41Z</time>
      </trkpt>
      <trkpt lat="42.8472" lon="0.50852">
        <ele>1476.516</ele>
        <time>2022-02-27T12:52:43Z</time>
      </trkpt>
      <trkpt lat="42.8472" lon="0.50852">
        <ele>1476.448</ele>
        <time>2022-02-27T12:52:45Z</time>
      </trkpt>
      <trkpt lat="42.8472" lon="0.50852">
        <ele>1476.834</ele>
        <time>2022-02-27T12:52:47Z</time>
      </trkpt>
      <trkpt lat="42.84722" lon="0.50852">
        <ele>1477.624</ele>
        <time>2022-02-27T12:52:49Z</time>
      </trkpt>
      <trkpt lat="42.84722" lon="0.50853">
        <ele>1477.588</ele>
        <time>2022-02-27T12:52:51Z</time>
      </trkpt>
      <trkpt lat="42.84722" lon="0.50853">
        <ele>1477.589</ele>
        <time>2022-02-27T12:52:53Z</time>
      </trkpt>
      <trkpt lat="42.84722" lon="0.50853">
        <ele>1477.598</ele>
        <time>2022-02-27T12:52:55Z</time>
      </trkpt>
      <trkpt lat="42.84722" lon="0.50853">
        <ele>1477.605</ele>
        <time>2022-02-27T12:52:57Z</time>
      </trkpt>
      <trkpt lat="42.84722" lon="0.50853">
        <ele>1477.609</ele>
        <time>2022-02-27T12:52:59Z</time>
      </trkpt>
      <trkpt lat="42.84722" lon="0.50853">
        <ele>1477.988</ele>
        <time>2022-02-27T12:53:01Z</time>
      </trkpt>
      <trkpt lat="42.84722" lon="0.50853">
        <ele>1477.99</ele>
        <time>2022-02-27T12:53:03Z</time>
      </trkpt>
      <trkpt lat="42.84722" lon="0.50853">
        <ele>1477.995</ele>
        <time>2022-02-27T12:53:05Z</time>
      </trkpt>
      <trkpt lat="42.84722" lon="0.50853">
        <ele>1477.995</ele>
        <time>2022-02-27T12:53:07Z</time>
      </trkpt>
      <trkpt lat="42.84722" lon="0.50853">
        <ele>1477.996</ele>
        <time>2022-02-27T12:53:09Z</time>
      </trkpt>
      <trkpt lat="42.84722" lon="0.50853">
        <ele>1477.996</ele>
        <time>2022-02-27T12:53:11Z</time>
      </trkpt>
      <trkpt lat="42.84722" lon="0.50853">
        <ele>1477.996</ele>
        <time>2022-02-27T12:53:13Z</time>
      </trkpt>
      <trkpt lat="42.84722" lon="0.50853">
        <ele>1477.998</ele>
        <time>2022-02-27T12:53:15Z</time>
      </trkpt>
      <trkpt lat="42.84722" lon="0.50853">
        <ele>1478.007</ele>
        <time>2022-02-27T12:53:17Z</time>
      </trkpt>
      <trkpt lat="42.84722" lon="0.50853">
        <ele>1478.01</ele>
        <time>2022-02-27T12:53:19Z</time>
      </trkpt>
      <trkpt lat="42.84722" lon="0.50853">
        <ele>1478.015</ele>
        <time>2022-02-27T12:53:21Z</time>
      </trkpt>
      <trkpt lat="42.84722" lon="0.50853">
        <ele>1478.354</ele>
        <time>2022-02-27T12:53:23Z</time>
      </trkpt>
      <trkpt lat="42.84722" lon="0.50853">
        <ele>1478.636</ele>
        <time>2022-02-27T12:53:25Z</time>
      </trkpt>
      <trkpt lat="42.84722" lon="0.50853">
        <ele>1478.63</ele>
        <time>2022-02-27T12:53:27Z</time>
      </trkpt>
      <trkpt lat="42.84722" lon="0.50853">
        <ele>1478.622</ele>
        <time>2022-02-27T12:53:29Z</time>
      </trkpt>
      <trkpt lat="42.84722" lon="0.50853">
        <ele>1478.626</ele>
        <time>2022-02-27T12:53:31Z</time>
      </trkpt>
      <trkpt lat="42.84722" lon="0.50853">
        <ele>1478.625</ele>
        <time>2022-02-27T12:53:33Z</time>
      </trkpt>
      <trkpt lat="42.84722" lon="0.50853">
        <ele>1478.631</ele>
        <time>2022-02-27T12:53:35Z</time>
      </trkpt>
      <trkpt lat="42.84722" lon="0.50853">
        <ele>1478.627</ele>
        <time>2022-02-27T12:53:37Z</time>
      </trkpt>
      <trkpt lat="42.84722" lon="0.50854">
        <ele>1478.384</ele>
        <time>2022-02-27T12:53:39Z</time>
      </trkpt>
      <trkpt lat="42.84722" lon="0.50854">
        <ele>1478.375</ele>
        <time>2022-02-27T12:53:41Z</time>
      </trkpt>
      <trkpt lat="42.84722" lon="0.50854">
        <ele>1478.386</ele>
        <time>2022-02-27T12:53:43Z</time>
      </trkpt>
      <trkpt lat="42.84722" lon="0.50854">
        <ele>1478.4</ele>
        <time>2022-02-27T12:53:45Z</time>
      </trkpt>
      <trkpt lat="42.84722" lon="0.50854">
        <ele>1478.417</ele>
        <time>2022-02-27T12:53:47Z</time>
      </trkpt>
      <trkpt lat="42.84722" lon="0.50854">
        <ele>1478.423</ele>
        <time>2022-02-27T12:53:49Z</time>
      </trkpt>
      <trkpt lat="42.84722" lon="0.50854">
        <ele>1478.431</ele>
        <time>2022-02-27T12:53:51Z</time>
      </trkpt>
      <trkpt lat="42.84722" lon="0.50854">
        <ele>1478.439</ele>
        <time>2022-02-27T12:53:53Z</time>
      </trkpt>
      <trkpt lat="42.84722" lon="0.50854">
        <ele>1478.448</ele>
        <time>2022-02-27T12:53:55Z</time>
      </trkpt>
      <trkpt lat="42.84722" lon="0.50854">
        <ele>1478.458</ele>
        <time>2022-02-27T12:53:57Z</time>
      </trkpt>
      <trkpt lat="42.84722" lon="0.50854">
        <ele>1478.477</ele>
        <time>2022-02-27T12:53:59Z</time>
      </trkpt>
      <trkpt lat="42.84722" lon="0.50854">
        <ele>1478.48</ele>
        <time>2022-02-27T12:54:01Z</time>
      </trkpt>
      <trkpt lat="42.84722" lon="0.50854">
        <ele>1478.48</ele>
        <time>2022-02-27T12:54:03Z</time>
      </trkpt>
      <trkpt lat="42.84722" lon="0.50854">
        <ele>1478.476</ele>
        <time>2022-02-27T12:54:05Z</time>
      </trkpt>
      <trkpt lat="42.84722" lon="0.50854">
        <ele>1478.469</ele>
        <time>2022-02-27T12:54:07Z</time>
      </trkpt>
      <trkpt lat="42.84722" lon="0.50854">
        <ele>1478.46</ele>
        <time>2022-02-27T12:54:09Z</time>
      </trkpt>
      <trkpt lat="42.84722" lon="0.50854">
        <ele>1478.446</ele>
        <time>2022-02-27T12:54:11Z</time>
      </trkpt>
      <trkpt lat="42.84722" lon="0.50854">
        <ele>1478.436</ele>
        <time>2022-02-27T12:54:13Z</time>
      </trkpt>
      <trkpt lat="42.84722" lon="0.50854">
        <ele>1478.431</ele>
        <time>2022-02-27T12:54:15Z</time>
      </trkpt>
      <trkpt lat="42.84722" lon="0.50854">
        <ele>1478.428</ele>
        <time>2022-02-27T12:54:17Z</time>
      </trkpt>
      <trkpt lat="42.84722" lon="0.50854">
        <ele>1478.429</ele>
        <time>2022-02-27T12:54:19Z</time>
      </trkpt>
      <trkpt lat="42.84722" lon="0.50854">
        <ele>1478.426</ele>
        <time>2022-02-27T12:54:21Z</time>
      </trkpt>
      <trkpt lat="42.84722" lon="0.50854">
        <ele>1478.427</ele>
        <time>2022-02-27T12:54:23Z</time>
      </trkpt>
      <trkpt lat="42.84722" lon="0.50854">
        <ele>1478.429</ele>
        <time>2022-02-27T12:54:25Z</time>
      </trkpt>
      <trkpt lat="42.84722" lon="0.50854">
        <ele>1478.037</ele>
        <time>2022-02-27T12:54:27Z</time>
      </trkpt>
      <trkpt lat="42.84722" lon="0.50853">
        <ele>1477.639</ele>
        <time>2022-02-27T12:54:29Z</time>
      </trkpt>
      <trkpt lat="42.84722" lon="0.50853">
        <ele>1477.646</ele>
        <time>2022-02-27T12:54:31Z</time>
      </trkpt>
      <trkpt lat="42.84722" lon="0.50853">
        <ele>1477.646</ele>
        <time>2022-02-27T12:54:33Z</time>
      </trkpt>
      <trkpt lat="42.84722" lon="0.50853">
        <ele>1477.65</ele>
        <time>2022-02-27T12:54:35Z</time>
      </trkpt>
      <trkpt lat="42.84722" lon="0.50853">
        <ele>1478.181</ele>
        <time>2022-02-27T12:54:37Z</time>
      </trkpt>
      <trkpt lat="42.84722" lon="0.50854">
        <ele>1478.564</ele>
        <time>2022-02-27T12:54:39Z</time>
      </trkpt>
      <trkpt lat="42.84722" lon="0.50854">
        <ele>1478.572</ele>
        <time>2022-02-27T12:54:41Z</time>
      </trkpt>
      <trkpt lat="42.84722" lon="0.50853">
        <ele>1479.026</ele>
        <time>2022-02-27T12:54:43Z</time>
      </trkpt>
      <trkpt lat="42.84722" lon="0.50852">
        <ele>1478.819</ele>
        <time>2022-02-27T12:54:45Z</time>
      </trkpt>
      <trkpt lat="42.84722" lon="0.50853">
        <ele>1479.156</ele>
        <time>2022-02-27T12:54:47Z</time>
      </trkpt>
      <trkpt lat="42.84723" lon="0.50853">
        <ele>1479.147</ele>
        <time>2022-02-27T12:54:49Z</time>
      </trkpt>
      <trkpt lat="42.84723" lon="0.50853">
        <ele>1479.248</ele>
        <time>2022-02-27T12:54:51Z</time>
      </trkpt>
      <trkpt lat="42.84722" lon="0.50853">
        <ele>1478.175</ele>
        <time>2022-02-27T12:54:53Z</time>
      </trkpt>
      <trkpt lat="42.84722" lon="0.50853">
        <ele>1477.574</ele>
        <time>2022-02-27T12:54:55Z</time>
      </trkpt>
      <trkpt lat="42.84722" lon="0.50855">
        <ele>1477.782</ele>
        <time>2022-02-27T12:54:57Z</time>
      </trkpt>
      <trkpt lat="42.84722" lon="0.50855">
        <ele>1477.726</ele>
        <time>2022-02-27T12:54:59Z</time>
      </trkpt>
      <trkpt lat="42.84722" lon="0.50855">
        <ele>1477.635</ele>
        <time>2022-02-27T12:55:01Z</time>
      </trkpt>
      <trkpt lat="42.84722" lon="0.50855">
        <ele>1477.534</ele>
        <time>2022-02-27T12:55:03Z</time>
      </trkpt>
      <trkpt lat="42.84722" lon="0.50855">
        <ele>1477.531</ele>
        <time>2022-02-27T12:55:05Z</time>
      </trkpt>
      <trkpt lat="42.84722" lon="0.50855">
        <ele>1477.534</ele>
        <time>2022-02-27T12:55:07Z</time>
      </trkpt>
      <trkpt lat="42.84722" lon="0.50855">
        <ele>1477.538</ele>
        <time>2022-02-27T12:55:09Z</time>
      </trkpt>
      <trkpt lat="42.84722" lon="0.50854">
        <ele>1477.468</ele>
        <time>2022-02-27T12:55:11Z</time>
      </trkpt>
      <trkpt lat="42.84721" lon="0.50854">
        <ele>1477.134</ele>
        <time>2022-02-27T12:55:13Z</time>
      </trkpt>
      <trkpt lat="42.84721" lon="0.50854">
        <ele>1477.746</ele>
        <time>2022-02-27T12:55:15Z</time>
      </trkpt>
      <trkpt lat="42.84721" lon="0.50853">
        <ele>1476.699</ele>
        <time>2022-02-27T12:55:17Z</time>
      </trkpt>
      <trkpt lat="42.84721" lon="0.50852">
        <ele>1476.617</ele>
        <time>2022-02-27T12:55:19Z</time>
      </trkpt>
      <trkpt lat="42.84721" lon="0.50852">
        <ele>1476.635</ele>
        <time>2022-02-27T12:55:21Z</time>
      </trkpt>
      <trkpt lat="42.84721" lon="0.50852">
        <ele>1476.639</ele>
        <time>2022-02-27T12:55:23Z</time>
      </trkpt>
      <trkpt lat="42.84721" lon="0.50853">
        <ele>1476.882</ele>
        <time>2022-02-27T12:55:25Z</time>
      </trkpt>
      <trkpt lat="42.84721" lon="0.50854">
        <ele>1477.291</ele>
        <time>2022-02-27T12:55:27Z</time>
      </trkpt>
      <trkpt lat="42.84721" lon="0.50854">
        <ele>1477.197</ele>
        <time>2022-02-27T12:55:29Z</time>
      </trkpt>
      <trkpt lat="42.84721" lon="0.50854">
        <ele>1477.202</ele>
        <time>2022-02-27T12:55:31Z</time>
      </trkpt>
      <trkpt lat="42.84721" lon="0.50854">
        <ele>1477.203</ele>
        <time>2022-02-27T12:55:33Z</time>
      </trkpt>
      <trkpt lat="42.84721" lon="0.50854">
        <ele>1477.317</ele>
        <time>2022-02-27T12:55:35Z</time>
      </trkpt>
      <trkpt lat="42.84721" lon="0.50854">
        <ele>1477.327</ele>
        <time>2022-02-27T12:55:37Z</time>
      </trkpt>
      <trkpt lat="42.84721" lon="0.50854">
        <ele>1477.754</ele>
        <time>2022-02-27T12:55:39Z</time>
      </trkpt>
      <trkpt lat="42.84721" lon="0.50854">
        <ele>1477.773</ele>
        <time>2022-02-27T12:55:41Z</time>
      </trkpt>
      <trkpt lat="42.84721" lon="0.50854">
        <ele>1477.771</ele>
        <time>2022-02-27T12:55:43Z</time>
      </trkpt>
      <trkpt lat="42.84721" lon="0.50854">
        <ele>1477.517</ele>
        <time>2022-02-27T12:55:45Z</time>
      </trkpt>
      <trkpt lat="42.84721" lon="0.50854">
        <ele>1477.512</ele>
        <time>2022-02-27T12:55:47Z</time>
      </trkpt>
      <trkpt lat="42.84721" lon="0.50854">
        <ele>1477.505</ele>
        <time>2022-02-27T12:55:49Z</time>
      </trkpt>
      <trkpt lat="42.84721" lon="0.50854">
        <ele>1477.158</ele>
        <time>2022-02-27T12:55:51Z</time>
      </trkpt>
      <trkpt lat="42.84721" lon="0.50854">
        <ele>1477.012</ele>
        <time>2022-02-27T12:55:53Z</time>
      </trkpt>
      <trkpt lat="42.8472" lon="0.50854">
        <ele>1477.002</ele>
        <time>2022-02-27T12:55:55Z</time>
      </trkpt>
      <trkpt lat="42.84721" lon="0.50854">
        <ele>1476.941</ele>
        <time>2022-02-27T12:55:57Z</time>
      </trkpt>
      <trkpt lat="42.84721" lon="0.50854">
        <ele>1476.923</ele>
        <time>2022-02-27T12:55:59Z</time>
      </trkpt>
      <trkpt lat="42.84721" lon="0.50854">
        <ele>1476.928</ele>
        <time>2022-02-27T12:56:01Z</time>
      </trkpt>
      <trkpt lat="42.84721" lon="0.50854">
        <ele>1476.941</ele>
        <time>2022-02-27T12:56:03Z</time>
      </trkpt>
      <trkpt lat="42.84721" lon="0.50854">
        <ele>1476.945</ele>
        <time>2022-02-27T12:56:05Z</time>
      </trkpt>
      <trkpt lat="42.84721" lon="0.50854">
        <ele>1476.944</ele>
        <time>2022-02-27T12:56:07Z</time>
      </trkpt>
      <trkpt lat="42.84721" lon="0.50854">
        <ele>1476.947</ele>
        <time>2022-02-27T12:56:09Z</time>
      </trkpt>
      <trkpt lat="42.84721" lon="0.50854">
        <ele>1476.889</ele>
        <time>2022-02-27T12:56:11Z</time>
      </trkpt>
      <trkpt lat="42.84721" lon="0.50854">
        <ele>1477.046</ele>
        <time>2022-02-27T12:56:13Z</time>
      </trkpt>
      <trkpt lat="42.8472" lon="0.50854">
        <ele>1477.096</ele>
        <time>2022-02-27T12:56:15Z</time>
      </trkpt>
      <trkpt lat="42.8472" lon="0.50854">
        <ele>1477.118</ele>
        <time>2022-02-27T12:56:17Z</time>
      </trkpt>
      <trkpt lat="42.8472" lon="0.50854">
        <ele>1477.122</ele>
        <time>2022-02-27T12:56:19Z</time>
      </trkpt>
      <trkpt lat="42.8472" lon="0.50854">
        <ele>1477.118</ele>
        <time>2022-02-27T12:56:21Z</time>
      </trkpt>
      <trkpt lat="42.8472" lon="0.50854">
        <ele>1477.118</ele>
        <time>2022-02-27T12:56:23Z</time>
      </trkpt>
      <trkpt lat="42.8472" lon="0.50854">
        <ele>1477.123</ele>
        <time>2022-02-27T12:56:25Z</time>
      </trkpt>
      <trkpt lat="42.8472" lon="0.50854">
        <ele>1477.274</ele>
        <time>2022-02-27T12:56:27Z</time>
      </trkpt>
      <trkpt lat="42.8472" lon="0.50855">
        <ele>1476.923</ele>
        <time>2022-02-27T12:56:29Z</time>
      </trkpt>
      <trkpt lat="42.84721" lon="0.50856">
        <ele>1477.036</ele>
        <time>2022-02-27T12:56:31Z</time>
      </trkpt>
      <trkpt lat="42.84723" lon="0.50857">
        <ele>1476.756</ele>
        <time>2022-02-27T12:56:33Z</time>
      </trkpt>
      <trkpt lat="42.84725" lon="0.50858">
        <ele>1476.002</ele>
        <time>2022-02-27T12:56:35Z</time>
      </trkpt>
      <trkpt lat="42.84726" lon="0.50859">
        <ele>1476.797</ele>
        <time>2022-02-27T12:56:37Z</time>
      </trkpt>
      <trkpt lat="42.84727" lon="0.50861">
        <ele>1476.524</ele>
        <time>2022-02-27T12:56:39Z</time>
      </trkpt>
      <trkpt lat="42.84727" lon="0.50863">
        <ele>1475.422</ele>
        <time>2022-02-27T12:56:41Z</time>
      </trkpt>
      <trkpt lat="42.84727" lon="0.50866">
        <ele>1474.338</ele>
        <time>2022-02-27T12:56:43Z</time>
      </trkpt>
      <trkpt lat="42.84726" lon="0.50868">
        <ele>1474.465</ele>
        <time>2022-02-27T12:56:45Z</time>
      </trkpt>
      <trkpt lat="42.84726" lon="0.5087">
        <ele>1474.217</ele>
        <time>2022-02-27T12:56:47Z</time>
      </trkpt>
      <trkpt lat="42.84726" lon="0.50872">
        <ele>1475.131</ele>
        <time>2022-02-27T12:56:49Z</time>
      </trkpt>
      <trkpt lat="42.84725" lon="0.50873">
        <ele>1474.61</ele>
        <time>2022-02-27T12:56:51Z</time>
      </trkpt>
      <trkpt lat="42.84726" lon="0.50875">
        <ele>1475.681</ele>
        <time>2022-02-27T12:56:53Z</time>
      </trkpt>
      <trkpt lat="42.84726" lon="0.50877">
        <ele>1475.639</ele>
        <time>2022-02-27T12:56:55Z</time>
      </trkpt>
      <trkpt lat="42.84726" lon="0.50879">
        <ele>1476.217</ele>
        <time>2022-02-27T12:56:57Z</time>
      </trkpt>
      <trkpt lat="42.84726" lon="0.5088">
        <ele>1475.692</ele>
        <time>2022-02-27T12:56:59Z</time>
      </trkpt>
      <trkpt lat="42.84726" lon="0.50883">
        <ele>1476.832</ele>
        <time>2022-02-27T12:57:01Z</time>
      </trkpt>
      <trkpt lat="42.84725" lon="0.50886">
        <ele>1477.44</ele>
        <time>2022-02-27T12:57:03Z</time>
      </trkpt>
      <trkpt lat="42.84725" lon="0.50889">
        <ele>1478.399</ele>
        <time>2022-02-27T12:57:05Z</time>
      </trkpt>
      <trkpt lat="42.84725" lon="0.50891">
        <ele>1479.379</ele>
        <time>2022-02-27T12:57:07Z</time>
      </trkpt>
      <trkpt lat="42.84725" lon="0.50893">
        <ele>1479.654</ele>
        <time>2022-02-27T12:57:09Z</time>
      </trkpt>
      <trkpt lat="42.84725" lon="0.50894">
        <ele>1479.525</ele>
        <time>2022-02-27T12:57:11Z</time>
      </trkpt>
      <trkpt lat="42.84725" lon="0.50896">
        <ele>1478.635</ele>
        <time>2022-02-27T12:57:13Z</time>
      </trkpt>
      <trkpt lat="42.84725" lon="0.50898">
        <ele>1478.099</ele>
        <time>2022-02-27T12:57:15Z</time>
      </trkpt>
      <trkpt lat="42.84726" lon="0.509">
        <ele>1477.145</ele>
        <time>2022-02-27T12:57:17Z</time>
      </trkpt>
      <trkpt lat="42.84726" lon="0.50903">
        <ele>1475.987</ele>
        <time>2022-02-27T12:57:19Z</time>
      </trkpt>
      <trkpt lat="42.84726" lon="0.50905">
        <ele>1475.158</ele>
        <time>2022-02-27T12:57:21Z</time>
      </trkpt>
      <trkpt lat="42.84727" lon="0.50908">
        <ele>1474.494</ele>
        <time>2022-02-27T12:57:23Z</time>
      </trkpt>
      <trkpt lat="42.84727" lon="0.5091">
        <ele>1474.447</ele>
        <time>2022-02-27T12:57:25Z</time>
      </trkpt>
      <trkpt lat="42.84727" lon="0.50912">
        <ele>1474.887</ele>
        <time>2022-02-27T12:57:27Z</time>
      </trkpt>
      <trkpt lat="42.84727" lon="0.50914">
        <ele>1474.74</ele>
        <time>2022-02-27T12:57:29Z</time>
      </trkpt>
      <trkpt lat="42.84727" lon="0.50916">
        <ele>1473.956</ele>
        <time>2022-02-27T12:57:31Z</time>
      </trkpt>
      <trkpt lat="42.84728" lon="0.50918">
        <ele>1473.183</ele>
        <time>2022-02-27T12:57:33Z</time>
      </trkpt>
      <trkpt lat="42.84728" lon="0.5092">
        <ele>1473.143</ele>
        <time>2022-02-27T12:57:35Z</time>
      </trkpt>
      <trkpt lat="42.84728" lon="0.50922">
        <ele>1472.358</ele>
        <time>2022-02-27T12:57:37Z</time>
      </trkpt>
      <trkpt lat="42.84728" lon="0.50924">
        <ele>1472.315</ele>
        <time>2022-02-27T12:57:39Z</time>
      </trkpt>
      <trkpt lat="42.84728" lon="0.50927">
        <ele>1472.395</ele>
        <time>2022-02-27T12:57:41Z</time>
      </trkpt>
      <trkpt lat="42.84729" lon="0.50929">
        <ele>1472.486</ele>
        <time>2022-02-27T12:57:43Z</time>
      </trkpt>
      <trkpt lat="42.84729" lon="0.50931">
        <ele>1472.895</ele>
        <time>2022-02-27T12:57:45Z</time>
      </trkpt>
      <trkpt lat="42.84729" lon="0.50933">
        <ele>1473.512</ele>
        <time>2022-02-27T12:57:47Z</time>
      </trkpt>
      <trkpt lat="42.8473" lon="0.50934">
        <ele>1473.181</ele>
        <time>2022-02-27T12:57:49Z</time>
      </trkpt>
      <trkpt lat="42.8473" lon="0.50934">
        <ele>1471.689</ele>
        <time>2022-02-27T12:57:51Z</time>
      </trkpt>
      <trkpt lat="42.84731" lon="0.50936">
        <ele>1470.93</ele>
        <time>2022-02-27T12:57:53Z</time>
      </trkpt>
      <trkpt lat="42.84731" lon="0.50938">
        <ele>1469.11</ele>
        <time>2022-02-27T12:57:55Z</time>
      </trkpt>
      <trkpt lat="42.84731" lon="0.5094">
        <ele>1469.101</ele>
        <time>2022-02-27T12:57:57Z</time>
      </trkpt>
      <trkpt lat="42.84731" lon="0.50942">
        <ele>1468.421</ele>
        <time>2022-02-27T12:57:59Z</time>
      </trkpt>
      <trkpt lat="42.84731" lon="0.50944">
        <ele>1468.344</ele>
        <time>2022-02-27T12:58:01Z</time>
      </trkpt>
      <trkpt lat="42.84731" lon="0.50946">
        <ele>1468.024</ele>
        <time>2022-02-27T12:58:03Z</time>
      </trkpt>
      <trkpt lat="42.84731" lon="0.50947">
        <ele>1468.2</ele>
        <time>2022-02-27T12:58:05Z</time>
      </trkpt>
      <trkpt lat="42.84731" lon="0.50949">
        <ele>1469.443</ele>
        <time>2022-02-27T12:58:07Z</time>
      </trkpt>
      <trkpt lat="42.84731" lon="0.50951">
        <ele>1470.452</ele>
        <time>2022-02-27T12:58:09Z</time>
      </trkpt>
      <trkpt lat="42.84731" lon="0.50952">
        <ele>1468.078</ele>
        <time>2022-02-27T12:58:11Z</time>
      </trkpt>
      <trkpt lat="42.84731" lon="0.50954">
        <ele>1467.944</ele>
        <time>2022-02-27T12:58:13Z</time>
      </trkpt>
      <trkpt lat="42.8473" lon="0.50956">
        <ele>1467.426</ele>
        <time>2022-02-27T12:58:15Z</time>
      </trkpt>
      <trkpt lat="42.8473" lon="0.50958">
        <ele>1467.081</ele>
        <time>2022-02-27T12:58:17Z</time>
      </trkpt>
      <trkpt lat="42.8473" lon="0.50959">
        <ele>1466.213</ele>
        <time>2022-02-27T12:58:19Z</time>
      </trkpt>
      <trkpt lat="42.8473" lon="0.50961">
        <ele>1466.737</ele>
        <time>2022-02-27T12:58:21Z</time>
      </trkpt>
      <trkpt lat="42.84731" lon="0.50963">
        <ele>1467.222</ele>
        <time>2022-02-27T12:58:23Z</time>
      </trkpt>
      <trkpt lat="42.8473" lon="0.50965">
        <ele>1467.445</ele>
        <time>2022-02-27T12:58:25Z</time>
      </trkpt>
      <trkpt lat="42.8473" lon="0.50967">
        <ele>1467.138</ele>
        <time>2022-02-27T12:58:27Z</time>
      </trkpt>
      <trkpt lat="42.8473" lon="0.50969">
        <ele>1466.034</ele>
        <time>2022-02-27T12:58:29Z</time>
      </trkpt>
      <trkpt lat="42.84731" lon="0.50971">
        <ele>1466.365</ele>
        <time>2022-02-27T12:58:31Z</time>
      </trkpt>
      <trkpt lat="42.84731" lon="0.50973">
        <ele>1466.819</ele>
        <time>2022-02-27T12:58:33Z</time>
      </trkpt>
      <trkpt lat="42.84731" lon="0.50975">
        <ele>1466.552</ele>
        <time>2022-02-27T12:58:35Z</time>
      </trkpt>
      <trkpt lat="42.8473" lon="0.50977">
        <ele>1465.336</ele>
        <time>2022-02-27T12:58:37Z</time>
      </trkpt>
      <trkpt lat="42.84731" lon="0.50979">
        <ele>1464.07</ele>
        <time>2022-02-27T12:58:39Z</time>
      </trkpt>
      <trkpt lat="42.84731" lon="0.50981">
        <ele>1463.661</ele>
        <time>2022-02-27T12:58:41Z</time>
      </trkpt>
      <trkpt lat="42.8473" lon="0.50984">
        <ele>1462.48</ele>
        <time>2022-02-27T12:58:43Z</time>
      </trkpt>
      <trkpt lat="42.8473" lon="0.50986">
        <ele>1461.705</ele>
        <time>2022-02-27T12:58:45Z</time>
      </trkpt>
      <trkpt lat="42.84729" lon="0.50988">
        <ele>1461.469</ele>
        <time>2022-02-27T12:58:47Z</time>
      </trkpt>
      <trkpt lat="42.84729" lon="0.50991">
        <ele>1460.756</ele>
        <time>2022-02-27T12:58:49Z</time>
      </trkpt>
      <trkpt lat="42.84728" lon="0.50993">
        <ele>1459.293</ele>
        <time>2022-02-27T12:58:51Z</time>
      </trkpt>
      <trkpt lat="42.84728" lon="0.50996">
        <ele>1458.565</ele>
        <time>2022-02-27T12:58:53Z</time>
      </trkpt>
      <trkpt lat="42.84728" lon="0.50998">
        <ele>1458.579</ele>
        <time>2022-02-27T12:58:55Z</time>
      </trkpt>
      <trkpt lat="42.84728" lon="0.51001">
        <ele>1457.829</ele>
        <time>2022-02-27T12:58:57Z</time>
      </trkpt>
      <trkpt lat="42.84728" lon="0.51003">
        <ele>1457.607</ele>
        <time>2022-02-27T12:58:59Z</time>
      </trkpt>
      <trkpt lat="42.84728" lon="0.51005">
        <ele>1457.715</ele>
        <time>2022-02-27T12:59:01Z</time>
      </trkpt>
      <trkpt lat="42.84728" lon="0.51008">
        <ele>1457.042</ele>
        <time>2022-02-27T12:59:03Z</time>
      </trkpt>
      <trkpt lat="42.84728" lon="0.5101">
        <ele>1456.344</ele>
        <time>2022-02-27T12:59:05Z</time>
      </trkpt>
      <trkpt lat="42.84728" lon="0.51012">
        <ele>1456.446</ele>
        <time>2022-02-27T12:59:07Z</time>
      </trkpt>
      <trkpt lat="42.84729" lon="0.51015">
        <ele>1456.078</ele>
        <time>2022-02-27T12:59:09Z</time>
      </trkpt>
      <trkpt lat="42.84729" lon="0.51017">
        <ele>1455.571</ele>
        <time>2022-02-27T12:59:11Z</time>
      </trkpt>
      <trkpt lat="42.8473" lon="0.5102">
        <ele>1453.471</ele>
        <time>2022-02-27T12:59:13Z</time>
      </trkpt>
      <trkpt lat="42.8473" lon="0.51022">
        <ele>1453.469</ele>
        <time>2022-02-27T12:59:15Z</time>
      </trkpt>
      <trkpt lat="42.8473" lon="0.51025">
        <ele>1452.779</ele>
        <time>2022-02-27T12:59:17Z</time>
      </trkpt>
      <trkpt lat="42.8473" lon="0.51027">
        <ele>1453.41</ele>
        <time>2022-02-27T12:59:19Z</time>
      </trkpt>
      <trkpt lat="42.8473" lon="0.5103">
        <ele>1453.491</ele>
        <time>2022-02-27T12:59:21Z</time>
      </trkpt>
      <trkpt lat="42.8473" lon="0.51032">
        <ele>1452.792</ele>
        <time>2022-02-27T12:59:23Z</time>
      </trkpt>
      <trkpt lat="42.8473" lon="0.51035">
        <ele>1450.863</ele>
        <time>2022-02-27T12:59:25Z</time>
      </trkpt>
      <trkpt lat="42.84731" lon="0.51037">
        <ele>1450.345</ele>
        <time>2022-02-27T12:59:27Z</time>
      </trkpt>
      <trkpt lat="42.84732" lon="0.51038">
        <ele>1449.558</ele>
        <time>2022-02-27T12:59:29Z</time>
      </trkpt>
      <trkpt lat="42.84734" lon="0.5104">
        <ele>1448.239</ele>
        <time>2022-02-27T12:59:31Z</time>
      </trkpt>
      <trkpt lat="42.84734" lon="0.51042">
        <ele>1447.812</ele>
        <time>2022-02-27T12:59:33Z</time>
      </trkpt>
      <trkpt lat="42.84733" lon="0.51044">
        <ele>1447.129</ele>
        <time>2022-02-27T12:59:35Z</time>
      </trkpt>
      <trkpt lat="42.84733" lon="0.51046">
        <ele>1447.134</ele>
        <time>2022-02-27T12:59:37Z</time>
      </trkpt>
      <trkpt lat="42.84733" lon="0.51048">
        <ele>1446.487</ele>
        <time>2022-02-27T12:59:39Z</time>
      </trkpt>
      <trkpt lat="42.84733" lon="0.5105">
        <ele>1446.586</ele>
        <time>2022-02-27T12:59:41Z</time>
      </trkpt>
      <trkpt lat="42.84734" lon="0.51052">
        <ele>1446.076</ele>
        <time>2022-02-27T12:59:43Z</time>
      </trkpt>
      <trkpt lat="42.84734" lon="0.51054">
        <ele>1446.613</ele>
        <time>2022-02-27T12:59:45Z</time>
      </trkpt>
      <trkpt lat="42.84735" lon="0.51056">
        <ele>1446.004</ele>
        <time>2022-02-27T12:59:47Z</time>
      </trkpt>
      <trkpt lat="42.84735" lon="0.51058">
        <ele>1444.869</ele>
        <time>2022-02-27T12:59:49Z</time>
      </trkpt>
      <trkpt lat="42.84737" lon="0.51059">
        <ele>1444.496</ele>
        <time>2022-02-27T12:59:51Z</time>
      </trkpt>
      <trkpt lat="42.84738" lon="0.51061">
        <ele>1444.422</ele>
        <time>2022-02-27T12:59:53Z</time>
      </trkpt>
      <trkpt lat="42.84739" lon="0.51062">
        <ele>1444.879</ele>
        <time>2022-02-27T12:59:55Z</time>
      </trkpt>
      <trkpt lat="42.8474" lon="0.51063">
        <ele>1443.568</ele>
        <time>2022-02-27T12:59:57Z</time>
      </trkpt>
      <trkpt lat="42.8474" lon="0.51065">
        <ele>1443.293</ele>
        <time>2022-02-27T12:59:59Z</time>
      </trkpt>
      <trkpt lat="42.84741" lon="0.51066">
        <ele>1442.839</ele>
        <time>2022-02-27T13:00:01Z</time>
      </trkpt>
      <trkpt lat="42.84742" lon="0.51067">
        <ele>1441.312</ele>
        <time>2022-02-27T13:00:03Z</time>
      </trkpt>
      <trkpt lat="42.84743" lon="0.51069">
        <ele>1440.563</ele>
        <time>2022-02-27T13:00:05Z</time>
      </trkpt>
      <trkpt lat="42.84745" lon="0.5107">
        <ele>1439.366</ele>
        <time>2022-02-27T13:00:07Z</time>
      </trkpt>
      <trkpt lat="42.84746" lon="0.51072">
        <ele>1438.51</ele>
        <time>2022-02-27T13:00:09Z</time>
      </trkpt>
      <trkpt lat="42.84747" lon="0.51073">
        <ele>1438.403</ele>
        <time>2022-02-27T13:00:11Z</time>
      </trkpt>
      <trkpt lat="42.84749" lon="0.51074">
        <ele>1437.309</ele>
        <time>2022-02-27T13:00:13Z</time>
      </trkpt>
      <trkpt lat="42.8475" lon="0.51075">
        <ele>1438.023</ele>
        <time>2022-02-27T13:00:15Z</time>
      </trkpt>
      <trkpt lat="42.84751" lon="0.51075">
        <ele>1437.157</ele>
        <time>2022-02-27T13:00:17Z</time>
      </trkpt>
      <trkpt lat="42.84752" lon="0.51078">
        <ele>1438.624</ele>
        <time>2022-02-27T13:00:19Z</time>
      </trkpt>
      <trkpt lat="42.84752" lon="0.5108">
        <ele>1438.233</ele>
        <time>2022-02-27T13:00:21Z</time>
      </trkpt>
      <trkpt lat="42.84753" lon="0.51081">
        <ele>1438.171</ele>
        <time>2022-02-27T13:00:23Z</time>
      </trkpt>
      <trkpt lat="42.84754" lon="0.51083">
        <ele>1437.01</ele>
        <time>2022-02-27T13:00:25Z</time>
      </trkpt>
      <trkpt lat="42.84756" lon="0.51084">
        <ele>1436.409</ele>
        <time>2022-02-27T13:00:27Z</time>
      </trkpt>
      <trkpt lat="42.84757" lon="0.51085">
        <ele>1435.833</ele>
        <time>2022-02-27T13:00:29Z</time>
      </trkpt>
      <trkpt lat="42.84758" lon="0.51086">
        <ele>1436.172</ele>
        <time>2022-02-27T13:00:31Z</time>
      </trkpt>
      <trkpt lat="42.84759" lon="0.51088">
        <ele>1435.121</ele>
        <time>2022-02-27T13:00:33Z</time>
      </trkpt>
      <trkpt lat="42.84761" lon="0.51089">
        <ele>1434.44</ele>
        <time>2022-02-27T13:00:35Z</time>
      </trkpt>
      <trkpt lat="42.84762" lon="0.5109">
        <ele>1435.664</ele>
        <time>2022-02-27T13:00:37Z</time>
      </trkpt>
      <trkpt lat="42.84764" lon="0.51092">
        <ele>1435.769</ele>
        <time>2022-02-27T13:00:39Z</time>
      </trkpt>
      <trkpt lat="42.84765" lon="0.51092">
        <ele>1435.802</ele>
        <time>2022-02-27T13:00:41Z</time>
      </trkpt>
      <trkpt lat="42.84767" lon="0.51094">
        <ele>1434.675</ele>
        <time>2022-02-27T13:00:43Z</time>
      </trkpt>
      <trkpt lat="42.84768" lon="0.51096">
        <ele>1433.434</ele>
        <time>2022-02-27T13:00:45Z</time>
      </trkpt>
      <trkpt lat="42.84769" lon="0.51098">
        <ele>1433.143</ele>
        <time>2022-02-27T13:00:47Z</time>
      </trkpt>
      <trkpt lat="42.8477" lon="0.511">
        <ele>1431.975</ele>
        <time>2022-02-27T13:00:49Z</time>
      </trkpt>
      <trkpt lat="42.84772" lon="0.51102">
        <ele>1431.492</ele>
        <time>2022-02-27T13:00:51Z</time>
      </trkpt>
      <trkpt lat="42.84772" lon="0.51104">
        <ele>1431.304</ele>
        <time>2022-02-27T13:00:53Z</time>
      </trkpt>
      <trkpt lat="42.84773" lon="0.51105">
        <ele>1431.43</ele>
        <time>2022-02-27T13:00:55Z</time>
      </trkpt>
      <trkpt lat="42.84774" lon="0.51107">
        <ele>1429.843</ele>
        <time>2022-02-27T13:00:57Z</time>
      </trkpt>
      <trkpt lat="42.84775" lon="0.51109">
        <ele>1429.119</ele>
        <time>2022-02-27T13:00:59Z</time>
      </trkpt>
      <trkpt lat="42.84776" lon="0.51111">
        <ele>1428.336</ele>
        <time>2022-02-27T13:01:01Z</time>
      </trkpt>
      <trkpt lat="42.84777" lon="0.51113">
        <ele>1428.469</ele>
        <time>2022-02-27T13:01:03Z</time>
      </trkpt>
      <trkpt lat="42.84778" lon="0.51115">
        <ele>1427.906</ele>
        <time>2022-02-27T13:01:05Z</time>
      </trkpt>
      <trkpt lat="42.84778" lon="0.51118">
        <ele>1427.333</ele>
        <time>2022-02-27T13:01:07Z</time>
      </trkpt>
      <trkpt lat="42.84779" lon="0.5112">
        <ele>1425.571</ele>
        <time>2022-02-27T13:01:09Z</time>
      </trkpt>
      <trkpt lat="42.84779" lon="0.51122">
        <ele>1425.26</ele>
        <time>2022-02-27T13:01:11Z</time>
      </trkpt>
      <trkpt lat="42.8478" lon="0.51124">
        <ele>1425.545</ele>
        <time>2022-02-27T13:01:13Z</time>
      </trkpt>
      <trkpt lat="42.84782" lon="0.51125">
        <ele>1424.292</ele>
        <time>2022-02-27T13:01:15Z</time>
      </trkpt>
      <trkpt lat="42.84782" lon="0.51127">
        <ele>1424.17</ele>
        <time>2022-02-27T13:01:17Z</time>
      </trkpt>
      <trkpt lat="42.84783" lon="0.5113">
        <ele>1423.435</ele>
        <time>2022-02-27T13:01:19Z</time>
      </trkpt>
      <trkpt lat="42.84784" lon="0.51132">
        <ele>1422.556</ele>
        <time>2022-02-27T13:01:21Z</time>
      </trkpt>
      <trkpt lat="42.84784" lon="0.51135">
        <ele>1423.12</ele>
        <time>2022-02-27T13:01:23Z</time>
      </trkpt>
      <trkpt lat="42.84784" lon="0.51137">
        <ele>1422.801</ele>
        <time>2022-02-27T13:01:25Z</time>
      </trkpt>
      <trkpt lat="42.84784" lon="0.51139">
        <ele>1421.056</ele>
        <time>2022-02-27T13:01:27Z</time>
      </trkpt>
      <trkpt lat="42.84786" lon="0.51141">
        <ele>1421.632</ele>
        <time>2022-02-27T13:01:29Z</time>
      </trkpt>
      <trkpt lat="42.84787" lon="0.51142">
        <ele>1422.07</ele>
        <time>2022-02-27T13:01:31Z</time>
      </trkpt>
      <trkpt lat="42.84788" lon="0.51144">
        <ele>1421.434</ele>
        <time>2022-02-27T13:01:33Z</time>
      </trkpt>
      <trkpt lat="42.84788" lon="0.51146">
        <ele>1421.273</ele>
        <time>2022-02-27T13:01:35Z</time>
      </trkpt>
      <trkpt lat="42.84789" lon="0.51148">
        <ele>1421.593</ele>
        <time>2022-02-27T13:01:37Z</time>
      </trkpt>
      <trkpt lat="42.8479" lon="0.5115">
        <ele>1421.437</ele>
        <time>2022-02-27T13:01:39Z</time>
      </trkpt>
      <trkpt lat="42.84791" lon="0.51151">
        <ele>1421.642</ele>
        <time>2022-02-27T13:01:41Z</time>
      </trkpt>
      <trkpt lat="42.84792" lon="0.51153">
        <ele>1422.255</ele>
        <time>2022-02-27T13:01:43Z</time>
      </trkpt>
      <trkpt lat="42.84794" lon="0.51155">
        <ele>1423.518</ele>
        <time>2022-02-27T13:01:45Z</time>
      </trkpt>
      <trkpt lat="42.84796" lon="0.51156">
        <ele>1424.566</ele>
        <time>2022-02-27T13:01:47Z</time>
      </trkpt>
      <trkpt lat="42.84797" lon="0.51157">
        <ele>1424.177</ele>
        <time>2022-02-27T13:01:49Z</time>
      </trkpt>
      <trkpt lat="42.84799" lon="0.51159">
        <ele>1424.949</ele>
        <time>2022-02-27T13:01:51Z</time>
      </trkpt>
      <trkpt lat="42.848" lon="0.51159">
        <ele>1424.39</ele>
        <time>2022-02-27T13:01:53Z</time>
      </trkpt>
      <trkpt lat="42.84802" lon="0.5116">
        <ele>1424.194</ele>
        <time>2022-02-27T13:01:55Z</time>
      </trkpt>
      <trkpt lat="42.84803" lon="0.5116">
        <ele>1424.497</ele>
        <time>2022-02-27T13:01:57Z</time>
      </trkpt>
      <trkpt lat="42.84805" lon="0.5116">
        <ele>1424.596</ele>
        <time>2022-02-27T13:01:59Z</time>
      </trkpt>
      <trkpt lat="42.84806" lon="0.5116">
        <ele>1424.829</ele>
        <time>2022-02-27T13:02:01Z</time>
      </trkpt>
      <trkpt lat="42.84808" lon="0.5116">
        <ele>1425.037</ele>
        <time>2022-02-27T13:02:03Z</time>
      </trkpt>
      <trkpt lat="42.84808" lon="0.5116">
        <ele>1424.521</ele>
        <time>2022-02-27T13:02:05Z</time>
      </trkpt>
      <trkpt lat="42.84809" lon="0.5116">
        <ele>1424.965</ele>
        <time>2022-02-27T13:02:07Z</time>
      </trkpt>
      <trkpt lat="42.8481" lon="0.51159">
        <ele>1425.006</ele>
        <time>2022-02-27T13:02:09Z</time>
      </trkpt>
      <trkpt lat="42.84811" lon="0.5116">
        <ele>1424.794</ele>
        <time>2022-02-27T13:02:11Z</time>
      </trkpt>
      <trkpt lat="42.84813" lon="0.51161">
        <ele>1423.465</ele>
        <time>2022-02-27T13:02:13Z</time>
      </trkpt>
      <trkpt lat="42.84814" lon="0.51162">
        <ele>1422.625</ele>
        <time>2022-02-27T13:02:15Z</time>
      </trkpt>
      <trkpt lat="42.84815" lon="0.51163">
        <ele>1421.479</ele>
        <time>2022-02-27T13:02:17Z</time>
      </trkpt>
      <trkpt lat="42.84816" lon="0.51164">
        <ele>1420.643</ele>
        <time>2022-02-27T13:02:19Z</time>
      </trkpt>
      <trkpt lat="42.84818" lon="0.51166">
        <ele>1420.57</ele>
        <time>2022-02-27T13:02:21Z</time>
      </trkpt>
      <trkpt lat="42.84819" lon="0.51167">
        <ele>1419.616</ele>
        <time>2022-02-27T13:02:23Z</time>
      </trkpt>
      <trkpt lat="42.8482" lon="0.51168">
        <ele>1418.194</ele>
        <time>2022-02-27T13:02:25Z</time>
      </trkpt>
      <trkpt lat="42.84821" lon="0.5117">
        <ele>1416.768</ele>
        <time>2022-02-27T13:02:27Z</time>
      </trkpt>
      <trkpt lat="42.84823" lon="0.51172">
        <ele>1415.728</ele>
        <time>2022-02-27T13:02:29Z</time>
      </trkpt>
      <trkpt lat="42.84824" lon="0.51173">
        <ele>1414.233</ele>
        <time>2022-02-27T13:02:31Z</time>
      </trkpt>
      <trkpt lat="42.84825" lon="0.51174">
        <ele>1412.985</ele>
        <time>2022-02-27T13:02:33Z</time>
      </trkpt>
      <trkpt lat="42.84827" lon="0.51177">
        <ele>1413.18</ele>
        <time>2022-02-27T13:02:35Z</time>
      </trkpt>
      <trkpt lat="42.84828" lon="0.51178">
        <ele>1412.437</ele>
        <time>2022-02-27T13:02:37Z</time>
      </trkpt>
      <trkpt lat="42.8483" lon="0.51179">
        <ele>1411.995</ele>
        <time>2022-02-27T13:02:39Z</time>
      </trkpt>
      <trkpt lat="42.84832" lon="0.5118">
        <ele>1411.815</ele>
        <time>2022-02-27T13:02:41Z</time>
      </trkpt>
      <trkpt lat="42.84833" lon="0.51182">
        <ele>1411.577</ele>
        <time>2022-02-27T13:02:43Z</time>
      </trkpt>
      <trkpt lat="42.84835" lon="0.51184">
        <ele>1410.261</ele>
        <time>2022-02-27T13:02:45Z</time>
      </trkpt>
      <trkpt lat="42.84836" lon="0.51185">
        <ele>1409.942</ele>
        <time>2022-02-27T13:02:47Z</time>
      </trkpt>
      <trkpt lat="42.84838" lon="0.51187">
        <ele>1409.151</ele>
        <time>2022-02-27T13:02:49Z</time>
      </trkpt>
      <trkpt lat="42.84839" lon="0.51188">
        <ele>1408.433</ele>
        <time>2022-02-27T13:02:51Z</time>
      </trkpt>
      <trkpt lat="42.8484" lon="0.51189">
        <ele>1407.287</ele>
        <time>2022-02-27T13:02:53Z</time>
      </trkpt>
      <trkpt lat="42.84842" lon="0.51191">
        <ele>1406.802</ele>
        <time>2022-02-27T13:02:55Z</time>
      </trkpt>
      <trkpt lat="42.84843" lon="0.51193">
        <ele>1406.112</ele>
        <time>2022-02-27T13:02:57Z</time>
      </trkpt>
      <trkpt lat="42.84845" lon="0.51194">
        <ele>1405.081</ele>
        <time>2022-02-27T13:02:59Z</time>
      </trkpt>
      <trkpt lat="42.84846" lon="0.51195">
        <ele>1403.889</ele>
        <time>2022-02-27T13:03:01Z</time>
      </trkpt>
      <trkpt lat="42.84848" lon="0.51197">
        <ele>1403.769</ele>
        <time>2022-02-27T13:03:03Z</time>
      </trkpt>
      <trkpt lat="42.84849" lon="0.51198">
        <ele>1404.033</ele>
        <time>2022-02-27T13:03:05Z</time>
      </trkpt>
      <trkpt lat="42.8485" lon="0.512">
        <ele>1403.781</ele>
        <time>2022-02-27T13:03:07Z</time>
      </trkpt>
      <trkpt lat="42.84851" lon="0.51202">
        <ele>1403.214</ele>
        <time>2022-02-27T13:03:09Z</time>
      </trkpt>
      <trkpt lat="42.84853" lon="0.51204">
        <ele>1403.074</ele>
        <time>2022-02-27T13:03:11Z</time>
      </trkpt>
      <trkpt lat="42.84854" lon="0.51207">
        <ele>1403.085</ele>
        <time>2022-02-27T13:03:13Z</time>
      </trkpt>
      <trkpt lat="42.84856" lon="0.51208">
        <ele>1402.04</ele>
        <time>2022-02-27T13:03:15Z</time>
      </trkpt>
      <trkpt lat="42.84857" lon="0.51209">
        <ele>1401.421</ele>
        <time>2022-02-27T13:03:17Z</time>
      </trkpt>
      <trkpt lat="42.84858" lon="0.51212">
        <ele>1402.538</ele>
        <time>2022-02-27T13:03:19Z</time>
      </trkpt>
      <trkpt lat="42.84859" lon="0.51214">
        <ele>1401.973</ele>
        <time>2022-02-27T13:03:21Z</time>
      </trkpt>
      <trkpt lat="42.8486" lon="0.51216">
        <ele>1401.463</ele>
        <time>2022-02-27T13:03:23Z</time>
      </trkpt>
      <trkpt lat="42.84862" lon="0.51217">
        <ele>1401.94</ele>
        <time>2022-02-27T13:03:25Z</time>
      </trkpt>
      <trkpt lat="42.84863" lon="0.51218">
        <ele>1401.885</ele>
        <time>2022-02-27T13:03:27Z</time>
      </trkpt>
      <trkpt lat="42.84864" lon="0.51219">
        <ele>1402.249</ele>
        <time>2022-02-27T13:03:29Z</time>
      </trkpt>
      <trkpt lat="42.84865" lon="0.51221">
        <ele>1403.119</ele>
        <time>2022-02-27T13:03:31Z</time>
      </trkpt>
      <trkpt lat="42.84867" lon="0.51222">
        <ele>1402.876</ele>
        <time>2022-02-27T13:03:33Z</time>
      </trkpt>
      <trkpt lat="42.84869" lon="0.51224">
        <ele>1403.831</ele>
        <time>2022-02-27T13:03:35Z</time>
      </trkpt>
      <trkpt lat="42.84871" lon="0.51225">
        <ele>1404.009</ele>
        <time>2022-02-27T13:03:37Z</time>
      </trkpt>
      <trkpt lat="42.84872" lon="0.51228">
        <ele>1403.736</ele>
        <time>2022-02-27T13:03:39Z</time>
      </trkpt>
      <trkpt lat="42.84873" lon="0.51229">
        <ele>1404.629</ele>
        <time>2022-02-27T13:03:41Z</time>
      </trkpt>
      <trkpt lat="42.84875" lon="0.5123">
        <ele>1405.404</ele>
        <time>2022-02-27T13:03:43Z</time>
      </trkpt>
      <trkpt lat="42.84876" lon="0.51232">
        <ele>1404.588</ele>
        <time>2022-02-27T13:03:45Z</time>
      </trkpt>
      <trkpt lat="42.84877" lon="0.51233">
        <ele>1404.476</ele>
        <time>2022-02-27T13:03:47Z</time>
      </trkpt>
      <trkpt lat="42.84879" lon="0.51235">
        <ele>1404.519</ele>
        <time>2022-02-27T13:03:49Z</time>
      </trkpt>
      <trkpt lat="42.8488" lon="0.51237">
        <ele>1405.802</ele>
        <time>2022-02-27T13:03:51Z</time>
      </trkpt>
      <trkpt lat="42.84881" lon="0.51239">
        <ele>1405.742</ele>
        <time>2022-02-27T13:03:53Z</time>
      </trkpt>
      <trkpt lat="42.84882" lon="0.51241">
        <ele>1405.49</ele>
        <time>2022-02-27T13:03:55Z</time>
      </trkpt>
      <trkpt lat="42.84883" lon="0.51242">
        <ele>1405.429</ele>
        <time>2022-02-27T13:03:57Z</time>
      </trkpt>
      <trkpt lat="42.84884" lon="0.51244">
        <ele>1406.091</ele>
        <time>2022-02-27T13:03:59Z</time>
      </trkpt>
      <trkpt lat="42.84886" lon="0.51246">
        <ele>1405.543</ele>
        <time>2022-02-27T13:04:01Z</time>
      </trkpt>
      <trkpt lat="42.84887" lon="0.51247">
        <ele>1405.252</ele>
        <time>2022-02-27T13:04:03Z</time>
      </trkpt>
      <trkpt lat="42.84888" lon="0.51249">
        <ele>1404.738</ele>
        <time>2022-02-27T13:04:05Z</time>
      </trkpt>
      <trkpt lat="42.84889" lon="0.51252">
        <ele>1402.428</ele>
        <time>2022-02-27T13:04:07Z</time>
      </trkpt>
      <trkpt lat="42.8489" lon="0.51254">
        <ele>1401.331</ele>
        <time>2022-02-27T13:04:09Z</time>
      </trkpt>
      <trkpt lat="42.84891" lon="0.51255">
        <ele>1400.663</ele>
        <time>2022-02-27T13:04:11Z</time>
      </trkpt>
      <trkpt lat="42.84893" lon="0.51257">
        <ele>1398.165</ele>
        <time>2022-02-27T13:04:13Z</time>
      </trkpt>
      <trkpt lat="42.84895" lon="0.51259">
        <ele>1397.958</ele>
        <time>2022-02-27T13:04:15Z</time>
      </trkpt>
      <trkpt lat="42.84896" lon="0.51261">
        <ele>1397.34</ele>
        <time>2022-02-27T13:04:17Z</time>
      </trkpt>
      <trkpt lat="42.84896" lon="0.51263">
        <ele>1396.295</ele>
        <time>2022-02-27T13:04:19Z</time>
      </trkpt>
      <trkpt lat="42.84897" lon="0.51266">
        <ele>1396.992</ele>
        <time>2022-02-27T13:04:21Z</time>
      </trkpt>
      <trkpt lat="42.84899" lon="0.51268">
        <ele>1396.901</ele>
        <time>2022-02-27T13:04:23Z</time>
      </trkpt>
      <trkpt lat="42.849" lon="0.5127">
        <ele>1397.18</ele>
        <time>2022-02-27T13:04:25Z</time>
      </trkpt>
      <trkpt lat="42.84901" lon="0.51272">
        <ele>1397.345</ele>
        <time>2022-02-27T13:04:27Z</time>
      </trkpt>
      <trkpt lat="42.84903" lon="0.51274">
        <ele>1394.431</ele>
        <time>2022-02-27T13:04:29Z</time>
      </trkpt>
      <trkpt lat="42.84904" lon="0.51276">
        <ele>1393.631</ele>
        <time>2022-02-27T13:04:31Z</time>
      </trkpt>
      <trkpt lat="42.84906" lon="0.51278">
        <ele>1392.937</ele>
        <time>2022-02-27T13:04:33Z</time>
      </trkpt>
      <trkpt lat="42.84907" lon="0.5128">
        <ele>1392.376</ele>
        <time>2022-02-27T13:04:35Z</time>
      </trkpt>
      <trkpt lat="42.84909" lon="0.51281">
        <ele>1391.703</ele>
        <time>2022-02-27T13:04:37Z</time>
      </trkpt>
      <trkpt lat="42.8491" lon="0.51284">
        <ele>1390.735</ele>
        <time>2022-02-27T13:04:39Z</time>
      </trkpt>
      <trkpt lat="42.84911" lon="0.51285">
        <ele>1389.372</ele>
        <time>2022-02-27T13:04:41Z</time>
      </trkpt>
      <trkpt lat="42.84913" lon="0.51287">
        <ele>1389.563</ele>
        <time>2022-02-27T13:04:43Z</time>
      </trkpt>
      <trkpt lat="42.84914" lon="0.51289">
        <ele>1390.903</ele>
        <time>2022-02-27T13:04:45Z</time>
      </trkpt>
      <trkpt lat="42.84916" lon="0.51292">
        <ele>1391.106</ele>
        <time>2022-02-27T13:04:47Z</time>
      </trkpt>
      <trkpt lat="42.84917" lon="0.51294">
        <ele>1391.085</ele>
        <time>2022-02-27T13:04:49Z</time>
      </trkpt>
      <trkpt lat="42.84919" lon="0.51296">
        <ele>1390.852</ele>
        <time>2022-02-27T13:04:51Z</time>
      </trkpt>
      <trkpt lat="42.8492" lon="0.51298">
        <ele>1390.036</ele>
        <time>2022-02-27T13:04:53Z</time>
      </trkpt>
      <trkpt lat="42.84922" lon="0.513">
        <ele>1389.965</ele>
        <time>2022-02-27T13:04:55Z</time>
      </trkpt>
      <trkpt lat="42.84923" lon="0.51301">
        <ele>1388.971</ele>
        <time>2022-02-27T13:04:57Z</time>
      </trkpt>
      <trkpt lat="42.84925" lon="0.51303">
        <ele>1387.054</ele>
        <time>2022-02-27T13:04:59Z</time>
      </trkpt>
      <trkpt lat="42.84926" lon="0.51306">
        <ele>1385.914</ele>
        <time>2022-02-27T13:05:01Z</time>
      </trkpt>
      <trkpt lat="42.84927" lon="0.51308">
        <ele>1385.21</ele>
        <time>2022-02-27T13:05:03Z</time>
      </trkpt>
      <trkpt lat="42.84928" lon="0.5131">
        <ele>1384.174</ele>
        <time>2022-02-27T13:05:05Z</time>
      </trkpt>
      <trkpt lat="42.84929" lon="0.51312">
        <ele>1383.211</ele>
        <time>2022-02-27T13:05:07Z</time>
      </trkpt>
      <trkpt lat="42.8493" lon="0.51314">
        <ele>1381.967</ele>
        <time>2022-02-27T13:05:09Z</time>
      </trkpt>
      <trkpt lat="42.84931" lon="0.51316">
        <ele>1381.959</ele>
        <time>2022-02-27T13:05:11Z</time>
      </trkpt>
      <trkpt lat="42.84933" lon="0.51318">
        <ele>1380.393</ele>
        <time>2022-02-27T13:05:13Z</time>
      </trkpt>
      <trkpt lat="42.84934" lon="0.51319">
        <ele>1379.459</ele>
        <time>2022-02-27T13:05:15Z</time>
      </trkpt>
      <trkpt lat="42.84935" lon="0.51322">
        <ele>1380.549</ele>
        <time>2022-02-27T13:05:17Z</time>
      </trkpt>
      <trkpt lat="42.84936" lon="0.51324">
        <ele>1381.299</ele>
        <time>2022-02-27T13:05:19Z</time>
      </trkpt>
      <trkpt lat="42.84937" lon="0.51325">
        <ele>1380.444</ele>
        <time>2022-02-27T13:05:21Z</time>
      </trkpt>
      <trkpt lat="42.84939" lon="0.51326">
        <ele>1379.715</ele>
        <time>2022-02-27T13:05:23Z</time>
      </trkpt>
      <trkpt lat="42.8494" lon="0.51328">
        <ele>1378.818</ele>
        <time>2022-02-27T13:05:25Z</time>
      </trkpt>
      <trkpt lat="42.84942" lon="0.51331">
        <ele>1378.175</ele>
        <time>2022-02-27T13:05:27Z</time>
      </trkpt>
      <trkpt lat="42.84943" lon="0.51333">
        <ele>1379.129</ele>
        <time>2022-02-27T13:05:29Z</time>
      </trkpt>
      <trkpt lat="42.84943" lon="0.51334">
        <ele>1378.093</ele>
        <time>2022-02-27T13:05:31Z</time>
      </trkpt>
      <trkpt lat="42.84944" lon="0.51336">
        <ele>1377.978</ele>
        <time>2022-02-27T13:05:33Z</time>
      </trkpt>
      <trkpt lat="42.84946" lon="0.51338">
        <ele>1378.374</ele>
        <time>2022-02-27T13:05:35Z</time>
      </trkpt>
      <trkpt lat="42.84947" lon="0.5134">
        <ele>1379.085</ele>
        <time>2022-02-27T13:05:37Z</time>
      </trkpt>
      <trkpt lat="42.84948" lon="0.51342">
        <ele>1377.673</ele>
        <time>2022-02-27T13:05:39Z</time>
      </trkpt>
      <trkpt lat="42.84949" lon="0.51344">
        <ele>1376.332</ele>
        <time>2022-02-27T13:05:41Z</time>
      </trkpt>
      <trkpt lat="42.8495" lon="0.51346">
        <ele>1375.749</ele>
        <time>2022-02-27T13:05:43Z</time>
      </trkpt>
      <trkpt lat="42.84951" lon="0.51348">
        <ele>1374.804</ele>
        <time>2022-02-27T13:05:45Z</time>
      </trkpt>
      <trkpt lat="42.84952" lon="0.51349">
        <ele>1374.065</ele>
        <time>2022-02-27T13:05:47Z</time>
      </trkpt>
      <trkpt lat="42.84953" lon="0.51351">
        <ele>1373.402</ele>
        <time>2022-02-27T13:05:49Z</time>
      </trkpt>
      <trkpt lat="42.84955" lon="0.51352">
        <ele>1373.116</ele>
        <time>2022-02-27T13:05:51Z</time>
      </trkpt>
      <trkpt lat="42.84956" lon="0.51354">
        <ele>1372.921</ele>
        <time>2022-02-27T13:05:53Z</time>
      </trkpt>
      <trkpt lat="42.84957" lon="0.51356">
        <ele>1372.545</ele>
        <time>2022-02-27T13:05:55Z</time>
      </trkpt>
      <trkpt lat="42.84958" lon="0.51358">
        <ele>1372.643</ele>
        <time>2022-02-27T13:05:57Z</time>
      </trkpt>
      <trkpt lat="42.84959" lon="0.5136">
        <ele>1370.72</ele>
        <time>2022-02-27T13:05:59Z</time>
      </trkpt>
      <trkpt lat="42.84961" lon="0.51363">
        <ele>1370.261</ele>
        <time>2022-02-27T13:06:01Z</time>
      </trkpt>
      <trkpt lat="42.84962" lon="0.51365">
        <ele>1368.638</ele>
        <time>2022-02-27T13:06:03Z</time>
      </trkpt>
      <trkpt lat="42.84963" lon="0.51367">
        <ele>1367.839</ele>
        <time>2022-02-27T13:06:05Z</time>
      </trkpt>
      <trkpt lat="42.84964" lon="0.51369">
        <ele>1366.607</ele>
        <time>2022-02-27T13:06:07Z</time>
      </trkpt>
      <trkpt lat="42.84965" lon="0.51372">
        <ele>1365.682</ele>
        <time>2022-02-27T13:06:09Z</time>
      </trkpt>
      <trkpt lat="42.84966" lon="0.51375">
        <ele>1363.779</ele>
        <time>2022-02-27T13:06:11Z</time>
      </trkpt>
      <trkpt lat="42.84968" lon="0.51377">
        <ele>1362.133</ele>
        <time>2022-02-27T13:06:13Z</time>
      </trkpt>
      <trkpt lat="42.84969" lon="0.51378">
        <ele>1359.794</ele>
        <time>2022-02-27T13:06:15Z</time>
      </trkpt>
      <trkpt lat="42.8497" lon="0.51381">
        <ele>1358.511</ele>
        <time>2022-02-27T13:06:17Z</time>
      </trkpt>
      <trkpt lat="42.84971" lon="0.51383">
        <ele>1357.198</ele>
        <time>2022-02-27T13:06:19Z</time>
      </trkpt>
      <trkpt lat="42.84972" lon="0.51386">
        <ele>1355.945</ele>
        <time>2022-02-27T13:06:21Z</time>
      </trkpt>
      <trkpt lat="42.84972" lon="0.51389">
        <ele>1356.007</ele>
        <time>2022-02-27T13:06:23Z</time>
      </trkpt>
      <trkpt lat="42.84973" lon="0.51391">
        <ele>1354.686</ele>
        <time>2022-02-27T13:06:25Z</time>
      </trkpt>
      <trkpt lat="42.84973" lon="0.51393">
        <ele>1353.258</ele>
        <time>2022-02-27T13:06:27Z</time>
      </trkpt>
      <trkpt lat="42.84974" lon="0.51395">
        <ele>1353.249</ele>
        <time>2022-02-27T13:06:29Z</time>
      </trkpt>
      <trkpt lat="42.84975" lon="0.51396">
        <ele>1352.13</ele>
        <time>2022-02-27T13:06:31Z</time>
      </trkpt>
      <trkpt lat="42.84976" lon="0.51398">
        <ele>1350.648</ele>
        <time>2022-02-27T13:06:33Z</time>
      </trkpt>
      <trkpt lat="42.84976" lon="0.51401">
        <ele>1349.454</ele>
        <time>2022-02-27T13:06:35Z</time>
      </trkpt>
      <trkpt lat="42.84976" lon="0.51403">
        <ele>1348.661</ele>
        <time>2022-02-27T13:06:37Z</time>
      </trkpt>
      <trkpt lat="42.84977" lon="0.51406">
        <ele>1348.753</ele>
        <time>2022-02-27T13:06:39Z</time>
      </trkpt>
      <trkpt lat="42.84977" lon="0.51408">
        <ele>1348.716</ele>
        <time>2022-02-27T13:06:41Z</time>
      </trkpt>
      <trkpt lat="42.84978" lon="0.5141">
        <ele>1348.845</ele>
        <time>2022-02-27T13:06:43Z</time>
      </trkpt>
      <trkpt lat="42.84978" lon="0.51412">
        <ele>1347.392</ele>
        <time>2022-02-27T13:06:45Z</time>
      </trkpt>
      <trkpt lat="42.84978" lon="0.51415">
        <ele>1346.955</ele>
        <time>2022-02-27T13:06:47Z</time>
      </trkpt>
      <trkpt lat="42.84979" lon="0.51418">
        <ele>1346.897</ele>
        <time>2022-02-27T13:06:49Z</time>
      </trkpt>
      <trkpt lat="42.84979" lon="0.5142">
        <ele>1345.53</ele>
        <time>2022-02-27T13:06:51Z</time>
      </trkpt>
      <trkpt lat="42.84979" lon="0.51423">
        <ele>1345.209</ele>
        <time>2022-02-27T13:06:53Z</time>
      </trkpt>
      <trkpt lat="42.84979" lon="0.51426">
        <ele>1344.643</ele>
        <time>2022-02-27T13:06:55Z</time>
      </trkpt>
      <trkpt lat="42.84979" lon="0.51429">
        <ele>1344.058</ele>
        <time>2022-02-27T13:06:57Z</time>
      </trkpt>
      <trkpt lat="42.84979" lon="0.51431">
        <ele>1344.51</ele>
        <time>2022-02-27T13:06:59Z</time>
      </trkpt>
      <trkpt lat="42.84978" lon="0.51434">
        <ele>1345.475</ele>
        <time>2022-02-27T13:07:01Z</time>
      </trkpt>
      <trkpt lat="42.84977" lon="0.51436">
        <ele>1343.7</ele>
        <time>2022-02-27T13:07:03Z</time>
      </trkpt>
      <trkpt lat="42.84976" lon="0.51439">
        <ele>1343.367</ele>
        <time>2022-02-27T13:07:05Z</time>
      </trkpt>
      <trkpt lat="42.84976" lon="0.51442">
        <ele>1344.359</ele>
        <time>2022-02-27T13:07:07Z</time>
      </trkpt>
      <trkpt lat="42.84976" lon="0.51444">
        <ele>1343.623</ele>
        <time>2022-02-27T13:07:09Z</time>
      </trkpt>
      <trkpt lat="42.84976" lon="0.51447">
        <ele>1344.089</ele>
        <time>2022-02-27T13:07:11Z</time>
      </trkpt>
      <trkpt lat="42.84977" lon="0.51449">
        <ele>1344.812</ele>
        <time>2022-02-27T13:07:13Z</time>
      </trkpt>
      <trkpt lat="42.84977" lon="0.51452">
        <ele>1344.484</ele>
        <time>2022-02-27T13:07:15Z</time>
      </trkpt>
      <trkpt lat="42.84977" lon="0.51455">
        <ele>1345.173</ele>
        <time>2022-02-27T13:07:17Z</time>
      </trkpt>
      <trkpt lat="42.84976" lon="0.51457">
        <ele>1345.682</ele>
        <time>2022-02-27T13:07:19Z</time>
      </trkpt>
      <trkpt lat="42.84976" lon="0.51459">
        <ele>1345.935</ele>
        <time>2022-02-27T13:07:21Z</time>
      </trkpt>
      <trkpt lat="42.84976" lon="0.51461">
        <ele>1344.897</ele>
        <time>2022-02-27T13:07:23Z</time>
      </trkpt>
      <trkpt lat="42.84976" lon="0.51464">
        <ele>1345.08</ele>
        <time>2022-02-27T13:07:25Z</time>
      </trkpt>
      <trkpt lat="42.84976" lon="0.51467">
        <ele>1345.549</ele>
        <time>2022-02-27T13:07:27Z</time>
      </trkpt>
      <trkpt lat="42.84976" lon="0.5147">
        <ele>1345.028</ele>
        <time>2022-02-27T13:07:29Z</time>
      </trkpt>
      <trkpt lat="42.84975" lon="0.51473">
        <ele>1345.395</ele>
        <time>2022-02-27T13:07:31Z</time>
      </trkpt>
      <trkpt lat="42.84975" lon="0.51476">
        <ele>1344.992</ele>
        <time>2022-02-27T13:07:33Z</time>
      </trkpt>
      <trkpt lat="42.84975" lon="0.51478">
        <ele>1344.881</ele>
        <time>2022-02-27T13:07:35Z</time>
      </trkpt>
      <trkpt lat="42.84975" lon="0.51481">
        <ele>1343.974</ele>
        <time>2022-02-27T13:07:37Z</time>
      </trkpt>
      <trkpt lat="42.84975" lon="0.51483">
        <ele>1342.821</ele>
        <time>2022-02-27T13:07:39Z</time>
      </trkpt>
      <trkpt lat="42.84974" lon="0.51486">
        <ele>1343.298</ele>
        <time>2022-02-27T13:07:41Z</time>
      </trkpt>
      <trkpt lat="42.84974" lon="0.51488">
        <ele>1343.422</ele>
        <time>2022-02-27T13:07:43Z</time>
      </trkpt>
      <trkpt lat="42.84974" lon="0.51491">
        <ele>1342.818</ele>
        <time>2022-02-27T13:07:45Z</time>
      </trkpt>
      <trkpt lat="42.84974" lon="0.51493">
        <ele>1342.813</ele>
        <time>2022-02-27T13:07:47Z</time>
      </trkpt>
      <trkpt lat="42.84973" lon="0.51495">
        <ele>1341.967</ele>
        <time>2022-02-27T13:07:49Z</time>
      </trkpt>
      <trkpt lat="42.84973" lon="0.51497">
        <ele>1341.876</ele>
        <time>2022-02-27T13:07:51Z</time>
      </trkpt>
      <trkpt lat="42.84973" lon="0.51499">
        <ele>1341.921</ele>
        <time>2022-02-27T13:07:53Z</time>
      </trkpt>
      <trkpt lat="42.84972" lon="0.51501">
        <ele>1342.271</ele>
        <time>2022-02-27T13:07:55Z</time>
      </trkpt>
      <trkpt lat="42.84972" lon="0.51503">
        <ele>1342.502</ele>
        <time>2022-02-27T13:07:57Z</time>
      </trkpt>
      <trkpt lat="42.84972" lon="0.51505">
        <ele>1342.341</ele>
        <time>2022-02-27T13:07:59Z</time>
      </trkpt>
      <trkpt lat="42.84972" lon="0.51508">
        <ele>1342.132</ele>
        <time>2022-02-27T13:08:01Z</time>
      </trkpt>
      <trkpt lat="42.84973" lon="0.5151">
        <ele>1342.598</ele>
        <time>2022-02-27T13:08:03Z</time>
      </trkpt>
      <trkpt lat="42.84972" lon="0.51513">
        <ele>1342.259</ele>
        <time>2022-02-27T13:08:05Z</time>
      </trkpt>
      <trkpt lat="42.84972" lon="0.51516">
        <ele>1342.297</ele>
        <time>2022-02-27T13:08:07Z</time>
      </trkpt>
      <trkpt lat="42.84972" lon="0.51519">
        <ele>1341.394</ele>
        <time>2022-02-27T13:08:09Z</time>
      </trkpt>
      <trkpt lat="42.84972" lon="0.51521">
        <ele>1340.393</ele>
        <time>2022-02-27T13:08:11Z</time>
      </trkpt>
      <trkpt lat="42.84972" lon="0.51524">
        <ele>1339.128</ele>
        <time>2022-02-27T13:08:13Z</time>
      </trkpt>
      <trkpt lat="42.84972" lon="0.51527">
        <ele>1338.791</ele>
        <time>2022-02-27T13:08:15Z</time>
      </trkpt>
      <trkpt lat="42.84972" lon="0.51529">
        <ele>1337.293</ele>
        <time>2022-02-27T13:08:17Z</time>
      </trkpt>
      <trkpt lat="42.84972" lon="0.51532">
        <ele>1335.821</ele>
        <time>2022-02-27T13:08:19Z</time>
      </trkpt>
      <trkpt lat="42.84972" lon="0.51534">
        <ele>1334.302</ele>
        <time>2022-02-27T13:08:21Z</time>
      </trkpt>
      <trkpt lat="42.84971" lon="0.51537">
        <ele>1332.895</ele>
        <time>2022-02-27T13:08:23Z</time>
      </trkpt>
      <trkpt lat="42.84971" lon="0.5154">
        <ele>1332.44</ele>
        <time>2022-02-27T13:08:25Z</time>
      </trkpt>
      <trkpt lat="42.8497" lon="0.51542">
        <ele>1331.017</ele>
        <time>2022-02-27T13:08:27Z</time>
      </trkpt>
      <trkpt lat="42.84969" lon="0.51545">
        <ele>1329.809</ele>
        <time>2022-02-27T13:08:29Z</time>
      </trkpt>
      <trkpt lat="42.84969" lon="0.51548">
        <ele>1329.203</ele>
        <time>2022-02-27T13:08:31Z</time>
      </trkpt>
      <trkpt lat="42.84968" lon="0.5155">
        <ele>1328.193</ele>
        <time>2022-02-27T13:08:33Z</time>
      </trkpt>
      <trkpt lat="42.84967" lon="0.51554">
        <ele>1327.356</ele>
        <time>2022-02-27T13:08:35Z</time>
      </trkpt>
      <trkpt lat="42.84967" lon="0.51556">
        <ele>1326.268</ele>
        <time>2022-02-27T13:08:37Z</time>
      </trkpt>
      <trkpt lat="42.84967" lon="0.51559">
        <ele>1325.144</ele>
        <time>2022-02-27T13:08:39Z</time>
      </trkpt>
      <trkpt lat="42.84966" lon="0.51562">
        <ele>1324.577</ele>
        <time>2022-02-27T13:08:41Z</time>
      </trkpt>
      <trkpt lat="42.84966" lon="0.51564">
        <ele>1324.153</ele>
        <time>2022-02-27T13:08:43Z</time>
      </trkpt>
      <trkpt lat="42.84965" lon="0.51568">
        <ele>1324.267</ele>
        <time>2022-02-27T13:08:45Z</time>
      </trkpt>
      <trkpt lat="42.84964" lon="0.5157">
        <ele>1322.446</ele>
        <time>2022-02-27T13:08:47Z</time>
      </trkpt>
      <trkpt lat="42.84964" lon="0.51573">
        <ele>1322.556</ele>
        <time>2022-02-27T13:08:49Z</time>
      </trkpt>
      <trkpt lat="42.84963" lon="0.51575">
        <ele>1321.991</ele>
        <time>2022-02-27T13:08:51Z</time>
      </trkpt>
      <trkpt lat="42.84962" lon="0.51578">
        <ele>1322.095</ele>
        <time>2022-02-27T13:08:53Z</time>
      </trkpt>
      <trkpt lat="42.84962" lon="0.5158">
        <ele>1320.471</ele>
        <time>2022-02-27T13:08:55Z</time>
      </trkpt>
      <trkpt lat="42.84961" lon="0.51582">
        <ele>1318.85</ele>
        <time>2022-02-27T13:08:57Z</time>
      </trkpt>
      <trkpt lat="42.8496" lon="0.51584">
        <ele>1317.682</ele>
        <time>2022-02-27T13:08:59Z</time>
      </trkpt>
      <trkpt lat="42.8496" lon="0.51587">
        <ele>1317.525</ele>
        <time>2022-02-27T13:09:01Z</time>
      </trkpt>
      <trkpt lat="42.8496" lon="0.5159">
        <ele>1316.968</ele>
        <time>2022-02-27T13:09:03Z</time>
      </trkpt>
      <trkpt lat="42.8496" lon="0.51593">
        <ele>1316.409</ele>
        <time>2022-02-27T13:09:05Z</time>
      </trkpt>
      <trkpt lat="42.8496" lon="0.51597">
        <ele>1317.53</ele>
        <time>2022-02-27T13:09:07Z</time>
      </trkpt>
      <trkpt lat="42.8496" lon="0.516">
        <ele>1319.492</ele>
        <time>2022-02-27T13:09:09Z</time>
      </trkpt>
      <trkpt lat="42.84962" lon="0.51602">
        <ele>1319.753</ele>
        <time>2022-02-27T13:09:11Z</time>
      </trkpt>
      <trkpt lat="42.84963" lon="0.51605">
        <ele>1320.518</ele>
        <time>2022-02-27T13:09:13Z</time>
      </trkpt>
      <trkpt lat="42.84964" lon="0.51608">
        <ele>1322.441</ele>
        <time>2022-02-27T13:09:15Z</time>
      </trkpt>
      <trkpt lat="42.84964" lon="0.51608">
        <ele>1323.091</ele>
        <time>2022-02-27T13:09:17Z</time>
      </trkpt>
      <trkpt lat="42.84965" lon="0.51607">
        <ele>1323.517</ele>
        <time>2022-02-27T13:09:19Z</time>
      </trkpt>
      <trkpt lat="42.84965" lon="0.51606">
        <ele>1324.702</ele>
        <time>2022-02-27T13:09:21Z</time>
      </trkpt>
      <trkpt lat="42.84966" lon="0.51605">
        <ele>1325.412</ele>
        <time>2022-02-27T13:09:23Z</time>
      </trkpt>
      <trkpt lat="42.84968" lon="0.51604">
        <ele>1324.577</ele>
        <time>2022-02-27T13:09:25Z</time>
      </trkpt>
      <trkpt lat="42.8497" lon="0.51603">
        <ele>1324.306</ele>
        <time>2022-02-27T13:09:27Z</time>
      </trkpt>
      <trkpt lat="42.8497" lon="0.51601">
        <ele>1324.17</ele>
        <time>2022-02-27T13:09:29Z</time>
      </trkpt>
      <trkpt lat="42.84972" lon="0.51598">
        <ele>1323.348</ele>
        <time>2022-02-27T13:09:31Z</time>
      </trkpt>
      <trkpt lat="42.84973" lon="0.51595">
        <ele>1323.05</ele>
        <time>2022-02-27T13:09:33Z</time>
      </trkpt>
      <trkpt lat="42.84974" lon="0.51592">
        <ele>1323.211</ele>
        <time>2022-02-27T13:09:35Z</time>
      </trkpt>
      <trkpt lat="42.84973" lon="0.51589">
        <ele>1323.796</ele>
        <time>2022-02-27T13:09:37Z</time>
      </trkpt>
      <trkpt lat="42.84974" lon="0.51587">
        <ele>1324.194</ele>
        <time>2022-02-27T13:09:39Z</time>
      </trkpt>
      <trkpt lat="42.84974" lon="0.51584">
        <ele>1324.388</ele>
        <time>2022-02-27T13:09:41Z</time>
      </trkpt>
      <trkpt lat="42.84973" lon="0.51582">
        <ele>1324.222</ele>
        <time>2022-02-27T13:09:43Z</time>
      </trkpt>
      <trkpt lat="42.84973" lon="0.5158">
        <ele>1324.725</ele>
        <time>2022-02-27T13:09:45Z</time>
      </trkpt>
      <trkpt lat="42.84974" lon="0.51579">
        <ele>1326.367</ele>
        <time>2022-02-27T13:09:47Z</time>
      </trkpt>
      <trkpt lat="42.84976" lon="0.51577">
        <ele>1326.862</ele>
        <time>2022-02-27T13:09:49Z</time>
      </trkpt>
      <trkpt lat="42.84977" lon="0.51575">
        <ele>1326.742</ele>
        <time>2022-02-27T13:09:51Z</time>
      </trkpt>
      <trkpt lat="42.84977" lon="0.51572">
        <ele>1326.95</ele>
        <time>2022-02-27T13:09:53Z</time>
      </trkpt>
      <trkpt lat="42.84977" lon="0.5157">
        <ele>1327.727</ele>
        <time>2022-02-27T13:09:55Z</time>
      </trkpt>
      <trkpt lat="42.84978" lon="0.51569">
        <ele>1328.373</ele>
        <time>2022-02-27T13:09:57Z</time>
      </trkpt>
      <trkpt lat="42.84978" lon="0.51567">
        <ele>1329.924</ele>
        <time>2022-02-27T13:09:59Z</time>
      </trkpt>
      <trkpt lat="42.84979" lon="0.51564">
        <ele>1329.945</ele>
        <time>2022-02-27T13:10:01Z</time>
      </trkpt>
      <trkpt lat="42.84979" lon="0.51561">
        <ele>1330.996</ele>
        <time>2022-02-27T13:10:03Z</time>
      </trkpt>
      <trkpt lat="42.8498" lon="0.51558">
        <ele>1330.277</ele>
        <time>2022-02-27T13:10:05Z</time>
      </trkpt>
      <trkpt lat="42.84981" lon="0.51556">
        <ele>1330.832</ele>
        <time>2022-02-27T13:10:07Z</time>
      </trkpt>
      <trkpt lat="42.84982" lon="0.51554">
        <ele>1330.858</ele>
        <time>2022-02-27T13:10:09Z</time>
      </trkpt>
      <trkpt lat="42.84983" lon="0.51551">
        <ele>1331.02</ele>
        <time>2022-02-27T13:10:11Z</time>
      </trkpt>
      <trkpt lat="42.84984" lon="0.51549">
        <ele>1331.214</ele>
        <time>2022-02-27T13:10:13Z</time>
      </trkpt>
      <trkpt lat="42.84985" lon="0.51547">
        <ele>1329.68</ele>
        <time>2022-02-27T13:10:15Z</time>
      </trkpt>
      <trkpt lat="42.84985" lon="0.51545">
        <ele>1328.878</ele>
        <time>2022-02-27T13:10:17Z</time>
      </trkpt>
      <trkpt lat="42.84986" lon="0.51543">
        <ele>1327.158</ele>
        <time>2022-02-27T13:10:19Z</time>
      </trkpt>
      <trkpt lat="42.84987" lon="0.51544">
        <ele>1326.547</ele>
        <time>2022-02-27T13:10:21Z</time>
      </trkpt>
      <trkpt lat="42.84987" lon="0.51544">
        <ele>1326.55</ele>
        <time>2022-02-27T13:10:23Z</time>
      </trkpt>
      <trkpt lat="42.84986" lon="0.51544">
        <ele>1326.641</ele>
        <time>2022-02-27T13:10:25Z</time>
      </trkpt>
      <trkpt lat="42.84986" lon="0.51542">
        <ele>1326.04</ele>
        <time>2022-02-27T13:10:27Z</time>
      </trkpt>
      <trkpt lat="42.84986" lon="0.51542">
        <ele>1325.106</ele>
        <time>2022-02-27T13:10:29Z</time>
      </trkpt>
      <trkpt lat="42.84986" lon="0.51542">
        <ele>1324.338</ele>
        <time>2022-02-27T13:10:31Z</time>
      </trkpt>
      <trkpt lat="42.84986" lon="0.51542">
        <ele>1325.609</ele>
        <time>2022-02-27T13:10:33Z</time>
      </trkpt>
      <trkpt lat="42.84986" lon="0.51542">
        <ele>1325.616</ele>
        <time>2022-02-27T13:10:35Z</time>
      </trkpt>
      <trkpt lat="42.84986" lon="0.51542">
        <ele>1325.622</ele>
        <time>2022-02-27T13:10:37Z</time>
      </trkpt>
      <trkpt lat="42.84986" lon="0.51542">
        <ele>1325.627</ele>
        <time>2022-02-27T13:10:39Z</time>
      </trkpt>
      <trkpt lat="42.84987" lon="0.51542">
        <ele>1325.935</ele>
        <time>2022-02-27T13:10:41Z</time>
      </trkpt>
      <trkpt lat="42.84986" lon="0.51543">
        <ele>1325.213</ele>
        <time>2022-02-27T13:10:43Z</time>
      </trkpt>
      <trkpt lat="42.84986" lon="0.51543">
        <ele>1326.518</ele>
        <time>2022-02-27T13:10:45Z</time>
      </trkpt>
      <trkpt lat="42.84986" lon="0.51543">
        <ele>1326.151</ele>
        <time>2022-02-27T13:10:47Z</time>
      </trkpt>
      <trkpt lat="42.84986" lon="0.51545">
        <ele>1325.44</ele>
        <time>2022-02-27T13:10:49Z</time>
      </trkpt>
      <trkpt lat="42.84986" lon="0.51545">
        <ele>1325.315</ele>
        <time>2022-02-27T13:10:51Z</time>
      </trkpt>
      <trkpt lat="42.84986" lon="0.51545">
        <ele>1324.785</ele>
        <time>2022-02-27T13:10:53Z</time>
      </trkpt>
      <trkpt lat="42.84986" lon="0.51545">
        <ele>1324.779</ele>
        <time>2022-02-27T13:10:55Z</time>
      </trkpt>
      <trkpt lat="42.84987" lon="0.51546">
        <ele>1324.108</ele>
        <time>2022-02-27T13:10:57Z</time>
      </trkpt>
      <trkpt lat="42.84987" lon="0.51546">
        <ele>1323.686</ele>
        <time>2022-02-27T13:10:59Z</time>
      </trkpt>
      <trkpt lat="42.84987" lon="0.51547">
        <ele>1324.531</ele>
        <time>2022-02-27T13:11:01Z</time>
      </trkpt>
      <trkpt lat="42.84987" lon="0.51547">
        <ele>1324.539</ele>
        <time>2022-02-27T13:11:03Z</time>
      </trkpt>
      <trkpt lat="42.84987" lon="0.51547">
        <ele>1324.578</ele>
        <time>2022-02-27T13:11:05Z</time>
      </trkpt>
      <trkpt lat="42.84987" lon="0.51547">
        <ele>1324.578</ele>
        <time>2022-02-27T13:11:07Z</time>
      </trkpt>
      <trkpt lat="42.84986" lon="0.51546">
        <ele>1324.767</ele>
        <time>2022-02-27T13:11:09Z</time>
      </trkpt>
      <trkpt lat="42.84986" lon="0.51546">
        <ele>1325.047</ele>
        <time>2022-02-27T13:11:11Z</time>
      </trkpt>
      <trkpt lat="42.84986" lon="0.51545">
        <ele>1325.168</ele>
        <time>2022-02-27T13:11:13Z</time>
      </trkpt>
      <trkpt lat="42.84985" lon="0.51545">
        <ele>1326.118</ele>
        <time>2022-02-27T13:11:15Z</time>
      </trkpt>
      <trkpt lat="42.84984" lon="0.51545">
        <ele>1325.953</ele>
        <time>2022-02-27T13:11:17Z</time>
      </trkpt>
      <trkpt lat="42.84984" lon="0.51545">
        <ele>1325.938</ele>
        <time>2022-02-27T13:11:19Z</time>
      </trkpt>
      <trkpt lat="42.84984" lon="0.51546">
        <ele>1326.068</ele>
        <time>2022-02-27T13:11:21Z</time>
      </trkpt>
      <trkpt lat="42.84984" lon="0.51546">
        <ele>1327.097</ele>
        <time>2022-02-27T13:11:23Z</time>
      </trkpt>
      <trkpt lat="42.84984" lon="0.51547">
        <ele>1327.884</ele>
        <time>2022-02-27T13:11:25Z</time>
      </trkpt>
      <trkpt lat="42.84984" lon="0.51547">
        <ele>1327.887</ele>
        <time>2022-02-27T13:11:27Z</time>
      </trkpt>
      <trkpt lat="42.84984" lon="0.51547">
        <ele>1327.886</ele>
        <time>2022-02-27T13:11:29Z</time>
      </trkpt>
      <trkpt lat="42.84984" lon="0.51547">
        <ele>1327.887</ele>
        <time>2022-02-27T13:11:31Z</time>
      </trkpt>
      <trkpt lat="42.84984" lon="0.51547">
        <ele>1327.886</ele>
        <time>2022-02-27T13:11:33Z</time>
      </trkpt>
      <trkpt lat="42.84984" lon="0.51547">
        <ele>1328.045</ele>
        <time>2022-02-27T13:11:35Z</time>
      </trkpt>
      <trkpt lat="42.84984" lon="0.51546">
        <ele>1328.087</ele>
        <time>2022-02-27T13:11:37Z</time>
      </trkpt>
      <trkpt lat="42.84983" lon="0.51545">
        <ele>1328.093</ele>
        <time>2022-02-27T13:11:39Z</time>
      </trkpt>
      <trkpt lat="42.84983" lon="0.51545">
        <ele>1328.108</ele>
        <time>2022-02-27T13:11:41Z</time>
      </trkpt>
      <trkpt lat="42.84983" lon="0.51546">
        <ele>1328.107</ele>
        <time>2022-02-27T13:11:43Z</time>
      </trkpt>
      <trkpt lat="42.84983" lon="0.51546">
        <ele>1328.111</ele>
        <time>2022-02-27T13:11:45Z</time>
      </trkpt>
      <trkpt lat="42.84982" lon="0.51547">
        <ele>1327.654</ele>
        <time>2022-02-27T13:11:47Z</time>
      </trkpt>
      <trkpt lat="42.84982" lon="0.51549">
        <ele>1326.241</ele>
        <time>2022-02-27T13:11:49Z</time>
      </trkpt>
      <trkpt lat="42.84982" lon="0.51549">
        <ele>1326.077</ele>
        <time>2022-02-27T13:11:51Z</time>
      </trkpt>
      <trkpt lat="42.84982" lon="0.5155">
        <ele>1325.844</ele>
        <time>2022-02-27T13:11:53Z</time>
      </trkpt>
      <trkpt lat="42.84982" lon="0.5155">
        <ele>1325.828</ele>
        <time>2022-02-27T13:11:55Z</time>
      </trkpt>
      <trkpt lat="42.84982" lon="0.5155">
        <ele>1325.756</ele>
        <time>2022-02-27T13:11:57Z</time>
      </trkpt>
      <trkpt lat="42.84982" lon="0.51551">
        <ele>1325.994</ele>
        <time>2022-02-27T13:11:59Z</time>
      </trkpt>
      <trkpt lat="42.84982" lon="0.51551">
        <ele>1325.995</ele>
        <time>2022-02-27T13:12:01Z</time>
      </trkpt>
      <trkpt lat="42.84982" lon="0.51551">
        <ele>1325.998</ele>
        <time>2022-02-27T13:12:03Z</time>
      </trkpt>
      <trkpt lat="42.84983" lon="0.51551">
        <ele>1325.068</ele>
        <time>2022-02-27T13:12:05Z</time>
      </trkpt>
      <trkpt lat="42.84983" lon="0.51553">
        <ele>1324.749</ele>
        <time>2022-02-27T13:12:07Z</time>
      </trkpt>
      <trkpt lat="42.84983" lon="0.51554">
        <ele>1324.319</ele>
        <time>2022-02-27T13:12:09Z</time>
      </trkpt>
      <trkpt lat="42.84983" lon="0.51554">
        <ele>1324.333</ele>
        <time>2022-02-27T13:12:11Z</time>
      </trkpt>
      <trkpt lat="42.84982" lon="0.51552">
        <ele>1326.519</ele>
        <time>2022-02-27T13:12:13Z</time>
      </trkpt>
      <trkpt lat="42.84982" lon="0.51552">
        <ele>1326.719</ele>
        <time>2022-02-27T13:12:15Z</time>
      </trkpt>
      <trkpt lat="42.84982" lon="0.51553">
        <ele>1325.939</ele>
        <time>2022-02-27T13:12:17Z</time>
      </trkpt>
      <trkpt lat="42.84982" lon="0.51553">
        <ele>1325.917</ele>
        <time>2022-02-27T13:12:19Z</time>
      </trkpt>
      <trkpt lat="42.84982" lon="0.51553">
        <ele>1325.873</ele>
        <time>2022-02-27T13:12:21Z</time>
      </trkpt>
      <trkpt lat="42.84982" lon="0.51553">
        <ele>1325.85</ele>
        <time>2022-02-27T13:12:23Z</time>
      </trkpt>
      <trkpt lat="42.84983" lon="0.51554">
        <ele>1325.315</ele>
        <time>2022-02-27T13:12:25Z</time>
      </trkpt>
      <trkpt lat="42.84984" lon="0.51555">
        <ele>1324.949</ele>
        <time>2022-02-27T13:12:27Z</time>
      </trkpt>
      <trkpt lat="42.84984" lon="0.51555">
        <ele>1324.376</ele>
        <time>2022-02-27T13:12:29Z</time>
      </trkpt>
      <trkpt lat="42.84985" lon="0.51557">
        <ele>1325.517</ele>
        <time>2022-02-27T13:12:31Z</time>
      </trkpt>
      <trkpt lat="42.84985" lon="0.51557">
        <ele>1325.508</ele>
        <time>2022-02-27T13:12:33Z</time>
      </trkpt>
      <trkpt lat="42.84985" lon="0.51557">
        <ele>1325.503</ele>
        <time>2022-02-27T13:12:35Z</time>
      </trkpt>
      <trkpt lat="42.84985" lon="0.51557">
        <ele>1325.481</ele>
        <time>2022-02-27T13:12:37Z</time>
      </trkpt>
      <trkpt lat="42.84985" lon="0.51557">
        <ele>1325.466</ele>
        <time>2022-02-27T13:12:39Z</time>
      </trkpt>
      <trkpt lat="42.84985" lon="0.51557">
        <ele>1325.474</ele>
        <time>2022-02-27T13:12:41Z</time>
      </trkpt>
      <trkpt lat="42.84985" lon="0.51557">
        <ele>1325.285</ele>
        <time>2022-02-27T13:12:43Z</time>
      </trkpt>
      <trkpt lat="42.84986" lon="0.51557">
        <ele>1325.366</ele>
        <time>2022-02-27T13:12:45Z</time>
      </trkpt>
      <trkpt lat="42.84987" lon="0.51556">
        <ele>1325.184</ele>
        <time>2022-02-27T13:12:47Z</time>
      </trkpt>
      <trkpt lat="42.84987" lon="0.51555">
        <ele>1325.168</ele>
        <time>2022-02-27T13:12:49Z</time>
      </trkpt>
      <trkpt lat="42.84987" lon="0.51555">
        <ele>1325.177</ele>
        <time>2022-02-27T13:12:51Z</time>
      </trkpt>
      <trkpt lat="42.84987" lon="0.51556">
        <ele>1325.789</ele>
        <time>2022-02-27T13:12:53Z</time>
      </trkpt>
      <trkpt lat="42.84986" lon="0.51556">
        <ele>1326.773</ele>
        <time>2022-02-27T13:12:55Z</time>
      </trkpt>
      <trkpt lat="42.84986" lon="0.51557">
        <ele>1327.322</ele>
        <time>2022-02-27T13:12:57Z</time>
      </trkpt>
      <trkpt lat="42.84986" lon="0.51557">
        <ele>1327.316</ele>
        <time>2022-02-27T13:12:59Z</time>
      </trkpt>
      <trkpt lat="42.84986" lon="0.51557">
        <ele>1327.31</ele>
        <time>2022-02-27T13:13:01Z</time>
      </trkpt>
      <trkpt lat="42.84986" lon="0.51557">
        <ele>1327.338</ele>
        <time>2022-02-27T13:13:03Z</time>
      </trkpt>
      <trkpt lat="42.84986" lon="0.51557">
        <ele>1327.353</ele>
        <time>2022-02-27T13:13:05Z</time>
      </trkpt>
      <trkpt lat="42.84986" lon="0.51555">
        <ele>1324.363</ele>
        <time>2022-02-27T13:13:07Z</time>
      </trkpt>
      <trkpt lat="42.84986" lon="0.51553">
        <ele>1324.341</ele>
        <time>2022-02-27T13:13:09Z</time>
      </trkpt>
      <trkpt lat="42.84986" lon="0.51552">
        <ele>1324.305</ele>
        <time>2022-02-27T13:13:11Z</time>
      </trkpt>
      <trkpt lat="42.84986" lon="0.51551">
        <ele>1323.745</ele>
        <time>2022-02-27T13:13:13Z</time>
      </trkpt>
      <trkpt lat="42.84985" lon="0.51549">
        <ele>1323.785</ele>
        <time>2022-02-27T13:13:15Z</time>
      </trkpt>
      <trkpt lat="42.84985" lon="0.51548">
        <ele>1323.968</ele>
        <time>2022-02-27T13:13:17Z</time>
      </trkpt>
      <trkpt lat="42.84984" lon="0.51548">
        <ele>1324.148</ele>
        <time>2022-02-27T13:13:19Z</time>
      </trkpt>
      <trkpt lat="42.84984" lon="0.51548">
        <ele>1324.133</ele>
        <time>2022-02-27T13:13:21Z</time>
      </trkpt>
      <trkpt lat="42.84984" lon="0.51548">
        <ele>1324.126</ele>
        <time>2022-02-27T13:13:23Z</time>
      </trkpt>
      <trkpt lat="42.84984" lon="0.51548">
        <ele>1324.115</ele>
        <time>2022-02-27T13:13:25Z</time>
      </trkpt>
      <trkpt lat="42.84984" lon="0.51548">
        <ele>1324.11</ele>
        <time>2022-02-27T13:13:27Z</time>
      </trkpt>
      <trkpt lat="42.84984" lon="0.51548">
        <ele>1324.105</ele>
        <time>2022-02-27T13:13:29Z</time>
      </trkpt>
      <trkpt lat="42.84984" lon="0.51548">
        <ele>1324.094</ele>
        <time>2022-02-27T13:13:31Z</time>
      </trkpt>
      <trkpt lat="42.84984" lon="0.51548">
        <ele>1324.088</ele>
        <time>2022-02-27T13:13:33Z</time>
      </trkpt>
      <trkpt lat="42.84984" lon="0.51548">
        <ele>1324.077</ele>
        <time>2022-02-27T13:13:35Z</time>
      </trkpt>
      <trkpt lat="42.84984" lon="0.51548">
        <ele>1324.086</ele>
        <time>2022-02-27T13:13:37Z</time>
      </trkpt>
      <trkpt lat="42.84984" lon="0.51548">
        <ele>1324.078</ele>
        <time>2022-02-27T13:13:39Z</time>
      </trkpt>
      <trkpt lat="42.84984" lon="0.51548">
        <ele>1324.062</ele>
        <time>2022-02-27T13:13:41Z</time>
      </trkpt>
      <trkpt lat="42.84984" lon="0.51548">
        <ele>1324.056</ele>
        <time>2022-02-27T13:13:43Z</time>
      </trkpt>
      <trkpt lat="42.84984" lon="0.51548">
        <ele>1324.047</ele>
        <time>2022-02-27T13:13:45Z</time>
      </trkpt>
      <trkpt lat="42.84984" lon="0.51548">
        <ele>1324.038</ele>
        <time>2022-02-27T13:13:47Z</time>
      </trkpt>
      <trkpt lat="42.84984" lon="0.51548">
        <ele>1324.023</ele>
        <time>2022-02-27T13:13:49Z</time>
      </trkpt>
      <trkpt lat="42.84984" lon="0.51547">
        <ele>1324.018</ele>
        <time>2022-02-27T13:13:51Z</time>
      </trkpt>
      <trkpt lat="42.84984" lon="0.51547">
        <ele>1324.02</ele>
        <time>2022-02-27T13:13:53Z</time>
      </trkpt>
      <trkpt lat="42.84984" lon="0.51547">
        <ele>1324.012</ele>
        <time>2022-02-27T13:13:55Z</time>
      </trkpt>
      <trkpt lat="42.84984" lon="0.51547">
        <ele>1324.006</ele>
        <time>2022-02-27T13:13:57Z</time>
      </trkpt>
      <trkpt lat="42.84984" lon="0.51547">
        <ele>1323.991</ele>
        <time>2022-02-27T13:13:59Z</time>
      </trkpt>
      <trkpt lat="42.84984" lon="0.51547">
        <ele>1324.631</ele>
        <time>2022-02-27T13:14:01Z</time>
      </trkpt>
      <trkpt lat="42.84985" lon="0.51545">
        <ele>1322.898</ele>
        <time>2022-02-27T13:14:03Z</time>
      </trkpt>
      <trkpt lat="42.84985" lon="0.51545">
        <ele>1322.793</ele>
        <time>2022-02-27T13:14:05Z</time>
      </trkpt>
      <trkpt lat="42.84984" lon="0.51543">
        <ele>1320.647</ele>
        <time>2022-02-27T13:14:07Z</time>
      </trkpt>
      <trkpt lat="42.84984" lon="0.51543">
        <ele>1320.619</ele>
        <time>2022-02-27T13:14:09Z</time>
      </trkpt>
      <trkpt lat="42.84984" lon="0.51543">
        <ele>1320.747</ele>
        <time>2022-02-27T13:14:11Z</time>
      </trkpt>
      <trkpt lat="42.84984" lon="0.51543">
        <ele>1320.316</ele>
        <time>2022-02-27T13:14:13Z</time>
      </trkpt>
      <trkpt lat="42.84984" lon="0.51542">
        <ele>1320.075</ele>
        <time>2022-02-27T13:14:15Z</time>
      </trkpt>
      <trkpt lat="42.84984" lon="0.51542">
        <ele>1320.087</ele>
        <time>2022-02-27T13:14:17Z</time>
      </trkpt>
      <trkpt lat="42.84984" lon="0.51542">
        <ele>1320.269</ele>
        <time>2022-02-27T13:14:19Z</time>
      </trkpt>
      <trkpt lat="42.84985" lon="0.51542">
        <ele>1320.17</ele>
        <time>2022-02-27T13:14:21Z</time>
      </trkpt>
      <trkpt lat="42.84986" lon="0.51543">
        <ele>1319.164</ele>
        <time>2022-02-27T13:14:23Z</time>
      </trkpt>
      <trkpt lat="42.84986" lon="0.51543">
        <ele>1319.125</ele>
        <time>2022-02-27T13:14:25Z</time>
      </trkpt>
      <trkpt lat="42.84986" lon="0.51543">
        <ele>1319.124</ele>
        <time>2022-02-27T13:14:27Z</time>
      </trkpt>
      <trkpt lat="42.84986" lon="0.51543">
        <ele>1319.092</ele>
        <time>2022-02-27T13:14:29Z</time>
      </trkpt>
      <trkpt lat="42.84986" lon="0.51543">
        <ele>1318.599</ele>
        <time>2022-02-27T13:14:31Z</time>
      </trkpt>
      <trkpt lat="42.84986" lon="0.51543">
        <ele>1319.264</ele>
        <time>2022-02-27T13:14:33Z</time>
      </trkpt>
      <trkpt lat="42.84986" lon="0.51543">
        <ele>1319.135</ele>
        <time>2022-02-27T13:14:35Z</time>
      </trkpt>
      <trkpt lat="42.84986" lon="0.51543">
        <ele>1319.138</ele>
        <time>2022-02-27T13:14:37Z</time>
      </trkpt>
      <trkpt lat="42.84986" lon="0.51543">
        <ele>1319.148</ele>
        <time>2022-02-27T13:14:39Z</time>
      </trkpt>
      <trkpt lat="42.84986" lon="0.51543">
        <ele>1320.463</ele>
        <time>2022-02-27T13:14:41Z</time>
      </trkpt>
      <trkpt lat="42.84986" lon="0.51543">
        <ele>1320.454</ele>
        <time>2022-02-27T13:14:43Z</time>
      </trkpt>
      <trkpt lat="42.84986" lon="0.51543">
        <ele>1320.451</ele>
        <time>2022-02-27T13:14:45Z</time>
      </trkpt>
      <trkpt lat="42.84986" lon="0.51543">
        <ele>1320.462</ele>
        <time>2022-02-27T13:14:47Z</time>
      </trkpt>
      <trkpt lat="42.84986" lon="0.51543">
        <ele>1320.452</ele>
        <time>2022-02-27T13:14:49Z</time>
      </trkpt>
      <trkpt lat="42.84986" lon="0.51543">
        <ele>1320.492</ele>
        <time>2022-02-27T13:14:51Z</time>
      </trkpt>
      <trkpt lat="42.84986" lon="0.51543">
        <ele>1320.491</ele>
        <time>2022-02-27T13:14:53Z</time>
      </trkpt>
      <trkpt lat="42.84986" lon="0.51543">
        <ele>1320.473</ele>
        <time>2022-02-27T13:14:55Z</time>
      </trkpt>
      <trkpt lat="42.84986" lon="0.51543">
        <ele>1320.428</ele>
        <time>2022-02-27T13:14:57Z</time>
      </trkpt>
      <trkpt lat="42.84986" lon="0.51543">
        <ele>1320.369</ele>
        <time>2022-02-27T13:14:59Z</time>
      </trkpt>
      <trkpt lat="42.84986" lon="0.51543">
        <ele>1320.362</ele>
        <time>2022-02-27T13:15:01Z</time>
      </trkpt>
      <trkpt lat="42.84986" lon="0.51543">
        <ele>1320.334</ele>
        <time>2022-02-27T13:15:03Z</time>
      </trkpt>
      <trkpt lat="42.84986" lon="0.51543">
        <ele>1320.6</ele>
        <time>2022-02-27T13:15:05Z</time>
      </trkpt>
      <trkpt lat="42.84985" lon="0.51543">
        <ele>1322.446</ele>
        <time>2022-02-27T13:15:07Z</time>
      </trkpt>
      <trkpt lat="42.84984" lon="0.51546">
        <ele>1323.258</ele>
        <time>2022-02-27T13:15:09Z</time>
      </trkpt>
      <trkpt lat="42.84984" lon="0.51552">
        <ele>1324.551</ele>
        <time>2022-02-27T13:15:11Z</time>
      </trkpt>
      <trkpt lat="42.84983" lon="0.51556">
        <ele>1324.99</ele>
        <time>2022-02-27T13:15:13Z</time>
      </trkpt>
      <trkpt lat="42.84982" lon="0.51559">
        <ele>1325.514</ele>
        <time>2022-02-27T13:15:15Z</time>
      </trkpt>
      <trkpt lat="42.84982" lon="0.51562">
        <ele>1326.53</ele>
        <time>2022-02-27T13:15:17Z</time>
      </trkpt>
      <trkpt lat="42.84981" lon="0.51563">
        <ele>1326.246</ele>
        <time>2022-02-27T13:15:19Z</time>
      </trkpt>
      <trkpt lat="42.84981" lon="0.51562">
        <ele>1326.748</ele>
        <time>2022-02-27T13:15:21Z</time>
      </trkpt>
      <trkpt lat="42.84981" lon="0.51562">
        <ele>1326.756</ele>
        <time>2022-02-27T13:15:23Z</time>
      </trkpt>
      <trkpt lat="42.84981" lon="0.51562">
        <ele>1326.771</ele>
        <time>2022-02-27T13:15:25Z</time>
      </trkpt>
      <trkpt lat="42.84981" lon="0.51562">
        <ele>1327.112</ele>
        <time>2022-02-27T13:15:27Z</time>
      </trkpt>
      <trkpt lat="42.84981" lon="0.51563">
        <ele>1327.325</ele>
        <time>2022-02-27T13:15:29Z</time>
      </trkpt>
      <trkpt lat="42.84981" lon="0.51565">
        <ele>1327.433</ele>
        <time>2022-02-27T13:15:31Z</time>
      </trkpt>
      <trkpt lat="42.8498" lon="0.51568">
        <ele>1327.889</ele>
        <time>2022-02-27T13:15:33Z</time>
      </trkpt>
      <trkpt lat="42.84979" lon="0.51571">
        <ele>1329.158</ele>
        <time>2022-02-27T13:15:35Z</time>
      </trkpt>
      <trkpt lat="42.84979" lon="0.51574">
        <ele>1329.24</ele>
        <time>2022-02-27T13:15:37Z</time>
      </trkpt>
      <trkpt lat="42.84978" lon="0.51577">
        <ele>1329.278</ele>
        <time>2022-02-27T13:15:39Z</time>
      </trkpt>
      <trkpt lat="42.84977" lon="0.51579">
        <ele>1327.659</ele>
        <time>2022-02-27T13:15:41Z</time>
      </trkpt>
      <trkpt lat="42.84975" lon="0.51579">
        <ele>1327.591</ele>
        <time>2022-02-27T13:15:43Z</time>
      </trkpt>
      <trkpt lat="42.84974" lon="0.5158">
        <ele>1326.967</ele>
        <time>2022-02-27T13:15:45Z</time>
      </trkpt>
      <trkpt lat="42.84972" lon="0.51581">
        <ele>1326.567</ele>
        <time>2022-02-27T13:15:47Z</time>
      </trkpt>
      <trkpt lat="42.84971" lon="0.51583">
        <ele>1326.563</ele>
        <time>2022-02-27T13:15:49Z</time>
      </trkpt>
      <trkpt lat="42.84971" lon="0.51585">
        <ele>1325.511</ele>
        <time>2022-02-27T13:15:51Z</time>
      </trkpt>
      <trkpt lat="42.8497" lon="0.51586">
        <ele>1323.9</ele>
        <time>2022-02-27T13:15:53Z</time>
      </trkpt>
      <trkpt lat="42.8497" lon="0.51589">
        <ele>1323.554</ele>
        <time>2022-02-27T13:15:55Z</time>
      </trkpt>
      <trkpt lat="42.84969" lon="0.51591">
        <ele>1321.585</ele>
        <time>2022-02-27T13:15:57Z</time>
      </trkpt>
      <trkpt lat="42.84968" lon="0.51593">
        <ele>1321.968</ele>
        <time>2022-02-27T13:15:59Z</time>
      </trkpt>
      <trkpt lat="42.84966" lon="0.51595">
        <ele>1321.895</ele>
        <time>2022-02-27T13:16:01Z</time>
      </trkpt>
      <trkpt lat="42.84965" lon="0.51598">
        <ele>1322.53</ele>
        <time>2022-02-27T13:16:03Z</time>
      </trkpt>
      <trkpt lat="42.84963" lon="0.516">
        <ele>1322.382</ele>
        <time>2022-02-27T13:16:05Z</time>
      </trkpt>
      <trkpt lat="42.84962" lon="0.51602">
        <ele>1324.637</ele>
        <time>2022-02-27T13:16:07Z</time>
      </trkpt>
      <trkpt lat="42.8496" lon="0.51603">
        <ele>1326.197</ele>
        <time>2022-02-27T13:16:09Z</time>
      </trkpt>
      <trkpt lat="42.8496" lon="0.51605">
        <ele>1326.343</ele>
        <time>2022-02-27T13:16:11Z</time>
      </trkpt>
      <trkpt lat="42.84959" lon="0.51608">
        <ele>1325.946</ele>
        <time>2022-02-27T13:16:13Z</time>
      </trkpt>
      <trkpt lat="42.84959" lon="0.51611">
        <ele>1326.02</ele>
        <time>2022-02-27T13:16:15Z</time>
      </trkpt>
      <trkpt lat="42.84958" lon="0.51616">
        <ele>1325.144</ele>
        <time>2022-02-27T13:16:17Z</time>
      </trkpt>
      <trkpt lat="42.84957" lon="0.51621">
        <ele>1325.02</ele>
        <time>2022-02-27T13:16:19Z</time>
      </trkpt>
      <trkpt lat="42.84956" lon="0.51627">
        <ele>1324.061</ele>
        <time>2022-02-27T13:16:21Z</time>
      </trkpt>
      <trkpt lat="42.84956" lon="0.51628">
        <ele>1321.076</ele>
        <time>2022-02-27T13:16:23Z</time>
      </trkpt>
      <trkpt lat="42.84954" lon="0.51631">
        <ele>1318.031</ele>
        <time>2022-02-27T13:16:25Z</time>
      </trkpt>
      <trkpt lat="42.84953" lon="0.51635">
        <ele>1318.458</ele>
        <time>2022-02-27T13:16:27Z</time>
      </trkpt>
      <trkpt lat="42.8495" lon="0.51637">
        <ele>1316.947</ele>
        <time>2022-02-27T13:16:29Z</time>
      </trkpt>
      <trkpt lat="42.84949" lon="0.5164">
        <ele>1316.931</ele>
        <time>2022-02-27T13:16:31Z</time>
      </trkpt>
      <trkpt lat="42.84949" lon="0.51643">
        <ele>1314.862</ele>
        <time>2022-02-27T13:16:33Z</time>
      </trkpt>
      <trkpt lat="42.84949" lon="0.51646">
        <ele>1313.598</ele>
        <time>2022-02-27T13:16:35Z</time>
      </trkpt>
      <trkpt lat="42.8495" lon="0.5165">
        <ele>1311.717</ele>
        <time>2022-02-27T13:16:37Z</time>
      </trkpt>
      <trkpt lat="42.84949" lon="0.51652">
        <ele>1312.052</ele>
        <time>2022-02-27T13:16:39Z</time>
      </trkpt>
      <trkpt lat="42.84948" lon="0.51655">
        <ele>1310.376</ele>
        <time>2022-02-27T13:16:41Z</time>
      </trkpt>
      <trkpt lat="42.84947" lon="0.51658">
        <ele>1308.872</ele>
        <time>2022-02-27T13:16:43Z</time>
      </trkpt>
      <trkpt lat="42.84946" lon="0.51659">
        <ele>1308.954</ele>
        <time>2022-02-27T13:16:45Z</time>
      </trkpt>
      <trkpt lat="42.84945" lon="0.51663">
        <ele>1308.648</ele>
        <time>2022-02-27T13:16:47Z</time>
      </trkpt>
      <trkpt lat="42.84944" lon="0.51666">
        <ele>1303.477</ele>
        <time>2022-02-27T13:16:49Z</time>
      </trkpt>
      <trkpt lat="42.84943" lon="0.5167">
        <ele>1302.452</ele>
        <time>2022-02-27T13:16:51Z</time>
      </trkpt>
      <trkpt lat="42.84942" lon="0.51676">
        <ele>1302.032</ele>
        <time>2022-02-27T13:16:53Z</time>
      </trkpt>
      <trkpt lat="42.84941" lon="0.5168">
        <ele>1303.992</ele>
        <time>2022-02-27T13:16:55Z</time>
      </trkpt>
      <trkpt lat="42.8494" lon="0.51684">
        <ele>1304.612</ele>
        <time>2022-02-27T13:16:57Z</time>
      </trkpt>
      <trkpt lat="42.84939" lon="0.51685">
        <ele>1301.257</ele>
        <time>2022-02-27T13:16:59Z</time>
      </trkpt>
      <trkpt lat="42.8494" lon="0.51688">
        <ele>1301.627</ele>
        <time>2022-02-27T13:17:01Z</time>
      </trkpt>
      <trkpt lat="42.84939" lon="0.51693">
        <ele>1300.281</ele>
        <time>2022-02-27T13:17:03Z</time>
      </trkpt>
      <trkpt lat="42.84939" lon="0.51697">
        <ele>1299.629</ele>
        <time>2022-02-27T13:17:05Z</time>
      </trkpt>
      <trkpt lat="42.84939" lon="0.51701">
        <ele>1299.389</ele>
        <time>2022-02-27T13:17:07Z</time>
      </trkpt>
      <trkpt lat="42.84939" lon="0.51705">
        <ele>1299.799</ele>
        <time>2022-02-27T13:17:09Z</time>
      </trkpt>
      <trkpt lat="42.84938" lon="0.51708">
        <ele>1298.051</ele>
        <time>2022-02-27T13:17:11Z</time>
      </trkpt>
      <trkpt lat="42.84938" lon="0.51712">
        <ele>1295.588</ele>
        <time>2022-02-27T13:17:13Z</time>
      </trkpt>
      <trkpt lat="42.84937" lon="0.51715">
        <ele>1293.659</ele>
        <time>2022-02-27T13:17:15Z</time>
      </trkpt>
      <trkpt lat="42.84937" lon="0.51719">
        <ele>1293.237</ele>
        <time>2022-02-27T13:17:17Z</time>
      </trkpt>
      <trkpt lat="42.84936" lon="0.51723">
        <ele>1291.565</ele>
        <time>2022-02-27T13:17:19Z</time>
      </trkpt>
      <trkpt lat="42.84936" lon="0.51726">
        <ele>1290.163</ele>
        <time>2022-02-27T13:17:21Z</time>
      </trkpt>
      <trkpt lat="42.84935" lon="0.5173">
        <ele>1289.713</ele>
        <time>2022-02-27T13:17:23Z</time>
      </trkpt>
      <trkpt lat="42.84934" lon="0.51733">
        <ele>1290.264</ele>
        <time>2022-02-27T13:17:25Z</time>
      </trkpt>
      <trkpt lat="42.84934" lon="0.51737">
        <ele>1289.777</ele>
        <time>2022-02-27T13:17:27Z</time>
      </trkpt>
      <trkpt lat="42.84932" lon="0.5174">
        <ele>1289.786</ele>
        <time>2022-02-27T13:17:29Z</time>
      </trkpt>
      <trkpt lat="42.84931" lon="0.51744">
        <ele>1288.713</ele>
        <time>2022-02-27T13:17:31Z</time>
      </trkpt>
      <trkpt lat="42.8493" lon="0.51746">
        <ele>1287.757</ele>
        <time>2022-02-27T13:17:33Z</time>
      </trkpt>
      <trkpt lat="42.8493" lon="0.51749">
        <ele>1285.697</ele>
        <time>2022-02-27T13:17:35Z</time>
      </trkpt>
      <trkpt lat="42.84931" lon="0.51751">
        <ele>1285.09</ele>
        <time>2022-02-27T13:17:37Z</time>
      </trkpt>
      <trkpt lat="42.84929" lon="0.51753">
        <ele>1285.617</ele>
        <time>2022-02-27T13:17:39Z</time>
      </trkpt>
      <trkpt lat="42.84928" lon="0.51755">
        <ele>1286.817</ele>
        <time>2022-02-27T13:17:41Z</time>
      </trkpt>
      <trkpt lat="42.84928" lon="0.51756">
        <ele>1285.445</ele>
        <time>2022-02-27T13:17:43Z</time>
      </trkpt>
      <trkpt lat="42.84927" lon="0.51758">
        <ele>1284.564</ele>
        <time>2022-02-27T13:17:45Z</time>
      </trkpt>
      <trkpt lat="42.84927" lon="0.51761">
        <ele>1283.151</ele>
        <time>2022-02-27T13:17:47Z</time>
      </trkpt>
      <trkpt lat="42.84927" lon="0.51764">
        <ele>1282.202</ele>
        <time>2022-02-27T13:17:49Z</time>
      </trkpt>
      <trkpt lat="42.84926" lon="0.51768">
        <ele>1283.226</ele>
        <time>2022-02-27T13:17:51Z</time>
      </trkpt>
      <trkpt lat="42.84926" lon="0.51771">
        <ele>1282.693</ele>
        <time>2022-02-27T13:17:53Z</time>
      </trkpt>
      <trkpt lat="42.84926" lon="0.51774">
        <ele>1282.547</ele>
        <time>2022-02-27T13:17:55Z</time>
      </trkpt>
      <trkpt lat="42.84926" lon="0.51777">
        <ele>1282.845</ele>
        <time>2022-02-27T13:17:57Z</time>
      </trkpt>
      <trkpt lat="42.84926" lon="0.5178">
        <ele>1283.869</ele>
        <time>2022-02-27T13:17:59Z</time>
      </trkpt>
      <trkpt lat="42.84926" lon="0.51783">
        <ele>1284.291</ele>
        <time>2022-02-27T13:18:01Z</time>
      </trkpt>
      <trkpt lat="42.84926" lon="0.51785">
        <ele>1283.498</ele>
        <time>2022-02-27T13:18:03Z</time>
      </trkpt>
      <trkpt lat="42.84925" lon="0.51789">
        <ele>1282.987</ele>
        <time>2022-02-27T13:18:05Z</time>
      </trkpt>
      <trkpt lat="42.84924" lon="0.51793">
        <ele>1281.904</ele>
        <time>2022-02-27T13:18:07Z</time>
      </trkpt>
      <trkpt lat="42.84923" lon="0.51796">
        <ele>1281.344</ele>
        <time>2022-02-27T13:18:09Z</time>
      </trkpt>
      <trkpt lat="42.84921" lon="0.51799">
        <ele>1280.952</ele>
        <time>2022-02-27T13:18:11Z</time>
      </trkpt>
      <trkpt lat="42.84919" lon="0.51802">
        <ele>1280.079</ele>
        <time>2022-02-27T13:18:13Z</time>
      </trkpt>
      <trkpt lat="42.84919" lon="0.51805">
        <ele>1279.97</ele>
        <time>2022-02-27T13:18:15Z</time>
      </trkpt>
      <trkpt lat="42.84918" lon="0.51809">
        <ele>1279.329</ele>
        <time>2022-02-27T13:18:17Z</time>
      </trkpt>
      <trkpt lat="42.84916" lon="0.51812">
        <ele>1278.519</ele>
        <time>2022-02-27T13:18:19Z</time>
      </trkpt>
      <trkpt lat="42.84915" lon="0.51815">
        <ele>1277.961</ele>
        <time>2022-02-27T13:18:21Z</time>
      </trkpt>
      <trkpt lat="42.84913" lon="0.51818">
        <ele>1278.142</ele>
        <time>2022-02-27T13:18:23Z</time>
      </trkpt>
      <trkpt lat="42.84912" lon="0.51822">
        <ele>1277.478</ele>
        <time>2022-02-27T13:18:25Z</time>
      </trkpt>
      <trkpt lat="42.84911" lon="0.51825">
        <ele>1277.05</ele>
        <time>2022-02-27T13:18:27Z</time>
      </trkpt>
      <trkpt lat="42.8491" lon="0.51828">
        <ele>1278.07</ele>
        <time>2022-02-27T13:18:29Z</time>
      </trkpt>
      <trkpt lat="42.84909" lon="0.51833">
        <ele>1278.715</ele>
        <time>2022-02-27T13:18:31Z</time>
      </trkpt>
      <trkpt lat="42.84908" lon="0.51836">
        <ele>1278.718</ele>
        <time>2022-02-27T13:18:33Z</time>
      </trkpt>
      <trkpt lat="42.84906" lon="0.5184">
        <ele>1278.496</ele>
        <time>2022-02-27T13:18:35Z</time>
      </trkpt>
      <trkpt lat="42.84904" lon="0.51843">
        <ele>1278.935</ele>
        <time>2022-02-27T13:18:37Z</time>
      </trkpt>
      <trkpt lat="42.84903" lon="0.51846">
        <ele>1278.39</ele>
        <time>2022-02-27T13:18:39Z</time>
      </trkpt>
      <trkpt lat="42.84902" lon="0.5185">
        <ele>1279.93</ele>
        <time>2022-02-27T13:18:41Z</time>
      </trkpt>
      <trkpt lat="42.84901" lon="0.51852">
        <ele>1279.206</ele>
        <time>2022-02-27T13:18:43Z</time>
      </trkpt>
      <trkpt lat="42.849" lon="0.51856">
        <ele>1279.713</ele>
        <time>2022-02-27T13:18:45Z</time>
      </trkpt>
      <trkpt lat="42.849" lon="0.51859">
        <ele>1280.476</ele>
        <time>2022-02-27T13:18:47Z</time>
      </trkpt>
      <trkpt lat="42.84899" lon="0.51862">
        <ele>1280.441</ele>
        <time>2022-02-27T13:18:49Z</time>
      </trkpt>
      <trkpt lat="42.84899" lon="0.51865">
        <ele>1279.927</ele>
        <time>2022-02-27T13:18:51Z</time>
      </trkpt>
      <trkpt lat="42.84899" lon="0.51868">
        <ele>1280.361</ele>
        <time>2022-02-27T13:18:53Z</time>
      </trkpt>
      <trkpt lat="42.84898" lon="0.51871">
        <ele>1279.844</ele>
        <time>2022-02-27T13:18:55Z</time>
      </trkpt>
      <trkpt lat="42.84898" lon="0.51874">
        <ele>1279.805</ele>
        <time>2022-02-27T13:18:57Z</time>
      </trkpt>
      <trkpt lat="42.84899" lon="0.51878">
        <ele>1280.832</ele>
        <time>2022-02-27T13:18:59Z</time>
      </trkpt>
      <trkpt lat="42.84901" lon="0.5188">
        <ele>1281.721</ele>
        <time>2022-02-27T13:19:01Z</time>
      </trkpt>
      <trkpt lat="42.84901" lon="0.51883">
        <ele>1281.575</ele>
        <time>2022-02-27T13:19:03Z</time>
      </trkpt>
      <trkpt lat="42.84901" lon="0.51885">
        <ele>1281.773</ele>
        <time>2022-02-27T13:19:05Z</time>
      </trkpt>
      <trkpt lat="42.84902" lon="0.51888">
        <ele>1281.407</ele>
        <time>2022-02-27T13:19:07Z</time>
      </trkpt>
      <trkpt lat="42.84903" lon="0.51888">
        <ele>1281.028</ele>
        <time>2022-02-27T13:19:09Z</time>
      </trkpt>
      <trkpt lat="42.84905" lon="0.51886">
        <ele>1280.365</ele>
        <time>2022-02-27T13:19:11Z</time>
      </trkpt>
      <trkpt lat="42.84906" lon="0.51884">
        <ele>1280.765</ele>
        <time>2022-02-27T13:19:13Z</time>
      </trkpt>
      <trkpt lat="42.84908" lon="0.51882">
        <ele>1279.765</ele>
        <time>2022-02-27T13:19:15Z</time>
      </trkpt>
      <trkpt lat="42.8491" lon="0.51881">
        <ele>1279.358</ele>
        <time>2022-02-27T13:19:17Z</time>
      </trkpt>
      <trkpt lat="42.84913" lon="0.51879">
        <ele>1279.975</ele>
        <time>2022-02-27T13:19:19Z</time>
      </trkpt>
      <trkpt lat="42.84915" lon="0.51876">
        <ele>1280.475</ele>
        <time>2022-02-27T13:19:21Z</time>
      </trkpt>
      <trkpt lat="42.84917" lon="0.51875">
        <ele>1281.646</ele>
        <time>2022-02-27T13:19:23Z</time>
      </trkpt>
      <trkpt lat="42.84919" lon="0.51873">
        <ele>1281.259</ele>
        <time>2022-02-27T13:19:25Z</time>
      </trkpt>
      <trkpt lat="42.84921" lon="0.51872">
        <ele>1281.287</ele>
        <time>2022-02-27T13:19:27Z</time>
      </trkpt>
      <trkpt lat="42.84923" lon="0.51871">
        <ele>1281.577</ele>
        <time>2022-02-27T13:19:29Z</time>
      </trkpt>
      <trkpt lat="42.84925" lon="0.51869">
        <ele>1281.852</ele>
        <time>2022-02-27T13:19:31Z</time>
      </trkpt>
      <trkpt lat="42.84927" lon="0.51868">
        <ele>1280.668</ele>
        <time>2022-02-27T13:19:33Z</time>
      </trkpt>
      <trkpt lat="42.84929" lon="0.51867">
        <ele>1278.98</ele>
        <time>2022-02-27T13:19:35Z</time>
      </trkpt>
      <trkpt lat="42.84931" lon="0.51866">
        <ele>1279.669</ele>
        <time>2022-02-27T13:19:37Z</time>
      </trkpt>
      <trkpt lat="42.84933" lon="0.51864">
        <ele>1278.55</ele>
        <time>2022-02-27T13:19:39Z</time>
      </trkpt>
      <trkpt lat="42.84935" lon="0.51863">
        <ele>1277.114</ele>
        <time>2022-02-27T13:19:41Z</time>
      </trkpt>
      <trkpt lat="42.84938" lon="0.51862">
        <ele>1277.045</ele>
        <time>2022-02-27T13:19:43Z</time>
      </trkpt>
      <trkpt lat="42.8494" lon="0.5186">
        <ele>1276.163</ele>
        <time>2022-02-27T13:19:45Z</time>
      </trkpt>
      <trkpt lat="42.84942" lon="0.51859">
        <ele>1275.129</ele>
        <time>2022-02-27T13:19:47Z</time>
      </trkpt>
      <trkpt lat="42.84944" lon="0.51857">
        <ele>1274.773</ele>
        <time>2022-02-27T13:19:49Z</time>
      </trkpt>
      <trkpt lat="42.84946" lon="0.51856">
        <ele>1274.097</ele>
        <time>2022-02-27T13:19:51Z</time>
      </trkpt>
      <trkpt lat="42.84948" lon="0.51854">
        <ele>1273.686</ele>
        <time>2022-02-27T13:19:53Z</time>
      </trkpt>
      <trkpt lat="42.8495" lon="0.51853">
        <ele>1272.557</ele>
        <time>2022-02-27T13:19:55Z</time>
      </trkpt>
      <trkpt lat="42.84952" lon="0.51854">
        <ele>1273.363</ele>
        <time>2022-02-27T13:19:57Z</time>
      </trkpt>
      <trkpt lat="42.84953" lon="0.51854">
        <ele>1273.17</ele>
        <time>2022-02-27T13:19:59Z</time>
      </trkpt>
      <trkpt lat="42.84956" lon="0.51853">
        <ele>1273.442</ele>
        <time>2022-02-27T13:20:01Z</time>
      </trkpt>
      <trkpt lat="42.84958" lon="0.51852">
        <ele>1272.263</ele>
        <time>2022-02-27T13:20:03Z</time>
      </trkpt>
      <trkpt lat="42.8496" lon="0.51851">
        <ele>1272.733</ele>
        <time>2022-02-27T13:20:05Z</time>
      </trkpt>
      <trkpt lat="42.84962" lon="0.5185">
        <ele>1272.158</ele>
        <time>2022-02-27T13:20:07Z</time>
      </trkpt>
      <trkpt lat="42.84964" lon="0.51849">
        <ele>1273.009</ele>
        <time>2022-02-27T13:20:09Z</time>
      </trkpt>
      <trkpt lat="42.84966" lon="0.51848">
        <ele>1273.146</ele>
        <time>2022-02-27T13:20:11Z</time>
      </trkpt>
      <trkpt lat="42.84967" lon="0.51848">
        <ele>1272.101</ele>
        <time>2022-02-27T13:20:13Z</time>
      </trkpt>
      <trkpt lat="42.84969" lon="0.51848">
        <ele>1271.549</ele>
        <time>2022-02-27T13:20:15Z</time>
      </trkpt>
      <trkpt lat="42.84971" lon="0.51847">
        <ele>1270.746</ele>
        <time>2022-02-27T13:20:17Z</time>
      </trkpt>
      <trkpt lat="42.84973" lon="0.51846">
        <ele>1269.807</ele>
        <time>2022-02-27T13:20:19Z</time>
      </trkpt>
      <trkpt lat="42.84975" lon="0.51846">
        <ele>1269.5</ele>
        <time>2022-02-27T13:20:21Z</time>
      </trkpt>
      <trkpt lat="42.84977" lon="0.51846">
        <ele>1269.483</ele>
        <time>2022-02-27T13:20:23Z</time>
      </trkpt>
      <trkpt lat="42.84978" lon="0.51846">
        <ele>1269.016</ele>
        <time>2022-02-27T13:20:25Z</time>
      </trkpt>
      <trkpt lat="42.84977" lon="0.51846">
        <ele>1268.863</ele>
        <time>2022-02-27T13:20:27Z</time>
      </trkpt>
      <trkpt lat="42.84977" lon="0.51846">
        <ele>1268.871</ele>
        <time>2022-02-27T13:20:29Z</time>
      </trkpt>
      <trkpt lat="42.84978" lon="0.51846">
        <ele>1268.552</ele>
        <time>2022-02-27T13:20:31Z</time>
      </trkpt>
      <trkpt lat="42.8498" lon="0.51847">
        <ele>1267.733</ele>
        <time>2022-02-27T13:20:33Z</time>
      </trkpt>
      <trkpt lat="42.84981" lon="0.51847">
        <ele>1267.418</ele>
        <time>2022-02-27T13:20:35Z</time>
      </trkpt>
      <trkpt lat="42.84983" lon="0.51847">
        <ele>1267.607</ele>
        <time>2022-02-27T13:20:37Z</time>
      </trkpt>
      <trkpt lat="42.84985" lon="0.51848">
        <ele>1267.338</ele>
        <time>2022-02-27T13:20:39Z</time>
      </trkpt>
      <trkpt lat="42.84986" lon="0.51849">
        <ele>1267.278</ele>
        <time>2022-02-27T13:20:41Z</time>
      </trkpt>
      <trkpt lat="42.84988" lon="0.5185">
        <ele>1266.552</ele>
        <time>2022-02-27T13:20:43Z</time>
      </trkpt>
      <trkpt lat="42.8499" lon="0.5185">
        <ele>1266.405</ele>
        <time>2022-02-27T13:20:45Z</time>
      </trkpt>
      <trkpt lat="42.84991" lon="0.5185">
        <ele>1265.224</ele>
        <time>2022-02-27T13:20:47Z</time>
      </trkpt>
      <trkpt lat="42.84993" lon="0.5185">
        <ele>1264.583</ele>
        <time>2022-02-27T13:20:49Z</time>
      </trkpt>
      <trkpt lat="42.84995" lon="0.51849">
        <ele>1264.68</ele>
        <time>2022-02-27T13:20:51Z</time>
      </trkpt>
      <trkpt lat="42.84996" lon="0.51847">
        <ele>1263.925</ele>
        <time>2022-02-27T13:20:53Z</time>
      </trkpt>
      <trkpt lat="42.84997" lon="0.51844">
        <ele>1264.463</ele>
        <time>2022-02-27T13:20:55Z</time>
      </trkpt>
      <trkpt lat="42.84998" lon="0.51843">
        <ele>1265.068</ele>
        <time>2022-02-27T13:20:57Z</time>
      </trkpt>
      <trkpt lat="42.84998" lon="0.5184">
        <ele>1265.498</ele>
        <time>2022-02-27T13:20:59Z</time>
      </trkpt>
      <trkpt lat="42.85" lon="0.51839">
        <ele>1266.281</ele>
        <time>2022-02-27T13:21:01Z</time>
      </trkpt>
      <trkpt lat="42.85001" lon="0.51838">
        <ele>1265.893</ele>
        <time>2022-02-27T13:21:03Z</time>
      </trkpt>
      <trkpt lat="42.85003" lon="0.51836">
        <ele>1265.536</ele>
        <time>2022-02-27T13:21:05Z</time>
      </trkpt>
      <trkpt lat="42.85005" lon="0.51835">
        <ele>1265.056</ele>
        <time>2022-02-27T13:21:07Z</time>
      </trkpt>
      <trkpt lat="42.85006" lon="0.51833">
        <ele>1265.753</ele>
        <time>2022-02-27T13:21:09Z</time>
      </trkpt>
      <trkpt lat="42.85008" lon="0.51831">
        <ele>1264.651</ele>
        <time>2022-02-27T13:21:11Z</time>
      </trkpt>
      <trkpt lat="42.85009" lon="0.5183">
        <ele>1263.243</ele>
        <time>2022-02-27T13:21:13Z</time>
      </trkpt>
      <trkpt lat="42.85011" lon="0.51829">
        <ele>1262.724</ele>
        <time>2022-02-27T13:21:15Z</time>
      </trkpt>
      <trkpt lat="42.85013" lon="0.51828">
        <ele>1262.902</ele>
        <time>2022-02-27T13:21:17Z</time>
      </trkpt>
      <trkpt lat="42.85014" lon="0.51826">
        <ele>1261.628</ele>
        <time>2022-02-27T13:21:19Z</time>
      </trkpt>
      <trkpt lat="42.85015" lon="0.51824">
        <ele>1260.708</ele>
        <time>2022-02-27T13:21:21Z</time>
      </trkpt>
      <trkpt lat="42.85016" lon="0.51821">
        <ele>1260.109</ele>
        <time>2022-02-27T13:21:23Z</time>
      </trkpt>
      <trkpt lat="42.85017" lon="0.51819">
        <ele>1259.32</ele>
        <time>2022-02-27T13:21:25Z</time>
      </trkpt>
      <trkpt lat="42.85018" lon="0.51817">
        <ele>1258.732</ele>
        <time>2022-02-27T13:21:27Z</time>
      </trkpt>
      <trkpt lat="42.85019" lon="0.51814">
        <ele>1258.733</ele>
        <time>2022-02-27T13:21:29Z</time>
      </trkpt>
      <trkpt lat="42.8502" lon="0.51811">
        <ele>1256.763</ele>
        <time>2022-02-27T13:21:31Z</time>
      </trkpt>
      <trkpt lat="42.85021" lon="0.51808">
        <ele>1255.86</ele>
        <time>2022-02-27T13:21:33Z</time>
      </trkpt>
      <trkpt lat="42.85023" lon="0.51806">
        <ele>1255.944</ele>
        <time>2022-02-27T13:21:35Z</time>
      </trkpt>
      <trkpt lat="42.85024" lon="0.51803">
        <ele>1254.104</ele>
        <time>2022-02-27T13:21:37Z</time>
      </trkpt>
      <trkpt lat="42.85025" lon="0.51801">
        <ele>1253.391</ele>
        <time>2022-02-27T13:21:39Z</time>
      </trkpt>
      <trkpt lat="42.85027" lon="0.51798">
        <ele>1253.126</ele>
        <time>2022-02-27T13:21:41Z</time>
      </trkpt>
      <trkpt lat="42.85028" lon="0.51796">
        <ele>1253.378</ele>
        <time>2022-02-27T13:21:43Z</time>
      </trkpt>
      <trkpt lat="42.85029" lon="0.51794">
        <ele>1252.15</ele>
        <time>2022-02-27T13:21:45Z</time>
      </trkpt>
      <trkpt lat="42.85031" lon="0.51792">
        <ele>1250.911</ele>
        <time>2022-02-27T13:21:47Z</time>
      </trkpt>
      <trkpt lat="42.85032" lon="0.51789">
        <ele>1250.041</ele>
        <time>2022-02-27T13:21:49Z</time>
      </trkpt>
      <trkpt lat="42.85033" lon="0.51787">
        <ele>1250.672</ele>
        <time>2022-02-27T13:21:51Z</time>
      </trkpt>
      <trkpt lat="42.85035" lon="0.51785">
        <ele>1250.733</ele>
        <time>2022-02-27T13:21:53Z</time>
      </trkpt>
      <trkpt lat="42.85037" lon="0.51782">
        <ele>1249.968</ele>
        <time>2022-02-27T13:21:55Z</time>
      </trkpt>
      <trkpt lat="42.85038" lon="0.5178">
        <ele>1250.197</ele>
        <time>2022-02-27T13:21:57Z</time>
      </trkpt>
      <trkpt lat="42.8504" lon="0.51779">
        <ele>1251.479</ele>
        <time>2022-02-27T13:21:59Z</time>
      </trkpt>
      <trkpt lat="42.85042" lon="0.51777">
        <ele>1251.393</ele>
        <time>2022-02-27T13:22:01Z</time>
      </trkpt>
      <trkpt lat="42.85044" lon="0.51775">
        <ele>1250.664</ele>
        <time>2022-02-27T13:22:03Z</time>
      </trkpt>
      <trkpt lat="42.85045" lon="0.51773">
        <ele>1250.857</ele>
        <time>2022-02-27T13:22:05Z</time>
      </trkpt>
      <trkpt lat="42.85047" lon="0.51771">
        <ele>1251.477</ele>
        <time>2022-02-27T13:22:07Z</time>
      </trkpt>
      <trkpt lat="42.85049" lon="0.5177">
        <ele>1251.537</ele>
        <time>2022-02-27T13:22:09Z</time>
      </trkpt>
      <trkpt lat="42.85051" lon="0.51768">
        <ele>1249.532</ele>
        <time>2022-02-27T13:22:11Z</time>
      </trkpt>
      <trkpt lat="42.85053" lon="0.51766">
        <ele>1248.993</ele>
        <time>2022-02-27T13:22:13Z</time>
      </trkpt>
      <trkpt lat="42.85055" lon="0.51765">
        <ele>1248.098</ele>
        <time>2022-02-27T13:22:15Z</time>
      </trkpt>
      <trkpt lat="42.85057" lon="0.51764">
        <ele>1248.215</ele>
        <time>2022-02-27T13:22:17Z</time>
      </trkpt>
      <trkpt lat="42.85059" lon="0.51762">
        <ele>1247.226</ele>
        <time>2022-02-27T13:22:19Z</time>
      </trkpt>
      <trkpt lat="42.85061" lon="0.51761">
        <ele>1246.606</ele>
        <time>2022-02-27T13:22:21Z</time>
      </trkpt>
      <trkpt lat="42.85063" lon="0.5176">
        <ele>1245.069</ele>
        <time>2022-02-27T13:22:23Z</time>
      </trkpt>
      <trkpt lat="42.85065" lon="0.51759">
        <ele>1244.368</ele>
        <time>2022-02-27T13:22:25Z</time>
      </trkpt>
      <trkpt lat="42.85067" lon="0.51759">
        <ele>1244.504</ele>
        <time>2022-02-27T13:22:27Z</time>
      </trkpt>
      <trkpt lat="42.85069" lon="0.51759">
        <ele>1244.323</ele>
        <time>2022-02-27T13:22:29Z</time>
      </trkpt>
      <trkpt lat="42.85072" lon="0.51758">
        <ele>1244.103</ele>
        <time>2022-02-27T13:22:31Z</time>
      </trkpt>
      <trkpt lat="42.85074" lon="0.51758">
        <ele>1243.003</ele>
        <time>2022-02-27T13:22:33Z</time>
      </trkpt>
      <trkpt lat="42.85076" lon="0.51758">
        <ele>1241.595</ele>
        <time>2022-02-27T13:22:35Z</time>
      </trkpt>
      <trkpt lat="42.85079" lon="0.51758">
        <ele>1241.745</ele>
        <time>2022-02-27T13:22:37Z</time>
      </trkpt>
      <trkpt lat="42.85081" lon="0.51758">
        <ele>1241.136</ele>
        <time>2022-02-27T13:22:39Z</time>
      </trkpt>
      <trkpt lat="42.85083" lon="0.51757">
        <ele>1240.483</ele>
        <time>2022-02-27T13:22:41Z</time>
      </trkpt>
      <trkpt lat="42.85085" lon="0.51758">
        <ele>1240.746</ele>
        <time>2022-02-27T13:22:43Z</time>
      </trkpt>
      <trkpt lat="42.85088" lon="0.51757">
        <ele>1239.411</ele>
        <time>2022-02-27T13:22:45Z</time>
      </trkpt>
      <trkpt lat="42.8509" lon="0.51756">
        <ele>1239.418</ele>
        <time>2022-02-27T13:22:47Z</time>
      </trkpt>
      <trkpt lat="42.85092" lon="0.51755">
        <ele>1239.228</ele>
        <time>2022-02-27T13:22:49Z</time>
      </trkpt>
      <trkpt lat="42.85094" lon="0.51754">
        <ele>1239.319</ele>
        <time>2022-02-27T13:22:51Z</time>
      </trkpt>
      <trkpt lat="42.85096" lon="0.51753">
        <ele>1238.571</ele>
        <time>2022-02-27T13:22:53Z</time>
      </trkpt>
      <trkpt lat="42.85097" lon="0.51751">
        <ele>1238.19</ele>
        <time>2022-02-27T13:22:55Z</time>
      </trkpt>
      <trkpt lat="42.85099" lon="0.51748">
        <ele>1237.579</ele>
        <time>2022-02-27T13:22:57Z</time>
      </trkpt>
      <trkpt lat="42.851" lon="0.51746">
        <ele>1238.146</ele>
        <time>2022-02-27T13:22:59Z</time>
      </trkpt>
      <trkpt lat="42.85103" lon="0.51745">
        <ele>1237.393</ele>
        <time>2022-02-27T13:23:01Z</time>
      </trkpt>
      <trkpt lat="42.85104" lon="0.51744">
        <ele>1237.72</ele>
        <time>2022-02-27T13:23:03Z</time>
      </trkpt>
      <trkpt lat="42.85106" lon="0.51742">
        <ele>1237.621</ele>
        <time>2022-02-27T13:23:05Z</time>
      </trkpt>
      <trkpt lat="42.85107" lon="0.51739">
        <ele>1238.468</ele>
        <time>2022-02-27T13:23:07Z</time>
      </trkpt>
      <trkpt lat="42.85109" lon="0.51737">
        <ele>1237.732</ele>
        <time>2022-02-27T13:23:09Z</time>
      </trkpt>
      <trkpt lat="42.8511" lon="0.51735">
        <ele>1237.219</ele>
        <time>2022-02-27T13:23:11Z</time>
      </trkpt>
      <trkpt lat="42.85112" lon="0.51733">
        <ele>1236.889</ele>
        <time>2022-02-27T13:23:13Z</time>
      </trkpt>
      <trkpt lat="42.85114" lon="0.51731">
        <ele>1236.704</ele>
        <time>2022-02-27T13:23:15Z</time>
      </trkpt>
      <trkpt lat="42.85115" lon="0.5173">
        <ele>1237.037</ele>
        <time>2022-02-27T13:23:17Z</time>
      </trkpt>
      <trkpt lat="42.85117" lon="0.51728">
        <ele>1237.931</ele>
        <time>2022-02-27T13:23:19Z</time>
      </trkpt>
      <trkpt lat="42.85118" lon="0.51726">
        <ele>1237.615</ele>
        <time>2022-02-27T13:23:21Z</time>
      </trkpt>
      <trkpt lat="42.8512" lon="0.51724">
        <ele>1237.906</ele>
        <time>2022-02-27T13:23:23Z</time>
      </trkpt>
      <trkpt lat="42.85122" lon="0.51722">
        <ele>1237.891</ele>
        <time>2022-02-27T13:23:25Z</time>
      </trkpt>
      <trkpt lat="42.85124" lon="0.51721">
        <ele>1238.74</ele>
        <time>2022-02-27T13:23:27Z</time>
      </trkpt>
      <trkpt lat="42.85126" lon="0.5172">
        <ele>1238.656</ele>
        <time>2022-02-27T13:23:29Z</time>
      </trkpt>
      <trkpt lat="42.85128" lon="0.51718">
        <ele>1237.607</ele>
        <time>2022-02-27T13:23:31Z</time>
      </trkpt>
      <trkpt lat="42.85129" lon="0.51716">
        <ele>1236.925</ele>
        <time>2022-02-27T13:23:33Z</time>
      </trkpt>
      <trkpt lat="42.85131" lon="0.51714">
        <ele>1237.196</ele>
        <time>2022-02-27T13:23:35Z</time>
      </trkpt>
      <trkpt lat="42.85133" lon="0.51713">
        <ele>1236.751</ele>
        <time>2022-02-27T13:23:37Z</time>
      </trkpt>
      <trkpt lat="42.85135" lon="0.51712">
        <ele>1237.411</ele>
        <time>2022-02-27T13:23:39Z</time>
      </trkpt>
      <trkpt lat="42.85137" lon="0.5171">
        <ele>1235.943</ele>
        <time>2022-02-27T13:23:41Z</time>
      </trkpt>
      <trkpt lat="42.85139" lon="0.5171">
        <ele>1236.132</ele>
        <time>2022-02-27T13:23:43Z</time>
      </trkpt>
      <trkpt lat="42.85141" lon="0.5171">
        <ele>1235.951</ele>
        <time>2022-02-27T13:23:45Z</time>
      </trkpt>
      <trkpt lat="42.85144" lon="0.51711">
        <ele>1236.525</ele>
        <time>2022-02-27T13:23:47Z</time>
      </trkpt>
      <trkpt lat="42.85145" lon="0.51712">
        <ele>1236.428</ele>
        <time>2022-02-27T13:23:49Z</time>
      </trkpt>
      <trkpt lat="42.85147" lon="0.51713">
        <ele>1235.795</ele>
        <time>2022-02-27T13:23:51Z</time>
      </trkpt>
      <trkpt lat="42.85149" lon="0.51715">
        <ele>1235.224</ele>
        <time>2022-02-27T13:23:53Z</time>
      </trkpt>
      <trkpt lat="42.8515" lon="0.51716">
        <ele>1234.798</ele>
        <time>2022-02-27T13:23:55Z</time>
      </trkpt>
      <trkpt lat="42.85152" lon="0.51717">
        <ele>1234.671</ele>
        <time>2022-02-27T13:23:57Z</time>
      </trkpt>
      <trkpt lat="42.85153" lon="0.51719">
        <ele>1235.034</ele>
        <time>2022-02-27T13:23:59Z</time>
      </trkpt>
      <trkpt lat="42.85155" lon="0.51721">
        <ele>1235.378</ele>
        <time>2022-02-27T13:24:01Z</time>
      </trkpt>
      <trkpt lat="42.85156" lon="0.51724">
        <ele>1234.683</ele>
        <time>2022-02-27T13:24:03Z</time>
      </trkpt>
      <trkpt lat="42.85156" lon="0.51726">
        <ele>1235.046</ele>
        <time>2022-02-27T13:24:05Z</time>
      </trkpt>
      <trkpt lat="42.85157" lon="0.51729">
        <ele>1234.297</ele>
        <time>2022-02-27T13:24:07Z</time>
      </trkpt>
      <trkpt lat="42.85158" lon="0.51731">
        <ele>1235.014</ele>
        <time>2022-02-27T13:24:09Z</time>
      </trkpt>
      <trkpt lat="42.85159" lon="0.51733">
        <ele>1234.649</ele>
        <time>2022-02-27T13:24:11Z</time>
      </trkpt>
      <trkpt lat="42.85159" lon="0.51736">
        <ele>1234.127</ele>
        <time>2022-02-27T13:24:13Z</time>
      </trkpt>
      <trkpt lat="42.8516" lon="0.51738">
        <ele>1234.173</ele>
        <time>2022-02-27T13:24:15Z</time>
      </trkpt>
      <trkpt lat="42.85159" lon="0.51741">
        <ele>1234.086</ele>
        <time>2022-02-27T13:24:17Z</time>
      </trkpt>
      <trkpt lat="42.85159" lon="0.51743">
        <ele>1234.504</ele>
        <time>2022-02-27T13:24:19Z</time>
      </trkpt>
      <trkpt lat="42.85159" lon="0.51745">
        <ele>1234.281</ele>
        <time>2022-02-27T13:24:21Z</time>
      </trkpt>
      <trkpt lat="42.85159" lon="0.51747">
        <ele>1234.675</ele>
        <time>2022-02-27T13:24:23Z</time>
      </trkpt>
      <trkpt lat="42.85159" lon="0.5175">
        <ele>1235.145</ele>
        <time>2022-02-27T13:24:25Z</time>
      </trkpt>
      <trkpt lat="42.85159" lon="0.51753">
        <ele>1236.515</ele>
        <time>2022-02-27T13:24:27Z</time>
      </trkpt>
      <trkpt lat="42.85158" lon="0.51755">
        <ele>1237.332</ele>
        <time>2022-02-27T13:24:29Z</time>
      </trkpt>
      <trkpt lat="42.85156" lon="0.51755">
        <ele>1235.114</ele>
        <time>2022-02-27T13:24:31Z</time>
      </trkpt>
      <trkpt lat="42.85156" lon="0.51754">
        <ele>1234.697</ele>
        <time>2022-02-27T13:24:33Z</time>
      </trkpt>
      <trkpt lat="42.85156" lon="0.51754">
        <ele>1234.684</ele>
        <time>2022-02-27T13:24:35Z</time>
      </trkpt>
      <trkpt lat="42.85156" lon="0.51754">
        <ele>1234.686</ele>
        <time>2022-02-27T13:24:37Z</time>
      </trkpt>
      <trkpt lat="42.85156" lon="0.51754">
        <ele>1234.686</ele>
        <time>2022-02-27T13:24:39Z</time>
      </trkpt>
      <trkpt lat="42.85156" lon="0.51754">
        <ele>1234.701</ele>
        <time>2022-02-27T13:24:41Z</time>
      </trkpt>
      <trkpt lat="42.85156" lon="0.51754">
        <ele>1234.7</ele>
        <time>2022-02-27T13:24:43Z</time>
      </trkpt>
      <trkpt lat="42.85156" lon="0.51754">
        <ele>1234.701</ele>
        <time>2022-02-27T13:24:45Z</time>
      </trkpt>
      <trkpt lat="42.85156" lon="0.51754">
        <ele>1234.694</ele>
        <time>2022-02-27T13:24:47Z</time>
      </trkpt>
      <trkpt lat="42.85156" lon="0.51754">
        <ele>1234.702</ele>
        <time>2022-02-27T13:24:49Z</time>
      </trkpt>
      <trkpt lat="42.85156" lon="0.51754">
        <ele>1234.703</ele>
        <time>2022-02-27T13:24:51Z</time>
      </trkpt>
      <trkpt lat="42.85156" lon="0.51754">
        <ele>1234.722</ele>
        <time>2022-02-27T13:24:53Z</time>
      </trkpt>
      <trkpt lat="42.85156" lon="0.51754">
        <ele>1234.723</ele>
        <time>2022-02-27T13:24:55Z</time>
      </trkpt>
      <trkpt lat="42.85156" lon="0.51754">
        <ele>1234.718</ele>
        <time>2022-02-27T13:24:57Z</time>
      </trkpt>
      <trkpt lat="42.85156" lon="0.51754">
        <ele>1234.941</ele>
        <time>2022-02-27T13:24:59Z</time>
      </trkpt>
      <trkpt lat="42.85157" lon="0.51754">
        <ele>1234.401</ele>
        <time>2022-02-27T13:25:01Z</time>
      </trkpt>
      <trkpt lat="42.85156" lon="0.51754">
        <ele>1234.884</ele>
        <time>2022-02-27T13:25:03Z</time>
      </trkpt>
      <trkpt lat="42.85156" lon="0.51753">
        <ele>1234.407</ele>
        <time>2022-02-27T13:25:05Z</time>
      </trkpt>
      <trkpt lat="42.85156" lon="0.51752">
        <ele>1234.855</ele>
        <time>2022-02-27T13:25:07Z</time>
      </trkpt>
      <trkpt lat="42.85156" lon="0.51752">
        <ele>1234.858</ele>
        <time>2022-02-27T13:25:09Z</time>
      </trkpt>
      <trkpt lat="42.85156" lon="0.51752">
        <ele>1234.864</ele>
        <time>2022-02-27T13:25:11Z</time>
      </trkpt>
      <trkpt lat="42.85156" lon="0.51752">
        <ele>1234.872</ele>
        <time>2022-02-27T13:25:13Z</time>
      </trkpt>
      <trkpt lat="42.85156" lon="0.51752">
        <ele>1235.111</ele>
        <time>2022-02-27T13:25:15Z</time>
      </trkpt>
      <trkpt lat="42.85156" lon="0.51752">
        <ele>1235.119</ele>
        <time>2022-02-27T13:25:17Z</time>
      </trkpt>
      <trkpt lat="42.85156" lon="0.51752">
        <ele>1235.137</ele>
        <time>2022-02-27T13:25:19Z</time>
      </trkpt>
      <trkpt lat="42.85156" lon="0.51753">
        <ele>1235.725</ele>
        <time>2022-02-27T13:25:21Z</time>
      </trkpt>
      <trkpt lat="42.85156" lon="0.51753">
        <ele>1235.727</ele>
        <time>2022-02-27T13:25:23Z</time>
      </trkpt>
      <trkpt lat="42.85156" lon="0.51753">
        <ele>1235.672</ele>
        <time>2022-02-27T13:25:25Z</time>
      </trkpt>
      <trkpt lat="42.85156" lon="0.51753">
        <ele>1235.673</ele>
        <time>2022-02-27T13:25:27Z</time>
      </trkpt>
      <trkpt lat="42.85156" lon="0.51753">
        <ele>1236.343</ele>
        <time>2022-02-27T13:25:29Z</time>
      </trkpt>
      <trkpt lat="42.85156" lon="0.51753">
        <ele>1236.348</ele>
        <time>2022-02-27T13:25:31Z</time>
      </trkpt>
      <trkpt lat="42.85156" lon="0.51753">
        <ele>1236.355</ele>
        <time>2022-02-27T13:25:33Z</time>
      </trkpt>
      <trkpt lat="42.85156" lon="0.51753">
        <ele>1236.361</ele>
        <time>2022-02-27T13:25:35Z</time>
      </trkpt>
      <trkpt lat="42.85156" lon="0.51753">
        <ele>1236.362</ele>
        <time>2022-02-27T13:25:37Z</time>
      </trkpt>
      <trkpt lat="42.85156" lon="0.51753">
        <ele>1236.361</ele>
        <time>2022-02-27T13:25:39Z</time>
      </trkpt>
      <trkpt lat="42.85156" lon="0.51753">
        <ele>1236.352</ele>
        <time>2022-02-27T13:25:41Z</time>
      </trkpt>
      <trkpt lat="42.85156" lon="0.51753">
        <ele>1236.349</ele>
        <time>2022-02-27T13:25:43Z</time>
      </trkpt>
      <trkpt lat="42.85156" lon="0.51753">
        <ele>1236.352</ele>
        <time>2022-02-27T13:25:45Z</time>
      </trkpt>
      <trkpt lat="42.85156" lon="0.51753">
        <ele>1236.722</ele>
        <time>2022-02-27T13:25:47Z</time>
      </trkpt>
      <trkpt lat="42.85156" lon="0.51754">
        <ele>1236.721</ele>
        <time>2022-02-27T13:25:49Z</time>
      </trkpt>
      <trkpt lat="42.85156" lon="0.51754">
        <ele>1237.178</ele>
        <time>2022-02-27T13:25:51Z</time>
      </trkpt>
      <trkpt lat="42.85156" lon="0.51754">
        <ele>1237.186</ele>
        <time>2022-02-27T13:25:53Z</time>
      </trkpt>
      <trkpt lat="42.85156" lon="0.51755">
        <ele>1237.583</ele>
        <time>2022-02-27T13:25:55Z</time>
      </trkpt>
      <trkpt lat="42.85156" lon="0.51755">
        <ele>1237.583</ele>
        <time>2022-02-27T13:25:57Z</time>
      </trkpt>
      <trkpt lat="42.85156" lon="0.51754">
        <ele>1237.329</ele>
        <time>2022-02-27T13:25:59Z</time>
      </trkpt>
      <trkpt lat="42.85156" lon="0.51754">
        <ele>1237.478</ele>
        <time>2022-02-27T13:26:01Z</time>
      </trkpt>
      <trkpt lat="42.85156" lon="0.51754">
        <ele>1237.484</ele>
        <time>2022-02-27T13:26:03Z</time>
      </trkpt>
      <trkpt lat="42.85156" lon="0.51754">
        <ele>1237.487</ele>
        <time>2022-02-27T13:26:05Z</time>
      </trkpt>
      <trkpt lat="42.85156" lon="0.51754">
        <ele>1237.488</ele>
        <time>2022-02-27T13:26:07Z</time>
      </trkpt>
      <trkpt lat="42.85156" lon="0.51754">
        <ele>1237.492</ele>
        <time>2022-02-27T13:26:09Z</time>
      </trkpt>
      <trkpt lat="42.85156" lon="0.51754">
        <ele>1237.49</ele>
        <time>2022-02-27T13:26:11Z</time>
      </trkpt>
      <trkpt lat="42.85156" lon="0.51754">
        <ele>1237.495</ele>
        <time>2022-02-27T13:26:13Z</time>
      </trkpt>
      <trkpt lat="42.85156" lon="0.51754">
        <ele>1237.498</ele>
        <time>2022-02-27T13:26:15Z</time>
      </trkpt>
      <trkpt lat="42.85156" lon="0.51754">
        <ele>1237.5</ele>
        <time>2022-02-27T13:26:17Z</time>
      </trkpt>
      <trkpt lat="42.85156" lon="0.51754">
        <ele>1237.5</ele>
        <time>2022-02-27T13:26:19Z</time>
      </trkpt>
      <trkpt lat="42.85156" lon="0.51754">
        <ele>1237.502</ele>
        <time>2022-02-27T13:26:21Z</time>
      </trkpt>
      <trkpt lat="42.85156" lon="0.51754">
        <ele>1237.505</ele>
        <time>2022-02-27T13:26:23Z</time>
      </trkpt>
      <trkpt lat="42.85156" lon="0.51754">
        <ele>1237.506</ele>
        <time>2022-02-27T13:26:25Z</time>
      </trkpt>
      <trkpt lat="42.85156" lon="0.51754">
        <ele>1237.506</ele>
        <time>2022-02-27T13:26:27Z</time>
      </trkpt>
      <trkpt lat="42.85156" lon="0.51754">
        <ele>1237.505</ele>
        <time>2022-02-27T13:26:29Z</time>
      </trkpt>
      <trkpt lat="42.85156" lon="0.51754">
        <ele>1237.505</ele>
        <time>2022-02-27T13:26:31Z</time>
      </trkpt>
      <trkpt lat="42.85156" lon="0.51754">
        <ele>1237.507</ele>
        <time>2022-02-27T13:26:33Z</time>
      </trkpt>
      <trkpt lat="42.85156" lon="0.51754">
        <ele>1237.51</ele>
        <time>2022-02-27T13:26:35Z</time>
      </trkpt>
      <trkpt lat="42.85156" lon="0.51754">
        <ele>1237.512</ele>
        <time>2022-02-27T13:26:37Z</time>
      </trkpt>
      <trkpt lat="42.85156" lon="0.51754">
        <ele>1237.513</ele>
        <time>2022-02-27T13:26:39Z</time>
      </trkpt>
      <trkpt lat="42.85156" lon="0.51754">
        <ele>1237.516</ele>
        <time>2022-02-27T13:26:41Z</time>
      </trkpt>
      <trkpt lat="42.85156" lon="0.51754">
        <ele>1237.514</ele>
        <time>2022-02-27T13:26:43Z</time>
      </trkpt>
      <trkpt lat="42.85156" lon="0.51754">
        <ele>1237.506</ele>
        <time>2022-02-27T13:26:45Z</time>
      </trkpt>
      <trkpt lat="42.85156" lon="0.51754">
        <ele>1237.497</ele>
        <time>2022-02-27T13:26:47Z</time>
      </trkpt>
      <trkpt lat="42.85156" lon="0.51754">
        <ele>1237.501</ele>
        <time>2022-02-27T13:26:49Z</time>
      </trkpt>
      <trkpt lat="42.85156" lon="0.51754">
        <ele>1237.502</ele>
        <time>2022-02-27T13:26:51Z</time>
      </trkpt>
      <trkpt lat="42.85156" lon="0.51754">
        <ele>1237.605</ele>
        <time>2022-02-27T13:26:53Z</time>
      </trkpt>
      <trkpt lat="42.85156" lon="0.51754">
        <ele>1237.61</ele>
        <time>2022-02-27T13:26:55Z</time>
      </trkpt>
      <trkpt lat="42.85156" lon="0.51754">
        <ele>1237.612</ele>
        <time>2022-02-27T13:26:57Z</time>
      </trkpt>
      <trkpt lat="42.85156" lon="0.51754">
        <ele>1237.617</ele>
        <time>2022-02-27T13:26:59Z</time>
      </trkpt>
      <trkpt lat="42.85156" lon="0.51754">
        <ele>1237.621</ele>
        <time>2022-02-27T13:27:01Z</time>
      </trkpt>
      <trkpt lat="42.85156" lon="0.51754">
        <ele>1237.624</ele>
        <time>2022-02-27T13:27:03Z</time>
      </trkpt>
      <trkpt lat="42.85156" lon="0.51754">
        <ele>1237.63</ele>
        <time>2022-02-27T13:27:05Z</time>
      </trkpt>
      <trkpt lat="42.85156" lon="0.51754">
        <ele>1237.635</ele>
        <time>2022-02-27T13:27:07Z</time>
      </trkpt>
      <trkpt lat="42.85156" lon="0.51754">
        <ele>1237.638</ele>
        <time>2022-02-27T13:27:09Z</time>
      </trkpt>
      <trkpt lat="42.85156" lon="0.51754">
        <ele>1237.639</ele>
        <time>2022-02-27T13:27:11Z</time>
      </trkpt>
      <trkpt lat="42.85156" lon="0.51754">
        <ele>1237.636</ele>
        <time>2022-02-27T13:27:13Z</time>
      </trkpt>
      <trkpt lat="42.85156" lon="0.51754">
        <ele>1237.635</ele>
        <time>2022-02-27T13:27:15Z</time>
      </trkpt>
      <trkpt lat="42.85156" lon="0.51754">
        <ele>1237.633</ele>
        <time>2022-02-27T13:27:17Z</time>
      </trkpt>
      <trkpt lat="42.85156" lon="0.51754">
        <ele>1237.635</ele>
        <time>2022-02-27T13:27:19Z</time>
      </trkpt>
      <trkpt lat="42.85156" lon="0.51754">
        <ele>1237.639</ele>
        <time>2022-02-27T13:27:21Z</time>
      </trkpt>
      <trkpt lat="42.85156" lon="0.51754">
        <ele>1237.646</ele>
        <time>2022-02-27T13:27:23Z</time>
      </trkpt>
      <trkpt lat="42.85156" lon="0.51754">
        <ele>1237.652</ele>
        <time>2022-02-27T13:27:25Z</time>
      </trkpt>
      <trkpt lat="42.85156" lon="0.51754">
        <ele>1237.653</ele>
        <time>2022-02-27T13:27:27Z</time>
      </trkpt>
      <trkpt lat="42.85156" lon="0.51754">
        <ele>1237.656</ele>
        <time>2022-02-27T13:27:29Z</time>
      </trkpt>
      <trkpt lat="42.85156" lon="0.51754">
        <ele>1237.655</ele>
        <time>2022-02-27T13:27:31Z</time>
      </trkpt>
      <trkpt lat="42.85156" lon="0.51754">
        <ele>1237.657</ele>
        <time>2022-02-27T13:27:33Z</time>
      </trkpt>
      <trkpt lat="42.85156" lon="0.51754">
        <ele>1237.652</ele>
        <time>2022-02-27T13:27:35Z</time>
      </trkpt>
      <trkpt lat="42.85156" lon="0.51754">
        <ele>1237.646</ele>
        <time>2022-02-27T13:27:37Z</time>
      </trkpt>
      <trkpt lat="42.85156" lon="0.51754">
        <ele>1237.641</ele>
        <time>2022-02-27T13:27:39Z</time>
      </trkpt>
      <trkpt lat="42.85156" lon="0.51754">
        <ele>1237.64</ele>
        <time>2022-02-27T13:27:41Z</time>
      </trkpt>
      <trkpt lat="42.85156" lon="0.51754">
        <ele>1237.641</ele>
        <time>2022-02-27T13:27:43Z</time>
      </trkpt>
      <trkpt lat="42.85156" lon="0.51754">
        <ele>1237.644</ele>
        <time>2022-02-27T13:27:45Z</time>
      </trkpt>
      <trkpt lat="42.85156" lon="0.51754">
        <ele>1237.645</ele>
        <time>2022-02-27T13:27:47Z</time>
      </trkpt>
      <trkpt lat="42.85156" lon="0.51754">
        <ele>1237.642</ele>
        <time>2022-02-27T13:27:49Z</time>
      </trkpt>
      <trkpt lat="42.85156" lon="0.51754">
        <ele>1237.639</ele>
        <time>2022-02-27T13:27:51Z</time>
      </trkpt>
      <trkpt lat="42.85156" lon="0.51754">
        <ele>1237.636</ele>
        <time>2022-02-27T13:27:53Z</time>
      </trkpt>
      <trkpt lat="42.85156" lon="0.51754">
        <ele>1237.635</ele>
        <time>2022-02-27T13:27:55Z</time>
      </trkpt>
      <trkpt lat="42.85156" lon="0.51754">
        <ele>1237.639</ele>
        <time>2022-02-27T13:27:57Z</time>
      </trkpt>
      <trkpt lat="42.85156" lon="0.51754">
        <ele>1237.638</ele>
        <time>2022-02-27T13:27:59Z</time>
      </trkpt>
      <trkpt lat="42.85156" lon="0.51754">
        <ele>1237.636</ele>
        <time>2022-02-27T13:28:01Z</time>
      </trkpt>
      <trkpt lat="42.85156" lon="0.51754">
        <ele>1237.63</ele>
        <time>2022-02-27T13:28:03Z</time>
      </trkpt>
      <trkpt lat="42.85156" lon="0.51754">
        <ele>1237.632</ele>
        <time>2022-02-27T13:28:05Z</time>
      </trkpt>
      <trkpt lat="42.85156" lon="0.51754">
        <ele>1237.634</ele>
        <time>2022-02-27T13:28:07Z</time>
      </trkpt>
      <trkpt lat="42.85156" lon="0.51754">
        <ele>1237.634</ele>
        <time>2022-02-27T13:28:09Z</time>
      </trkpt>
      <trkpt lat="42.85156" lon="0.51754">
        <ele>1237.634</ele>
        <time>2022-02-27T13:28:11Z</time>
      </trkpt>
      <trkpt lat="42.85156" lon="0.51754">
        <ele>1237.632</ele>
        <time>2022-02-27T13:28:13Z</time>
      </trkpt>
      <trkpt lat="42.85156" lon="0.51754">
        <ele>1237.632</ele>
        <time>2022-02-27T13:28:15Z</time>
      </trkpt>
      <trkpt lat="42.85156" lon="0.51754">
        <ele>1237.633</ele>
        <time>2022-02-27T13:28:17Z</time>
      </trkpt>
      <trkpt lat="42.85156" lon="0.51754">
        <ele>1237.639</ele>
        <time>2022-02-27T13:28:19Z</time>
      </trkpt>
      <trkpt lat="42.85156" lon="0.51754">
        <ele>1237.643</ele>
        <time>2022-02-27T13:28:21Z</time>
      </trkpt>
      <trkpt lat="42.85156" lon="0.51754">
        <ele>1237.647</ele>
        <time>2022-02-27T13:28:23Z</time>
      </trkpt>
      <trkpt lat="42.85156" lon="0.51754">
        <ele>1237.651</ele>
        <time>2022-02-27T13:28:25Z</time>
      </trkpt>
      <trkpt lat="42.85156" lon="0.51754">
        <ele>1237.654</ele>
        <time>2022-02-27T13:28:27Z</time>
      </trkpt>
      <trkpt lat="42.85156" lon="0.51754">
        <ele>1237.659</ele>
        <time>2022-02-27T13:28:29Z</time>
      </trkpt>
      <trkpt lat="42.85156" lon="0.51754">
        <ele>1237.662</ele>
        <time>2022-02-27T13:28:31Z</time>
      </trkpt>
      <trkpt lat="42.85156" lon="0.51754">
        <ele>1237.662</ele>
        <time>2022-02-27T13:28:33Z</time>
      </trkpt>
      <trkpt lat="42.85156" lon="0.51754">
        <ele>1237.665</ele>
        <time>2022-02-27T13:28:35Z</time>
      </trkpt>
      <trkpt lat="42.85156" lon="0.51754">
        <ele>1237.668</ele>
        <time>2022-02-27T13:28:37Z</time>
      </trkpt>
      <trkpt lat="42.85156" lon="0.51754">
        <ele>1237.67</ele>
        <time>2022-02-27T13:28:39Z</time>
      </trkpt>
      <trkpt lat="42.85156" lon="0.51754">
        <ele>1237.672</ele>
        <time>2022-02-27T13:28:41Z</time>
      </trkpt>
      <trkpt lat="42.85156" lon="0.51754">
        <ele>1237.674</ele>
        <time>2022-02-27T13:28:43Z</time>
      </trkpt>
      <trkpt lat="42.85156" lon="0.51754">
        <ele>1237.675</ele>
        <time>2022-02-27T13:28:45Z</time>
      </trkpt>
      <trkpt lat="42.85156" lon="0.51754">
        <ele>1237.676</ele>
        <time>2022-02-27T13:28:47Z</time>
      </trkpt>
      <trkpt lat="42.85156" lon="0.51754">
        <ele>1237.68</ele>
        <time>2022-02-27T13:28:49Z</time>
      </trkpt>
      <trkpt lat="42.85156" lon="0.51754">
        <ele>1237.684</ele>
        <time>2022-02-27T13:28:51Z</time>
      </trkpt>
      <trkpt lat="42.85156" lon="0.51754">
        <ele>1237.682</ele>
        <time>2022-02-27T13:28:53Z</time>
      </trkpt>
      <trkpt lat="42.85156" lon="0.51754">
        <ele>1237.684</ele>
        <time>2022-02-27T13:28:55Z</time>
      </trkpt>
      <trkpt lat="42.85156" lon="0.51754">
        <ele>1237.681</ele>
        <time>2022-02-27T13:28:57Z</time>
      </trkpt>
      <trkpt lat="42.85156" lon="0.51754">
        <ele>1237.541</ele>
        <time>2022-02-27T13:28:59Z</time>
      </trkpt>
      <trkpt lat="42.85156" lon="0.51754">
        <ele>1237.544</ele>
        <time>2022-02-27T13:29:01Z</time>
      </trkpt>
      <trkpt lat="42.85156" lon="0.51754">
        <ele>1237.546</ele>
        <time>2022-02-27T13:29:03Z</time>
      </trkpt>
      <trkpt lat="42.85156" lon="0.51754">
        <ele>1237.546</ele>
        <time>2022-02-27T13:29:05Z</time>
      </trkpt>
      <trkpt lat="42.85156" lon="0.51754">
        <ele>1237.543</ele>
        <time>2022-02-27T13:29:07Z</time>
      </trkpt>
      <trkpt lat="42.85156" lon="0.51754">
        <ele>1237.542</ele>
        <time>2022-02-27T13:29:09Z</time>
      </trkpt>
      <trkpt lat="42.85156" lon="0.51754">
        <ele>1237.541</ele>
        <time>2022-02-27T13:29:11Z</time>
      </trkpt>
      <trkpt lat="42.85156" lon="0.51754">
        <ele>1237.546</ele>
        <time>2022-02-27T13:29:13Z</time>
      </trkpt>
      <trkpt lat="42.85156" lon="0.51754">
        <ele>1237.553</ele>
        <time>2022-02-27T13:29:15Z</time>
      </trkpt>
      <trkpt lat="42.85156" lon="0.51754">
        <ele>1237.56</ele>
        <time>2022-02-27T13:29:17Z</time>
      </trkpt>
      <trkpt lat="42.85156" lon="0.51754">
        <ele>1237.564</ele>
        <time>2022-02-27T13:29:19Z</time>
      </trkpt>
      <trkpt lat="42.85156" lon="0.51754">
        <ele>1237.569</ele>
        <time>2022-02-27T13:29:21Z</time>
      </trkpt>
      <trkpt lat="42.85156" lon="0.51754">
        <ele>1237.575</ele>
        <time>2022-02-27T13:29:23Z</time>
      </trkpt>
      <trkpt lat="42.85156" lon="0.51754">
        <ele>1237.577</ele>
        <time>2022-02-27T13:29:25Z</time>
      </trkpt>
      <trkpt lat="42.85156" lon="0.51754">
        <ele>1237.585</ele>
        <time>2022-02-27T13:29:27Z</time>
      </trkpt>
      <trkpt lat="42.85156" lon="0.51754">
        <ele>1237.587</ele>
        <time>2022-02-27T13:29:29Z</time>
      </trkpt>
      <trkpt lat="42.85156" lon="0.51754">
        <ele>1237.595</ele>
        <time>2022-02-27T13:29:31Z</time>
      </trkpt>
      <trkpt lat="42.85156" lon="0.51754">
        <ele>1237.59</ele>
        <time>2022-02-27T13:29:33Z</time>
      </trkpt>
      <trkpt lat="42.85156" lon="0.51754">
        <ele>1237.586</ele>
        <time>2022-02-27T13:29:35Z</time>
      </trkpt>
      <trkpt lat="42.85156" lon="0.51754">
        <ele>1237.587</ele>
        <time>2022-02-27T13:29:37Z</time>
      </trkpt>
      <trkpt lat="42.85156" lon="0.51754">
        <ele>1237.588</ele>
        <time>2022-02-27T13:29:39Z</time>
      </trkpt>
      <trkpt lat="42.85156" lon="0.51754">
        <ele>1237.59</ele>
        <time>2022-02-27T13:29:41Z</time>
      </trkpt>
      <trkpt lat="42.85156" lon="0.51754">
        <ele>1237.59</ele>
        <time>2022-02-27T13:29:43Z</time>
      </trkpt>
      <trkpt lat="42.85156" lon="0.51754">
        <ele>1237.593</ele>
        <time>2022-02-27T13:29:45Z</time>
      </trkpt>
      <trkpt lat="42.85156" lon="0.51754">
        <ele>1237.592</ele>
        <time>2022-02-27T13:29:47Z</time>
      </trkpt>
      <trkpt lat="42.85156" lon="0.51754">
        <ele>1237.593</ele>
        <time>2022-02-27T13:29:49Z</time>
      </trkpt>
      <trkpt lat="42.85156" lon="0.51754">
        <ele>1237.592</ele>
        <time>2022-02-27T13:29:51Z</time>
      </trkpt>
      <trkpt lat="42.85156" lon="0.51754">
        <ele>1237.591</ele>
        <time>2022-02-27T13:29:53Z</time>
      </trkpt>
      <trkpt lat="42.85156" lon="0.51754">
        <ele>1237.593</ele>
        <time>2022-02-27T13:29:55Z</time>
      </trkpt>
      <trkpt lat="42.85156" lon="0.51754">
        <ele>1237.594</ele>
        <time>2022-02-27T13:29:57Z</time>
      </trkpt>
      <trkpt lat="42.85156" lon="0.51754">
        <ele>1237.592</ele>
        <time>2022-02-27T13:29:59Z</time>
      </trkpt>
      <trkpt lat="42.85156" lon="0.51754">
        <ele>1237.595</ele>
        <time>2022-02-27T13:30:01Z</time>
      </trkpt>
      <trkpt lat="42.85156" lon="0.51754">
        <ele>1237.597</ele>
        <time>2022-02-27T13:30:03Z</time>
      </trkpt>
      <trkpt lat="42.85156" lon="0.51754">
        <ele>1237.6</ele>
        <time>2022-02-27T13:30:05Z</time>
      </trkpt>
      <trkpt lat="42.85156" lon="0.51754">
        <ele>1237.607</ele>
        <time>2022-02-27T13:30:07Z</time>
      </trkpt>
      <trkpt lat="42.85156" lon="0.51754">
        <ele>1237.612</ele>
        <time>2022-02-27T13:30:09Z</time>
      </trkpt>
      <trkpt lat="42.85156" lon="0.51754">
        <ele>1237.616</ele>
        <time>2022-02-27T13:30:11Z</time>
      </trkpt>
      <trkpt lat="42.85156" lon="0.51754">
        <ele>1237.62</ele>
        <time>2022-02-27T13:30:13Z</time>
      </trkpt>
      <trkpt lat="42.85156" lon="0.51754">
        <ele>1237.621</ele>
        <time>2022-02-27T13:30:15Z</time>
      </trkpt>
      <trkpt lat="42.85156" lon="0.51754">
        <ele>1237.623</ele>
        <time>2022-02-27T13:30:17Z</time>
      </trkpt>
      <trkpt lat="42.85156" lon="0.51754">
        <ele>1237.619</ele>
        <time>2022-02-27T13:30:19Z</time>
      </trkpt>
      <trkpt lat="42.85156" lon="0.51754">
        <ele>1237.615</ele>
        <time>2022-02-27T13:30:21Z</time>
      </trkpt>
      <trkpt lat="42.85156" lon="0.51754">
        <ele>1237.613</ele>
        <time>2022-02-27T13:30:23Z</time>
      </trkpt>
      <trkpt lat="42.85156" lon="0.51754">
        <ele>1237.613</ele>
        <time>2022-02-27T13:30:25Z</time>
      </trkpt>
      <trkpt lat="42.85156" lon="0.51754">
        <ele>1237.613</ele>
        <time>2022-02-27T13:30:27Z</time>
      </trkpt>
      <trkpt lat="42.85156" lon="0.51754">
        <ele>1237.615</ele>
        <time>2022-02-27T13:30:29Z</time>
      </trkpt>
      <trkpt lat="42.85156" lon="0.51754">
        <ele>1237.619</ele>
        <time>2022-02-27T13:30:31Z</time>
      </trkpt>
      <trkpt lat="42.85156" lon="0.51754">
        <ele>1237.623</ele>
        <time>2022-02-27T13:30:33Z</time>
      </trkpt>
      <trkpt lat="42.85156" lon="0.51754">
        <ele>1237.625</ele>
        <time>2022-02-27T13:30:35Z</time>
      </trkpt>
      <trkpt lat="42.85156" lon="0.51754">
        <ele>1237.63</ele>
        <time>2022-02-27T13:30:37Z</time>
      </trkpt>
      <trkpt lat="42.85156" lon="0.51754">
        <ele>1237.634</ele>
        <time>2022-02-27T13:30:39Z</time>
      </trkpt>
      <trkpt lat="42.85156" lon="0.51754">
        <ele>1237.633</ele>
        <time>2022-02-27T13:30:41Z</time>
      </trkpt>
      <trkpt lat="42.85156" lon="0.51754">
        <ele>1237.637</ele>
        <time>2022-02-27T13:30:43Z</time>
      </trkpt>
      <trkpt lat="42.85156" lon="0.51754">
        <ele>1237.639</ele>
        <time>2022-02-27T13:30:45Z</time>
      </trkpt>
      <trkpt lat="42.85156" lon="0.51754">
        <ele>1237.637</ele>
        <time>2022-02-27T13:30:47Z</time>
      </trkpt>
      <trkpt lat="42.85156" lon="0.51754">
        <ele>1237.632</ele>
        <time>2022-02-27T13:30:49Z</time>
      </trkpt>
      <trkpt lat="42.85156" lon="0.51754">
        <ele>1237.633</ele>
        <time>2022-02-27T13:30:51Z</time>
      </trkpt>
      <trkpt lat="42.85156" lon="0.51754">
        <ele>1237.628</ele>
        <time>2022-02-27T13:30:53Z</time>
      </trkpt>
      <trkpt lat="42.85156" lon="0.51754">
        <ele>1237.627</ele>
        <time>2022-02-27T13:30:55Z</time>
      </trkpt>
      <trkpt lat="42.85156" lon="0.51754">
        <ele>1237.626</ele>
        <time>2022-02-27T13:30:57Z</time>
      </trkpt>
      <trkpt lat="42.85156" lon="0.51754">
        <ele>1237.619</ele>
        <time>2022-02-27T13:30:59Z</time>
      </trkpt>
      <trkpt lat="42.85156" lon="0.51754">
        <ele>1237.617</ele>
        <time>2022-02-27T13:31:01Z</time>
      </trkpt>
      <trkpt lat="42.85156" lon="0.51754">
        <ele>1237.613</ele>
        <time>2022-02-27T13:31:03Z</time>
      </trkpt>
      <trkpt lat="42.85156" lon="0.51754">
        <ele>1237.612</ele>
        <time>2022-02-27T13:31:05Z</time>
      </trkpt>
      <trkpt lat="42.85156" lon="0.51754">
        <ele>1237.613</ele>
        <time>2022-02-27T13:31:07Z</time>
      </trkpt>
      <trkpt lat="42.85156" lon="0.51754">
        <ele>1237.61</ele>
        <time>2022-02-27T13:31:09Z</time>
      </trkpt>
      <trkpt lat="42.85156" lon="0.51754">
        <ele>1237.615</ele>
        <time>2022-02-27T13:31:11Z</time>
      </trkpt>
      <trkpt lat="42.85156" lon="0.51754">
        <ele>1237.617</ele>
        <time>2022-02-27T13:31:13Z</time>
      </trkpt>
      <trkpt lat="42.85156" lon="0.51754">
        <ele>1237.622</ele>
        <time>2022-02-27T13:31:15Z</time>
      </trkpt>
      <trkpt lat="42.85156" lon="0.51754">
        <ele>1237.62</ele>
        <time>2022-02-27T13:31:17Z</time>
      </trkpt>
      <trkpt lat="42.85156" lon="0.51754">
        <ele>1237.625</ele>
        <time>2022-02-27T13:31:19Z</time>
      </trkpt>
      <trkpt lat="42.85156" lon="0.51754">
        <ele>1237.621</ele>
        <time>2022-02-27T13:31:21Z</time>
      </trkpt>
      <trkpt lat="42.85156" lon="0.51754">
        <ele>1237.62</ele>
        <time>2022-02-27T13:31:23Z</time>
      </trkpt>
      <trkpt lat="42.85156" lon="0.51754">
        <ele>1237.619</ele>
        <time>2022-02-27T13:31:25Z</time>
      </trkpt>
      <trkpt lat="42.85156" lon="0.51754">
        <ele>1237.62</ele>
        <time>2022-02-27T13:31:27Z</time>
      </trkpt>
      <trkpt lat="42.85156" lon="0.51754">
        <ele>1237.622</ele>
        <time>2022-02-27T13:31:29Z</time>
      </trkpt>
      <trkpt lat="42.85156" lon="0.51754">
        <ele>1237.624</ele>
        <time>2022-02-27T13:31:31Z</time>
      </trkpt>
      <trkpt lat="42.85156" lon="0.51754">
        <ele>1237.626</ele>
        <time>2022-02-27T13:31:33Z</time>
      </trkpt>
      <trkpt lat="42.85156" lon="0.51754">
        <ele>1237.628</ele>
        <time>2022-02-27T13:31:35Z</time>
      </trkpt>
      <trkpt lat="42.85156" lon="0.51754">
        <ele>1237.629</ele>
        <time>2022-02-27T13:31:37Z</time>
      </trkpt>
      <trkpt lat="42.85156" lon="0.51754">
        <ele>1237.632</ele>
        <time>2022-02-27T13:31:39Z</time>
      </trkpt>
      <trkpt lat="42.85156" lon="0.51754">
        <ele>1237.632</ele>
        <time>2022-02-27T13:31:41Z</time>
      </trkpt>
      <trkpt lat="42.85156" lon="0.51754">
        <ele>1237.632</ele>
        <time>2022-02-27T13:31:43Z</time>
      </trkpt>
      <trkpt lat="42.85156" lon="0.51754">
        <ele>1237.628</ele>
        <time>2022-02-27T13:31:45Z</time>
      </trkpt>
      <trkpt lat="42.85156" lon="0.51754">
        <ele>1237.625</ele>
        <time>2022-02-27T13:31:47Z</time>
      </trkpt>
      <trkpt lat="42.85156" lon="0.51754">
        <ele>1237.623</ele>
        <time>2022-02-27T13:31:49Z</time>
      </trkpt>
      <trkpt lat="42.85156" lon="0.51754">
        <ele>1237.624</ele>
        <time>2022-02-27T13:31:51Z</time>
      </trkpt>
      <trkpt lat="42.85156" lon="0.51754">
        <ele>1237.622</ele>
        <time>2022-02-27T13:31:53Z</time>
      </trkpt>
      <trkpt lat="42.85156" lon="0.51754">
        <ele>1237.623</ele>
        <time>2022-02-27T13:31:55Z</time>
      </trkpt>
      <trkpt lat="42.85156" lon="0.51754">
        <ele>1237.627</ele>
        <time>2022-02-27T13:31:57Z</time>
      </trkpt>
      <trkpt lat="42.85156" lon="0.51754">
        <ele>1237.632</ele>
        <time>2022-02-27T13:31:59Z</time>
      </trkpt>
      <trkpt lat="42.85156" lon="0.51754">
        <ele>1237.636</ele>
        <time>2022-02-27T13:32:01Z</time>
      </trkpt>
      <trkpt lat="42.85156" lon="0.51754">
        <ele>1237.639</ele>
        <time>2022-02-27T13:32:03Z</time>
      </trkpt>
      <trkpt lat="42.85156" lon="0.51754">
        <ele>1237.642</ele>
        <time>2022-02-27T13:32:05Z</time>
      </trkpt>
      <trkpt lat="42.85156" lon="0.51754">
        <ele>1237.643</ele>
        <time>2022-02-27T13:32:07Z</time>
      </trkpt>
      <trkpt lat="42.85156" lon="0.51754">
        <ele>1237.648</ele>
        <time>2022-02-27T13:32:09Z</time>
      </trkpt>
      <trkpt lat="42.85156" lon="0.51754">
        <ele>1237.648</ele>
        <time>2022-02-27T13:32:11Z</time>
      </trkpt>
      <trkpt lat="42.85156" lon="0.51754">
        <ele>1237.65</ele>
        <time>2022-02-27T13:32:13Z</time>
      </trkpt>
      <trkpt lat="42.85156" lon="0.51754">
        <ele>1237.628</ele>
        <time>2022-02-27T13:32:15Z</time>
      </trkpt>
      <trkpt lat="42.85156" lon="0.51754">
        <ele>1237.629</ele>
        <time>2022-02-27T13:32:17Z</time>
      </trkpt>
      <trkpt lat="42.85156" lon="0.51754">
        <ele>1237.629</ele>
        <time>2022-02-27T13:32:19Z</time>
      </trkpt>
      <trkpt lat="42.85156" lon="0.51754">
        <ele>1237.629</ele>
        <time>2022-02-27T13:32:21Z</time>
      </trkpt>
      <trkpt lat="42.85156" lon="0.51754">
        <ele>1237.63</ele>
        <time>2022-02-27T13:32:23Z</time>
      </trkpt>
      <trkpt lat="42.85156" lon="0.51754">
        <ele>1237.63</ele>
        <time>2022-02-27T13:32:25Z</time>
      </trkpt>
      <trkpt lat="42.85156" lon="0.51754">
        <ele>1237.628</ele>
        <time>2022-02-27T13:32:27Z</time>
      </trkpt>
      <trkpt lat="42.85156" lon="0.51754">
        <ele>1237.626</ele>
        <time>2022-02-27T13:32:29Z</time>
      </trkpt>
      <trkpt lat="42.85156" lon="0.51754">
        <ele>1237.628</ele>
        <time>2022-02-27T13:32:31Z</time>
      </trkpt>
      <trkpt lat="42.85156" lon="0.51754">
        <ele>1237.628</ele>
        <time>2022-02-27T13:32:33Z</time>
      </trkpt>
      <trkpt lat="42.85156" lon="0.51754">
        <ele>1237.629</ele>
        <time>2022-02-27T13:32:35Z</time>
      </trkpt>
      <trkpt lat="42.85156" lon="0.51754">
        <ele>1237.631</ele>
        <time>2022-02-27T13:32:37Z</time>
      </trkpt>
      <trkpt lat="42.85156" lon="0.51754">
        <ele>1237.632</ele>
        <time>2022-02-27T13:32:39Z</time>
      </trkpt>
      <trkpt lat="42.85156" lon="0.51754">
        <ele>1237.635</ele>
        <time>2022-02-27T13:32:41Z</time>
      </trkpt>
      <trkpt lat="42.85156" lon="0.51754">
        <ele>1237.639</ele>
        <time>2022-02-27T13:32:43Z</time>
      </trkpt>
      <trkpt lat="42.85156" lon="0.51754">
        <ele>1237.641</ele>
        <time>2022-02-27T13:32:45Z</time>
      </trkpt>
      <trkpt lat="42.85156" lon="0.51754">
        <ele>1237.644</ele>
        <time>2022-02-27T13:32:47Z</time>
      </trkpt>
      <trkpt lat="42.85156" lon="0.51754">
        <ele>1237.644</ele>
        <time>2022-02-27T13:32:49Z</time>
      </trkpt>
      <trkpt lat="42.85156" lon="0.51754">
        <ele>1237.645</ele>
        <time>2022-02-27T13:32:51Z</time>
      </trkpt>
      <trkpt lat="42.85156" lon="0.51754">
        <ele>1237.646</ele>
        <time>2022-02-27T13:32:53Z</time>
      </trkpt>
      <trkpt lat="42.85156" lon="0.51754">
        <ele>1237.646</ele>
        <time>2022-02-27T13:32:55Z</time>
      </trkpt>
      <trkpt lat="42.85156" lon="0.51754">
        <ele>1237.65</ele>
        <time>2022-02-27T13:32:57Z</time>
      </trkpt>
      <trkpt lat="42.85156" lon="0.51754">
        <ele>1237.657</ele>
        <time>2022-02-27T13:32:59Z</time>
      </trkpt>
      <trkpt lat="42.85156" lon="0.51754">
        <ele>1237.661</ele>
        <time>2022-02-27T13:33:01Z</time>
      </trkpt>
      <trkpt lat="42.85156" lon="0.51754">
        <ele>1237.663</ele>
        <time>2022-02-27T13:33:03Z</time>
      </trkpt>
      <trkpt lat="42.85156" lon="0.51754">
        <ele>1237.664</ele>
        <time>2022-02-27T13:33:05Z</time>
      </trkpt>
      <trkpt lat="42.85156" lon="0.51754">
        <ele>1237.667</ele>
        <time>2022-02-27T13:33:07Z</time>
      </trkpt>
      <trkpt lat="42.85156" lon="0.51754">
        <ele>1237.669</ele>
        <time>2022-02-27T13:33:09Z</time>
      </trkpt>
      <trkpt lat="42.85156" lon="0.51754">
        <ele>1237.67</ele>
        <time>2022-02-27T13:33:11Z</time>
      </trkpt>
      <trkpt lat="42.85156" lon="0.51754">
        <ele>1237.672</ele>
        <time>2022-02-27T13:33:13Z</time>
      </trkpt>
      <trkpt lat="42.85156" lon="0.51754">
        <ele>1237.675</ele>
        <time>2022-02-27T13:33:15Z</time>
      </trkpt>
      <trkpt lat="42.85156" lon="0.51754">
        <ele>1237.674</ele>
        <time>2022-02-27T13:33:17Z</time>
      </trkpt>
      <trkpt lat="42.85156" lon="0.51754">
        <ele>1237.673</ele>
        <time>2022-02-27T13:33:19Z</time>
      </trkpt>
      <trkpt lat="42.85156" lon="0.51754">
        <ele>1237.674</ele>
        <time>2022-02-27T13:33:21Z</time>
      </trkpt>
      <trkpt lat="42.85156" lon="0.51754">
        <ele>1237.673</ele>
        <time>2022-02-27T13:33:23Z</time>
      </trkpt>
      <trkpt lat="42.85156" lon="0.51754">
        <ele>1237.677</ele>
        <time>2022-02-27T13:33:25Z</time>
      </trkpt>
      <trkpt lat="42.85156" lon="0.51754">
        <ele>1237.678</ele>
        <time>2022-02-27T13:33:27Z</time>
      </trkpt>
      <trkpt lat="42.85156" lon="0.51754">
        <ele>1237.682</ele>
        <time>2022-02-27T13:33:29Z</time>
      </trkpt>
      <trkpt lat="42.85156" lon="0.51754">
        <ele>1237.681</ele>
        <time>2022-02-27T13:33:31Z</time>
      </trkpt>
      <trkpt lat="42.85156" lon="0.51754">
        <ele>1237.681</ele>
        <time>2022-02-27T13:33:33Z</time>
      </trkpt>
      <trkpt lat="42.85156" lon="0.51754">
        <ele>1237.682</ele>
        <time>2022-02-27T13:33:35Z</time>
      </trkpt>
      <trkpt lat="42.85156" lon="0.51754">
        <ele>1237.685</ele>
        <time>2022-02-27T13:33:37Z</time>
      </trkpt>
      <trkpt lat="42.85156" lon="0.51754">
        <ele>1237.687</ele>
        <time>2022-02-27T13:33:39Z</time>
      </trkpt>
      <trkpt lat="42.85156" lon="0.51754">
        <ele>1237.69</ele>
        <time>2022-02-27T13:33:41Z</time>
      </trkpt>
      <trkpt lat="42.85156" lon="0.51754">
        <ele>1237.69</ele>
        <time>2022-02-27T13:33:43Z</time>
      </trkpt>
      <trkpt lat="42.85156" lon="0.51754">
        <ele>1237.689</ele>
        <time>2022-02-27T13:33:45Z</time>
      </trkpt>
      <trkpt lat="42.85156" lon="0.51754">
        <ele>1237.693</ele>
        <time>2022-02-27T13:33:47Z</time>
      </trkpt>
      <trkpt lat="42.85156" lon="0.51754">
        <ele>1237.696</ele>
        <time>2022-02-27T13:33:49Z</time>
      </trkpt>
      <trkpt lat="42.85156" lon="0.51754">
        <ele>1237.698</ele>
        <time>2022-02-27T13:33:51Z</time>
      </trkpt>
      <trkpt lat="42.85156" lon="0.51754">
        <ele>1237.699</ele>
        <time>2022-02-27T13:33:53Z</time>
      </trkpt>
      <trkpt lat="42.85156" lon="0.51754">
        <ele>1237.702</ele>
        <time>2022-02-27T13:33:55Z</time>
      </trkpt>
      <trkpt lat="42.85156" lon="0.51754">
        <ele>1237.703</ele>
        <time>2022-02-27T13:33:57Z</time>
      </trkpt>
      <trkpt lat="42.85156" lon="0.51754">
        <ele>1237.705</ele>
        <time>2022-02-27T13:33:59Z</time>
      </trkpt>
      <trkpt lat="42.85156" lon="0.51754">
        <ele>1237.709</ele>
        <time>2022-02-27T13:34:01Z</time>
      </trkpt>
      <trkpt lat="42.85156" lon="0.51754">
        <ele>1237.711</ele>
        <time>2022-02-27T13:34:03Z</time>
      </trkpt>
      <trkpt lat="42.85156" lon="0.51754">
        <ele>1237.714</ele>
        <time>2022-02-27T13:34:05Z</time>
      </trkpt>
      <trkpt lat="42.85156" lon="0.51754">
        <ele>1237.716</ele>
        <time>2022-02-27T13:34:07Z</time>
      </trkpt>
      <trkpt lat="42.85156" lon="0.51754">
        <ele>1237.719</ele>
        <time>2022-02-27T13:34:09Z</time>
      </trkpt>
      <trkpt lat="42.85156" lon="0.51754">
        <ele>1237.723</ele>
        <time>2022-02-27T13:34:11Z</time>
      </trkpt>
      <trkpt lat="42.85156" lon="0.51754">
        <ele>1237.723</ele>
        <time>2022-02-27T13:34:13Z</time>
      </trkpt>
      <trkpt lat="42.85156" lon="0.51754">
        <ele>1237.721</ele>
        <time>2022-02-27T13:34:15Z</time>
      </trkpt>
      <trkpt lat="42.85156" lon="0.51754">
        <ele>1237.717</ele>
        <time>2022-02-27T13:34:17Z</time>
      </trkpt>
      <trkpt lat="42.85156" lon="0.51754">
        <ele>1237.715</ele>
        <time>2022-02-27T13:34:19Z</time>
      </trkpt>
      <trkpt lat="42.85156" lon="0.51754">
        <ele>1237.714</ele>
        <time>2022-02-27T13:34:21Z</time>
      </trkpt>
      <trkpt lat="42.85156" lon="0.51754">
        <ele>1237.711</ele>
        <time>2022-02-27T13:34:23Z</time>
      </trkpt>
      <trkpt lat="42.85156" lon="0.51754">
        <ele>1237.712</ele>
        <time>2022-02-27T13:34:25Z</time>
      </trkpt>
      <trkpt lat="42.85156" lon="0.51754">
        <ele>1237.712</ele>
        <time>2022-02-27T13:34:27Z</time>
      </trkpt>
      <trkpt lat="42.85156" lon="0.51754">
        <ele>1237.711</ele>
        <time>2022-02-27T13:34:29Z</time>
      </trkpt>
      <trkpt lat="42.85156" lon="0.51754">
        <ele>1237.709</ele>
        <time>2022-02-27T13:34:31Z</time>
      </trkpt>
      <trkpt lat="42.85156" lon="0.51754">
        <ele>1237.708</ele>
        <time>2022-02-27T13:34:33Z</time>
      </trkpt>
      <trkpt lat="42.85156" lon="0.51754">
        <ele>1237.711</ele>
        <time>2022-02-27T13:34:35Z</time>
      </trkpt>
      <trkpt lat="42.85156" lon="0.51754">
        <ele>1237.713</ele>
        <time>2022-02-27T13:34:37Z</time>
      </trkpt>
      <trkpt lat="42.85156" lon="0.51754">
        <ele>1237.715</ele>
        <time>2022-02-27T13:34:39Z</time>
      </trkpt>
      <trkpt lat="42.85156" lon="0.51754">
        <ele>1237.716</ele>
        <time>2022-02-27T13:34:41Z</time>
      </trkpt>
      <trkpt lat="42.85156" lon="0.51754">
        <ele>1237.714</ele>
        <time>2022-02-27T13:34:43Z</time>
      </trkpt>
      <trkpt lat="42.85156" lon="0.51754">
        <ele>1237.713</ele>
        <time>2022-02-27T13:34:45Z</time>
      </trkpt>
      <trkpt lat="42.85156" lon="0.51754">
        <ele>1237.712</ele>
        <time>2022-02-27T13:34:47Z</time>
      </trkpt>
      <trkpt lat="42.85156" lon="0.51754">
        <ele>1237.711</ele>
        <time>2022-02-27T13:34:49Z</time>
      </trkpt>
      <trkpt lat="42.85156" lon="0.51754">
        <ele>1237.706</ele>
        <time>2022-02-27T13:34:51Z</time>
      </trkpt>
      <trkpt lat="42.85156" lon="0.51754">
        <ele>1237.705</ele>
        <time>2022-02-27T13:34:53Z</time>
      </trkpt>
      <trkpt lat="42.85156" lon="0.51754">
        <ele>1237.705</ele>
        <time>2022-02-27T13:34:55Z</time>
      </trkpt>
      <trkpt lat="42.85156" lon="0.51754">
        <ele>1237.705</ele>
        <time>2022-02-27T13:34:57Z</time>
      </trkpt>
      <trkpt lat="42.85156" lon="0.51754">
        <ele>1237.703</ele>
        <time>2022-02-27T13:34:59Z</time>
      </trkpt>
      <trkpt lat="42.85156" lon="0.51754">
        <ele>1237.701</ele>
        <time>2022-02-27T13:35:01Z</time>
      </trkpt>
      <trkpt lat="42.85156" lon="0.51754">
        <ele>1237.699</ele>
        <time>2022-02-27T13:35:03Z</time>
      </trkpt>
      <trkpt lat="42.85156" lon="0.51754">
        <ele>1237.699</ele>
        <time>2022-02-27T13:35:05Z</time>
      </trkpt>
      <trkpt lat="42.85156" lon="0.51754">
        <ele>1237.7</ele>
        <time>2022-02-27T13:35:07Z</time>
      </trkpt>
      <trkpt lat="42.85156" lon="0.51754">
        <ele>1237.702</ele>
        <time>2022-02-27T13:35:09Z</time>
      </trkpt>
      <trkpt lat="42.85156" lon="0.51754">
        <ele>1237.703</ele>
        <time>2022-02-27T13:35:11Z</time>
      </trkpt>
      <trkpt lat="42.85156" lon="0.51754">
        <ele>1237.704</ele>
        <time>2022-02-27T13:35:13Z</time>
      </trkpt>
      <trkpt lat="42.85156" lon="0.51754">
        <ele>1237.701</ele>
        <time>2022-02-27T13:35:15Z</time>
      </trkpt>
      <trkpt lat="42.85156" lon="0.51754">
        <ele>1237.703</ele>
        <time>2022-02-27T13:35:17Z</time>
      </trkpt>
      <trkpt lat="42.85156" lon="0.51754">
        <ele>1237.706</ele>
        <time>2022-02-27T13:35:19Z</time>
      </trkpt>
      <trkpt lat="42.85156" lon="0.51754">
        <ele>1237.706</ele>
        <time>2022-02-27T13:35:21Z</time>
      </trkpt>
      <trkpt lat="42.85156" lon="0.51754">
        <ele>1237.707</ele>
        <time>2022-02-27T13:35:23Z</time>
      </trkpt>
      <trkpt lat="42.85156" lon="0.51754">
        <ele>1237.71</ele>
        <time>2022-02-27T13:35:25Z</time>
      </trkpt>
      <trkpt lat="42.85156" lon="0.51754">
        <ele>1237.71</ele>
        <time>2022-02-27T13:35:27Z</time>
      </trkpt>
      <trkpt lat="42.85156" lon="0.51754">
        <ele>1237.705</ele>
        <time>2022-02-27T13:35:29Z</time>
      </trkpt>
      <trkpt lat="42.85156" lon="0.51754">
        <ele>1237.702</ele>
        <time>2022-02-27T13:35:31Z</time>
      </trkpt>
      <trkpt lat="42.85156" lon="0.51754">
        <ele>1237.702</ele>
        <time>2022-02-27T13:35:33Z</time>
      </trkpt>
      <trkpt lat="42.85156" lon="0.51754">
        <ele>1237.701</ele>
        <time>2022-02-27T13:35:35Z</time>
      </trkpt>
      <trkpt lat="42.85156" lon="0.51754">
        <ele>1237.702</ele>
        <time>2022-02-27T13:35:37Z</time>
      </trkpt>
      <trkpt lat="42.85156" lon="0.51754">
        <ele>1237.703</ele>
        <time>2022-02-27T13:35:39Z</time>
      </trkpt>
      <trkpt lat="42.85156" lon="0.51754">
        <ele>1237.703</ele>
        <time>2022-02-27T13:35:41Z</time>
      </trkpt>
      <trkpt lat="42.85156" lon="0.51754">
        <ele>1237.703</ele>
        <time>2022-02-27T13:35:43Z</time>
      </trkpt>
      <trkpt lat="42.85156" lon="0.51754">
        <ele>1237.704</ele>
        <time>2022-02-27T13:35:45Z</time>
      </trkpt>
      <trkpt lat="42.85156" lon="0.51754">
        <ele>1237.704</ele>
        <time>2022-02-27T13:35:47Z</time>
      </trkpt>
      <trkpt lat="42.85156" lon="0.51754">
        <ele>1237.707</ele>
        <time>2022-02-27T13:35:49Z</time>
      </trkpt>
      <trkpt lat="42.85156" lon="0.51754">
        <ele>1237.709</ele>
        <time>2022-02-27T13:35:51Z</time>
      </trkpt>
      <trkpt lat="42.85156" lon="0.51754">
        <ele>1237.71</ele>
        <time>2022-02-27T13:35:53Z</time>
      </trkpt>
      <trkpt lat="42.85156" lon="0.51754">
        <ele>1237.712</ele>
        <time>2022-02-27T13:35:55Z</time>
      </trkpt>
      <trkpt lat="42.85156" lon="0.51754">
        <ele>1237.717</ele>
        <time>2022-02-27T13:35:57Z</time>
      </trkpt>
      <trkpt lat="42.85156" lon="0.51754">
        <ele>1237.724</ele>
        <time>2022-02-27T13:35:59Z</time>
      </trkpt>
      <trkpt lat="42.85156" lon="0.51754">
        <ele>1237.73</ele>
        <time>2022-02-27T13:36:01Z</time>
      </trkpt>
      <trkpt lat="42.85156" lon="0.51754">
        <ele>1237.734</ele>
        <time>2022-02-27T13:36:03Z</time>
      </trkpt>
      <trkpt lat="42.85156" lon="0.51754">
        <ele>1237.736</ele>
        <time>2022-02-27T13:36:05Z</time>
      </trkpt>
      <trkpt lat="42.85156" lon="0.51754">
        <ele>1237.736</ele>
        <time>2022-02-27T13:36:07Z</time>
      </trkpt>
      <trkpt lat="42.85156" lon="0.51754">
        <ele>1237.738</ele>
        <time>2022-02-27T13:36:09Z</time>
      </trkpt>
      <trkpt lat="42.85156" lon="0.51754">
        <ele>1237.741</ele>
        <time>2022-02-27T13:36:11Z</time>
      </trkpt>
      <trkpt lat="42.85156" lon="0.51754">
        <ele>1237.741</ele>
        <time>2022-02-27T13:36:13Z</time>
      </trkpt>
      <trkpt lat="42.85156" lon="0.51754">
        <ele>1237.737</ele>
        <time>2022-02-27T13:36:15Z</time>
      </trkpt>
      <trkpt lat="42.85156" lon="0.51754">
        <ele>1237.735</ele>
        <time>2022-02-27T13:36:17Z</time>
      </trkpt>
      <trkpt lat="42.85156" lon="0.51754">
        <ele>1237.736</ele>
        <time>2022-02-27T13:36:19Z</time>
      </trkpt>
      <trkpt lat="42.85156" lon="0.51754">
        <ele>1237.739</ele>
        <time>2022-02-27T13:36:21Z</time>
      </trkpt>
      <trkpt lat="42.85156" lon="0.51754">
        <ele>1237.738</ele>
        <time>2022-02-27T13:36:23Z</time>
      </trkpt>
      <trkpt lat="42.85156" lon="0.51754">
        <ele>1237.739</ele>
        <time>2022-02-27T13:36:25Z</time>
      </trkpt>
      <trkpt lat="42.85156" lon="0.51754">
        <ele>1237.739</ele>
        <time>2022-02-27T13:36:27Z</time>
      </trkpt>
      <trkpt lat="42.85156" lon="0.51754">
        <ele>1237.745</ele>
        <time>2022-02-27T13:36:29Z</time>
      </trkpt>
      <trkpt lat="42.85156" lon="0.51754">
        <ele>1237.75</ele>
        <time>2022-02-27T13:36:31Z</time>
      </trkpt>
      <trkpt lat="42.85156" lon="0.51754">
        <ele>1237.755</ele>
        <time>2022-02-27T13:36:33Z</time>
      </trkpt>
      <trkpt lat="42.85156" lon="0.51754">
        <ele>1237.755</ele>
        <time>2022-02-27T13:36:35Z</time>
      </trkpt>
      <trkpt lat="42.85156" lon="0.51754">
        <ele>1237.759</ele>
        <time>2022-02-27T13:36:37Z</time>
      </trkpt>
      <trkpt lat="42.85156" lon="0.51754">
        <ele>1237.758</ele>
        <time>2022-02-27T13:36:39Z</time>
      </trkpt>
      <trkpt lat="42.85156" lon="0.51754">
        <ele>1237.762</ele>
        <time>2022-02-27T13:36:41Z</time>
      </trkpt>
      <trkpt lat="42.85156" lon="0.51754">
        <ele>1237.766</ele>
        <time>2022-02-27T13:36:43Z</time>
      </trkpt>
      <trkpt lat="42.85156" lon="0.51754">
        <ele>1237.767</ele>
        <time>2022-02-27T13:36:45Z</time>
      </trkpt>
      <trkpt lat="42.85156" lon="0.51754">
        <ele>1237.767</ele>
        <time>2022-02-27T13:36:47Z</time>
      </trkpt>
      <trkpt lat="42.85156" lon="0.51754">
        <ele>1237.77</ele>
        <time>2022-02-27T13:36:49Z</time>
      </trkpt>
      <trkpt lat="42.85156" lon="0.51754">
        <ele>1237.771</ele>
        <time>2022-02-27T13:36:51Z</time>
      </trkpt>
      <trkpt lat="42.85156" lon="0.51754">
        <ele>1237.774</ele>
        <time>2022-02-27T13:36:53Z</time>
      </trkpt>
      <trkpt lat="42.85156" lon="0.51754">
        <ele>1237.775</ele>
        <time>2022-02-27T13:36:55Z</time>
      </trkpt>
      <trkpt lat="42.85156" lon="0.51754">
        <ele>1237.779</ele>
        <time>2022-02-27T13:36:57Z</time>
      </trkpt>
      <trkpt lat="42.85156" lon="0.51754">
        <ele>1237.778</ele>
        <time>2022-02-27T13:36:59Z</time>
      </trkpt>
      <trkpt lat="42.85156" lon="0.51754">
        <ele>1237.782</ele>
        <time>2022-02-27T13:37:01Z</time>
      </trkpt>
      <trkpt lat="42.85156" lon="0.51754">
        <ele>1237.788</ele>
        <time>2022-02-27T13:37:03Z</time>
      </trkpt>
      <trkpt lat="42.85156" lon="0.51754">
        <ele>1237.785</ele>
        <time>2022-02-27T13:37:05Z</time>
      </trkpt>
      <trkpt lat="42.85156" lon="0.51754">
        <ele>1237.784</ele>
        <time>2022-02-27T13:37:07Z</time>
      </trkpt>
      <trkpt lat="42.85156" lon="0.51754">
        <ele>1237.782</ele>
        <time>2022-02-27T13:37:09Z</time>
      </trkpt>
      <trkpt lat="42.85156" lon="0.51754">
        <ele>1237.781</ele>
        <time>2022-02-27T13:37:11Z</time>
      </trkpt>
      <trkpt lat="42.85156" lon="0.51754">
        <ele>1237.778</ele>
        <time>2022-02-27T13:37:13Z</time>
      </trkpt>
      <trkpt lat="42.85156" lon="0.51754">
        <ele>1237.773</ele>
        <time>2022-02-27T13:37:15Z</time>
      </trkpt>
      <trkpt lat="42.85156" lon="0.51754">
        <ele>1237.776</ele>
        <time>2022-02-27T13:37:17Z</time>
      </trkpt>
      <trkpt lat="42.85156" lon="0.51754">
        <ele>1237.777</ele>
        <time>2022-02-27T13:37:19Z</time>
      </trkpt>
      <trkpt lat="42.85156" lon="0.51754">
        <ele>1237.781</ele>
        <time>2022-02-27T13:37:21Z</time>
      </trkpt>
      <trkpt lat="42.85156" lon="0.51754">
        <ele>1237.783</ele>
        <time>2022-02-27T13:37:23Z</time>
      </trkpt>
      <trkpt lat="42.85156" lon="0.51754">
        <ele>1237.783</ele>
        <time>2022-02-27T13:37:25Z</time>
      </trkpt>
      <trkpt lat="42.85156" lon="0.51754">
        <ele>1237.785</ele>
        <time>2022-02-27T13:37:27Z</time>
      </trkpt>
      <trkpt lat="42.85156" lon="0.51754">
        <ele>1237.786</ele>
        <time>2022-02-27T13:37:29Z</time>
      </trkpt>
      <trkpt lat="42.85156" lon="0.51754">
        <ele>1237.786</ele>
        <time>2022-02-27T13:37:31Z</time>
      </trkpt>
      <trkpt lat="42.85156" lon="0.51754">
        <ele>1237.784</ele>
        <time>2022-02-27T13:37:33Z</time>
      </trkpt>
      <trkpt lat="42.85156" lon="0.51754">
        <ele>1237.782</ele>
        <time>2022-02-27T13:37:35Z</time>
      </trkpt>
      <trkpt lat="42.85156" lon="0.51754">
        <ele>1237.782</ele>
        <time>2022-02-27T13:37:37Z</time>
      </trkpt>
      <trkpt lat="42.85156" lon="0.51754">
        <ele>1237.785</ele>
        <time>2022-02-27T13:37:39Z</time>
      </trkpt>
      <trkpt lat="42.85156" lon="0.51754">
        <ele>1237.786</ele>
        <time>2022-02-27T13:37:41Z</time>
      </trkpt>
      <trkpt lat="42.85156" lon="0.51754">
        <ele>1237.786</ele>
        <time>2022-02-27T13:37:43Z</time>
      </trkpt>
      <trkpt lat="42.85156" lon="0.51754">
        <ele>1237.783</ele>
        <time>2022-02-27T13:37:45Z</time>
      </trkpt>
      <trkpt lat="42.85156" lon="0.51754">
        <ele>1237.78</ele>
        <time>2022-02-27T13:37:47Z</time>
      </trkpt>
      <trkpt lat="42.85156" lon="0.51754">
        <ele>1237.781</ele>
        <time>2022-02-27T13:37:49Z</time>
      </trkpt>
      <trkpt lat="42.85156" lon="0.51754">
        <ele>1237.78</ele>
        <time>2022-02-27T13:37:51Z</time>
      </trkpt>
      <trkpt lat="42.85156" lon="0.51754">
        <ele>1237.779</ele>
        <time>2022-02-27T13:37:53Z</time>
      </trkpt>
      <trkpt lat="42.85156" lon="0.51754">
        <ele>1237.782</ele>
        <time>2022-02-27T13:37:55Z</time>
      </trkpt>
      <trkpt lat="42.85156" lon="0.51754">
        <ele>1237.784</ele>
        <time>2022-02-27T13:37:57Z</time>
      </trkpt>
      <trkpt lat="42.85156" lon="0.51754">
        <ele>1237.778</ele>
        <time>2022-02-27T13:37:59Z</time>
      </trkpt>
      <trkpt lat="42.85156" lon="0.51754">
        <ele>1237.781</ele>
        <time>2022-02-27T13:38:01Z</time>
      </trkpt>
      <trkpt lat="42.85156" lon="0.51754">
        <ele>1237.78</ele>
        <time>2022-02-27T13:38:03Z</time>
      </trkpt>
      <trkpt lat="42.85156" lon="0.51754">
        <ele>1237.78</ele>
        <time>2022-02-27T13:38:05Z</time>
      </trkpt>
      <trkpt lat="42.85156" lon="0.51754">
        <ele>1237.776</ele>
        <time>2022-02-27T13:38:07Z</time>
      </trkpt>
      <trkpt lat="42.85156" lon="0.51754">
        <ele>1237.774</ele>
        <time>2022-02-27T13:38:09Z</time>
      </trkpt>
      <trkpt lat="42.85156" lon="0.51754">
        <ele>1237.771</ele>
        <time>2022-02-27T13:38:11Z</time>
      </trkpt>
      <trkpt lat="42.85156" lon="0.51754">
        <ele>1237.769</ele>
        <time>2022-02-27T13:38:13Z</time>
      </trkpt>
      <trkpt lat="42.85156" lon="0.51754">
        <ele>1237.768</ele>
        <time>2022-02-27T13:38:15Z</time>
      </trkpt>
      <trkpt lat="42.85156" lon="0.51754">
        <ele>1237.767</ele>
        <time>2022-02-27T13:38:17Z</time>
      </trkpt>
      <trkpt lat="42.85156" lon="0.51754">
        <ele>1237.773</ele>
        <time>2022-02-27T13:38:19Z</time>
      </trkpt>
      <trkpt lat="42.85156" lon="0.51754">
        <ele>1237.772</ele>
        <time>2022-02-27T13:38:21Z</time>
      </trkpt>
      <trkpt lat="42.85156" lon="0.51754">
        <ele>1237.775</ele>
        <time>2022-02-27T13:38:23Z</time>
      </trkpt>
      <trkpt lat="42.85156" lon="0.51754">
        <ele>1237.776</ele>
        <time>2022-02-27T13:38:25Z</time>
      </trkpt>
      <trkpt lat="42.85156" lon="0.51754">
        <ele>1237.776</ele>
        <time>2022-02-27T13:38:27Z</time>
      </trkpt>
      <trkpt lat="42.85156" lon="0.51754">
        <ele>1237.776</ele>
        <time>2022-02-27T13:38:29Z</time>
      </trkpt>
      <trkpt lat="42.85156" lon="0.51754">
        <ele>1237.775</ele>
        <time>2022-02-27T13:38:31Z</time>
      </trkpt>
      <trkpt lat="42.85156" lon="0.51754">
        <ele>1237.775</ele>
        <time>2022-02-27T13:38:33Z</time>
      </trkpt>
      <trkpt lat="42.85156" lon="0.51754">
        <ele>1237.774</ele>
        <time>2022-02-27T13:38:35Z</time>
      </trkpt>
      <trkpt lat="42.85156" lon="0.51754">
        <ele>1237.777</ele>
        <time>2022-02-27T13:38:37Z</time>
      </trkpt>
      <trkpt lat="42.85156" lon="0.51754">
        <ele>1237.777</ele>
        <time>2022-02-27T13:38:39Z</time>
      </trkpt>
      <trkpt lat="42.85156" lon="0.51754">
        <ele>1237.779</ele>
        <time>2022-02-27T13:38:41Z</time>
      </trkpt>
      <trkpt lat="42.85156" lon="0.51754">
        <ele>1237.779</ele>
        <time>2022-02-27T13:38:43Z</time>
      </trkpt>
      <trkpt lat="42.85156" lon="0.51754">
        <ele>1237.781</ele>
        <time>2022-02-27T13:38:45Z</time>
      </trkpt>
      <trkpt lat="42.85156" lon="0.51754">
        <ele>1237.783</ele>
        <time>2022-02-27T13:38:47Z</time>
      </trkpt>
      <trkpt lat="42.85156" lon="0.51754">
        <ele>1237.785</ele>
        <time>2022-02-27T13:38:49Z</time>
      </trkpt>
      <trkpt lat="42.85156" lon="0.51754">
        <ele>1237.786</ele>
        <time>2022-02-27T13:38:51Z</time>
      </trkpt>
      <trkpt lat="42.85156" lon="0.51754">
        <ele>1237.786</ele>
        <time>2022-02-27T13:38:53Z</time>
      </trkpt>
      <trkpt lat="42.85156" lon="0.51754">
        <ele>1237.787</ele>
        <time>2022-02-27T13:38:55Z</time>
      </trkpt>
      <trkpt lat="42.85156" lon="0.51754">
        <ele>1237.789</ele>
        <time>2022-02-27T13:38:57Z</time>
      </trkpt>
      <trkpt lat="42.85156" lon="0.51754">
        <ele>1237.791</ele>
        <time>2022-02-27T13:38:59Z</time>
      </trkpt>
      <trkpt lat="42.85156" lon="0.51754">
        <ele>1237.791</ele>
        <time>2022-02-27T13:39:01Z</time>
      </trkpt>
      <trkpt lat="42.85156" lon="0.51754">
        <ele>1237.793</ele>
        <time>2022-02-27T13:39:03Z</time>
      </trkpt>
      <trkpt lat="42.85156" lon="0.51754">
        <ele>1237.794</ele>
        <time>2022-02-27T13:39:05Z</time>
      </trkpt>
      <trkpt lat="42.85156" lon="0.51754">
        <ele>1237.795</ele>
        <time>2022-02-27T13:39:07Z</time>
      </trkpt>
      <trkpt lat="42.85156" lon="0.51754">
        <ele>1237.795</ele>
        <time>2022-02-27T13:39:09Z</time>
      </trkpt>
      <trkpt lat="42.85156" lon="0.51754">
        <ele>1237.796</ele>
        <time>2022-02-27T13:39:11Z</time>
      </trkpt>
      <trkpt lat="42.85156" lon="0.51754">
        <ele>1237.798</ele>
        <time>2022-02-27T13:39:13Z</time>
      </trkpt>
      <trkpt lat="42.85156" lon="0.51754">
        <ele>1237.797</ele>
        <time>2022-02-27T13:39:15Z</time>
      </trkpt>
      <trkpt lat="42.85156" lon="0.51754">
        <ele>1237.798</ele>
        <time>2022-02-27T13:39:17Z</time>
      </trkpt>
      <trkpt lat="42.85156" lon="0.51754">
        <ele>1237.799</ele>
        <time>2022-02-27T13:39:19Z</time>
      </trkpt>
      <trkpt lat="42.85156" lon="0.51754">
        <ele>1237.799</ele>
        <time>2022-02-27T13:39:21Z</time>
      </trkpt>
      <trkpt lat="42.85156" lon="0.51754">
        <ele>1237.797</ele>
        <time>2022-02-27T13:39:23Z</time>
      </trkpt>
      <trkpt lat="42.85156" lon="0.51754">
        <ele>1237.796</ele>
        <time>2022-02-27T13:39:25Z</time>
      </trkpt>
      <trkpt lat="42.85156" lon="0.51754">
        <ele>1237.796</ele>
        <time>2022-02-27T13:39:27Z</time>
      </trkpt>
      <trkpt lat="42.85156" lon="0.51754">
        <ele>1237.795</ele>
        <time>2022-02-27T13:39:29Z</time>
      </trkpt>
      <trkpt lat="42.85156" lon="0.51754">
        <ele>1237.795</ele>
        <time>2022-02-27T13:39:31Z</time>
      </trkpt>
      <trkpt lat="42.85156" lon="0.51754">
        <ele>1237.794</ele>
        <time>2022-02-27T13:39:33Z</time>
      </trkpt>
      <trkpt lat="42.85156" lon="0.51754">
        <ele>1237.79</ele>
        <time>2022-02-27T13:39:35Z</time>
      </trkpt>
      <trkpt lat="42.85156" lon="0.51754">
        <ele>1237.788</ele>
        <time>2022-02-27T13:39:37Z</time>
      </trkpt>
      <trkpt lat="42.85156" lon="0.51754">
        <ele>1237.791</ele>
        <time>2022-02-27T13:39:39Z</time>
      </trkpt>
      <trkpt lat="42.85156" lon="0.51754">
        <ele>1237.795</ele>
        <time>2022-02-27T13:39:41Z</time>
      </trkpt>
      <trkpt lat="42.85156" lon="0.51754">
        <ele>1237.796</ele>
        <time>2022-02-27T13:39:43Z</time>
      </trkpt>
      <trkpt lat="42.85156" lon="0.51754">
        <ele>1237.796</ele>
        <time>2022-02-27T13:39:45Z</time>
      </trkpt>
      <trkpt lat="42.85156" lon="0.51754">
        <ele>1237.796</ele>
        <time>2022-02-27T13:39:47Z</time>
      </trkpt>
      <trkpt lat="42.85156" lon="0.51754">
        <ele>1237.79</ele>
        <time>2022-02-27T13:39:49Z</time>
      </trkpt>
      <trkpt lat="42.85156" lon="0.51754">
        <ele>1237.788</ele>
        <time>2022-02-27T13:39:51Z</time>
      </trkpt>
      <trkpt lat="42.85156" lon="0.51754">
        <ele>1237.792</ele>
        <time>2022-02-27T13:39:53Z</time>
      </trkpt>
      <trkpt lat="42.85156" lon="0.51754">
        <ele>1237.791</ele>
        <time>2022-02-27T13:39:55Z</time>
      </trkpt>
      <trkpt lat="42.85156" lon="0.51754">
        <ele>1237.789</ele>
        <time>2022-02-27T13:39:57Z</time>
      </trkpt>
      <trkpt lat="42.85156" lon="0.51754">
        <ele>1237.787</ele>
        <time>2022-02-27T13:39:59Z</time>
      </trkpt>
      <trkpt lat="42.85156" lon="0.51754">
        <ele>1237.604</ele>
        <time>2022-02-27T13:40:01Z</time>
      </trkpt>
      <trkpt lat="42.85156" lon="0.51754">
        <ele>1237.616</ele>
        <time>2022-02-27T13:40:03Z</time>
      </trkpt>
      <trkpt lat="42.85156" lon="0.51754">
        <ele>1237.617</ele>
        <time>2022-02-27T13:40:05Z</time>
      </trkpt>
      <trkpt lat="42.85156" lon="0.51754">
        <ele>1237.619</ele>
        <time>2022-02-27T13:40:07Z</time>
      </trkpt>
      <trkpt lat="42.85156" lon="0.51754">
        <ele>1237.617</ele>
        <time>2022-02-27T13:40:09Z</time>
      </trkpt>
      <trkpt lat="42.85156" lon="0.51754">
        <ele>1237.614</ele>
        <time>2022-02-27T13:40:11Z</time>
      </trkpt>
      <trkpt lat="42.85156" lon="0.51754">
        <ele>1237.615</ele>
        <time>2022-02-27T13:40:13Z</time>
      </trkpt>
      <trkpt lat="42.85156" lon="0.51754">
        <ele>1237.613</ele>
        <time>2022-02-27T13:40:15Z</time>
      </trkpt>
      <trkpt lat="42.85156" lon="0.51754">
        <ele>1237.609</ele>
        <time>2022-02-27T13:40:17Z</time>
      </trkpt>
      <trkpt lat="42.85156" lon="0.51754">
        <ele>1237.613</ele>
        <time>2022-02-27T13:40:19Z</time>
      </trkpt>
      <trkpt lat="42.85156" lon="0.51754">
        <ele>1237.615</ele>
        <time>2022-02-27T13:40:21Z</time>
      </trkpt>
      <trkpt lat="42.85156" lon="0.51754">
        <ele>1237.626</ele>
        <time>2022-02-27T13:40:23Z</time>
      </trkpt>
      <trkpt lat="42.85156" lon="0.51754">
        <ele>1237.628</ele>
        <time>2022-02-27T13:40:25Z</time>
      </trkpt>
      <trkpt lat="42.85156" lon="0.51754">
        <ele>1237.629</ele>
        <time>2022-02-27T13:40:27Z</time>
      </trkpt>
      <trkpt lat="42.85156" lon="0.51754">
        <ele>1237.639</ele>
        <time>2022-02-27T13:40:29Z</time>
      </trkpt>
      <trkpt lat="42.85156" lon="0.51754">
        <ele>1237.651</ele>
        <time>2022-02-27T13:40:31Z</time>
      </trkpt>
      <trkpt lat="42.85156" lon="0.51754">
        <ele>1237.656</ele>
        <time>2022-02-27T13:40:33Z</time>
      </trkpt>
      <trkpt lat="42.85156" lon="0.51754">
        <ele>1237.308</ele>
        <time>2022-02-27T13:40:35Z</time>
      </trkpt>
      <trkpt lat="42.85157" lon="0.51755">
        <ele>1236.591</ele>
        <time>2022-02-27T13:40:37Z</time>
      </trkpt>
      <trkpt lat="42.85157" lon="0.51755">
        <ele>1236.637</ele>
        <time>2022-02-27T13:40:39Z</time>
      </trkpt>
      <trkpt lat="42.85156" lon="0.51754">
        <ele>1236.653</ele>
        <time>2022-02-27T13:40:41Z</time>
      </trkpt>
      <trkpt lat="42.85156" lon="0.51754">
        <ele>1236.66</ele>
        <time>2022-02-27T13:40:43Z</time>
      </trkpt>
      <trkpt lat="42.85156" lon="0.51754">
        <ele>1236.665</ele>
        <time>2022-02-27T13:40:45Z</time>
      </trkpt>
      <trkpt lat="42.85156" lon="0.51754">
        <ele>1236.67</ele>
        <time>2022-02-27T13:40:47Z</time>
      </trkpt>
      <trkpt lat="42.85156" lon="0.51754">
        <ele>1236.445</ele>
        <time>2022-02-27T13:40:49Z</time>
      </trkpt>
      <trkpt lat="42.85156" lon="0.51754">
        <ele>1236.397</ele>
        <time>2022-02-27T13:40:51Z</time>
      </trkpt>
      <trkpt lat="42.85156" lon="0.51754">
        <ele>1236.415</ele>
        <time>2022-02-27T13:40:53Z</time>
      </trkpt>
      <trkpt lat="42.85156" lon="0.51754">
        <ele>1236.41</ele>
        <time>2022-02-27T13:40:55Z</time>
      </trkpt>
      <trkpt lat="42.85156" lon="0.51754">
        <ele>1236.407</ele>
        <time>2022-02-27T13:40:57Z</time>
      </trkpt>
      <trkpt lat="42.85156" lon="0.51754">
        <ele>1236.406</ele>
        <time>2022-02-27T13:40:59Z</time>
      </trkpt>
      <trkpt lat="42.85156" lon="0.51754">
        <ele>1236.433</ele>
        <time>2022-02-27T13:41:01Z</time>
      </trkpt>
      <trkpt lat="42.85156" lon="0.51754">
        <ele>1236.413</ele>
        <time>2022-02-27T13:41:03Z</time>
      </trkpt>
      <trkpt lat="42.85156" lon="0.51754">
        <ele>1235.046</ele>
        <time>2022-02-27T13:41:05Z</time>
      </trkpt>
      <trkpt lat="42.85155" lon="0.51754">
        <ele>1234.589</ele>
        <time>2022-02-27T13:41:07Z</time>
      </trkpt>
      <trkpt lat="42.85155" lon="0.51754">
        <ele>1234.607</ele>
        <time>2022-02-27T13:41:09Z</time>
      </trkpt>
      <trkpt lat="42.85155" lon="0.51754">
        <ele>1234.614</ele>
        <time>2022-02-27T13:41:11Z</time>
      </trkpt>
      <trkpt lat="42.85155" lon="0.51754">
        <ele>1234.616</ele>
        <time>2022-02-27T13:41:13Z</time>
      </trkpt>
      <trkpt lat="42.85155" lon="0.51754">
        <ele>1234.614</ele>
        <time>2022-02-27T13:41:15Z</time>
      </trkpt>
      <trkpt lat="42.85155" lon="0.51754">
        <ele>1234.616</ele>
        <time>2022-02-27T13:41:17Z</time>
      </trkpt>
      <trkpt lat="42.85155" lon="0.51754">
        <ele>1234.313</ele>
        <time>2022-02-27T13:41:19Z</time>
      </trkpt>
      <trkpt lat="42.85155" lon="0.51754">
        <ele>1234.769</ele>
        <time>2022-02-27T13:41:21Z</time>
      </trkpt>
      <trkpt lat="42.85155" lon="0.51754">
        <ele>1234.488</ele>
        <time>2022-02-27T13:41:23Z</time>
      </trkpt>
      <trkpt lat="42.85156" lon="0.51754">
        <ele>1234.963</ele>
        <time>2022-02-27T13:41:25Z</time>
      </trkpt>
      <trkpt lat="42.85157" lon="0.51752">
        <ele>1235.539</ele>
        <time>2022-02-27T13:41:27Z</time>
      </trkpt>
      <trkpt lat="42.85158" lon="0.5175">
        <ele>1235.512</ele>
        <time>2022-02-27T13:41:29Z</time>
      </trkpt>
      <trkpt lat="42.85159" lon="0.51748">
        <ele>1234.853</ele>
        <time>2022-02-27T13:41:31Z</time>
      </trkpt>
      <trkpt lat="42.85159" lon="0.51745">
        <ele>1234.777</ele>
        <time>2022-02-27T13:41:33Z</time>
      </trkpt>
      <trkpt lat="42.8516" lon="0.51743">
        <ele>1234.878</ele>
        <time>2022-02-27T13:41:35Z</time>
      </trkpt>
      <trkpt lat="42.85161" lon="0.51742">
        <ele>1234.672</ele>
        <time>2022-02-27T13:41:37Z</time>
      </trkpt>
      <trkpt lat="42.85163" lon="0.51741">
        <ele>1235.093</ele>
        <time>2022-02-27T13:41:39Z</time>
      </trkpt>
      <trkpt lat="42.85165" lon="0.51742">
        <ele>1236.63</ele>
        <time>2022-02-27T13:41:41Z</time>
      </trkpt>
      <trkpt lat="42.85166" lon="0.51745">
        <ele>1236.233</ele>
        <time>2022-02-27T13:41:43Z</time>
      </trkpt>
      <trkpt lat="42.85167" lon="0.51747">
        <ele>1236.376</ele>
        <time>2022-02-27T13:41:45Z</time>
      </trkpt>
      <trkpt lat="42.85168" lon="0.51748">
        <ele>1235.617</ele>
        <time>2022-02-27T13:41:47Z</time>
      </trkpt>
      <trkpt lat="42.8517" lon="0.51751">
        <ele>1235.668</ele>
        <time>2022-02-27T13:41:49Z</time>
      </trkpt>
      <trkpt lat="42.85171" lon="0.51752">
        <ele>1236.044</ele>
        <time>2022-02-27T13:41:51Z</time>
      </trkpt>
      <trkpt lat="42.85172" lon="0.51754">
        <ele>1236.414</ele>
        <time>2022-02-27T13:41:53Z</time>
      </trkpt>
      <trkpt lat="42.85173" lon="0.51756">
        <ele>1236.432</ele>
        <time>2022-02-27T13:41:55Z</time>
      </trkpt>
      <trkpt lat="42.85173" lon="0.51758">
        <ele>1235.657</ele>
        <time>2022-02-27T13:41:57Z</time>
      </trkpt>
      <trkpt lat="42.85174" lon="0.5176">
        <ele>1235.174</ele>
        <time>2022-02-27T13:41:59Z</time>
      </trkpt>
      <trkpt lat="42.85174" lon="0.51762">
        <ele>1234.541</ele>
        <time>2022-02-27T13:42:01Z</time>
      </trkpt>
      <trkpt lat="42.85174" lon="0.51764">
        <ele>1234.087</ele>
        <time>2022-02-27T13:42:03Z</time>
      </trkpt>
      <trkpt lat="42.85175" lon="0.51765">
        <ele>1233.824</ele>
        <time>2022-02-27T13:42:05Z</time>
      </trkpt>
      <trkpt lat="42.85175" lon="0.51767">
        <ele>1234.91</ele>
        <time>2022-02-27T13:42:07Z</time>
      </trkpt>
      <trkpt lat="42.85175" lon="0.51767">
        <ele>1235.034</ele>
        <time>2022-02-27T13:42:09Z</time>
      </trkpt>
      <trkpt lat="42.85175" lon="0.51767">
        <ele>1235.042</ele>
        <time>2022-02-27T13:42:11Z</time>
      </trkpt>
      <trkpt lat="42.85175" lon="0.5177">
        <ele>1236.006</ele>
        <time>2022-02-27T13:42:13Z</time>
      </trkpt>
      <trkpt lat="42.85176" lon="0.51772">
        <ele>1236.298</ele>
        <time>2022-02-27T13:42:15Z</time>
      </trkpt>
      <trkpt lat="42.85177" lon="0.51774">
        <ele>1236.578</ele>
        <time>2022-02-27T13:42:17Z</time>
      </trkpt>
      <trkpt lat="42.85177" lon="0.51776">
        <ele>1236.161</ele>
        <time>2022-02-27T13:42:19Z</time>
      </trkpt>
      <trkpt lat="42.85178" lon="0.51778">
        <ele>1236.429</ele>
        <time>2022-02-27T13:42:21Z</time>
      </trkpt>
      <trkpt lat="42.8518" lon="0.51779">
        <ele>1236.214</ele>
        <time>2022-02-27T13:42:23Z</time>
      </trkpt>
      <trkpt lat="42.8518" lon="0.51781">
        <ele>1236.413</ele>
        <time>2022-02-27T13:42:25Z</time>
      </trkpt>
      <trkpt lat="42.85181" lon="0.51783">
        <ele>1236.985</ele>
        <time>2022-02-27T13:42:27Z</time>
      </trkpt>
      <trkpt lat="42.85182" lon="0.51785">
        <ele>1237.215</ele>
        <time>2022-02-27T13:42:29Z</time>
      </trkpt>
      <trkpt lat="42.85183" lon="0.51787">
        <ele>1238.237</ele>
        <time>2022-02-27T13:42:31Z</time>
      </trkpt>
      <trkpt lat="42.85185" lon="0.51789">
        <ele>1238.787</ele>
        <time>2022-02-27T13:42:33Z</time>
      </trkpt>
      <trkpt lat="42.85186" lon="0.51792">
        <ele>1239.498</ele>
        <time>2022-02-27T13:42:35Z</time>
      </trkpt>
      <trkpt lat="42.85188" lon="0.51794">
        <ele>1240.094</ele>
        <time>2022-02-27T13:42:37Z</time>
      </trkpt>
      <trkpt lat="42.85189" lon="0.51795">
        <ele>1239.491</ele>
        <time>2022-02-27T13:42:39Z</time>
      </trkpt>
      <trkpt lat="42.85191" lon="0.51797">
        <ele>1239.409</ele>
        <time>2022-02-27T13:42:41Z</time>
      </trkpt>
      <trkpt lat="42.85193" lon="0.51798">
        <ele>1239.37</ele>
        <time>2022-02-27T13:42:43Z</time>
      </trkpt>
      <trkpt lat="42.85195" lon="0.51799">
        <ele>1240.218</ele>
        <time>2022-02-27T13:42:45Z</time>
      </trkpt>
      <trkpt lat="42.85197" lon="0.51801">
        <ele>1240.898</ele>
        <time>2022-02-27T13:42:47Z</time>
      </trkpt>
      <trkpt lat="42.85198" lon="0.51802">
        <ele>1241.171</ele>
        <time>2022-02-27T13:42:49Z</time>
      </trkpt>
      <trkpt lat="42.852" lon="0.51804">
        <ele>1242.131</ele>
        <time>2022-02-27T13:42:51Z</time>
      </trkpt>
      <trkpt lat="42.85202" lon="0.51805">
        <ele>1242.389</ele>
        <time>2022-02-27T13:42:53Z</time>
      </trkpt>
      <trkpt lat="42.85203" lon="0.51807">
        <ele>1242.95</ele>
        <time>2022-02-27T13:42:55Z</time>
      </trkpt>
      <trkpt lat="42.85205" lon="0.51808">
        <ele>1243.183</ele>
        <time>2022-02-27T13:42:57Z</time>
      </trkpt>
      <trkpt lat="42.85207" lon="0.5181">
        <ele>1243.457</ele>
        <time>2022-02-27T13:42:59Z</time>
      </trkpt>
      <trkpt lat="42.85208" lon="0.51812">
        <ele>1244.23</ele>
        <time>2022-02-27T13:43:01Z</time>
      </trkpt>
      <trkpt lat="42.8521" lon="0.51813">
        <ele>1244.635</ele>
        <time>2022-02-27T13:43:03Z</time>
      </trkpt>
      <trkpt lat="42.85211" lon="0.51814">
        <ele>1244.117</ele>
        <time>2022-02-27T13:43:05Z</time>
      </trkpt>
      <trkpt lat="42.85211" lon="0.51816">
        <ele>1245.429</ele>
        <time>2022-02-27T13:43:07Z</time>
      </trkpt>
      <trkpt lat="42.85212" lon="0.51818">
        <ele>1246.232</ele>
        <time>2022-02-27T13:43:09Z</time>
      </trkpt>
      <trkpt lat="42.85214" lon="0.51819">
        <ele>1246.157</ele>
        <time>2022-02-27T13:43:11Z</time>
      </trkpt>
      <trkpt lat="42.85216" lon="0.5182">
        <ele>1246.271</ele>
        <time>2022-02-27T13:43:13Z</time>
      </trkpt>
      <trkpt lat="42.85218" lon="0.51821">
        <ele>1245.997</ele>
        <time>2022-02-27T13:43:15Z</time>
      </trkpt>
      <trkpt lat="42.85219" lon="0.51822">
        <ele>1245.886</ele>
        <time>2022-02-27T13:43:17Z</time>
      </trkpt>
      <trkpt lat="42.8522" lon="0.51824">
        <ele>1246.441</ele>
        <time>2022-02-27T13:43:19Z</time>
      </trkpt>
      <trkpt lat="42.85222" lon="0.51825">
        <ele>1247.127</ele>
        <time>2022-02-27T13:43:21Z</time>
      </trkpt>
      <trkpt lat="42.85223" lon="0.51827">
        <ele>1247.739</ele>
        <time>2022-02-27T13:43:23Z</time>
      </trkpt>
      <trkpt lat="42.85225" lon="0.51829">
        <ele>1248.151</ele>
        <time>2022-02-27T13:43:25Z</time>
      </trkpt>
      <trkpt lat="42.85227" lon="0.51831">
        <ele>1247.968</ele>
        <time>2022-02-27T13:43:27Z</time>
      </trkpt>
      <trkpt lat="42.85228" lon="0.51833">
        <ele>1248.247</ele>
        <time>2022-02-27T13:43:29Z</time>
      </trkpt>
      <trkpt lat="42.8523" lon="0.51835">
        <ele>1248.553</ele>
        <time>2022-02-27T13:43:31Z</time>
      </trkpt>
      <trkpt lat="42.85232" lon="0.51837">
        <ele>1248.834</ele>
        <time>2022-02-27T13:43:33Z</time>
      </trkpt>
      <trkpt lat="42.85233" lon="0.51838">
        <ele>1248.38</ele>
        <time>2022-02-27T13:43:35Z</time>
      </trkpt>
      <trkpt lat="42.85234" lon="0.51838">
        <ele>1248.678</ele>
        <time>2022-02-27T13:43:37Z</time>
      </trkpt>
      <trkpt lat="42.85235" lon="0.51838">
        <ele>1248.36</ele>
        <time>2022-02-27T13:43:39Z</time>
      </trkpt>
      <trkpt lat="42.85236" lon="0.51839">
        <ele>1248.177</ele>
        <time>2022-02-27T13:43:41Z</time>
      </trkpt>
      <trkpt lat="42.85238" lon="0.5184">
        <ele>1247.444</ele>
        <time>2022-02-27T13:43:43Z</time>
      </trkpt>
      <trkpt lat="42.8524" lon="0.51843">
        <ele>1248.402</ele>
        <time>2022-02-27T13:43:45Z</time>
      </trkpt>
      <trkpt lat="42.85241" lon="0.51845">
        <ele>1248.477</ele>
        <time>2022-02-27T13:43:47Z</time>
      </trkpt>
      <trkpt lat="42.85243" lon="0.51848">
        <ele>1248.866</ele>
        <time>2022-02-27T13:43:49Z</time>
      </trkpt>
      <trkpt lat="42.85244" lon="0.5185">
        <ele>1249.897</ele>
        <time>2022-02-27T13:43:51Z</time>
      </trkpt>
      <trkpt lat="42.85246" lon="0.51852">
        <ele>1249.703</ele>
        <time>2022-02-27T13:43:53Z</time>
      </trkpt>
      <trkpt lat="42.85247" lon="0.51854">
        <ele>1249.59</ele>
        <time>2022-02-27T13:43:55Z</time>
      </trkpt>
      <trkpt lat="42.85249" lon="0.51855">
        <ele>1249.809</ele>
        <time>2022-02-27T13:43:57Z</time>
      </trkpt>
      <trkpt lat="42.8525" lon="0.51855">
        <ele>1249.263</ele>
        <time>2022-02-27T13:43:59Z</time>
      </trkpt>
      <trkpt lat="42.85249" lon="0.51855">
        <ele>1249.254</ele>
        <time>2022-02-27T13:44:01Z</time>
      </trkpt>
      <trkpt lat="42.8525" lon="0.51856">
        <ele>1249.649</ele>
        <time>2022-02-27T13:44:03Z</time>
      </trkpt>
      <trkpt lat="42.85252" lon="0.51857">
        <ele>1249.692</ele>
        <time>2022-02-27T13:44:05Z</time>
      </trkpt>
      <trkpt lat="42.85253" lon="0.51859">
        <ele>1249.02</ele>
        <time>2022-02-27T13:44:07Z</time>
      </trkpt>
      <trkpt lat="42.85254" lon="0.51861">
        <ele>1249.536</ele>
        <time>2022-02-27T13:44:09Z</time>
      </trkpt>
      <trkpt lat="42.85255" lon="0.51863">
        <ele>1249.84</ele>
        <time>2022-02-27T13:44:11Z</time>
      </trkpt>
      <trkpt lat="42.85255" lon="0.51864">
        <ele>1249.922</ele>
        <time>2022-02-27T13:44:13Z</time>
      </trkpt>
      <trkpt lat="42.85254" lon="0.51866">
        <ele>1249.816</ele>
        <time>2022-02-27T13:44:15Z</time>
      </trkpt>
      <trkpt lat="42.85254" lon="0.51868">
        <ele>1250.494</ele>
        <time>2022-02-27T13:44:17Z</time>
      </trkpt>
      <trkpt lat="42.85254" lon="0.51871">
        <ele>1250.753</ele>
        <time>2022-02-27T13:44:19Z</time>
      </trkpt>
      <trkpt lat="42.85254" lon="0.51873">
        <ele>1250.125</ele>
        <time>2022-02-27T13:44:21Z</time>
      </trkpt>
      <trkpt lat="42.85252" lon="0.51875">
        <ele>1249.166</ele>
        <time>2022-02-27T13:44:23Z</time>
      </trkpt>
      <trkpt lat="42.85251" lon="0.51876">
        <ele>1248.762</ele>
        <time>2022-02-27T13:44:25Z</time>
      </trkpt>
      <trkpt lat="42.85251" lon="0.51878">
        <ele>1250.152</ele>
        <time>2022-02-27T13:44:27Z</time>
      </trkpt>
      <trkpt lat="42.85247" lon="0.51878">
        <ele>1250.421</ele>
        <time>2022-02-27T13:44:29Z</time>
      </trkpt>
      <trkpt lat="42.85246" lon="0.51875">
        <ele>1250.575</ele>
        <time>2022-02-27T13:44:31Z</time>
      </trkpt>
      <trkpt lat="42.85245" lon="0.51874">
        <ele>1250.591</ele>
        <time>2022-02-27T13:44:33Z</time>
      </trkpt>
      <trkpt lat="42.85245" lon="0.51874">
        <ele>1250.599</ele>
        <time>2022-02-27T13:44:35Z</time>
      </trkpt>
      <trkpt lat="42.85245" lon="0.51874">
        <ele>1250.595</ele>
        <time>2022-02-27T13:44:37Z</time>
      </trkpt>
      <trkpt lat="42.85245" lon="0.51875">
        <ele>1251.696</ele>
        <time>2022-02-27T13:44:39Z</time>
      </trkpt>
      <trkpt lat="42.85245" lon="0.51877">
        <ele>1252.158</ele>
        <time>2022-02-27T13:44:41Z</time>
      </trkpt>
      <trkpt lat="42.85246" lon="0.5188">
        <ele>1252.234</ele>
        <time>2022-02-27T13:44:43Z</time>
      </trkpt>
      <trkpt lat="42.8525" lon="0.5188">
        <ele>1250.909</ele>
        <time>2022-02-27T13:44:45Z</time>
      </trkpt>
      <trkpt lat="42.85249" lon="0.51883">
        <ele>1251.023</ele>
        <time>2022-02-27T13:44:47Z</time>
      </trkpt>
      <trkpt lat="42.85248" lon="0.51886">
        <ele>1251.088</ele>
        <time>2022-02-27T13:44:49Z</time>
      </trkpt>
      <trkpt lat="42.85246" lon="0.51888">
        <ele>1250.472</ele>
        <time>2022-02-27T13:44:51Z</time>
      </trkpt>
      <trkpt lat="42.85246" lon="0.5189">
        <ele>1250.666</ele>
        <time>2022-02-27T13:44:53Z</time>
      </trkpt>
      <trkpt lat="42.85245" lon="0.51893">
        <ele>1251.412</ele>
        <time>2022-02-27T13:44:55Z</time>
      </trkpt>
      <trkpt lat="42.85243" lon="0.51894">
        <ele>1251.937</ele>
        <time>2022-02-27T13:44:57Z</time>
      </trkpt>
      <trkpt lat="42.8524" lon="0.51894">
        <ele>1252.29</ele>
        <time>2022-02-27T13:44:59Z</time>
      </trkpt>
      <trkpt lat="42.85238" lon="0.51894">
        <ele>1252.454</ele>
        <time>2022-02-27T13:45:01Z</time>
      </trkpt>
      <trkpt lat="42.85236" lon="0.51894">
        <ele>1252.557</ele>
        <time>2022-02-27T13:45:03Z</time>
      </trkpt>
      <trkpt lat="42.85235" lon="0.51893">
        <ele>1253.595</ele>
        <time>2022-02-27T13:45:05Z</time>
      </trkpt>
      <trkpt lat="42.85234" lon="0.51894">
        <ele>1253.653</ele>
        <time>2022-02-27T13:45:07Z</time>
      </trkpt>
      <trkpt lat="42.85232" lon="0.51893">
        <ele>1253.982</ele>
        <time>2022-02-27T13:45:09Z</time>
      </trkpt>
      <trkpt lat="42.8523" lon="0.51893">
        <ele>1253.631</ele>
        <time>2022-02-27T13:45:11Z</time>
      </trkpt>
      <trkpt lat="42.85228" lon="0.51893">
        <ele>1253.635</ele>
        <time>2022-02-27T13:45:13Z</time>
      </trkpt>
      <trkpt lat="42.85226" lon="0.51894">
        <ele>1254.063</ele>
        <time>2022-02-27T13:45:15Z</time>
      </trkpt>
      <trkpt lat="42.85224" lon="0.51894">
        <ele>1254.412</ele>
        <time>2022-02-27T13:45:17Z</time>
      </trkpt>
      <trkpt lat="42.85221" lon="0.51894">
        <ele>1254.715</ele>
        <time>2022-02-27T13:45:19Z</time>
      </trkpt>
      <trkpt lat="42.85219" lon="0.51894">
        <ele>1255.649</ele>
        <time>2022-02-27T13:45:21Z</time>
      </trkpt>
      <trkpt lat="42.85217" lon="0.51895">
        <ele>1255.561</ele>
        <time>2022-02-27T13:45:23Z</time>
      </trkpt>
      <trkpt lat="42.85215" lon="0.51895">
        <ele>1254.797</ele>
        <time>2022-02-27T13:45:25Z</time>
      </trkpt>
      <trkpt lat="42.85213" lon="0.51895">
        <ele>1255.113</ele>
        <time>2022-02-27T13:45:27Z</time>
      </trkpt>
      <trkpt lat="42.85211" lon="0.51896">
        <ele>1255.361</ele>
        <time>2022-02-27T13:45:29Z</time>
      </trkpt>
      <trkpt lat="42.85209" lon="0.51896">
        <ele>1255.509</ele>
        <time>2022-02-27T13:45:31Z</time>
      </trkpt>
      <trkpt lat="42.85207" lon="0.51896">
        <ele>1255.332</ele>
        <time>2022-02-27T13:45:33Z</time>
      </trkpt>
      <trkpt lat="42.85205" lon="0.51895">
        <ele>1254.864</ele>
        <time>2022-02-27T13:45:35Z</time>
      </trkpt>
      <trkpt lat="42.85203" lon="0.51894">
        <ele>1254.864</ele>
        <time>2022-02-27T13:45:37Z</time>
      </trkpt>
      <trkpt lat="42.85203" lon="0.51892">
        <ele>1253.768</ele>
        <time>2022-02-27T13:45:39Z</time>
      </trkpt>
      <trkpt lat="42.85203" lon="0.51892">
        <ele>1253.689</ele>
        <time>2022-02-27T13:45:41Z</time>
      </trkpt>
      <trkpt lat="42.85202" lon="0.51893">
        <ele>1252.485</ele>
        <time>2022-02-27T13:45:43Z</time>
      </trkpt>
      <trkpt lat="42.85202" lon="0.51893">
        <ele>1252.317</ele>
        <time>2022-02-27T13:45:45Z</time>
      </trkpt>
      <trkpt lat="42.85202" lon="0.51893">
        <ele>1252.152</ele>
        <time>2022-02-27T13:45:47Z</time>
      </trkpt>
      <trkpt lat="42.85202" lon="0.51893">
        <ele>1252.126</ele>
        <time>2022-02-27T13:45:49Z</time>
      </trkpt>
      <trkpt lat="42.85203" lon="0.51893">
        <ele>1252.522</ele>
        <time>2022-02-27T13:45:51Z</time>
      </trkpt>
      <trkpt lat="42.85203" lon="0.51893">
        <ele>1252.516</ele>
        <time>2022-02-27T13:45:53Z</time>
      </trkpt>
      <trkpt lat="42.85203" lon="0.51893">
        <ele>1252.518</ele>
        <time>2022-02-27T13:45:55Z</time>
      </trkpt>
      <trkpt lat="42.85203" lon="0.51893">
        <ele>1252.643</ele>
        <time>2022-02-27T13:45:57Z</time>
      </trkpt>
      <trkpt lat="42.85203" lon="0.51893">
        <ele>1252.784</ele>
        <time>2022-02-27T13:45:59Z</time>
      </trkpt>
      <trkpt lat="42.85203" lon="0.51893">
        <ele>1252.775</ele>
        <time>2022-02-27T13:46:01Z</time>
      </trkpt>
      <trkpt lat="42.85203" lon="0.51893">
        <ele>1252.503</ele>
        <time>2022-02-27T13:46:03Z</time>
      </trkpt>
      <trkpt lat="42.85204" lon="0.51893">
        <ele>1252.423</ele>
        <time>2022-02-27T13:46:05Z</time>
      </trkpt>
      <trkpt lat="42.85203" lon="0.51891">
        <ele>1250.922</ele>
        <time>2022-02-27T13:46:07Z</time>
      </trkpt>
      <trkpt lat="42.85201" lon="0.5189">
        <ele>1250.827</ele>
        <time>2022-02-27T13:46:09Z</time>
      </trkpt>
      <trkpt lat="42.852" lon="0.5189">
        <ele>1250.024</ele>
        <time>2022-02-27T13:46:11Z</time>
      </trkpt>
      <trkpt lat="42.85199" lon="0.5189">
        <ele>1250.445</ele>
        <time>2022-02-27T13:46:13Z</time>
      </trkpt>
      <trkpt lat="42.85201" lon="0.51892">
        <ele>1249.947</ele>
        <time>2022-02-27T13:46:15Z</time>
      </trkpt>
      <trkpt lat="42.85201" lon="0.51892">
        <ele>1249.965</ele>
        <time>2022-02-27T13:46:17Z</time>
      </trkpt>
      <trkpt lat="42.85201" lon="0.51892">
        <ele>1250.187</ele>
        <time>2022-02-27T13:46:19Z</time>
      </trkpt>
      <trkpt lat="42.85201" lon="0.51892">
        <ele>1250.176</ele>
        <time>2022-02-27T13:46:21Z</time>
      </trkpt>
      <trkpt lat="42.85201" lon="0.51892">
        <ele>1250.165</ele>
        <time>2022-02-27T13:46:23Z</time>
      </trkpt>
      <trkpt lat="42.85201" lon="0.51891">
        <ele>1250.447</ele>
        <time>2022-02-27T13:46:25Z</time>
      </trkpt>
      <trkpt lat="42.85201" lon="0.51891">
        <ele>1250.451</ele>
        <time>2022-02-27T13:46:27Z</time>
      </trkpt>
      <trkpt lat="42.85201" lon="0.51891">
        <ele>1250.996</ele>
        <time>2022-02-27T13:46:29Z</time>
      </trkpt>
      <trkpt lat="42.85201" lon="0.51891">
        <ele>1251.242</ele>
        <time>2022-02-27T13:46:31Z</time>
      </trkpt>
      <trkpt lat="42.85201" lon="0.5189">
        <ele>1251.304</ele>
        <time>2022-02-27T13:46:33Z</time>
      </trkpt>
      <trkpt lat="42.85201" lon="0.5189">
        <ele>1251.297</ele>
        <time>2022-02-27T13:46:35Z</time>
      </trkpt>
      <trkpt lat="42.85201" lon="0.5189">
        <ele>1251.294</ele>
        <time>2022-02-27T13:46:37Z</time>
      </trkpt>
      <trkpt lat="42.85201" lon="0.5189">
        <ele>1251.295</ele>
        <time>2022-02-27T13:46:39Z</time>
      </trkpt>
      <trkpt lat="42.85201" lon="0.5189">
        <ele>1251.302</ele>
        <time>2022-02-27T13:46:41Z</time>
      </trkpt>
      <trkpt lat="42.85201" lon="0.5189">
        <ele>1251.304</ele>
        <time>2022-02-27T13:46:43Z</time>
      </trkpt>
      <trkpt lat="42.85201" lon="0.5189">
        <ele>1251.309</ele>
        <time>2022-02-27T13:46:45Z</time>
      </trkpt>
      <trkpt lat="42.85201" lon="0.5189">
        <ele>1251.403</ele>
        <time>2022-02-27T13:46:47Z</time>
      </trkpt>
      <trkpt lat="42.85201" lon="0.5189">
        <ele>1251.751</ele>
        <time>2022-02-27T13:46:49Z</time>
      </trkpt>
      <trkpt lat="42.85201" lon="0.5189">
        <ele>1251.466</ele>
        <time>2022-02-27T13:46:51Z</time>
      </trkpt>
      <trkpt lat="42.85201" lon="0.5189">
        <ele>1251.662</ele>
        <time>2022-02-27T13:46:53Z</time>
      </trkpt>
      <trkpt lat="42.85202" lon="0.5189">
        <ele>1251.472</ele>
        <time>2022-02-27T13:46:55Z</time>
      </trkpt>
      <trkpt lat="42.85202" lon="0.5189">
        <ele>1251.248</ele>
        <time>2022-02-27T13:46:57Z</time>
      </trkpt>
      <trkpt lat="42.85202" lon="0.5189">
        <ele>1251.23</ele>
        <time>2022-02-27T13:46:59Z</time>
      </trkpt>
      <trkpt lat="42.85202" lon="0.5189">
        <ele>1251.224</ele>
        <time>2022-02-27T13:47:01Z</time>
      </trkpt>
      <trkpt lat="42.85202" lon="0.5189">
        <ele>1251.222</ele>
        <time>2022-02-27T13:47:03Z</time>
      </trkpt>
      <trkpt lat="42.85202" lon="0.5189">
        <ele>1251.224</ele>
        <time>2022-02-27T13:47:05Z</time>
      </trkpt>
      <trkpt lat="42.85202" lon="0.5189">
        <ele>1251.228</ele>
        <time>2022-02-27T13:47:07Z</time>
      </trkpt>
      <trkpt lat="42.85202" lon="0.5189">
        <ele>1251.219</ele>
        <time>2022-02-27T13:47:09Z</time>
      </trkpt>
      <trkpt lat="42.85202" lon="0.5189">
        <ele>1251.218</ele>
        <time>2022-02-27T13:47:11Z</time>
      </trkpt>
      <trkpt lat="42.85202" lon="0.5189">
        <ele>1251.219</ele>
        <time>2022-02-27T13:47:13Z</time>
      </trkpt>
      <trkpt lat="42.85202" lon="0.5189">
        <ele>1251.215</ele>
        <time>2022-02-27T13:47:15Z</time>
      </trkpt>
      <trkpt lat="42.85202" lon="0.5189">
        <ele>1251.214</ele>
        <time>2022-02-27T13:47:17Z</time>
      </trkpt>
      <trkpt lat="42.85202" lon="0.5189">
        <ele>1251.217</ele>
        <time>2022-02-27T13:47:19Z</time>
      </trkpt>
      <trkpt lat="42.85202" lon="0.5189">
        <ele>1251.837</ele>
        <time>2022-02-27T13:47:21Z</time>
      </trkpt>
      <trkpt lat="42.85202" lon="0.5189">
        <ele>1251.849</ele>
        <time>2022-02-27T13:47:23Z</time>
      </trkpt>
      <trkpt lat="42.85202" lon="0.5189">
        <ele>1251.553</ele>
        <time>2022-02-27T13:47:25Z</time>
      </trkpt>
      <trkpt lat="42.85202" lon="0.5189">
        <ele>1251.525</ele>
        <time>2022-02-27T13:47:27Z</time>
      </trkpt>
      <trkpt lat="42.85202" lon="0.5189">
        <ele>1251.524</ele>
        <time>2022-02-27T13:47:29Z</time>
      </trkpt>
      <trkpt lat="42.85202" lon="0.5189">
        <ele>1251.483</ele>
        <time>2022-02-27T13:47:31Z</time>
      </trkpt>
      <trkpt lat="42.85202" lon="0.5189">
        <ele>1251.444</ele>
        <time>2022-02-27T13:47:33Z</time>
      </trkpt>
      <trkpt lat="42.85202" lon="0.5189">
        <ele>1251.446</ele>
        <time>2022-02-27T13:47:35Z</time>
      </trkpt>
      <trkpt lat="42.85202" lon="0.5189">
        <ele>1251.177</ele>
        <time>2022-02-27T13:47:37Z</time>
      </trkpt>
      <trkpt lat="42.85202" lon="0.5189">
        <ele>1251.419</ele>
        <time>2022-02-27T13:47:39Z</time>
      </trkpt>
      <trkpt lat="42.85202" lon="0.5189">
        <ele>1251.565</ele>
        <time>2022-02-27T13:47:41Z</time>
      </trkpt>
      <trkpt lat="42.85202" lon="0.5189">
        <ele>1251.566</ele>
        <time>2022-02-27T13:47:43Z</time>
      </trkpt>
      <trkpt lat="42.85202" lon="0.5189">
        <ele>1251.567</ele>
        <time>2022-02-27T13:47:45Z</time>
      </trkpt>
      <trkpt lat="42.85202" lon="0.5189">
        <ele>1251.57</ele>
        <time>2022-02-27T13:47:47Z</time>
      </trkpt>
      <trkpt lat="42.85202" lon="0.5189">
        <ele>1251.571</ele>
        <time>2022-02-27T13:47:49Z</time>
      </trkpt>
      <trkpt lat="42.85202" lon="0.5189">
        <ele>1251.568</ele>
        <time>2022-02-27T13:47:51Z</time>
      </trkpt>
      <trkpt lat="42.85202" lon="0.5189">
        <ele>1251.569</ele>
        <time>2022-02-27T13:47:53Z</time>
      </trkpt>
      <trkpt lat="42.85202" lon="0.5189">
        <ele>1251.571</ele>
        <time>2022-02-27T13:47:55Z</time>
      </trkpt>
      <trkpt lat="42.85202" lon="0.5189">
        <ele>1251.569</ele>
        <time>2022-02-27T13:47:57Z</time>
      </trkpt>
      <trkpt lat="42.85202" lon="0.5189">
        <ele>1251.312</ele>
        <time>2022-02-27T13:47:59Z</time>
      </trkpt>
      <trkpt lat="42.85202" lon="0.5189">
        <ele>1251.233</ele>
        <time>2022-02-27T13:48:01Z</time>
      </trkpt>
      <trkpt lat="42.85202" lon="0.5189">
        <ele>1250.466</ele>
        <time>2022-02-27T13:48:03Z</time>
      </trkpt>
      <trkpt lat="42.85202" lon="0.5189">
        <ele>1250.59</ele>
        <time>2022-02-27T13:48:05Z</time>
      </trkpt>
      <trkpt lat="42.85202" lon="0.5189">
        <ele>1251.323</ele>
        <time>2022-02-27T13:48:07Z</time>
      </trkpt>
      <trkpt lat="42.85202" lon="0.5189">
        <ele>1251.463</ele>
        <time>2022-02-27T13:48:09Z</time>
      </trkpt>
      <trkpt lat="42.85202" lon="0.5189">
        <ele>1251.456</ele>
        <time>2022-02-27T13:48:11Z</time>
      </trkpt>
      <trkpt lat="42.85202" lon="0.5189">
        <ele>1251.78</ele>
        <time>2022-02-27T13:48:13Z</time>
      </trkpt>
      <trkpt lat="42.85202" lon="0.5189">
        <ele>1251.802</ele>
        <time>2022-02-27T13:48:15Z</time>
      </trkpt>
      <trkpt lat="42.85203" lon="0.5189">
        <ele>1251.821</ele>
        <time>2022-02-27T13:48:17Z</time>
      </trkpt>
      <trkpt lat="42.85203" lon="0.5189">
        <ele>1251.83</ele>
        <time>2022-02-27T13:48:19Z</time>
      </trkpt>
      <trkpt lat="42.85203" lon="0.5189">
        <ele>1251.828</ele>
        <time>2022-02-27T13:48:21Z</time>
      </trkpt>
      <trkpt lat="42.85203" lon="0.51891">
        <ele>1251.839</ele>
        <time>2022-02-27T13:48:23Z</time>
      </trkpt>
      <trkpt lat="42.85203" lon="0.51891">
        <ele>1251.84</ele>
        <time>2022-02-27T13:48:25Z</time>
      </trkpt>
      <trkpt lat="42.85203" lon="0.51891">
        <ele>1251.972</ele>
        <time>2022-02-27T13:48:27Z</time>
      </trkpt>
      <trkpt lat="42.85203" lon="0.51891">
        <ele>1251.959</ele>
        <time>2022-02-27T13:48:29Z</time>
      </trkpt>
      <trkpt lat="42.85203" lon="0.51891">
        <ele>1251.955</ele>
        <time>2022-02-27T13:48:31Z</time>
      </trkpt>
      <trkpt lat="42.85203" lon="0.51891">
        <ele>1251.949</ele>
        <time>2022-02-27T13:48:33Z</time>
      </trkpt>
      <trkpt lat="42.85203" lon="0.51891">
        <ele>1251.951</ele>
        <time>2022-02-27T13:48:35Z</time>
      </trkpt>
      <trkpt lat="42.85203" lon="0.51891">
        <ele>1251.955</ele>
        <time>2022-02-27T13:48:37Z</time>
      </trkpt>
      <trkpt lat="42.85203" lon="0.51891">
        <ele>1251.953</ele>
        <time>2022-02-27T13:48:39Z</time>
      </trkpt>
      <trkpt lat="42.85203" lon="0.51891">
        <ele>1251.947</ele>
        <time>2022-02-27T13:48:41Z</time>
      </trkpt>
      <trkpt lat="42.85203" lon="0.51891">
        <ele>1251.946</ele>
        <time>2022-02-27T13:48:43Z</time>
      </trkpt>
      <trkpt lat="42.85203" lon="0.51891">
        <ele>1251.946</ele>
        <time>2022-02-27T13:48:45Z</time>
      </trkpt>
      <trkpt lat="42.85204" lon="0.51891">
        <ele>1252.394</ele>
        <time>2022-02-27T13:48:47Z</time>
      </trkpt>
      <trkpt lat="42.85204" lon="0.51891">
        <ele>1252.411</ele>
        <time>2022-02-27T13:48:49Z</time>
      </trkpt>
      <trkpt lat="42.85204" lon="0.51891">
        <ele>1252.412</ele>
        <time>2022-02-27T13:48:51Z</time>
      </trkpt>
      <trkpt lat="42.85203" lon="0.51891">
        <ele>1252.08</ele>
        <time>2022-02-27T13:48:53Z</time>
      </trkpt>
      <trkpt lat="42.85203" lon="0.51891">
        <ele>1252.085</ele>
        <time>2022-02-27T13:48:55Z</time>
      </trkpt>
      <trkpt lat="42.85203" lon="0.51891">
        <ele>1252.093</ele>
        <time>2022-02-27T13:48:57Z</time>
      </trkpt>
      <trkpt lat="42.85203" lon="0.51891">
        <ele>1252.088</ele>
        <time>2022-02-27T13:48:59Z</time>
      </trkpt>
      <trkpt lat="42.85203" lon="0.51891">
        <ele>1252.088</ele>
        <time>2022-02-27T13:49:01Z</time>
      </trkpt>
      <trkpt lat="42.85203" lon="0.51891">
        <ele>1252.081</ele>
        <time>2022-02-27T13:49:03Z</time>
      </trkpt>
      <trkpt lat="42.85203" lon="0.51891">
        <ele>1252.073</ele>
        <time>2022-02-27T13:49:05Z</time>
      </trkpt>
      <trkpt lat="42.85203" lon="0.51891">
        <ele>1252.078</ele>
        <time>2022-02-27T13:49:07Z</time>
      </trkpt>
      <trkpt lat="42.85203" lon="0.51891">
        <ele>1252.085</ele>
        <time>2022-02-27T13:49:09Z</time>
      </trkpt>
      <trkpt lat="42.85203" lon="0.51891">
        <ele>1251.964</ele>
        <time>2022-02-27T13:49:11Z</time>
      </trkpt>
      <trkpt lat="42.85203" lon="0.5189">
        <ele>1252.143</ele>
        <time>2022-02-27T13:49:13Z</time>
      </trkpt>
      <trkpt lat="42.85203" lon="0.5189">
        <ele>1252.146</ele>
        <time>2022-02-27T13:49:15Z</time>
      </trkpt>
      <trkpt lat="42.85203" lon="0.5189">
        <ele>1251.951</ele>
        <time>2022-02-27T13:49:17Z</time>
      </trkpt>
      <trkpt lat="42.85203" lon="0.5189">
        <ele>1252.067</ele>
        <time>2022-02-27T13:49:19Z</time>
      </trkpt>
      <trkpt lat="42.85203" lon="0.5189">
        <ele>1252.071</ele>
        <time>2022-02-27T13:49:21Z</time>
      </trkpt>
      <trkpt lat="42.85203" lon="0.5189">
        <ele>1251.802</ele>
        <time>2022-02-27T13:49:23Z</time>
      </trkpt>
      <trkpt lat="42.85203" lon="0.5189">
        <ele>1251.907</ele>
        <time>2022-02-27T13:49:25Z</time>
      </trkpt>
      <trkpt lat="42.85203" lon="0.5189">
        <ele>1251.842</ele>
        <time>2022-02-27T13:49:27Z</time>
      </trkpt>
      <trkpt lat="42.85203" lon="0.5189">
        <ele>1252.135</ele>
        <time>2022-02-27T13:49:29Z</time>
      </trkpt>
      <trkpt lat="42.85203" lon="0.51891">
        <ele>1252.138</ele>
        <time>2022-02-27T13:49:31Z</time>
      </trkpt>
      <trkpt lat="42.85203" lon="0.51891">
        <ele>1252.919</ele>
        <time>2022-02-27T13:49:33Z</time>
      </trkpt>
      <trkpt lat="42.85202" lon="0.51891">
        <ele>1252.928</ele>
        <time>2022-02-27T13:49:35Z</time>
      </trkpt>
      <trkpt lat="42.85202" lon="0.51891">
        <ele>1252.932</ele>
        <time>2022-02-27T13:49:37Z</time>
      </trkpt>
      <trkpt lat="42.85202" lon="0.51891">
        <ele>1252.931</ele>
        <time>2022-02-27T13:49:39Z</time>
      </trkpt>
      <trkpt lat="42.85202" lon="0.51891">
        <ele>1252.931</ele>
        <time>2022-02-27T13:49:41Z</time>
      </trkpt>
      <trkpt lat="42.85202" lon="0.51891">
        <ele>1252.936</ele>
        <time>2022-02-27T13:49:43Z</time>
      </trkpt>
      <trkpt lat="42.85202" lon="0.51891">
        <ele>1252.94</ele>
        <time>2022-02-27T13:49:45Z</time>
      </trkpt>
      <trkpt lat="42.85203" lon="0.5189">
        <ele>1253.01</ele>
        <time>2022-02-27T13:49:47Z</time>
      </trkpt>
      <trkpt lat="42.85203" lon="0.51891">
        <ele>1254.17</ele>
        <time>2022-02-27T13:49:49Z</time>
      </trkpt>
      <trkpt lat="42.85203" lon="0.51891">
        <ele>1254.068</ele>
        <time>2022-02-27T13:49:51Z</time>
      </trkpt>
      <trkpt lat="42.85203" lon="0.51892">
        <ele>1254.073</ele>
        <time>2022-02-27T13:49:53Z</time>
      </trkpt>
      <trkpt lat="42.85203" lon="0.51892">
        <ele>1254.069</ele>
        <time>2022-02-27T13:49:55Z</time>
      </trkpt>
      <trkpt lat="42.85203" lon="0.51892">
        <ele>1254.075</ele>
        <time>2022-02-27T13:49:57Z</time>
      </trkpt>
      <trkpt lat="42.85203" lon="0.51892">
        <ele>1254.08</ele>
        <time>2022-02-27T13:49:59Z</time>
      </trkpt>
      <trkpt lat="42.85203" lon="0.51892">
        <ele>1254.076</ele>
        <time>2022-02-27T13:50:01Z</time>
      </trkpt>
      <trkpt lat="42.85203" lon="0.51892">
        <ele>1254.075</ele>
        <time>2022-02-27T13:50:03Z</time>
      </trkpt>
      <trkpt lat="42.85203" lon="0.51892">
        <ele>1254.072</ele>
        <time>2022-02-27T13:50:05Z</time>
      </trkpt>
      <trkpt lat="42.85203" lon="0.51892">
        <ele>1254.07</ele>
        <time>2022-02-27T13:50:07Z</time>
      </trkpt>
      <trkpt lat="42.85203" lon="0.51892">
        <ele>1254.067</ele>
        <time>2022-02-27T13:50:09Z</time>
      </trkpt>
      <trkpt lat="42.85203" lon="0.51892">
        <ele>1254.07</ele>
        <time>2022-02-27T13:50:11Z</time>
      </trkpt>
      <trkpt lat="42.85203" lon="0.51892">
        <ele>1254.064</ele>
        <time>2022-02-27T13:50:13Z</time>
      </trkpt>
      <trkpt lat="42.85203" lon="0.51891">
        <ele>1253.75</ele>
        <time>2022-02-27T13:50:15Z</time>
      </trkpt>
      <trkpt lat="42.85203" lon="0.51891">
        <ele>1253.755</ele>
        <time>2022-02-27T13:50:17Z</time>
      </trkpt>
      <trkpt lat="42.85203" lon="0.51891">
        <ele>1253.764</ele>
        <time>2022-02-27T13:50:19Z</time>
      </trkpt>
      <trkpt lat="42.85203" lon="0.51892">
        <ele>1254.204</ele>
        <time>2022-02-27T13:50:21Z</time>
      </trkpt>
      <trkpt lat="42.85203" lon="0.51892">
        <ele>1254.153</ele>
        <time>2022-02-27T13:50:23Z</time>
      </trkpt>
      <trkpt lat="42.85203" lon="0.51892">
        <ele>1254.155</ele>
        <time>2022-02-27T13:50:25Z</time>
      </trkpt>
      <trkpt lat="42.85203" lon="0.51892">
        <ele>1254.157</ele>
        <time>2022-02-27T13:50:27Z</time>
      </trkpt>
      <trkpt lat="42.85203" lon="0.51892">
        <ele>1254.152</ele>
        <time>2022-02-27T13:50:29Z</time>
      </trkpt>
      <trkpt lat="42.85203" lon="0.51892">
        <ele>1254.145</ele>
        <time>2022-02-27T13:50:31Z</time>
      </trkpt>
      <trkpt lat="42.85203" lon="0.51892">
        <ele>1254.142</ele>
        <time>2022-02-27T13:50:33Z</time>
      </trkpt>
      <trkpt lat="42.85203" lon="0.51892">
        <ele>1254.148</ele>
        <time>2022-02-27T13:50:35Z</time>
      </trkpt>
      <trkpt lat="42.85204" lon="0.51892">
        <ele>1253.58</ele>
        <time>2022-02-27T13:50:37Z</time>
      </trkpt>
      <trkpt lat="42.85204" lon="0.51892">
        <ele>1253.984</ele>
        <time>2022-02-27T13:50:39Z</time>
      </trkpt>
      <trkpt lat="42.85204" lon="0.51892">
        <ele>1253.997</ele>
        <time>2022-02-27T13:50:41Z</time>
      </trkpt>
      <trkpt lat="42.85204" lon="0.51893">
        <ele>1254.065</ele>
        <time>2022-02-27T13:50:43Z</time>
      </trkpt>
      <trkpt lat="42.85203" lon="0.51893">
        <ele>1254.069</ele>
        <time>2022-02-27T13:50:45Z</time>
      </trkpt>
      <trkpt lat="42.85203" lon="0.51893">
        <ele>1254.085</ele>
        <time>2022-02-27T13:50:47Z</time>
      </trkpt>
      <trkpt lat="42.85203" lon="0.51893">
        <ele>1254.091</ele>
        <time>2022-02-27T13:50:49Z</time>
      </trkpt>
      <trkpt lat="42.85203" lon="0.51893">
        <ele>1254.09</ele>
        <time>2022-02-27T13:50:51Z</time>
      </trkpt>
      <trkpt lat="42.85203" lon="0.51893">
        <ele>1254.076</ele>
        <time>2022-02-27T13:50:53Z</time>
      </trkpt>
      <trkpt lat="42.85203" lon="0.51893">
        <ele>1254.656</ele>
        <time>2022-02-27T13:50:55Z</time>
      </trkpt>
      <trkpt lat="42.85203" lon="0.51892">
        <ele>1254.695</ele>
        <time>2022-02-27T13:50:57Z</time>
      </trkpt>
      <trkpt lat="42.85203" lon="0.51892">
        <ele>1254.687</ele>
        <time>2022-02-27T13:50:59Z</time>
      </trkpt>
      <trkpt lat="42.85203" lon="0.51892">
        <ele>1254.679</ele>
        <time>2022-02-27T13:51:01Z</time>
      </trkpt>
      <trkpt lat="42.85203" lon="0.51892">
        <ele>1254.19</ele>
        <time>2022-02-27T13:51:03Z</time>
      </trkpt>
      <trkpt lat="42.85204" lon="0.51892">
        <ele>1254.189</ele>
        <time>2022-02-27T13:51:05Z</time>
      </trkpt>
      <trkpt lat="42.85204" lon="0.51892">
        <ele>1254.193</ele>
        <time>2022-02-27T13:51:07Z</time>
      </trkpt>
      <trkpt lat="42.85204" lon="0.51892">
        <ele>1254.19</ele>
        <time>2022-02-27T13:51:09Z</time>
      </trkpt>
      <trkpt lat="42.85204" lon="0.51892">
        <ele>1254.196</ele>
        <time>2022-02-27T13:51:11Z</time>
      </trkpt>
      <trkpt lat="42.85204" lon="0.51892">
        <ele>1254.198</ele>
        <time>2022-02-27T13:51:13Z</time>
      </trkpt>
      <trkpt lat="42.85204" lon="0.51892">
        <ele>1254.198</ele>
        <time>2022-02-27T13:51:15Z</time>
      </trkpt>
      <trkpt lat="42.85204" lon="0.51892">
        <ele>1254.19</ele>
        <time>2022-02-27T13:51:17Z</time>
      </trkpt>
      <trkpt lat="42.85204" lon="0.51892">
        <ele>1254.182</ele>
        <time>2022-02-27T13:51:19Z</time>
      </trkpt>
      <trkpt lat="42.85204" lon="0.51892">
        <ele>1254.19</ele>
        <time>2022-02-27T13:51:21Z</time>
      </trkpt>
      <trkpt lat="42.85204" lon="0.51892">
        <ele>1254.362</ele>
        <time>2022-02-27T13:51:23Z</time>
      </trkpt>
      <trkpt lat="42.85204" lon="0.51892">
        <ele>1254.403</ele>
        <time>2022-02-27T13:51:25Z</time>
      </trkpt>
      <trkpt lat="42.85204" lon="0.51892">
        <ele>1254.4</ele>
        <time>2022-02-27T13:51:27Z</time>
      </trkpt>
      <trkpt lat="42.85204" lon="0.51892">
        <ele>1254.413</ele>
        <time>2022-02-27T13:51:29Z</time>
      </trkpt>
      <trkpt lat="42.85204" lon="0.51892">
        <ele>1254.405</ele>
        <time>2022-02-27T13:51:31Z</time>
      </trkpt>
      <trkpt lat="42.85204" lon="0.51892">
        <ele>1254.4</ele>
        <time>2022-02-27T13:51:33Z</time>
      </trkpt>
      <trkpt lat="42.85204" lon="0.51892">
        <ele>1254.396</ele>
        <time>2022-02-27T13:51:35Z</time>
      </trkpt>
      <trkpt lat="42.85204" lon="0.51892">
        <ele>1254.404</ele>
        <time>2022-02-27T13:51:37Z</time>
      </trkpt>
      <trkpt lat="42.85204" lon="0.51892">
        <ele>1254.411</ele>
        <time>2022-02-27T13:51:39Z</time>
      </trkpt>
      <trkpt lat="42.85204" lon="0.51892">
        <ele>1254.409</ele>
        <time>2022-02-27T13:51:41Z</time>
      </trkpt>
      <trkpt lat="42.85204" lon="0.51892">
        <ele>1254.411</ele>
        <time>2022-02-27T13:51:43Z</time>
      </trkpt>
      <trkpt lat="42.85203" lon="0.51892">
        <ele>1254.536</ele>
        <time>2022-02-27T13:51:45Z</time>
      </trkpt>
      <trkpt lat="42.85203" lon="0.51892">
        <ele>1254.1</ele>
        <time>2022-02-27T13:51:47Z</time>
      </trkpt>
      <trkpt lat="42.85203" lon="0.51892">
        <ele>1254.607</ele>
        <time>2022-02-27T13:51:49Z</time>
      </trkpt>
      <trkpt lat="42.85203" lon="0.51892">
        <ele>1254.601</ele>
        <time>2022-02-27T13:51:51Z</time>
      </trkpt>
      <trkpt lat="42.85203" lon="0.51892">
        <ele>1254.6</ele>
        <time>2022-02-27T13:51:53Z</time>
      </trkpt>
      <trkpt lat="42.85203" lon="0.51892">
        <ele>1254.602</ele>
        <time>2022-02-27T13:51:55Z</time>
      </trkpt>
      <trkpt lat="42.85203" lon="0.51892">
        <ele>1254.593</ele>
        <time>2022-02-27T13:51:57Z</time>
      </trkpt>
      <trkpt lat="42.85203" lon="0.51892">
        <ele>1254.596</ele>
        <time>2022-02-27T13:51:59Z</time>
      </trkpt>
      <trkpt lat="42.85203" lon="0.51892">
        <ele>1254.596</ele>
        <time>2022-02-27T13:52:01Z</time>
      </trkpt>
      <trkpt lat="42.85203" lon="0.51891">
        <ele>1254.196</ele>
        <time>2022-02-27T13:52:03Z</time>
      </trkpt>
      <trkpt lat="42.85203" lon="0.51891">
        <ele>1254.194</ele>
        <time>2022-02-27T13:52:05Z</time>
      </trkpt>
      <trkpt lat="42.85203" lon="0.51891">
        <ele>1254.17</ele>
        <time>2022-02-27T13:52:07Z</time>
      </trkpt>
      <trkpt lat="42.85203" lon="0.51891">
        <ele>1254.148</ele>
        <time>2022-02-27T13:52:09Z</time>
      </trkpt>
      <trkpt lat="42.85203" lon="0.51891">
        <ele>1254.14</ele>
        <time>2022-02-27T13:52:11Z</time>
      </trkpt>
      <trkpt lat="42.85204" lon="0.51891">
        <ele>1253.426</ele>
        <time>2022-02-27T13:52:13Z</time>
      </trkpt>
      <trkpt lat="42.85204" lon="0.5189">
        <ele>1252.027</ele>
        <time>2022-02-27T13:52:15Z</time>
      </trkpt>
      <trkpt lat="42.85204" lon="0.5189">
        <ele>1252.248</ele>
        <time>2022-02-27T13:52:17Z</time>
      </trkpt>
      <trkpt lat="42.85204" lon="0.5189">
        <ele>1251.026</ele>
        <time>2022-02-27T13:52:19Z</time>
      </trkpt>
      <trkpt lat="42.85204" lon="0.5189">
        <ele>1251.012</ele>
        <time>2022-02-27T13:52:21Z</time>
      </trkpt>
      <trkpt lat="42.85204" lon="0.5189">
        <ele>1250.989</ele>
        <time>2022-02-27T13:52:23Z</time>
      </trkpt>
      <trkpt lat="42.85204" lon="0.5189">
        <ele>1250.974</ele>
        <time>2022-02-27T13:52:25Z</time>
      </trkpt>
      <trkpt lat="42.85204" lon="0.5189">
        <ele>1250.957</ele>
        <time>2022-02-27T13:52:27Z</time>
      </trkpt>
      <trkpt lat="42.85204" lon="0.5189">
        <ele>1250.96</ele>
        <time>2022-02-27T13:52:29Z</time>
      </trkpt>
      <trkpt lat="42.85204" lon="0.5189">
        <ele>1250.948</ele>
        <time>2022-02-27T13:52:31Z</time>
      </trkpt>
      <trkpt lat="42.85204" lon="0.5189">
        <ele>1250.934</ele>
        <time>2022-02-27T13:52:33Z</time>
      </trkpt>
    </trkseg>
  </trk>
</gpx>